<?xml version="1.0" encoding="utf-8"?>
<gpx xmlns:xsi="http://www.w3.org/2001/XMLSchema-instance" xmlns:xsd="http://www.w3.org/2001/XMLSchema" version="1.1" creator="Shapelink.com" xmlns="http://www.topografix.com/GPX/1/1" xmlns:gpxtpx="http://www.garmin.com/xmlschemas/TrackPointExtension/v1">
  <metadata>
    <name>Sykling 82.34 km, 2013-04-27</name>
    <desc></desc>
    <author><name>Mikael Blom</name></author> 
    <time>2013-04-27T10:03:27Z</time>
  </metadata>
  <trk>
    <name>Sykling 82.34 km, 2013-04-27</name>
    <trkseg>
      <trkpt lat="59.9775662" lon="17.738992">
        <ele>36.1868</ele>
        <time>2013-04-27T10:03:27Z</time>
      </trkpt>
      <trkpt lat="59.9775119" lon="17.7390118">
        <ele>35.7061</ele>
        <time>2013-04-27T10:03:28Z</time>
      </trkpt>
      <trkpt lat="59.977454" lon="17.7390395">
        <ele>35.7061</ele>
        <time>2013-04-27T10:03:29Z</time>
      </trkpt>
      <trkpt lat="59.9773927" lon="17.7390673">
        <ele>35.2255</ele>
        <time>2013-04-27T10:03:30Z</time>
      </trkpt>
      <trkpt lat="59.9773286" lon="17.7390936">
        <ele>35.2255</ele>
        <time>2013-04-27T10:03:31Z</time>
      </trkpt>
      <trkpt lat="59.9772632" lon="17.7391236">
        <ele>35.2255</ele>
        <time>2013-04-27T10:03:32Z</time>
      </trkpt>
      <trkpt lat="59.9771976" lon="17.7391585">
        <ele>34.7449</ele>
        <time>2013-04-27T10:03:33Z</time>
      </trkpt>
      <trkpt lat="59.9771329" lon="17.7391927">
        <ele>34.7449</ele>
        <time>2013-04-27T10:03:34Z</time>
      </trkpt>
      <trkpt lat="59.9770698" lon="17.7392234">
        <ele>34.7449</ele>
        <time>2013-04-27T10:03:35Z</time>
      </trkpt>
      <trkpt lat="59.9770096" lon="17.7392501">
        <ele>34.2642</ele>
        <time>2013-04-27T10:03:36Z</time>
      </trkpt>
      <trkpt lat="59.9769521" lon="17.7392708">
        <ele>34.2642</ele>
        <time>2013-04-27T10:03:37Z</time>
      </trkpt>
      <trkpt lat="59.9768955" lon="17.7392916">
        <ele>34.2642</ele>
        <time>2013-04-27T10:03:38Z</time>
      </trkpt>
      <trkpt lat="59.9768384" lon="17.7393144">
        <ele>34.2642</ele>
        <time>2013-04-27T10:03:39Z</time>
      </trkpt>
      <trkpt lat="59.9767806" lon="17.7393392">
        <ele>33.7834</ele>
        <time>2013-04-27T10:03:40Z</time>
      </trkpt>
      <trkpt lat="59.9767219" lon="17.7393717">
        <ele>33.7834</ele>
        <time>2013-04-27T10:03:41Z</time>
      </trkpt>
      <trkpt lat="59.9766624" lon="17.7394145">
        <ele>33.3029</ele>
        <time>2013-04-27T10:03:42Z</time>
      </trkpt>
      <trkpt lat="59.9766015" lon="17.739466">
        <ele>33.3029</ele>
        <time>2013-04-27T10:03:43Z</time>
      </trkpt>
      <trkpt lat="59.9765419" lon="17.7395288">
        <ele>32.8223</ele>
        <time>2013-04-27T10:03:44Z</time>
      </trkpt>
      <trkpt lat="59.9764859" lon="17.7396053">
        <ele>32.8223</ele>
        <time>2013-04-27T10:03:45Z</time>
      </trkpt>
      <trkpt lat="59.9764342" lon="17.7396925">
        <ele>32.3416</ele>
        <time>2013-04-27T10:03:46Z</time>
      </trkpt>
      <trkpt lat="59.9763874" lon="17.739787">
        <ele>32.3416</ele>
        <time>2013-04-27T10:03:47Z</time>
      </trkpt>
      <trkpt lat="59.976346" lon="17.739888">
        <ele>32.3416</ele>
        <time>2013-04-27T10:03:48Z</time>
      </trkpt>
      <trkpt lat="59.9763092" lon="17.73999">
        <ele>32.3416</ele>
        <time>2013-04-27T10:03:49Z</time>
      </trkpt>
      <trkpt lat="59.976274" lon="17.7400908">
        <ele>32.3416</ele>
        <time>2013-04-27T10:03:50Z</time>
      </trkpt>
      <trkpt lat="59.9762393" lon="17.7401899">
        <ele>32.3416</ele>
        <time>2013-04-27T10:03:51Z</time>
      </trkpt>
      <trkpt lat="59.9762049" lon="17.7402881">
        <ele>32.3416</ele>
        <time>2013-04-27T10:03:52Z</time>
      </trkpt>
      <trkpt lat="59.976172" lon="17.7403867">
        <ele>31.8607</ele>
        <time>2013-04-27T10:03:53Z</time>
      </trkpt>
      <trkpt lat="59.9761402" lon="17.7404872">
        <ele>31.8607</ele>
        <time>2013-04-27T10:03:54Z</time>
      </trkpt>
      <trkpt lat="59.9761072" lon="17.7405912">
        <ele>31.8607</ele>
        <time>2013-04-27T10:03:55Z</time>
      </trkpt>
      <trkpt lat="59.9760747" lon="17.7406969">
        <ele>31.8607</ele>
        <time>2013-04-27T10:03:56Z</time>
      </trkpt>
      <trkpt lat="59.9760449" lon="17.7408012">
        <ele>31.8607</ele>
        <time>2013-04-27T10:03:57Z</time>
      </trkpt>
      <trkpt lat="59.9760167" lon="17.7409033">
        <ele>31.8607</ele>
        <time>2013-04-27T10:03:58Z</time>
      </trkpt>
      <trkpt lat="59.9759892" lon="17.7410022">
        <ele>31.8607</ele>
        <time>2013-04-27T10:03:59Z</time>
      </trkpt>
      <trkpt lat="59.9759641" lon="17.7410983">
        <ele>31.8607</ele>
        <time>2013-04-27T10:04:00Z</time>
      </trkpt>
      <trkpt lat="59.9759414" lon="17.7411923">
        <ele>31.8607</ele>
        <time>2013-04-27T10:04:01Z</time>
      </trkpt>
      <trkpt lat="59.9759188" lon="17.7412819">
        <ele>31.8607</ele>
        <time>2013-04-27T10:04:02Z</time>
      </trkpt>
      <trkpt lat="59.975898" lon="17.7413684">
        <ele>31.3801</ele>
        <time>2013-04-27T10:04:03Z</time>
      </trkpt>
      <trkpt lat="59.9758798" lon="17.7414524">
        <ele>31.3801</ele>
        <time>2013-04-27T10:04:04Z</time>
      </trkpt>
      <trkpt lat="59.9758613" lon="17.7415346">
        <ele>31.3801</ele>
        <time>2013-04-27T10:04:05Z</time>
      </trkpt>
      <trkpt lat="59.975842" lon="17.7416175">
        <ele>31.3801</ele>
        <time>2013-04-27T10:04:06Z</time>
      </trkpt>
      <trkpt lat="59.9758227" lon="17.7417014">
        <ele>31.3801</ele>
        <time>2013-04-27T10:04:07Z</time>
      </trkpt>
      <trkpt lat="59.9758021" lon="17.7417874">
        <ele>31.8607</ele>
        <time>2013-04-27T10:04:08Z</time>
      </trkpt>
      <trkpt lat="59.9757802" lon="17.7418765">
        <ele>31.8607</ele>
        <time>2013-04-27T10:04:09Z</time>
      </trkpt>
      <trkpt lat="59.9757565" lon="17.7419687">
        <ele>31.8607</ele>
        <time>2013-04-27T10:04:10Z</time>
      </trkpt>
      <trkpt lat="59.9757323" lon="17.7420641">
        <ele>31.8607</ele>
        <time>2013-04-27T10:04:11Z</time>
      </trkpt>
      <trkpt lat="59.9757089" lon="17.7421614">
        <ele>31.8607</ele>
        <time>2013-04-27T10:04:12Z</time>
      </trkpt>
      <trkpt lat="59.9756849" lon="17.7422577">
        <ele>31.8607</ele>
        <time>2013-04-27T10:04:13Z</time>
      </trkpt>
      <trkpt lat="59.9756595" lon="17.7423536">
        <ele>31.8607</ele>
        <time>2013-04-27T10:04:14Z</time>
      </trkpt>
      <trkpt lat="59.9756338" lon="17.7424509">
        <ele>31.8607</ele>
        <time>2013-04-27T10:04:15Z</time>
      </trkpt>
      <trkpt lat="59.9756082" lon="17.7425502">
        <ele>31.8607</ele>
        <time>2013-04-27T10:04:16Z</time>
      </trkpt>
      <trkpt lat="59.9755814" lon="17.7426515">
        <ele>31.8607</ele>
        <time>2013-04-27T10:04:17Z</time>
      </trkpt>
      <trkpt lat="59.9755525" lon="17.742754">
        <ele>31.8607</ele>
        <time>2013-04-27T10:04:18Z</time>
      </trkpt>
      <trkpt lat="59.9755218" lon="17.7428576">
        <ele>31.8607</ele>
        <time>2013-04-27T10:04:19Z</time>
      </trkpt>
      <trkpt lat="59.9754912" lon="17.7429628">
        <ele>31.8607</ele>
        <time>2013-04-27T10:04:20Z</time>
      </trkpt>
      <trkpt lat="59.9754623" lon="17.7430701">
        <ele>31.8607</ele>
        <time>2013-04-27T10:04:21Z</time>
      </trkpt>
      <trkpt lat="59.9754344" lon="17.7431793">
        <ele>31.8607</ele>
        <time>2013-04-27T10:04:22Z</time>
      </trkpt>
      <trkpt lat="59.9754075" lon="17.7432895">
        <ele>31.8607</ele>
        <time>2013-04-27T10:04:23Z</time>
      </trkpt>
      <trkpt lat="59.9753837" lon="17.7434027">
        <ele>31.8607</ele>
        <time>2013-04-27T10:04:24Z</time>
      </trkpt>
      <trkpt lat="59.9753618" lon="17.7435171">
        <ele>32.3416</ele>
        <time>2013-04-27T10:04:25Z</time>
      </trkpt>
      <trkpt lat="59.9753412" lon="17.7436331">
        <ele>32.3416</ele>
        <time>2013-04-27T10:04:26Z</time>
      </trkpt>
      <trkpt lat="59.9753207" lon="17.74375">
        <ele>32.3416</ele>
        <time>2013-04-27T10:04:27Z</time>
      </trkpt>
      <trkpt lat="59.975298" lon="17.7438666">
        <ele>32.3416</ele>
        <time>2013-04-27T10:04:28Z</time>
      </trkpt>
      <trkpt lat="59.9752752" lon="17.7439837">
        <ele>32.3416</ele>
        <time>2013-04-27T10:04:29Z</time>
      </trkpt>
      <trkpt lat="59.975252" lon="17.7440992">
        <ele>32.3416</ele>
        <time>2013-04-27T10:04:30Z</time>
      </trkpt>
      <trkpt lat="59.975229" lon="17.7442127">
        <ele>32.3416</ele>
        <time>2013-04-27T10:04:31Z</time>
      </trkpt>
      <trkpt lat="59.9752064" lon="17.7443247">
        <ele>32.3416</ele>
        <time>2013-04-27T10:04:32Z</time>
      </trkpt>
      <trkpt lat="59.9751821" lon="17.7444332">
        <ele>32.3416</ele>
        <time>2013-04-27T10:04:33Z</time>
      </trkpt>
      <trkpt lat="59.9751554" lon="17.7445375">
        <ele>32.3416</ele>
        <time>2013-04-27T10:04:34Z</time>
      </trkpt>
      <trkpt lat="59.9751271" lon="17.7446401">
        <ele>32.3416</ele>
        <time>2013-04-27T10:04:35Z</time>
      </trkpt>
      <trkpt lat="59.9750987" lon="17.7447414">
        <ele>32.3416</ele>
        <time>2013-04-27T10:04:36Z</time>
      </trkpt>
      <trkpt lat="59.9750698" lon="17.744841">
        <ele>31.8607</ele>
        <time>2013-04-27T10:04:37Z</time>
      </trkpt>
      <trkpt lat="59.9750402" lon="17.744941">
        <ele>31.8607</ele>
        <time>2013-04-27T10:04:38Z</time>
      </trkpt>
      <trkpt lat="59.9750084" lon="17.7450388">
        <ele>31.8607</ele>
        <time>2013-04-27T10:04:39Z</time>
      </trkpt>
      <trkpt lat="59.9749738" lon="17.7451339">
        <ele>32.3416</ele>
        <time>2013-04-27T10:04:40Z</time>
      </trkpt>
      <trkpt lat="59.9749396" lon="17.7452278">
        <ele>32.3416</ele>
        <time>2013-04-27T10:04:41Z</time>
      </trkpt>
      <trkpt lat="59.9749063" lon="17.74532">
        <ele>32.3416</ele>
        <time>2013-04-27T10:04:42Z</time>
      </trkpt>
      <trkpt lat="59.9748732" lon="17.7454118">
        <ele>32.3416</ele>
        <time>2013-04-27T10:04:43Z</time>
      </trkpt>
      <trkpt lat="59.9748386" lon="17.7455015">
        <ele>32.8223</ele>
        <time>2013-04-27T10:04:44Z</time>
      </trkpt>
      <trkpt lat="59.9748016" lon="17.7455865">
        <ele>32.8223</ele>
        <time>2013-04-27T10:04:45Z</time>
      </trkpt>
      <trkpt lat="59.974764" lon="17.7456709">
        <ele>32.8223</ele>
        <time>2013-04-27T10:04:46Z</time>
      </trkpt>
      <trkpt lat="59.9747257" lon="17.7457533">
        <ele>33.3029</ele>
        <time>2013-04-27T10:04:47Z</time>
      </trkpt>
      <trkpt lat="59.9746857" lon="17.7458318">
        <ele>33.3029</ele>
        <time>2013-04-27T10:04:48Z</time>
      </trkpt>
      <trkpt lat="59.9746442" lon="17.7459086">
        <ele>33.3029</ele>
        <time>2013-04-27T10:04:49Z</time>
      </trkpt>
      <trkpt lat="59.9746012" lon="17.7459838">
        <ele>33.3029</ele>
        <time>2013-04-27T10:04:50Z</time>
      </trkpt>
      <trkpt lat="59.9745559" lon="17.7460603">
        <ele>33.3029</ele>
        <time>2013-04-27T10:04:51Z</time>
      </trkpt>
      <trkpt lat="59.9745086" lon="17.7461362">
        <ele>33.3029</ele>
        <time>2013-04-27T10:04:52Z</time>
      </trkpt>
      <trkpt lat="59.9744594" lon="17.7462142">
        <ele>33.3029</ele>
        <time>2013-04-27T10:04:53Z</time>
      </trkpt>
      <trkpt lat="59.9744092" lon="17.746294">
        <ele>32.8223</ele>
        <time>2013-04-27T10:04:54Z</time>
      </trkpt>
      <trkpt lat="59.9743563" lon="17.7463744">
        <ele>32.8223</ele>
        <time>2013-04-27T10:04:55Z</time>
      </trkpt>
      <trkpt lat="59.9743008" lon="17.7464545">
        <ele>32.8223</ele>
        <time>2013-04-27T10:04:56Z</time>
      </trkpt>
      <trkpt lat="59.9742435" lon="17.7465314">
        <ele>32.8223</ele>
        <time>2013-04-27T10:04:57Z</time>
      </trkpt>
      <trkpt lat="59.9741864" lon="17.7466068">
        <ele>32.8223</ele>
        <time>2013-04-27T10:04:58Z</time>
      </trkpt>
      <trkpt lat="59.9741299" lon="17.7466811">
        <ele>32.8223</ele>
        <time>2013-04-27T10:04:59Z</time>
      </trkpt>
      <trkpt lat="59.974074" lon="17.746754">
        <ele>32.8223</ele>
        <time>2013-04-27T10:05:00Z</time>
      </trkpt>
      <trkpt lat="59.9740182" lon="17.7468243">
        <ele>32.8223</ele>
        <time>2013-04-27T10:05:01Z</time>
      </trkpt>
      <trkpt lat="59.9739633" lon="17.7468937">
        <ele>33.3029</ele>
        <time>2013-04-27T10:05:02Z</time>
      </trkpt>
      <trkpt lat="59.9739097" lon="17.7469616">
        <ele>33.3029</ele>
        <time>2013-04-27T10:05:03Z</time>
      </trkpt>
      <trkpt lat="59.973857" lon="17.7470262">
        <ele>33.3029</ele>
        <time>2013-04-27T10:05:04Z</time>
      </trkpt>
      <trkpt lat="59.9738055" lon="17.747087">
        <ele>33.3029</ele>
        <time>2013-04-27T10:05:05Z</time>
      </trkpt>
      <trkpt lat="59.9737544" lon="17.747145">
        <ele>33.3029</ele>
        <time>2013-04-27T10:05:06Z</time>
      </trkpt>
      <trkpt lat="59.9737057" lon="17.7472015">
        <ele>33.3029</ele>
        <time>2013-04-27T10:05:07Z</time>
      </trkpt>
      <trkpt lat="59.9736555" lon="17.7472572">
        <ele>33.7834</ele>
        <time>2013-04-27T10:05:08Z</time>
      </trkpt>
      <trkpt lat="59.9736022" lon="17.7473109">
        <ele>33.7834</ele>
        <time>2013-04-27T10:05:09Z</time>
      </trkpt>
      <trkpt lat="59.9735478" lon="17.7473628">
        <ele>33.3029</ele>
        <time>2013-04-27T10:05:10Z</time>
      </trkpt>
      <trkpt lat="59.9734924" lon="17.7474151">
        <ele>33.3029</ele>
        <time>2013-04-27T10:05:11Z</time>
      </trkpt>
      <trkpt lat="59.9734365" lon="17.747472">
        <ele>33.3029</ele>
        <time>2013-04-27T10:05:12Z</time>
      </trkpt>
      <trkpt lat="59.9733808" lon="17.7475325">
        <ele>33.3029</ele>
        <time>2013-04-27T10:05:13Z</time>
      </trkpt>
      <trkpt lat="59.973324" lon="17.7475927">
        <ele>33.3029</ele>
        <time>2013-04-27T10:05:14Z</time>
      </trkpt>
      <trkpt lat="59.9732669" lon="17.7476531">
        <ele>33.3029</ele>
        <time>2013-04-27T10:05:15Z</time>
      </trkpt>
      <trkpt lat="59.9732096" lon="17.7477155">
        <ele>33.3029</ele>
        <time>2013-04-27T10:05:16Z</time>
      </trkpt>
      <trkpt lat="59.973153" lon="17.7477788">
        <ele>33.3029</ele>
        <time>2013-04-27T10:05:17Z</time>
      </trkpt>
      <trkpt lat="59.9730985" lon="17.7478455">
        <ele>33.3029</ele>
        <time>2013-04-27T10:05:18Z</time>
      </trkpt>
      <trkpt lat="59.9730453" lon="17.7479134">
        <ele>33.7834</ele>
        <time>2013-04-27T10:05:19Z</time>
      </trkpt>
      <trkpt lat="59.9729925" lon="17.7479824">
        <ele>33.7834</ele>
        <time>2013-04-27T10:05:20Z</time>
      </trkpt>
      <trkpt lat="59.9729406" lon="17.7480554">
        <ele>33.7834</ele>
        <time>2013-04-27T10:05:21Z</time>
      </trkpt>
      <trkpt lat="59.9728919" lon="17.748136">
        <ele>33.7834</ele>
        <time>2013-04-27T10:05:22Z</time>
      </trkpt>
      <trkpt lat="59.9728473" lon="17.7482241">
        <ele>33.7834</ele>
        <time>2013-04-27T10:05:23Z</time>
      </trkpt>
      <trkpt lat="59.9728043" lon="17.7483159">
        <ele>33.7834</ele>
        <time>2013-04-27T10:05:24Z</time>
      </trkpt>
      <trkpt lat="59.972764" lon="17.7484102">
        <ele>33.7834</ele>
        <time>2013-04-27T10:05:25Z</time>
      </trkpt>
      <trkpt lat="59.9727271" lon="17.7485012">
        <ele>33.7834</ele>
        <time>2013-04-27T10:05:26Z</time>
      </trkpt>
      <trkpt lat="59.9726923" lon="17.7485841">
        <ele>33.3029</ele>
        <time>2013-04-27T10:05:27Z</time>
      </trkpt>
      <trkpt lat="59.9726593" lon="17.7486557">
        <ele>33.7834</ele>
        <time>2013-04-27T10:05:28Z</time>
      </trkpt>
      <trkpt lat="59.972627" lon="17.7487296">
        <ele>33.3029</ele>
        <time>2013-04-27T10:05:29Z</time>
      </trkpt>
      <trkpt lat="59.9725915" lon="17.7488107">
        <ele>32.8223</ele>
        <time>2013-04-27T10:05:30Z</time>
      </trkpt>
      <trkpt lat="59.9725562" lon="17.7488896">
        <ele>32.8223</ele>
        <time>2013-04-27T10:05:31Z</time>
      </trkpt>
      <trkpt lat="59.9725198" lon="17.7489681">
        <ele>32.8223</ele>
        <time>2013-04-27T10:05:32Z</time>
      </trkpt>
      <trkpt lat="59.9724817" lon="17.7490487">
        <ele>32.8223</ele>
        <time>2013-04-27T10:05:33Z</time>
      </trkpt>
      <trkpt lat="59.9724431" lon="17.7491276">
        <ele>33.3029</ele>
        <time>2013-04-27T10:05:34Z</time>
      </trkpt>
      <trkpt lat="59.9724061" lon="17.7492077">
        <ele>33.7834</ele>
        <time>2013-04-27T10:05:35Z</time>
      </trkpt>
      <trkpt lat="59.9723703" lon="17.7492887">
        <ele>33.7834</ele>
        <time>2013-04-27T10:05:36Z</time>
      </trkpt>
      <trkpt lat="59.9723323" lon="17.7493705">
        <ele>33.3029</ele>
        <time>2013-04-27T10:05:37Z</time>
      </trkpt>
      <trkpt lat="59.9722972" lon="17.7494527">
        <ele>33.3029</ele>
        <time>2013-04-27T10:05:38Z</time>
      </trkpt>
      <trkpt lat="59.9722629" lon="17.749532">
        <ele>33.3029</ele>
        <time>2013-04-27T10:05:39Z</time>
      </trkpt>
      <trkpt lat="59.9722304" lon="17.7496069">
        <ele>32.8223</ele>
        <time>2013-04-27T10:05:40Z</time>
      </trkpt>
      <trkpt lat="59.9721934" lon="17.74969">
        <ele>33.3029</ele>
        <time>2013-04-27T10:05:41Z</time>
      </trkpt>
      <trkpt lat="59.972157" lon="17.7497803">
        <ele>33.3029</ele>
        <time>2013-04-27T10:05:42Z</time>
      </trkpt>
      <trkpt lat="59.9721201" lon="17.7498663">
        <ele>33.3029</ele>
        <time>2013-04-27T10:05:43Z</time>
      </trkpt>
      <trkpt lat="59.9720813" lon="17.749949">
        <ele>33.3029</ele>
        <time>2013-04-27T10:05:44Z</time>
      </trkpt>
      <trkpt lat="59.9720424" lon="17.7500326">
        <ele>32.8223</ele>
        <time>2013-04-27T10:05:45Z</time>
      </trkpt>
      <trkpt lat="59.9720023" lon="17.7501173">
        <ele>32.8223</ele>
        <time>2013-04-27T10:05:46Z</time>
      </trkpt>
      <trkpt lat="59.9719611" lon="17.7502043">
        <ele>32.3416</ele>
        <time>2013-04-27T10:05:47Z</time>
      </trkpt>
      <trkpt lat="59.9719182" lon="17.7502935">
        <ele>31.8607</ele>
        <time>2013-04-27T10:05:48Z</time>
      </trkpt>
      <trkpt lat="59.971873" lon="17.7503828">
        <ele>31.3801</ele>
        <time>2013-04-27T10:05:49Z</time>
      </trkpt>
      <trkpt lat="59.9718247" lon="17.7504728">
        <ele>30.8995</ele>
        <time>2013-04-27T10:05:50Z</time>
      </trkpt>
      <trkpt lat="59.9717705" lon="17.7505635">
        <ele>30.8995</ele>
        <time>2013-04-27T10:05:51Z</time>
      </trkpt>
      <trkpt lat="59.971715" lon="17.7506527">
        <ele>30.4188</ele>
        <time>2013-04-27T10:05:52Z</time>
      </trkpt>
      <trkpt lat="59.9716599" lon="17.7507433">
        <ele>30.4188</ele>
        <time>2013-04-27T10:05:53Z</time>
      </trkpt>
      <trkpt lat="59.9716042" lon="17.7508342">
        <ele>29.9381</ele>
        <time>2013-04-27T10:05:54Z</time>
      </trkpt>
      <trkpt lat="59.9715461" lon="17.7509221">
        <ele>29.9381</ele>
        <time>2013-04-27T10:05:55Z</time>
      </trkpt>
      <trkpt lat="59.9714851" lon="17.751007">
        <ele>29.4575</ele>
        <time>2013-04-27T10:05:56Z</time>
      </trkpt>
      <trkpt lat="59.9714206" lon="17.7510897">
        <ele>29.4575</ele>
        <time>2013-04-27T10:05:57Z</time>
      </trkpt>
      <trkpt lat="59.9713528" lon="17.7511716">
        <ele>29.4575</ele>
        <time>2013-04-27T10:05:58Z</time>
      </trkpt>
      <trkpt lat="59.9712831" lon="17.751254">
        <ele>29.4575</ele>
        <time>2013-04-27T10:05:59Z</time>
      </trkpt>
      <trkpt lat="59.9712131" lon="17.7513374">
        <ele>29.4575</ele>
        <time>2013-04-27T10:06:00Z</time>
      </trkpt>
      <trkpt lat="59.9711415" lon="17.7514219">
        <ele>28.9769</ele>
        <time>2013-04-27T10:06:01Z</time>
      </trkpt>
      <trkpt lat="59.9710681" lon="17.7515064">
        <ele>28.9769</ele>
        <time>2013-04-27T10:06:02Z</time>
      </trkpt>
      <trkpt lat="59.9709937" lon="17.7515984">
        <ele>28.9769</ele>
        <time>2013-04-27T10:06:03Z</time>
      </trkpt>
      <trkpt lat="59.9709209" lon="17.7516945">
        <ele>28.9769</ele>
        <time>2013-04-27T10:06:04Z</time>
      </trkpt>
      <trkpt lat="59.97085" lon="17.751799">
        <ele>28.9769</ele>
        <time>2013-04-27T10:06:05Z</time>
      </trkpt>
      <trkpt lat="59.9707821" lon="17.7519127">
        <ele>28.9769</ele>
        <time>2013-04-27T10:06:06Z</time>
      </trkpt>
      <trkpt lat="59.9707156" lon="17.7520308">
        <ele>28.9769</ele>
        <time>2013-04-27T10:06:07Z</time>
      </trkpt>
      <trkpt lat="59.9706487" lon="17.7521516">
        <ele>28.4962</ele>
        <time>2013-04-27T10:06:08Z</time>
      </trkpt>
      <trkpt lat="59.9705832" lon="17.7522769">
        <ele>28.4962</ele>
        <time>2013-04-27T10:06:09Z</time>
      </trkpt>
      <trkpt lat="59.9705204" lon="17.7524096">
        <ele>28.4962</ele>
        <time>2013-04-27T10:06:10Z</time>
      </trkpt>
      <trkpt lat="59.9704613" lon="17.7525514">
        <ele>28.9769</ele>
        <time>2013-04-27T10:06:11Z</time>
      </trkpt>
      <trkpt lat="59.9704055" lon="17.7526988">
        <ele>28.9769</ele>
        <time>2013-04-27T10:06:12Z</time>
      </trkpt>
      <trkpt lat="59.9703551" lon="17.7528462">
        <ele>28.9769</ele>
        <time>2013-04-27T10:06:13Z</time>
      </trkpt>
      <trkpt lat="59.9703071" lon="17.7529918">
        <ele>28.9769</ele>
        <time>2013-04-27T10:06:14Z</time>
      </trkpt>
      <trkpt lat="59.9702585" lon="17.7531335">
        <ele>28.9769</ele>
        <time>2013-04-27T10:06:15Z</time>
      </trkpt>
      <trkpt lat="59.9702098" lon="17.753271">
        <ele>28.4962</ele>
        <time>2013-04-27T10:06:16Z</time>
      </trkpt>
      <trkpt lat="59.9701615" lon="17.7534046">
        <ele>28.4962</ele>
        <time>2013-04-27T10:06:17Z</time>
      </trkpt>
      <trkpt lat="59.9701142" lon="17.7535355">
        <ele>28.4962</ele>
        <time>2013-04-27T10:06:18Z</time>
      </trkpt>
      <trkpt lat="59.9700677" lon="17.7536632">
        <ele>28.4962</ele>
        <time>2013-04-27T10:06:19Z</time>
      </trkpt>
      <trkpt lat="59.9700215" lon="17.753784">
        <ele>28.0155</ele>
        <time>2013-04-27T10:06:20Z</time>
      </trkpt>
      <trkpt lat="59.9699745" lon="17.7538964">
        <ele>28.0155</ele>
        <time>2013-04-27T10:06:21Z</time>
      </trkpt>
      <trkpt lat="59.9699263" lon="17.754001">
        <ele>28.0155</ele>
        <time>2013-04-27T10:06:22Z</time>
      </trkpt>
      <trkpt lat="59.969878" lon="17.754102">
        <ele>28.0155</ele>
        <time>2013-04-27T10:06:23Z</time>
      </trkpt>
      <trkpt lat="59.9698306" lon="17.7542011">
        <ele>28.0155</ele>
        <time>2013-04-27T10:06:24Z</time>
      </trkpt>
      <trkpt lat="59.9697835" lon="17.7542972">
        <ele>28.0155</ele>
        <time>2013-04-27T10:06:25Z</time>
      </trkpt>
      <trkpt lat="59.9697372" lon="17.7543907">
        <ele>28.4962</ele>
        <time>2013-04-27T10:06:26Z</time>
      </trkpt>
      <trkpt lat="59.9696928" lon="17.7544834">
        <ele>28.4962</ele>
        <time>2013-04-27T10:06:27Z</time>
      </trkpt>
      <trkpt lat="59.9696485" lon="17.754575">
        <ele>28.4962</ele>
        <time>2013-04-27T10:06:28Z</time>
      </trkpt>
      <trkpt lat="59.9696041" lon="17.7546676">
        <ele>28.4962</ele>
        <time>2013-04-27T10:06:29Z</time>
      </trkpt>
      <trkpt lat="59.9695595" lon="17.7547603">
        <ele>28.4962</ele>
        <time>2013-04-27T10:06:30Z</time>
      </trkpt>
      <trkpt lat="59.9695156" lon="17.7548511">
        <ele>28.9769</ele>
        <time>2013-04-27T10:06:31Z</time>
      </trkpt>
      <trkpt lat="59.9694725" lon="17.7549418">
        <ele>28.9769</ele>
        <time>2013-04-27T10:06:32Z</time>
      </trkpt>
      <trkpt lat="59.9694283" lon="17.7550297">
        <ele>28.9769</ele>
        <time>2013-04-27T10:06:33Z</time>
      </trkpt>
      <trkpt lat="59.969382" lon="17.7551194">
        <ele>28.9769</ele>
        <time>2013-04-27T10:06:34Z</time>
      </trkpt>
      <trkpt lat="59.9693373" lon="17.7552104">
        <ele>29.4575</ele>
        <time>2013-04-27T10:06:35Z</time>
      </trkpt>
      <trkpt lat="59.9692921" lon="17.7553047">
        <ele>29.4575</ele>
        <time>2013-04-27T10:06:36Z</time>
      </trkpt>
      <trkpt lat="59.9692467" lon="17.7554001">
        <ele>29.9381</ele>
        <time>2013-04-27T10:06:37Z</time>
      </trkpt>
      <trkpt lat="59.9692021" lon="17.7554979">
        <ele>29.9381</ele>
        <time>2013-04-27T10:06:38Z</time>
      </trkpt>
      <trkpt lat="59.9691577" lon="17.7555966">
        <ele>30.4188</ele>
        <time>2013-04-27T10:06:39Z</time>
      </trkpt>
      <trkpt lat="59.9691131" lon="17.7556953">
        <ele>30.4188</ele>
        <time>2013-04-27T10:06:40Z</time>
      </trkpt>
      <trkpt lat="59.969068" lon="17.7557928">
        <ele>30.4188</ele>
        <time>2013-04-27T10:06:41Z</time>
      </trkpt>
      <trkpt lat="59.969021" lon="17.7558871">
        <ele>30.4188</ele>
        <time>2013-04-27T10:06:42Z</time>
      </trkpt>
      <trkpt lat="59.9689711" lon="17.7559793">
        <ele>30.8995</ele>
        <time>2013-04-27T10:06:43Z</time>
      </trkpt>
      <trkpt lat="59.9689228" lon="17.7560716">
        <ele>30.8995</ele>
        <time>2013-04-27T10:06:44Z</time>
      </trkpt>
      <trkpt lat="59.9688758" lon="17.7561666">
        <ele>31.3801</ele>
        <time>2013-04-27T10:06:45Z</time>
      </trkpt>
      <trkpt lat="59.9688276" lon="17.7562606">
        <ele>31.8607</ele>
        <time>2013-04-27T10:06:46Z</time>
      </trkpt>
      <trkpt lat="59.968779" lon="17.756354">
        <ele>31.8607</ele>
        <time>2013-04-27T10:06:47Z</time>
      </trkpt>
      <trkpt lat="59.9687295" lon="17.7564466">
        <ele>31.8607</ele>
        <time>2013-04-27T10:06:48Z</time>
      </trkpt>
      <trkpt lat="59.9686777" lon="17.7565389">
        <ele>31.8607</ele>
        <time>2013-04-27T10:06:49Z</time>
      </trkpt>
      <trkpt lat="59.9686229" lon="17.756632">
        <ele>31.8607</ele>
        <time>2013-04-27T10:06:50Z</time>
      </trkpt>
      <trkpt lat="59.9685663" lon="17.7567241">
        <ele>31.8607</ele>
        <time>2013-04-27T10:06:51Z</time>
      </trkpt>
      <trkpt lat="59.968508" lon="17.7568129">
        <ele>32.3416</ele>
        <time>2013-04-27T10:06:52Z</time>
      </trkpt>
      <trkpt lat="59.9684494" lon="17.7568983">
        <ele>32.3416</ele>
        <time>2013-04-27T10:06:53Z</time>
      </trkpt>
      <trkpt lat="59.9683907" lon="17.7569832">
        <ele>32.3416</ele>
        <time>2013-04-27T10:06:54Z</time>
      </trkpt>
      <trkpt lat="59.9683334" lon="17.7570654">
        <ele>31.8607</ele>
        <time>2013-04-27T10:06:55Z</time>
      </trkpt>
      <trkpt lat="59.9682774" lon="17.7571463">
        <ele>31.8607</ele>
        <time>2013-04-27T10:06:56Z</time>
      </trkpt>
      <trkpt lat="59.9682215" lon="17.7572257">
        <ele>31.8607</ele>
        <time>2013-04-27T10:06:57Z</time>
      </trkpt>
      <trkpt lat="59.9681645" lon="17.7573048">
        <ele>31.8607</ele>
        <time>2013-04-27T10:06:58Z</time>
      </trkpt>
      <trkpt lat="59.9681055" lon="17.7573864">
        <ele>31.3801</ele>
        <time>2013-04-27T10:06:59Z</time>
      </trkpt>
      <trkpt lat="59.9680432" lon="17.7574689">
        <ele>30.8995</ele>
        <time>2013-04-27T10:07:00Z</time>
      </trkpt>
      <trkpt lat="59.9679772" lon="17.7575505">
        <ele>30.4188</ele>
        <time>2013-04-27T10:07:01Z</time>
      </trkpt>
      <trkpt lat="59.9679086" lon="17.7576313">
        <ele>29.9381</ele>
        <time>2013-04-27T10:07:02Z</time>
      </trkpt>
      <trkpt lat="59.9678381" lon="17.7577134">
        <ele>29.9381</ele>
        <time>2013-04-27T10:07:03Z</time>
      </trkpt>
      <trkpt lat="59.9677661" lon="17.7577961">
        <ele>29.4575</ele>
        <time>2013-04-27T10:07:04Z</time>
      </trkpt>
      <trkpt lat="59.9676925" lon="17.757879">
        <ele>29.4575</ele>
        <time>2013-04-27T10:07:05Z</time>
      </trkpt>
      <trkpt lat="59.9676174" lon="17.7579605">
        <ele>29.4575</ele>
        <time>2013-04-27T10:07:06Z</time>
      </trkpt>
      <trkpt lat="59.9675414" lon="17.7580404">
        <ele>28.9769</ele>
        <time>2013-04-27T10:07:07Z</time>
      </trkpt>
      <trkpt lat="59.9674651" lon="17.7581192">
        <ele>28.9769</ele>
        <time>2013-04-27T10:07:08Z</time>
      </trkpt>
      <trkpt lat="59.9673889" lon="17.7581965">
        <ele>28.9769</ele>
        <time>2013-04-27T10:07:09Z</time>
      </trkpt>
      <trkpt lat="59.9673123" lon="17.7582683">
        <ele>28.9769</ele>
        <time>2013-04-27T10:07:10Z</time>
      </trkpt>
      <trkpt lat="59.9672348" lon="17.7583343">
        <ele>28.9769</ele>
        <time>2013-04-27T10:07:11Z</time>
      </trkpt>
      <trkpt lat="59.967158" lon="17.7583979">
        <ele>28.9769</ele>
        <time>2013-04-27T10:07:12Z</time>
      </trkpt>
      <trkpt lat="59.9670817" lon="17.758461">
        <ele>28.9769</ele>
        <time>2013-04-27T10:07:13Z</time>
      </trkpt>
      <trkpt lat="59.9670057" lon="17.7585233">
        <ele>28.9769</ele>
        <time>2013-04-27T10:07:14Z</time>
      </trkpt>
      <trkpt lat="59.9669307" lon="17.7585864">
        <ele>28.9769</ele>
        <time>2013-04-27T10:07:15Z</time>
      </trkpt>
      <trkpt lat="59.9668567" lon="17.7586498">
        <ele>29.4575</ele>
        <time>2013-04-27T10:07:16Z</time>
      </trkpt>
      <trkpt lat="59.9667837" lon="17.7587155">
        <ele>29.4575</ele>
        <time>2013-04-27T10:07:17Z</time>
      </trkpt>
      <trkpt lat="59.9667117" lon="17.7587828">
        <ele>29.4575</ele>
        <time>2013-04-27T10:07:18Z</time>
      </trkpt>
      <trkpt lat="59.9666411" lon="17.7588528">
        <ele>29.4575</ele>
        <time>2013-04-27T10:07:19Z</time>
      </trkpt>
      <trkpt lat="59.9665726" lon="17.7589273">
        <ele>29.4575</ele>
        <time>2013-04-27T10:07:20Z</time>
      </trkpt>
      <trkpt lat="59.9665065" lon="17.759007">
        <ele>29.9381</ele>
        <time>2013-04-27T10:07:21Z</time>
      </trkpt>
      <trkpt lat="59.9664437" lon="17.7590921">
        <ele>29.9381</ele>
        <time>2013-04-27T10:07:22Z</time>
      </trkpt>
      <trkpt lat="59.9663835" lon="17.7591806">
        <ele>29.9381</ele>
        <time>2013-04-27T10:07:23Z</time>
      </trkpt>
      <trkpt lat="59.9663237" lon="17.7592672">
        <ele>29.9381</ele>
        <time>2013-04-27T10:07:24Z</time>
      </trkpt>
      <trkpt lat="59.9662653" lon="17.7593552">
        <ele>29.9381</ele>
        <time>2013-04-27T10:07:25Z</time>
      </trkpt>
      <trkpt lat="59.966207" lon="17.7594443">
        <ele>29.9381</ele>
        <time>2013-04-27T10:07:26Z</time>
      </trkpt>
      <trkpt lat="59.9661493" lon="17.7595351">
        <ele>29.9381</ele>
        <time>2013-04-27T10:07:27Z</time>
      </trkpt>
      <trkpt lat="59.9660929" lon="17.7596287">
        <ele>29.9381</ele>
        <time>2013-04-27T10:07:28Z</time>
      </trkpt>
      <trkpt lat="59.9660381" lon="17.7597239">
        <ele>29.9381</ele>
        <time>2013-04-27T10:07:29Z</time>
      </trkpt>
      <trkpt lat="59.9659858" lon="17.7598207">
        <ele>29.4575</ele>
        <time>2013-04-27T10:07:30Z</time>
      </trkpt>
      <trkpt lat="59.9659345" lon="17.7599156">
        <ele>29.4575</ele>
        <time>2013-04-27T10:07:31Z</time>
      </trkpt>
      <trkpt lat="59.9658839" lon="17.7600063">
        <ele>29.4575</ele>
        <time>2013-04-27T10:07:32Z</time>
      </trkpt>
      <trkpt lat="59.9658338" lon="17.7600952">
        <ele>29.4575</ele>
        <time>2013-04-27T10:07:33Z</time>
      </trkpt>
      <trkpt lat="59.9657838" lon="17.7601819">
        <ele>29.4575</ele>
        <time>2013-04-27T10:07:34Z</time>
      </trkpt>
      <trkpt lat="59.9657335" lon="17.7602674">
        <ele>29.4575</ele>
        <time>2013-04-27T10:07:35Z</time>
      </trkpt>
      <trkpt lat="59.9656841" lon="17.7603503">
        <ele>29.9381</ele>
        <time>2013-04-27T10:07:36Z</time>
      </trkpt>
      <trkpt lat="59.9656347" lon="17.7604314">
        <ele>29.9381</ele>
        <time>2013-04-27T10:07:37Z</time>
      </trkpt>
      <trkpt lat="59.9655853" lon="17.7605107">
        <ele>29.9381</ele>
        <time>2013-04-27T10:07:38Z</time>
      </trkpt>
      <trkpt lat="59.965536" lon="17.760589">
        <ele>29.9381</ele>
        <time>2013-04-27T10:07:39Z</time>
      </trkpt>
      <trkpt lat="59.9654875" lon="17.7606699">
        <ele>29.9381</ele>
        <time>2013-04-27T10:07:40Z</time>
      </trkpt>
      <trkpt lat="59.9654407" lon="17.7607553">
        <ele>29.9381</ele>
        <time>2013-04-27T10:07:41Z</time>
      </trkpt>
      <trkpt lat="59.9653948" lon="17.7608439">
        <ele>29.9381</ele>
        <time>2013-04-27T10:07:42Z</time>
      </trkpt>
      <trkpt lat="59.9653498" lon="17.7609377">
        <ele>29.9381</ele>
        <time>2013-04-27T10:07:43Z</time>
      </trkpt>
      <trkpt lat="59.9653066" lon="17.7610371">
        <ele>29.9381</ele>
        <time>2013-04-27T10:07:44Z</time>
      </trkpt>
      <trkpt lat="59.9652658" lon="17.7611403">
        <ele>29.9381</ele>
        <time>2013-04-27T10:07:45Z</time>
      </trkpt>
      <trkpt lat="59.9652264" lon="17.7612444">
        <ele>29.9381</ele>
        <time>2013-04-27T10:07:46Z</time>
      </trkpt>
      <trkpt lat="59.9651881" lon="17.7613493">
        <ele>30.4188</ele>
        <time>2013-04-27T10:07:47Z</time>
      </trkpt>
      <trkpt lat="59.9651503" lon="17.7614542">
        <ele>30.4188</ele>
        <time>2013-04-27T10:07:48Z</time>
      </trkpt>
      <trkpt lat="59.9651125" lon="17.7615583">
        <ele>30.4188</ele>
        <time>2013-04-27T10:07:49Z</time>
      </trkpt>
      <trkpt lat="59.9650739" lon="17.7616603">
        <ele>30.4188</ele>
        <time>2013-04-27T10:07:50Z</time>
      </trkpt>
      <trkpt lat="59.9650342" lon="17.7617618">
        <ele>30.4188</ele>
        <time>2013-04-27T10:07:51Z</time>
      </trkpt>
      <trkpt lat="59.9649933" lon="17.7618639">
        <ele>29.9381</ele>
        <time>2013-04-27T10:07:52Z</time>
      </trkpt>
      <trkpt lat="59.9649514" lon="17.7619671">
        <ele>29.9381</ele>
        <time>2013-04-27T10:07:53Z</time>
      </trkpt>
      <trkpt lat="59.96491" lon="17.7620745">
        <ele>29.9381</ele>
        <time>2013-04-27T10:07:54Z</time>
      </trkpt>
      <trkpt lat="59.9648693" lon="17.762187">
        <ele>29.9381</ele>
        <time>2013-04-27T10:07:55Z</time>
      </trkpt>
      <trkpt lat="59.9648286" lon="17.7623036">
        <ele>29.4575</ele>
        <time>2013-04-27T10:07:56Z</time>
      </trkpt>
      <trkpt lat="59.9647878" lon="17.7624237">
        <ele>29.4575</ele>
        <time>2013-04-27T10:07:57Z</time>
      </trkpt>
      <trkpt lat="59.9647467" lon="17.7625452">
        <ele>29.4575</ele>
        <time>2013-04-27T10:07:58Z</time>
      </trkpt>
      <trkpt lat="59.9647064" lon="17.7626672">
        <ele>29.4575</ele>
        <time>2013-04-27T10:07:59Z</time>
      </trkpt>
      <trkpt lat="59.9646681" lon="17.762788">
        <ele>29.4575</ele>
        <time>2013-04-27T10:08:00Z</time>
      </trkpt>
      <trkpt lat="59.9646337" lon="17.7629073">
        <ele>29.4575</ele>
        <time>2013-04-27T10:08:01Z</time>
      </trkpt>
      <trkpt lat="59.9646036" lon="17.7630258">
        <ele>29.4575</ele>
        <time>2013-04-27T10:08:02Z</time>
      </trkpt>
      <trkpt lat="59.9645751" lon="17.7631423">
        <ele>29.4575</ele>
        <time>2013-04-27T10:08:03Z</time>
      </trkpt>
      <trkpt lat="59.9645476" lon="17.7632557">
        <ele>29.4575</ele>
        <time>2013-04-27T10:08:04Z</time>
      </trkpt>
      <trkpt lat="59.9645212" lon="17.7633662">
        <ele>29.4575</ele>
        <time>2013-04-27T10:08:05Z</time>
      </trkpt>
      <trkpt lat="59.9644943" lon="17.7634761">
        <ele>29.4575</ele>
        <time>2013-04-27T10:08:06Z</time>
      </trkpt>
      <trkpt lat="59.9644681" lon="17.7635868">
        <ele>29.4575</ele>
        <time>2013-04-27T10:08:07Z</time>
      </trkpt>
      <trkpt lat="59.9644414" lon="17.7636972">
        <ele>29.4575</ele>
        <time>2013-04-27T10:08:08Z</time>
      </trkpt>
      <trkpt lat="59.9644145" lon="17.7638065">
        <ele>29.4575</ele>
        <time>2013-04-27T10:08:09Z</time>
      </trkpt>
      <trkpt lat="59.9643868" lon="17.7639141">
        <ele>29.4575</ele>
        <time>2013-04-27T10:08:10Z</time>
      </trkpt>
      <trkpt lat="59.9643598" lon="17.7640209">
        <ele>29.4575</ele>
        <time>2013-04-27T10:08:11Z</time>
      </trkpt>
      <trkpt lat="59.964333" lon="17.7641288">
        <ele>29.4575</ele>
        <time>2013-04-27T10:08:12Z</time>
      </trkpt>
      <trkpt lat="59.9643065" lon="17.7642359">
        <ele>29.4575</ele>
        <time>2013-04-27T10:08:13Z</time>
      </trkpt>
      <trkpt lat="59.9642784" lon="17.7643408">
        <ele>29.4575</ele>
        <time>2013-04-27T10:08:14Z</time>
      </trkpt>
      <trkpt lat="59.9642489" lon="17.7644457">
        <ele>29.4575</ele>
        <time>2013-04-27T10:08:15Z</time>
      </trkpt>
      <trkpt lat="59.964221" lon="17.7645533">
        <ele>29.4575</ele>
        <time>2013-04-27T10:08:16Z</time>
      </trkpt>
      <trkpt lat="59.9641943" lon="17.7646627">
        <ele>29.4575</ele>
        <time>2013-04-27T10:08:17Z</time>
      </trkpt>
      <trkpt lat="59.9641686" lon="17.7647715">
        <ele>29.9381</ele>
        <time>2013-04-27T10:08:18Z</time>
      </trkpt>
      <trkpt lat="59.9641448" lon="17.7648799">
        <ele>29.9381</ele>
        <time>2013-04-27T10:08:19Z</time>
      </trkpt>
      <trkpt lat="59.9641236" lon="17.7649864">
        <ele>29.9381</ele>
        <time>2013-04-27T10:08:20Z</time>
      </trkpt>
      <trkpt lat="59.9641043" lon="17.7650896">
        <ele>30.4188</ele>
        <time>2013-04-27T10:08:21Z</time>
      </trkpt>
      <trkpt lat="59.9640874" lon="17.7651896">
        <ele>30.4188</ele>
        <time>2013-04-27T10:08:22Z</time>
      </trkpt>
      <trkpt lat="59.9640762" lon="17.7652875">
        <ele>30.4188</ele>
        <time>2013-04-27T10:08:23Z</time>
      </trkpt>
      <trkpt lat="59.9640692" lon="17.7653873">
        <ele>30.4188</ele>
        <time>2013-04-27T10:08:24Z</time>
      </trkpt>
      <trkpt lat="59.964063" lon="17.7654833">
        <ele>30.4188</ele>
        <time>2013-04-27T10:08:25Z</time>
      </trkpt>
      <trkpt lat="59.9640583" lon="17.7655782">
        <ele>30.8995</ele>
        <time>2013-04-27T10:08:26Z</time>
      </trkpt>
      <trkpt lat="59.9640499" lon="17.765678">
        <ele>31.3801</ele>
        <time>2013-04-27T10:08:27Z</time>
      </trkpt>
      <trkpt lat="59.9640454" lon="17.765764">
        <ele>31.8607</ele>
        <time>2013-04-27T10:08:28Z</time>
      </trkpt>
      <trkpt lat="59.964047" lon="17.7658439">
        <ele>32.3416</ele>
        <time>2013-04-27T10:08:29Z</time>
      </trkpt>
      <trkpt lat="59.9640489" lon="17.7659242">
        <ele>32.3416</ele>
        <time>2013-04-27T10:08:30Z</time>
      </trkpt>
      <trkpt lat="59.9640462" lon="17.7660066">
        <ele>32.3416</ele>
        <time>2013-04-27T10:08:31Z</time>
      </trkpt>
      <trkpt lat="59.9640454" lon="17.7660815">
        <ele>32.8223</ele>
        <time>2013-04-27T10:08:32Z</time>
      </trkpt>
      <trkpt lat="59.9640479" lon="17.7661585">
        <ele>32.8223</ele>
        <time>2013-04-27T10:08:33Z</time>
      </trkpt>
      <trkpt lat="59.9640542" lon="17.7662363">
        <ele>32.8223</ele>
        <time>2013-04-27T10:08:34Z</time>
      </trkpt>
      <trkpt lat="59.9640583" lon="17.7663236">
        <ele>32.3416</ele>
        <time>2013-04-27T10:08:35Z</time>
      </trkpt>
      <trkpt lat="59.9640631" lon="17.7664058">
        <ele>32.3416</ele>
        <time>2013-04-27T10:08:36Z</time>
      </trkpt>
      <trkpt lat="59.9640665" lon="17.7664907">
        <ele>31.8607</ele>
        <time>2013-04-27T10:08:37Z</time>
      </trkpt>
      <trkpt lat="59.9640655" lon="17.7665829">
        <ele>31.8607</ele>
        <time>2013-04-27T10:08:38Z</time>
      </trkpt>
      <trkpt lat="59.964064" lon="17.7666736">
        <ele>31.3801</ele>
        <time>2013-04-27T10:08:39Z</time>
      </trkpt>
      <trkpt lat="59.9640608" lon="17.7667678">
        <ele>31.3801</ele>
        <time>2013-04-27T10:08:40Z</time>
      </trkpt>
      <trkpt lat="59.9640578" lon="17.7668654">
        <ele>31.3801</ele>
        <time>2013-04-27T10:08:41Z</time>
      </trkpt>
      <trkpt lat="59.964054" lon="17.7669679">
        <ele>31.8607</ele>
        <time>2013-04-27T10:08:42Z</time>
      </trkpt>
      <trkpt lat="59.9640478" lon="17.7670678">
        <ele>31.8607</ele>
        <time>2013-04-27T10:08:43Z</time>
      </trkpt>
      <trkpt lat="59.9640384" lon="17.7671626">
        <ele>31.8607</ele>
        <time>2013-04-27T10:08:44Z</time>
      </trkpt>
      <trkpt lat="59.9640231" lon="17.7672528">
        <ele>32.3416</ele>
        <time>2013-04-27T10:08:45Z</time>
      </trkpt>
      <trkpt lat="59.9640073" lon="17.7673402">
        <ele>32.8223</ele>
        <time>2013-04-27T10:08:46Z</time>
      </trkpt>
      <trkpt lat="59.9639913" lon="17.7674287">
        <ele>32.8223</ele>
        <time>2013-04-27T10:08:47Z</time>
      </trkpt>
      <trkpt lat="59.9639752" lon="17.7675171">
        <ele>33.3029</ele>
        <time>2013-04-27T10:08:48Z</time>
      </trkpt>
      <trkpt lat="59.9639588" lon="17.7676086">
        <ele>33.3029</ele>
        <time>2013-04-27T10:08:49Z</time>
      </trkpt>
      <trkpt lat="59.9639417" lon="17.7677019">
        <ele>33.3029</ele>
        <time>2013-04-27T10:08:50Z</time>
      </trkpt>
      <trkpt lat="59.9639245" lon="17.7677951">
        <ele>33.3029</ele>
        <time>2013-04-27T10:08:51Z</time>
      </trkpt>
      <trkpt lat="59.9639058" lon="17.7678879">
        <ele>33.3029</ele>
        <time>2013-04-27T10:08:52Z</time>
      </trkpt>
      <trkpt lat="59.9638851" lon="17.7679811">
        <ele>32.8223</ele>
        <time>2013-04-27T10:08:53Z</time>
      </trkpt>
      <trkpt lat="59.9638625" lon="17.7680754">
        <ele>32.8223</ele>
        <time>2013-04-27T10:08:54Z</time>
      </trkpt>
      <trkpt lat="59.963838" lon="17.7681731">
        <ele>32.3416</ele>
        <time>2013-04-27T10:08:55Z</time>
      </trkpt>
      <trkpt lat="59.9638118" lon="17.7682743">
        <ele>32.3416</ele>
        <time>2013-04-27T10:08:56Z</time>
      </trkpt>
      <trkpt lat="59.9637844" lon="17.7683784">
        <ele>31.8607</ele>
        <time>2013-04-27T10:08:57Z</time>
      </trkpt>
      <trkpt lat="59.9637553" lon="17.7684841">
        <ele>31.8607</ele>
        <time>2013-04-27T10:08:58Z</time>
      </trkpt>
      <trkpt lat="59.9637251" lon="17.7685908">
        <ele>31.3801</ele>
        <time>2013-04-27T10:08:59Z</time>
      </trkpt>
      <trkpt lat="59.9636953" lon="17.7686975">
        <ele>31.3801</ele>
        <time>2013-04-27T10:09:00Z</time>
      </trkpt>
      <trkpt lat="59.963666" lon="17.7688027">
        <ele>31.3801</ele>
        <time>2013-04-27T10:09:01Z</time>
      </trkpt>
      <trkpt lat="59.9636368" lon="17.7689047">
        <ele>31.3801</ele>
        <time>2013-04-27T10:09:02Z</time>
      </trkpt>
      <trkpt lat="59.9636086" lon="17.7690036">
        <ele>31.8607</ele>
        <time>2013-04-27T10:09:03Z</time>
      </trkpt>
      <trkpt lat="59.9635808" lon="17.7691">
        <ele>31.8607</ele>
        <time>2013-04-27T10:09:04Z</time>
      </trkpt>
      <trkpt lat="59.9635538" lon="17.7691954">
        <ele>31.8607</ele>
        <time>2013-04-27T10:09:05Z</time>
      </trkpt>
      <trkpt lat="59.9635268" lon="17.7692889">
        <ele>31.8607</ele>
        <time>2013-04-27T10:09:06Z</time>
      </trkpt>
      <trkpt lat="59.9635014" lon="17.7693816">
        <ele>31.8607</ele>
        <time>2013-04-27T10:09:07Z</time>
      </trkpt>
      <trkpt lat="59.9634792" lon="17.7694741">
        <ele>31.8607</ele>
        <time>2013-04-27T10:09:08Z</time>
      </trkpt>
      <trkpt lat="59.963461" lon="17.7695672">
        <ele>31.8607</ele>
        <time>2013-04-27T10:09:09Z</time>
      </trkpt>
      <trkpt lat="59.9634466" lon="17.7696618">
        <ele>31.8607</ele>
        <time>2013-04-27T10:09:10Z</time>
      </trkpt>
      <trkpt lat="59.9634362" lon="17.7697574">
        <ele>31.8607</ele>
        <time>2013-04-27T10:09:11Z</time>
      </trkpt>
      <trkpt lat="59.9634287" lon="17.7698535">
        <ele>32.3416</ele>
        <time>2013-04-27T10:09:12Z</time>
      </trkpt>
      <trkpt lat="59.9634248" lon="17.7699504">
        <ele>32.3416</ele>
        <time>2013-04-27T10:09:13Z</time>
      </trkpt>
      <trkpt lat="59.9634237" lon="17.77005">
        <ele>32.3416</ele>
        <time>2013-04-27T10:09:14Z</time>
      </trkpt>
      <trkpt lat="59.9634244" lon="17.7701529">
        <ele>32.3416</ele>
        <time>2013-04-27T10:09:15Z</time>
      </trkpt>
      <trkpt lat="59.9634269" lon="17.7702588">
        <ele>32.3416</ele>
        <time>2013-04-27T10:09:16Z</time>
      </trkpt>
      <trkpt lat="59.9634316" lon="17.7703675">
        <ele>32.3416</ele>
        <time>2013-04-27T10:09:17Z</time>
      </trkpt>
      <trkpt lat="59.9634397" lon="17.7704787">
        <ele>32.3416</ele>
        <time>2013-04-27T10:09:18Z</time>
      </trkpt>
      <trkpt lat="59.9634492" lon="17.7705908">
        <ele>32.3416</ele>
        <time>2013-04-27T10:09:19Z</time>
      </trkpt>
      <trkpt lat="59.9634572" lon="17.7707054">
        <ele>32.3416</ele>
        <time>2013-04-27T10:09:20Z</time>
      </trkpt>
      <trkpt lat="59.9634707" lon="17.7708219">
        <ele>31.8607</ele>
        <time>2013-04-27T10:09:21Z</time>
      </trkpt>
      <trkpt lat="59.9634921" lon="17.7709393">
        <ele>31.8607</ele>
        <time>2013-04-27T10:09:22Z</time>
      </trkpt>
      <trkpt lat="59.9635163" lon="17.771058">
        <ele>31.8607</ele>
        <time>2013-04-27T10:09:23Z</time>
      </trkpt>
      <trkpt lat="59.9635402" lon="17.7711788">
        <ele>31.8607</ele>
        <time>2013-04-27T10:09:24Z</time>
      </trkpt>
      <trkpt lat="59.9635661" lon="17.7712984">
        <ele>31.8607</ele>
        <time>2013-04-27T10:09:25Z</time>
      </trkpt>
      <trkpt lat="59.9635947" lon="17.771415">
        <ele>31.3801</ele>
        <time>2013-04-27T10:09:26Z</time>
      </trkpt>
      <trkpt lat="59.9636237" lon="17.77153">
        <ele>31.3801</ele>
        <time>2013-04-27T10:09:27Z</time>
      </trkpt>
      <trkpt lat="59.9636516" lon="17.7716455">
        <ele>31.3801</ele>
        <time>2013-04-27T10:09:28Z</time>
      </trkpt>
      <trkpt lat="59.9636781" lon="17.7717619">
        <ele>31.3801</ele>
        <time>2013-04-27T10:09:29Z</time>
      </trkpt>
      <trkpt lat="59.9637043" lon="17.7718789">
        <ele>31.3801</ele>
        <time>2013-04-27T10:09:30Z</time>
      </trkpt>
      <trkpt lat="59.9637319" lon="17.7719958">
        <ele>31.3801</ele>
        <time>2013-04-27T10:09:31Z</time>
      </trkpt>
      <trkpt lat="59.96376" lon="17.7721144">
        <ele>30.8995</ele>
        <time>2013-04-27T10:09:32Z</time>
      </trkpt>
      <trkpt lat="59.9637864" lon="17.7722372">
        <ele>30.8995</ele>
        <time>2013-04-27T10:09:33Z</time>
      </trkpt>
      <trkpt lat="59.9638101" lon="17.7723644">
        <ele>30.8995</ele>
        <time>2013-04-27T10:09:34Z</time>
      </trkpt>
      <trkpt lat="59.9638314" lon="17.7724938">
        <ele>30.8995</ele>
        <time>2013-04-27T10:09:35Z</time>
      </trkpt>
      <trkpt lat="59.963849" lon="17.772624">
        <ele>30.8995</ele>
        <time>2013-04-27T10:09:36Z</time>
      </trkpt>
      <trkpt lat="59.963861" lon="17.7727546">
        <ele>30.8995</ele>
        <time>2013-04-27T10:09:37Z</time>
      </trkpt>
      <trkpt lat="59.9638676" lon="17.772884">
        <ele>30.8995</ele>
        <time>2013-04-27T10:09:38Z</time>
      </trkpt>
      <trkpt lat="59.9638687" lon="17.7730103">
        <ele>31.3801</ele>
        <time>2013-04-27T10:09:39Z</time>
      </trkpt>
      <trkpt lat="59.9638628" lon="17.7731342">
        <ele>31.3801</ele>
        <time>2013-04-27T10:09:40Z</time>
      </trkpt>
      <trkpt lat="59.963852" lon="17.7732586">
        <ele>31.3801</ele>
        <time>2013-04-27T10:09:41Z</time>
      </trkpt>
      <trkpt lat="59.9638397" lon="17.7733864">
        <ele>31.3801</ele>
        <time>2013-04-27T10:09:42Z</time>
      </trkpt>
      <trkpt lat="59.9638255" lon="17.7735155">
        <ele>31.3801</ele>
        <time>2013-04-27T10:09:43Z</time>
      </trkpt>
      <trkpt lat="59.9638071" lon="17.7736429">
        <ele>31.3801</ele>
        <time>2013-04-27T10:09:44Z</time>
      </trkpt>
      <trkpt lat="59.9637851" lon="17.7737678">
        <ele>31.3801</ele>
        <time>2013-04-27T10:09:45Z</time>
      </trkpt>
      <trkpt lat="59.9637613" lon="17.7738911">
        <ele>31.3801</ele>
        <time>2013-04-27T10:09:46Z</time>
      </trkpt>
      <trkpt lat="59.9637386" lon="17.7740134">
        <ele>31.3801</ele>
        <time>2013-04-27T10:09:47Z</time>
      </trkpt>
      <trkpt lat="59.9637186" lon="17.7741345">
        <ele>31.3801</ele>
        <time>2013-04-27T10:09:48Z</time>
      </trkpt>
      <trkpt lat="59.9636998" lon="17.7742536">
        <ele>31.3801</ele>
        <time>2013-04-27T10:09:49Z</time>
      </trkpt>
      <trkpt lat="59.9636812" lon="17.7743723">
        <ele>31.3801</ele>
        <time>2013-04-27T10:09:50Z</time>
      </trkpt>
      <trkpt lat="59.9636636" lon="17.7744938">
        <ele>31.3801</ele>
        <time>2013-04-27T10:09:51Z</time>
      </trkpt>
      <trkpt lat="59.963645" lon="17.7746178">
        <ele>31.3801</ele>
        <time>2013-04-27T10:09:52Z</time>
      </trkpt>
      <trkpt lat="59.9636237" lon="17.7747433">
        <ele>30.8995</ele>
        <time>2013-04-27T10:09:53Z</time>
      </trkpt>
      <trkpt lat="59.9636007" lon="17.7748699">
        <ele>30.8995</ele>
        <time>2013-04-27T10:09:54Z</time>
      </trkpt>
      <trkpt lat="59.9635755" lon="17.7749954">
        <ele>30.8995</ele>
        <time>2013-04-27T10:09:55Z</time>
      </trkpt>
      <trkpt lat="59.9635475" lon="17.7751183">
        <ele>30.8995</ele>
        <time>2013-04-27T10:09:56Z</time>
      </trkpt>
      <trkpt lat="59.9635165" lon="17.7752383">
        <ele>30.8995</ele>
        <time>2013-04-27T10:09:57Z</time>
      </trkpt>
      <trkpt lat="59.9634829" lon="17.7753539">
        <ele>30.8995</ele>
        <time>2013-04-27T10:09:58Z</time>
      </trkpt>
      <trkpt lat="59.9634477" lon="17.7754647">
        <ele>30.8995</ele>
        <time>2013-04-27T10:09:59Z</time>
      </trkpt>
      <trkpt lat="59.9634129" lon="17.7755726">
        <ele>30.8995</ele>
        <time>2013-04-27T10:10:00Z</time>
      </trkpt>
      <trkpt lat="59.9633786" lon="17.7756783">
        <ele>31.3801</ele>
        <time>2013-04-27T10:10:01Z</time>
      </trkpt>
      <trkpt lat="59.9633444" lon="17.7757819">
        <ele>31.3801</ele>
        <time>2013-04-27T10:10:02Z</time>
      </trkpt>
      <trkpt lat="59.9633113" lon="17.7758849">
        <ele>31.3801</ele>
        <time>2013-04-27T10:10:03Z</time>
      </trkpt>
      <trkpt lat="59.9632787" lon="17.7759879">
        <ele>31.3801</ele>
        <time>2013-04-27T10:10:04Z</time>
      </trkpt>
      <trkpt lat="59.9632461" lon="17.7760905">
        <ele>31.3801</ele>
        <time>2013-04-27T10:10:05Z</time>
      </trkpt>
      <trkpt lat="59.9632141" lon="17.7761932">
        <ele>31.3801</ele>
        <time>2013-04-27T10:10:06Z</time>
      </trkpt>
      <trkpt lat="59.963183" lon="17.7762946">
        <ele>31.3801</ele>
        <time>2013-04-27T10:10:07Z</time>
      </trkpt>
      <trkpt lat="59.9631523" lon="17.7763951">
        <ele>31.3801</ele>
        <time>2013-04-27T10:10:08Z</time>
      </trkpt>
      <trkpt lat="59.9631211" lon="17.7764968">
        <ele>31.3801</ele>
        <time>2013-04-27T10:10:09Z</time>
      </trkpt>
      <trkpt lat="59.9630899" lon="17.7766018">
        <ele>31.3801</ele>
        <time>2013-04-27T10:10:10Z</time>
      </trkpt>
      <trkpt lat="59.9630592" lon="17.7767096">
        <ele>30.8995</ele>
        <time>2013-04-27T10:10:11Z</time>
      </trkpt>
      <trkpt lat="59.9630283" lon="17.7768187">
        <ele>30.8995</ele>
        <time>2013-04-27T10:10:12Z</time>
      </trkpt>
      <trkpt lat="59.9629951" lon="17.7769271">
        <ele>30.4188</ele>
        <time>2013-04-27T10:10:13Z</time>
      </trkpt>
      <trkpt lat="59.9629589" lon="17.7770324">
        <ele>30.4188</ele>
        <time>2013-04-27T10:10:14Z</time>
      </trkpt>
      <trkpt lat="59.9629196" lon="17.7771332">
        <ele>30.4188</ele>
        <time>2013-04-27T10:10:15Z</time>
      </trkpt>
      <trkpt lat="59.9628786" lon="17.777229">
        <ele>29.9381</ele>
        <time>2013-04-27T10:10:16Z</time>
      </trkpt>
      <trkpt lat="59.9628368" lon="17.7773214">
        <ele>29.9381</ele>
        <time>2013-04-27T10:10:17Z</time>
      </trkpt>
      <trkpt lat="59.9627949" lon="17.7774118">
        <ele>29.9381</ele>
        <time>2013-04-27T10:10:18Z</time>
      </trkpt>
      <trkpt lat="59.9627533" lon="17.7774996">
        <ele>29.9381</ele>
        <time>2013-04-27T10:10:19Z</time>
      </trkpt>
      <trkpt lat="59.9627121" lon="17.7775865">
        <ele>29.9381</ele>
        <time>2013-04-27T10:10:20Z</time>
      </trkpt>
      <trkpt lat="59.9626709" lon="17.7776729">
        <ele>29.9381</ele>
        <time>2013-04-27T10:10:21Z</time>
      </trkpt>
      <trkpt lat="59.9626285" lon="17.7777589">
        <ele>29.9381</ele>
        <time>2013-04-27T10:10:22Z</time>
      </trkpt>
      <trkpt lat="59.9625855" lon="17.7778476">
        <ele>29.9381</ele>
        <time>2013-04-27T10:10:23Z</time>
      </trkpt>
      <trkpt lat="59.9625435" lon="17.7779392">
        <ele>29.9381</ele>
        <time>2013-04-27T10:10:24Z</time>
      </trkpt>
      <trkpt lat="59.9625012" lon="17.7780321">
        <ele>29.9381</ele>
        <time>2013-04-27T10:10:25Z</time>
      </trkpt>
      <trkpt lat="59.9624582" lon="17.7781247">
        <ele>29.4575</ele>
        <time>2013-04-27T10:10:26Z</time>
      </trkpt>
      <trkpt lat="59.9624147" lon="17.778218">
        <ele>29.4575</ele>
        <time>2013-04-27T10:10:27Z</time>
      </trkpt>
      <trkpt lat="59.9623712" lon="17.7783134">
        <ele>29.4575</ele>
        <time>2013-04-27T10:10:28Z</time>
      </trkpt>
      <trkpt lat="59.9623279" lon="17.7784112">
        <ele>29.4575</ele>
        <time>2013-04-27T10:10:29Z</time>
      </trkpt>
      <trkpt lat="59.9622857" lon="17.7785117">
        <ele>29.4575</ele>
        <time>2013-04-27T10:10:30Z</time>
      </trkpt>
      <trkpt lat="59.9622446" lon="17.7786123">
        <ele>29.4575</ele>
        <time>2013-04-27T10:10:31Z</time>
      </trkpt>
      <trkpt lat="59.9622033" lon="17.778713">
        <ele>29.4575</ele>
        <time>2013-04-27T10:10:32Z</time>
      </trkpt>
      <trkpt lat="59.9621623" lon="17.7788133">
        <ele>29.4575</ele>
        <time>2013-04-27T10:10:33Z</time>
      </trkpt>
      <trkpt lat="59.9621204" lon="17.7789101">
        <ele>29.4575</ele>
        <time>2013-04-27T10:10:34Z</time>
      </trkpt>
      <trkpt lat="59.9620777" lon="17.7790042">
        <ele>29.4575</ele>
        <time>2013-04-27T10:10:35Z</time>
      </trkpt>
      <trkpt lat="59.9620346" lon="17.779098">
        <ele>29.4575</ele>
        <time>2013-04-27T10:10:36Z</time>
      </trkpt>
      <trkpt lat="59.961992" lon="17.7791918">
        <ele>29.4575</ele>
        <time>2013-04-27T10:10:37Z</time>
      </trkpt>
      <trkpt lat="59.9619495" lon="17.7792842">
        <ele>29.4575</ele>
        <time>2013-04-27T10:10:38Z</time>
      </trkpt>
      <trkpt lat="59.9619073" lon="17.7793763">
        <ele>29.4575</ele>
        <time>2013-04-27T10:10:39Z</time>
      </trkpt>
      <trkpt lat="59.9618651" lon="17.77947">
        <ele>29.4575</ele>
        <time>2013-04-27T10:10:40Z</time>
      </trkpt>
      <trkpt lat="59.9618225" lon="17.7795653">
        <ele>29.9381</ele>
        <time>2013-04-27T10:10:41Z</time>
      </trkpt>
      <trkpt lat="59.9617807" lon="17.7796623">
        <ele>29.9381</ele>
        <time>2013-04-27T10:10:42Z</time>
      </trkpt>
      <trkpt lat="59.9617405" lon="17.7797615">
        <ele>29.9381</ele>
        <time>2013-04-27T10:10:43Z</time>
      </trkpt>
      <trkpt lat="59.9616998" lon="17.7798627">
        <ele>29.9381</ele>
        <time>2013-04-27T10:10:44Z</time>
      </trkpt>
      <trkpt lat="59.9616572" lon="17.7799631">
        <ele>29.9381</ele>
        <time>2013-04-27T10:10:45Z</time>
      </trkpt>
      <trkpt lat="59.9616121" lon="17.7800611">
        <ele>29.9381</ele>
        <time>2013-04-27T10:10:46Z</time>
      </trkpt>
      <trkpt lat="59.9615654" lon="17.7801586">
        <ele>29.9381</ele>
        <time>2013-04-27T10:10:47Z</time>
      </trkpt>
      <trkpt lat="59.9615175" lon="17.7802557">
        <ele>29.4575</ele>
        <time>2013-04-27T10:10:48Z</time>
      </trkpt>
      <trkpt lat="59.9614693" lon="17.7803518">
        <ele>29.4575</ele>
        <time>2013-04-27T10:10:49Z</time>
      </trkpt>
      <trkpt lat="59.9614204" lon="17.780447">
        <ele>29.4575</ele>
        <time>2013-04-27T10:10:50Z</time>
      </trkpt>
      <trkpt lat="59.9613708" lon="17.7805397">
        <ele>28.9769</ele>
        <time>2013-04-27T10:10:51Z</time>
      </trkpt>
      <trkpt lat="59.9613202" lon="17.7806305">
        <ele>28.9769</ele>
        <time>2013-04-27T10:10:52Z</time>
      </trkpt>
      <trkpt lat="59.9612699" lon="17.780723">
        <ele>28.4962</ele>
        <time>2013-04-27T10:10:53Z</time>
      </trkpt>
      <trkpt lat="59.9612191" lon="17.7808163">
        <ele>28.4962</ele>
        <time>2013-04-27T10:10:54Z</time>
      </trkpt>
      <trkpt lat="59.9611682" lon="17.7809099">
        <ele>28.4962</ele>
        <time>2013-04-27T10:10:55Z</time>
      </trkpt>
      <trkpt lat="59.9611176" lon="17.7810033">
        <ele>28.0155</ele>
        <time>2013-04-27T10:10:56Z</time>
      </trkpt>
      <trkpt lat="59.9610676" lon="17.7810957">
        <ele>28.0155</ele>
        <time>2013-04-27T10:10:57Z</time>
      </trkpt>
      <trkpt lat="59.9610174" lon="17.7811876">
        <ele>27.5349</ele>
        <time>2013-04-27T10:10:58Z</time>
      </trkpt>
      <trkpt lat="59.9609667" lon="17.7812793">
        <ele>27.5349</ele>
        <time>2013-04-27T10:10:59Z</time>
      </trkpt>
      <trkpt lat="59.9609157" lon="17.7813714">
        <ele>27.0543</ele>
        <time>2013-04-27T10:11:00Z</time>
      </trkpt>
      <trkpt lat="59.9608643" lon="17.7814633">
        <ele>27.0543</ele>
        <time>2013-04-27T10:11:01Z</time>
      </trkpt>
      <trkpt lat="59.9608124" lon="17.7815544">
        <ele>27.0543</ele>
        <time>2013-04-27T10:11:02Z</time>
      </trkpt>
      <trkpt lat="59.9607608" lon="17.781646">
        <ele>26.5736</ele>
        <time>2013-04-27T10:11:03Z</time>
      </trkpt>
      <trkpt lat="59.9607109" lon="17.78174">
        <ele>26.5736</ele>
        <time>2013-04-27T10:11:04Z</time>
      </trkpt>
      <trkpt lat="59.9606617" lon="17.7818345">
        <ele>26.5736</ele>
        <time>2013-04-27T10:11:05Z</time>
      </trkpt>
      <trkpt lat="59.9606151" lon="17.7819305">
        <ele>26.5736</ele>
        <time>2013-04-27T10:11:06Z</time>
      </trkpt>
      <trkpt lat="59.9605726" lon="17.7820294">
        <ele>26.5736</ele>
        <time>2013-04-27T10:11:07Z</time>
      </trkpt>
      <trkpt lat="59.9605333" lon="17.7821296">
        <ele>27.0543</ele>
        <time>2013-04-27T10:11:08Z</time>
      </trkpt>
      <trkpt lat="59.9604965" lon="17.7822311">
        <ele>27.5349</ele>
        <time>2013-04-27T10:11:09Z</time>
      </trkpt>
      <trkpt lat="59.9604614" lon="17.7823353">
        <ele>28.0155</ele>
        <time>2013-04-27T10:11:10Z</time>
      </trkpt>
      <trkpt lat="59.9604294" lon="17.782438">
        <ele>28.0155</ele>
        <time>2013-04-27T10:11:11Z</time>
      </trkpt>
      <trkpt lat="59.9603966" lon="17.782538">
        <ele>28.0155</ele>
        <time>2013-04-27T10:11:12Z</time>
      </trkpt>
      <trkpt lat="59.9603633" lon="17.7826372">
        <ele>28.4962</ele>
        <time>2013-04-27T10:11:13Z</time>
      </trkpt>
      <trkpt lat="59.960329" lon="17.7827388">
        <ele>28.4962</ele>
        <time>2013-04-27T10:11:14Z</time>
      </trkpt>
      <trkpt lat="59.9602946" lon="17.7828419">
        <ele>28.4962</ele>
        <time>2013-04-27T10:11:15Z</time>
      </trkpt>
      <trkpt lat="59.9602599" lon="17.7829459">
        <ele>28.4962</ele>
        <time>2013-04-27T10:11:16Z</time>
      </trkpt>
      <trkpt lat="59.9602254" lon="17.7830511">
        <ele>28.4962</ele>
        <time>2013-04-27T10:11:17Z</time>
      </trkpt>
      <trkpt lat="59.9601889" lon="17.7831609">
        <ele>28.4962</ele>
        <time>2013-04-27T10:11:18Z</time>
      </trkpt>
      <trkpt lat="59.9601529" lon="17.7832723">
        <ele>28.4962</ele>
        <time>2013-04-27T10:11:19Z</time>
      </trkpt>
      <trkpt lat="59.9601168" lon="17.783386">
        <ele>28.4962</ele>
        <time>2013-04-27T10:11:20Z</time>
      </trkpt>
      <trkpt lat="59.9600803" lon="17.7834991">
        <ele>28.0155</ele>
        <time>2013-04-27T10:11:21Z</time>
      </trkpt>
      <trkpt lat="59.9600417" lon="17.783611">
        <ele>28.0155</ele>
        <time>2013-04-27T10:11:22Z</time>
      </trkpt>
      <trkpt lat="59.9600016" lon="17.7837228">
        <ele>28.0155</ele>
        <time>2013-04-27T10:11:23Z</time>
      </trkpt>
      <trkpt lat="59.9599598" lon="17.7838339">
        <ele>28.0155</ele>
        <time>2013-04-27T10:11:24Z</time>
      </trkpt>
      <trkpt lat="59.9599159" lon="17.7839423">
        <ele>28.0155</ele>
        <time>2013-04-27T10:11:25Z</time>
      </trkpt>
      <trkpt lat="59.9598701" lon="17.7840478">
        <ele>28.0155</ele>
        <time>2013-04-27T10:11:26Z</time>
      </trkpt>
      <trkpt lat="59.9598225" lon="17.7841488">
        <ele>28.0155</ele>
        <time>2013-04-27T10:11:27Z</time>
      </trkpt>
      <trkpt lat="59.9597739" lon="17.7842419">
        <ele>28.0155</ele>
        <time>2013-04-27T10:11:28Z</time>
      </trkpt>
      <trkpt lat="59.9597241" lon="17.7843285">
        <ele>28.0155</ele>
        <time>2013-04-27T10:11:29Z</time>
      </trkpt>
      <trkpt lat="59.959674" lon="17.7844098">
        <ele>28.0155</ele>
        <time>2013-04-27T10:11:30Z</time>
      </trkpt>
      <trkpt lat="59.9596263" lon="17.7844888">
        <ele>28.0155</ele>
        <time>2013-04-27T10:11:31Z</time>
      </trkpt>
      <trkpt lat="59.9595809" lon="17.7845674">
        <ele>28.0155</ele>
        <time>2013-04-27T10:11:32Z</time>
      </trkpt>
      <trkpt lat="59.9595349" lon="17.7846439">
        <ele>28.0155</ele>
        <time>2013-04-27T10:11:33Z</time>
      </trkpt>
      <trkpt lat="59.9594883" lon="17.7847179">
        <ele>28.0155</ele>
        <time>2013-04-27T10:11:34Z</time>
      </trkpt>
      <trkpt lat="59.9594423" lon="17.7847914">
        <ele>27.5349</ele>
        <time>2013-04-27T10:11:35Z</time>
      </trkpt>
      <trkpt lat="59.9593941" lon="17.7848651">
        <ele>27.0543</ele>
        <time>2013-04-27T10:11:36Z</time>
      </trkpt>
      <trkpt lat="59.9593418" lon="17.7849374">
        <ele>27.0543</ele>
        <time>2013-04-27T10:11:37Z</time>
      </trkpt>
      <trkpt lat="59.9592848" lon="17.7850081">
        <ele>26.5736</ele>
        <time>2013-04-27T10:11:38Z</time>
      </trkpt>
      <trkpt lat="59.9592237" lon="17.7850766">
        <ele>26.5736</ele>
        <time>2013-04-27T10:11:39Z</time>
      </trkpt>
      <trkpt lat="59.9591599" lon="17.7851407">
        <ele>26.5736</ele>
        <time>2013-04-27T10:11:40Z</time>
      </trkpt>
      <trkpt lat="59.9590935" lon="17.7851998">
        <ele>26.5736</ele>
        <time>2013-04-27T10:11:41Z</time>
      </trkpt>
      <trkpt lat="59.9590253" lon="17.7852547">
        <ele>26.5736</ele>
        <time>2013-04-27T10:11:42Z</time>
      </trkpt>
      <trkpt lat="59.9589564" lon="17.785308">
        <ele>26.5736</ele>
        <time>2013-04-27T10:11:43Z</time>
      </trkpt>
      <trkpt lat="59.9588874" lon="17.7853607">
        <ele>26.5736</ele>
        <time>2013-04-27T10:11:44Z</time>
      </trkpt>
      <trkpt lat="59.9588202" lon="17.7854132">
        <ele>26.5736</ele>
        <time>2013-04-27T10:11:45Z</time>
      </trkpt>
      <trkpt lat="59.9587543" lon="17.7854681">
        <ele>26.5736</ele>
        <time>2013-04-27T10:11:46Z</time>
      </trkpt>
      <trkpt lat="59.9586886" lon="17.7855262">
        <ele>26.5736</ele>
        <time>2013-04-27T10:11:47Z</time>
      </trkpt>
      <trkpt lat="59.9586229" lon="17.7855877">
        <ele>26.0929</ele>
        <time>2013-04-27T10:11:48Z</time>
      </trkpt>
      <trkpt lat="59.9585569" lon="17.785653">
        <ele>26.0929</ele>
        <time>2013-04-27T10:11:49Z</time>
      </trkpt>
      <trkpt lat="59.9584916" lon="17.7857225">
        <ele>25.6123</ele>
        <time>2013-04-27T10:11:50Z</time>
      </trkpt>
      <trkpt lat="59.9584271" lon="17.7857959">
        <ele>25.6123</ele>
        <time>2013-04-27T10:11:51Z</time>
      </trkpt>
      <trkpt lat="59.9583637" lon="17.7858686">
        <ele>25.1317</ele>
        <time>2013-04-27T10:11:52Z</time>
      </trkpt>
      <trkpt lat="59.9583" lon="17.7859385">
        <ele>25.1317</ele>
        <time>2013-04-27T10:11:53Z</time>
      </trkpt>
      <trkpt lat="59.9582362" lon="17.7860074">
        <ele>24.651</ele>
        <time>2013-04-27T10:11:54Z</time>
      </trkpt>
      <trkpt lat="59.9581728" lon="17.7860771">
        <ele>24.651</ele>
        <time>2013-04-27T10:11:55Z</time>
      </trkpt>
      <trkpt lat="59.9581106" lon="17.786147">
        <ele>24.1703</ele>
        <time>2013-04-27T10:11:56Z</time>
      </trkpt>
      <trkpt lat="59.9580494" lon="17.7862135">
        <ele>24.1703</ele>
        <time>2013-04-27T10:11:57Z</time>
      </trkpt>
      <trkpt lat="59.9579892" lon="17.7862782">
        <ele>23.6896</ele>
        <time>2013-04-27T10:11:58Z</time>
      </trkpt>
      <trkpt lat="59.9579311" lon="17.7863481">
        <ele>23.6896</ele>
        <time>2013-04-27T10:11:59Z</time>
      </trkpt>
      <trkpt lat="59.9578752" lon="17.7864207">
        <ele>23.6896</ele>
        <time>2013-04-27T10:12:00Z</time>
      </trkpt>
      <trkpt lat="59.9578225" lon="17.786498">
        <ele>23.6896</ele>
        <time>2013-04-27T10:12:01Z</time>
      </trkpt>
      <trkpt lat="59.9577744" lon="17.7865826">
        <ele>23.6896</ele>
        <time>2013-04-27T10:12:02Z</time>
      </trkpt>
      <trkpt lat="59.9577317" lon="17.7866793">
        <ele>24.1703</ele>
        <time>2013-04-27T10:12:03Z</time>
      </trkpt>
      <trkpt lat="59.957696" lon="17.7867827">
        <ele>24.651</ele>
        <time>2013-04-27T10:12:04Z</time>
      </trkpt>
      <trkpt lat="59.9576662" lon="17.7868896">
        <ele>25.1317</ele>
        <time>2013-04-27T10:12:05Z</time>
      </trkpt>
      <trkpt lat="59.957641" lon="17.7869982">
        <ele>25.6123</ele>
        <time>2013-04-27T10:12:06Z</time>
      </trkpt>
      <trkpt lat="59.9576183" lon="17.7871086">
        <ele>26.0929</ele>
        <time>2013-04-27T10:12:07Z</time>
      </trkpt>
      <trkpt lat="59.9575975" lon="17.787222">
        <ele>26.0929</ele>
        <time>2013-04-27T10:12:08Z</time>
      </trkpt>
      <trkpt lat="59.9575795" lon="17.7873319">
        <ele>26.5736</ele>
        <time>2013-04-27T10:12:09Z</time>
      </trkpt>
      <trkpt lat="59.9575547" lon="17.787443">
        <ele>26.5736</ele>
        <time>2013-04-27T10:12:10Z</time>
      </trkpt>
      <trkpt lat="59.9575225" lon="17.7875576">
        <ele>26.0929</ele>
        <time>2013-04-27T10:12:11Z</time>
      </trkpt>
      <trkpt lat="59.9574892" lon="17.7876701">
        <ele>25.6123</ele>
        <time>2013-04-27T10:12:12Z</time>
      </trkpt>
      <trkpt lat="59.9574566" lon="17.7877831">
        <ele>26.0929</ele>
        <time>2013-04-27T10:12:13Z</time>
      </trkpt>
      <trkpt lat="59.9574234" lon="17.7878977">
        <ele>26.0929</ele>
        <time>2013-04-27T10:12:14Z</time>
      </trkpt>
      <trkpt lat="59.9573916" lon="17.7880146">
        <ele>26.0929</ele>
        <time>2013-04-27T10:12:15Z</time>
      </trkpt>
      <trkpt lat="59.9573604" lon="17.7881305">
        <ele>26.0929</ele>
        <time>2013-04-27T10:12:16Z</time>
      </trkpt>
      <trkpt lat="59.9573278" lon="17.7882446">
        <ele>25.6123</ele>
        <time>2013-04-27T10:12:17Z</time>
      </trkpt>
      <trkpt lat="59.9572931" lon="17.7883576">
        <ele>25.1317</ele>
        <time>2013-04-27T10:12:18Z</time>
      </trkpt>
      <trkpt lat="59.9572568" lon="17.7884729">
        <ele>25.1317</ele>
        <time>2013-04-27T10:12:19Z</time>
      </trkpt>
      <trkpt lat="59.9572179" lon="17.7885923">
        <ele>24.651</ele>
        <time>2013-04-27T10:12:20Z</time>
      </trkpt>
      <trkpt lat="59.9571756" lon="17.7887103">
        <ele>24.1703</ele>
        <time>2013-04-27T10:12:21Z</time>
      </trkpt>
      <trkpt lat="59.9571293" lon="17.7888246">
        <ele>23.6896</ele>
        <time>2013-04-27T10:12:22Z</time>
      </trkpt>
      <trkpt lat="59.9570764" lon="17.7889339">
        <ele>22.7283</ele>
        <time>2013-04-27T10:12:23Z</time>
      </trkpt>
      <trkpt lat="59.9570187" lon="17.7890382">
        <ele>22.7283</ele>
        <time>2013-04-27T10:12:24Z</time>
      </trkpt>
      <trkpt lat="59.9569558" lon="17.7891605">
        <ele>22.2476</ele>
        <time>2013-04-27T10:12:25Z</time>
      </trkpt>
      <trkpt lat="59.9568818" lon="17.7892307">
        <ele>21.767</ele>
        <time>2013-04-27T10:12:26Z</time>
      </trkpt>
      <trkpt lat="59.9568106" lon="17.7893102">
        <ele>21.2864</ele>
        <time>2013-04-27T10:12:27Z</time>
      </trkpt>
      <trkpt lat="59.9567449" lon="17.7893945">
        <ele>20.8057</ele>
        <time>2013-04-27T10:12:28Z</time>
      </trkpt>
      <trkpt lat="59.9566808" lon="17.7894837">
        <ele>20.325</ele>
        <time>2013-04-27T10:12:29Z</time>
      </trkpt>
      <trkpt lat="59.9566288" lon="17.7895798">
        <ele>20.325</ele>
        <time>2013-04-27T10:12:30Z</time>
      </trkpt>
      <trkpt lat="59.9565902" lon="17.7896996">
        <ele>20.325</ele>
        <time>2013-04-27T10:12:31Z</time>
      </trkpt>
      <trkpt lat="59.9565616" lon="17.7898622">
        <ele>20.8057</ele>
        <time>2013-04-27T10:12:32Z</time>
      </trkpt>
      <trkpt lat="59.9565441" lon="17.7900131">
        <ele>20.8057</ele>
        <time>2013-04-27T10:12:33Z</time>
      </trkpt>
      <trkpt lat="59.9565456" lon="17.7901814">
        <ele>21.2864</ele>
        <time>2013-04-27T10:12:34Z</time>
      </trkpt>
      <trkpt lat="59.9565635" lon="17.7903379">
        <ele>22.2476</ele>
        <time>2013-04-27T10:12:35Z</time>
      </trkpt>
      <trkpt lat="59.9565886" lon="17.7904836">
        <ele>22.7283</ele>
        <time>2013-04-27T10:12:36Z</time>
      </trkpt>
      <trkpt lat="59.9566145" lon="17.7906188">
        <ele>23.209</ele>
        <time>2013-04-27T10:12:37Z</time>
      </trkpt>
      <trkpt lat="59.9566408" lon="17.7907459">
        <ele>23.6896</ele>
        <time>2013-04-27T10:12:38Z</time>
      </trkpt>
      <trkpt lat="59.9566651" lon="17.7908697">
        <ele>24.1703</ele>
        <time>2013-04-27T10:12:39Z</time>
      </trkpt>
      <trkpt lat="59.9566856" lon="17.7909941">
        <ele>24.651</ele>
        <time>2013-04-27T10:12:40Z</time>
      </trkpt>
      <trkpt lat="59.9567022" lon="17.7911206">
        <ele>25.1317</ele>
        <time>2013-04-27T10:12:41Z</time>
      </trkpt>
      <trkpt lat="59.9567109" lon="17.7912518">
        <ele>24.651</ele>
        <time>2013-04-27T10:12:42Z</time>
      </trkpt>
      <trkpt lat="59.9567094" lon="17.7913894">
        <ele>25.1317</ele>
        <time>2013-04-27T10:12:43Z</time>
      </trkpt>
      <trkpt lat="59.9566978" lon="17.7915317">
        <ele>25.1317</ele>
        <time>2013-04-27T10:12:44Z</time>
      </trkpt>
      <trkpt lat="59.9566801" lon="17.7916712">
        <ele>25.1317</ele>
        <time>2013-04-27T10:12:45Z</time>
      </trkpt>
      <trkpt lat="59.9566594" lon="17.7918095">
        <ele>25.1317</ele>
        <time>2013-04-27T10:12:46Z</time>
      </trkpt>
      <trkpt lat="59.9566368" lon="17.7919479">
        <ele>25.6123</ele>
        <time>2013-04-27T10:12:47Z</time>
      </trkpt>
      <trkpt lat="59.956613" lon="17.7920862">
        <ele>25.6123</ele>
        <time>2013-04-27T10:12:48Z</time>
      </trkpt>
      <trkpt lat="59.9565894" lon="17.7922234">
        <ele>25.6123</ele>
        <time>2013-04-27T10:12:49Z</time>
      </trkpt>
      <trkpt lat="59.9565666" lon="17.7923584">
        <ele>25.6123</ele>
        <time>2013-04-27T10:12:50Z</time>
      </trkpt>
      <trkpt lat="59.9565441" lon="17.7924923">
        <ele>25.6123</ele>
        <time>2013-04-27T10:12:51Z</time>
      </trkpt>
      <trkpt lat="59.9565216" lon="17.7926265">
        <ele>26.0929</ele>
        <time>2013-04-27T10:12:52Z</time>
      </trkpt>
      <trkpt lat="59.9564999" lon="17.7927607">
        <ele>26.0929</ele>
        <time>2013-04-27T10:12:53Z</time>
      </trkpt>
      <trkpt lat="59.9564773" lon="17.7928917">
        <ele>26.0929</ele>
        <time>2013-04-27T10:12:54Z</time>
      </trkpt>
      <trkpt lat="59.9564538" lon="17.7930186">
        <ele>26.0929</ele>
        <time>2013-04-27T10:12:55Z</time>
      </trkpt>
      <trkpt lat="59.9564317" lon="17.7931425">
        <ele>26.0929</ele>
        <time>2013-04-27T10:12:56Z</time>
      </trkpt>
      <trkpt lat="59.9564099" lon="17.7932637">
        <ele>26.0929</ele>
        <time>2013-04-27T10:12:57Z</time>
      </trkpt>
      <trkpt lat="59.9563864" lon="17.7933827">
        <ele>26.0929</ele>
        <time>2013-04-27T10:12:58Z</time>
      </trkpt>
      <trkpt lat="59.9563612" lon="17.7935003">
        <ele>26.0929</ele>
        <time>2013-04-27T10:12:59Z</time>
      </trkpt>
      <trkpt lat="59.9563358" lon="17.7936179">
        <ele>26.0929</ele>
        <time>2013-04-27T10:13:00Z</time>
      </trkpt>
      <trkpt lat="59.95631" lon="17.793737">
        <ele>26.0929</ele>
        <time>2013-04-27T10:13:01Z</time>
      </trkpt>
      <trkpt lat="59.9562836" lon="17.7938573">
        <ele>26.0929</ele>
        <time>2013-04-27T10:13:02Z</time>
      </trkpt>
      <trkpt lat="59.9562553" lon="17.7939785">
        <ele>26.0929</ele>
        <time>2013-04-27T10:13:03Z</time>
      </trkpt>
      <trkpt lat="59.9562256" lon="17.7941012">
        <ele>26.0929</ele>
        <time>2013-04-27T10:13:04Z</time>
      </trkpt>
      <trkpt lat="59.9561965" lon="17.7942262">
        <ele>26.0929</ele>
        <time>2013-04-27T10:13:05Z</time>
      </trkpt>
      <trkpt lat="59.956168" lon="17.7943534">
        <ele>26.0929</ele>
        <time>2013-04-27T10:13:06Z</time>
      </trkpt>
      <trkpt lat="59.9561391" lon="17.7944809">
        <ele>26.0929</ele>
        <time>2013-04-27T10:13:07Z</time>
      </trkpt>
      <trkpt lat="59.9561095" lon="17.7946078">
        <ele>26.0929</ele>
        <time>2013-04-27T10:13:08Z</time>
      </trkpt>
      <trkpt lat="59.9560792" lon="17.7947341">
        <ele>26.0929</ele>
        <time>2013-04-27T10:13:09Z</time>
      </trkpt>
      <trkpt lat="59.9560483" lon="17.7948596">
        <ele>26.0929</ele>
        <time>2013-04-27T10:13:10Z</time>
      </trkpt>
      <trkpt lat="59.9560172" lon="17.794985">
        <ele>26.0929</ele>
        <time>2013-04-27T10:13:11Z</time>
      </trkpt>
      <trkpt lat="59.9559862" lon="17.7951108">
        <ele>26.0929</ele>
        <time>2013-04-27T10:13:12Z</time>
      </trkpt>
      <trkpt lat="59.9559566" lon="17.7952367">
        <ele>26.5736</ele>
        <time>2013-04-27T10:13:13Z</time>
      </trkpt>
      <trkpt lat="59.9559283" lon="17.7953636">
        <ele>26.5736</ele>
        <time>2013-04-27T10:13:14Z</time>
      </trkpt>
      <trkpt lat="59.9559024" lon="17.7954921">
        <ele>26.5736</ele>
        <time>2013-04-27T10:13:15Z</time>
      </trkpt>
      <trkpt lat="59.9558779" lon="17.795622">
        <ele>26.5736</ele>
        <time>2013-04-27T10:13:16Z</time>
      </trkpt>
      <trkpt lat="59.9558541" lon="17.7957536">
        <ele>26.5736</ele>
        <time>2013-04-27T10:13:17Z</time>
      </trkpt>
      <trkpt lat="59.9558308" lon="17.7958878">
        <ele>26.5736</ele>
        <time>2013-04-27T10:13:18Z</time>
      </trkpt>
      <trkpt lat="59.955808" lon="17.7960244">
        <ele>26.5736</ele>
        <time>2013-04-27T10:13:19Z</time>
      </trkpt>
      <trkpt lat="59.9557846" lon="17.7961629">
        <ele>26.5736</ele>
        <time>2013-04-27T10:13:20Z</time>
      </trkpt>
      <trkpt lat="59.9557591" lon="17.7963018">
        <ele>26.5736</ele>
        <time>2013-04-27T10:13:21Z</time>
      </trkpt>
      <trkpt lat="59.9557322" lon="17.7964411">
        <ele>26.5736</ele>
        <time>2013-04-27T10:13:22Z</time>
      </trkpt>
      <trkpt lat="59.9557049" lon="17.7965814">
        <ele>26.5736</ele>
        <time>2013-04-27T10:13:23Z</time>
      </trkpt>
      <trkpt lat="59.955677" lon="17.7967223">
        <ele>26.5736</ele>
        <time>2013-04-27T10:13:24Z</time>
      </trkpt>
      <trkpt lat="59.955648" lon="17.7968617">
        <ele>26.5736</ele>
        <time>2013-04-27T10:13:25Z</time>
      </trkpt>
      <trkpt lat="59.9556167" lon="17.7969979">
        <ele>26.5736</ele>
        <time>2013-04-27T10:13:26Z</time>
      </trkpt>
      <trkpt lat="59.9555832" lon="17.7971309">
        <ele>27.0543</ele>
        <time>2013-04-27T10:13:27Z</time>
      </trkpt>
      <trkpt lat="59.9555479" lon="17.7972601">
        <ele>27.0543</ele>
        <time>2013-04-27T10:13:28Z</time>
      </trkpt>
      <trkpt lat="59.9555115" lon="17.7973858">
        <ele>27.0543</ele>
        <time>2013-04-27T10:13:29Z</time>
      </trkpt>
      <trkpt lat="59.9554747" lon="17.7975092">
        <ele>26.5736</ele>
        <time>2013-04-27T10:13:30Z</time>
      </trkpt>
      <trkpt lat="59.9554386" lon="17.7976315">
        <ele>26.5736</ele>
        <time>2013-04-27T10:13:31Z</time>
      </trkpt>
      <trkpt lat="59.9554048" lon="17.7977531">
        <ele>27.0543</ele>
        <time>2013-04-27T10:13:32Z</time>
      </trkpt>
      <trkpt lat="59.9553717" lon="17.7978734">
        <ele>27.0543</ele>
        <time>2013-04-27T10:13:33Z</time>
      </trkpt>
      <trkpt lat="59.955337" lon="17.7979898">
        <ele>27.5349</ele>
        <time>2013-04-27T10:13:34Z</time>
      </trkpt>
      <trkpt lat="59.9553008" lon="17.7981027">
        <ele>27.5349</ele>
        <time>2013-04-27T10:13:35Z</time>
      </trkpt>
      <trkpt lat="59.9552644" lon="17.7982142">
        <ele>27.5349</ele>
        <time>2013-04-27T10:13:36Z</time>
      </trkpt>
      <trkpt lat="59.9552268" lon="17.7983234">
        <ele>28.0155</ele>
        <time>2013-04-27T10:13:37Z</time>
      </trkpt>
      <trkpt lat="59.955188" lon="17.7984302">
        <ele>28.0155</ele>
        <time>2013-04-27T10:13:38Z</time>
      </trkpt>
      <trkpt lat="59.955147" lon="17.7985353">
        <ele>28.0155</ele>
        <time>2013-04-27T10:13:39Z</time>
      </trkpt>
      <trkpt lat="59.9551053" lon="17.7986378">
        <ele>28.0155</ele>
        <time>2013-04-27T10:13:40Z</time>
      </trkpt>
      <trkpt lat="59.9550618" lon="17.7987357">
        <ele>28.0155</ele>
        <time>2013-04-27T10:13:41Z</time>
      </trkpt>
      <trkpt lat="59.9550164" lon="17.7988282">
        <ele>28.0155</ele>
        <time>2013-04-27T10:13:42Z</time>
      </trkpt>
      <trkpt lat="59.9549694" lon="17.7989187">
        <ele>27.5349</ele>
        <time>2013-04-27T10:13:43Z</time>
      </trkpt>
      <trkpt lat="59.9549206" lon="17.799012">
        <ele>27.0543</ele>
        <time>2013-04-27T10:13:44Z</time>
      </trkpt>
      <trkpt lat="59.9548714" lon="17.7991057">
        <ele>27.0543</ele>
        <time>2013-04-27T10:13:45Z</time>
      </trkpt>
      <trkpt lat="59.9548211" lon="17.7992004">
        <ele>26.5736</ele>
        <time>2013-04-27T10:13:46Z</time>
      </trkpt>
      <trkpt lat="59.9547698" lon="17.7992995">
        <ele>26.0929</ele>
        <time>2013-04-27T10:13:47Z</time>
      </trkpt>
      <trkpt lat="59.954718" lon="17.7994025">
        <ele>25.6123</ele>
        <time>2013-04-27T10:13:48Z</time>
      </trkpt>
      <trkpt lat="59.9546648" lon="17.7995081">
        <ele>25.1317</ele>
        <time>2013-04-27T10:13:49Z</time>
      </trkpt>
      <trkpt lat="59.9546123" lon="17.7996175">
        <ele>24.1703</ele>
        <time>2013-04-27T10:13:50Z</time>
      </trkpt>
      <trkpt lat="59.9545599" lon="17.7997351">
        <ele>24.1703</ele>
        <time>2013-04-27T10:13:51Z</time>
      </trkpt>
      <trkpt lat="59.9545077" lon="17.7998537">
        <ele>23.6896</ele>
        <time>2013-04-27T10:13:52Z</time>
      </trkpt>
      <trkpt lat="59.9544565" lon="17.7999739">
        <ele>24.1703</ele>
        <time>2013-04-27T10:13:53Z</time>
      </trkpt>
      <trkpt lat="59.9544061" lon="17.8000972">
        <ele>24.651</ele>
        <time>2013-04-27T10:13:54Z</time>
      </trkpt>
      <trkpt lat="59.954356" lon="17.8002152">
        <ele>25.1317</ele>
        <time>2013-04-27T10:13:55Z</time>
      </trkpt>
      <trkpt lat="59.9543079" lon="17.8003288">
        <ele>25.6123</ele>
        <time>2013-04-27T10:13:56Z</time>
      </trkpt>
      <trkpt lat="59.954262" lon="17.8004412">
        <ele>26.0929</ele>
        <time>2013-04-27T10:13:57Z</time>
      </trkpt>
      <trkpt lat="59.9542083" lon="17.8005468">
        <ele>26.0929</ele>
        <time>2013-04-27T10:13:58Z</time>
      </trkpt>
      <trkpt lat="59.9541628" lon="17.800656">
        <ele>25.6123</ele>
        <time>2013-04-27T10:13:59Z</time>
      </trkpt>
      <trkpt lat="59.9541177" lon="17.8007577">
        <ele>26.0929</ele>
        <time>2013-04-27T10:14:00Z</time>
      </trkpt>
      <trkpt lat="59.9540711" lon="17.8008526">
        <ele>26.0929</ele>
        <time>2013-04-27T10:14:01Z</time>
      </trkpt>
      <trkpt lat="59.9540286" lon="17.8009543">
        <ele>26.0929</ele>
        <time>2013-04-27T10:14:02Z</time>
      </trkpt>
      <trkpt lat="59.9539856" lon="17.8010611">
        <ele>26.0929</ele>
        <time>2013-04-27T10:14:03Z</time>
      </trkpt>
      <trkpt lat="59.9539448" lon="17.8011694">
        <ele>26.0929</ele>
        <time>2013-04-27T10:14:04Z</time>
      </trkpt>
      <trkpt lat="59.9539038" lon="17.8012793">
        <ele>26.0929</ele>
        <time>2013-04-27T10:14:05Z</time>
      </trkpt>
      <trkpt lat="59.9538638" lon="17.801385">
        <ele>26.5736</ele>
        <time>2013-04-27T10:14:06Z</time>
      </trkpt>
      <trkpt lat="59.9538241" lon="17.801487">
        <ele>26.0929</ele>
        <time>2013-04-27T10:14:07Z</time>
      </trkpt>
      <trkpt lat="59.9537825" lon="17.8015994">
        <ele>26.0929</ele>
        <time>2013-04-27T10:14:08Z</time>
      </trkpt>
      <trkpt lat="59.9537436" lon="17.8017055">
        <ele>25.6123</ele>
        <time>2013-04-27T10:14:09Z</time>
      </trkpt>
      <trkpt lat="59.9537126" lon="17.8018088">
        <ele>25.6123</ele>
        <time>2013-04-27T10:14:10Z</time>
      </trkpt>
      <trkpt lat="59.9536858" lon="17.8019023">
        <ele>26.0929</ele>
        <time>2013-04-27T10:14:11Z</time>
      </trkpt>
      <trkpt lat="59.9536607" lon="17.8019999">
        <ele>26.5736</ele>
        <time>2013-04-27T10:14:12Z</time>
      </trkpt>
      <trkpt lat="59.9536385" lon="17.8020944">
        <ele>27.0543</ele>
        <time>2013-04-27T10:14:13Z</time>
      </trkpt>
      <trkpt lat="59.9536178" lon="17.8021837">
        <ele>27.5349</ele>
        <time>2013-04-27T10:14:14Z</time>
      </trkpt>
      <trkpt lat="59.9535981" lon="17.8022711">
        <ele>27.5349</ele>
        <time>2013-04-27T10:14:15Z</time>
      </trkpt>
      <trkpt lat="59.9535798" lon="17.8023583">
        <ele>28.0155</ele>
        <time>2013-04-27T10:14:16Z</time>
      </trkpt>
      <trkpt lat="59.9535623" lon="17.8024454">
        <ele>28.4962</ele>
        <time>2013-04-27T10:14:17Z</time>
      </trkpt>
      <trkpt lat="59.9535441" lon="17.8025322">
        <ele>28.9769</ele>
        <time>2013-04-27T10:14:18Z</time>
      </trkpt>
      <trkpt lat="59.9535276" lon="17.8026182">
        <ele>28.9769</ele>
        <time>2013-04-27T10:14:19Z</time>
      </trkpt>
      <trkpt lat="59.9535107" lon="17.8027052">
        <ele>29.4575</ele>
        <time>2013-04-27T10:14:20Z</time>
      </trkpt>
      <trkpt lat="59.953494" lon="17.8027907">
        <ele>29.4575</ele>
        <time>2013-04-27T10:14:21Z</time>
      </trkpt>
      <trkpt lat="59.9534774" lon="17.8028743">
        <ele>29.9381</ele>
        <time>2013-04-27T10:14:22Z</time>
      </trkpt>
      <trkpt lat="59.9534583" lon="17.8029588">
        <ele>30.4188</ele>
        <time>2013-04-27T10:14:23Z</time>
      </trkpt>
      <trkpt lat="59.9534384" lon="17.8030426">
        <ele>30.4188</ele>
        <time>2013-04-27T10:14:24Z</time>
      </trkpt>
      <trkpt lat="59.9534179" lon="17.8031268">
        <ele>30.4188</ele>
        <time>2013-04-27T10:14:25Z</time>
      </trkpt>
      <trkpt lat="59.9533966" lon="17.8032072">
        <ele>30.4188</ele>
        <time>2013-04-27T10:14:26Z</time>
      </trkpt>
      <trkpt lat="59.9533697" lon="17.8032881">
        <ele>30.4188</ele>
        <time>2013-04-27T10:14:27Z</time>
      </trkpt>
      <trkpt lat="59.9533402" lon="17.8033703">
        <ele>29.9381</ele>
        <time>2013-04-27T10:14:28Z</time>
      </trkpt>
      <trkpt lat="59.9533111" lon="17.8034548">
        <ele>29.9381</ele>
        <time>2013-04-27T10:14:29Z</time>
      </trkpt>
      <trkpt lat="59.9532826" lon="17.8035356">
        <ele>29.4575</ele>
        <time>2013-04-27T10:14:30Z</time>
      </trkpt>
      <trkpt lat="59.9532505" lon="17.8036145">
        <ele>29.4575</ele>
        <time>2013-04-27T10:14:31Z</time>
      </trkpt>
      <trkpt lat="59.953216" lon="17.803693">
        <ele>29.4575</ele>
        <time>2013-04-27T10:14:32Z</time>
      </trkpt>
      <trkpt lat="59.9531827" lon="17.8037655">
        <ele>28.9769</ele>
        <time>2013-04-27T10:14:33Z</time>
      </trkpt>
      <trkpt lat="59.9531471" lon="17.8038393">
        <ele>28.4962</ele>
        <time>2013-04-27T10:14:34Z</time>
      </trkpt>
      <trkpt lat="59.9531098" lon="17.803917">
        <ele>28.0155</ele>
        <time>2013-04-27T10:14:35Z</time>
      </trkpt>
      <trkpt lat="59.9530744" lon="17.8039958">
        <ele>27.5349</ele>
        <time>2013-04-27T10:14:36Z</time>
      </trkpt>
      <trkpt lat="59.9530382" lon="17.8040771">
        <ele>27.0543</ele>
        <time>2013-04-27T10:14:37Z</time>
      </trkpt>
      <trkpt lat="59.9529998" lon="17.8041563">
        <ele>26.5736</ele>
        <time>2013-04-27T10:14:38Z</time>
      </trkpt>
      <trkpt lat="59.952961" lon="17.8042442">
        <ele>26.0929</ele>
        <time>2013-04-27T10:14:39Z</time>
      </trkpt>
      <trkpt lat="59.9529219" lon="17.8043406">
        <ele>25.1317</ele>
        <time>2013-04-27T10:14:40Z</time>
      </trkpt>
      <trkpt lat="59.9528858" lon="17.8044525">
        <ele>25.6123</ele>
        <time>2013-04-27T10:14:41Z</time>
      </trkpt>
      <trkpt lat="59.9528553" lon="17.8045748">
        <ele>26.0929</ele>
        <time>2013-04-27T10:14:42Z</time>
      </trkpt>
      <trkpt lat="59.9528284" lon="17.8047013">
        <ele>27.0543</ele>
        <time>2013-04-27T10:14:43Z</time>
      </trkpt>
      <trkpt lat="59.9528054" lon="17.8048327">
        <ele>27.0543</ele>
        <time>2013-04-27T10:14:44Z</time>
      </trkpt>
      <trkpt lat="59.9527857" lon="17.8049658">
        <ele>27.0543</ele>
        <time>2013-04-27T10:14:45Z</time>
      </trkpt>
      <trkpt lat="59.9527682" lon="17.8050986">
        <ele>27.0543</ele>
        <time>2013-04-27T10:14:46Z</time>
      </trkpt>
      <trkpt lat="59.9527538" lon="17.8052321">
        <ele>27.0543</ele>
        <time>2013-04-27T10:14:47Z</time>
      </trkpt>
      <trkpt lat="59.9527404" lon="17.805365">
        <ele>27.5349</ele>
        <time>2013-04-27T10:14:48Z</time>
      </trkpt>
      <trkpt lat="59.9527264" lon="17.8054974">
        <ele>27.0543</ele>
        <time>2013-04-27T10:14:49Z</time>
      </trkpt>
      <trkpt lat="59.9527099" lon="17.8056305">
        <ele>27.5349</ele>
        <time>2013-04-27T10:14:50Z</time>
      </trkpt>
      <trkpt lat="59.9526946" lon="17.8057622">
        <ele>27.5349</ele>
        <time>2013-04-27T10:14:51Z</time>
      </trkpt>
      <trkpt lat="59.9526791" lon="17.8058911">
        <ele>28.0155</ele>
        <time>2013-04-27T10:14:52Z</time>
      </trkpt>
      <trkpt lat="59.952662" lon="17.8060184">
        <ele>28.0155</ele>
        <time>2013-04-27T10:14:53Z</time>
      </trkpt>
      <trkpt lat="59.952642" lon="17.8061425">
        <ele>28.0155</ele>
        <time>2013-04-27T10:14:54Z</time>
      </trkpt>
      <trkpt lat="59.9526196" lon="17.8062634">
        <ele>28.0155</ele>
        <time>2013-04-27T10:14:55Z</time>
      </trkpt>
      <trkpt lat="59.9525958" lon="17.8063817">
        <ele>28.0155</ele>
        <time>2013-04-27T10:14:56Z</time>
      </trkpt>
      <trkpt lat="59.9525714" lon="17.8064984">
        <ele>28.0155</ele>
        <time>2013-04-27T10:14:57Z</time>
      </trkpt>
      <trkpt lat="59.9525466" lon="17.8066173">
        <ele>28.0155</ele>
        <time>2013-04-27T10:14:58Z</time>
      </trkpt>
      <trkpt lat="59.9525216" lon="17.8067374">
        <ele>27.5349</ele>
        <time>2013-04-27T10:14:59Z</time>
      </trkpt>
      <trkpt lat="59.9524953" lon="17.8068588">
        <ele>27.0543</ele>
        <time>2013-04-27T10:15:00Z</time>
      </trkpt>
      <trkpt lat="59.9524663" lon="17.8069843">
        <ele>27.0543</ele>
        <time>2013-04-27T10:15:01Z</time>
      </trkpt>
      <trkpt lat="59.9524362" lon="17.8071129">
        <ele>27.0543</ele>
        <time>2013-04-27T10:15:02Z</time>
      </trkpt>
      <trkpt lat="59.9524056" lon="17.8072416">
        <ele>26.5736</ele>
        <time>2013-04-27T10:15:03Z</time>
      </trkpt>
      <trkpt lat="59.9523756" lon="17.8073602">
        <ele>26.5736</ele>
        <time>2013-04-27T10:15:04Z</time>
      </trkpt>
      <trkpt lat="59.9523477" lon="17.8074607">
        <ele>26.5736</ele>
        <time>2013-04-27T10:15:05Z</time>
      </trkpt>
      <trkpt lat="59.9523216" lon="17.8075416">
        <ele>26.5736</ele>
        <time>2013-04-27T10:15:06Z</time>
      </trkpt>
      <trkpt lat="59.9522979" lon="17.8075962">
        <ele>25.6123</ele>
        <time>2013-04-27T10:15:07Z</time>
      </trkpt>
      <trkpt lat="59.9522798" lon="17.8076413">
        <ele>25.1317</ele>
        <time>2013-04-27T10:15:08Z</time>
      </trkpt>
      <trkpt lat="59.9522787" lon="17.8076892">
        <ele>25.1317</ele>
        <time>2013-04-27T10:15:09Z</time>
      </trkpt>
      <trkpt lat="59.9522922" lon="17.8077206">
        <ele>24.1703</ele>
        <time>2013-04-27T10:15:10Z</time>
      </trkpt>
      <trkpt lat="59.9523127" lon="17.8077026">
        <ele>23.6896</ele>
        <time>2013-04-27T10:15:11Z</time>
      </trkpt>
      <trkpt lat="59.9523268" lon="17.8076662">
        <ele>24.1703</ele>
        <time>2013-04-27T10:15:12Z</time>
      </trkpt>
      <trkpt lat="59.9523395" lon="17.8076202">
        <ele>23.6896</ele>
        <time>2013-04-27T10:15:13Z</time>
      </trkpt>
      <trkpt lat="59.9523538" lon="17.8075714">
        <ele>23.6896</ele>
        <time>2013-04-27T10:15:14Z</time>
      </trkpt>
      <trkpt lat="59.9523661" lon="17.8075232">
        <ele>23.209</ele>
        <time>2013-04-27T10:15:15Z</time>
      </trkpt>
      <trkpt lat="59.9523762" lon="17.8074729">
        <ele>22.7283</ele>
        <time>2013-04-27T10:15:16Z</time>
      </trkpt>
      <trkpt lat="59.9523881" lon="17.8074225">
        <ele>22.7283</ele>
        <time>2013-04-27T10:15:17Z</time>
      </trkpt>
      <trkpt lat="59.9524" lon="17.8073747">
        <ele>22.2476</ele>
        <time>2013-04-27T10:15:18Z</time>
      </trkpt>
      <trkpt lat="59.9524092" lon="17.8073265">
        <ele>22.2476</ele>
        <time>2013-04-27T10:15:19Z</time>
      </trkpt>
      <trkpt lat="59.9524156" lon="17.8072785">
        <ele>22.7283</ele>
        <time>2013-04-27T10:15:20Z</time>
      </trkpt>
      <trkpt lat="59.9524217" lon="17.8072369">
        <ele>22.7283</ele>
        <time>2013-04-27T10:15:21Z</time>
      </trkpt>
      <trkpt lat="59.952428" lon="17.807198">
        <ele>23.209</ele>
        <time>2013-04-27T10:15:22Z</time>
      </trkpt>
      <trkpt lat="59.9524352" lon="17.8071582">
        <ele>23.209</ele>
        <time>2013-04-27T10:15:23Z</time>
      </trkpt>
      <trkpt lat="59.9524446" lon="17.8071169">
        <ele>23.209</ele>
        <time>2013-04-27T10:15:24Z</time>
      </trkpt>
      <trkpt lat="59.9524575" lon="17.8070785">
        <ele>23.6896</ele>
        <time>2013-04-27T10:15:25Z</time>
      </trkpt>
      <trkpt lat="59.9524709" lon="17.8070395">
        <ele>23.6896</ele>
        <time>2013-04-27T10:15:26Z</time>
      </trkpt>
      <trkpt lat="59.952484" lon="17.8069985">
        <ele>23.6896</ele>
        <time>2013-04-27T10:15:27Z</time>
      </trkpt>
      <trkpt lat="59.9524967" lon="17.8069535">
        <ele>23.6896</ele>
        <time>2013-04-27T10:15:28Z</time>
      </trkpt>
      <trkpt lat="59.9525097" lon="17.8069049">
        <ele>23.6896</ele>
        <time>2013-04-27T10:15:29Z</time>
      </trkpt>
      <trkpt lat="59.9525216" lon="17.8068532">
        <ele>23.6896</ele>
        <time>2013-04-27T10:15:30Z</time>
      </trkpt>
      <trkpt lat="59.9525319" lon="17.8067949">
        <ele>23.6896</ele>
        <time>2013-04-27T10:15:31Z</time>
      </trkpt>
      <trkpt lat="59.9525419" lon="17.8067313">
        <ele>23.6896</ele>
        <time>2013-04-27T10:15:32Z</time>
      </trkpt>
      <trkpt lat="59.9525543" lon="17.8066712">
        <ele>23.6896</ele>
        <time>2013-04-27T10:15:33Z</time>
      </trkpt>
      <trkpt lat="59.9525693" lon="17.8066122">
        <ele>23.6896</ele>
        <time>2013-04-27T10:15:34Z</time>
      </trkpt>
      <trkpt lat="59.9525837" lon="17.8065481">
        <ele>23.6896</ele>
        <time>2013-04-27T10:15:35Z</time>
      </trkpt>
      <trkpt lat="59.9525994" lon="17.8064792">
        <ele>23.6896</ele>
        <time>2013-04-27T10:15:36Z</time>
      </trkpt>
      <trkpt lat="59.9526164" lon="17.8064003">
        <ele>23.6896</ele>
        <time>2013-04-27T10:15:37Z</time>
      </trkpt>
      <trkpt lat="59.9526341" lon="17.8063202">
        <ele>23.6896</ele>
        <time>2013-04-27T10:15:38Z</time>
      </trkpt>
      <trkpt lat="59.9526524" lon="17.8062372">
        <ele>23.6896</ele>
        <time>2013-04-27T10:15:39Z</time>
      </trkpt>
      <trkpt lat="59.9526717" lon="17.8061486">
        <ele>23.6896</ele>
        <time>2013-04-27T10:15:40Z</time>
      </trkpt>
      <trkpt lat="59.9526907" lon="17.8060548">
        <ele>23.6896</ele>
        <time>2013-04-27T10:15:41Z</time>
      </trkpt>
      <trkpt lat="59.9527081" lon="17.8059557">
        <ele>23.6896</ele>
        <time>2013-04-27T10:15:42Z</time>
      </trkpt>
      <trkpt lat="59.9527226" lon="17.8058514">
        <ele>23.6896</ele>
        <time>2013-04-27T10:15:43Z</time>
      </trkpt>
      <trkpt lat="59.9527362" lon="17.8057466">
        <ele>23.6896</ele>
        <time>2013-04-27T10:15:44Z</time>
      </trkpt>
      <trkpt lat="59.9527496" lon="17.8056416">
        <ele>23.209</ele>
        <time>2013-04-27T10:15:45Z</time>
      </trkpt>
      <trkpt lat="59.9527621" lon="17.8055354">
        <ele>23.209</ele>
        <time>2013-04-27T10:15:46Z</time>
      </trkpt>
      <trkpt lat="59.9527734" lon="17.8054284">
        <ele>23.209</ele>
        <time>2013-04-27T10:15:47Z</time>
      </trkpt>
      <trkpt lat="59.9527841" lon="17.8053218">
        <ele>23.209</ele>
        <time>2013-04-27T10:15:48Z</time>
      </trkpt>
      <trkpt lat="59.9527943" lon="17.8052147">
        <ele>23.209</ele>
        <time>2013-04-27T10:15:49Z</time>
      </trkpt>
      <trkpt lat="59.9528064" lon="17.8051068">
        <ele>23.209</ele>
        <time>2013-04-27T10:15:50Z</time>
      </trkpt>
      <trkpt lat="59.952821" lon="17.8050011">
        <ele>23.209</ele>
        <time>2013-04-27T10:15:51Z</time>
      </trkpt>
      <trkpt lat="59.9528357" lon="17.8049023">
        <ele>22.7283</ele>
        <time>2013-04-27T10:15:52Z</time>
      </trkpt>
      <trkpt lat="59.9528516" lon="17.8048064">
        <ele>23.209</ele>
        <time>2013-04-27T10:15:53Z</time>
      </trkpt>
      <trkpt lat="59.9528714" lon="17.8047202">
        <ele>22.7283</ele>
        <time>2013-04-27T10:15:54Z</time>
      </trkpt>
      <trkpt lat="59.9528917" lon="17.8046282">
        <ele>22.7283</ele>
        <time>2013-04-27T10:15:55Z</time>
      </trkpt>
      <trkpt lat="59.9529143" lon="17.8045361">
        <ele>22.7283</ele>
        <time>2013-04-27T10:15:56Z</time>
      </trkpt>
      <trkpt lat="59.9529413" lon="17.8044496">
        <ele>22.7283</ele>
        <time>2013-04-27T10:15:57Z</time>
      </trkpt>
      <trkpt lat="59.9529696" lon="17.8043593">
        <ele>22.7283</ele>
        <time>2013-04-27T10:15:58Z</time>
      </trkpt>
      <trkpt lat="59.9529987" lon="17.8042791">
        <ele>23.209</ele>
        <time>2013-04-27T10:15:59Z</time>
      </trkpt>
      <trkpt lat="59.9530295" lon="17.8042119">
        <ele>23.209</ele>
        <time>2013-04-27T10:16:00Z</time>
      </trkpt>
      <trkpt lat="59.9530605" lon="17.8041465">
        <ele>23.209</ele>
        <time>2013-04-27T10:16:01Z</time>
      </trkpt>
      <trkpt lat="59.9530894" lon="17.8040827">
        <ele>23.209</ele>
        <time>2013-04-27T10:16:02Z</time>
      </trkpt>
      <trkpt lat="59.9531184" lon="17.8040216">
        <ele>23.209</ele>
        <time>2013-04-27T10:16:03Z</time>
      </trkpt>
      <trkpt lat="59.9531471" lon="17.8039626">
        <ele>23.6896</ele>
        <time>2013-04-27T10:16:04Z</time>
      </trkpt>
      <trkpt lat="59.9531743" lon="17.803905">
        <ele>23.6896</ele>
        <time>2013-04-27T10:16:05Z</time>
      </trkpt>
      <trkpt lat="59.9532013" lon="17.8038493">
        <ele>24.1703</ele>
        <time>2013-04-27T10:16:06Z</time>
      </trkpt>
      <trkpt lat="59.9532293" lon="17.8037927">
        <ele>24.1703</ele>
        <time>2013-04-27T10:16:07Z</time>
      </trkpt>
      <trkpt lat="59.9532573" lon="17.8037353">
        <ele>24.1703</ele>
        <time>2013-04-27T10:16:08Z</time>
      </trkpt>
      <trkpt lat="59.9532835" lon="17.803679">
        <ele>24.651</ele>
        <time>2013-04-27T10:16:09Z</time>
      </trkpt>
      <trkpt lat="59.9533066" lon="17.803621">
        <ele>24.651</ele>
        <time>2013-04-27T10:16:10Z</time>
      </trkpt>
      <trkpt lat="59.9533282" lon="17.8035648">
        <ele>24.651</ele>
        <time>2013-04-27T10:16:11Z</time>
      </trkpt>
      <trkpt lat="59.9533451" lon="17.8035057">
        <ele>24.651</ele>
        <time>2013-04-27T10:16:12Z</time>
      </trkpt>
      <trkpt lat="59.9547212" lon="17.7995081">
        <ele>26.0929</ele>
        <time>2013-04-27T10:18:03Z</time>
      </trkpt>
      <trkpt lat="59.9547603" lon="17.7994189">
        <ele>26.0929</ele>
        <time>2013-04-27T10:18:04Z</time>
      </trkpt>
      <trkpt lat="59.9548013" lon="17.7993389">
        <ele>26.0929</ele>
        <time>2013-04-27T10:18:05Z</time>
      </trkpt>
      <trkpt lat="59.9548429" lon="17.7992622">
        <ele>26.5736</ele>
        <time>2013-04-27T10:18:06Z</time>
      </trkpt>
      <trkpt lat="59.9548838" lon="17.7991855">
        <ele>27.0543</ele>
        <time>2013-04-27T10:18:07Z</time>
      </trkpt>
      <trkpt lat="59.9549237" lon="17.7991078">
        <ele>27.0543</ele>
        <time>2013-04-27T10:18:08Z</time>
      </trkpt>
      <trkpt lat="59.954963" lon="17.7990318">
        <ele>27.5349</ele>
        <time>2013-04-27T10:18:09Z</time>
      </trkpt>
      <trkpt lat="59.9550008" lon="17.7989572">
        <ele>27.5349</ele>
        <time>2013-04-27T10:18:10Z</time>
      </trkpt>
      <trkpt lat="59.9550382" lon="17.798885">
        <ele>28.0155</ele>
        <time>2013-04-27T10:18:11Z</time>
      </trkpt>
      <trkpt lat="59.9550754" lon="17.7988098">
        <ele>28.0155</ele>
        <time>2013-04-27T10:18:12Z</time>
      </trkpt>
      <trkpt lat="59.9551123" lon="17.7987313">
        <ele>28.0155</ele>
        <time>2013-04-27T10:18:13Z</time>
      </trkpt>
      <trkpt lat="59.9551504" lon="17.7986521">
        <ele>28.0155</ele>
        <time>2013-04-27T10:18:14Z</time>
      </trkpt>
      <trkpt lat="59.9551889" lon="17.7985661">
        <ele>28.0155</ele>
        <time>2013-04-27T10:18:15Z</time>
      </trkpt>
      <trkpt lat="59.955226" lon="17.7984728">
        <ele>27.5349</ele>
        <time>2013-04-27T10:18:16Z</time>
      </trkpt>
      <trkpt lat="59.9552615" lon="17.7983746">
        <ele>27.5349</ele>
        <time>2013-04-27T10:18:17Z</time>
      </trkpt>
      <trkpt lat="59.9552963" lon="17.7982762">
        <ele>28.0155</ele>
        <time>2013-04-27T10:18:18Z</time>
      </trkpt>
      <trkpt lat="59.9553297" lon="17.7981768">
        <ele>28.0155</ele>
        <time>2013-04-27T10:18:19Z</time>
      </trkpt>
      <trkpt lat="59.955362" lon="17.7980754">
        <ele>28.0155</ele>
        <time>2013-04-27T10:18:20Z</time>
      </trkpt>
      <trkpt lat="59.9553934" lon="17.7979726">
        <ele>27.5349</ele>
        <time>2013-04-27T10:18:21Z</time>
      </trkpt>
      <trkpt lat="59.9554246" lon="17.7978682">
        <ele>27.5349</ele>
        <time>2013-04-27T10:18:22Z</time>
      </trkpt>
      <trkpt lat="59.9554563" lon="17.7977615">
        <ele>28.0155</ele>
        <time>2013-04-27T10:18:23Z</time>
      </trkpt>
      <trkpt lat="59.9554893" lon="17.7976535">
        <ele>28.0155</ele>
        <time>2013-04-27T10:18:24Z</time>
      </trkpt>
      <trkpt lat="59.9555221" lon="17.7975423">
        <ele>28.0155</ele>
        <time>2013-04-27T10:18:25Z</time>
      </trkpt>
      <trkpt lat="59.955555" lon="17.797428">
        <ele>28.0155</ele>
        <time>2013-04-27T10:18:26Z</time>
      </trkpt>
      <trkpt lat="59.9555878" lon="17.7973125">
        <ele>28.0155</ele>
        <time>2013-04-27T10:18:27Z</time>
      </trkpt>
      <trkpt lat="59.9556208" lon="17.7971961">
        <ele>28.0155</ele>
        <time>2013-04-27T10:18:28Z</time>
      </trkpt>
      <trkpt lat="59.9556521" lon="17.7970772">
        <ele>28.0155</ele>
        <time>2013-04-27T10:18:29Z</time>
      </trkpt>
      <trkpt lat="59.9556817" lon="17.7969563">
        <ele>28.0155</ele>
        <time>2013-04-27T10:18:30Z</time>
      </trkpt>
      <trkpt lat="59.9557109" lon="17.7968341">
        <ele>28.0155</ele>
        <time>2013-04-27T10:18:31Z</time>
      </trkpt>
      <trkpt lat="59.9557391" lon="17.796711">
        <ele>28.0155</ele>
        <time>2013-04-27T10:18:32Z</time>
      </trkpt>
      <trkpt lat="59.9557658" lon="17.7965846">
        <ele>28.0155</ele>
        <time>2013-04-27T10:18:33Z</time>
      </trkpt>
      <trkpt lat="59.9557913" lon="17.7964545">
        <ele>28.0155</ele>
        <time>2013-04-27T10:18:34Z</time>
      </trkpt>
      <trkpt lat="59.9558151" lon="17.7963213">
        <ele>28.0155</ele>
        <time>2013-04-27T10:18:35Z</time>
      </trkpt>
      <trkpt lat="59.9558368" lon="17.7961847">
        <ele>27.5349</ele>
        <time>2013-04-27T10:18:36Z</time>
      </trkpt>
      <trkpt lat="59.9558572" lon="17.7960468">
        <ele>27.5349</ele>
        <time>2013-04-27T10:18:37Z</time>
      </trkpt>
      <trkpt lat="59.9558789" lon="17.7959082">
        <ele>27.5349</ele>
        <time>2013-04-27T10:18:38Z</time>
      </trkpt>
      <trkpt lat="59.9559022" lon="17.7957692">
        <ele>27.0543</ele>
        <time>2013-04-27T10:18:39Z</time>
      </trkpt>
      <trkpt lat="59.9559257" lon="17.7956323">
        <ele>27.0543</ele>
        <time>2013-04-27T10:18:40Z</time>
      </trkpt>
      <trkpt lat="59.9559514" lon="17.7955004">
        <ele>27.0543</ele>
        <time>2013-04-27T10:18:41Z</time>
      </trkpt>
      <trkpt lat="59.9559788" lon="17.7953741">
        <ele>26.5736</ele>
        <time>2013-04-27T10:18:42Z</time>
      </trkpt>
      <trkpt lat="59.9560069" lon="17.7952512">
        <ele>26.5736</ele>
        <time>2013-04-27T10:18:43Z</time>
      </trkpt>
      <trkpt lat="59.9560358" lon="17.7951316">
        <ele>26.0929</ele>
        <time>2013-04-27T10:18:44Z</time>
      </trkpt>
      <trkpt lat="59.9560626" lon="17.7950139">
        <ele>26.0929</ele>
        <time>2013-04-27T10:18:45Z</time>
      </trkpt>
      <trkpt lat="59.9560897" lon="17.7949014">
        <ele>25.6123</ele>
        <time>2013-04-27T10:18:46Z</time>
      </trkpt>
      <trkpt lat="59.9561189" lon="17.7947929">
        <ele>25.6123</ele>
        <time>2013-04-27T10:18:47Z</time>
      </trkpt>
      <trkpt lat="59.9561474" lon="17.7946808">
        <ele>25.6123</ele>
        <time>2013-04-27T10:18:48Z</time>
      </trkpt>
      <trkpt lat="59.9561761" lon="17.794568">
        <ele>25.6123</ele>
        <time>2013-04-27T10:18:49Z</time>
      </trkpt>
      <trkpt lat="59.9562038" lon="17.7944555">
        <ele>25.6123</ele>
        <time>2013-04-27T10:18:50Z</time>
      </trkpt>
      <trkpt lat="59.9562303" lon="17.7943442">
        <ele>25.6123</ele>
        <time>2013-04-27T10:18:51Z</time>
      </trkpt>
      <trkpt lat="59.9562554" lon="17.7942333">
        <ele>25.6123</ele>
        <time>2013-04-27T10:18:52Z</time>
      </trkpt>
      <trkpt lat="59.9562799" lon="17.7941231">
        <ele>25.6123</ele>
        <time>2013-04-27T10:18:53Z</time>
      </trkpt>
      <trkpt lat="59.9563048" lon="17.7940133">
        <ele>25.6123</ele>
        <time>2013-04-27T10:18:54Z</time>
      </trkpt>
      <trkpt lat="59.9563296" lon="17.7939049">
        <ele>25.1317</ele>
        <time>2013-04-27T10:18:55Z</time>
      </trkpt>
      <trkpt lat="59.9563532" lon="17.7937973">
        <ele>25.1317</ele>
        <time>2013-04-27T10:18:56Z</time>
      </trkpt>
      <trkpt lat="59.9563757" lon="17.7936904">
        <ele>25.1317</ele>
        <time>2013-04-27T10:18:57Z</time>
      </trkpt>
      <trkpt lat="59.9563981" lon="17.7935839">
        <ele>25.1317</ele>
        <time>2013-04-27T10:18:58Z</time>
      </trkpt>
      <trkpt lat="59.9564208" lon="17.7934781">
        <ele>25.1317</ele>
        <time>2013-04-27T10:18:59Z</time>
      </trkpt>
      <trkpt lat="59.9564432" lon="17.7933718">
        <ele>25.1317</ele>
        <time>2013-04-27T10:19:00Z</time>
      </trkpt>
      <trkpt lat="59.9564653" lon="17.7932653">
        <ele>25.1317</ele>
        <time>2013-04-27T10:19:01Z</time>
      </trkpt>
      <trkpt lat="59.9564871" lon="17.7931599">
        <ele>25.1317</ele>
        <time>2013-04-27T10:19:02Z</time>
      </trkpt>
      <trkpt lat="59.9565083" lon="17.7930538">
        <ele>25.1317</ele>
        <time>2013-04-27T10:19:03Z</time>
      </trkpt>
      <trkpt lat="59.9565289" lon="17.7929471">
        <ele>25.1317</ele>
        <time>2013-04-27T10:19:04Z</time>
      </trkpt>
      <trkpt lat="59.9565487" lon="17.792841">
        <ele>25.1317</ele>
        <time>2013-04-27T10:19:05Z</time>
      </trkpt>
      <trkpt lat="59.956568" lon="17.7927351">
        <ele>24.651</ele>
        <time>2013-04-27T10:19:06Z</time>
      </trkpt>
      <trkpt lat="59.9565868" lon="17.7926296">
        <ele>24.651</ele>
        <time>2013-04-27T10:19:07Z</time>
      </trkpt>
      <trkpt lat="59.9566052" lon="17.7925247">
        <ele>24.651</ele>
        <time>2013-04-27T10:19:08Z</time>
      </trkpt>
      <trkpt lat="59.9566228" lon="17.7924178">
        <ele>24.1703</ele>
        <time>2013-04-27T10:19:09Z</time>
      </trkpt>
      <trkpt lat="59.9566399" lon="17.7923101">
        <ele>23.6896</ele>
        <time>2013-04-27T10:19:10Z</time>
      </trkpt>
      <trkpt lat="59.9566568" lon="17.7922023">
        <ele>23.6896</ele>
        <time>2013-04-27T10:19:11Z</time>
      </trkpt>
      <trkpt lat="59.9566725" lon="17.792095">
        <ele>22.7283</ele>
        <time>2013-04-27T10:19:12Z</time>
      </trkpt>
      <trkpt lat="59.9566896" lon="17.7919886">
        <ele>22.7283</ele>
        <time>2013-04-27T10:19:13Z</time>
      </trkpt>
      <trkpt lat="59.956706" lon="17.7918826">
        <ele>21.767</ele>
        <time>2013-04-27T10:19:14Z</time>
      </trkpt>
      <trkpt lat="59.956722" lon="17.7917754">
        <ele>21.2864</ele>
        <time>2013-04-27T10:19:15Z</time>
      </trkpt>
      <trkpt lat="59.9567382" lon="17.7916648">
        <ele>21.2864</ele>
        <time>2013-04-27T10:19:16Z</time>
      </trkpt>
      <trkpt lat="59.9567547" lon="17.7915535">
        <ele>21.2864</ele>
        <time>2013-04-27T10:19:17Z</time>
      </trkpt>
      <trkpt lat="59.9567673" lon="17.7914388">
        <ele>21.2864</ele>
        <time>2013-04-27T10:19:18Z</time>
      </trkpt>
      <trkpt lat="59.956774" lon="17.7913251">
        <ele>21.2864</ele>
        <time>2013-04-27T10:19:19Z</time>
      </trkpt>
      <trkpt lat="59.9567761" lon="17.7912159">
        <ele>21.2864</ele>
        <time>2013-04-27T10:19:20Z</time>
      </trkpt>
      <trkpt lat="59.956772" lon="17.7911085">
        <ele>21.767</ele>
        <time>2013-04-27T10:19:21Z</time>
      </trkpt>
      <trkpt lat="59.9567621" lon="17.7910026">
        <ele>22.2476</ele>
        <time>2013-04-27T10:19:22Z</time>
      </trkpt>
      <trkpt lat="59.9567467" lon="17.7909004">
        <ele>22.7283</ele>
        <time>2013-04-27T10:19:23Z</time>
      </trkpt>
      <trkpt lat="59.9567279" lon="17.7907984">
        <ele>23.209</ele>
        <time>2013-04-27T10:19:24Z</time>
      </trkpt>
      <trkpt lat="59.9567077" lon="17.7906907">
        <ele>23.209</ele>
        <time>2013-04-27T10:19:25Z</time>
      </trkpt>
      <trkpt lat="59.956686" lon="17.7905788">
        <ele>23.6896</ele>
        <time>2013-04-27T10:19:26Z</time>
      </trkpt>
      <trkpt lat="59.9566595" lon="17.7904451">
        <ele>23.6896</ele>
        <time>2013-04-27T10:19:27Z</time>
      </trkpt>
      <trkpt lat="59.9566336" lon="17.7903166">
        <ele>23.209</ele>
        <time>2013-04-27T10:19:28Z</time>
      </trkpt>
      <trkpt lat="59.9566112" lon="17.7901787">
        <ele>23.209</ele>
        <time>2013-04-27T10:19:29Z</time>
      </trkpt>
      <trkpt lat="59.9565922" lon="17.7900498">
        <ele>23.209</ele>
        <time>2013-04-27T10:19:30Z</time>
      </trkpt>
      <trkpt lat="59.9565868" lon="17.7899189">
        <ele>23.209</ele>
        <time>2013-04-27T10:19:31Z</time>
      </trkpt>
      <trkpt lat="59.956599" lon="17.7897986">
        <ele>22.7283</ele>
        <time>2013-04-27T10:19:32Z</time>
      </trkpt>
      <trkpt lat="59.9566249" lon="17.7896869">
        <ele>22.7283</ele>
        <time>2013-04-27T10:19:33Z</time>
      </trkpt>
      <trkpt lat="59.9566653" lon="17.7895959">
        <ele>22.2476</ele>
        <time>2013-04-27T10:19:34Z</time>
      </trkpt>
      <trkpt lat="59.9567125" lon="17.7895158">
        <ele>22.2476</ele>
        <time>2013-04-27T10:19:35Z</time>
      </trkpt>
      <trkpt lat="59.956765" lon="17.789445">
        <ele>22.2476</ele>
        <time>2013-04-27T10:19:36Z</time>
      </trkpt>
      <trkpt lat="59.9568164" lon="17.7893731">
        <ele>21.767</ele>
        <time>2013-04-27T10:19:37Z</time>
      </trkpt>
      <trkpt lat="59.95687" lon="17.7893071">
        <ele>22.2476</ele>
        <time>2013-04-27T10:19:38Z</time>
      </trkpt>
      <trkpt lat="59.9569238" lon="17.7892387">
        <ele>22.2476</ele>
        <time>2013-04-27T10:19:39Z</time>
      </trkpt>
      <trkpt lat="59.9569755" lon="17.7891729">
        <ele>22.2476</ele>
        <time>2013-04-27T10:19:40Z</time>
      </trkpt>
      <trkpt lat="59.9570254" lon="17.7891043">
        <ele>22.2476</ele>
        <time>2013-04-27T10:19:41Z</time>
      </trkpt>
      <trkpt lat="59.9570725" lon="17.789029">
        <ele>22.2476</ele>
        <time>2013-04-27T10:19:42Z</time>
      </trkpt>
      <trkpt lat="59.957118" lon="17.7889512">
        <ele>22.7283</ele>
        <time>2013-04-27T10:19:43Z</time>
      </trkpt>
      <trkpt lat="59.95716" lon="17.7888724">
        <ele>22.7283</ele>
        <time>2013-04-27T10:19:44Z</time>
      </trkpt>
      <trkpt lat="59.9571983" lon="17.7887927">
        <ele>22.7283</ele>
        <time>2013-04-27T10:19:45Z</time>
      </trkpt>
      <trkpt lat="59.957232" lon="17.7887062">
        <ele>23.209</ele>
        <time>2013-04-27T10:19:46Z</time>
      </trkpt>
      <trkpt lat="59.9572656" lon="17.7886164">
        <ele>23.209</ele>
        <time>2013-04-27T10:19:47Z</time>
      </trkpt>
      <trkpt lat="59.9573004" lon="17.7885358">
        <ele>23.6896</ele>
        <time>2013-04-27T10:19:48Z</time>
      </trkpt>
      <trkpt lat="59.9573253" lon="17.7884532">
        <ele>23.6896</ele>
        <time>2013-04-27T10:19:49Z</time>
      </trkpt>
      <trkpt lat="59.9573515" lon="17.7883651">
        <ele>23.6896</ele>
        <time>2013-04-27T10:19:50Z</time>
      </trkpt>
      <trkpt lat="59.9573765" lon="17.7882757">
        <ele>23.6896</ele>
        <time>2013-04-27T10:19:51Z</time>
      </trkpt>
      <trkpt lat="59.9574014" lon="17.7881866">
        <ele>23.6896</ele>
        <time>2013-04-27T10:19:52Z</time>
      </trkpt>
      <trkpt lat="59.9574248" lon="17.7880919">
        <ele>24.1703</ele>
        <time>2013-04-27T10:19:53Z</time>
      </trkpt>
      <trkpt lat="59.9574485" lon="17.7879909">
        <ele>24.1703</ele>
        <time>2013-04-27T10:19:54Z</time>
      </trkpt>
      <trkpt lat="59.9574733" lon="17.7878924">
        <ele>23.6896</ele>
        <time>2013-04-27T10:19:55Z</time>
      </trkpt>
      <trkpt lat="59.9575002" lon="17.787796">
        <ele>23.6896</ele>
        <time>2013-04-27T10:19:56Z</time>
      </trkpt>
      <trkpt lat="59.9575266" lon="17.7876955">
        <ele>23.6896</ele>
        <time>2013-04-27T10:19:57Z</time>
      </trkpt>
      <trkpt lat="59.9575538" lon="17.7875981">
        <ele>23.6896</ele>
        <time>2013-04-27T10:19:58Z</time>
      </trkpt>
      <trkpt lat="59.9575794" lon="17.7875011">
        <ele>23.6896</ele>
        <time>2013-04-27T10:19:59Z</time>
      </trkpt>
      <trkpt lat="59.9576028" lon="17.7874047">
        <ele>23.6896</ele>
        <time>2013-04-27T10:20:00Z</time>
      </trkpt>
      <trkpt lat="59.9576236" lon="17.7873117">
        <ele>23.209</ele>
        <time>2013-04-27T10:20:01Z</time>
      </trkpt>
      <trkpt lat="59.9576417" lon="17.7872164">
        <ele>22.7283</ele>
        <time>2013-04-27T10:20:02Z</time>
      </trkpt>
      <trkpt lat="59.9576603" lon="17.7871195">
        <ele>22.2476</ele>
        <time>2013-04-27T10:20:03Z</time>
      </trkpt>
      <trkpt lat="59.9576799" lon="17.7870225">
        <ele>22.2476</ele>
        <time>2013-04-27T10:20:04Z</time>
      </trkpt>
      <trkpt lat="59.9576987" lon="17.7869224">
        <ele>21.767</ele>
        <time>2013-04-27T10:20:05Z</time>
      </trkpt>
      <trkpt lat="59.9577208" lon="17.7868235">
        <ele>21.767</ele>
        <time>2013-04-27T10:20:06Z</time>
      </trkpt>
      <trkpt lat="59.9577487" lon="17.7867289">
        <ele>21.2864</ele>
        <time>2013-04-27T10:20:07Z</time>
      </trkpt>
      <trkpt lat="59.9577836" lon="17.7866429">
        <ele>20.8057</ele>
        <time>2013-04-27T10:20:08Z</time>
      </trkpt>
      <trkpt lat="59.9578226" lon="17.7865638">
        <ele>20.325</ele>
        <time>2013-04-27T10:20:09Z</time>
      </trkpt>
      <trkpt lat="59.9578658" lon="17.7864911">
        <ele>20.325</ele>
        <time>2013-04-27T10:20:10Z</time>
      </trkpt>
      <trkpt lat="59.9579117" lon="17.7864227">
        <ele>19.8444</ele>
        <time>2013-04-27T10:20:11Z</time>
      </trkpt>
      <trkpt lat="59.9579603" lon="17.7863612">
        <ele>19.3638</ele>
        <time>2013-04-27T10:20:12Z</time>
      </trkpt>
      <trkpt lat="59.9580091" lon="17.7863048">
        <ele>19.3638</ele>
        <time>2013-04-27T10:20:13Z</time>
      </trkpt>
      <trkpt lat="59.9580582" lon="17.7862508">
        <ele>18.8831</ele>
        <time>2013-04-27T10:20:14Z</time>
      </trkpt>
      <trkpt lat="59.9581082" lon="17.7861962">
        <ele>18.8831</ele>
        <time>2013-04-27T10:20:15Z</time>
      </trkpt>
      <trkpt lat="59.9581582" lon="17.7861397">
        <ele>18.8831</ele>
        <time>2013-04-27T10:20:16Z</time>
      </trkpt>
      <trkpt lat="59.9582079" lon="17.7860843">
        <ele>18.8831</ele>
        <time>2013-04-27T10:20:17Z</time>
      </trkpt>
      <trkpt lat="59.9582574" lon="17.7860295">
        <ele>18.8831</ele>
        <time>2013-04-27T10:20:18Z</time>
      </trkpt>
      <trkpt lat="59.9583062" lon="17.785975">
        <ele>19.3638</ele>
        <time>2013-04-27T10:20:19Z</time>
      </trkpt>
      <trkpt lat="59.9583545" lon="17.7859191">
        <ele>19.8444</ele>
        <time>2013-04-27T10:20:20Z</time>
      </trkpt>
      <trkpt lat="59.9584019" lon="17.7858662">
        <ele>19.8444</ele>
        <time>2013-04-27T10:20:21Z</time>
      </trkpt>
      <trkpt lat="59.9584488" lon="17.7858131">
        <ele>20.325</ele>
        <time>2013-04-27T10:20:22Z</time>
      </trkpt>
      <trkpt lat="59.9584947" lon="17.7857612">
        <ele>20.8057</ele>
        <time>2013-04-27T10:20:23Z</time>
      </trkpt>
      <trkpt lat="59.9585409" lon="17.785713">
        <ele>21.2864</ele>
        <time>2013-04-27T10:20:24Z</time>
      </trkpt>
      <trkpt lat="59.9585876" lon="17.7856621">
        <ele>21.767</ele>
        <time>2013-04-27T10:20:25Z</time>
      </trkpt>
      <trkpt lat="59.9586352" lon="17.7856137">
        <ele>21.767</ele>
        <time>2013-04-27T10:20:26Z</time>
      </trkpt>
      <trkpt lat="59.958684" lon="17.7855675">
        <ele>22.2476</ele>
        <time>2013-04-27T10:20:27Z</time>
      </trkpt>
      <trkpt lat="59.9587352" lon="17.7855225">
        <ele>22.2476</ele>
        <time>2013-04-27T10:20:28Z</time>
      </trkpt>
      <trkpt lat="59.9587854" lon="17.7854775">
        <ele>22.2476</ele>
        <time>2013-04-27T10:20:29Z</time>
      </trkpt>
      <trkpt lat="59.9588361" lon="17.7854359">
        <ele>22.2476</ele>
        <time>2013-04-27T10:20:30Z</time>
      </trkpt>
      <trkpt lat="59.9588884" lon="17.7853946">
        <ele>21.767</ele>
        <time>2013-04-27T10:20:31Z</time>
      </trkpt>
      <trkpt lat="59.958943" lon="17.7853518">
        <ele>21.767</ele>
        <time>2013-04-27T10:20:32Z</time>
      </trkpt>
      <trkpt lat="59.9589994" lon="17.7853089">
        <ele>21.767</ele>
        <time>2013-04-27T10:20:33Z</time>
      </trkpt>
      <trkpt lat="59.9590567" lon="17.7852622">
        <ele>21.2864</ele>
        <time>2013-04-27T10:20:34Z</time>
      </trkpt>
      <trkpt lat="59.959115" lon="17.785212">
        <ele>21.2864</ele>
        <time>2013-04-27T10:20:35Z</time>
      </trkpt>
      <trkpt lat="59.9591744" lon="17.7851557">
        <ele>21.2864</ele>
        <time>2013-04-27T10:20:36Z</time>
      </trkpt>
      <trkpt lat="59.9592344" lon="17.7850923">
        <ele>21.767</ele>
        <time>2013-04-27T10:20:37Z</time>
      </trkpt>
      <trkpt lat="59.9592935" lon="17.785027">
        <ele>21.767</ele>
        <time>2013-04-27T10:20:38Z</time>
      </trkpt>
      <trkpt lat="59.9593502" lon="17.7849573">
        <ele>22.2476</ele>
        <time>2013-04-27T10:20:39Z</time>
      </trkpt>
      <trkpt lat="59.9594038" lon="17.7848821">
        <ele>22.7283</ele>
        <time>2013-04-27T10:20:40Z</time>
      </trkpt>
      <trkpt lat="59.9594543" lon="17.7848031">
        <ele>23.209</ele>
        <time>2013-04-27T10:20:41Z</time>
      </trkpt>
      <trkpt lat="59.9595046" lon="17.784724">
        <ele>23.6896</ele>
        <time>2013-04-27T10:20:42Z</time>
      </trkpt>
      <trkpt lat="59.959555" lon="17.7846434">
        <ele>23.6896</ele>
        <time>2013-04-27T10:20:43Z</time>
      </trkpt>
      <trkpt lat="59.959606" lon="17.784563">
        <ele>24.1703</ele>
        <time>2013-04-27T10:20:44Z</time>
      </trkpt>
      <trkpt lat="59.9596566" lon="17.7844817">
        <ele>24.1703</ele>
        <time>2013-04-27T10:20:45Z</time>
      </trkpt>
      <trkpt lat="59.9597066" lon="17.7843984">
        <ele>24.651</ele>
        <time>2013-04-27T10:20:46Z</time>
      </trkpt>
      <trkpt lat="59.9597541" lon="17.7843127">
        <ele>24.1703</ele>
        <time>2013-04-27T10:20:47Z</time>
      </trkpt>
      <trkpt lat="59.9598004" lon="17.7842244">
        <ele>24.1703</ele>
        <time>2013-04-27T10:20:48Z</time>
      </trkpt>
      <trkpt lat="59.9598463" lon="17.7841368">
        <ele>24.1703</ele>
        <time>2013-04-27T10:20:49Z</time>
      </trkpt>
      <trkpt lat="59.95989" lon="17.7840456">
        <ele>24.1703</ele>
        <time>2013-04-27T10:20:50Z</time>
      </trkpt>
      <trkpt lat="59.9599317" lon="17.7839496">
        <ele>24.1703</ele>
        <time>2013-04-27T10:20:51Z</time>
      </trkpt>
      <trkpt lat="59.9599707" lon="17.7838507">
        <ele>24.1703</ele>
        <time>2013-04-27T10:20:52Z</time>
      </trkpt>
      <trkpt lat="59.9600084" lon="17.7837514">
        <ele>24.1703</ele>
        <time>2013-04-27T10:20:53Z</time>
      </trkpt>
      <trkpt lat="59.9600454" lon="17.7836508">
        <ele>24.651</ele>
        <time>2013-04-27T10:20:54Z</time>
      </trkpt>
      <trkpt lat="59.960081" lon="17.7835479">
        <ele>24.651</ele>
        <time>2013-04-27T10:20:55Z</time>
      </trkpt>
      <trkpt lat="59.9601148" lon="17.7834453">
        <ele>24.651</ele>
        <time>2013-04-27T10:20:56Z</time>
      </trkpt>
      <trkpt lat="59.9601489" lon="17.7833472">
        <ele>25.1317</ele>
        <time>2013-04-27T10:20:57Z</time>
      </trkpt>
      <trkpt lat="59.9601826" lon="17.7832508">
        <ele>25.1317</ele>
        <time>2013-04-27T10:20:58Z</time>
      </trkpt>
      <trkpt lat="59.9602152" lon="17.7831542">
        <ele>25.1317</ele>
        <time>2013-04-27T10:20:59Z</time>
      </trkpt>
      <trkpt lat="59.9602474" lon="17.78306">
        <ele>25.1317</ele>
        <time>2013-04-27T10:21:00Z</time>
      </trkpt>
      <trkpt lat="59.9602792" lon="17.7829678">
        <ele>25.1317</ele>
        <time>2013-04-27T10:21:01Z</time>
      </trkpt>
      <trkpt lat="59.9603108" lon="17.7828739">
        <ele>25.1317</ele>
        <time>2013-04-27T10:21:02Z</time>
      </trkpt>
      <trkpt lat="59.960343" lon="17.7827771">
        <ele>25.1317</ele>
        <time>2013-04-27T10:21:03Z</time>
      </trkpt>
      <trkpt lat="59.9603759" lon="17.7826784">
        <ele>25.1317</ele>
        <time>2013-04-27T10:21:04Z</time>
      </trkpt>
      <trkpt lat="59.9604089" lon="17.7825748">
        <ele>25.1317</ele>
        <time>2013-04-27T10:21:05Z</time>
      </trkpt>
      <trkpt lat="59.9604414" lon="17.7824672">
        <ele>25.1317</ele>
        <time>2013-04-27T10:21:06Z</time>
      </trkpt>
      <trkpt lat="59.9604735" lon="17.7823578">
        <ele>25.1317</ele>
        <time>2013-04-27T10:21:07Z</time>
      </trkpt>
      <trkpt lat="59.9605073" lon="17.7822466">
        <ele>25.6123</ele>
        <time>2013-04-27T10:21:08Z</time>
      </trkpt>
      <trkpt lat="59.9605439" lon="17.7821356">
        <ele>25.6123</ele>
        <time>2013-04-27T10:21:09Z</time>
      </trkpt>
      <trkpt lat="59.9605845" lon="17.7820254">
        <ele>25.6123</ele>
        <time>2013-04-27T10:21:10Z</time>
      </trkpt>
      <trkpt lat="59.96063" lon="17.7819171">
        <ele>25.6123</ele>
        <time>2013-04-27T10:21:11Z</time>
      </trkpt>
      <trkpt lat="59.9606798" lon="17.7818146">
        <ele>25.6123</ele>
        <time>2013-04-27T10:21:12Z</time>
      </trkpt>
      <trkpt lat="59.9607318" lon="17.7817145">
        <ele>25.1317</ele>
        <time>2013-04-27T10:21:13Z</time>
      </trkpt>
      <trkpt lat="59.960786" lon="17.7816172">
        <ele>25.1317</ele>
        <time>2013-04-27T10:21:14Z</time>
      </trkpt>
      <trkpt lat="59.9608405" lon="17.7815203">
        <ele>25.1317</ele>
        <time>2013-04-27T10:21:15Z</time>
      </trkpt>
      <trkpt lat="59.9608948" lon="17.781423">
        <ele>25.1317</ele>
        <time>2013-04-27T10:21:16Z</time>
      </trkpt>
      <trkpt lat="59.9609495" lon="17.7813266">
        <ele>25.1317</ele>
        <time>2013-04-27T10:21:17Z</time>
      </trkpt>
      <trkpt lat="59.9610036" lon="17.7812303">
        <ele>25.6123</ele>
        <time>2013-04-27T10:21:18Z</time>
      </trkpt>
      <trkpt lat="59.9610575" lon="17.7811347">
        <ele>25.6123</ele>
        <time>2013-04-27T10:21:19Z</time>
      </trkpt>
      <trkpt lat="59.9611113" lon="17.7810391">
        <ele>26.0929</ele>
        <time>2013-04-27T10:21:20Z</time>
      </trkpt>
      <trkpt lat="59.961165" lon="17.7809438">
        <ele>26.0929</ele>
        <time>2013-04-27T10:21:21Z</time>
      </trkpt>
      <trkpt lat="59.9612182" lon="17.7808478">
        <ele>26.0929</ele>
        <time>2013-04-27T10:21:22Z</time>
      </trkpt>
      <trkpt lat="59.9612713" lon="17.7807522">
        <ele>26.5736</ele>
        <time>2013-04-27T10:21:23Z</time>
      </trkpt>
      <trkpt lat="59.9613236" lon="17.7806583">
        <ele>26.5736</ele>
        <time>2013-04-27T10:21:24Z</time>
      </trkpt>
      <trkpt lat="59.9613753" lon="17.7805641">
        <ele>26.5736</ele>
        <time>2013-04-27T10:21:25Z</time>
      </trkpt>
      <trkpt lat="59.9614272" lon="17.7804713">
        <ele>27.0543</ele>
        <time>2013-04-27T10:21:26Z</time>
      </trkpt>
      <trkpt lat="59.9614789" lon="17.7803786">
        <ele>27.0543</ele>
        <time>2013-04-27T10:21:27Z</time>
      </trkpt>
      <trkpt lat="59.9615294" lon="17.7802833">
        <ele>27.0543</ele>
        <time>2013-04-27T10:21:28Z</time>
      </trkpt>
      <trkpt lat="59.9615791" lon="17.7801844">
        <ele>27.5349</ele>
        <time>2013-04-27T10:21:29Z</time>
      </trkpt>
      <trkpt lat="59.9616274" lon="17.7800828">
        <ele>27.5349</ele>
        <time>2013-04-27T10:21:30Z</time>
      </trkpt>
      <trkpt lat="59.9616749" lon="17.7799794">
        <ele>27.5349</ele>
        <time>2013-04-27T10:21:31Z</time>
      </trkpt>
      <trkpt lat="59.9617219" lon="17.7798746">
        <ele>28.0155</ele>
        <time>2013-04-27T10:21:32Z</time>
      </trkpt>
      <trkpt lat="59.9617675" lon="17.7797684">
        <ele>28.0155</ele>
        <time>2013-04-27T10:21:33Z</time>
      </trkpt>
      <trkpt lat="59.9618125" lon="17.779662">
        <ele>28.0155</ele>
        <time>2013-04-27T10:21:34Z</time>
      </trkpt>
      <trkpt lat="59.9618581" lon="17.7795554">
        <ele>28.4962</ele>
        <time>2013-04-27T10:21:35Z</time>
      </trkpt>
      <trkpt lat="59.9619048" lon="17.7794491">
        <ele>28.4962</ele>
        <time>2013-04-27T10:21:36Z</time>
      </trkpt>
      <trkpt lat="59.9619529" lon="17.7793438">
        <ele>28.4962</ele>
        <time>2013-04-27T10:21:37Z</time>
      </trkpt>
      <trkpt lat="59.9620016" lon="17.7792388">
        <ele>28.4962</ele>
        <time>2013-04-27T10:21:38Z</time>
      </trkpt>
      <trkpt lat="59.9620495" lon="17.7791307">
        <ele>28.0155</ele>
        <time>2013-04-27T10:21:39Z</time>
      </trkpt>
      <trkpt lat="59.9620962" lon="17.7790209">
        <ele>28.0155</ele>
        <time>2013-04-27T10:21:40Z</time>
      </trkpt>
      <trkpt lat="59.9621435" lon="17.7789153">
        <ele>28.0155</ele>
        <time>2013-04-27T10:21:41Z</time>
      </trkpt>
      <trkpt lat="59.9621904" lon="17.7788127">
        <ele>27.5349</ele>
        <time>2013-04-27T10:21:42Z</time>
      </trkpt>
      <trkpt lat="59.9622764" lon="17.778604">
        <ele>27.5349</ele>
        <time>2013-04-27T10:21:43Z</time>
      </trkpt>
      <trkpt lat="59.9623174" lon="17.7785028">
        <ele>27.5349</ele>
        <time>2013-04-27T10:21:44Z</time>
      </trkpt>
      <trkpt lat="59.9623587" lon="17.7784069">
        <ele>27.0543</ele>
        <time>2013-04-27T10:21:45Z</time>
      </trkpt>
      <trkpt lat="59.9624003" lon="17.7783163">
        <ele>27.0543</ele>
        <time>2013-04-27T10:21:46Z</time>
      </trkpt>
      <trkpt lat="59.962441" lon="17.7782284">
        <ele>27.0543</ele>
        <time>2013-04-27T10:21:47Z</time>
      </trkpt>
      <trkpt lat="59.9624808" lon="17.7781413">
        <ele>27.0543</ele>
        <time>2013-04-27T10:21:48Z</time>
      </trkpt>
      <trkpt lat="59.9625193" lon="17.7780555">
        <ele>27.0543</ele>
        <time>2013-04-27T10:21:49Z</time>
      </trkpt>
      <trkpt lat="59.9625572" lon="17.7779708">
        <ele>27.0543</ele>
        <time>2013-04-27T10:21:50Z</time>
      </trkpt>
      <trkpt lat="59.9625956" lon="17.7778874">
        <ele>27.0543</ele>
        <time>2013-04-27T10:21:51Z</time>
      </trkpt>
      <trkpt lat="59.9626348" lon="17.7778049">
        <ele>27.0543</ele>
        <time>2013-04-27T10:21:52Z</time>
      </trkpt>
      <trkpt lat="59.9626748" lon="17.7777243">
        <ele>27.0543</ele>
        <time>2013-04-27T10:21:53Z</time>
      </trkpt>
      <trkpt lat="59.9627149" lon="17.7776456">
        <ele>27.0543</ele>
        <time>2013-04-27T10:21:54Z</time>
      </trkpt>
      <trkpt lat="59.9627546" lon="17.7775652">
        <ele>27.0543</ele>
        <time>2013-04-27T10:21:55Z</time>
      </trkpt>
      <trkpt lat="59.9627949" lon="17.7774814">
        <ele>27.0543</ele>
        <time>2013-04-27T10:21:56Z</time>
      </trkpt>
      <trkpt lat="59.9628363" lon="17.7773953">
        <ele>27.0543</ele>
        <time>2013-04-27T10:21:57Z</time>
      </trkpt>
      <trkpt lat="59.9628783" lon="17.7773075">
        <ele>27.0543</ele>
        <time>2013-04-27T10:21:58Z</time>
      </trkpt>
      <trkpt lat="59.9629182" lon="17.7772196">
        <ele>27.0543</ele>
        <time>2013-04-27T10:21:59Z</time>
      </trkpt>
      <trkpt lat="59.9629559" lon="17.7771323">
        <ele>27.0543</ele>
        <time>2013-04-27T10:22:00Z</time>
      </trkpt>
      <trkpt lat="59.9629917" lon="17.7770452">
        <ele>27.5349</ele>
        <time>2013-04-27T10:22:01Z</time>
      </trkpt>
      <trkpt lat="59.9630236" lon="17.7769566">
        <ele>27.5349</ele>
        <time>2013-04-27T10:22:02Z</time>
      </trkpt>
      <trkpt lat="59.9630538" lon="17.7768707">
        <ele>27.5349</ele>
        <time>2013-04-27T10:22:03Z</time>
      </trkpt>
      <trkpt lat="59.9630832" lon="17.7767876">
        <ele>28.0155</ele>
        <time>2013-04-27T10:22:04Z</time>
      </trkpt>
      <trkpt lat="59.9631099" lon="17.7767009">
        <ele>28.0155</ele>
        <time>2013-04-27T10:22:05Z</time>
      </trkpt>
      <trkpt lat="59.9631356" lon="17.7766131">
        <ele>28.0155</ele>
        <time>2013-04-27T10:22:06Z</time>
      </trkpt>
      <trkpt lat="59.9631617" lon="17.7765241">
        <ele>28.0155</ele>
        <time>2013-04-27T10:22:07Z</time>
      </trkpt>
      <trkpt lat="59.963189" lon="17.7764344">
        <ele>28.0155</ele>
        <time>2013-04-27T10:22:08Z</time>
      </trkpt>
      <trkpt lat="59.9632169" lon="17.7763445">
        <ele>28.0155</ele>
        <time>2013-04-27T10:22:09Z</time>
      </trkpt>
      <trkpt lat="59.9632457" lon="17.7762538">
        <ele>28.0155</ele>
        <time>2013-04-27T10:22:10Z</time>
      </trkpt>
      <trkpt lat="59.963275" lon="17.7761618">
        <ele>28.0155</ele>
        <time>2013-04-27T10:22:11Z</time>
      </trkpt>
      <trkpt lat="59.963304" lon="17.7760689">
        <ele>28.0155</ele>
        <time>2013-04-27T10:22:12Z</time>
      </trkpt>
      <trkpt lat="59.9633324" lon="17.7759757">
        <ele>28.0155</ele>
        <time>2013-04-27T10:22:13Z</time>
      </trkpt>
      <trkpt lat="59.9633616" lon="17.7758814">
        <ele>28.0155</ele>
        <time>2013-04-27T10:22:14Z</time>
      </trkpt>
      <trkpt lat="59.9633916" lon="17.7757865">
        <ele>28.0155</ele>
        <time>2013-04-27T10:22:15Z</time>
      </trkpt>
      <trkpt lat="59.9634221" lon="17.7756912">
        <ele>28.0155</ele>
        <time>2013-04-27T10:22:16Z</time>
      </trkpt>
      <trkpt lat="59.9634527" lon="17.7755958">
        <ele>28.0155</ele>
        <time>2013-04-27T10:22:17Z</time>
      </trkpt>
      <trkpt lat="59.9634828" lon="17.7755016">
        <ele>28.0155</ele>
        <time>2013-04-27T10:22:18Z</time>
      </trkpt>
      <trkpt lat="59.963513" lon="17.7754078">
        <ele>27.5349</ele>
        <time>2013-04-27T10:22:19Z</time>
      </trkpt>
      <trkpt lat="59.9635424" lon="17.7753107">
        <ele>27.5349</ele>
        <time>2013-04-27T10:22:20Z</time>
      </trkpt>
      <trkpt lat="59.9635708" lon="17.7752093">
        <ele>27.5349</ele>
        <time>2013-04-27T10:22:21Z</time>
      </trkpt>
      <trkpt lat="59.9635978" lon="17.7751037">
        <ele>27.5349</ele>
        <time>2013-04-27T10:22:22Z</time>
      </trkpt>
      <trkpt lat="59.9636232" lon="17.7749944">
        <ele>27.5349</ele>
        <time>2013-04-27T10:22:23Z</time>
      </trkpt>
      <trkpt lat="59.9636466" lon="17.7748834">
        <ele>28.0155</ele>
        <time>2013-04-27T10:22:24Z</time>
      </trkpt>
      <trkpt lat="59.9636673" lon="17.7747722">
        <ele>28.0155</ele>
        <time>2013-04-27T10:22:25Z</time>
      </trkpt>
      <trkpt lat="59.963687" lon="17.774662">
        <ele>28.0155</ele>
        <time>2013-04-27T10:22:26Z</time>
      </trkpt>
      <trkpt lat="59.9637055" lon="17.7745535">
        <ele>28.0155</ele>
        <time>2013-04-27T10:22:27Z</time>
      </trkpt>
      <trkpt lat="59.963722" lon="17.7744454">
        <ele>28.4962</ele>
        <time>2013-04-27T10:22:28Z</time>
      </trkpt>
      <trkpt lat="59.9637392" lon="17.7743385">
        <ele>28.4962</ele>
        <time>2013-04-27T10:22:29Z</time>
      </trkpt>
      <trkpt lat="59.9637563" lon="17.7742323">
        <ele>28.4962</ele>
        <time>2013-04-27T10:22:30Z</time>
      </trkpt>
      <trkpt lat="59.9637734" lon="17.7741256">
        <ele>28.4962</ele>
        <time>2013-04-27T10:22:31Z</time>
      </trkpt>
      <trkpt lat="59.9637926" lon="17.7740167">
        <ele>28.4962</ele>
        <time>2013-04-27T10:22:32Z</time>
      </trkpt>
      <trkpt lat="59.9638132" lon="17.7739041">
        <ele>28.4962</ele>
        <time>2013-04-27T10:22:33Z</time>
      </trkpt>
      <trkpt lat="59.9638339" lon="17.7737885">
        <ele>28.4962</ele>
        <time>2013-04-27T10:22:34Z</time>
      </trkpt>
      <trkpt lat="59.9638547" lon="17.7736704">
        <ele>28.4962</ele>
        <time>2013-04-27T10:22:35Z</time>
      </trkpt>
      <trkpt lat="59.963874" lon="17.7735514">
        <ele>28.4962</ele>
        <time>2013-04-27T10:22:36Z</time>
      </trkpt>
      <trkpt lat="59.9638918" lon="17.7734315">
        <ele>28.4962</ele>
        <time>2013-04-27T10:22:37Z</time>
      </trkpt>
      <trkpt lat="59.9639074" lon="17.7733109">
        <ele>28.9769</ele>
        <time>2013-04-27T10:22:38Z</time>
      </trkpt>
      <trkpt lat="59.96392" lon="17.7731906">
        <ele>28.9769</ele>
        <time>2013-04-27T10:22:39Z</time>
      </trkpt>
      <trkpt lat="59.9639291" lon="17.7730705">
        <ele>28.9769</ele>
        <time>2013-04-27T10:22:40Z</time>
      </trkpt>
      <trkpt lat="59.9639116" lon="17.7729322">
        <ele>28.9769</ele>
        <time>2013-04-27T10:22:41Z</time>
      </trkpt>
      <trkpt lat="59.9638994" lon="17.7727977">
        <ele>28.9769</ele>
        <time>2013-04-27T10:22:42Z</time>
      </trkpt>
      <trkpt lat="59.9638868" lon="17.7726628">
        <ele>28.9769</ele>
        <time>2013-04-27T10:22:43Z</time>
      </trkpt>
      <trkpt lat="59.9638719" lon="17.7725297">
        <ele>28.9769</ele>
        <time>2013-04-27T10:22:44Z</time>
      </trkpt>
      <trkpt lat="59.9638532" lon="17.7723977">
        <ele>28.9769</ele>
        <time>2013-04-27T10:22:45Z</time>
      </trkpt>
      <trkpt lat="59.9638319" lon="17.7722687">
        <ele>28.9769</ele>
        <time>2013-04-27T10:22:46Z</time>
      </trkpt>
      <trkpt lat="59.9638086" lon="17.7721467">
        <ele>29.4575</ele>
        <time>2013-04-27T10:22:47Z</time>
      </trkpt>
      <trkpt lat="59.9637836" lon="17.7720288">
        <ele>29.4575</ele>
        <time>2013-04-27T10:22:48Z</time>
      </trkpt>
      <trkpt lat="59.9637571" lon="17.7719157">
        <ele>29.9381</ele>
        <time>2013-04-27T10:22:49Z</time>
      </trkpt>
      <trkpt lat="59.9637294" lon="17.7718056">
        <ele>30.4188</ele>
        <time>2013-04-27T10:22:50Z</time>
      </trkpt>
      <trkpt lat="59.9637043" lon="17.7716983">
        <ele>30.4188</ele>
        <time>2013-04-27T10:22:51Z</time>
      </trkpt>
      <trkpt lat="59.9636792" lon="17.7715906">
        <ele>30.8995</ele>
        <time>2013-04-27T10:22:52Z</time>
      </trkpt>
      <trkpt lat="59.9636535" lon="17.7714855">
        <ele>31.3801</ele>
        <time>2013-04-27T10:22:53Z</time>
      </trkpt>
      <trkpt lat="59.9636273" lon="17.7713813">
        <ele>31.3801</ele>
        <time>2013-04-27T10:22:54Z</time>
      </trkpt>
      <trkpt lat="59.9636024" lon="17.7712754">
        <ele>31.8607</ele>
        <time>2013-04-27T10:22:55Z</time>
      </trkpt>
      <trkpt lat="59.9635791" lon="17.7711684">
        <ele>32.3416</ele>
        <time>2013-04-27T10:22:56Z</time>
      </trkpt>
      <trkpt lat="59.9635562" lon="17.771063">
        <ele>32.3416</ele>
        <time>2013-04-27T10:22:57Z</time>
      </trkpt>
      <trkpt lat="59.9635341" lon="17.7709579">
        <ele>32.8223</ele>
        <time>2013-04-27T10:22:58Z</time>
      </trkpt>
      <trkpt lat="59.9635149" lon="17.770853">
        <ele>33.3029</ele>
        <time>2013-04-27T10:22:59Z</time>
      </trkpt>
      <trkpt lat="59.9634963" lon="17.7707398">
        <ele>33.3029</ele>
        <time>2013-04-27T10:23:00Z</time>
      </trkpt>
      <trkpt lat="59.9634801" lon="17.7706228">
        <ele>33.3029</ele>
        <time>2013-04-27T10:23:01Z</time>
      </trkpt>
      <trkpt lat="59.9634667" lon="17.77051">
        <ele>33.3029</ele>
        <time>2013-04-27T10:23:02Z</time>
      </trkpt>
      <trkpt lat="59.9634568" lon="17.7704049">
        <ele>33.3029</ele>
        <time>2013-04-27T10:23:03Z</time>
      </trkpt>
      <trkpt lat="59.9634477" lon="17.7702981">
        <ele>33.3029</ele>
        <time>2013-04-27T10:23:04Z</time>
      </trkpt>
      <trkpt lat="59.9634435" lon="17.7701916">
        <ele>33.3029</ele>
        <time>2013-04-27T10:23:05Z</time>
      </trkpt>
      <trkpt lat="59.9634425" lon="17.7700868">
        <ele>33.7834</ele>
        <time>2013-04-27T10:23:06Z</time>
      </trkpt>
      <trkpt lat="59.9634419" lon="17.7699791">
        <ele>33.7834</ele>
        <time>2013-04-27T10:23:07Z</time>
      </trkpt>
      <trkpt lat="59.9634414" lon="17.7698724">
        <ele>33.7834</ele>
        <time>2013-04-27T10:23:08Z</time>
      </trkpt>
      <trkpt lat="59.963444" lon="17.7697666">
        <ele>33.7834</ele>
        <time>2013-04-27T10:23:09Z</time>
      </trkpt>
      <trkpt lat="59.9634527" lon="17.7696651">
        <ele>33.7834</ele>
        <time>2013-04-27T10:23:10Z</time>
      </trkpt>
      <trkpt lat="59.9634699" lon="17.7695714">
        <ele>33.3029</ele>
        <time>2013-04-27T10:23:11Z</time>
      </trkpt>
      <trkpt lat="59.96349" lon="17.7694754">
        <ele>33.3029</ele>
        <time>2013-04-27T10:23:12Z</time>
      </trkpt>
      <trkpt lat="59.9635145" lon="17.7693782">
        <ele>33.3029</ele>
        <time>2013-04-27T10:23:13Z</time>
      </trkpt>
      <trkpt lat="59.9635422" lon="17.7692799">
        <ele>33.3029</ele>
        <time>2013-04-27T10:23:14Z</time>
      </trkpt>
      <trkpt lat="59.9635715" lon="17.7691812">
        <ele>32.8223</ele>
        <time>2013-04-27T10:23:15Z</time>
      </trkpt>
      <trkpt lat="59.9636021" lon="17.7690829">
        <ele>32.8223</ele>
        <time>2013-04-27T10:23:16Z</time>
      </trkpt>
      <trkpt lat="59.9636335" lon="17.768984">
        <ele>32.8223</ele>
        <time>2013-04-27T10:23:17Z</time>
      </trkpt>
      <trkpt lat="59.9636644" lon="17.768883">
        <ele>32.8223</ele>
        <time>2013-04-27T10:23:18Z</time>
      </trkpt>
      <trkpt lat="59.9636953" lon="17.7687799">
        <ele>32.3416</ele>
        <time>2013-04-27T10:23:19Z</time>
      </trkpt>
      <trkpt lat="59.9637271" lon="17.7686758">
        <ele>32.3416</ele>
        <time>2013-04-27T10:23:20Z</time>
      </trkpt>
      <trkpt lat="59.9637589" lon="17.7685716">
        <ele>32.3416</ele>
        <time>2013-04-27T10:23:21Z</time>
      </trkpt>
      <trkpt lat="59.9637901" lon="17.7684673">
        <ele>32.3416</ele>
        <time>2013-04-27T10:23:22Z</time>
      </trkpt>
      <trkpt lat="59.9638195" lon="17.768366">
        <ele>32.8223</ele>
        <time>2013-04-27T10:23:23Z</time>
      </trkpt>
      <trkpt lat="59.9638475" lon="17.7682665">
        <ele>32.8223</ele>
        <time>2013-04-27T10:23:24Z</time>
      </trkpt>
      <trkpt lat="59.963875" lon="17.76817">
        <ele>32.8223</ele>
        <time>2013-04-27T10:23:25Z</time>
      </trkpt>
      <trkpt lat="59.9638996" lon="17.7680655">
        <ele>32.8223</ele>
        <time>2013-04-27T10:23:26Z</time>
      </trkpt>
      <trkpt lat="59.9639216" lon="17.7679634">
        <ele>32.8223</ele>
        <time>2013-04-27T10:23:27Z</time>
      </trkpt>
      <trkpt lat="59.9639423" lon="17.7678621">
        <ele>32.8223</ele>
        <time>2013-04-27T10:23:28Z</time>
      </trkpt>
      <trkpt lat="59.9639631" lon="17.7677614">
        <ele>33.3029</ele>
        <time>2013-04-27T10:23:29Z</time>
      </trkpt>
      <trkpt lat="59.9639836" lon="17.7676575">
        <ele>33.3029</ele>
        <time>2013-04-27T10:23:30Z</time>
      </trkpt>
      <trkpt lat="59.9640034" lon="17.7675532">
        <ele>33.3029</ele>
        <time>2013-04-27T10:23:31Z</time>
      </trkpt>
      <trkpt lat="59.9640205" lon="17.7674504">
        <ele>33.3029</ele>
        <time>2013-04-27T10:23:32Z</time>
      </trkpt>
      <trkpt lat="59.9640365" lon="17.7673469">
        <ele>32.8223</ele>
        <time>2013-04-27T10:23:33Z</time>
      </trkpt>
      <trkpt lat="59.9640509" lon="17.7672445">
        <ele>32.8223</ele>
        <time>2013-04-27T10:23:34Z</time>
      </trkpt>
      <trkpt lat="59.9640638" lon="17.7671394">
        <ele>33.3029</ele>
        <time>2013-04-27T10:23:35Z</time>
      </trkpt>
      <trkpt lat="59.9640736" lon="17.7670315">
        <ele>33.3029</ele>
        <time>2013-04-27T10:23:36Z</time>
      </trkpt>
      <trkpt lat="59.9640796" lon="17.7669236">
        <ele>33.3029</ele>
        <time>2013-04-27T10:23:37Z</time>
      </trkpt>
      <trkpt lat="59.9640827" lon="17.7668167">
        <ele>33.3029</ele>
        <time>2013-04-27T10:23:38Z</time>
      </trkpt>
      <trkpt lat="59.9640718" lon="17.7666933">
        <ele>33.3029</ele>
        <time>2013-04-27T10:23:39Z</time>
      </trkpt>
      <trkpt lat="59.9640686" lon="17.7665861">
        <ele>32.8223</ele>
        <time>2013-04-27T10:23:40Z</time>
      </trkpt>
      <trkpt lat="59.9640607" lon="17.766489">
        <ele>32.8223</ele>
        <time>2013-04-27T10:23:41Z</time>
      </trkpt>
      <trkpt lat="59.9640706" lon="17.7663564">
        <ele>32.3416</ele>
        <time>2013-04-27T10:23:42Z</time>
      </trkpt>
      <trkpt lat="59.9640697" lon="17.7662277">
        <ele>31.8607</ele>
        <time>2013-04-27T10:23:43Z</time>
      </trkpt>
      <trkpt lat="59.9640728" lon="17.766108">
        <ele>31.8607</ele>
        <time>2013-04-27T10:23:44Z</time>
      </trkpt>
      <trkpt lat="59.9640748" lon="17.7659858">
        <ele>31.3801</ele>
        <time>2013-04-27T10:23:45Z</time>
      </trkpt>
      <trkpt lat="59.964075" lon="17.765854">
        <ele>31.3801</ele>
        <time>2013-04-27T10:23:46Z</time>
      </trkpt>
      <trkpt lat="59.9640805" lon="17.76571">
        <ele>30.8995</ele>
        <time>2013-04-27T10:23:47Z</time>
      </trkpt>
      <trkpt lat="59.9640931" lon="17.7655656">
        <ele>30.4188</ele>
        <time>2013-04-27T10:23:48Z</time>
      </trkpt>
      <trkpt lat="59.9641071" lon="17.7654092">
        <ele>29.9381</ele>
        <time>2013-04-27T10:23:49Z</time>
      </trkpt>
      <trkpt lat="59.9641237" lon="17.7652517">
        <ele>29.4575</ele>
        <time>2013-04-27T10:23:50Z</time>
      </trkpt>
      <trkpt lat="59.9641479" lon="17.7650888">
        <ele>28.9769</ele>
        <time>2013-04-27T10:23:51Z</time>
      </trkpt>
      <trkpt lat="59.9641794" lon="17.7649283">
        <ele>28.9769</ele>
        <time>2013-04-27T10:23:52Z</time>
      </trkpt>
      <trkpt lat="59.9642137" lon="17.7647666">
        <ele>28.9769</ele>
        <time>2013-04-27T10:23:53Z</time>
      </trkpt>
      <trkpt lat="59.9642494" lon="17.7646068">
        <ele>28.4962</ele>
        <time>2013-04-27T10:23:54Z</time>
      </trkpt>
      <trkpt lat="59.9642876" lon="17.7644525">
        <ele>28.4962</ele>
        <time>2013-04-27T10:23:55Z</time>
      </trkpt>
      <trkpt lat="59.9643247" lon="17.7642952">
        <ele>28.0155</ele>
        <time>2013-04-27T10:23:56Z</time>
      </trkpt>
      <trkpt lat="59.9643624" lon="17.7641415">
        <ele>27.5349</ele>
        <time>2013-04-27T10:23:57Z</time>
      </trkpt>
      <trkpt lat="59.9643995" lon="17.7639912">
        <ele>27.0543</ele>
        <time>2013-04-27T10:23:58Z</time>
      </trkpt>
      <trkpt lat="59.9644368" lon="17.7638464">
        <ele>26.5736</ele>
        <time>2013-04-27T10:23:59Z</time>
      </trkpt>
      <trkpt lat="59.9644732" lon="17.7637047">
        <ele>26.5736</ele>
        <time>2013-04-27T10:24:00Z</time>
      </trkpt>
      <trkpt lat="59.9645072" lon="17.7635647">
        <ele>26.0929</ele>
        <time>2013-04-27T10:24:01Z</time>
      </trkpt>
      <trkpt lat="59.9645398" lon="17.7634291">
        <ele>25.6123</ele>
        <time>2013-04-27T10:24:02Z</time>
      </trkpt>
      <trkpt lat="59.9645723" lon="17.7633038">
        <ele>25.6123</ele>
        <time>2013-04-27T10:24:03Z</time>
      </trkpt>
      <trkpt lat="59.9646033" lon="17.7631816">
        <ele>25.6123</ele>
        <time>2013-04-27T10:24:04Z</time>
      </trkpt>
      <trkpt lat="59.9646342" lon="17.7630625">
        <ele>25.6123</ele>
        <time>2013-04-27T10:24:05Z</time>
      </trkpt>
      <trkpt lat="59.964666" lon="17.7629461">
        <ele>25.6123</ele>
        <time>2013-04-27T10:24:06Z</time>
      </trkpt>
      <trkpt lat="59.9647008" lon="17.7628362">
        <ele>26.0929</ele>
        <time>2013-04-27T10:24:07Z</time>
      </trkpt>
      <trkpt lat="59.9647362" lon="17.7627352">
        <ele>25.6123</ele>
        <time>2013-04-27T10:24:08Z</time>
      </trkpt>
      <trkpt lat="59.9647715" lon="17.7626378">
        <ele>25.6123</ele>
        <time>2013-04-27T10:24:09Z</time>
      </trkpt>
      <trkpt lat="59.9648054" lon="17.7625407">
        <ele>25.6123</ele>
        <time>2013-04-27T10:24:10Z</time>
      </trkpt>
      <trkpt lat="59.96484" lon="17.7624468">
        <ele>26.0929</ele>
        <time>2013-04-27T10:24:11Z</time>
      </trkpt>
      <trkpt lat="59.9648741" lon="17.7623572">
        <ele>26.0929</ele>
        <time>2013-04-27T10:24:12Z</time>
      </trkpt>
      <trkpt lat="59.9649064" lon="17.7622709">
        <ele>26.0929</ele>
        <time>2013-04-27T10:24:13Z</time>
      </trkpt>
      <trkpt lat="59.9649377" lon="17.762189">
        <ele>26.0929</ele>
        <time>2013-04-27T10:24:14Z</time>
      </trkpt>
      <trkpt lat="59.9649683" lon="17.7621121">
        <ele>26.0929</ele>
        <time>2013-04-27T10:24:15Z</time>
      </trkpt>
      <trkpt lat="59.9650005" lon="17.7620396">
        <ele>26.0929</ele>
        <time>2013-04-27T10:24:16Z</time>
      </trkpt>
      <trkpt lat="59.9650321" lon="17.7619602">
        <ele>26.0929</ele>
        <time>2013-04-27T10:24:17Z</time>
      </trkpt>
      <trkpt lat="59.9650648" lon="17.7618769">
        <ele>26.0929</ele>
        <time>2013-04-27T10:24:18Z</time>
      </trkpt>
      <trkpt lat="59.9651005" lon="17.7617931">
        <ele>26.0929</ele>
        <time>2013-04-27T10:24:19Z</time>
      </trkpt>
      <trkpt lat="59.9651354" lon="17.7617028">
        <ele>26.0929</ele>
        <time>2013-04-27T10:24:20Z</time>
      </trkpt>
      <trkpt lat="59.9651705" lon="17.7616092">
        <ele>26.0929</ele>
        <time>2013-04-27T10:24:21Z</time>
      </trkpt>
      <trkpt lat="59.9652046" lon="17.7615167">
        <ele>26.0929</ele>
        <time>2013-04-27T10:24:22Z</time>
      </trkpt>
      <trkpt lat="59.9652404" lon="17.7614314">
        <ele>26.5736</ele>
        <time>2013-04-27T10:24:23Z</time>
      </trkpt>
      <trkpt lat="59.9652751" lon="17.7613416">
        <ele>26.5736</ele>
        <time>2013-04-27T10:24:24Z</time>
      </trkpt>
      <trkpt lat="59.9653093" lon="17.761247">
        <ele>27.0543</ele>
        <time>2013-04-27T10:24:25Z</time>
      </trkpt>
      <trkpt lat="59.9653446" lon="17.7611528">
        <ele>27.0543</ele>
        <time>2013-04-27T10:24:26Z</time>
      </trkpt>
      <trkpt lat="59.9653823" lon="17.7610611">
        <ele>26.5736</ele>
        <time>2013-04-27T10:24:27Z</time>
      </trkpt>
      <trkpt lat="59.9654211" lon="17.7609701">
        <ele>26.5736</ele>
        <time>2013-04-27T10:24:28Z</time>
      </trkpt>
      <trkpt lat="59.9654619" lon="17.7608832">
        <ele>26.5736</ele>
        <time>2013-04-27T10:24:29Z</time>
      </trkpt>
      <trkpt lat="59.9655051" lon="17.7608025">
        <ele>26.5736</ele>
        <time>2013-04-27T10:24:30Z</time>
      </trkpt>
      <trkpt lat="59.9655498" lon="17.7607257">
        <ele>27.0543</ele>
        <time>2013-04-27T10:24:31Z</time>
      </trkpt>
      <trkpt lat="59.965595" lon="17.7606465">
        <ele>26.5736</ele>
        <time>2013-04-27T10:24:32Z</time>
      </trkpt>
      <trkpt lat="59.9656392" lon="17.76057">
        <ele>26.5736</ele>
        <time>2013-04-27T10:24:33Z</time>
      </trkpt>
      <trkpt lat="59.9656841" lon="17.7604973">
        <ele>26.5736</ele>
        <time>2013-04-27T10:24:34Z</time>
      </trkpt>
      <trkpt lat="59.9657282" lon="17.7604214">
        <ele>26.5736</ele>
        <time>2013-04-27T10:24:35Z</time>
      </trkpt>
      <trkpt lat="59.9657739" lon="17.7603429">
        <ele>26.0929</ele>
        <time>2013-04-27T10:24:36Z</time>
      </trkpt>
      <trkpt lat="59.9658188" lon="17.7602591">
        <ele>26.5736</ele>
        <time>2013-04-27T10:24:37Z</time>
      </trkpt>
      <trkpt lat="59.9658641" lon="17.7601769">
        <ele>26.5736</ele>
        <time>2013-04-27T10:24:38Z</time>
      </trkpt>
      <trkpt lat="59.9659091" lon="17.7600912">
        <ele>26.0929</ele>
        <time>2013-04-27T10:24:39Z</time>
      </trkpt>
      <trkpt lat="59.9659542" lon="17.7600054">
        <ele>26.0929</ele>
        <time>2013-04-27T10:24:40Z</time>
      </trkpt>
      <trkpt lat="59.9659998" lon="17.7599219">
        <ele>25.6123</ele>
        <time>2013-04-27T10:24:41Z</time>
      </trkpt>
      <trkpt lat="59.9660443" lon="17.7598359">
        <ele>25.6123</ele>
        <time>2013-04-27T10:24:42Z</time>
      </trkpt>
      <trkpt lat="59.9660884" lon="17.7597509">
        <ele>25.1317</ele>
        <time>2013-04-27T10:24:43Z</time>
      </trkpt>
      <trkpt lat="59.9661317" lon="17.7596645">
        <ele>25.1317</ele>
        <time>2013-04-27T10:24:44Z</time>
      </trkpt>
      <trkpt lat="59.9661758" lon="17.759583">
        <ele>25.1317</ele>
        <time>2013-04-27T10:24:45Z</time>
      </trkpt>
      <trkpt lat="59.9662199" lon="17.7595058">
        <ele>25.1317</ele>
        <time>2013-04-27T10:24:46Z</time>
      </trkpt>
      <trkpt lat="59.9662636" lon="17.7594335">
        <ele>25.1317</ele>
        <time>2013-04-27T10:24:47Z</time>
      </trkpt>
      <trkpt lat="59.9663057" lon="17.7593644">
        <ele>25.1317</ele>
        <time>2013-04-27T10:24:48Z</time>
      </trkpt>
      <trkpt lat="59.9663479" lon="17.7592954">
        <ele>25.6123</ele>
        <time>2013-04-27T10:24:49Z</time>
      </trkpt>
      <trkpt lat="59.9663903" lon="17.7592297">
        <ele>25.6123</ele>
        <time>2013-04-27T10:24:50Z</time>
      </trkpt>
      <trkpt lat="59.966433" lon="17.7591667">
        <ele>25.6123</ele>
        <time>2013-04-27T10:24:51Z</time>
      </trkpt>
      <trkpt lat="59.9664764" lon="17.7591014">
        <ele>25.6123</ele>
        <time>2013-04-27T10:24:52Z</time>
      </trkpt>
      <trkpt lat="59.966521" lon="17.7590412">
        <ele>25.6123</ele>
        <time>2013-04-27T10:24:53Z</time>
      </trkpt>
      <trkpt lat="59.9665669" lon="17.7589817">
        <ele>25.6123</ele>
        <time>2013-04-27T10:24:54Z</time>
      </trkpt>
      <trkpt lat="59.9666141" lon="17.7589295">
        <ele>25.6123</ele>
        <time>2013-04-27T10:24:55Z</time>
      </trkpt>
      <trkpt lat="59.9666628" lon="17.7588827">
        <ele>26.0929</ele>
        <time>2013-04-27T10:24:56Z</time>
      </trkpt>
      <trkpt lat="59.9667121" lon="17.7588351">
        <ele>26.0929</ele>
        <time>2013-04-27T10:24:57Z</time>
      </trkpt>
      <trkpt lat="59.9667611" lon="17.7587852">
        <ele>26.0929</ele>
        <time>2013-04-27T10:24:58Z</time>
      </trkpt>
      <trkpt lat="59.9668098" lon="17.7587377">
        <ele>26.0929</ele>
        <time>2013-04-27T10:24:59Z</time>
      </trkpt>
      <trkpt lat="59.9668585" lon="17.758694">
        <ele>26.0929</ele>
        <time>2013-04-27T10:25:00Z</time>
      </trkpt>
      <trkpt lat="59.9669084" lon="17.7586548">
        <ele>26.0929</ele>
        <time>2013-04-27T10:25:01Z</time>
      </trkpt>
      <trkpt lat="59.9669586" lon="17.7586175">
        <ele>26.0929</ele>
        <time>2013-04-27T10:25:02Z</time>
      </trkpt>
      <trkpt lat="59.9670063" lon="17.7585744">
        <ele>26.0929</ele>
        <time>2013-04-27T10:25:03Z</time>
      </trkpt>
      <trkpt lat="59.9670555" lon="17.7585384">
        <ele>26.5736</ele>
        <time>2013-04-27T10:25:04Z</time>
      </trkpt>
      <trkpt lat="59.9671033" lon="17.7585014">
        <ele>26.5736</ele>
        <time>2013-04-27T10:25:05Z</time>
      </trkpt>
      <trkpt lat="59.9671513" lon="17.7584635">
        <ele>27.0543</ele>
        <time>2013-04-27T10:25:06Z</time>
      </trkpt>
      <trkpt lat="59.9672015" lon="17.7584341">
        <ele>27.5349</ele>
        <time>2013-04-27T10:25:07Z</time>
      </trkpt>
      <trkpt lat="59.9672509" lon="17.7583969">
        <ele>28.0155</ele>
        <time>2013-04-27T10:25:08Z</time>
      </trkpt>
      <trkpt lat="59.9672995" lon="17.7583535">
        <ele>28.4962</ele>
        <time>2013-04-27T10:25:09Z</time>
      </trkpt>
      <trkpt lat="59.9673478" lon="17.7583086">
        <ele>29.4575</ele>
        <time>2013-04-27T10:25:10Z</time>
      </trkpt>
      <trkpt lat="59.9673974" lon="17.75827">
        <ele>29.9381</ele>
        <time>2013-04-27T10:25:11Z</time>
      </trkpt>
      <trkpt lat="59.9674454" lon="17.7582234">
        <ele>30.4188</ele>
        <time>2013-04-27T10:25:12Z</time>
      </trkpt>
      <trkpt lat="59.967493" lon="17.7581689">
        <ele>30.8995</ele>
        <time>2013-04-27T10:25:13Z</time>
      </trkpt>
      <trkpt lat="59.9675409" lon="17.7581247">
        <ele>30.4188</ele>
        <time>2013-04-27T10:25:14Z</time>
      </trkpt>
      <trkpt lat="59.967587" lon="17.7580793">
        <ele>29.9381</ele>
        <time>2013-04-27T10:25:15Z</time>
      </trkpt>
      <trkpt lat="59.9676476" lon="17.7580261">
        <ele>29.9381</ele>
        <time>2013-04-27T10:25:16Z</time>
      </trkpt>
      <trkpt lat="59.9676963" lon="17.757961">
        <ele>29.9381</ele>
        <time>2013-04-27T10:25:17Z</time>
      </trkpt>
      <trkpt lat="59.9677398" lon="17.7579094">
        <ele>29.9381</ele>
        <time>2013-04-27T10:25:18Z</time>
      </trkpt>
      <trkpt lat="59.9677843" lon="17.757869">
        <ele>29.4575</ele>
        <time>2013-04-27T10:25:19Z</time>
      </trkpt>
      <trkpt lat="59.9678299" lon="17.7578192">
        <ele>29.4575</ele>
        <time>2013-04-27T10:25:20Z</time>
      </trkpt>
      <trkpt lat="59.9678724" lon="17.7577749">
        <ele>29.4575</ele>
        <time>2013-04-27T10:25:21Z</time>
      </trkpt>
      <trkpt lat="59.9679143" lon="17.7577281">
        <ele>28.4962</ele>
        <time>2013-04-27T10:25:22Z</time>
      </trkpt>
      <trkpt lat="59.9679525" lon="17.7576757">
        <ele>28.0155</ele>
        <time>2013-04-27T10:25:23Z</time>
      </trkpt>
      <trkpt lat="59.9679898" lon="17.7576171">
        <ele>28.4962</ele>
        <time>2013-04-27T10:25:24Z</time>
      </trkpt>
      <trkpt lat="59.96803" lon="17.7575661">
        <ele>28.4962</ele>
        <time>2013-04-27T10:25:25Z</time>
      </trkpt>
      <trkpt lat="59.9680689" lon="17.7575158">
        <ele>28.9769</ele>
        <time>2013-04-27T10:25:26Z</time>
      </trkpt>
      <trkpt lat="59.9681066" lon="17.7574627">
        <ele>29.4575</ele>
        <time>2013-04-27T10:25:27Z</time>
      </trkpt>
      <trkpt lat="59.9681429" lon="17.757412">
        <ele>29.9381</ele>
        <time>2013-04-27T10:25:28Z</time>
      </trkpt>
      <trkpt lat="59.9681765" lon="17.7573597">
        <ele>30.4188</ele>
        <time>2013-04-27T10:25:29Z</time>
      </trkpt>
      <trkpt lat="59.9682107" lon="17.7573116">
        <ele>30.8995</ele>
        <time>2013-04-27T10:25:30Z</time>
      </trkpt>
      <trkpt lat="59.9682469" lon="17.757267">
        <ele>31.3801</ele>
        <time>2013-04-27T10:25:31Z</time>
      </trkpt>
      <trkpt lat="59.9682804" lon="17.7572187">
        <ele>31.3801</ele>
        <time>2013-04-27T10:25:32Z</time>
      </trkpt>
      <trkpt lat="59.9683127" lon="17.7571702">
        <ele>31.8607</ele>
        <time>2013-04-27T10:25:33Z</time>
      </trkpt>
      <trkpt lat="59.9683469" lon="17.7571236">
        <ele>31.8607</ele>
        <time>2013-04-27T10:25:34Z</time>
      </trkpt>
      <trkpt lat="59.968381" lon="17.7570701">
        <ele>32.3416</ele>
        <time>2013-04-27T10:25:35Z</time>
      </trkpt>
      <trkpt lat="59.968417" lon="17.7570149">
        <ele>32.3416</ele>
        <time>2013-04-27T10:25:36Z</time>
      </trkpt>
      <trkpt lat="59.9684537" lon="17.7569562">
        <ele>32.3416</ele>
        <time>2013-04-27T10:25:37Z</time>
      </trkpt>
      <trkpt lat="59.9684925" lon="17.7569033">
        <ele>32.8223</ele>
        <time>2013-04-27T10:25:38Z</time>
      </trkpt>
      <trkpt lat="59.9685314" lon="17.7568485">
        <ele>32.3416</ele>
        <time>2013-04-27T10:25:39Z</time>
      </trkpt>
      <trkpt lat="59.9685702" lon="17.7567947">
        <ele>32.8223</ele>
        <time>2013-04-27T10:25:40Z</time>
      </trkpt>
      <trkpt lat="59.9686085" lon="17.7567359">
        <ele>32.8223</ele>
        <time>2013-04-27T10:25:41Z</time>
      </trkpt>
      <trkpt lat="59.9686458" lon="17.7566733">
        <ele>33.3029</ele>
        <time>2013-04-27T10:25:42Z</time>
      </trkpt>
      <trkpt lat="59.9686855" lon="17.7566135">
        <ele>33.3029</ele>
        <time>2013-04-27T10:25:43Z</time>
      </trkpt>
      <trkpt lat="59.968725" lon="17.7565554">
        <ele>33.3029</ele>
        <time>2013-04-27T10:25:44Z</time>
      </trkpt>
      <trkpt lat="59.9687623" lon="17.7564933">
        <ele>33.7834</ele>
        <time>2013-04-27T10:25:45Z</time>
      </trkpt>
      <trkpt lat="59.9687994" lon="17.7564298">
        <ele>33.7834</ele>
        <time>2013-04-27T10:25:46Z</time>
      </trkpt>
      <trkpt lat="59.9688345" lon="17.7563616">
        <ele>34.2642</ele>
        <time>2013-04-27T10:25:47Z</time>
      </trkpt>
      <trkpt lat="59.9688683" lon="17.7562926">
        <ele>34.2642</ele>
        <time>2013-04-27T10:25:48Z</time>
      </trkpt>
      <trkpt lat="59.9689008" lon="17.7562205">
        <ele>34.2642</ele>
        <time>2013-04-27T10:25:49Z</time>
      </trkpt>
      <trkpt lat="59.9689341" lon="17.7561467">
        <ele>34.2642</ele>
        <time>2013-04-27T10:25:50Z</time>
      </trkpt>
      <trkpt lat="59.9689695" lon="17.7560722">
        <ele>34.2642</ele>
        <time>2013-04-27T10:25:51Z</time>
      </trkpt>
      <trkpt lat="59.9690074" lon="17.7559957">
        <ele>34.7449</ele>
        <time>2013-04-27T10:25:52Z</time>
      </trkpt>
      <trkpt lat="59.9690486" lon="17.7559161">
        <ele>34.2642</ele>
        <time>2013-04-27T10:25:53Z</time>
      </trkpt>
      <trkpt lat="59.9690903" lon="17.7558359">
        <ele>34.7449</ele>
        <time>2013-04-27T10:25:54Z</time>
      </trkpt>
      <trkpt lat="59.9691296" lon="17.7557503">
        <ele>34.7449</ele>
        <time>2013-04-27T10:25:55Z</time>
      </trkpt>
      <trkpt lat="59.9691672" lon="17.7556616">
        <ele>34.7449</ele>
        <time>2013-04-27T10:25:56Z</time>
      </trkpt>
      <trkpt lat="59.9692053" lon="17.7555753">
        <ele>34.7449</ele>
        <time>2013-04-27T10:25:57Z</time>
      </trkpt>
      <trkpt lat="59.9692429" lon="17.7554908">
        <ele>34.7449</ele>
        <time>2013-04-27T10:25:58Z</time>
      </trkpt>
      <trkpt lat="59.9692807" lon="17.7554083">
        <ele>34.7449</ele>
        <time>2013-04-27T10:25:59Z</time>
      </trkpt>
      <trkpt lat="59.9693191" lon="17.7553272">
        <ele>34.7449</ele>
        <time>2013-04-27T10:26:00Z</time>
      </trkpt>
      <trkpt lat="59.9693563" lon="17.7552448">
        <ele>34.2642</ele>
        <time>2013-04-27T10:26:01Z</time>
      </trkpt>
      <trkpt lat="59.9693927" lon="17.7551617">
        <ele>33.7834</ele>
        <time>2013-04-27T10:26:02Z</time>
      </trkpt>
      <trkpt lat="59.9694297" lon="17.755079">
        <ele>33.3029</ele>
        <time>2013-04-27T10:26:03Z</time>
      </trkpt>
      <trkpt lat="59.9694673" lon="17.7549957">
        <ele>33.3029</ele>
        <time>2013-04-27T10:26:04Z</time>
      </trkpt>
      <trkpt lat="59.9695062" lon="17.7549139">
        <ele>33.3029</ele>
        <time>2013-04-27T10:26:05Z</time>
      </trkpt>
      <trkpt lat="59.9695451" lon="17.7548319">
        <ele>33.3029</ele>
        <time>2013-04-27T10:26:06Z</time>
      </trkpt>
      <trkpt lat="59.9695847" lon="17.7547506">
        <ele>33.7834</ele>
        <time>2013-04-27T10:26:07Z</time>
      </trkpt>
      <trkpt lat="59.9696255" lon="17.7546689">
        <ele>33.7834</ele>
        <time>2013-04-27T10:26:08Z</time>
      </trkpt>
      <trkpt lat="59.9696672" lon="17.7545865">
        <ele>33.7834</ele>
        <time>2013-04-27T10:26:09Z</time>
      </trkpt>
      <trkpt lat="59.9697086" lon="17.7545012">
        <ele>34.2642</ele>
        <time>2013-04-27T10:26:10Z</time>
      </trkpt>
      <trkpt lat="59.9697502" lon="17.7544156">
        <ele>34.2642</ele>
        <time>2013-04-27T10:26:11Z</time>
      </trkpt>
      <trkpt lat="59.9697926" lon="17.7543301">
        <ele>34.2642</ele>
        <time>2013-04-27T10:26:12Z</time>
      </trkpt>
      <trkpt lat="59.9698347" lon="17.7542417">
        <ele>33.7834</ele>
        <time>2013-04-27T10:26:13Z</time>
      </trkpt>
      <trkpt lat="59.9698776" lon="17.7541523">
        <ele>33.7834</ele>
        <time>2013-04-27T10:26:14Z</time>
      </trkpt>
      <trkpt lat="59.9699201" lon="17.7540591">
        <ele>32.8223</ele>
        <time>2013-04-27T10:26:15Z</time>
      </trkpt>
      <trkpt lat="59.9699626" lon="17.7539669">
        <ele>32.3416</ele>
        <time>2013-04-27T10:26:16Z</time>
      </trkpt>
      <trkpt lat="59.9700039" lon="17.7538757">
        <ele>32.3416</ele>
        <time>2013-04-27T10:26:17Z</time>
      </trkpt>
      <trkpt lat="59.9700432" lon="17.7537835">
        <ele>32.3416</ele>
        <time>2013-04-27T10:26:18Z</time>
      </trkpt>
      <trkpt lat="59.9700816" lon="17.7536932">
        <ele>32.3416</ele>
        <time>2013-04-27T10:26:19Z</time>
      </trkpt>
      <trkpt lat="59.9701179" lon="17.7535999">
        <ele>31.8607</ele>
        <time>2013-04-27T10:26:20Z</time>
      </trkpt>
      <trkpt lat="59.9701536" lon="17.7535075">
        <ele>31.3801</ele>
        <time>2013-04-27T10:26:21Z</time>
      </trkpt>
      <trkpt lat="59.9701885" lon="17.7534141">
        <ele>30.8995</ele>
        <time>2013-04-27T10:26:22Z</time>
      </trkpt>
      <trkpt lat="59.9702221" lon="17.7533174">
        <ele>29.9381</ele>
        <time>2013-04-27T10:26:23Z</time>
      </trkpt>
      <trkpt lat="59.9702549" lon="17.7532245">
        <ele>29.9381</ele>
        <time>2013-04-27T10:26:24Z</time>
      </trkpt>
      <trkpt lat="59.9702858" lon="17.7531298">
        <ele>29.9381</ele>
        <time>2013-04-27T10:26:25Z</time>
      </trkpt>
      <trkpt lat="59.970318" lon="17.7530408">
        <ele>30.4188</ele>
        <time>2013-04-27T10:26:26Z</time>
      </trkpt>
      <trkpt lat="59.9703516" lon="17.7529552">
        <ele>30.4188</ele>
        <time>2013-04-27T10:26:27Z</time>
      </trkpt>
      <trkpt lat="59.9703843" lon="17.7528683">
        <ele>30.4188</ele>
        <time>2013-04-27T10:26:28Z</time>
      </trkpt>
      <trkpt lat="59.9704174" lon="17.7527791">
        <ele>30.4188</ele>
        <time>2013-04-27T10:26:29Z</time>
      </trkpt>
      <trkpt lat="59.9704516" lon="17.7526914">
        <ele>30.4188</ele>
        <time>2013-04-27T10:26:30Z</time>
      </trkpt>
      <trkpt lat="59.9704863" lon="17.7526045">
        <ele>30.4188</ele>
        <time>2013-04-27T10:26:31Z</time>
      </trkpt>
      <trkpt lat="59.9705216" lon="17.7525176">
        <ele>30.4188</ele>
        <time>2013-04-27T10:26:32Z</time>
      </trkpt>
      <trkpt lat="59.9705593" lon="17.7524341">
        <ele>30.4188</ele>
        <time>2013-04-27T10:26:33Z</time>
      </trkpt>
      <trkpt lat="59.9706" lon="17.7523549">
        <ele>30.4188</ele>
        <time>2013-04-27T10:26:34Z</time>
      </trkpt>
      <trkpt lat="59.9706411" lon="17.7522753">
        <ele>30.4188</ele>
        <time>2013-04-27T10:26:35Z</time>
      </trkpt>
      <trkpt lat="59.970682" lon="17.752194">
        <ele>30.4188</ele>
        <time>2013-04-27T10:26:36Z</time>
      </trkpt>
      <trkpt lat="59.970722" lon="17.7521133">
        <ele>29.9381</ele>
        <time>2013-04-27T10:26:37Z</time>
      </trkpt>
      <trkpt lat="59.9707635" lon="17.7520373">
        <ele>29.9381</ele>
        <time>2013-04-27T10:26:38Z</time>
      </trkpt>
      <trkpt lat="59.9708058" lon="17.7519616">
        <ele>29.9381</ele>
        <time>2013-04-27T10:26:39Z</time>
      </trkpt>
      <trkpt lat="59.9708494" lon="17.7518915">
        <ele>29.9381</ele>
        <time>2013-04-27T10:26:40Z</time>
      </trkpt>
      <trkpt lat="59.9708924" lon="17.751817">
        <ele>29.4575</ele>
        <time>2013-04-27T10:26:41Z</time>
      </trkpt>
      <trkpt lat="59.9709365" lon="17.7517456">
        <ele>28.9769</ele>
        <time>2013-04-27T10:26:42Z</time>
      </trkpt>
      <trkpt lat="59.9709826" lon="17.7516797">
        <ele>28.9769</ele>
        <time>2013-04-27T10:26:43Z</time>
      </trkpt>
      <trkpt lat="59.9710298" lon="17.7516227">
        <ele>28.0155</ele>
        <time>2013-04-27T10:26:44Z</time>
      </trkpt>
      <trkpt lat="59.9710782" lon="17.7515634">
        <ele>28.0155</ele>
        <time>2013-04-27T10:26:45Z</time>
      </trkpt>
      <trkpt lat="59.9711274" lon="17.7515041">
        <ele>27.5349</ele>
        <time>2013-04-27T10:26:46Z</time>
      </trkpt>
      <trkpt lat="59.9711777" lon="17.7514565">
        <ele>27.0543</ele>
        <time>2013-04-27T10:26:47Z</time>
      </trkpt>
      <trkpt lat="59.9712294" lon="17.7514089">
        <ele>27.0543</ele>
        <time>2013-04-27T10:26:48Z</time>
      </trkpt>
      <trkpt lat="59.9712784" lon="17.7513555">
        <ele>27.0543</ele>
        <time>2013-04-27T10:26:49Z</time>
      </trkpt>
      <trkpt lat="59.9713285" lon="17.7513033">
        <ele>27.0543</ele>
        <time>2013-04-27T10:26:50Z</time>
      </trkpt>
      <trkpt lat="59.9713773" lon="17.7512472">
        <ele>27.0543</ele>
        <time>2013-04-27T10:26:51Z</time>
      </trkpt>
      <trkpt lat="59.9714249" lon="17.7511891">
        <ele>27.0543</ele>
        <time>2013-04-27T10:26:52Z</time>
      </trkpt>
      <trkpt lat="59.9714729" lon="17.7511358">
        <ele>27.0543</ele>
        <time>2013-04-27T10:26:53Z</time>
      </trkpt>
      <trkpt lat="59.9715212" lon="17.7510845">
        <ele>27.0543</ele>
        <time>2013-04-27T10:26:54Z</time>
      </trkpt>
      <trkpt lat="59.9715661" lon="17.751024">
        <ele>27.0543</ele>
        <time>2013-04-27T10:26:55Z</time>
      </trkpt>
      <trkpt lat="59.9716099" lon="17.7509624">
        <ele>27.0543</ele>
        <time>2013-04-27T10:26:56Z</time>
      </trkpt>
      <trkpt lat="59.9716522" lon="17.7508971">
        <ele>27.5349</ele>
        <time>2013-04-27T10:26:57Z</time>
      </trkpt>
      <trkpt lat="59.9716922" lon="17.7508282">
        <ele>27.5349</ele>
        <time>2013-04-27T10:26:58Z</time>
      </trkpt>
      <trkpt lat="59.9717332" lon="17.7507641">
        <ele>28.4962</ele>
        <time>2013-04-27T10:26:59Z</time>
      </trkpt>
      <trkpt lat="59.9717725" lon="17.7507003">
        <ele>28.9769</ele>
        <time>2013-04-27T10:27:00Z</time>
      </trkpt>
      <trkpt lat="59.9718106" lon="17.7506335">
        <ele>28.9769</ele>
        <time>2013-04-27T10:27:01Z</time>
      </trkpt>
      <trkpt lat="59.9718455" lon="17.7505563">
        <ele>29.9381</ele>
        <time>2013-04-27T10:27:02Z</time>
      </trkpt>
      <trkpt lat="59.9718833" lon="17.7504874">
        <ele>30.8995</ele>
        <time>2013-04-27T10:27:03Z</time>
      </trkpt>
      <trkpt lat="59.9719212" lon="17.7504116">
        <ele>30.8995</ele>
        <time>2013-04-27T10:27:04Z</time>
      </trkpt>
      <trkpt lat="59.971959" lon="17.7503366">
        <ele>30.4188</ele>
        <time>2013-04-27T10:27:05Z</time>
      </trkpt>
      <trkpt lat="59.9719938" lon="17.7502536">
        <ele>30.8995</ele>
        <time>2013-04-27T10:27:06Z</time>
      </trkpt>
      <trkpt lat="59.9720296" lon="17.7501772">
        <ele>30.8995</ele>
        <time>2013-04-27T10:27:07Z</time>
      </trkpt>
      <trkpt lat="59.9720657" lon="17.7501046">
        <ele>31.3801</ele>
        <time>2013-04-27T10:27:08Z</time>
      </trkpt>
      <trkpt lat="59.9721009" lon="17.7500341">
        <ele>30.8995</ele>
        <time>2013-04-27T10:27:09Z</time>
      </trkpt>
      <trkpt lat="59.9721337" lon="17.7499578">
        <ele>31.3801</ele>
        <time>2013-04-27T10:27:10Z</time>
      </trkpt>
      <trkpt lat="59.9721667" lon="17.7498808">
        <ele>31.3801</ele>
        <time>2013-04-27T10:27:11Z</time>
      </trkpt>
      <trkpt lat="59.9721993" lon="17.7497995">
        <ele>31.8607</ele>
        <time>2013-04-27T10:27:12Z</time>
      </trkpt>
      <trkpt lat="59.9722319" lon="17.7497144">
        <ele>32.3416</ele>
        <time>2013-04-27T10:27:13Z</time>
      </trkpt>
      <trkpt lat="59.972267" lon="17.7496299">
        <ele>32.8223</ele>
        <time>2013-04-27T10:27:14Z</time>
      </trkpt>
      <trkpt lat="59.9723035" lon="17.7495482">
        <ele>32.8223</ele>
        <time>2013-04-27T10:27:15Z</time>
      </trkpt>
      <trkpt lat="59.9723388" lon="17.7494642">
        <ele>32.3416</ele>
        <time>2013-04-27T10:27:16Z</time>
      </trkpt>
      <trkpt lat="59.9723744" lon="17.7493772">
        <ele>32.3416</ele>
        <time>2013-04-27T10:27:17Z</time>
      </trkpt>
      <trkpt lat="59.9724106" lon="17.7492922">
        <ele>32.8223</ele>
        <time>2013-04-27T10:27:18Z</time>
      </trkpt>
      <trkpt lat="59.9724466" lon="17.7492054">
        <ele>32.8223</ele>
        <time>2013-04-27T10:27:19Z</time>
      </trkpt>
      <trkpt lat="59.9724841" lon="17.7491255">
        <ele>32.8223</ele>
        <time>2013-04-27T10:27:20Z</time>
      </trkpt>
      <trkpt lat="59.9725205" lon="17.7490459">
        <ele>32.8223</ele>
        <time>2013-04-27T10:27:21Z</time>
      </trkpt>
      <trkpt lat="59.9725584" lon="17.7489655">
        <ele>32.3416</ele>
        <time>2013-04-27T10:27:22Z</time>
      </trkpt>
      <trkpt lat="59.9725967" lon="17.7488843">
        <ele>32.3416</ele>
        <time>2013-04-27T10:27:23Z</time>
      </trkpt>
      <trkpt lat="59.9726345" lon="17.7488053">
        <ele>32.3416</ele>
        <time>2013-04-27T10:27:24Z</time>
      </trkpt>
      <trkpt lat="59.9726709" lon="17.7487245">
        <ele>31.8607</ele>
        <time>2013-04-27T10:27:25Z</time>
      </trkpt>
      <trkpt lat="59.9727074" lon="17.7486434">
        <ele>31.3801</ele>
        <time>2013-04-27T10:27:26Z</time>
      </trkpt>
      <trkpt lat="59.9727438" lon="17.7485602">
        <ele>31.3801</ele>
        <time>2013-04-27T10:27:27Z</time>
      </trkpt>
      <trkpt lat="59.9727806" lon="17.7484732">
        <ele>30.8995</ele>
        <time>2013-04-27T10:27:28Z</time>
      </trkpt>
      <trkpt lat="59.9728194" lon="17.7483856">
        <ele>30.8995</ele>
        <time>2013-04-27T10:27:29Z</time>
      </trkpt>
      <trkpt lat="59.9728609" lon="17.7483023">
        <ele>31.3801</ele>
        <time>2013-04-27T10:27:30Z</time>
      </trkpt>
      <trkpt lat="59.9729038" lon="17.7482205">
        <ele>31.3801</ele>
        <time>2013-04-27T10:27:31Z</time>
      </trkpt>
      <trkpt lat="59.9729485" lon="17.7481408">
        <ele>31.3801</ele>
        <time>2013-04-27T10:27:32Z</time>
      </trkpt>
      <trkpt lat="59.9729946" lon="17.7480648">
        <ele>31.8607</ele>
        <time>2013-04-27T10:27:33Z</time>
      </trkpt>
      <trkpt lat="59.9730437" lon="17.7479967">
        <ele>31.8607</ele>
        <time>2013-04-27T10:27:34Z</time>
      </trkpt>
      <trkpt lat="59.9730922" lon="17.7479362">
        <ele>31.8607</ele>
        <time>2013-04-27T10:27:35Z</time>
      </trkpt>
      <trkpt lat="59.9731402" lon="17.747878">
        <ele>31.3801</ele>
        <time>2013-04-27T10:27:36Z</time>
      </trkpt>
      <trkpt lat="59.9731894" lon="17.7478222">
        <ele>31.8607</ele>
        <time>2013-04-27T10:27:37Z</time>
      </trkpt>
      <trkpt lat="59.9732368" lon="17.747763">
        <ele>31.3801</ele>
        <time>2013-04-27T10:27:38Z</time>
      </trkpt>
      <trkpt lat="59.9732825" lon="17.7477041">
        <ele>30.8995</ele>
        <time>2013-04-27T10:27:39Z</time>
      </trkpt>
      <trkpt lat="59.973328" lon="17.74764">
        <ele>30.8995</ele>
        <time>2013-04-27T10:27:40Z</time>
      </trkpt>
      <trkpt lat="59.9733732" lon="17.7475856">
        <ele>30.4188</ele>
        <time>2013-04-27T10:27:41Z</time>
      </trkpt>
      <trkpt lat="59.9734177" lon="17.7475302">
        <ele>30.4188</ele>
        <time>2013-04-27T10:27:42Z</time>
      </trkpt>
      <trkpt lat="59.9734621" lon="17.7474768">
        <ele>30.8995</ele>
        <time>2013-04-27T10:27:43Z</time>
      </trkpt>
      <trkpt lat="59.9735063" lon="17.7474312">
        <ele>30.8995</ele>
        <time>2013-04-27T10:27:44Z</time>
      </trkpt>
      <trkpt lat="59.9735514" lon="17.7473921">
        <ele>30.8995</ele>
        <time>2013-04-27T10:27:45Z</time>
      </trkpt>
      <trkpt lat="59.9735957" lon="17.7473533">
        <ele>30.8995</ele>
        <time>2013-04-27T10:27:46Z</time>
      </trkpt>
      <trkpt lat="59.9736377" lon="17.7473107">
        <ele>30.8995</ele>
        <time>2013-04-27T10:27:47Z</time>
      </trkpt>
      <trkpt lat="59.9736794" lon="17.7472667">
        <ele>30.8995</ele>
        <time>2013-04-27T10:27:48Z</time>
      </trkpt>
      <trkpt lat="59.9737213" lon="17.7472224">
        <ele>30.4188</ele>
        <time>2013-04-27T10:27:49Z</time>
      </trkpt>
      <trkpt lat="59.9737626" lon="17.7471789">
        <ele>29.9381</ele>
        <time>2013-04-27T10:27:50Z</time>
      </trkpt>
      <trkpt lat="59.973801" lon="17.747124">
        <ele>30.4188</ele>
        <time>2013-04-27T10:27:51Z</time>
      </trkpt>
      <trkpt lat="59.9738399" lon="17.7470783">
        <ele>30.8995</ele>
        <time>2013-04-27T10:27:52Z</time>
      </trkpt>
      <trkpt lat="59.9738819" lon="17.7470281">
        <ele>30.8995</ele>
        <time>2013-04-27T10:27:53Z</time>
      </trkpt>
      <trkpt lat="59.9739243" lon="17.7469726">
        <ele>30.8995</ele>
        <time>2013-04-27T10:27:54Z</time>
      </trkpt>
      <trkpt lat="59.9739669" lon="17.7469184">
        <ele>31.3801</ele>
        <time>2013-04-27T10:27:55Z</time>
      </trkpt>
      <trkpt lat="59.9740089" lon="17.7468572">
        <ele>31.3801</ele>
        <time>2013-04-27T10:27:56Z</time>
      </trkpt>
      <trkpt lat="59.9740513" lon="17.7468007">
        <ele>31.3801</ele>
        <time>2013-04-27T10:27:57Z</time>
      </trkpt>
      <trkpt lat="59.9740937" lon="17.7467412">
        <ele>31.8607</ele>
        <time>2013-04-27T10:27:58Z</time>
      </trkpt>
      <trkpt lat="59.9741362" lon="17.746683">
        <ele>32.3416</ele>
        <time>2013-04-27T10:27:59Z</time>
      </trkpt>
      <trkpt lat="59.9741786" lon="17.7466239">
        <ele>32.3416</ele>
        <time>2013-04-27T10:28:00Z</time>
      </trkpt>
      <trkpt lat="59.9742212" lon="17.7465682">
        <ele>32.8223</ele>
        <time>2013-04-27T10:28:01Z</time>
      </trkpt>
      <trkpt lat="59.9742631" lon="17.7465126">
        <ele>32.8223</ele>
        <time>2013-04-27T10:28:02Z</time>
      </trkpt>
      <trkpt lat="59.974304" lon="17.7464548">
        <ele>32.8223</ele>
        <time>2013-04-27T10:28:03Z</time>
      </trkpt>
      <trkpt lat="59.9743455" lon="17.7464023">
        <ele>33.3029</ele>
        <time>2013-04-27T10:28:04Z</time>
      </trkpt>
      <trkpt lat="59.9743846" lon="17.7463485">
        <ele>33.3029</ele>
        <time>2013-04-27T10:28:05Z</time>
      </trkpt>
      <trkpt lat="59.9744221" lon="17.746295">
        <ele>33.7834</ele>
        <time>2013-04-27T10:28:06Z</time>
      </trkpt>
      <trkpt lat="59.9744593" lon="17.7462367">
        <ele>33.7834</ele>
        <time>2013-04-27T10:28:07Z</time>
      </trkpt>
      <trkpt lat="59.9744977" lon="17.7461801">
        <ele>34.2642</ele>
        <time>2013-04-27T10:28:08Z</time>
      </trkpt>
      <trkpt lat="59.9745361" lon="17.7461217">
        <ele>34.7449</ele>
        <time>2013-04-27T10:28:09Z</time>
      </trkpt>
      <trkpt lat="59.9745739" lon="17.7460654">
        <ele>33.7834</ele>
        <time>2013-04-27T10:28:10Z</time>
      </trkpt>
      <trkpt lat="59.9746117" lon="17.7460017">
        <ele>34.2642</ele>
        <time>2013-04-27T10:28:11Z</time>
      </trkpt>
      <trkpt lat="59.9746471" lon="17.7459289">
        <ele>34.7449</ele>
        <time>2013-04-27T10:28:12Z</time>
      </trkpt>
      <trkpt lat="59.9746838" lon="17.7458539">
        <ele>35.2255</ele>
        <time>2013-04-27T10:28:13Z</time>
      </trkpt>
      <trkpt lat="59.9747231" lon="17.7457811">
        <ele>35.2255</ele>
        <time>2013-04-27T10:28:14Z</time>
      </trkpt>
      <trkpt lat="59.9747619" lon="17.7457051">
        <ele>35.7061</ele>
        <time>2013-04-27T10:28:15Z</time>
      </trkpt>
      <trkpt lat="59.9747998" lon="17.7456239">
        <ele>35.7061</ele>
        <time>2013-04-27T10:28:16Z</time>
      </trkpt>
      <trkpt lat="59.9748354" lon="17.7455388">
        <ele>35.7061</ele>
        <time>2013-04-27T10:28:17Z</time>
      </trkpt>
      <trkpt lat="59.97487" lon="17.7454504">
        <ele>35.2255</ele>
        <time>2013-04-27T10:28:18Z</time>
      </trkpt>
      <trkpt lat="59.9749042" lon="17.7453585">
        <ele>35.2255</ele>
        <time>2013-04-27T10:28:19Z</time>
      </trkpt>
      <trkpt lat="59.9749394" lon="17.745269">
        <ele>35.2255</ele>
        <time>2013-04-27T10:28:20Z</time>
      </trkpt>
      <trkpt lat="59.9749749" lon="17.7451752">
        <ele>35.2255</ele>
        <time>2013-04-27T10:28:21Z</time>
      </trkpt>
      <trkpt lat="59.9750083" lon="17.7450727">
        <ele>34.2642</ele>
        <time>2013-04-27T10:28:22Z</time>
      </trkpt>
      <trkpt lat="59.9750418" lon="17.744969">
        <ele>34.2642</ele>
        <time>2013-04-27T10:28:23Z</time>
      </trkpt>
      <trkpt lat="59.9750759" lon="17.7448675">
        <ele>34.2642</ele>
        <time>2013-04-27T10:28:24Z</time>
      </trkpt>
      <trkpt lat="59.975109" lon="17.744765">
        <ele>34.2642</ele>
        <time>2013-04-27T10:28:25Z</time>
      </trkpt>
      <trkpt lat="59.9751415" lon="17.7446614">
        <ele>34.7449</ele>
        <time>2013-04-27T10:28:26Z</time>
      </trkpt>
      <trkpt lat="59.9751701" lon="17.7445588">
        <ele>34.2642</ele>
        <time>2013-04-27T10:28:27Z</time>
      </trkpt>
      <trkpt lat="59.9751981" lon="17.7444567">
        <ele>34.7449</ele>
        <time>2013-04-27T10:28:28Z</time>
      </trkpt>
      <trkpt lat="59.9752238" lon="17.7443553">
        <ele>35.2255</ele>
        <time>2013-04-27T10:28:29Z</time>
      </trkpt>
      <trkpt lat="59.9752469" lon="17.7442526">
        <ele>35.7061</ele>
        <time>2013-04-27T10:28:30Z</time>
      </trkpt>
      <trkpt lat="59.9752701" lon="17.7441498">
        <ele>35.7061</ele>
        <time>2013-04-27T10:28:31Z</time>
      </trkpt>
      <trkpt lat="59.9752924" lon="17.7440439">
        <ele>35.7061</ele>
        <time>2013-04-27T10:28:32Z</time>
      </trkpt>
      <trkpt lat="59.975313" lon="17.7439356">
        <ele>36.1868</ele>
        <time>2013-04-27T10:28:33Z</time>
      </trkpt>
      <trkpt lat="59.9753341" lon="17.7438268">
        <ele>36.1868</ele>
        <time>2013-04-27T10:28:34Z</time>
      </trkpt>
      <trkpt lat="59.9753564" lon="17.7437179">
        <ele>36.1868</ele>
        <time>2013-04-27T10:28:35Z</time>
      </trkpt>
      <trkpt lat="59.9753775" lon="17.7436073">
        <ele>36.1868</ele>
        <time>2013-04-27T10:28:36Z</time>
      </trkpt>
      <trkpt lat="59.9753985" lon="17.7434979">
        <ele>36.6675</ele>
        <time>2013-04-27T10:28:37Z</time>
      </trkpt>
      <trkpt lat="59.9754207" lon="17.7433873">
        <ele>36.6675</ele>
        <time>2013-04-27T10:28:38Z</time>
      </trkpt>
      <trkpt lat="59.9754447" lon="17.7432762">
        <ele>36.6675</ele>
        <time>2013-04-27T10:28:39Z</time>
      </trkpt>
      <trkpt lat="59.9754706" lon="17.7431658">
        <ele>36.6675</ele>
        <time>2013-04-27T10:28:40Z</time>
      </trkpt>
      <trkpt lat="59.9754985" lon="17.743061">
        <ele>36.6675</ele>
        <time>2013-04-27T10:28:41Z</time>
      </trkpt>
      <trkpt lat="59.9755266" lon="17.7429549">
        <ele>37.1481</ele>
        <time>2013-04-27T10:28:42Z</time>
      </trkpt>
      <trkpt lat="59.975556" lon="17.7428499">
        <ele>37.1481</ele>
        <time>2013-04-27T10:28:43Z</time>
      </trkpt>
      <trkpt lat="59.9755864" lon="17.7427462">
        <ele>37.1481</ele>
        <time>2013-04-27T10:28:44Z</time>
      </trkpt>
      <trkpt lat="59.9756161" lon="17.7426416">
        <ele>37.6287</ele>
        <time>2013-04-27T10:28:45Z</time>
      </trkpt>
      <trkpt lat="59.9756404" lon="17.7425199">
        <ele>37.6287</ele>
        <time>2013-04-27T10:28:46Z</time>
      </trkpt>
      <trkpt lat="59.9756704" lon="17.7424106">
        <ele>37.6287</ele>
        <time>2013-04-27T10:28:47Z</time>
      </trkpt>
      <trkpt lat="59.9756967" lon="17.742295">
        <ele>37.1481</ele>
        <time>2013-04-27T10:28:48Z</time>
      </trkpt>
      <trkpt lat="59.9757212" lon="17.7421822">
        <ele>37.1481</ele>
        <time>2013-04-27T10:28:49Z</time>
      </trkpt>
      <trkpt lat="59.9757465" lon="17.7420703">
        <ele>37.1481</ele>
        <time>2013-04-27T10:28:50Z</time>
      </trkpt>
      <trkpt lat="59.9757708" lon="17.7419661">
        <ele>36.6675</ele>
        <time>2013-04-27T10:28:51Z</time>
      </trkpt>
      <trkpt lat="59.9757945" lon="17.7418598">
        <ele>37.1481</ele>
        <time>2013-04-27T10:28:52Z</time>
      </trkpt>
      <trkpt lat="59.9758195" lon="17.7417507">
        <ele>37.1481</ele>
        <time>2013-04-27T10:28:53Z</time>
      </trkpt>
      <trkpt lat="59.9758456" lon="17.7416399">
        <ele>37.1481</ele>
        <time>2013-04-27T10:28:54Z</time>
      </trkpt>
      <trkpt lat="59.9758727" lon="17.7415246">
        <ele>37.1481</ele>
        <time>2013-04-27T10:28:55Z</time>
      </trkpt>
      <trkpt lat="59.9759" lon="17.7414072">
        <ele>37.1481</ele>
        <time>2013-04-27T10:28:56Z</time>
      </trkpt>
      <trkpt lat="59.975928" lon="17.7412911">
        <ele>37.1481</ele>
        <time>2013-04-27T10:28:57Z</time>
      </trkpt>
      <trkpt lat="59.9759584" lon="17.7411775">
        <ele>36.6675</ele>
        <time>2013-04-27T10:28:58Z</time>
      </trkpt>
      <trkpt lat="59.9759886" lon="17.7410636">
        <ele>36.6675</ele>
        <time>2013-04-27T10:28:59Z</time>
      </trkpt>
      <trkpt lat="59.9760191" lon="17.7409478">
        <ele>36.6675</ele>
        <time>2013-04-27T10:29:00Z</time>
      </trkpt>
      <trkpt lat="59.9760517" lon="17.7408369">
        <ele>36.6675</ele>
        <time>2013-04-27T10:29:01Z</time>
      </trkpt>
      <trkpt lat="59.9760845" lon="17.740727">
        <ele>36.1868</ele>
        <time>2013-04-27T10:29:02Z</time>
      </trkpt>
      <trkpt lat="59.9761181" lon="17.7406212">
        <ele>36.1868</ele>
        <time>2013-04-27T10:29:03Z</time>
      </trkpt>
      <trkpt lat="59.9761519" lon="17.7405178">
        <ele>36.1868</ele>
        <time>2013-04-27T10:29:04Z</time>
      </trkpt>
      <trkpt lat="59.9761865" lon="17.7404157">
        <ele>36.1868</ele>
        <time>2013-04-27T10:29:05Z</time>
      </trkpt>
      <trkpt lat="59.9762212" lon="17.7403153">
        <ele>36.1868</ele>
        <time>2013-04-27T10:29:06Z</time>
      </trkpt>
      <trkpt lat="59.9762547" lon="17.7402145">
        <ele>36.1868</ele>
        <time>2013-04-27T10:29:07Z</time>
      </trkpt>
      <trkpt lat="59.9762875" lon="17.7401137">
        <ele>36.6675</ele>
        <time>2013-04-27T10:29:08Z</time>
      </trkpt>
      <trkpt lat="59.9763211" lon="17.7400138">
        <ele>36.6675</ele>
        <time>2013-04-27T10:29:09Z</time>
      </trkpt>
      <trkpt lat="59.9763569" lon="17.7399144">
        <ele>36.6675</ele>
        <time>2013-04-27T10:29:10Z</time>
      </trkpt>
      <trkpt lat="59.9763952" lon="17.7398159">
        <ele>36.6675</ele>
        <time>2013-04-27T10:29:11Z</time>
      </trkpt>
      <trkpt lat="59.976437" lon="17.7397232">
        <ele>36.6675</ele>
        <time>2013-04-27T10:29:12Z</time>
      </trkpt>
      <trkpt lat="59.9764841" lon="17.7396418">
        <ele>36.6675</ele>
        <time>2013-04-27T10:29:13Z</time>
      </trkpt>
      <trkpt lat="59.9765346" lon="17.7395725">
        <ele>37.1481</ele>
        <time>2013-04-27T10:29:14Z</time>
      </trkpt>
      <trkpt lat="59.9765869" lon="17.7395128">
        <ele>37.1481</ele>
        <time>2013-04-27T10:29:15Z</time>
      </trkpt>
      <trkpt lat="59.9766398" lon="17.7394655">
        <ele>37.1481</ele>
        <time>2013-04-27T10:29:16Z</time>
      </trkpt>
      <trkpt lat="59.9766934" lon="17.7394258">
        <ele>37.6287</ele>
        <time>2013-04-27T10:29:17Z</time>
      </trkpt>
      <trkpt lat="59.9767468" lon="17.7393982">
        <ele>37.6287</ele>
        <time>2013-04-27T10:29:18Z</time>
      </trkpt>
      <trkpt lat="59.9767988" lon="17.739381">
        <ele>37.6287</ele>
        <time>2013-04-27T10:29:19Z</time>
      </trkpt>
      <trkpt lat="59.976849" lon="17.7393652">
        <ele>37.6287</ele>
        <time>2013-04-27T10:29:20Z</time>
      </trkpt>
      <trkpt lat="59.9768977" lon="17.7393445">
        <ele>37.6287</ele>
        <time>2013-04-27T10:29:21Z</time>
      </trkpt>
      <trkpt lat="59.9769454" lon="17.7393282">
        <ele>38.1094</ele>
        <time>2013-04-27T10:29:22Z</time>
      </trkpt>
      <trkpt lat="59.9769929" lon="17.7393109">
        <ele>37.6287</ele>
        <time>2013-04-27T10:29:23Z</time>
      </trkpt>
      <trkpt lat="59.9770399" lon="17.7392919">
        <ele>37.1481</ele>
        <time>2013-04-27T10:29:24Z</time>
      </trkpt>
      <trkpt lat="59.9770869" lon="17.7392704">
        <ele>36.6675</ele>
        <time>2013-04-27T10:29:25Z</time>
      </trkpt>
      <trkpt lat="59.9771343" lon="17.7392491">
        <ele>36.1868</ele>
        <time>2013-04-27T10:29:26Z</time>
      </trkpt>
      <trkpt lat="59.9771803" lon="17.7392232">
        <ele>36.1868</ele>
        <time>2013-04-27T10:29:27Z</time>
      </trkpt>
      <trkpt lat="59.9772244" lon="17.7391941">
        <ele>35.7061</ele>
        <time>2013-04-27T10:29:28Z</time>
      </trkpt>
      <trkpt lat="59.9772705" lon="17.7391702">
        <ele>35.2255</ele>
        <time>2013-04-27T10:29:29Z</time>
      </trkpt>
      <trkpt lat="59.9773163" lon="17.7391524">
        <ele>34.7449</ele>
        <time>2013-04-27T10:29:30Z</time>
      </trkpt>
      <trkpt lat="59.9773642" lon="17.7391348">
        <ele>34.7449</ele>
        <time>2013-04-27T10:29:31Z</time>
      </trkpt>
      <trkpt lat="59.9774122" lon="17.7391114">
        <ele>34.7449</ele>
        <time>2013-04-27T10:29:32Z</time>
      </trkpt>
      <trkpt lat="59.9774602" lon="17.7390885">
        <ele>34.7449</ele>
        <time>2013-04-27T10:29:33Z</time>
      </trkpt>
      <trkpt lat="59.9775115" lon="17.739073">
        <ele>35.2255</ele>
        <time>2013-04-27T10:29:34Z</time>
      </trkpt>
      <trkpt lat="59.9775654" lon="17.739061">
        <ele>35.2255</ele>
        <time>2013-04-27T10:29:35Z</time>
      </trkpt>
      <trkpt lat="59.9776178" lon="17.7390513">
        <ele>35.7061</ele>
        <time>2013-04-27T10:29:36Z</time>
      </trkpt>
      <trkpt lat="59.9776725" lon="17.7390487">
        <ele>35.7061</ele>
        <time>2013-04-27T10:29:37Z</time>
      </trkpt>
      <trkpt lat="59.9777301" lon="17.739057">
        <ele>36.1868</ele>
        <time>2013-04-27T10:29:38Z</time>
      </trkpt>
      <trkpt lat="59.9777909" lon="17.7390746">
        <ele>35.2255</ele>
        <time>2013-04-27T10:29:39Z</time>
      </trkpt>
      <trkpt lat="59.9778524" lon="17.7391">
        <ele>35.2255</ele>
        <time>2013-04-27T10:29:40Z</time>
      </trkpt>
      <trkpt lat="59.9779097" lon="17.7391352">
        <ele>35.2255</ele>
        <time>2013-04-27T10:29:41Z</time>
      </trkpt>
      <trkpt lat="59.9779719" lon="17.7391704">
        <ele>35.7061</ele>
        <time>2013-04-27T10:29:42Z</time>
      </trkpt>
      <trkpt lat="59.9780352" lon="17.7392341">
        <ele>35.7061</ele>
        <time>2013-04-27T10:29:43Z</time>
      </trkpt>
      <trkpt lat="59.9780985" lon="17.7392633">
        <ele>35.7061</ele>
        <time>2013-04-27T10:29:44Z</time>
      </trkpt>
      <trkpt lat="59.9781439" lon="17.7392989">
        <ele>35.2255</ele>
        <time>2013-04-27T10:29:45Z</time>
      </trkpt>
      <trkpt lat="59.97819" lon="17.7393208">
        <ele>34.7449</ele>
        <time>2013-04-27T10:29:46Z</time>
      </trkpt>
      <trkpt lat="59.9782409" lon="17.739332">
        <ele>34.7449</ele>
        <time>2013-04-27T10:29:47Z</time>
      </trkpt>
      <trkpt lat="59.9782907" lon="17.7393512">
        <ele>34.2642</ele>
        <time>2013-04-27T10:29:48Z</time>
      </trkpt>
      <trkpt lat="59.9783337" lon="17.7393614">
        <ele>33.7834</ele>
        <time>2013-04-27T10:29:49Z</time>
      </trkpt>
      <trkpt lat="59.9783797" lon="17.7393687">
        <ele>33.3029</ele>
        <time>2013-04-27T10:29:50Z</time>
      </trkpt>
      <trkpt lat="59.9784261" lon="17.7393793">
        <ele>32.8223</ele>
        <time>2013-04-27T10:29:51Z</time>
      </trkpt>
      <trkpt lat="59.9784719" lon="17.7393802">
        <ele>32.3416</ele>
        <time>2013-04-27T10:29:52Z</time>
      </trkpt>
      <trkpt lat="59.9785199" lon="17.7393889">
        <ele>32.3416</ele>
        <time>2013-04-27T10:29:53Z</time>
      </trkpt>
      <trkpt lat="59.9785647" lon="17.7393989">
        <ele>31.8607</ele>
        <time>2013-04-27T10:29:54Z</time>
      </trkpt>
      <trkpt lat="59.9786072" lon="17.7394052">
        <ele>30.8995</ele>
        <time>2013-04-27T10:29:55Z</time>
      </trkpt>
      <trkpt lat="59.9786528" lon="17.7394098">
        <ele>30.4188</ele>
        <time>2013-04-27T10:29:56Z</time>
      </trkpt>
      <trkpt lat="59.9787004" lon="17.7394097">
        <ele>29.4575</ele>
        <time>2013-04-27T10:29:57Z</time>
      </trkpt>
      <trkpt lat="59.9787504" lon="17.7394049">
        <ele>28.4962</ele>
        <time>2013-04-27T10:29:58Z</time>
      </trkpt>
      <trkpt lat="59.9788029" lon="17.7393959">
        <ele>28.0155</ele>
        <time>2013-04-27T10:29:59Z</time>
      </trkpt>
      <trkpt lat="59.9788536" lon="17.7393803">
        <ele>27.5349</ele>
        <time>2013-04-27T10:30:00Z</time>
      </trkpt>
      <trkpt lat="59.9789033" lon="17.7393588">
        <ele>26.5736</ele>
        <time>2013-04-27T10:30:01Z</time>
      </trkpt>
      <trkpt lat="59.9789589" lon="17.7393366">
        <ele>26.5736</ele>
        <time>2013-04-27T10:30:02Z</time>
      </trkpt>
      <trkpt lat="59.9790122" lon="17.7393174">
        <ele>26.0929</ele>
        <time>2013-04-27T10:30:03Z</time>
      </trkpt>
      <trkpt lat="59.979065" lon="17.7392949">
        <ele>26.0929</ele>
        <time>2013-04-27T10:30:04Z</time>
      </trkpt>
      <trkpt lat="59.979112" lon="17.739265">
        <ele>26.0929</ele>
        <time>2013-04-27T10:30:05Z</time>
      </trkpt>
      <trkpt lat="59.9791545" lon="17.7392341">
        <ele>26.5736</ele>
        <time>2013-04-27T10:30:06Z</time>
      </trkpt>
      <trkpt lat="59.9791944" lon="17.7392035">
        <ele>26.5736</ele>
        <time>2013-04-27T10:30:07Z</time>
      </trkpt>
      <trkpt lat="59.9792339" lon="17.7391766">
        <ele>26.5736</ele>
        <time>2013-04-27T10:30:08Z</time>
      </trkpt>
      <trkpt lat="59.9792742" lon="17.7391536">
        <ele>27.0543</ele>
        <time>2013-04-27T10:30:09Z</time>
      </trkpt>
      <trkpt lat="59.9793142" lon="17.7391257">
        <ele>27.5349</ele>
        <time>2013-04-27T10:30:10Z</time>
      </trkpt>
      <trkpt lat="59.9793532" lon="17.7390967">
        <ele>28.0155</ele>
        <time>2013-04-27T10:30:11Z</time>
      </trkpt>
      <trkpt lat="59.979394" lon="17.739072">
        <ele>28.9769</ele>
        <time>2013-04-27T10:30:12Z</time>
      </trkpt>
      <trkpt lat="59.9794339" lon="17.7390496">
        <ele>29.4575</ele>
        <time>2013-04-27T10:30:13Z</time>
      </trkpt>
      <trkpt lat="59.9794754" lon="17.7390258">
        <ele>30.4188</ele>
        <time>2013-04-27T10:30:14Z</time>
      </trkpt>
      <trkpt lat="59.9795168" lon="17.7390013">
        <ele>30.8995</ele>
        <time>2013-04-27T10:30:15Z</time>
      </trkpt>
      <trkpt lat="59.9795599" lon="17.7389782">
        <ele>31.3801</ele>
        <time>2013-04-27T10:30:16Z</time>
      </trkpt>
      <trkpt lat="59.9796023" lon="17.7389581">
        <ele>31.8607</ele>
        <time>2013-04-27T10:30:17Z</time>
      </trkpt>
      <trkpt lat="59.9796473" lon="17.7389378">
        <ele>32.3416</ele>
        <time>2013-04-27T10:30:18Z</time>
      </trkpt>
      <trkpt lat="59.9796944" lon="17.7389156">
        <ele>32.8223</ele>
        <time>2013-04-27T10:30:19Z</time>
      </trkpt>
      <trkpt lat="59.9797412" lon="17.7388917">
        <ele>32.3416</ele>
        <time>2013-04-27T10:30:20Z</time>
      </trkpt>
      <trkpt lat="59.9797902" lon="17.7388669">
        <ele>31.8607</ele>
        <time>2013-04-27T10:30:21Z</time>
      </trkpt>
      <trkpt lat="59.9798442" lon="17.7388459">
        <ele>32.3416</ele>
        <time>2013-04-27T10:30:22Z</time>
      </trkpt>
      <trkpt lat="59.9798933" lon="17.7388331">
        <ele>32.3416</ele>
        <time>2013-04-27T10:30:23Z</time>
      </trkpt>
      <trkpt lat="59.9799393" lon="17.7388275">
        <ele>32.3416</ele>
        <time>2013-04-27T10:30:24Z</time>
      </trkpt>
      <trkpt lat="59.9799852" lon="17.738827">
        <ele>32.8223</ele>
        <time>2013-04-27T10:30:25Z</time>
      </trkpt>
      <trkpt lat="59.9800336" lon="17.7388273">
        <ele>32.8223</ele>
        <time>2013-04-27T10:30:26Z</time>
      </trkpt>
      <trkpt lat="59.9800793" lon="17.7388326">
        <ele>33.3029</ele>
        <time>2013-04-27T10:30:27Z</time>
      </trkpt>
      <trkpt lat="59.9801244" lon="17.7388357">
        <ele>33.3029</ele>
        <time>2013-04-27T10:30:28Z</time>
      </trkpt>
      <trkpt lat="59.9801695" lon="17.7388358">
        <ele>33.3029</ele>
        <time>2013-04-27T10:30:29Z</time>
      </trkpt>
      <trkpt lat="59.9802109" lon="17.738848">
        <ele>32.8223</ele>
        <time>2013-04-27T10:30:30Z</time>
      </trkpt>
      <trkpt lat="59.9802544" lon="17.7388529">
        <ele>33.3029</ele>
        <time>2013-04-27T10:30:31Z</time>
      </trkpt>
      <trkpt lat="59.9802939" lon="17.7388486">
        <ele>33.3029</ele>
        <time>2013-04-27T10:30:32Z</time>
      </trkpt>
      <trkpt lat="59.9803299" lon="17.7388463">
        <ele>32.8223</ele>
        <time>2013-04-27T10:30:33Z</time>
      </trkpt>
      <trkpt lat="59.9803735" lon="17.7388421">
        <ele>32.3416</ele>
        <time>2013-04-27T10:30:34Z</time>
      </trkpt>
      <trkpt lat="59.9804186" lon="17.7388327">
        <ele>32.3416</ele>
        <time>2013-04-27T10:30:35Z</time>
      </trkpt>
      <trkpt lat="59.9804685" lon="17.7388208">
        <ele>31.8607</ele>
        <time>2013-04-27T10:30:36Z</time>
      </trkpt>
      <trkpt lat="59.9805165" lon="17.7388035">
        <ele>30.8995</ele>
        <time>2013-04-27T10:30:37Z</time>
      </trkpt>
      <trkpt lat="59.9805598" lon="17.7387809">
        <ele>29.9381</ele>
        <time>2013-04-27T10:30:38Z</time>
      </trkpt>
      <trkpt lat="59.9805994" lon="17.7387612">
        <ele>28.9769</ele>
        <time>2013-04-27T10:30:39Z</time>
      </trkpt>
      <trkpt lat="59.9806367" lon="17.7387463">
        <ele>27.5349</ele>
        <time>2013-04-27T10:30:40Z</time>
      </trkpt>
      <trkpt lat="59.9806801" lon="17.7387292">
        <ele>27.5349</ele>
        <time>2013-04-27T10:30:41Z</time>
      </trkpt>
      <trkpt lat="59.9807171" lon="17.7387138">
        <ele>26.0929</ele>
        <time>2013-04-27T10:30:42Z</time>
      </trkpt>
      <trkpt lat="59.9807647" lon="17.7387042">
        <ele>26.0929</ele>
        <time>2013-04-27T10:30:43Z</time>
      </trkpt>
      <trkpt lat="59.9808008" lon="17.7386937">
        <ele>25.1317</ele>
        <time>2013-04-27T10:30:44Z</time>
      </trkpt>
      <trkpt lat="59.9808491" lon="17.7386851">
        <ele>26.0929</ele>
        <time>2013-04-27T10:30:45Z</time>
      </trkpt>
      <trkpt lat="59.9808952" lon="17.738676">
        <ele>26.5736</ele>
        <time>2013-04-27T10:30:46Z</time>
      </trkpt>
      <trkpt lat="59.9809419" lon="17.7386653">
        <ele>27.0543</ele>
        <time>2013-04-27T10:30:47Z</time>
      </trkpt>
      <trkpt lat="59.9809865" lon="17.7386575">
        <ele>27.5349</ele>
        <time>2013-04-27T10:30:48Z</time>
      </trkpt>
      <trkpt lat="59.9810284" lon="17.7386491">
        <ele>28.0155</ele>
        <time>2013-04-27T10:30:49Z</time>
      </trkpt>
      <trkpt lat="59.9810742" lon="17.7386404">
        <ele>28.4962</ele>
        <time>2013-04-27T10:30:50Z</time>
      </trkpt>
      <trkpt lat="59.9811125" lon="17.7386311">
        <ele>28.4962</ele>
        <time>2013-04-27T10:30:51Z</time>
      </trkpt>
      <trkpt lat="59.9811515" lon="17.7386182">
        <ele>28.0155</ele>
        <time>2013-04-27T10:30:52Z</time>
      </trkpt>
      <trkpt lat="59.9811899" lon="17.7386083">
        <ele>27.0543</ele>
        <time>2013-04-27T10:30:53Z</time>
      </trkpt>
      <trkpt lat="59.9812262" lon="17.7385944">
        <ele>25.6123</ele>
        <time>2013-04-27T10:30:54Z</time>
      </trkpt>
      <trkpt lat="59.9812646" lon="17.738574">
        <ele>25.6123</ele>
        <time>2013-04-27T10:30:55Z</time>
      </trkpt>
      <trkpt lat="59.9813035" lon="17.7385608">
        <ele>24.1703</ele>
        <time>2013-04-27T10:30:56Z</time>
      </trkpt>
      <trkpt lat="59.9813438" lon="17.7385413">
        <ele>23.209</ele>
        <time>2013-04-27T10:30:57Z</time>
      </trkpt>
      <trkpt lat="59.9813857" lon="17.7385158">
        <ele>22.2476</ele>
        <time>2013-04-27T10:30:58Z</time>
      </trkpt>
      <trkpt lat="59.9814275" lon="17.7384956">
        <ele>22.2476</ele>
        <time>2013-04-27T10:30:59Z</time>
      </trkpt>
      <trkpt lat="59.981468" lon="17.7384799">
        <ele>21.767</ele>
        <time>2013-04-27T10:31:00Z</time>
      </trkpt>
      <trkpt lat="59.9815064" lon="17.7384644">
        <ele>21.767</ele>
        <time>2013-04-27T10:31:01Z</time>
      </trkpt>
      <trkpt lat="59.9815432" lon="17.7384473">
        <ele>21.2864</ele>
        <time>2013-04-27T10:31:02Z</time>
      </trkpt>
      <trkpt lat="59.9815842" lon="17.73843">
        <ele>21.2864</ele>
        <time>2013-04-27T10:31:03Z</time>
      </trkpt>
      <trkpt lat="59.9816252" lon="17.7384115">
        <ele>20.8057</ele>
        <time>2013-04-27T10:31:04Z</time>
      </trkpt>
      <trkpt lat="59.9816614" lon="17.7383934">
        <ele>19.8444</ele>
        <time>2013-04-27T10:31:05Z</time>
      </trkpt>
      <trkpt lat="59.9817193" lon="17.7383749">
        <ele>21.767</ele>
        <time>2013-04-27T10:31:06Z</time>
      </trkpt>
      <trkpt lat="59.9817772" lon="17.7383543">
        <ele>23.209</ele>
        <time>2013-04-27T10:31:07Z</time>
      </trkpt>
      <trkpt lat="59.9818385" lon="17.7383313">
        <ele>25.1317</ele>
        <time>2013-04-27T10:31:08Z</time>
      </trkpt>
      <trkpt lat="59.9819028" lon="17.7383042">
        <ele>26.5736</ele>
        <time>2013-04-27T10:31:09Z</time>
      </trkpt>
      <trkpt lat="59.9819663" lon="17.7382777">
        <ele>27.5349</ele>
        <time>2013-04-27T10:31:10Z</time>
      </trkpt>
      <trkpt lat="59.9820273" lon="17.7382573">
        <ele>28.0155</ele>
        <time>2013-04-27T10:31:11Z</time>
      </trkpt>
      <trkpt lat="59.9820932" lon="17.7382468">
        <ele>28.9769</ele>
        <time>2013-04-27T10:31:12Z</time>
      </trkpt>
      <trkpt lat="59.9821548" lon="17.7382333">
        <ele>29.4575</ele>
        <time>2013-04-27T10:31:13Z</time>
      </trkpt>
      <trkpt lat="59.9822216" lon="17.7382112">
        <ele>31.8607</ele>
        <time>2013-04-27T10:31:14Z</time>
      </trkpt>
      <trkpt lat="59.9822862" lon="17.7381923">
        <ele>33.3029</ele>
        <time>2013-04-27T10:31:15Z</time>
      </trkpt>
      <trkpt lat="59.9823487" lon="17.7381784">
        <ele>34.2642</ele>
        <time>2013-04-27T10:31:16Z</time>
      </trkpt>
      <trkpt lat="59.9824066" lon="17.738172">
        <ele>35.2255</ele>
        <time>2013-04-27T10:31:17Z</time>
      </trkpt>
      <trkpt lat="59.9824568" lon="17.738171">
        <ele>35.2255</ele>
        <time>2013-04-27T10:31:18Z</time>
      </trkpt>
      <trkpt lat="59.9825153" lon="17.7381691">
        <ele>36.1868</ele>
        <time>2013-04-27T10:31:19Z</time>
      </trkpt>
      <trkpt lat="59.9825765" lon="17.7381751">
        <ele>36.6675</ele>
        <time>2013-04-27T10:31:20Z</time>
      </trkpt>
      <trkpt lat="59.9826361" lon="17.73818">
        <ele>37.1481</ele>
        <time>2013-04-27T10:31:21Z</time>
      </trkpt>
      <trkpt lat="59.9826992" lon="17.738182">
        <ele>38.5901</ele>
        <time>2013-04-27T10:31:22Z</time>
      </trkpt>
      <trkpt lat="59.9827489" lon="17.7381955">
        <ele>36.1868</ele>
        <time>2013-04-27T10:31:23Z</time>
      </trkpt>
      <trkpt lat="59.9828099" lon="17.7382005">
        <ele>37.1481</ele>
        <time>2013-04-27T10:31:24Z</time>
      </trkpt>
      <trkpt lat="59.9828727" lon="17.73821">
        <ele>36.1868</ele>
        <time>2013-04-27T10:31:25Z</time>
      </trkpt>
      <trkpt lat="59.9829325" lon="17.7382217">
        <ele>35.2255</ele>
        <time>2013-04-27T10:31:26Z</time>
      </trkpt>
      <trkpt lat="59.9829896" lon="17.7382226">
        <ele>34.2642</ele>
        <time>2013-04-27T10:31:27Z</time>
      </trkpt>
      <trkpt lat="59.9830473" lon="17.7382212">
        <ele>34.2642</ele>
        <time>2013-04-27T10:31:28Z</time>
      </trkpt>
      <trkpt lat="59.9831118" lon="17.7382132">
        <ele>34.7449</ele>
        <time>2013-04-27T10:31:29Z</time>
      </trkpt>
      <trkpt lat="59.9831755" lon="17.7382036">
        <ele>35.2255</ele>
        <time>2013-04-27T10:31:30Z</time>
      </trkpt>
      <trkpt lat="59.9832356" lon="17.7381929">
        <ele>35.7061</ele>
        <time>2013-04-27T10:31:31Z</time>
      </trkpt>
      <trkpt lat="59.9832986" lon="17.7381811">
        <ele>36.6675</ele>
        <time>2013-04-27T10:31:32Z</time>
      </trkpt>
      <trkpt lat="59.9833599" lon="17.7381671">
        <ele>36.6675</ele>
        <time>2013-04-27T10:31:33Z</time>
      </trkpt>
      <trkpt lat="59.9834204" lon="17.7381575">
        <ele>36.6675</ele>
        <time>2013-04-27T10:31:34Z</time>
      </trkpt>
      <trkpt lat="59.9834793" lon="17.7381472">
        <ele>36.1868</ele>
        <time>2013-04-27T10:31:35Z</time>
      </trkpt>
      <trkpt lat="59.9835407" lon="17.7381333">
        <ele>36.1868</ele>
        <time>2013-04-27T10:31:36Z</time>
      </trkpt>
      <trkpt lat="59.9836006" lon="17.7381161">
        <ele>36.6675</ele>
        <time>2013-04-27T10:31:37Z</time>
      </trkpt>
      <trkpt lat="59.9836603" lon="17.7381012">
        <ele>36.6675</ele>
        <time>2013-04-27T10:31:38Z</time>
      </trkpt>
      <trkpt lat="59.9837245" lon="17.7380824">
        <ele>36.6675</ele>
        <time>2013-04-27T10:31:39Z</time>
      </trkpt>
      <trkpt lat="59.9837832" lon="17.7380702">
        <ele>36.6675</ele>
        <time>2013-04-27T10:31:40Z</time>
      </trkpt>
      <trkpt lat="59.9838381" lon="17.7380619">
        <ele>36.1868</ele>
        <time>2013-04-27T10:31:41Z</time>
      </trkpt>
      <trkpt lat="59.983896" lon="17.7380562">
        <ele>35.7061</ele>
        <time>2013-04-27T10:31:42Z</time>
      </trkpt>
      <trkpt lat="59.983954" lon="17.7380484">
        <ele>36.1868</ele>
        <time>2013-04-27T10:31:43Z</time>
      </trkpt>
      <trkpt lat="59.9840091" lon="17.7380454">
        <ele>35.7061</ele>
        <time>2013-04-27T10:31:44Z</time>
      </trkpt>
      <trkpt lat="59.9840569" lon="17.738047">
        <ele>36.1868</ele>
        <time>2013-04-27T10:31:45Z</time>
      </trkpt>
      <trkpt lat="59.9840956" lon="17.7380567">
        <ele>35.2255</ele>
        <time>2013-04-27T10:31:46Z</time>
      </trkpt>
      <trkpt lat="59.9841406" lon="17.7380659">
        <ele>35.7061</ele>
        <time>2013-04-27T10:31:47Z</time>
      </trkpt>
      <trkpt lat="59.9841851" lon="17.738079">
        <ele>35.2255</ele>
        <time>2013-04-27T10:31:48Z</time>
      </trkpt>
      <trkpt lat="59.9842297" lon="17.7380971">
        <ele>35.2255</ele>
        <time>2013-04-27T10:31:49Z</time>
      </trkpt>
      <trkpt lat="59.9842731" lon="17.7381161">
        <ele>34.2642</ele>
        <time>2013-04-27T10:31:50Z</time>
      </trkpt>
      <trkpt lat="59.984327" lon="17.7381251">
        <ele>34.7449</ele>
        <time>2013-04-27T10:31:51Z</time>
      </trkpt>
      <trkpt lat="59.9843784" lon="17.7381366">
        <ele>34.7449</ele>
        <time>2013-04-27T10:31:52Z</time>
      </trkpt>
      <trkpt lat="59.9844354" lon="17.7381443">
        <ele>35.7061</ele>
        <time>2013-04-27T10:31:53Z</time>
      </trkpt>
      <trkpt lat="59.9845005" lon="17.7381509">
        <ele>36.6675</ele>
        <time>2013-04-27T10:31:54Z</time>
      </trkpt>
      <trkpt lat="59.9845574" lon="17.7381528">
        <ele>35.2255</ele>
        <time>2013-04-27T10:31:55Z</time>
      </trkpt>
      <trkpt lat="59.9846079" lon="17.7381625">
        <ele>33.7834</ele>
        <time>2013-04-27T10:31:56Z</time>
      </trkpt>
      <trkpt lat="59.9846542" lon="17.73818">
        <ele>31.3801</ele>
        <time>2013-04-27T10:31:57Z</time>
      </trkpt>
      <trkpt lat="59.9846947" lon="17.7382053">
        <ele>28.4962</ele>
        <time>2013-04-27T10:31:58Z</time>
      </trkpt>
      <trkpt lat="59.9847356" lon="17.7382209">
        <ele>27.5349</ele>
        <time>2013-04-27T10:31:59Z</time>
      </trkpt>
      <trkpt lat="59.9847736" lon="17.7382296">
        <ele>26.0929</ele>
        <time>2013-04-27T10:32:00Z</time>
      </trkpt>
      <trkpt lat="59.9848122" lon="17.738249">
        <ele>25.1317</ele>
        <time>2013-04-27T10:32:01Z</time>
      </trkpt>
      <trkpt lat="59.9848733" lon="17.7382623">
        <ele>26.5736</ele>
        <time>2013-04-27T10:32:02Z</time>
      </trkpt>
      <trkpt lat="59.9849367" lon="17.7382684">
        <ele>28.4962</ele>
        <time>2013-04-27T10:32:03Z</time>
      </trkpt>
      <trkpt lat="59.9849914" lon="17.7382682">
        <ele>29.4575</ele>
        <time>2013-04-27T10:32:04Z</time>
      </trkpt>
      <trkpt lat="59.9850409" lon="17.7382758">
        <ele>29.9381</ele>
        <time>2013-04-27T10:32:05Z</time>
      </trkpt>
      <trkpt lat="59.9850911" lon="17.7382918">
        <ele>29.9381</ele>
        <time>2013-04-27T10:32:06Z</time>
      </trkpt>
      <trkpt lat="59.9851437" lon="17.7383103">
        <ele>30.4188</ele>
        <time>2013-04-27T10:32:07Z</time>
      </trkpt>
      <trkpt lat="59.9851978" lon="17.7383267">
        <ele>30.4188</ele>
        <time>2013-04-27T10:32:08Z</time>
      </trkpt>
      <trkpt lat="59.9852548" lon="17.7383401">
        <ele>30.8995</ele>
        <time>2013-04-27T10:32:09Z</time>
      </trkpt>
      <trkpt lat="59.9853162" lon="17.7383561">
        <ele>31.3801</ele>
        <time>2013-04-27T10:32:10Z</time>
      </trkpt>
      <trkpt lat="59.9853744" lon="17.7383748">
        <ele>31.8607</ele>
        <time>2013-04-27T10:32:11Z</time>
      </trkpt>
      <trkpt lat="59.985433" lon="17.7383966">
        <ele>32.8223</ele>
        <time>2013-04-27T10:32:12Z</time>
      </trkpt>
      <trkpt lat="59.9854903" lon="17.7384121">
        <ele>33.7834</ele>
        <time>2013-04-27T10:32:13Z</time>
      </trkpt>
      <trkpt lat="59.9855452" lon="17.7384313">
        <ele>34.7449</ele>
        <time>2013-04-27T10:32:14Z</time>
      </trkpt>
      <trkpt lat="59.9856029" lon="17.7384535">
        <ele>35.2255</ele>
        <time>2013-04-27T10:32:15Z</time>
      </trkpt>
      <trkpt lat="59.9856622" lon="17.7384694">
        <ele>36.6675</ele>
        <time>2013-04-27T10:32:16Z</time>
      </trkpt>
      <trkpt lat="59.9857192" lon="17.738488">
        <ele>37.6287</ele>
        <time>2013-04-27T10:32:17Z</time>
      </trkpt>
      <trkpt lat="59.9857738" lon="17.7385105">
        <ele>38.1094</ele>
        <time>2013-04-27T10:32:18Z</time>
      </trkpt>
      <trkpt lat="59.9858339" lon="17.7385327">
        <ele>39.5513</ele>
        <time>2013-04-27T10:32:19Z</time>
      </trkpt>
      <trkpt lat="59.9858888" lon="17.7385562">
        <ele>40.0321</ele>
        <time>2013-04-27T10:32:20Z</time>
      </trkpt>
      <trkpt lat="59.985936" lon="17.7385888">
        <ele>40.0321</ele>
        <time>2013-04-27T10:32:21Z</time>
      </trkpt>
      <trkpt lat="59.9859805" lon="17.7386196">
        <ele>39.5513</ele>
        <time>2013-04-27T10:32:22Z</time>
      </trkpt>
      <trkpt lat="59.98603" lon="17.7386472">
        <ele>39.5513</ele>
        <time>2013-04-27T10:32:23Z</time>
      </trkpt>
      <trkpt lat="59.9860805" lon="17.7386747">
        <ele>40.5128</ele>
        <time>2013-04-27T10:32:24Z</time>
      </trkpt>
      <trkpt lat="59.9861313" lon="17.7387058">
        <ele>41.474</ele>
        <time>2013-04-27T10:32:25Z</time>
      </trkpt>
      <trkpt lat="59.9861876" lon="17.7387382">
        <ele>42.4354</ele>
        <time>2013-04-27T10:32:26Z</time>
      </trkpt>
      <trkpt lat="59.9862296" lon="17.7387705">
        <ele>42.916</ele>
        <time>2013-04-27T10:32:27Z</time>
      </trkpt>
      <trkpt lat="59.9862835" lon="17.738802">
        <ele>44.358</ele>
        <time>2013-04-27T10:32:28Z</time>
      </trkpt>
      <trkpt lat="59.9863303" lon="17.7388376">
        <ele>44.358</ele>
        <time>2013-04-27T10:32:29Z</time>
      </trkpt>
      <trkpt lat="59.9863825" lon="17.7388668">
        <ele>45.7999</ele>
        <time>2013-04-27T10:32:30Z</time>
      </trkpt>
      <trkpt lat="59.986427" lon="17.7388993">
        <ele>45.7999</ele>
        <time>2013-04-27T10:32:31Z</time>
      </trkpt>
      <trkpt lat="59.9864772" lon="17.7389325">
        <ele>47.2418</ele>
        <time>2013-04-27T10:32:32Z</time>
      </trkpt>
      <trkpt lat="59.9865213" lon="17.738962">
        <ele>47.7225</ele>
        <time>2013-04-27T10:32:33Z</time>
      </trkpt>
      <trkpt lat="59.9865682" lon="17.7389947">
        <ele>48.684</ele>
        <time>2013-04-27T10:32:34Z</time>
      </trkpt>
      <trkpt lat="59.9866095" lon="17.7390291">
        <ele>48.2034</ele>
        <time>2013-04-27T10:32:35Z</time>
      </trkpt>
      <trkpt lat="59.9866456" lon="17.7390612">
        <ele>48.684</ele>
        <time>2013-04-27T10:32:36Z</time>
      </trkpt>
      <trkpt lat="59.9866761" lon="17.7390953">
        <ele>48.2034</ele>
        <time>2013-04-27T10:32:37Z</time>
      </trkpt>
      <trkpt lat="59.9867109" lon="17.7391343">
        <ele>48.2034</ele>
        <time>2013-04-27T10:32:38Z</time>
      </trkpt>
      <trkpt lat="59.9867466" lon="17.7391723">
        <ele>48.684</ele>
        <time>2013-04-27T10:32:39Z</time>
      </trkpt>
      <trkpt lat="59.9867782" lon="17.7392176">
        <ele>48.2034</ele>
        <time>2013-04-27T10:32:40Z</time>
      </trkpt>
      <trkpt lat="59.9868088" lon="17.7392581">
        <ele>47.2418</ele>
        <time>2013-04-27T10:32:41Z</time>
      </trkpt>
      <trkpt lat="59.9868428" lon="17.7392956">
        <ele>47.2418</ele>
        <time>2013-04-27T10:32:42Z</time>
      </trkpt>
      <trkpt lat="59.9868808" lon="17.7393318">
        <ele>47.7225</ele>
        <time>2013-04-27T10:32:43Z</time>
      </trkpt>
      <trkpt lat="59.9869485" lon="17.7393667">
        <ele>50.6066</ele>
        <time>2013-04-27T10:32:44Z</time>
      </trkpt>
      <trkpt lat="59.986989" lon="17.7393932">
        <ele>49.1646</ele>
        <time>2013-04-27T10:32:45Z</time>
      </trkpt>
      <trkpt lat="59.987043" lon="17.7394123">
        <ele>49.6453</ele>
        <time>2013-04-27T10:32:46Z</time>
      </trkpt>
      <trkpt lat="59.9870958" lon="17.7394236">
        <ele>50.126</ele>
        <time>2013-04-27T10:32:47Z</time>
      </trkpt>
      <trkpt lat="59.9871491" lon="17.7394268">
        <ele>50.6066</ele>
        <time>2013-04-27T10:32:48Z</time>
      </trkpt>
      <trkpt lat="59.9872005" lon="17.7394283">
        <ele>51.0872</ele>
        <time>2013-04-27T10:32:49Z</time>
      </trkpt>
      <trkpt lat="59.9872517" lon="17.7394294">
        <ele>50.6066</ele>
        <time>2013-04-27T10:32:50Z</time>
      </trkpt>
      <trkpt lat="59.9872988" lon="17.7394299">
        <ele>50.6066</ele>
        <time>2013-04-27T10:32:51Z</time>
      </trkpt>
      <trkpt lat="59.9873447" lon="17.7394315">
        <ele>50.126</ele>
        <time>2013-04-27T10:32:52Z</time>
      </trkpt>
      <trkpt lat="59.987389" lon="17.7394377">
        <ele>49.1646</ele>
        <time>2013-04-27T10:32:53Z</time>
      </trkpt>
      <trkpt lat="59.9874287" lon="17.7394404">
        <ele>47.7225</ele>
        <time>2013-04-27T10:32:54Z</time>
      </trkpt>
      <trkpt lat="59.9874732" lon="17.7394458">
        <ele>46.7612</ele>
        <time>2013-04-27T10:32:55Z</time>
      </trkpt>
      <trkpt lat="59.9875183" lon="17.7394487">
        <ele>45.3192</ele>
        <time>2013-04-27T10:32:56Z</time>
      </trkpt>
      <trkpt lat="59.9875599" lon="17.7394525">
        <ele>44.358</ele>
        <time>2013-04-27T10:32:57Z</time>
      </trkpt>
      <trkpt lat="59.9875998" lon="17.7394552">
        <ele>43.8773</ele>
        <time>2013-04-27T10:32:58Z</time>
      </trkpt>
      <trkpt lat="59.987636" lon="17.7394556">
        <ele>42.4354</ele>
        <time>2013-04-27T10:32:59Z</time>
      </trkpt>
      <trkpt lat="59.9876774" lon="17.7394532">
        <ele>41.474</ele>
        <time>2013-04-27T10:33:00Z</time>
      </trkpt>
      <trkpt lat="59.9877245" lon="17.7394482">
        <ele>40.0321</ele>
        <time>2013-04-27T10:33:01Z</time>
      </trkpt>
      <trkpt lat="59.9877703" lon="17.7394387">
        <ele>38.5901</ele>
        <time>2013-04-27T10:33:02Z</time>
      </trkpt>
      <trkpt lat="59.9878231" lon="17.7394284">
        <ele>37.1481</ele>
        <time>2013-04-27T10:33:03Z</time>
      </trkpt>
      <trkpt lat="59.987869" lon="17.7394206">
        <ele>36.1868</ele>
        <time>2013-04-27T10:33:04Z</time>
      </trkpt>
      <trkpt lat="59.9879204" lon="17.739417">
        <ele>34.2642</ele>
        <time>2013-04-27T10:33:05Z</time>
      </trkpt>
      <trkpt lat="59.9879803" lon="17.7394023">
        <ele>33.7834</ele>
        <time>2013-04-27T10:33:06Z</time>
      </trkpt>
      <trkpt lat="59.9880366" lon="17.7393906">
        <ele>33.7834</ele>
        <time>2013-04-27T10:33:07Z</time>
      </trkpt>
      <trkpt lat="59.9880915" lon="17.7393717">
        <ele>33.3029</ele>
        <time>2013-04-27T10:33:08Z</time>
      </trkpt>
      <trkpt lat="59.9881438" lon="17.7393471">
        <ele>33.7834</ele>
        <time>2013-04-27T10:33:09Z</time>
      </trkpt>
      <trkpt lat="59.9881914" lon="17.7393223">
        <ele>32.8223</ele>
        <time>2013-04-27T10:33:10Z</time>
      </trkpt>
      <trkpt lat="59.9882435" lon="17.7393005">
        <ele>33.3029</ele>
        <time>2013-04-27T10:33:11Z</time>
      </trkpt>
      <trkpt lat="59.9882922" lon="17.7392803">
        <ele>32.8223</ele>
        <time>2013-04-27T10:33:12Z</time>
      </trkpt>
      <trkpt lat="59.9883442" lon="17.7392616">
        <ele>33.3029</ele>
        <time>2013-04-27T10:33:13Z</time>
      </trkpt>
      <trkpt lat="59.9883939" lon="17.7392348">
        <ele>33.3029</ele>
        <time>2013-04-27T10:33:14Z</time>
      </trkpt>
      <trkpt lat="59.9884426" lon="17.7392066">
        <ele>33.7834</ele>
        <time>2013-04-27T10:33:15Z</time>
      </trkpt>
      <trkpt lat="59.9884917" lon="17.739172">
        <ele>34.2642</ele>
        <time>2013-04-27T10:33:16Z</time>
      </trkpt>
      <trkpt lat="59.9885421" lon="17.739145">
        <ele>34.2642</ele>
        <time>2013-04-27T10:33:17Z</time>
      </trkpt>
      <trkpt lat="59.9885917" lon="17.7391153">
        <ele>35.2255</ele>
        <time>2013-04-27T10:33:18Z</time>
      </trkpt>
      <trkpt lat="59.9886351" lon="17.7390908">
        <ele>35.2255</ele>
        <time>2013-04-27T10:33:19Z</time>
      </trkpt>
      <trkpt lat="59.9886784" lon="17.7390702">
        <ele>34.2642</ele>
        <time>2013-04-27T10:33:20Z</time>
      </trkpt>
      <trkpt lat="59.9887299" lon="17.7390392">
        <ele>34.2642</ele>
        <time>2013-04-27T10:33:21Z</time>
      </trkpt>
      <trkpt lat="59.9887744" lon="17.7389988">
        <ele>34.2642</ele>
        <time>2013-04-27T10:33:22Z</time>
      </trkpt>
      <trkpt lat="59.988821" lon="17.7389635">
        <ele>34.7449</ele>
        <time>2013-04-27T10:33:23Z</time>
      </trkpt>
      <trkpt lat="59.9888694" lon="17.7389187">
        <ele>35.2255</ele>
        <time>2013-04-27T10:33:24Z</time>
      </trkpt>
      <trkpt lat="59.9889167" lon="17.738886">
        <ele>36.1868</ele>
        <time>2013-04-27T10:33:25Z</time>
      </trkpt>
      <trkpt lat="59.9889653" lon="17.7388591">
        <ele>36.6675</ele>
        <time>2013-04-27T10:33:26Z</time>
      </trkpt>
      <trkpt lat="59.9890117" lon="17.7388348">
        <ele>37.1481</ele>
        <time>2013-04-27T10:33:27Z</time>
      </trkpt>
      <trkpt lat="59.9890636" lon="17.7387995">
        <ele>39.5513</ele>
        <time>2013-04-27T10:33:28Z</time>
      </trkpt>
      <trkpt lat="59.9891122" lon="17.7387626">
        <ele>40.9934</ele>
        <time>2013-04-27T10:33:29Z</time>
      </trkpt>
      <trkpt lat="59.9891627" lon="17.738728">
        <ele>41.9547</ele>
        <time>2013-04-27T10:33:30Z</time>
      </trkpt>
      <trkpt lat="59.9892144" lon="17.7387032">
        <ele>42.916</ele>
        <time>2013-04-27T10:33:31Z</time>
      </trkpt>
      <trkpt lat="59.9892672" lon="17.7386758">
        <ele>43.3966</ele>
        <time>2013-04-27T10:33:32Z</time>
      </trkpt>
      <trkpt lat="59.9893217" lon="17.7386462">
        <ele>43.8773</ele>
        <time>2013-04-27T10:33:33Z</time>
      </trkpt>
      <trkpt lat="59.9893764" lon="17.7386302">
        <ele>43.3966</ele>
        <time>2013-04-27T10:33:34Z</time>
      </trkpt>
      <trkpt lat="59.9894362" lon="17.7386132">
        <ele>44.358</ele>
        <time>2013-04-27T10:33:35Z</time>
      </trkpt>
      <trkpt lat="59.9894924" lon="17.7385963">
        <ele>44.8386</ele>
        <time>2013-04-27T10:33:36Z</time>
      </trkpt>
      <trkpt lat="59.9895585" lon="17.7385747">
        <ele>44.8386</ele>
        <time>2013-04-27T10:33:37Z</time>
      </trkpt>
      <trkpt lat="59.9896273" lon="17.7385555">
        <ele>43.8773</ele>
        <time>2013-04-27T10:33:38Z</time>
      </trkpt>
      <trkpt lat="59.9896967" lon="17.7385365">
        <ele>43.3966</ele>
        <time>2013-04-27T10:33:39Z</time>
      </trkpt>
      <trkpt lat="59.989766" lon="17.7385145">
        <ele>43.8773</ele>
        <time>2013-04-27T10:33:40Z</time>
      </trkpt>
      <trkpt lat="59.9898325" lon="17.7384901">
        <ele>44.358</ele>
        <time>2013-04-27T10:33:41Z</time>
      </trkpt>
      <trkpt lat="59.9898981" lon="17.7384624">
        <ele>44.8386</ele>
        <time>2013-04-27T10:33:42Z</time>
      </trkpt>
      <trkpt lat="59.9899629" lon="17.7384338">
        <ele>44.8386</ele>
        <time>2013-04-27T10:33:43Z</time>
      </trkpt>
      <trkpt lat="59.9900263" lon="17.7384053">
        <ele>44.358</ele>
        <time>2013-04-27T10:33:44Z</time>
      </trkpt>
      <trkpt lat="59.9900872" lon="17.738382">
        <ele>44.8386</ele>
        <time>2013-04-27T10:33:45Z</time>
      </trkpt>
      <trkpt lat="59.9901494" lon="17.738353">
        <ele>45.7999</ele>
        <time>2013-04-27T10:33:46Z</time>
      </trkpt>
      <trkpt lat="59.9902119" lon="17.7383209">
        <ele>46.7612</ele>
        <time>2013-04-27T10:33:47Z</time>
      </trkpt>
      <trkpt lat="59.9902741" lon="17.7382799">
        <ele>47.7225</ele>
        <time>2013-04-27T10:33:48Z</time>
      </trkpt>
      <trkpt lat="59.9903349" lon="17.7382514">
        <ele>48.684</ele>
        <time>2013-04-27T10:33:49Z</time>
      </trkpt>
      <trkpt lat="59.9903938" lon="17.7382378">
        <ele>47.2418</ele>
        <time>2013-04-27T10:33:50Z</time>
      </trkpt>
      <trkpt lat="59.9904489" lon="17.7382109">
        <ele>45.3192</ele>
        <time>2013-04-27T10:33:51Z</time>
      </trkpt>
      <trkpt lat="59.9905027" lon="17.7381872">
        <ele>43.3966</ele>
        <time>2013-04-27T10:33:52Z</time>
      </trkpt>
      <trkpt lat="59.9905543" lon="17.738168">
        <ele>40.9934</ele>
        <time>2013-04-27T10:33:53Z</time>
      </trkpt>
      <trkpt lat="59.9906087" lon="17.7381451">
        <ele>40.0321</ele>
        <time>2013-04-27T10:33:54Z</time>
      </trkpt>
      <trkpt lat="59.9906707" lon="17.7381116">
        <ele>40.9934</ele>
        <time>2013-04-27T10:33:55Z</time>
      </trkpt>
      <trkpt lat="59.9907255" lon="17.7380824">
        <ele>40.0321</ele>
        <time>2013-04-27T10:33:56Z</time>
      </trkpt>
      <trkpt lat="59.990785" lon="17.7380314">
        <ele>41.474</ele>
        <time>2013-04-27T10:33:57Z</time>
      </trkpt>
      <trkpt lat="59.9908456" lon="17.7379908">
        <ele>42.4354</ele>
        <time>2013-04-27T10:33:58Z</time>
      </trkpt>
      <trkpt lat="59.9908965" lon="17.7379644">
        <ele>41.474</ele>
        <time>2013-04-27T10:33:59Z</time>
      </trkpt>
      <trkpt lat="59.9909513" lon="17.7379281">
        <ele>41.474</ele>
        <time>2013-04-27T10:34:00Z</time>
      </trkpt>
      <trkpt lat="59.9910092" lon="17.7378897">
        <ele>41.474</ele>
        <time>2013-04-27T10:34:01Z</time>
      </trkpt>
      <trkpt lat="59.9910674" lon="17.7378578">
        <ele>41.9547</ele>
        <time>2013-04-27T10:34:02Z</time>
      </trkpt>
      <trkpt lat="59.9911224" lon="17.737831">
        <ele>41.9547</ele>
        <time>2013-04-27T10:34:03Z</time>
      </trkpt>
      <trkpt lat="59.9911778" lon="17.7377975">
        <ele>44.358</ele>
        <time>2013-04-27T10:34:04Z</time>
      </trkpt>
      <trkpt lat="59.9912303" lon="17.7377822">
        <ele>44.358</ele>
        <time>2013-04-27T10:34:05Z</time>
      </trkpt>
      <trkpt lat="59.991283" lon="17.7377744">
        <ele>43.3966</ele>
        <time>2013-04-27T10:34:06Z</time>
      </trkpt>
      <trkpt lat="59.9913375" lon="17.7377604">
        <ele>43.3966</ele>
        <time>2013-04-27T10:34:07Z</time>
      </trkpt>
      <trkpt lat="59.9913932" lon="17.7377469">
        <ele>44.358</ele>
        <time>2013-04-27T10:34:08Z</time>
      </trkpt>
      <trkpt lat="59.9914456" lon="17.737745">
        <ele>44.358</ele>
        <time>2013-04-27T10:34:09Z</time>
      </trkpt>
      <trkpt lat="59.9914937" lon="17.7377516">
        <ele>44.358</ele>
        <time>2013-04-27T10:34:10Z</time>
      </trkpt>
      <trkpt lat="59.9915458" lon="17.7377603">
        <ele>44.8386</ele>
        <time>2013-04-27T10:34:11Z</time>
      </trkpt>
      <trkpt lat="59.9915926" lon="17.7377697">
        <ele>43.8773</ele>
        <time>2013-04-27T10:34:12Z</time>
      </trkpt>
      <trkpt lat="59.9916401" lon="17.7377617">
        <ele>43.8773</ele>
        <time>2013-04-27T10:34:13Z</time>
      </trkpt>
      <trkpt lat="59.991693" lon="17.7377511">
        <ele>44.358</ele>
        <time>2013-04-27T10:34:14Z</time>
      </trkpt>
      <trkpt lat="59.9917562" lon="17.737734">
        <ele>43.8773</ele>
        <time>2013-04-27T10:34:15Z</time>
      </trkpt>
      <trkpt lat="59.9918169" lon="17.7377246">
        <ele>43.3966</ele>
        <time>2013-04-27T10:34:16Z</time>
      </trkpt>
      <trkpt lat="59.9918755" lon="17.7377174">
        <ele>43.3966</ele>
        <time>2013-04-27T10:34:17Z</time>
      </trkpt>
      <trkpt lat="59.9919341" lon="17.7377019">
        <ele>42.916</ele>
        <time>2013-04-27T10:34:18Z</time>
      </trkpt>
      <trkpt lat="59.991995" lon="17.7376778">
        <ele>42.916</ele>
        <time>2013-04-27T10:34:19Z</time>
      </trkpt>
      <trkpt lat="59.9920505" lon="17.7376573">
        <ele>41.9547</ele>
        <time>2013-04-27T10:34:20Z</time>
      </trkpt>
      <trkpt lat="59.9921054" lon="17.7376345">
        <ele>41.9547</ele>
        <time>2013-04-27T10:34:21Z</time>
      </trkpt>
      <trkpt lat="59.9921583" lon="17.7376117">
        <ele>40.5128</ele>
        <time>2013-04-27T10:34:22Z</time>
      </trkpt>
      <trkpt lat="59.9922116" lon="17.7375747">
        <ele>39.0707</ele>
        <time>2013-04-27T10:34:23Z</time>
      </trkpt>
      <trkpt lat="59.9922681" lon="17.7375272">
        <ele>39.0707</ele>
        <time>2013-04-27T10:34:24Z</time>
      </trkpt>
      <trkpt lat="59.9923213" lon="17.7374763">
        <ele>38.1094</ele>
        <time>2013-04-27T10:34:25Z</time>
      </trkpt>
      <trkpt lat="59.9923775" lon="17.7374209">
        <ele>37.6287</ele>
        <time>2013-04-27T10:34:26Z</time>
      </trkpt>
      <trkpt lat="59.9924312" lon="17.7373703">
        <ele>37.6287</ele>
        <time>2013-04-27T10:34:27Z</time>
      </trkpt>
      <trkpt lat="59.9924789" lon="17.7373222">
        <ele>37.1481</ele>
        <time>2013-04-27T10:34:28Z</time>
      </trkpt>
      <trkpt lat="59.9925312" lon="17.7372673">
        <ele>36.1868</ele>
        <time>2013-04-27T10:34:29Z</time>
      </trkpt>
      <trkpt lat="59.9925836" lon="17.7371997">
        <ele>35.7061</ele>
        <time>2013-04-27T10:34:30Z</time>
      </trkpt>
      <trkpt lat="59.9926338" lon="17.7371419">
        <ele>34.2642</ele>
        <time>2013-04-27T10:34:31Z</time>
      </trkpt>
      <trkpt lat="59.9926862" lon="17.7370714">
        <ele>33.7834</ele>
        <time>2013-04-27T10:34:32Z</time>
      </trkpt>
      <trkpt lat="59.9927384" lon="17.7369928">
        <ele>34.7449</ele>
        <time>2013-04-27T10:34:33Z</time>
      </trkpt>
      <trkpt lat="59.9927895" lon="17.7369021">
        <ele>33.7834</ele>
        <time>2013-04-27T10:34:34Z</time>
      </trkpt>
      <trkpt lat="59.9928463" lon="17.7368047">
        <ele>33.3029</ele>
        <time>2013-04-27T10:34:35Z</time>
      </trkpt>
      <trkpt lat="59.9928997" lon="17.7367">
        <ele>32.3416</ele>
        <time>2013-04-27T10:34:36Z</time>
      </trkpt>
      <trkpt lat="59.9929525" lon="17.7365836">
        <ele>32.8223</ele>
        <time>2013-04-27T10:34:37Z</time>
      </trkpt>
      <trkpt lat="59.9930032" lon="17.7364617">
        <ele>33.3029</ele>
        <time>2013-04-27T10:34:38Z</time>
      </trkpt>
      <trkpt lat="59.9930503" lon="17.7363467">
        <ele>32.3416</ele>
        <time>2013-04-27T10:34:39Z</time>
      </trkpt>
      <trkpt lat="59.9931005" lon="17.7362308">
        <ele>31.8607</ele>
        <time>2013-04-27T10:34:40Z</time>
      </trkpt>
      <trkpt lat="59.9931516" lon="17.7361062">
        <ele>32.3416</ele>
        <time>2013-04-27T10:34:41Z</time>
      </trkpt>
      <trkpt lat="59.9932032" lon="17.7359889">
        <ele>33.3029</ele>
        <time>2013-04-27T10:34:42Z</time>
      </trkpt>
      <trkpt lat="59.9932555" lon="17.7358865">
        <ele>32.8223</ele>
        <time>2013-04-27T10:34:43Z</time>
      </trkpt>
      <trkpt lat="59.9933067" lon="17.7357952">
        <ele>31.8607</ele>
        <time>2013-04-27T10:34:44Z</time>
      </trkpt>
      <trkpt lat="59.9933624" lon="17.7357263">
        <ele>31.8607</ele>
        <time>2013-04-27T10:34:45Z</time>
      </trkpt>
      <trkpt lat="59.9934215" lon="17.7356753">
        <ele>31.3801</ele>
        <time>2013-04-27T10:34:46Z</time>
      </trkpt>
      <trkpt lat="59.993489" lon="17.7356381">
        <ele>31.8607</ele>
        <time>2013-04-27T10:34:47Z</time>
      </trkpt>
      <trkpt lat="59.9935617" lon="17.7356268">
        <ele>31.8607</ele>
        <time>2013-04-27T10:34:48Z</time>
      </trkpt>
      <trkpt lat="59.993632" lon="17.7356292">
        <ele>31.3801</ele>
        <time>2013-04-27T10:34:49Z</time>
      </trkpt>
      <trkpt lat="59.9937056" lon="17.7356281">
        <ele>31.8607</ele>
        <time>2013-04-27T10:34:50Z</time>
      </trkpt>
      <trkpt lat="59.9937693" lon="17.735627">
        <ele>32.8223</ele>
        <time>2013-04-27T10:34:51Z</time>
      </trkpt>
      <trkpt lat="59.9938278" lon="17.735633">
        <ele>33.3029</ele>
        <time>2013-04-27T10:34:52Z</time>
      </trkpt>
      <trkpt lat="59.9938776" lon="17.7356459">
        <ele>33.3029</ele>
        <time>2013-04-27T10:34:53Z</time>
      </trkpt>
      <trkpt lat="59.9939273" lon="17.7356569">
        <ele>33.3029</ele>
        <time>2013-04-27T10:34:54Z</time>
      </trkpt>
      <trkpt lat="59.9939836" lon="17.7356623">
        <ele>33.7834</ele>
        <time>2013-04-27T10:34:55Z</time>
      </trkpt>
      <trkpt lat="59.9940449" lon="17.7356702">
        <ele>35.2255</ele>
        <time>2013-04-27T10:34:56Z</time>
      </trkpt>
      <trkpt lat="59.994105" lon="17.7356836">
        <ele>33.7834</ele>
        <time>2013-04-27T10:34:57Z</time>
      </trkpt>
      <trkpt lat="59.9941645" lon="17.7357058">
        <ele>34.2642</ele>
        <time>2013-04-27T10:34:58Z</time>
      </trkpt>
      <trkpt lat="59.9942244" lon="17.7357225">
        <ele>33.7834</ele>
        <time>2013-04-27T10:34:59Z</time>
      </trkpt>
      <trkpt lat="59.9942872" lon="17.735738">
        <ele>34.7449</ele>
        <time>2013-04-27T10:35:00Z</time>
      </trkpt>
      <trkpt lat="59.9943505" lon="17.7357587">
        <ele>36.1868</ele>
        <time>2013-04-27T10:35:01Z</time>
      </trkpt>
      <trkpt lat="59.9944114" lon="17.7357847">
        <ele>38.1094</ele>
        <time>2013-04-27T10:35:02Z</time>
      </trkpt>
      <trkpt lat="59.9944801" lon="17.7358167">
        <ele>39.0707</ele>
        <time>2013-04-27T10:35:03Z</time>
      </trkpt>
      <trkpt lat="59.994538" lon="17.7358505">
        <ele>38.5901</ele>
        <time>2013-04-27T10:35:04Z</time>
      </trkpt>
      <trkpt lat="59.9945951" lon="17.735892">
        <ele>39.5513</ele>
        <time>2013-04-27T10:35:05Z</time>
      </trkpt>
      <trkpt lat="59.9946515" lon="17.7359329">
        <ele>40.0321</ele>
        <time>2013-04-27T10:35:06Z</time>
      </trkpt>
      <trkpt lat="59.9947141" lon="17.7359738">
        <ele>40.5128</ele>
        <time>2013-04-27T10:35:07Z</time>
      </trkpt>
      <trkpt lat="59.9947694" lon="17.7360126">
        <ele>39.0707</ele>
        <time>2013-04-27T10:35:08Z</time>
      </trkpt>
      <trkpt lat="59.9948212" lon="17.7360484">
        <ele>38.1094</ele>
        <time>2013-04-27T10:35:09Z</time>
      </trkpt>
      <trkpt lat="59.9948714" lon="17.7360882">
        <ele>37.1481</ele>
        <time>2013-04-27T10:35:10Z</time>
      </trkpt>
      <trkpt lat="59.9949233" lon="17.7361188">
        <ele>36.6675</ele>
        <time>2013-04-27T10:35:11Z</time>
      </trkpt>
      <trkpt lat="59.9949706" lon="17.7361451">
        <ele>36.1868</ele>
        <time>2013-04-27T10:35:12Z</time>
      </trkpt>
      <trkpt lat="59.9950182" lon="17.7361602">
        <ele>35.7061</ele>
        <time>2013-04-27T10:35:13Z</time>
      </trkpt>
      <trkpt lat="59.9950755" lon="17.7361717">
        <ele>36.1868</ele>
        <time>2013-04-27T10:35:14Z</time>
      </trkpt>
      <trkpt lat="59.9951366" lon="17.7361872">
        <ele>35.7061</ele>
        <time>2013-04-27T10:35:15Z</time>
      </trkpt>
      <trkpt lat="59.995203" lon="17.7362007">
        <ele>36.6675</ele>
        <time>2013-04-27T10:35:16Z</time>
      </trkpt>
      <trkpt lat="59.9952637" lon="17.7362147">
        <ele>37.1481</ele>
        <time>2013-04-27T10:35:17Z</time>
      </trkpt>
      <trkpt lat="59.995327" lon="17.7362208">
        <ele>37.6287</ele>
        <time>2013-04-27T10:35:18Z</time>
      </trkpt>
      <trkpt lat="59.9953932" lon="17.7362177">
        <ele>38.5901</ele>
        <time>2013-04-27T10:35:19Z</time>
      </trkpt>
      <trkpt lat="59.9954559" lon="17.7362141">
        <ele>39.0707</ele>
        <time>2013-04-27T10:35:20Z</time>
      </trkpt>
      <trkpt lat="59.9955118" lon="17.7362142">
        <ele>39.5513</ele>
        <time>2013-04-27T10:35:21Z</time>
      </trkpt>
      <trkpt lat="59.9955637" lon="17.7362117">
        <ele>40.5128</ele>
        <time>2013-04-27T10:35:22Z</time>
      </trkpt>
      <trkpt lat="59.9956097" lon="17.7362134">
        <ele>40.5128</ele>
        <time>2013-04-27T10:35:23Z</time>
      </trkpt>
      <trkpt lat="59.9956547" lon="17.7362108">
        <ele>40.9934</ele>
        <time>2013-04-27T10:35:24Z</time>
      </trkpt>
      <trkpt lat="59.9956961" lon="17.736206">
        <ele>41.474</ele>
        <time>2013-04-27T10:35:25Z</time>
      </trkpt>
      <trkpt lat="59.9957415" lon="17.7361975">
        <ele>41.9547</ele>
        <time>2013-04-27T10:35:26Z</time>
      </trkpt>
      <trkpt lat="59.9957862" lon="17.7361852">
        <ele>41.9547</ele>
        <time>2013-04-27T10:35:27Z</time>
      </trkpt>
      <trkpt lat="59.9958306" lon="17.7361829">
        <ele>41.474</ele>
        <time>2013-04-27T10:35:28Z</time>
      </trkpt>
      <trkpt lat="59.9958775" lon="17.7361832">
        <ele>41.9547</ele>
        <time>2013-04-27T10:35:29Z</time>
      </trkpt>
      <trkpt lat="59.9959273" lon="17.7361863">
        <ele>41.9547</ele>
        <time>2013-04-27T10:35:30Z</time>
      </trkpt>
      <trkpt lat="59.9959834" lon="17.736184">
        <ele>42.4354</ele>
        <time>2013-04-27T10:35:31Z</time>
      </trkpt>
      <trkpt lat="59.9960385" lon="17.7361811">
        <ele>42.916</ele>
        <time>2013-04-27T10:35:32Z</time>
      </trkpt>
      <trkpt lat="59.9960946" lon="17.7361904">
        <ele>43.3966</ele>
        <time>2013-04-27T10:35:33Z</time>
      </trkpt>
      <trkpt lat="59.9961505" lon="17.7362049">
        <ele>43.8773</ele>
        <time>2013-04-27T10:35:34Z</time>
      </trkpt>
      <trkpt lat="59.9962019" lon="17.7362261">
        <ele>43.8773</ele>
        <time>2013-04-27T10:35:35Z</time>
      </trkpt>
      <trkpt lat="59.9962511" lon="17.7362468">
        <ele>43.8773</ele>
        <time>2013-04-27T10:35:36Z</time>
      </trkpt>
      <trkpt lat="59.9963055" lon="17.7362768">
        <ele>43.8773</ele>
        <time>2013-04-27T10:35:37Z</time>
      </trkpt>
      <trkpt lat="59.9963609" lon="17.736312">
        <ele>43.8773</ele>
        <time>2013-04-27T10:35:38Z</time>
      </trkpt>
      <trkpt lat="59.9964154" lon="17.736345">
        <ele>44.8386</ele>
        <time>2013-04-27T10:35:39Z</time>
      </trkpt>
      <trkpt lat="59.9964685" lon="17.7363763">
        <ele>44.8386</ele>
        <time>2013-04-27T10:35:40Z</time>
      </trkpt>
      <trkpt lat="59.9965213" lon="17.7364083">
        <ele>44.8386</ele>
        <time>2013-04-27T10:35:41Z</time>
      </trkpt>
      <trkpt lat="59.9965743" lon="17.7364419">
        <ele>44.8386</ele>
        <time>2013-04-27T10:35:42Z</time>
      </trkpt>
      <trkpt lat="59.9966277" lon="17.7364712">
        <ele>44.358</ele>
        <time>2013-04-27T10:35:43Z</time>
      </trkpt>
      <trkpt lat="59.9966817" lon="17.736499">
        <ele>44.8386</ele>
        <time>2013-04-27T10:35:44Z</time>
      </trkpt>
      <trkpt lat="59.9967338" lon="17.7365275">
        <ele>44.358</ele>
        <time>2013-04-27T10:35:45Z</time>
      </trkpt>
      <trkpt lat="59.9967856" lon="17.7365498">
        <ele>44.8386</ele>
        <time>2013-04-27T10:35:46Z</time>
      </trkpt>
      <trkpt lat="59.996837" lon="17.7365693">
        <ele>45.3192</ele>
        <time>2013-04-27T10:35:47Z</time>
      </trkpt>
      <trkpt lat="59.996888" lon="17.7365897">
        <ele>44.8386</ele>
        <time>2013-04-27T10:35:48Z</time>
      </trkpt>
      <trkpt lat="59.996938" lon="17.7366057">
        <ele>44.8386</ele>
        <time>2013-04-27T10:35:49Z</time>
      </trkpt>
      <trkpt lat="59.9969872" lon="17.7366146">
        <ele>44.8386</ele>
        <time>2013-04-27T10:35:50Z</time>
      </trkpt>
      <trkpt lat="59.9970364" lon="17.7366247">
        <ele>45.3192</ele>
        <time>2013-04-27T10:35:51Z</time>
      </trkpt>
      <trkpt lat="59.9970846" lon="17.736634">
        <ele>45.7999</ele>
        <time>2013-04-27T10:35:52Z</time>
      </trkpt>
      <trkpt lat="59.9971326" lon="17.7366425">
        <ele>45.7999</ele>
        <time>2013-04-27T10:35:53Z</time>
      </trkpt>
      <trkpt lat="59.9971804" lon="17.7366485">
        <ele>45.3192</ele>
        <time>2013-04-27T10:35:54Z</time>
      </trkpt>
      <trkpt lat="59.9972289" lon="17.7366575">
        <ele>44.8386</ele>
        <time>2013-04-27T10:35:55Z</time>
      </trkpt>
      <trkpt lat="59.9972788" lon="17.7366664">
        <ele>45.3192</ele>
        <time>2013-04-27T10:35:56Z</time>
      </trkpt>
      <trkpt lat="59.9973221" lon="17.7366744">
        <ele>44.358</ele>
        <time>2013-04-27T10:35:57Z</time>
      </trkpt>
      <trkpt lat="59.9973669" lon="17.7366778">
        <ele>43.8773</ele>
        <time>2013-04-27T10:35:58Z</time>
      </trkpt>
      <trkpt lat="59.9974109" lon="17.7366867">
        <ele>43.8773</ele>
        <time>2013-04-27T10:35:59Z</time>
      </trkpt>
      <trkpt lat="59.9974522" lon="17.7366984">
        <ele>43.8773</ele>
        <time>2013-04-27T10:36:00Z</time>
      </trkpt>
      <trkpt lat="59.9974903" lon="17.7367026">
        <ele>43.3966</ele>
        <time>2013-04-27T10:36:01Z</time>
      </trkpt>
      <trkpt lat="59.9975295" lon="17.7367061">
        <ele>42.4354</ele>
        <time>2013-04-27T10:36:02Z</time>
      </trkpt>
      <trkpt lat="59.997572" lon="17.7367114">
        <ele>42.4354</ele>
        <time>2013-04-27T10:36:03Z</time>
      </trkpt>
      <trkpt lat="59.9976154" lon="17.736718">
        <ele>42.916</ele>
        <time>2013-04-27T10:36:04Z</time>
      </trkpt>
      <trkpt lat="59.9976597" lon="17.7367284">
        <ele>42.916</ele>
        <time>2013-04-27T10:36:05Z</time>
      </trkpt>
      <trkpt lat="59.9977077" lon="17.7367397">
        <ele>42.4354</ele>
        <time>2013-04-27T10:36:06Z</time>
      </trkpt>
      <trkpt lat="59.9977565" lon="17.7367471">
        <ele>42.4354</ele>
        <time>2013-04-27T10:36:07Z</time>
      </trkpt>
      <trkpt lat="59.9978061" lon="17.7367503">
        <ele>42.4354</ele>
        <time>2013-04-27T10:36:08Z</time>
      </trkpt>
      <trkpt lat="59.9978612" lon="17.7367492">
        <ele>41.9547</ele>
        <time>2013-04-27T10:36:09Z</time>
      </trkpt>
      <trkpt lat="59.9979166" lon="17.7367493">
        <ele>41.9547</ele>
        <time>2013-04-27T10:36:10Z</time>
      </trkpt>
      <trkpt lat="59.9979724" lon="17.7367476">
        <ele>41.9547</ele>
        <time>2013-04-27T10:36:11Z</time>
      </trkpt>
      <trkpt lat="59.998028" lon="17.7367476">
        <ele>41.9547</ele>
        <time>2013-04-27T10:36:12Z</time>
      </trkpt>
      <trkpt lat="59.9980785" lon="17.7367516">
        <ele>41.9547</ele>
        <time>2013-04-27T10:36:13Z</time>
      </trkpt>
      <trkpt lat="59.9981302" lon="17.7367554">
        <ele>41.474</ele>
        <time>2013-04-27T10:36:14Z</time>
      </trkpt>
      <trkpt lat="59.9981843" lon="17.7367578">
        <ele>41.474</ele>
        <time>2013-04-27T10:36:15Z</time>
      </trkpt>
      <trkpt lat="59.9982413" lon="17.7367643">
        <ele>41.9547</ele>
        <time>2013-04-27T10:36:16Z</time>
      </trkpt>
      <trkpt lat="59.9982962" lon="17.736772">
        <ele>41.9547</ele>
        <time>2013-04-27T10:36:17Z</time>
      </trkpt>
      <trkpt lat="59.9983546" lon="17.7367824">
        <ele>40.5128</ele>
        <time>2013-04-27T10:36:18Z</time>
      </trkpt>
      <trkpt lat="59.9984215" lon="17.736745">
        <ele>39.0707</ele>
        <time>2013-04-27T10:36:19Z</time>
      </trkpt>
      <trkpt lat="59.9984933" lon="17.7367591">
        <ele>37.6287</ele>
        <time>2013-04-27T10:36:20Z</time>
      </trkpt>
      <trkpt lat="59.9985608" lon="17.7367674">
        <ele>36.1868</ele>
        <time>2013-04-27T10:36:21Z</time>
      </trkpt>
      <trkpt lat="59.9986478" lon="17.7367886">
        <ele>37.1481</ele>
        <time>2013-04-27T10:36:22Z</time>
      </trkpt>
      <trkpt lat="59.9987179" lon="17.7368097">
        <ele>36.1868</ele>
        <time>2013-04-27T10:36:23Z</time>
      </trkpt>
      <trkpt lat="59.9987904" lon="17.7368231">
        <ele>35.7061</ele>
        <time>2013-04-27T10:36:24Z</time>
      </trkpt>
      <trkpt lat="59.9988842" lon="17.7368352">
        <ele>36.6675</ele>
        <time>2013-04-27T10:36:25Z</time>
      </trkpt>
      <trkpt lat="59.9989701" lon="17.7368503">
        <ele>38.1094</ele>
        <time>2013-04-27T10:36:26Z</time>
      </trkpt>
      <trkpt lat="59.999057" lon="17.7368605">
        <ele>39.0707</ele>
        <time>2013-04-27T10:36:27Z</time>
      </trkpt>
      <trkpt lat="59.9991317" lon="17.7368679">
        <ele>39.0707</ele>
        <time>2013-04-27T10:36:28Z</time>
      </trkpt>
      <trkpt lat="59.9992013" lon="17.7368742">
        <ele>39.0707</ele>
        <time>2013-04-27T10:36:29Z</time>
      </trkpt>
      <trkpt lat="59.9992636" lon="17.7368844">
        <ele>39.5513</ele>
        <time>2013-04-27T10:36:30Z</time>
      </trkpt>
      <trkpt lat="59.9993244" lon="17.7368868">
        <ele>39.0707</ele>
        <time>2013-04-27T10:36:31Z</time>
      </trkpt>
      <trkpt lat="59.999383" lon="17.7368884">
        <ele>39.0707</ele>
        <time>2013-04-27T10:36:32Z</time>
      </trkpt>
      <trkpt lat="59.9994348" lon="17.7368949">
        <ele>39.0707</ele>
        <time>2013-04-27T10:36:33Z</time>
      </trkpt>
      <trkpt lat="59.999482" lon="17.7369052">
        <ele>39.0707</ele>
        <time>2013-04-27T10:36:34Z</time>
      </trkpt>
      <trkpt lat="59.9995285" lon="17.7369118">
        <ele>38.5901</ele>
        <time>2013-04-27T10:36:35Z</time>
      </trkpt>
      <trkpt lat="59.9995772" lon="17.7369171">
        <ele>37.1481</ele>
        <time>2013-04-27T10:36:36Z</time>
      </trkpt>
      <trkpt lat="59.9996221" lon="17.7369259">
        <ele>37.1481</ele>
        <time>2013-04-27T10:36:37Z</time>
      </trkpt>
      <trkpt lat="59.9996591" lon="17.7369321">
        <ele>37.1481</ele>
        <time>2013-04-27T10:36:38Z</time>
      </trkpt>
      <trkpt lat="59.9996975" lon="17.7369329">
        <ele>37.6287</ele>
        <time>2013-04-27T10:36:39Z</time>
      </trkpt>
      <trkpt lat="59.9997384" lon="17.7369372">
        <ele>38.5901</ele>
        <time>2013-04-27T10:36:40Z</time>
      </trkpt>
      <trkpt lat="59.9997853" lon="17.7369469">
        <ele>39.0707</ele>
        <time>2013-04-27T10:36:41Z</time>
      </trkpt>
      <trkpt lat="59.9998343" lon="17.7369581">
        <ele>38.1094</ele>
        <time>2013-04-27T10:36:42Z</time>
      </trkpt>
      <trkpt lat="59.9998878" lon="17.7369697">
        <ele>37.1481</ele>
        <time>2013-04-27T10:36:43Z</time>
      </trkpt>
      <trkpt lat="59.9999432" lon="17.7369704">
        <ele>35.7061</ele>
        <time>2013-04-27T10:36:44Z</time>
      </trkpt>
      <trkpt lat="60.000001" lon="17.7369683">
        <ele>33.7834</ele>
        <time>2013-04-27T10:36:45Z</time>
      </trkpt>
      <trkpt lat="60.0000657" lon="17.73696">
        <ele>32.8223</ele>
        <time>2013-04-27T10:36:46Z</time>
      </trkpt>
      <trkpt lat="60.0001371" lon="17.7369436">
        <ele>32.3416</ele>
        <time>2013-04-27T10:36:47Z</time>
      </trkpt>
      <trkpt lat="60.0002116" lon="17.7369216">
        <ele>31.8607</ele>
        <time>2013-04-27T10:36:48Z</time>
      </trkpt>
      <trkpt lat="60.0002883" lon="17.7368934">
        <ele>31.3801</ele>
        <time>2013-04-27T10:36:49Z</time>
      </trkpt>
      <trkpt lat="60.0003688" lon="17.7368542">
        <ele>31.3801</ele>
        <time>2013-04-27T10:36:50Z</time>
      </trkpt>
      <trkpt lat="60.0004475" lon="17.7368055">
        <ele>30.8995</ele>
        <time>2013-04-27T10:36:51Z</time>
      </trkpt>
      <trkpt lat="60.000524" lon="17.7367468">
        <ele>30.8995</ele>
        <time>2013-04-27T10:36:52Z</time>
      </trkpt>
      <trkpt lat="60.0005961" lon="17.736685">
        <ele>30.4188</ele>
        <time>2013-04-27T10:36:53Z</time>
      </trkpt>
      <trkpt lat="60.0006691" lon="17.7366223">
        <ele>30.4188</ele>
        <time>2013-04-27T10:36:54Z</time>
      </trkpt>
      <trkpt lat="60.0007391" lon="17.7365638">
        <ele>30.8995</ele>
        <time>2013-04-27T10:36:55Z</time>
      </trkpt>
      <trkpt lat="60.0008049" lon="17.7365103">
        <ele>30.8995</ele>
        <time>2013-04-27T10:36:56Z</time>
      </trkpt>
      <trkpt lat="60.0008691" lon="17.7364629">
        <ele>31.3801</ele>
        <time>2013-04-27T10:36:57Z</time>
      </trkpt>
      <trkpt lat="60.0009303" lon="17.7364198">
        <ele>31.3801</ele>
        <time>2013-04-27T10:36:58Z</time>
      </trkpt>
      <trkpt lat="60.000994" lon="17.7363864">
        <ele>31.8607</ele>
        <time>2013-04-27T10:36:59Z</time>
      </trkpt>
      <trkpt lat="60.0010549" lon="17.7363562">
        <ele>31.3801</ele>
        <time>2013-04-27T10:37:00Z</time>
      </trkpt>
      <trkpt lat="60.0011178" lon="17.7363255">
        <ele>31.3801</ele>
        <time>2013-04-27T10:37:01Z</time>
      </trkpt>
      <trkpt lat="60.0011763" lon="17.7362986">
        <ele>30.4188</ele>
        <time>2013-04-27T10:37:02Z</time>
      </trkpt>
      <trkpt lat="60.00123" lon="17.736267">
        <ele>29.9381</ele>
        <time>2013-04-27T10:37:03Z</time>
      </trkpt>
      <trkpt lat="60.0012802" lon="17.7362245">
        <ele>29.4575</ele>
        <time>2013-04-27T10:37:04Z</time>
      </trkpt>
      <trkpt lat="60.0013279" lon="17.7361767">
        <ele>29.4575</ele>
        <time>2013-04-27T10:37:05Z</time>
      </trkpt>
      <trkpt lat="60.0013704" lon="17.7361205">
        <ele>29.4575</ele>
        <time>2013-04-27T10:37:06Z</time>
      </trkpt>
      <trkpt lat="60.0014155" lon="17.7360608">
        <ele>29.4575</ele>
        <time>2013-04-27T10:37:07Z</time>
      </trkpt>
      <trkpt lat="60.0014639" lon="17.7360095">
        <ele>28.9769</ele>
        <time>2013-04-27T10:37:08Z</time>
      </trkpt>
      <trkpt lat="60.0015141" lon="17.7359681">
        <ele>29.9381</ele>
        <time>2013-04-27T10:37:09Z</time>
      </trkpt>
      <trkpt lat="60.0015659" lon="17.7359218">
        <ele>30.4188</ele>
        <time>2013-04-27T10:37:10Z</time>
      </trkpt>
      <trkpt lat="60.0016239" lon="17.735876">
        <ele>30.8995</ele>
        <time>2013-04-27T10:37:11Z</time>
      </trkpt>
      <trkpt lat="60.0016815" lon="17.7358153">
        <ele>30.8995</ele>
        <time>2013-04-27T10:37:12Z</time>
      </trkpt>
      <trkpt lat="60.0017424" lon="17.7357276">
        <ele>30.4188</ele>
        <time>2013-04-27T10:37:13Z</time>
      </trkpt>
      <trkpt lat="60.0018045" lon="17.7356303">
        <ele>29.4575</ele>
        <time>2013-04-27T10:37:14Z</time>
      </trkpt>
      <trkpt lat="60.0018602" lon="17.735522">
        <ele>28.4962</ele>
        <time>2013-04-27T10:37:15Z</time>
      </trkpt>
      <trkpt lat="60.0019106" lon="17.7353992">
        <ele>27.5349</ele>
        <time>2013-04-27T10:37:16Z</time>
      </trkpt>
      <trkpt lat="60.0019564" lon="17.7352663">
        <ele>27.0543</ele>
        <time>2013-04-27T10:37:17Z</time>
      </trkpt>
      <trkpt lat="60.0019948" lon="17.7351356">
        <ele>26.0929</ele>
        <time>2013-04-27T10:37:18Z</time>
      </trkpt>
      <trkpt lat="60.0020324" lon="17.7350057">
        <ele>26.0929</ele>
        <time>2013-04-27T10:37:19Z</time>
      </trkpt>
      <trkpt lat="60.0020673" lon="17.7348718">
        <ele>26.5736</ele>
        <time>2013-04-27T10:37:20Z</time>
      </trkpt>
      <trkpt lat="60.002098" lon="17.734728">
        <ele>26.0929</ele>
        <time>2013-04-27T10:37:21Z</time>
      </trkpt>
      <trkpt lat="60.0021344" lon="17.734563">
        <ele>27.0543</ele>
        <time>2013-04-27T10:37:22Z</time>
      </trkpt>
      <trkpt lat="60.0021686" lon="17.7343949">
        <ele>27.5349</ele>
        <time>2013-04-27T10:37:23Z</time>
      </trkpt>
      <trkpt lat="60.0022033" lon="17.7342245">
        <ele>28.9769</ele>
        <time>2013-04-27T10:37:24Z</time>
      </trkpt>
      <trkpt lat="60.0022345" lon="17.7340596">
        <ele>29.9381</ele>
        <time>2013-04-27T10:37:25Z</time>
      </trkpt>
      <trkpt lat="60.0022579" lon="17.7338929">
        <ele>29.9381</ele>
        <time>2013-04-27T10:37:26Z</time>
      </trkpt>
      <trkpt lat="60.0022715" lon="17.7337225">
        <ele>29.9381</ele>
        <time>2013-04-27T10:37:27Z</time>
      </trkpt>
      <trkpt lat="60.0022802" lon="17.7335515">
        <ele>29.9381</ele>
        <time>2013-04-27T10:37:28Z</time>
      </trkpt>
      <trkpt lat="60.0022725" lon="17.7333018">
        <ele>29.4575</ele>
        <time>2013-04-27T10:37:29Z</time>
      </trkpt>
      <trkpt lat="60.0022755" lon="17.7330812">
        <ele>28.4962</ele>
        <time>2013-04-27T10:37:30Z</time>
      </trkpt>
      <trkpt lat="60.0022771" lon="17.7328377">
        <ele>27.5349</ele>
        <time>2013-04-27T10:37:31Z</time>
      </trkpt>
      <trkpt lat="60.0022899" lon="17.7326034">
        <ele>27.0543</ele>
        <time>2013-04-27T10:37:32Z</time>
      </trkpt>
      <trkpt lat="60.0023237" lon="17.7323745">
        <ele>27.0543</ele>
        <time>2013-04-27T10:37:33Z</time>
      </trkpt>
      <trkpt lat="60.0023707" lon="17.7321535">
        <ele>26.5736</ele>
        <time>2013-04-27T10:37:34Z</time>
      </trkpt>
      <trkpt lat="60.0024257" lon="17.7319394">
        <ele>26.0929</ele>
        <time>2013-04-27T10:37:35Z</time>
      </trkpt>
      <trkpt lat="60.0024853" lon="17.7317334">
        <ele>26.0929</ele>
        <time>2013-04-27T10:37:36Z</time>
      </trkpt>
      <trkpt lat="60.0025454" lon="17.7315249">
        <ele>26.0929</ele>
        <time>2013-04-27T10:37:37Z</time>
      </trkpt>
      <trkpt lat="60.0026063" lon="17.7313234">
        <ele>26.0929</ele>
        <time>2013-04-27T10:37:38Z</time>
      </trkpt>
      <trkpt lat="60.0026703" lon="17.7311351">
        <ele>26.0929</ele>
        <time>2013-04-27T10:37:39Z</time>
      </trkpt>
      <trkpt lat="60.0027367" lon="17.7309584">
        <ele>26.5736</ele>
        <time>2013-04-27T10:37:40Z</time>
      </trkpt>
      <trkpt lat="60.0028054" lon="17.730794">
        <ele>26.5736</ele>
        <time>2013-04-27T10:37:41Z</time>
      </trkpt>
      <trkpt lat="60.0028773" lon="17.7306492">
        <ele>26.0929</ele>
        <time>2013-04-27T10:37:42Z</time>
      </trkpt>
      <trkpt lat="60.0029519" lon="17.7305176">
        <ele>25.6123</ele>
        <time>2013-04-27T10:37:43Z</time>
      </trkpt>
      <trkpt lat="60.0030265" lon="17.73039">
        <ele>25.1317</ele>
        <time>2013-04-27T10:37:44Z</time>
      </trkpt>
      <trkpt lat="60.0030981" lon="17.730271">
        <ele>24.651</ele>
        <time>2013-04-27T10:37:45Z</time>
      </trkpt>
      <trkpt lat="60.0031682" lon="17.7301529">
        <ele>24.651</ele>
        <time>2013-04-27T10:37:46Z</time>
      </trkpt>
      <trkpt lat="60.0032363" lon="17.7300389">
        <ele>24.1703</ele>
        <time>2013-04-27T10:37:47Z</time>
      </trkpt>
      <trkpt lat="60.0033018" lon="17.7299249">
        <ele>24.1703</ele>
        <time>2013-04-27T10:37:48Z</time>
      </trkpt>
      <trkpt lat="60.0033654" lon="17.729811">
        <ele>23.209</ele>
        <time>2013-04-27T10:37:49Z</time>
      </trkpt>
      <trkpt lat="60.0034289" lon="17.7296928">
        <ele>23.209</ele>
        <time>2013-04-27T10:37:50Z</time>
      </trkpt>
      <trkpt lat="60.0034916" lon="17.7295805">
        <ele>23.209</ele>
        <time>2013-04-27T10:37:51Z</time>
      </trkpt>
      <trkpt lat="60.0035545" lon="17.7294712">
        <ele>23.209</ele>
        <time>2013-04-27T10:37:52Z</time>
      </trkpt>
      <trkpt lat="60.0036167" lon="17.7293613">
        <ele>23.209</ele>
        <time>2013-04-27T10:37:53Z</time>
      </trkpt>
      <trkpt lat="60.0036778" lon="17.7292527">
        <ele>22.7283</ele>
        <time>2013-04-27T10:37:54Z</time>
      </trkpt>
      <trkpt lat="60.0037368" lon="17.7291433">
        <ele>22.2476</ele>
        <time>2013-04-27T10:37:55Z</time>
      </trkpt>
      <trkpt lat="60.0037958" lon="17.7290429">
        <ele>22.2476</ele>
        <time>2013-04-27T10:37:56Z</time>
      </trkpt>
      <trkpt lat="60.0038547" lon="17.7289511">
        <ele>22.2476</ele>
        <time>2013-04-27T10:37:57Z</time>
      </trkpt>
      <trkpt lat="60.0039143" lon="17.728868">
        <ele>22.7283</ele>
        <time>2013-04-27T10:37:58Z</time>
      </trkpt>
      <trkpt lat="60.0039755" lon="17.7288061">
        <ele>22.7283</ele>
        <time>2013-04-27T10:37:59Z</time>
      </trkpt>
      <trkpt lat="60.0040393" lon="17.7288008">
        <ele>22.2476</ele>
        <time>2013-04-27T10:38:00Z</time>
      </trkpt>
      <trkpt lat="60.0040992" lon="17.728832">
        <ele>22.2476</ele>
        <time>2013-04-27T10:38:01Z</time>
      </trkpt>
      <trkpt lat="60.0041507" lon="17.7289341">
        <ele>22.2476</ele>
        <time>2013-04-27T10:38:02Z</time>
      </trkpt>
      <trkpt lat="60.0041874" lon="17.7290525">
        <ele>21.767</ele>
        <time>2013-04-27T10:38:03Z</time>
      </trkpt>
      <trkpt lat="60.0042207" lon="17.7291567">
        <ele>22.7283</ele>
        <time>2013-04-27T10:38:04Z</time>
      </trkpt>
      <trkpt lat="60.0042465" lon="17.7292464">
        <ele>23.209</ele>
        <time>2013-04-27T10:38:05Z</time>
      </trkpt>
      <trkpt lat="60.004272" lon="17.7293254">
        <ele>23.6896</ele>
        <time>2013-04-27T10:38:06Z</time>
      </trkpt>
      <trkpt lat="60.0042916" lon="17.729414">
        <ele>23.6896</ele>
        <time>2013-04-27T10:38:07Z</time>
      </trkpt>
      <trkpt lat="60.0043189" lon="17.7295147">
        <ele>24.1703</ele>
        <time>2013-04-27T10:38:08Z</time>
      </trkpt>
      <trkpt lat="60.0043521" lon="17.7296119">
        <ele>24.651</ele>
        <time>2013-04-27T10:38:09Z</time>
      </trkpt>
      <trkpt lat="60.0043797" lon="17.7297155">
        <ele>24.651</ele>
        <time>2013-04-27T10:38:10Z</time>
      </trkpt>
      <trkpt lat="60.0044174" lon="17.7298219">
        <ele>25.6123</ele>
        <time>2013-04-27T10:38:11Z</time>
      </trkpt>
      <trkpt lat="60.0044501" lon="17.7299249">
        <ele>26.0929</ele>
        <time>2013-04-27T10:38:12Z</time>
      </trkpt>
      <trkpt lat="60.0044968" lon="17.7300229">
        <ele>26.5736</ele>
        <time>2013-04-27T10:38:13Z</time>
      </trkpt>
      <trkpt lat="60.0045421" lon="17.7301287">
        <ele>27.5349</ele>
        <time>2013-04-27T10:38:14Z</time>
      </trkpt>
      <trkpt lat="60.0045883" lon="17.7302414">
        <ele>28.9769</ele>
        <time>2013-04-27T10:38:15Z</time>
      </trkpt>
      <trkpt lat="60.0046325" lon="17.7303667">
        <ele>29.9381</ele>
        <time>2013-04-27T10:38:16Z</time>
      </trkpt>
      <trkpt lat="60.0046743" lon="17.7304959">
        <ele>31.3801</ele>
        <time>2013-04-27T10:38:17Z</time>
      </trkpt>
      <trkpt lat="60.0047205" lon="17.7306239">
        <ele>32.8223</ele>
        <time>2013-04-27T10:38:18Z</time>
      </trkpt>
      <trkpt lat="60.004762" lon="17.7307414">
        <ele>33.3029</ele>
        <time>2013-04-27T10:38:19Z</time>
      </trkpt>
      <trkpt lat="60.0048082" lon="17.7308507">
        <ele>33.7834</ele>
        <time>2013-04-27T10:38:20Z</time>
      </trkpt>
      <trkpt lat="60.0048538" lon="17.7309575">
        <ele>33.3029</ele>
        <time>2013-04-27T10:38:21Z</time>
      </trkpt>
      <trkpt lat="60.004892" lon="17.7310625">
        <ele>33.7834</ele>
        <time>2013-04-27T10:38:22Z</time>
      </trkpt>
      <trkpt lat="60.0049252" lon="17.7311628">
        <ele>33.7834</ele>
        <time>2013-04-27T10:38:23Z</time>
      </trkpt>
      <trkpt lat="60.0049578" lon="17.731251">
        <ele>34.2642</ele>
        <time>2013-04-27T10:38:24Z</time>
      </trkpt>
      <trkpt lat="60.0049838" lon="17.7313293">
        <ele>33.3029</ele>
        <time>2013-04-27T10:38:25Z</time>
      </trkpt>
      <trkpt lat="60.0050086" lon="17.7314037">
        <ele>33.3029</ele>
        <time>2013-04-27T10:38:26Z</time>
      </trkpt>
      <trkpt lat="60.0050282" lon="17.7314718">
        <ele>32.3416</ele>
        <time>2013-04-27T10:38:27Z</time>
      </trkpt>
      <trkpt lat="60.0050454" lon="17.7315373">
        <ele>32.3416</ele>
        <time>2013-04-27T10:38:28Z</time>
      </trkpt>
      <trkpt lat="60.0050619" lon="17.7315884">
        <ele>32.3416</ele>
        <time>2013-04-27T10:38:29Z</time>
      </trkpt>
      <trkpt lat="60.0050749" lon="17.7316327">
        <ele>32.3416</ele>
        <time>2013-04-27T10:38:30Z</time>
      </trkpt>
      <trkpt lat="60.0050833" lon="17.7316703">
        <ele>32.3416</ele>
        <time>2013-04-27T10:38:31Z</time>
      </trkpt>
      <trkpt lat="60.0050909" lon="17.7317045">
        <ele>31.8607</ele>
        <time>2013-04-27T10:38:32Z</time>
      </trkpt>
      <trkpt lat="60.0051059" lon="17.7317331">
        <ele>32.3416</ele>
        <time>2013-04-27T10:38:33Z</time>
      </trkpt>
      <trkpt lat="60.0051256" lon="17.7317541">
        <ele>32.3416</ele>
        <time>2013-04-27T10:38:34Z</time>
      </trkpt>
      <trkpt lat="60.0051511" lon="17.7317715">
        <ele>32.8223</ele>
        <time>2013-04-27T10:38:35Z</time>
      </trkpt>
      <trkpt lat="60.0051842" lon="17.7317789">
        <ele>33.7834</ele>
        <time>2013-04-27T10:38:36Z</time>
      </trkpt>
      <trkpt lat="60.0052159" lon="17.7317783">
        <ele>34.2642</ele>
        <time>2013-04-27T10:38:37Z</time>
      </trkpt>
      <trkpt lat="60.005248" lon="17.7317705">
        <ele>34.7449</ele>
        <time>2013-04-27T10:38:38Z</time>
      </trkpt>
      <trkpt lat="60.0052795" lon="17.7317629">
        <ele>34.2642</ele>
        <time>2013-04-27T10:38:39Z</time>
      </trkpt>
      <trkpt lat="60.0053116" lon="17.7317597">
        <ele>34.2642</ele>
        <time>2013-04-27T10:38:40Z</time>
      </trkpt>
      <trkpt lat="60.005343" lon="17.7317581">
        <ele>34.2642</ele>
        <time>2013-04-27T10:38:41Z</time>
      </trkpt>
      <trkpt lat="60.0053727" lon="17.7317502">
        <ele>33.7834</ele>
        <time>2013-04-27T10:38:42Z</time>
      </trkpt>
      <trkpt lat="60.0054052" lon="17.7317303">
        <ele>33.3029</ele>
        <time>2013-04-27T10:38:43Z</time>
      </trkpt>
      <trkpt lat="60.0054415" lon="17.7317054">
        <ele>33.7834</ele>
        <time>2013-04-27T10:38:44Z</time>
      </trkpt>
      <trkpt lat="60.0054783" lon="17.731676">
        <ele>33.3029</ele>
        <time>2013-04-27T10:38:45Z</time>
      </trkpt>
      <trkpt lat="60.0055136" lon="17.7316409">
        <ele>32.3416</ele>
        <time>2013-04-27T10:38:46Z</time>
      </trkpt>
      <trkpt lat="60.0055526" lon="17.7316042">
        <ele>31.3801</ele>
        <time>2013-04-27T10:38:47Z</time>
      </trkpt>
      <trkpt lat="60.0055963" lon="17.7315666">
        <ele>30.8995</ele>
        <time>2013-04-27T10:38:48Z</time>
      </trkpt>
      <trkpt lat="60.0056416" lon="17.7315261">
        <ele>30.4188</ele>
        <time>2013-04-27T10:38:49Z</time>
      </trkpt>
      <trkpt lat="60.0056923" lon="17.73148">
        <ele>30.4188</ele>
        <time>2013-04-27T10:38:50Z</time>
      </trkpt>
      <trkpt lat="60.0057451" lon="17.7314301">
        <ele>30.4188</ele>
        <time>2013-04-27T10:38:51Z</time>
      </trkpt>
      <trkpt lat="60.0057991" lon="17.7313755">
        <ele>29.9381</ele>
        <time>2013-04-27T10:38:52Z</time>
      </trkpt>
      <trkpt lat="60.0058569" lon="17.7313203">
        <ele>30.4188</ele>
        <time>2013-04-27T10:38:53Z</time>
      </trkpt>
      <trkpt lat="60.0059144" lon="17.7312647">
        <ele>29.9381</ele>
        <time>2013-04-27T10:38:54Z</time>
      </trkpt>
      <trkpt lat="60.0059695" lon="17.7312097">
        <ele>29.4575</ele>
        <time>2013-04-27T10:38:55Z</time>
      </trkpt>
      <trkpt lat="60.0060238" lon="17.7311574">
        <ele>28.4962</ele>
        <time>2013-04-27T10:38:56Z</time>
      </trkpt>
      <trkpt lat="60.0060797" lon="17.7311096">
        <ele>27.5349</ele>
        <time>2013-04-27T10:38:57Z</time>
      </trkpt>
      <trkpt lat="60.0061363" lon="17.7310605">
        <ele>27.0543</ele>
        <time>2013-04-27T10:38:58Z</time>
      </trkpt>
      <trkpt lat="60.006193" lon="17.7310023">
        <ele>27.0543</ele>
        <time>2013-04-27T10:38:59Z</time>
      </trkpt>
      <trkpt lat="60.0062474" lon="17.730957">
        <ele>26.5736</ele>
        <time>2013-04-27T10:39:00Z</time>
      </trkpt>
      <trkpt lat="60.0063032" lon="17.7309118">
        <ele>25.6123</ele>
        <time>2013-04-27T10:39:01Z</time>
      </trkpt>
      <trkpt lat="60.0063595" lon="17.7308631">
        <ele>24.651</ele>
        <time>2013-04-27T10:39:02Z</time>
      </trkpt>
      <trkpt lat="60.0064182" lon="17.7308124">
        <ele>24.651</ele>
        <time>2013-04-27T10:39:03Z</time>
      </trkpt>
      <trkpt lat="60.0064744" lon="17.730766">
        <ele>24.1703</ele>
        <time>2013-04-27T10:39:04Z</time>
      </trkpt>
      <trkpt lat="60.0065315" lon="17.7307221">
        <ele>24.1703</ele>
        <time>2013-04-27T10:39:05Z</time>
      </trkpt>
      <trkpt lat="60.0065893" lon="17.7306726">
        <ele>24.1703</ele>
        <time>2013-04-27T10:39:06Z</time>
      </trkpt>
      <trkpt lat="60.0066504" lon="17.7306186">
        <ele>25.1317</ele>
        <time>2013-04-27T10:39:07Z</time>
      </trkpt>
      <trkpt lat="60.0067102" lon="17.7305663">
        <ele>25.6123</ele>
        <time>2013-04-27T10:39:08Z</time>
      </trkpt>
      <trkpt lat="60.0067703" lon="17.7305087">
        <ele>26.5736</ele>
        <time>2013-04-27T10:39:09Z</time>
      </trkpt>
      <trkpt lat="60.006832" lon="17.7304638">
        <ele>26.5736</ele>
        <time>2013-04-27T10:39:10Z</time>
      </trkpt>
      <trkpt lat="60.006896" lon="17.7304169">
        <ele>28.0155</ele>
        <time>2013-04-27T10:39:11Z</time>
      </trkpt>
      <trkpt lat="60.0069605" lon="17.7303734">
        <ele>27.5349</ele>
        <time>2013-04-27T10:39:12Z</time>
      </trkpt>
      <trkpt lat="60.0070267" lon="17.7303276">
        <ele>27.5349</ele>
        <time>2013-04-27T10:39:13Z</time>
      </trkpt>
      <trkpt lat="60.0070946" lon="17.7302796">
        <ele>27.0543</ele>
        <time>2013-04-27T10:39:14Z</time>
      </trkpt>
      <trkpt lat="60.007163" lon="17.7302369">
        <ele>27.0543</ele>
        <time>2013-04-27T10:39:15Z</time>
      </trkpt>
      <trkpt lat="60.0072325" lon="17.730199">
        <ele>28.4962</ele>
        <time>2013-04-27T10:39:16Z</time>
      </trkpt>
      <trkpt lat="60.0073007" lon="17.7301622">
        <ele>29.4575</ele>
        <time>2013-04-27T10:39:17Z</time>
      </trkpt>
      <trkpt lat="60.0073703" lon="17.7301287">
        <ele>29.9381</ele>
        <time>2013-04-27T10:39:18Z</time>
      </trkpt>
      <trkpt lat="60.0074287" lon="17.7301108">
        <ele>30.8995</ele>
        <time>2013-04-27T10:39:19Z</time>
      </trkpt>
      <trkpt lat="60.0074881" lon="17.730099">
        <ele>30.4188</ele>
        <time>2013-04-27T10:39:20Z</time>
      </trkpt>
      <trkpt lat="60.0075484" lon="17.7300813">
        <ele>30.8995</ele>
        <time>2013-04-27T10:39:21Z</time>
      </trkpt>
      <trkpt lat="60.0076096" lon="17.7300636">
        <ele>29.9381</ele>
        <time>2013-04-27T10:39:22Z</time>
      </trkpt>
      <trkpt lat="60.0076778" lon="17.7300641">
        <ele>28.9769</ele>
        <time>2013-04-27T10:39:23Z</time>
      </trkpt>
      <trkpt lat="60.007751" lon="17.7300648">
        <ele>28.9769</ele>
        <time>2013-04-27T10:39:24Z</time>
      </trkpt>
      <trkpt lat="60.0078275" lon="17.7300499">
        <ele>28.0155</ele>
        <time>2013-04-27T10:39:25Z</time>
      </trkpt>
      <trkpt lat="60.0079012" lon="17.7300384">
        <ele>27.0543</ele>
        <time>2013-04-27T10:39:26Z</time>
      </trkpt>
      <trkpt lat="60.0079794" lon="17.7300389">
        <ele>26.0929</ele>
        <time>2013-04-27T10:39:27Z</time>
      </trkpt>
      <trkpt lat="60.0080489" lon="17.7300461">
        <ele>25.6123</ele>
        <time>2013-04-27T10:39:28Z</time>
      </trkpt>
      <trkpt lat="60.0081136" lon="17.7300494">
        <ele>24.651</ele>
        <time>2013-04-27T10:39:29Z</time>
      </trkpt>
      <trkpt lat="60.0081788" lon="17.7300473">
        <ele>24.1703</ele>
        <time>2013-04-27T10:39:30Z</time>
      </trkpt>
      <trkpt lat="60.0082491" lon="17.7300548">
        <ele>23.209</ele>
        <time>2013-04-27T10:39:31Z</time>
      </trkpt>
      <trkpt lat="60.0083227" lon="17.7300639">
        <ele>22.7283</ele>
        <time>2013-04-27T10:39:32Z</time>
      </trkpt>
      <trkpt lat="60.008393" lon="17.7300861">
        <ele>22.2476</ele>
        <time>2013-04-27T10:39:33Z</time>
      </trkpt>
      <trkpt lat="60.0084621" lon="17.7301135">
        <ele>21.2864</ele>
        <time>2013-04-27T10:39:34Z</time>
      </trkpt>
      <trkpt lat="60.0085388" lon="17.7301506">
        <ele>21.2864</ele>
        <time>2013-04-27T10:39:35Z</time>
      </trkpt>
      <trkpt lat="60.0086092" lon="17.7301891">
        <ele>21.2864</ele>
        <time>2013-04-27T10:39:36Z</time>
      </trkpt>
      <trkpt lat="60.0086838" lon="17.7302006">
        <ele>21.2864</ele>
        <time>2013-04-27T10:39:37Z</time>
      </trkpt>
      <trkpt lat="60.0087489" lon="17.7302399">
        <ele>21.2864</ele>
        <time>2013-04-27T10:39:38Z</time>
      </trkpt>
      <trkpt lat="60.008814" lon="17.7302682">
        <ele>20.8057</ele>
        <time>2013-04-27T10:39:39Z</time>
      </trkpt>
      <trkpt lat="60.0088806" lon="17.730315">
        <ele>20.325</ele>
        <time>2013-04-27T10:39:40Z</time>
      </trkpt>
      <trkpt lat="60.0089464" lon="17.7303592">
        <ele>19.3638</ele>
        <time>2013-04-27T10:39:41Z</time>
      </trkpt>
      <trkpt lat="60.0090091" lon="17.7304055">
        <ele>18.8831</ele>
        <time>2013-04-27T10:39:42Z</time>
      </trkpt>
      <trkpt lat="60.0090699" lon="17.7304519">
        <ele>18.8831</ele>
        <time>2013-04-27T10:39:43Z</time>
      </trkpt>
      <trkpt lat="60.0091308" lon="17.7305044">
        <ele>18.4023</ele>
        <time>2013-04-27T10:39:44Z</time>
      </trkpt>
      <trkpt lat="60.009191" lon="17.7305581">
        <ele>18.4023</ele>
        <time>2013-04-27T10:39:45Z</time>
      </trkpt>
      <trkpt lat="60.0092509" lon="17.7306227">
        <ele>18.4023</ele>
        <time>2013-04-27T10:39:46Z</time>
      </trkpt>
      <trkpt lat="60.0093084" lon="17.7306788">
        <ele>18.4023</ele>
        <time>2013-04-27T10:39:47Z</time>
      </trkpt>
      <trkpt lat="60.0093618" lon="17.730734">
        <ele>18.8831</ele>
        <time>2013-04-27T10:39:48Z</time>
      </trkpt>
      <trkpt lat="60.0094147" lon="17.7307911">
        <ele>18.8831</ele>
        <time>2013-04-27T10:39:49Z</time>
      </trkpt>
      <trkpt lat="60.0094655" lon="17.7308507">
        <ele>18.4023</ele>
        <time>2013-04-27T10:39:50Z</time>
      </trkpt>
      <trkpt lat="60.009524" lon="17.7309076">
        <ele>19.3638</ele>
        <time>2013-04-27T10:39:51Z</time>
      </trkpt>
      <trkpt lat="60.0095915" lon="17.7309651">
        <ele>21.2864</ele>
        <time>2013-04-27T10:39:52Z</time>
      </trkpt>
      <trkpt lat="60.0096404" lon="17.7310242">
        <ele>21.767</ele>
        <time>2013-04-27T10:39:53Z</time>
      </trkpt>
      <trkpt lat="60.0096887" lon="17.7310852">
        <ele>21.767</ele>
        <time>2013-04-27T10:39:54Z</time>
      </trkpt>
      <trkpt lat="60.0097368" lon="17.731147">
        <ele>22.2476</ele>
        <time>2013-04-27T10:39:55Z</time>
      </trkpt>
      <trkpt lat="60.0097834" lon="17.731212">
        <ele>22.2476</ele>
        <time>2013-04-27T10:39:56Z</time>
      </trkpt>
      <trkpt lat="60.0098307" lon="17.7312765">
        <ele>22.2476</ele>
        <time>2013-04-27T10:39:57Z</time>
      </trkpt>
      <trkpt lat="60.0098784" lon="17.7313386">
        <ele>22.7283</ele>
        <time>2013-04-27T10:39:58Z</time>
      </trkpt>
      <trkpt lat="60.0099264" lon="17.7313998">
        <ele>23.209</ele>
        <time>2013-04-27T10:39:59Z</time>
      </trkpt>
      <trkpt lat="60.0099767" lon="17.7314661">
        <ele>23.209</ele>
        <time>2013-04-27T10:40:00Z</time>
      </trkpt>
      <trkpt lat="60.0100305" lon="17.7315364">
        <ele>24.1703</ele>
        <time>2013-04-27T10:40:01Z</time>
      </trkpt>
      <trkpt lat="60.0100783" lon="17.7316047">
        <ele>24.651</ele>
        <time>2013-04-27T10:40:02Z</time>
      </trkpt>
      <trkpt lat="60.0101245" lon="17.7316715">
        <ele>24.651</ele>
        <time>2013-04-27T10:40:03Z</time>
      </trkpt>
      <trkpt lat="60.0101716" lon="17.7317347">
        <ele>25.1317</ele>
        <time>2013-04-27T10:40:04Z</time>
      </trkpt>
      <trkpt lat="60.0102182" lon="17.7317986">
        <ele>25.1317</ele>
        <time>2013-04-27T10:40:05Z</time>
      </trkpt>
      <trkpt lat="60.0102631" lon="17.731865">
        <ele>25.6123</ele>
        <time>2013-04-27T10:40:06Z</time>
      </trkpt>
      <trkpt lat="60.0103084" lon="17.7319303">
        <ele>25.6123</ele>
        <time>2013-04-27T10:40:07Z</time>
      </trkpt>
      <trkpt lat="60.0103544" lon="17.7319942">
        <ele>25.6123</ele>
        <time>2013-04-27T10:40:08Z</time>
      </trkpt>
      <trkpt lat="60.0103969" lon="17.7320571">
        <ele>25.6123</ele>
        <time>2013-04-27T10:40:09Z</time>
      </trkpt>
      <trkpt lat="60.0104443" lon="17.7321197">
        <ele>25.6123</ele>
        <time>2013-04-27T10:40:10Z</time>
      </trkpt>
      <trkpt lat="60.0104928" lon="17.7321808">
        <ele>26.0929</ele>
        <time>2013-04-27T10:40:11Z</time>
      </trkpt>
      <trkpt lat="60.0105424" lon="17.7322388">
        <ele>26.0929</ele>
        <time>2013-04-27T10:40:12Z</time>
      </trkpt>
      <trkpt lat="60.0105926" lon="17.7322941">
        <ele>26.0929</ele>
        <time>2013-04-27T10:40:13Z</time>
      </trkpt>
      <trkpt lat="60.0106428" lon="17.7323486">
        <ele>26.5736</ele>
        <time>2013-04-27T10:40:14Z</time>
      </trkpt>
      <trkpt lat="60.0106931" lon="17.7324021">
        <ele>26.5736</ele>
        <time>2013-04-27T10:40:15Z</time>
      </trkpt>
      <trkpt lat="60.010744" lon="17.7324524">
        <ele>26.5736</ele>
        <time>2013-04-27T10:40:16Z</time>
      </trkpt>
      <trkpt lat="60.0107973" lon="17.7325">
        <ele>26.5736</ele>
        <time>2013-04-27T10:40:17Z</time>
      </trkpt>
      <trkpt lat="60.0108507" lon="17.7325465">
        <ele>26.5736</ele>
        <time>2013-04-27T10:40:18Z</time>
      </trkpt>
      <trkpt lat="60.010904" lon="17.7325896">
        <ele>26.5736</ele>
        <time>2013-04-27T10:40:19Z</time>
      </trkpt>
      <trkpt lat="60.0109589" lon="17.732629">
        <ele>26.5736</ele>
        <time>2013-04-27T10:40:20Z</time>
      </trkpt>
      <trkpt lat="60.0110159" lon="17.7326641">
        <ele>27.0543</ele>
        <time>2013-04-27T10:40:21Z</time>
      </trkpt>
      <trkpt lat="60.0110738" lon="17.7326963">
        <ele>27.0543</ele>
        <time>2013-04-27T10:40:22Z</time>
      </trkpt>
      <trkpt lat="60.0111319" lon="17.7327256">
        <ele>27.0543</ele>
        <time>2013-04-27T10:40:23Z</time>
      </trkpt>
      <trkpt lat="60.0111906" lon="17.7327517">
        <ele>27.0543</ele>
        <time>2013-04-27T10:40:24Z</time>
      </trkpt>
      <trkpt lat="60.0112504" lon="17.7327731">
        <ele>27.0543</ele>
        <time>2013-04-27T10:40:25Z</time>
      </trkpt>
      <trkpt lat="60.0113116" lon="17.7327901">
        <ele>27.0543</ele>
        <time>2013-04-27T10:40:26Z</time>
      </trkpt>
      <trkpt lat="60.0113727" lon="17.7328082">
        <ele>27.0543</ele>
        <time>2013-04-27T10:40:27Z</time>
      </trkpt>
      <trkpt lat="60.0114346" lon="17.7328263">
        <ele>27.5349</ele>
        <time>2013-04-27T10:40:28Z</time>
      </trkpt>
      <trkpt lat="60.011496" lon="17.7328386">
        <ele>27.5349</ele>
        <time>2013-04-27T10:40:29Z</time>
      </trkpt>
      <trkpt lat="60.0115583" lon="17.7328448">
        <ele>27.5349</ele>
        <time>2013-04-27T10:40:30Z</time>
      </trkpt>
      <trkpt lat="60.0116197" lon="17.7328493">
        <ele>27.5349</ele>
        <time>2013-04-27T10:40:31Z</time>
      </trkpt>
      <trkpt lat="60.0116791" lon="17.732852">
        <ele>27.5349</ele>
        <time>2013-04-27T10:40:32Z</time>
      </trkpt>
      <trkpt lat="60.0117394" lon="17.7328502">
        <ele>27.5349</ele>
        <time>2013-04-27T10:40:33Z</time>
      </trkpt>
      <trkpt lat="60.0118017" lon="17.7328451">
        <ele>27.5349</ele>
        <time>2013-04-27T10:40:34Z</time>
      </trkpt>
      <trkpt lat="60.0118618" lon="17.732837">
        <ele>27.0543</ele>
        <time>2013-04-27T10:40:35Z</time>
      </trkpt>
      <trkpt lat="60.0119224" lon="17.7328251">
        <ele>27.0543</ele>
        <time>2013-04-27T10:40:36Z</time>
      </trkpt>
      <trkpt lat="60.0119841" lon="17.7328117">
        <ele>26.5736</ele>
        <time>2013-04-27T10:40:37Z</time>
      </trkpt>
      <trkpt lat="60.0120453" lon="17.7327984">
        <ele>26.0929</ele>
        <time>2013-04-27T10:40:38Z</time>
      </trkpt>
      <trkpt lat="60.0121063" lon="17.7327857">
        <ele>25.1317</ele>
        <time>2013-04-27T10:40:39Z</time>
      </trkpt>
      <trkpt lat="60.0121667" lon="17.732772">
        <ele>23.6896</ele>
        <time>2013-04-27T10:40:40Z</time>
      </trkpt>
      <trkpt lat="60.0122279" lon="17.732756">
        <ele>23.209</ele>
        <time>2013-04-27T10:40:41Z</time>
      </trkpt>
      <trkpt lat="60.012289" lon="17.7327377">
        <ele>23.209</ele>
        <time>2013-04-27T10:40:42Z</time>
      </trkpt>
      <trkpt lat="60.0123491" lon="17.7327163">
        <ele>22.7283</ele>
        <time>2013-04-27T10:40:43Z</time>
      </trkpt>
      <trkpt lat="60.0124082" lon="17.7326935">
        <ele>21.767</ele>
        <time>2013-04-27T10:40:44Z</time>
      </trkpt>
      <trkpt lat="60.0124685" lon="17.7326719">
        <ele>21.2864</ele>
        <time>2013-04-27T10:40:45Z</time>
      </trkpt>
      <trkpt lat="60.0125291" lon="17.7326538">
        <ele>20.8057</ele>
        <time>2013-04-27T10:40:46Z</time>
      </trkpt>
      <trkpt lat="60.012592" lon="17.7326353">
        <ele>20.8057</ele>
        <time>2013-04-27T10:40:47Z</time>
      </trkpt>
      <trkpt lat="60.0126554" lon="17.7326133">
        <ele>21.2864</ele>
        <time>2013-04-27T10:40:48Z</time>
      </trkpt>
      <trkpt lat="60.0127191" lon="17.732588">
        <ele>21.2864</ele>
        <time>2013-04-27T10:40:49Z</time>
      </trkpt>
      <trkpt lat="60.0127824" lon="17.7325659">
        <ele>20.8057</ele>
        <time>2013-04-27T10:40:50Z</time>
      </trkpt>
      <trkpt lat="60.0128466" lon="17.7325456">
        <ele>20.8057</ele>
        <time>2013-04-27T10:40:51Z</time>
      </trkpt>
      <trkpt lat="60.0129112" lon="17.7325259">
        <ele>20.8057</ele>
        <time>2013-04-27T10:40:52Z</time>
      </trkpt>
      <trkpt lat="60.0129756" lon="17.7325109">
        <ele>20.8057</ele>
        <time>2013-04-27T10:40:53Z</time>
      </trkpt>
      <trkpt lat="60.0130398" lon="17.7325016">
        <ele>20.325</ele>
        <time>2013-04-27T10:40:54Z</time>
      </trkpt>
      <trkpt lat="60.0131048" lon="17.732498">
        <ele>19.8444</ele>
        <time>2013-04-27T10:40:55Z</time>
      </trkpt>
      <trkpt lat="60.0131704" lon="17.7324953">
        <ele>19.3638</ele>
        <time>2013-04-27T10:40:56Z</time>
      </trkpt>
      <trkpt lat="60.0132371" lon="17.7324932">
        <ele>18.8831</ele>
        <time>2013-04-27T10:40:57Z</time>
      </trkpt>
      <trkpt lat="60.0133044" lon="17.7324951">
        <ele>18.8831</ele>
        <time>2013-04-27T10:40:58Z</time>
      </trkpt>
      <trkpt lat="60.0133713" lon="17.7325024">
        <ele>18.4023</ele>
        <time>2013-04-27T10:40:59Z</time>
      </trkpt>
      <trkpt lat="60.0134387" lon="17.7325093">
        <ele>17.9218</ele>
        <time>2013-04-27T10:41:00Z</time>
      </trkpt>
      <trkpt lat="60.0135061" lon="17.7325146">
        <ele>17.9218</ele>
        <time>2013-04-27T10:41:01Z</time>
      </trkpt>
      <trkpt lat="60.0135748" lon="17.7325237">
        <ele>17.9218</ele>
        <time>2013-04-27T10:41:02Z</time>
      </trkpt>
      <trkpt lat="60.0136446" lon="17.7325373">
        <ele>17.4412</ele>
        <time>2013-04-27T10:41:03Z</time>
      </trkpt>
      <trkpt lat="60.0137157" lon="17.7325538">
        <ele>17.4412</ele>
        <time>2013-04-27T10:41:04Z</time>
      </trkpt>
      <trkpt lat="60.0137893" lon="17.7325734">
        <ele>17.9218</ele>
        <time>2013-04-27T10:41:05Z</time>
      </trkpt>
      <trkpt lat="60.0138622" lon="17.7325948">
        <ele>17.9218</ele>
        <time>2013-04-27T10:41:06Z</time>
      </trkpt>
      <trkpt lat="60.0139337" lon="17.7326191">
        <ele>17.9218</ele>
        <time>2013-04-27T10:41:07Z</time>
      </trkpt>
      <trkpt lat="60.0140034" lon="17.7326448">
        <ele>18.4023</ele>
        <time>2013-04-27T10:41:08Z</time>
      </trkpt>
      <trkpt lat="60.0140707" lon="17.732674">
        <ele>18.4023</ele>
        <time>2013-04-27T10:41:09Z</time>
      </trkpt>
      <trkpt lat="60.0141343" lon="17.7327039">
        <ele>17.9218</ele>
        <time>2013-04-27T10:41:10Z</time>
      </trkpt>
      <trkpt lat="60.014195" lon="17.7327347">
        <ele>17.9218</ele>
        <time>2013-04-27T10:41:11Z</time>
      </trkpt>
      <trkpt lat="60.0142561" lon="17.7327681">
        <ele>17.9218</ele>
        <time>2013-04-27T10:41:12Z</time>
      </trkpt>
      <trkpt lat="60.014315" lon="17.7328025">
        <ele>17.9218</ele>
        <time>2013-04-27T10:41:13Z</time>
      </trkpt>
      <trkpt lat="60.0143714" lon="17.7328422">
        <ele>17.9218</ele>
        <time>2013-04-27T10:41:14Z</time>
      </trkpt>
      <trkpt lat="60.0144278" lon="17.7328875">
        <ele>17.9218</ele>
        <time>2013-04-27T10:41:15Z</time>
      </trkpt>
      <trkpt lat="60.014484" lon="17.7329367">
        <ele>17.9218</ele>
        <time>2013-04-27T10:41:16Z</time>
      </trkpt>
      <trkpt lat="60.0145394" lon="17.7329857">
        <ele>18.4023</ele>
        <time>2013-04-27T10:41:17Z</time>
      </trkpt>
      <trkpt lat="60.0145931" lon="17.7330329">
        <ele>18.4023</ele>
        <time>2013-04-27T10:41:18Z</time>
      </trkpt>
      <trkpt lat="60.0146434" lon="17.7330817">
        <ele>18.4023</ele>
        <time>2013-04-27T10:41:19Z</time>
      </trkpt>
      <trkpt lat="60.0146925" lon="17.7331304">
        <ele>18.4023</ele>
        <time>2013-04-27T10:41:20Z</time>
      </trkpt>
      <trkpt lat="60.0147426" lon="17.7331755">
        <ele>18.4023</ele>
        <time>2013-04-27T10:41:21Z</time>
      </trkpt>
      <trkpt lat="60.0147947" lon="17.7332172">
        <ele>18.4023</ele>
        <time>2013-04-27T10:41:22Z</time>
      </trkpt>
      <trkpt lat="60.0148479" lon="17.7332566">
        <ele>18.4023</ele>
        <time>2013-04-27T10:41:23Z</time>
      </trkpt>
      <trkpt lat="60.0149014" lon="17.7332934">
        <ele>18.4023</ele>
        <time>2013-04-27T10:41:24Z</time>
      </trkpt>
      <trkpt lat="60.0149558" lon="17.7333263">
        <ele>18.4023</ele>
        <time>2013-04-27T10:41:25Z</time>
      </trkpt>
      <trkpt lat="60.0150107" lon="17.7333551">
        <ele>18.4023</ele>
        <time>2013-04-27T10:41:26Z</time>
      </trkpt>
      <trkpt lat="60.0150702" lon="17.7333786">
        <ele>19.3638</ele>
        <time>2013-04-27T10:41:27Z</time>
      </trkpt>
      <trkpt lat="60.0151293" lon="17.7333999">
        <ele>20.325</ele>
        <time>2013-04-27T10:41:28Z</time>
      </trkpt>
      <trkpt lat="60.015188" lon="17.7334198">
        <ele>20.8057</ele>
        <time>2013-04-27T10:41:29Z</time>
      </trkpt>
      <trkpt lat="60.015247" lon="17.7334362">
        <ele>21.767</ele>
        <time>2013-04-27T10:41:30Z</time>
      </trkpt>
      <trkpt lat="60.0153054" lon="17.7334511">
        <ele>22.2476</ele>
        <time>2013-04-27T10:41:31Z</time>
      </trkpt>
      <trkpt lat="60.015362" lon="17.7334664">
        <ele>22.7283</ele>
        <time>2013-04-27T10:41:32Z</time>
      </trkpt>
      <trkpt lat="60.015418" lon="17.7334797">
        <ele>23.209</ele>
        <time>2013-04-27T10:41:33Z</time>
      </trkpt>
      <trkpt lat="60.0154724" lon="17.733493">
        <ele>23.209</ele>
        <time>2013-04-27T10:41:34Z</time>
      </trkpt>
      <trkpt lat="60.0155261" lon="17.7335079">
        <ele>23.209</ele>
        <time>2013-04-27T10:41:35Z</time>
      </trkpt>
      <trkpt lat="60.0155791" lon="17.7335201">
        <ele>23.209</ele>
        <time>2013-04-27T10:41:36Z</time>
      </trkpt>
      <trkpt lat="60.0156319" lon="17.7335308">
        <ele>23.209</ele>
        <time>2013-04-27T10:41:37Z</time>
      </trkpt>
      <trkpt lat="60.0156842" lon="17.7335433">
        <ele>23.209</ele>
        <time>2013-04-27T10:41:38Z</time>
      </trkpt>
      <trkpt lat="60.0157365" lon="17.7335562">
        <ele>23.209</ele>
        <time>2013-04-27T10:41:39Z</time>
      </trkpt>
      <trkpt lat="60.0157889" lon="17.7335698">
        <ele>23.209</ele>
        <time>2013-04-27T10:41:40Z</time>
      </trkpt>
      <trkpt lat="60.0158412" lon="17.733582">
        <ele>23.209</ele>
        <time>2013-04-27T10:41:41Z</time>
      </trkpt>
      <trkpt lat="60.0158919" lon="17.7335945">
        <ele>22.7283</ele>
        <time>2013-04-27T10:41:42Z</time>
      </trkpt>
      <trkpt lat="60.0159437" lon="17.7336065">
        <ele>22.7283</ele>
        <time>2013-04-27T10:41:43Z</time>
      </trkpt>
      <trkpt lat="60.0159949" lon="17.7336194">
        <ele>22.2476</ele>
        <time>2013-04-27T10:41:44Z</time>
      </trkpt>
      <trkpt lat="60.0160469" lon="17.7336329">
        <ele>22.2476</ele>
        <time>2013-04-27T10:41:45Z</time>
      </trkpt>
      <trkpt lat="60.0161" lon="17.733648">
        <ele>22.2476</ele>
        <time>2013-04-27T10:41:46Z</time>
      </trkpt>
      <trkpt lat="60.0161528" lon="17.7336653">
        <ele>21.767</ele>
        <time>2013-04-27T10:41:47Z</time>
      </trkpt>
      <trkpt lat="60.0162067" lon="17.7336842">
        <ele>21.767</ele>
        <time>2013-04-27T10:41:48Z</time>
      </trkpt>
      <trkpt lat="60.0162617" lon="17.7337022">
        <ele>21.2864</ele>
        <time>2013-04-27T10:41:49Z</time>
      </trkpt>
      <trkpt lat="60.0163177" lon="17.7337173">
        <ele>21.2864</ele>
        <time>2013-04-27T10:41:50Z</time>
      </trkpt>
      <trkpt lat="60.0163721" lon="17.7337343">
        <ele>21.2864</ele>
        <time>2013-04-27T10:41:51Z</time>
      </trkpt>
      <trkpt lat="60.0164255" lon="17.7337527">
        <ele>21.2864</ele>
        <time>2013-04-27T10:41:52Z</time>
      </trkpt>
      <trkpt lat="60.0164788" lon="17.7337711">
        <ele>21.2864</ele>
        <time>2013-04-27T10:41:53Z</time>
      </trkpt>
      <trkpt lat="60.0165312" lon="17.7337883">
        <ele>21.2864</ele>
        <time>2013-04-27T10:41:54Z</time>
      </trkpt>
      <trkpt lat="60.0165839" lon="17.7338047">
        <ele>21.2864</ele>
        <time>2013-04-27T10:41:55Z</time>
      </trkpt>
      <trkpt lat="60.0166368" lon="17.733822">
        <ele>21.2864</ele>
        <time>2013-04-27T10:41:56Z</time>
      </trkpt>
      <trkpt lat="60.01669" lon="17.7338406">
        <ele>21.767</ele>
        <time>2013-04-27T10:41:57Z</time>
      </trkpt>
      <trkpt lat="60.0167425" lon="17.7338603">
        <ele>21.767</ele>
        <time>2013-04-27T10:41:58Z</time>
      </trkpt>
      <trkpt lat="60.0167946" lon="17.7338787">
        <ele>21.767</ele>
        <time>2013-04-27T10:41:59Z</time>
      </trkpt>
      <trkpt lat="60.016846" lon="17.7338962">
        <ele>21.767</ele>
        <time>2013-04-27T10:42:00Z</time>
      </trkpt>
      <trkpt lat="60.0168969" lon="17.7339114">
        <ele>21.767</ele>
        <time>2013-04-27T10:42:01Z</time>
      </trkpt>
      <trkpt lat="60.0169472" lon="17.7339245">
        <ele>21.767</ele>
        <time>2013-04-27T10:42:02Z</time>
      </trkpt>
      <trkpt lat="60.0169972" lon="17.733938">
        <ele>21.767</ele>
        <time>2013-04-27T10:42:03Z</time>
      </trkpt>
      <trkpt lat="60.0170461" lon="17.7339545">
        <ele>21.2864</ele>
        <time>2013-04-27T10:42:04Z</time>
      </trkpt>
      <trkpt lat="60.0170958" lon="17.7339685">
        <ele>21.2864</ele>
        <time>2013-04-27T10:42:05Z</time>
      </trkpt>
      <trkpt lat="60.0171451" lon="17.7339841">
        <ele>21.2864</ele>
        <time>2013-04-27T10:42:06Z</time>
      </trkpt>
      <trkpt lat="60.0171953" lon="17.7339986">
        <ele>21.2864</ele>
        <time>2013-04-27T10:42:07Z</time>
      </trkpt>
      <trkpt lat="60.017245" lon="17.7340125">
        <ele>21.767</ele>
        <time>2013-04-27T10:42:08Z</time>
      </trkpt>
      <trkpt lat="60.017294" lon="17.7340269">
        <ele>21.767</ele>
        <time>2013-04-27T10:42:09Z</time>
      </trkpt>
      <trkpt lat="60.0173411" lon="17.7340468">
        <ele>21.2864</ele>
        <time>2013-04-27T10:42:10Z</time>
      </trkpt>
      <trkpt lat="60.0173878" lon="17.7340701">
        <ele>21.2864</ele>
        <time>2013-04-27T10:42:11Z</time>
      </trkpt>
      <trkpt lat="60.0174357" lon="17.7340913">
        <ele>21.2864</ele>
        <time>2013-04-27T10:42:12Z</time>
      </trkpt>
      <trkpt lat="60.0174848" lon="17.7341121">
        <ele>20.8057</ele>
        <time>2013-04-27T10:42:13Z</time>
      </trkpt>
      <trkpt lat="60.0175343" lon="17.7341367">
        <ele>20.8057</ele>
        <time>2013-04-27T10:42:14Z</time>
      </trkpt>
      <trkpt lat="60.0175843" lon="17.7341628">
        <ele>20.8057</ele>
        <time>2013-04-27T10:42:15Z</time>
      </trkpt>
      <trkpt lat="60.0176357" lon="17.7341887">
        <ele>20.8057</ele>
        <time>2013-04-27T10:42:16Z</time>
      </trkpt>
      <trkpt lat="60.017687" lon="17.7342199">
        <ele>20.8057</ele>
        <time>2013-04-27T10:42:17Z</time>
      </trkpt>
      <trkpt lat="60.0177381" lon="17.7342554">
        <ele>20.8057</ele>
        <time>2013-04-27T10:42:18Z</time>
      </trkpt>
      <trkpt lat="60.0177887" lon="17.7342928">
        <ele>20.8057</ele>
        <time>2013-04-27T10:42:19Z</time>
      </trkpt>
      <trkpt lat="60.0178389" lon="17.7343331">
        <ele>21.2864</ele>
        <time>2013-04-27T10:42:20Z</time>
      </trkpt>
      <trkpt lat="60.0178871" lon="17.7343761">
        <ele>21.2864</ele>
        <time>2013-04-27T10:42:21Z</time>
      </trkpt>
      <trkpt lat="60.0179335" lon="17.7344197">
        <ele>21.2864</ele>
        <time>2013-04-27T10:42:22Z</time>
      </trkpt>
      <trkpt lat="60.0179769" lon="17.7344659">
        <ele>21.767</ele>
        <time>2013-04-27T10:42:23Z</time>
      </trkpt>
      <trkpt lat="60.0180172" lon="17.7345126">
        <ele>21.2864</ele>
        <time>2013-04-27T10:42:24Z</time>
      </trkpt>
      <trkpt lat="60.0180575" lon="17.7345582">
        <ele>21.2864</ele>
        <time>2013-04-27T10:42:25Z</time>
      </trkpt>
      <trkpt lat="60.0180981" lon="17.7346037">
        <ele>21.2864</ele>
        <time>2013-04-27T10:42:26Z</time>
      </trkpt>
      <trkpt lat="60.0181385" lon="17.7346498">
        <ele>20.8057</ele>
        <time>2013-04-27T10:42:27Z</time>
      </trkpt>
      <trkpt lat="60.0181798" lon="17.734696">
        <ele>20.8057</ele>
        <time>2013-04-27T10:42:28Z</time>
      </trkpt>
      <trkpt lat="60.018223" lon="17.7347426">
        <ele>20.8057</ele>
        <time>2013-04-27T10:42:29Z</time>
      </trkpt>
      <trkpt lat="60.0182658" lon="17.73479">
        <ele>20.325</ele>
        <time>2013-04-27T10:42:30Z</time>
      </trkpt>
      <trkpt lat="60.018309" lon="17.7348366">
        <ele>20.325</ele>
        <time>2013-04-27T10:42:31Z</time>
      </trkpt>
      <trkpt lat="60.0183551" lon="17.7348826">
        <ele>20.325</ele>
        <time>2013-04-27T10:42:32Z</time>
      </trkpt>
      <trkpt lat="60.0184054" lon="17.73493">
        <ele>20.8057</ele>
        <time>2013-04-27T10:42:33Z</time>
      </trkpt>
      <trkpt lat="60.0184571" lon="17.734976">
        <ele>20.8057</ele>
        <time>2013-04-27T10:42:34Z</time>
      </trkpt>
      <trkpt lat="60.0185094" lon="17.7350218">
        <ele>20.8057</ele>
        <time>2013-04-27T10:42:35Z</time>
      </trkpt>
      <trkpt lat="60.0185602" lon="17.7350715">
        <ele>20.8057</ele>
        <time>2013-04-27T10:42:36Z</time>
      </trkpt>
      <trkpt lat="60.0186094" lon="17.7351253">
        <ele>20.8057</ele>
        <time>2013-04-27T10:42:37Z</time>
      </trkpt>
      <trkpt lat="60.0186584" lon="17.7351819">
        <ele>20.8057</ele>
        <time>2013-04-27T10:42:38Z</time>
      </trkpt>
      <trkpt lat="60.0187069" lon="17.7352413">
        <ele>20.8057</ele>
        <time>2013-04-27T10:42:39Z</time>
      </trkpt>
      <trkpt lat="60.0187545" lon="17.7353025">
        <ele>21.2864</ele>
        <time>2013-04-27T10:42:40Z</time>
      </trkpt>
      <trkpt lat="60.0188011" lon="17.7353651">
        <ele>21.2864</ele>
        <time>2013-04-27T10:42:41Z</time>
      </trkpt>
      <trkpt lat="60.0188476" lon="17.7354288">
        <ele>21.2864</ele>
        <time>2013-04-27T10:42:42Z</time>
      </trkpt>
      <trkpt lat="60.0188944" lon="17.7354955">
        <ele>21.2864</ele>
        <time>2013-04-27T10:42:43Z</time>
      </trkpt>
      <trkpt lat="60.018941" lon="17.7355621">
        <ele>21.767</ele>
        <time>2013-04-27T10:42:44Z</time>
      </trkpt>
      <trkpt lat="60.0189874" lon="17.7356291">
        <ele>21.767</ele>
        <time>2013-04-27T10:42:45Z</time>
      </trkpt>
      <trkpt lat="60.0190333" lon="17.7356966">
        <ele>21.767</ele>
        <time>2013-04-27T10:42:46Z</time>
      </trkpt>
      <trkpt lat="60.0190786" lon="17.735767">
        <ele>22.2476</ele>
        <time>2013-04-27T10:42:47Z</time>
      </trkpt>
      <trkpt lat="60.0191228" lon="17.7358391">
        <ele>22.2476</ele>
        <time>2013-04-27T10:42:48Z</time>
      </trkpt>
      <trkpt lat="60.0191679" lon="17.7359117">
        <ele>22.2476</ele>
        <time>2013-04-27T10:42:49Z</time>
      </trkpt>
      <trkpt lat="60.0192154" lon="17.7359811">
        <ele>22.2476</ele>
        <time>2013-04-27T10:42:50Z</time>
      </trkpt>
      <trkpt lat="60.0192632" lon="17.7360484">
        <ele>22.2476</ele>
        <time>2013-04-27T10:42:51Z</time>
      </trkpt>
      <trkpt lat="60.0193107" lon="17.7361171">
        <ele>23.209</ele>
        <time>2013-04-27T10:42:52Z</time>
      </trkpt>
      <trkpt lat="60.0193574" lon="17.736186">
        <ele>23.209</ele>
        <time>2013-04-27T10:42:53Z</time>
      </trkpt>
      <trkpt lat="60.019405" lon="17.7362533">
        <ele>23.6896</ele>
        <time>2013-04-27T10:42:54Z</time>
      </trkpt>
      <trkpt lat="60.0194527" lon="17.7363181">
        <ele>23.6896</ele>
        <time>2013-04-27T10:42:55Z</time>
      </trkpt>
      <trkpt lat="60.019501" lon="17.7363804">
        <ele>23.6896</ele>
        <time>2013-04-27T10:42:56Z</time>
      </trkpt>
      <trkpt lat="60.0195485" lon="17.7364437">
        <ele>24.1703</ele>
        <time>2013-04-27T10:42:57Z</time>
      </trkpt>
      <trkpt lat="60.0195968" lon="17.7365087">
        <ele>24.1703</ele>
        <time>2013-04-27T10:42:58Z</time>
      </trkpt>
      <trkpt lat="60.0196456" lon="17.736574">
        <ele>24.1703</ele>
        <time>2013-04-27T10:42:59Z</time>
      </trkpt>
      <trkpt lat="60.019694" lon="17.736641">
        <ele>24.1703</ele>
        <time>2013-04-27T10:43:00Z</time>
      </trkpt>
      <trkpt lat="60.0197422" lon="17.7367098">
        <ele>24.1703</ele>
        <time>2013-04-27T10:43:01Z</time>
      </trkpt>
      <trkpt lat="60.0197904" lon="17.7367832">
        <ele>24.651</ele>
        <time>2013-04-27T10:43:02Z</time>
      </trkpt>
      <trkpt lat="60.0198371" lon="17.7368632">
        <ele>24.651</ele>
        <time>2013-04-27T10:43:03Z</time>
      </trkpt>
      <trkpt lat="60.019881" lon="17.7369485">
        <ele>25.1317</ele>
        <time>2013-04-27T10:43:04Z</time>
      </trkpt>
      <trkpt lat="60.0199226" lon="17.7370373">
        <ele>25.1317</ele>
        <time>2013-04-27T10:43:05Z</time>
      </trkpt>
      <trkpt lat="60.0199602" lon="17.7371332">
        <ele>25.1317</ele>
        <time>2013-04-27T10:43:06Z</time>
      </trkpt>
      <trkpt lat="60.0199959" lon="17.7372357">
        <ele>25.6123</ele>
        <time>2013-04-27T10:43:07Z</time>
      </trkpt>
      <trkpt lat="60.0200275" lon="17.737339">
        <ele>25.6123</ele>
        <time>2013-04-27T10:43:08Z</time>
      </trkpt>
      <trkpt lat="60.0200573" lon="17.7374404">
        <ele>25.6123</ele>
        <time>2013-04-27T10:43:09Z</time>
      </trkpt>
      <trkpt lat="60.0200899" lon="17.7375427">
        <ele>26.0929</ele>
        <time>2013-04-27T10:43:10Z</time>
      </trkpt>
      <trkpt lat="60.0201199" lon="17.7376432">
        <ele>26.0929</ele>
        <time>2013-04-27T10:43:11Z</time>
      </trkpt>
      <trkpt lat="60.0201493" lon="17.7377442">
        <ele>26.0929</ele>
        <time>2013-04-27T10:43:12Z</time>
      </trkpt>
      <trkpt lat="60.020178" lon="17.7378448">
        <ele>26.0929</ele>
        <time>2013-04-27T10:43:13Z</time>
      </trkpt>
      <trkpt lat="60.0202065" lon="17.7379438">
        <ele>26.5736</ele>
        <time>2013-04-27T10:43:14Z</time>
      </trkpt>
      <trkpt lat="60.0202349" lon="17.7380446">
        <ele>26.5736</ele>
        <time>2013-04-27T10:43:15Z</time>
      </trkpt>
      <trkpt lat="60.020266" lon="17.7381454">
        <ele>27.0543</ele>
        <time>2013-04-27T10:43:16Z</time>
      </trkpt>
      <trkpt lat="60.0202981" lon="17.7382466">
        <ele>27.5349</ele>
        <time>2013-04-27T10:43:17Z</time>
      </trkpt>
      <trkpt lat="60.0203287" lon="17.7383466">
        <ele>27.0543</ele>
        <time>2013-04-27T10:43:18Z</time>
      </trkpt>
      <trkpt lat="60.0203639" lon="17.738444">
        <ele>27.5349</ele>
        <time>2013-04-27T10:43:19Z</time>
      </trkpt>
      <trkpt lat="60.0204016" lon="17.7385379">
        <ele>28.0155</ele>
        <time>2013-04-27T10:43:20Z</time>
      </trkpt>
      <trkpt lat="60.0204401" lon="17.738628">
        <ele>28.0155</ele>
        <time>2013-04-27T10:43:21Z</time>
      </trkpt>
      <trkpt lat="60.0204823" lon="17.7387156">
        <ele>28.9769</ele>
        <time>2013-04-27T10:43:22Z</time>
      </trkpt>
      <trkpt lat="60.0205235" lon="17.7388004">
        <ele>28.9769</ele>
        <time>2013-04-27T10:43:23Z</time>
      </trkpt>
      <trkpt lat="60.0205649" lon="17.7388814">
        <ele>29.4575</ele>
        <time>2013-04-27T10:43:24Z</time>
      </trkpt>
      <trkpt lat="60.0206074" lon="17.7389586">
        <ele>29.9381</ele>
        <time>2013-04-27T10:43:25Z</time>
      </trkpt>
      <trkpt lat="60.0206508" lon="17.7390336">
        <ele>29.9381</ele>
        <time>2013-04-27T10:43:26Z</time>
      </trkpt>
      <trkpt lat="60.020695" lon="17.7391078">
        <ele>30.4188</ele>
        <time>2013-04-27T10:43:27Z</time>
      </trkpt>
      <trkpt lat="60.0207401" lon="17.7391799">
        <ele>30.8995</ele>
        <time>2013-04-27T10:43:28Z</time>
      </trkpt>
      <trkpt lat="60.0207851" lon="17.7392493">
        <ele>30.8995</ele>
        <time>2013-04-27T10:43:29Z</time>
      </trkpt>
      <trkpt lat="60.0208311" lon="17.7393066">
        <ele>31.3801</ele>
        <time>2013-04-27T10:43:30Z</time>
      </trkpt>
      <trkpt lat="60.0208791" lon="17.7393693">
        <ele>31.3801</ele>
        <time>2013-04-27T10:43:31Z</time>
      </trkpt>
      <trkpt lat="60.0209285" lon="17.739431">
        <ele>31.8607</ele>
        <time>2013-04-27T10:43:32Z</time>
      </trkpt>
      <trkpt lat="60.0209782" lon="17.7394911">
        <ele>32.3416</ele>
        <time>2013-04-27T10:43:33Z</time>
      </trkpt>
      <trkpt lat="60.0210285" lon="17.7395494">
        <ele>32.8223</ele>
        <time>2013-04-27T10:43:34Z</time>
      </trkpt>
      <trkpt lat="60.0210803" lon="17.7396055">
        <ele>32.8223</ele>
        <time>2013-04-27T10:43:35Z</time>
      </trkpt>
      <trkpt lat="60.0211333" lon="17.7396621">
        <ele>33.3029</ele>
        <time>2013-04-27T10:43:36Z</time>
      </trkpt>
      <trkpt lat="60.0211864" lon="17.7397205">
        <ele>33.7834</ele>
        <time>2013-04-27T10:43:37Z</time>
      </trkpt>
      <trkpt lat="60.0212393" lon="17.7397789">
        <ele>34.2642</ele>
        <time>2013-04-27T10:43:38Z</time>
      </trkpt>
      <trkpt lat="60.0212922" lon="17.7398393">
        <ele>34.7449</ele>
        <time>2013-04-27T10:43:39Z</time>
      </trkpt>
      <trkpt lat="60.0213461" lon="17.7399024">
        <ele>34.7449</ele>
        <time>2013-04-27T10:43:40Z</time>
      </trkpt>
      <trkpt lat="60.0214016" lon="17.7399625">
        <ele>35.2255</ele>
        <time>2013-04-27T10:43:41Z</time>
      </trkpt>
      <trkpt lat="60.0214555" lon="17.7400213">
        <ele>35.2255</ele>
        <time>2013-04-27T10:43:42Z</time>
      </trkpt>
      <trkpt lat="60.0215149" lon="17.7400661">
        <ele>35.7061</ele>
        <time>2013-04-27T10:43:43Z</time>
      </trkpt>
      <trkpt lat="60.0215715" lon="17.7401184">
        <ele>36.1868</ele>
        <time>2013-04-27T10:43:44Z</time>
      </trkpt>
      <trkpt lat="60.0216211" lon="17.7401677">
        <ele>36.6675</ele>
        <time>2013-04-27T10:43:45Z</time>
      </trkpt>
      <trkpt lat="60.0216678" lon="17.740226">
        <ele>36.6675</ele>
        <time>2013-04-27T10:43:46Z</time>
      </trkpt>
      <trkpt lat="60.0217183" lon="17.740282">
        <ele>37.1481</ele>
        <time>2013-04-27T10:43:47Z</time>
      </trkpt>
      <trkpt lat="60.0217676" lon="17.7403442">
        <ele>37.6287</ele>
        <time>2013-04-27T10:43:48Z</time>
      </trkpt>
      <trkpt lat="60.021818" lon="17.7403914">
        <ele>37.6287</ele>
        <time>2013-04-27T10:43:49Z</time>
      </trkpt>
      <trkpt lat="60.0218682" lon="17.7404397">
        <ele>37.6287</ele>
        <time>2013-04-27T10:43:50Z</time>
      </trkpt>
      <trkpt lat="60.021919" lon="17.7404934">
        <ele>37.6287</ele>
        <time>2013-04-27T10:43:51Z</time>
      </trkpt>
      <trkpt lat="60.0219703" lon="17.7405487">
        <ele>37.6287</ele>
        <time>2013-04-27T10:43:52Z</time>
      </trkpt>
      <trkpt lat="60.0220065" lon="17.7405963">
        <ele>36.6675</ele>
        <time>2013-04-27T10:43:53Z</time>
      </trkpt>
      <trkpt lat="60.0220629" lon="17.7406752">
        <ele>36.1868</ele>
        <time>2013-04-27T10:43:54Z</time>
      </trkpt>
      <trkpt lat="60.0221117" lon="17.7407161">
        <ele>36.6675</ele>
        <time>2013-04-27T10:43:55Z</time>
      </trkpt>
      <trkpt lat="60.0221571" lon="17.7407703">
        <ele>36.6675</ele>
        <time>2013-04-27T10:43:56Z</time>
      </trkpt>
      <trkpt lat="60.0222023" lon="17.7408264">
        <ele>36.6675</ele>
        <time>2013-04-27T10:43:57Z</time>
      </trkpt>
      <trkpt lat="60.0222474" lon="17.7408855">
        <ele>37.1481</ele>
        <time>2013-04-27T10:43:58Z</time>
      </trkpt>
      <trkpt lat="60.0222917" lon="17.7409491">
        <ele>37.1481</ele>
        <time>2013-04-27T10:43:59Z</time>
      </trkpt>
      <trkpt lat="60.0223348" lon="17.7410157">
        <ele>37.1481</ele>
        <time>2013-04-27T10:44:00Z</time>
      </trkpt>
      <trkpt lat="60.0223764" lon="17.7410827">
        <ele>37.1481</ele>
        <time>2013-04-27T10:44:01Z</time>
      </trkpt>
      <trkpt lat="60.0224187" lon="17.7411486">
        <ele>37.1481</ele>
        <time>2013-04-27T10:44:02Z</time>
      </trkpt>
      <trkpt lat="60.0224644" lon="17.7412083">
        <ele>37.6287</ele>
        <time>2013-04-27T10:44:03Z</time>
      </trkpt>
      <trkpt lat="60.0225121" lon="17.7412475">
        <ele>36.6675</ele>
        <time>2013-04-27T10:44:04Z</time>
      </trkpt>
      <trkpt lat="60.0225596" lon="17.7412386">
        <ele>35.7061</ele>
        <time>2013-04-27T10:44:05Z</time>
      </trkpt>
      <trkpt lat="60.0226049" lon="17.7411849">
        <ele>36.1868</ele>
        <time>2013-04-27T10:44:06Z</time>
      </trkpt>
      <trkpt lat="60.0226394" lon="17.7411062">
        <ele>35.7061</ele>
        <time>2013-04-27T10:44:07Z</time>
      </trkpt>
      <trkpt lat="60.0226659" lon="17.7410114">
        <ele>35.7061</ele>
        <time>2013-04-27T10:44:08Z</time>
      </trkpt>
      <trkpt lat="60.0226814" lon="17.7409074">
        <ele>35.7061</ele>
        <time>2013-04-27T10:44:09Z</time>
      </trkpt>
      <trkpt lat="60.0226901" lon="17.740797">
        <ele>35.2255</ele>
        <time>2013-04-27T10:44:10Z</time>
      </trkpt>
      <trkpt lat="60.0227007" lon="17.7406891">
        <ele>35.2255</ele>
        <time>2013-04-27T10:44:11Z</time>
      </trkpt>
      <trkpt lat="60.0227109" lon="17.7405779">
        <ele>35.2255</ele>
        <time>2013-04-27T10:44:12Z</time>
      </trkpt>
      <trkpt lat="60.0227215" lon="17.7404546">
        <ele>35.2255</ele>
        <time>2013-04-27T10:44:13Z</time>
      </trkpt>
      <trkpt lat="60.0227316" lon="17.7403255">
        <ele>34.7449</ele>
        <time>2013-04-27T10:44:14Z</time>
      </trkpt>
      <trkpt lat="60.0227417" lon="17.7401925">
        <ele>34.7449</ele>
        <time>2013-04-27T10:44:15Z</time>
      </trkpt>
      <trkpt lat="60.0227515" lon="17.7400531">
        <ele>34.2642</ele>
        <time>2013-04-27T10:44:16Z</time>
      </trkpt>
      <trkpt lat="60.0227602" lon="17.7399074">
        <ele>33.7834</ele>
        <time>2013-04-27T10:44:17Z</time>
      </trkpt>
      <trkpt lat="60.02277" lon="17.7397579">
        <ele>33.7834</ele>
        <time>2013-04-27T10:44:18Z</time>
      </trkpt>
      <trkpt lat="60.0227805" lon="17.73961">
        <ele>33.3029</ele>
        <time>2013-04-27T10:44:19Z</time>
      </trkpt>
      <trkpt lat="60.0227922" lon="17.7394609">
        <ele>33.3029</ele>
        <time>2013-04-27T10:44:20Z</time>
      </trkpt>
      <trkpt lat="60.0228046" lon="17.7393108">
        <ele>32.8223</ele>
        <time>2013-04-27T10:44:21Z</time>
      </trkpt>
      <trkpt lat="60.0228161" lon="17.739161">
        <ele>32.8223</ele>
        <time>2013-04-27T10:44:22Z</time>
      </trkpt>
      <trkpt lat="60.022827" lon="17.7390119">
        <ele>32.8223</ele>
        <time>2013-04-27T10:44:23Z</time>
      </trkpt>
      <trkpt lat="60.0228383" lon="17.7388622">
        <ele>32.3416</ele>
        <time>2013-04-27T10:44:24Z</time>
      </trkpt>
      <trkpt lat="60.0228498" lon="17.7387115">
        <ele>31.8607</ele>
        <time>2013-04-27T10:44:25Z</time>
      </trkpt>
      <trkpt lat="60.0228614" lon="17.7385608">
        <ele>31.8607</ele>
        <time>2013-04-27T10:44:26Z</time>
      </trkpt>
      <trkpt lat="60.022874" lon="17.7384099">
        <ele>31.3801</ele>
        <time>2013-04-27T10:44:27Z</time>
      </trkpt>
      <trkpt lat="60.0228867" lon="17.738258">
        <ele>31.3801</ele>
        <time>2013-04-27T10:44:28Z</time>
      </trkpt>
      <trkpt lat="60.0228992" lon="17.7381044">
        <ele>30.8995</ele>
        <time>2013-04-27T10:44:29Z</time>
      </trkpt>
      <trkpt lat="60.0229115" lon="17.737951">
        <ele>30.4188</ele>
        <time>2013-04-27T10:44:30Z</time>
      </trkpt>
      <trkpt lat="60.0229248" lon="17.7377992">
        <ele>30.4188</ele>
        <time>2013-04-27T10:44:31Z</time>
      </trkpt>
      <trkpt lat="60.022938" lon="17.7376475">
        <ele>29.9381</ele>
        <time>2013-04-27T10:44:32Z</time>
      </trkpt>
      <trkpt lat="60.0229504" lon="17.7374957">
        <ele>29.4575</ele>
        <time>2013-04-27T10:44:33Z</time>
      </trkpt>
      <trkpt lat="60.0229622" lon="17.7373449">
        <ele>28.9769</ele>
        <time>2013-04-27T10:44:34Z</time>
      </trkpt>
      <trkpt lat="60.0229735" lon="17.7371963">
        <ele>28.4962</ele>
        <time>2013-04-27T10:44:35Z</time>
      </trkpt>
      <trkpt lat="60.022985" lon="17.7370501">
        <ele>28.4962</ele>
        <time>2013-04-27T10:44:36Z</time>
      </trkpt>
      <trkpt lat="60.0229957" lon="17.7369067">
        <ele>28.4962</ele>
        <time>2013-04-27T10:44:37Z</time>
      </trkpt>
      <trkpt lat="60.0230057" lon="17.7367667">
        <ele>28.4962</ele>
        <time>2013-04-27T10:44:38Z</time>
      </trkpt>
      <trkpt lat="60.0230167" lon="17.7366306">
        <ele>28.9769</ele>
        <time>2013-04-27T10:44:39Z</time>
      </trkpt>
      <trkpt lat="60.0230273" lon="17.7364964">
        <ele>28.4962</ele>
        <time>2013-04-27T10:44:40Z</time>
      </trkpt>
      <trkpt lat="60.0230372" lon="17.7363613">
        <ele>28.4962</ele>
        <time>2013-04-27T10:44:41Z</time>
      </trkpt>
      <trkpt lat="60.0230477" lon="17.7362308">
        <ele>28.4962</ele>
        <time>2013-04-27T10:44:42Z</time>
      </trkpt>
      <trkpt lat="60.0230581" lon="17.7361006">
        <ele>28.9769</ele>
        <time>2013-04-27T10:44:43Z</time>
      </trkpt>
      <trkpt lat="60.0230683" lon="17.7359705">
        <ele>28.9769</ele>
        <time>2013-04-27T10:44:44Z</time>
      </trkpt>
      <trkpt lat="60.0230783" lon="17.7358441">
        <ele>28.9769</ele>
        <time>2013-04-27T10:44:45Z</time>
      </trkpt>
      <trkpt lat="60.0230895" lon="17.7357198">
        <ele>28.9769</ele>
        <time>2013-04-27T10:44:46Z</time>
      </trkpt>
      <trkpt lat="60.0231022" lon="17.735594">
        <ele>28.9769</ele>
        <time>2013-04-27T10:44:47Z</time>
      </trkpt>
      <trkpt lat="60.0231146" lon="17.7354692">
        <ele>28.9769</ele>
        <time>2013-04-27T10:44:48Z</time>
      </trkpt>
      <trkpt lat="60.0231252" lon="17.7353461">
        <ele>28.9769</ele>
        <time>2013-04-27T10:44:49Z</time>
      </trkpt>
      <trkpt lat="60.0231364" lon="17.7352259">
        <ele>28.9769</ele>
        <time>2013-04-27T10:44:50Z</time>
      </trkpt>
      <trkpt lat="60.0231483" lon="17.7351061">
        <ele>28.9769</ele>
        <time>2013-04-27T10:44:51Z</time>
      </trkpt>
      <trkpt lat="60.0231606" lon="17.7349868">
        <ele>28.9769</ele>
        <time>2013-04-27T10:44:52Z</time>
      </trkpt>
      <trkpt lat="60.0231731" lon="17.7348693">
        <ele>29.4575</ele>
        <time>2013-04-27T10:44:53Z</time>
      </trkpt>
      <trkpt lat="60.0231865" lon="17.7347533">
        <ele>29.4575</ele>
        <time>2013-04-27T10:44:54Z</time>
      </trkpt>
      <trkpt lat="60.023201" lon="17.7346392">
        <ele>29.4575</ele>
        <time>2013-04-27T10:44:55Z</time>
      </trkpt>
      <trkpt lat="60.023215" lon="17.734526">
        <ele>29.4575</ele>
        <time>2013-04-27T10:44:56Z</time>
      </trkpt>
      <trkpt lat="60.0232289" lon="17.7344135">
        <ele>29.4575</ele>
        <time>2013-04-27T10:44:57Z</time>
      </trkpt>
      <trkpt lat="60.0232435" lon="17.7343011">
        <ele>29.9381</ele>
        <time>2013-04-27T10:44:58Z</time>
      </trkpt>
      <trkpt lat="60.0232585" lon="17.7341878">
        <ele>29.9381</ele>
        <time>2013-04-27T10:44:59Z</time>
      </trkpt>
      <trkpt lat="60.023274" lon="17.7340764">
        <ele>29.9381</ele>
        <time>2013-04-27T10:45:00Z</time>
      </trkpt>
      <trkpt lat="60.0232891" lon="17.7339674">
        <ele>29.9381</ele>
        <time>2013-04-27T10:45:01Z</time>
      </trkpt>
      <trkpt lat="60.023303" lon="17.7338583">
        <ele>30.4188</ele>
        <time>2013-04-27T10:45:02Z</time>
      </trkpt>
      <trkpt lat="60.0233176" lon="17.7337488">
        <ele>30.4188</ele>
        <time>2013-04-27T10:45:03Z</time>
      </trkpt>
      <trkpt lat="60.0233332" lon="17.7336381">
        <ele>30.4188</ele>
        <time>2013-04-27T10:45:04Z</time>
      </trkpt>
      <trkpt lat="60.0233471" lon="17.7335267">
        <ele>30.4188</ele>
        <time>2013-04-27T10:45:05Z</time>
      </trkpt>
      <trkpt lat="60.0233595" lon="17.7334154">
        <ele>30.4188</ele>
        <time>2013-04-27T10:45:06Z</time>
      </trkpt>
      <trkpt lat="60.0233705" lon="17.7333046">
        <ele>29.9381</ele>
        <time>2013-04-27T10:45:07Z</time>
      </trkpt>
      <trkpt lat="60.0233798" lon="17.7331932">
        <ele>30.4188</ele>
        <time>2013-04-27T10:45:08Z</time>
      </trkpt>
      <trkpt lat="60.023387" lon="17.7330832">
        <ele>30.4188</ele>
        <time>2013-04-27T10:45:09Z</time>
      </trkpt>
      <trkpt lat="60.0233907" lon="17.7329709">
        <ele>30.4188</ele>
        <time>2013-04-27T10:45:10Z</time>
      </trkpt>
      <trkpt lat="60.0233907" lon="17.7328585">
        <ele>30.8995</ele>
        <time>2013-04-27T10:45:11Z</time>
      </trkpt>
      <trkpt lat="60.0233866" lon="17.7327498">
        <ele>31.3801</ele>
        <time>2013-04-27T10:45:12Z</time>
      </trkpt>
      <trkpt lat="60.0233781" lon="17.7326455">
        <ele>31.3801</ele>
        <time>2013-04-27T10:45:13Z</time>
      </trkpt>
      <trkpt lat="60.0233664" lon="17.7325425">
        <ele>31.8607</ele>
        <time>2013-04-27T10:45:14Z</time>
      </trkpt>
      <trkpt lat="60.0233518" lon="17.7324373">
        <ele>31.8607</ele>
        <time>2013-04-27T10:45:15Z</time>
      </trkpt>
      <trkpt lat="60.0233338" lon="17.7323311">
        <ele>32.3416</ele>
        <time>2013-04-27T10:45:16Z</time>
      </trkpt>
      <trkpt lat="60.023312" lon="17.7322225">
        <ele>32.3416</ele>
        <time>2013-04-27T10:45:17Z</time>
      </trkpt>
      <trkpt lat="60.0232866" lon="17.7321135">
        <ele>31.8607</ele>
        <time>2013-04-27T10:45:18Z</time>
      </trkpt>
      <trkpt lat="60.0232584" lon="17.7320098">
        <ele>31.3801</ele>
        <time>2013-04-27T10:45:19Z</time>
      </trkpt>
      <trkpt lat="60.0232258" lon="17.731913">
        <ele>29.9381</ele>
        <time>2013-04-27T10:45:20Z</time>
      </trkpt>
      <trkpt lat="60.0231941" lon="17.7318168">
        <ele>30.4188</ele>
        <time>2013-04-27T10:45:21Z</time>
      </trkpt>
      <trkpt lat="60.0231582" lon="17.7317217">
        <ele>29.9381</ele>
        <time>2013-04-27T10:45:22Z</time>
      </trkpt>
      <trkpt lat="60.0231177" lon="17.7316302">
        <ele>30.4188</ele>
        <time>2013-04-27T10:45:23Z</time>
      </trkpt>
      <trkpt lat="60.0230757" lon="17.7315375">
        <ele>29.9381</ele>
        <time>2013-04-27T10:45:24Z</time>
      </trkpt>
      <trkpt lat="60.0230322" lon="17.7314402">
        <ele>28.9769</ele>
        <time>2013-04-27T10:45:25Z</time>
      </trkpt>
      <trkpt lat="60.0229885" lon="17.7313406">
        <ele>28.4962</ele>
        <time>2013-04-27T10:45:26Z</time>
      </trkpt>
      <trkpt lat="60.022943" lon="17.7312392">
        <ele>28.4962</ele>
        <time>2013-04-27T10:45:27Z</time>
      </trkpt>
      <trkpt lat="60.0228966" lon="17.7311356">
        <ele>28.0155</ele>
        <time>2013-04-27T10:45:28Z</time>
      </trkpt>
      <trkpt lat="60.0228491" lon="17.7310297">
        <ele>28.0155</ele>
        <time>2013-04-27T10:45:29Z</time>
      </trkpt>
      <trkpt lat="60.0228018" lon="17.7309199">
        <ele>27.5349</ele>
        <time>2013-04-27T10:45:30Z</time>
      </trkpt>
      <trkpt lat="60.022753" lon="17.7308073">
        <ele>27.0543</ele>
        <time>2013-04-27T10:45:31Z</time>
      </trkpt>
      <trkpt lat="60.0227018" lon="17.7306932">
        <ele>26.5736</ele>
        <time>2013-04-27T10:45:32Z</time>
      </trkpt>
      <trkpt lat="60.0226509" lon="17.7305708">
        <ele>26.0929</ele>
        <time>2013-04-27T10:45:33Z</time>
      </trkpt>
      <trkpt lat="60.0226031" lon="17.730433">
        <ele>25.6123</ele>
        <time>2013-04-27T10:45:34Z</time>
      </trkpt>
      <trkpt lat="60.0225568" lon="17.7302809">
        <ele>25.1317</ele>
        <time>2013-04-27T10:45:35Z</time>
      </trkpt>
      <trkpt lat="60.0225151" lon="17.7301223">
        <ele>25.1317</ele>
        <time>2013-04-27T10:45:36Z</time>
      </trkpt>
      <trkpt lat="60.022481" lon="17.7299699">
        <ele>23.6896</ele>
        <time>2013-04-27T10:45:37Z</time>
      </trkpt>
      <trkpt lat="60.0224416" lon="17.7297886">
        <ele>23.6896</ele>
        <time>2013-04-27T10:45:38Z</time>
      </trkpt>
      <trkpt lat="60.0224254" lon="17.7296023">
        <ele>23.6896</ele>
        <time>2013-04-27T10:45:39Z</time>
      </trkpt>
      <trkpt lat="60.0223981" lon="17.7294422">
        <ele>23.209</ele>
        <time>2013-04-27T10:45:40Z</time>
      </trkpt>
      <trkpt lat="60.0223893" lon="17.7292824">
        <ele>23.209</ele>
        <time>2013-04-27T10:45:41Z</time>
      </trkpt>
      <trkpt lat="60.0223852" lon="17.7291334">
        <ele>23.6896</ele>
        <time>2013-04-27T10:45:42Z</time>
      </trkpt>
      <trkpt lat="60.0223884" lon="17.7289884">
        <ele>24.1703</ele>
        <time>2013-04-27T10:45:43Z</time>
      </trkpt>
      <trkpt lat="60.0223934" lon="17.7288541">
        <ele>24.651</ele>
        <time>2013-04-27T10:45:44Z</time>
      </trkpt>
      <trkpt lat="60.022398" lon="17.7287303">
        <ele>25.1317</ele>
        <time>2013-04-27T10:45:45Z</time>
      </trkpt>
      <trkpt lat="60.022407" lon="17.7286138">
        <ele>25.6123</ele>
        <time>2013-04-27T10:45:46Z</time>
      </trkpt>
      <trkpt lat="60.0224112" lon="17.7285061">
        <ele>26.0929</ele>
        <time>2013-04-27T10:45:47Z</time>
      </trkpt>
      <trkpt lat="60.0224178" lon="17.728399">
        <ele>26.0929</ele>
        <time>2013-04-27T10:45:48Z</time>
      </trkpt>
      <trkpt lat="60.0224241" lon="17.7282964">
        <ele>26.5736</ele>
        <time>2013-04-27T10:45:49Z</time>
      </trkpt>
      <trkpt lat="60.0224308" lon="17.7281999">
        <ele>26.5736</ele>
        <time>2013-04-27T10:45:50Z</time>
      </trkpt>
      <trkpt lat="60.0224358" lon="17.7281034">
        <ele>27.0543</ele>
        <time>2013-04-27T10:45:51Z</time>
      </trkpt>
      <trkpt lat="60.0224401" lon="17.7280048">
        <ele>26.5736</ele>
        <time>2013-04-27T10:45:52Z</time>
      </trkpt>
      <trkpt lat="60.0224446" lon="17.7279014">
        <ele>26.5736</ele>
        <time>2013-04-27T10:45:53Z</time>
      </trkpt>
      <trkpt lat="60.0224497" lon="17.7277975">
        <ele>27.0543</ele>
        <time>2013-04-27T10:45:54Z</time>
      </trkpt>
      <trkpt lat="60.0224566" lon="17.7276922">
        <ele>26.5736</ele>
        <time>2013-04-27T10:45:55Z</time>
      </trkpt>
      <trkpt lat="60.0224625" lon="17.7275854">
        <ele>26.5736</ele>
        <time>2013-04-27T10:45:56Z</time>
      </trkpt>
      <trkpt lat="60.0224659" lon="17.7274775">
        <ele>27.0543</ele>
        <time>2013-04-27T10:45:57Z</time>
      </trkpt>
      <trkpt lat="60.0224674" lon="17.7273799">
        <ele>27.0543</ele>
        <time>2013-04-27T10:45:58Z</time>
      </trkpt>
      <trkpt lat="60.0224679" lon="17.7272763">
        <ele>26.5736</ele>
        <time>2013-04-27T10:45:59Z</time>
      </trkpt>
      <trkpt lat="60.022466" lon="17.7271661">
        <ele>26.0929</ele>
        <time>2013-04-27T10:46:00Z</time>
      </trkpt>
      <trkpt lat="60.0224639" lon="17.7270534">
        <ele>26.0929</ele>
        <time>2013-04-27T10:46:01Z</time>
      </trkpt>
      <trkpt lat="60.022464" lon="17.7269377">
        <ele>25.6123</ele>
        <time>2013-04-27T10:46:02Z</time>
      </trkpt>
      <trkpt lat="60.0224608" lon="17.7268126">
        <ele>25.6123</ele>
        <time>2013-04-27T10:46:03Z</time>
      </trkpt>
      <trkpt lat="60.0224556" lon="17.7266886">
        <ele>25.6123</ele>
        <time>2013-04-27T10:46:04Z</time>
      </trkpt>
      <trkpt lat="60.0224505" lon="17.7265667">
        <ele>25.6123</ele>
        <time>2013-04-27T10:46:05Z</time>
      </trkpt>
      <trkpt lat="60.0224453" lon="17.7264434">
        <ele>25.6123</ele>
        <time>2013-04-27T10:46:06Z</time>
      </trkpt>
      <trkpt lat="60.022438" lon="17.7263075">
        <ele>25.6123</ele>
        <time>2013-04-27T10:46:07Z</time>
      </trkpt>
      <trkpt lat="60.0224299" lon="17.7261772">
        <ele>25.6123</ele>
        <time>2013-04-27T10:46:08Z</time>
      </trkpt>
      <trkpt lat="60.0224235" lon="17.7260564">
        <ele>24.1703</ele>
        <time>2013-04-27T10:46:09Z</time>
      </trkpt>
      <trkpt lat="60.0224164" lon="17.7259379">
        <ele>23.6896</ele>
        <time>2013-04-27T10:46:10Z</time>
      </trkpt>
      <trkpt lat="60.022407" lon="17.725809">
        <ele>22.7283</ele>
        <time>2013-04-27T10:46:11Z</time>
      </trkpt>
      <trkpt lat="60.0223961" lon="17.7256745">
        <ele>22.2476</ele>
        <time>2013-04-27T10:46:12Z</time>
      </trkpt>
      <trkpt lat="60.022385" lon="17.7255417">
        <ele>21.2864</ele>
        <time>2013-04-27T10:46:13Z</time>
      </trkpt>
      <trkpt lat="60.0223722" lon="17.7254125">
        <ele>20.8057</ele>
        <time>2013-04-27T10:46:14Z</time>
      </trkpt>
      <trkpt lat="60.0223599" lon="17.7252848">
        <ele>20.325</ele>
        <time>2013-04-27T10:46:15Z</time>
      </trkpt>
      <trkpt lat="60.0223485" lon="17.7251619">
        <ele>19.8444</ele>
        <time>2013-04-27T10:46:16Z</time>
      </trkpt>
      <trkpt lat="60.022336" lon="17.7250386">
        <ele>19.8444</ele>
        <time>2013-04-27T10:46:17Z</time>
      </trkpt>
      <trkpt lat="60.022323" lon="17.7249163">
        <ele>19.3638</ele>
        <time>2013-04-27T10:46:18Z</time>
      </trkpt>
      <trkpt lat="60.0223111" lon="17.7247965">
        <ele>19.3638</ele>
        <time>2013-04-27T10:46:19Z</time>
      </trkpt>
      <trkpt lat="60.0222991" lon="17.7246771">
        <ele>19.3638</ele>
        <time>2013-04-27T10:46:20Z</time>
      </trkpt>
      <trkpt lat="60.0222857" lon="17.7245587">
        <ele>19.3638</ele>
        <time>2013-04-27T10:46:21Z</time>
      </trkpt>
      <trkpt lat="60.0222724" lon="17.7244424">
        <ele>18.8831</ele>
        <time>2013-04-27T10:46:22Z</time>
      </trkpt>
      <trkpt lat="60.0222601" lon="17.7243279">
        <ele>18.8831</ele>
        <time>2013-04-27T10:46:23Z</time>
      </trkpt>
      <trkpt lat="60.0222486" lon="17.7242138">
        <ele>19.3638</ele>
        <time>2013-04-27T10:46:24Z</time>
      </trkpt>
      <trkpt lat="60.0222385" lon="17.7241031">
        <ele>19.3638</ele>
        <time>2013-04-27T10:46:25Z</time>
      </trkpt>
      <trkpt lat="60.022227" lon="17.7239923">
        <ele>18.8831</ele>
        <time>2013-04-27T10:46:26Z</time>
      </trkpt>
      <trkpt lat="60.0222144" lon="17.7238783">
        <ele>18.8831</ele>
        <time>2013-04-27T10:46:27Z</time>
      </trkpt>
      <trkpt lat="60.0222027" lon="17.7237644">
        <ele>18.4023</ele>
        <time>2013-04-27T10:46:28Z</time>
      </trkpt>
      <trkpt lat="60.0221918" lon="17.723654">
        <ele>18.4023</ele>
        <time>2013-04-27T10:46:29Z</time>
      </trkpt>
      <trkpt lat="60.0221806" lon="17.7235437">
        <ele>18.8831</ele>
        <time>2013-04-27T10:46:30Z</time>
      </trkpt>
      <trkpt lat="60.02217" lon="17.7234333">
        <ele>19.3638</ele>
        <time>2013-04-27T10:46:31Z</time>
      </trkpt>
      <trkpt lat="60.0221593" lon="17.7233261">
        <ele>19.8444</ele>
        <time>2013-04-27T10:46:32Z</time>
      </trkpt>
      <trkpt lat="60.0221488" lon="17.7232219">
        <ele>19.8444</ele>
        <time>2013-04-27T10:46:33Z</time>
      </trkpt>
      <trkpt lat="60.0221376" lon="17.7231198">
        <ele>20.325</ele>
        <time>2013-04-27T10:46:34Z</time>
      </trkpt>
      <trkpt lat="60.0221267" lon="17.7230178">
        <ele>20.325</ele>
        <time>2013-04-27T10:46:35Z</time>
      </trkpt>
      <trkpt lat="60.0221158" lon="17.7229179">
        <ele>20.8057</ele>
        <time>2013-04-27T10:46:36Z</time>
      </trkpt>
      <trkpt lat="60.0221045" lon="17.7228194">
        <ele>20.8057</ele>
        <time>2013-04-27T10:46:37Z</time>
      </trkpt>
      <trkpt lat="60.0220925" lon="17.7227195">
        <ele>21.2864</ele>
        <time>2013-04-27T10:46:38Z</time>
      </trkpt>
      <trkpt lat="60.02208" lon="17.722621">
        <ele>21.2864</ele>
        <time>2013-04-27T10:46:39Z</time>
      </trkpt>
      <trkpt lat="60.0220676" lon="17.7225245">
        <ele>21.2864</ele>
        <time>2013-04-27T10:46:40Z</time>
      </trkpt>
      <trkpt lat="60.0220547" lon="17.7224247">
        <ele>21.767</ele>
        <time>2013-04-27T10:46:41Z</time>
      </trkpt>
      <trkpt lat="60.0220387" lon="17.7223262">
        <ele>22.2476</ele>
        <time>2013-04-27T10:46:42Z</time>
      </trkpt>
      <trkpt lat="60.0220179" lon="17.7222284">
        <ele>22.2476</ele>
        <time>2013-04-27T10:46:43Z</time>
      </trkpt>
      <trkpt lat="60.0219927" lon="17.7221324">
        <ele>22.7283</ele>
        <time>2013-04-27T10:46:44Z</time>
      </trkpt>
      <trkpt lat="60.0219625" lon="17.7220394">
        <ele>23.209</ele>
        <time>2013-04-27T10:46:45Z</time>
      </trkpt>
      <trkpt lat="60.0219262" lon="17.721948">
        <ele>23.6896</ele>
        <time>2013-04-27T10:46:46Z</time>
      </trkpt>
      <trkpt lat="60.0218869" lon="17.7218611">
        <ele>24.651</ele>
        <time>2013-04-27T10:46:47Z</time>
      </trkpt>
      <trkpt lat="60.0218433" lon="17.7217833">
        <ele>25.6123</ele>
        <time>2013-04-27T10:46:48Z</time>
      </trkpt>
      <trkpt lat="60.0217956" lon="17.721717">
        <ele>26.0929</ele>
        <time>2013-04-27T10:46:49Z</time>
      </trkpt>
      <trkpt lat="60.0217445" lon="17.7216626">
        <ele>26.5736</ele>
        <time>2013-04-27T10:46:50Z</time>
      </trkpt>
      <trkpt lat="60.0216901" lon="17.7216155">
        <ele>27.0543</ele>
        <time>2013-04-27T10:46:51Z</time>
      </trkpt>
      <trkpt lat="60.0216332" lon="17.7215762">
        <ele>27.5349</ele>
        <time>2013-04-27T10:46:52Z</time>
      </trkpt>
      <trkpt lat="60.0215753" lon="17.7215489">
        <ele>28.0155</ele>
        <time>2013-04-27T10:46:53Z</time>
      </trkpt>
      <trkpt lat="60.021518" lon="17.7215268">
        <ele>28.4962</ele>
        <time>2013-04-27T10:46:54Z</time>
      </trkpt>
      <trkpt lat="60.0214611" lon="17.7215071">
        <ele>28.4962</ele>
        <time>2013-04-27T10:46:55Z</time>
      </trkpt>
      <trkpt lat="60.021404" lon="17.7214918">
        <ele>28.9769</ele>
        <time>2013-04-27T10:46:56Z</time>
      </trkpt>
      <trkpt lat="60.0213464" lon="17.7214799">
        <ele>28.9769</ele>
        <time>2013-04-27T10:46:57Z</time>
      </trkpt>
      <trkpt lat="60.0212879" lon="17.721467">
        <ele>28.9769</ele>
        <time>2013-04-27T10:46:58Z</time>
      </trkpt>
      <trkpt lat="60.0212295" lon="17.7214518">
        <ele>29.4575</ele>
        <time>2013-04-27T10:46:59Z</time>
      </trkpt>
      <trkpt lat="60.0211709" lon="17.7214356">
        <ele>29.4575</ele>
        <time>2013-04-27T10:47:00Z</time>
      </trkpt>
      <trkpt lat="60.0211117" lon="17.7214219">
        <ele>29.4575</ele>
        <time>2013-04-27T10:47:01Z</time>
      </trkpt>
      <trkpt lat="60.0210528" lon="17.721411">
        <ele>29.4575</ele>
        <time>2013-04-27T10:47:02Z</time>
      </trkpt>
      <trkpt lat="60.0209948" lon="17.7213994">
        <ele>29.9381</ele>
        <time>2013-04-27T10:47:03Z</time>
      </trkpt>
      <trkpt lat="60.0209378" lon="17.7213851">
        <ele>29.9381</ele>
        <time>2013-04-27T10:47:04Z</time>
      </trkpt>
      <trkpt lat="60.0208817" lon="17.7213695">
        <ele>29.9381</ele>
        <time>2013-04-27T10:47:05Z</time>
      </trkpt>
      <trkpt lat="60.0208275" lon="17.721357">
        <ele>29.9381</ele>
        <time>2013-04-27T10:47:06Z</time>
      </trkpt>
      <trkpt lat="60.0207733" lon="17.7213441">
        <ele>29.9381</ele>
        <time>2013-04-27T10:47:07Z</time>
      </trkpt>
      <trkpt lat="60.0207194" lon="17.7213294">
        <ele>30.4188</ele>
        <time>2013-04-27T10:47:08Z</time>
      </trkpt>
      <trkpt lat="60.0206654" lon="17.7213131">
        <ele>30.4188</ele>
        <time>2013-04-27T10:47:09Z</time>
      </trkpt>
      <trkpt lat="60.0206115" lon="17.7212992">
        <ele>30.4188</ele>
        <time>2013-04-27T10:47:10Z</time>
      </trkpt>
      <trkpt lat="60.0205574" lon="17.7212871">
        <ele>30.4188</ele>
        <time>2013-04-27T10:47:11Z</time>
      </trkpt>
      <trkpt lat="60.0205021" lon="17.7212738">
        <ele>30.4188</ele>
        <time>2013-04-27T10:47:12Z</time>
      </trkpt>
      <trkpt lat="60.0204459" lon="17.7212582">
        <ele>30.4188</ele>
        <time>2013-04-27T10:47:13Z</time>
      </trkpt>
      <trkpt lat="60.0203898" lon="17.721242">
        <ele>29.9381</ele>
        <time>2013-04-27T10:47:14Z</time>
      </trkpt>
      <trkpt lat="60.0203337" lon="17.7212236">
        <ele>30.4188</ele>
        <time>2013-04-27T10:47:15Z</time>
      </trkpt>
      <trkpt lat="60.0202768" lon="17.7212059">
        <ele>30.4188</ele>
        <time>2013-04-27T10:47:16Z</time>
      </trkpt>
      <trkpt lat="60.0202163" lon="17.7211898">
        <ele>30.4188</ele>
        <time>2013-04-27T10:47:17Z</time>
      </trkpt>
      <trkpt lat="60.0201537" lon="17.7211732">
        <ele>29.9381</ele>
        <time>2013-04-27T10:47:18Z</time>
      </trkpt>
      <trkpt lat="60.020091" lon="17.7211581">
        <ele>29.9381</ele>
        <time>2013-04-27T10:47:19Z</time>
      </trkpt>
      <trkpt lat="60.0200277" lon="17.7211445">
        <ele>29.4575</ele>
        <time>2013-04-27T10:47:20Z</time>
      </trkpt>
      <trkpt lat="60.0199633" lon="17.7211297">
        <ele>28.9769</ele>
        <time>2013-04-27T10:47:21Z</time>
      </trkpt>
      <trkpt lat="60.0198982" lon="17.7211143">
        <ele>28.4962</ele>
        <time>2013-04-27T10:47:22Z</time>
      </trkpt>
      <trkpt lat="60.0198328" lon="17.7210995">
        <ele>28.4962</ele>
        <time>2013-04-27T10:47:23Z</time>
      </trkpt>
      <trkpt lat="60.019768" lon="17.7210808">
        <ele>28.0155</ele>
        <time>2013-04-27T10:47:24Z</time>
      </trkpt>
      <trkpt lat="60.0197039" lon="17.7210614">
        <ele>28.0155</ele>
        <time>2013-04-27T10:47:25Z</time>
      </trkpt>
      <trkpt lat="60.0196399" lon="17.7210441">
        <ele>28.0155</ele>
        <time>2013-04-27T10:47:26Z</time>
      </trkpt>
      <trkpt lat="60.0195765" lon="17.721028">
        <ele>27.5349</ele>
        <time>2013-04-27T10:47:27Z</time>
      </trkpt>
      <trkpt lat="60.0195122" lon="17.7210134">
        <ele>27.5349</ele>
        <time>2013-04-27T10:47:28Z</time>
      </trkpt>
      <trkpt lat="60.0194463" lon="17.7209977">
        <ele>27.5349</ele>
        <time>2013-04-27T10:47:29Z</time>
      </trkpt>
      <trkpt lat="60.0193796" lon="17.7209793">
        <ele>27.0543</ele>
        <time>2013-04-27T10:47:30Z</time>
      </trkpt>
      <trkpt lat="60.0193125" lon="17.7209624">
        <ele>27.0543</ele>
        <time>2013-04-27T10:47:31Z</time>
      </trkpt>
      <trkpt lat="60.0192451" lon="17.7209453">
        <ele>26.5736</ele>
        <time>2013-04-27T10:47:32Z</time>
      </trkpt>
      <trkpt lat="60.0191776" lon="17.7209266">
        <ele>26.5736</ele>
        <time>2013-04-27T10:47:33Z</time>
      </trkpt>
      <trkpt lat="60.0191098" lon="17.7209085">
        <ele>26.5736</ele>
        <time>2013-04-27T10:47:34Z</time>
      </trkpt>
      <trkpt lat="60.0190416" lon="17.7208915">
        <ele>26.5736</ele>
        <time>2013-04-27T10:47:35Z</time>
      </trkpt>
      <trkpt lat="60.0189741" lon="17.7208744">
        <ele>26.0929</ele>
        <time>2013-04-27T10:47:36Z</time>
      </trkpt>
      <trkpt lat="60.0189073" lon="17.7208557">
        <ele>26.0929</ele>
        <time>2013-04-27T10:47:37Z</time>
      </trkpt>
      <trkpt lat="60.0188403" lon="17.7208373">
        <ele>26.0929</ele>
        <time>2013-04-27T10:47:38Z</time>
      </trkpt>
      <trkpt lat="60.018773" lon="17.7208197">
        <ele>26.0929</ele>
        <time>2013-04-27T10:47:39Z</time>
      </trkpt>
      <trkpt lat="60.0187053" lon="17.7208016">
        <ele>25.6123</ele>
        <time>2013-04-27T10:47:40Z</time>
      </trkpt>
      <trkpt lat="60.0186367" lon="17.7207837">
        <ele>25.6123</ele>
        <time>2013-04-27T10:47:41Z</time>
      </trkpt>
      <trkpt lat="60.0185679" lon="17.7207654">
        <ele>25.6123</ele>
        <time>2013-04-27T10:47:42Z</time>
      </trkpt>
      <trkpt lat="60.0184991" lon="17.7207474">
        <ele>25.6123</ele>
        <time>2013-04-27T10:47:43Z</time>
      </trkpt>
      <trkpt lat="60.0184297" lon="17.7207308">
        <ele>25.1317</ele>
        <time>2013-04-27T10:47:44Z</time>
      </trkpt>
      <trkpt lat="60.0183596" lon="17.7207146">
        <ele>25.1317</ele>
        <time>2013-04-27T10:47:45Z</time>
      </trkpt>
      <trkpt lat="60.0182903" lon="17.7206946">
        <ele>25.1317</ele>
        <time>2013-04-27T10:47:46Z</time>
      </trkpt>
      <trkpt lat="60.018223" lon="17.7206728">
        <ele>25.1317</ele>
        <time>2013-04-27T10:47:47Z</time>
      </trkpt>
      <trkpt lat="60.0181577" lon="17.7206537">
        <ele>25.1317</ele>
        <time>2013-04-27T10:47:48Z</time>
      </trkpt>
      <trkpt lat="60.0180941" lon="17.7206369">
        <ele>25.1317</ele>
        <time>2013-04-27T10:47:49Z</time>
      </trkpt>
      <trkpt lat="60.0180312" lon="17.7206194">
        <ele>25.1317</ele>
        <time>2013-04-27T10:47:50Z</time>
      </trkpt>
      <trkpt lat="60.017969" lon="17.7206039">
        <ele>25.1317</ele>
        <time>2013-04-27T10:47:51Z</time>
      </trkpt>
      <trkpt lat="60.017908" lon="17.7205884">
        <ele>25.6123</ele>
        <time>2013-04-27T10:47:52Z</time>
      </trkpt>
      <trkpt lat="60.0178485" lon="17.7205747">
        <ele>25.6123</ele>
        <time>2013-04-27T10:47:53Z</time>
      </trkpt>
      <trkpt lat="60.0177895" lon="17.7205626">
        <ele>25.6123</ele>
        <time>2013-04-27T10:47:54Z</time>
      </trkpt>
      <trkpt lat="60.0177308" lon="17.7205509">
        <ele>25.6123</ele>
        <time>2013-04-27T10:47:55Z</time>
      </trkpt>
      <trkpt lat="60.0176722" lon="17.7205406">
        <ele>26.0929</ele>
        <time>2013-04-27T10:47:56Z</time>
      </trkpt>
      <trkpt lat="60.0176138" lon="17.7205303">
        <ele>26.0929</ele>
        <time>2013-04-27T10:47:57Z</time>
      </trkpt>
      <trkpt lat="60.0175549" lon="17.7205217">
        <ele>26.0929</ele>
        <time>2013-04-27T10:47:58Z</time>
      </trkpt>
      <trkpt lat="60.0174958" lon="17.7205178">
        <ele>26.0929</ele>
        <time>2013-04-27T10:47:59Z</time>
      </trkpt>
      <trkpt lat="60.0174366" lon="17.7205157">
        <ele>26.5736</ele>
        <time>2013-04-27T10:48:00Z</time>
      </trkpt>
      <trkpt lat="60.0173777" lon="17.7205151">
        <ele>26.5736</ele>
        <time>2013-04-27T10:48:01Z</time>
      </trkpt>
      <trkpt lat="60.0173202" lon="17.7205149">
        <ele>26.5736</ele>
        <time>2013-04-27T10:48:02Z</time>
      </trkpt>
      <trkpt lat="60.0172658" lon="17.7205152">
        <ele>27.0543</ele>
        <time>2013-04-27T10:48:03Z</time>
      </trkpt>
      <trkpt lat="60.0172124" lon="17.7205127">
        <ele>27.0543</ele>
        <time>2013-04-27T10:48:04Z</time>
      </trkpt>
      <trkpt lat="60.0171595" lon="17.7205143">
        <ele>27.0543</ele>
        <time>2013-04-27T10:48:05Z</time>
      </trkpt>
      <trkpt lat="60.017107" lon="17.7205178">
        <ele>27.0543</ele>
        <time>2013-04-27T10:48:06Z</time>
      </trkpt>
      <trkpt lat="60.0170559" lon="17.7205204">
        <ele>27.0543</ele>
        <time>2013-04-27T10:48:07Z</time>
      </trkpt>
      <trkpt lat="60.0170062" lon="17.7205184">
        <ele>27.0543</ele>
        <time>2013-04-27T10:48:08Z</time>
      </trkpt>
      <trkpt lat="60.016959" lon="17.7204983">
        <ele>27.0543</ele>
        <time>2013-04-27T10:48:09Z</time>
      </trkpt>
      <trkpt lat="60.0169181" lon="17.7204504">
        <ele>27.0543</ele>
        <time>2013-04-27T10:48:10Z</time>
      </trkpt>
      <trkpt lat="60.0168901" lon="17.7203733">
        <ele>27.0543</ele>
        <time>2013-04-27T10:48:11Z</time>
      </trkpt>
      <trkpt lat="60.0168762" lon="17.7202801">
        <ele>26.5736</ele>
        <time>2013-04-27T10:48:12Z</time>
      </trkpt>
      <trkpt lat="60.0168742" lon="17.7201832">
        <ele>26.0929</ele>
        <time>2013-04-27T10:48:13Z</time>
      </trkpt>
      <trkpt lat="60.0168781" lon="17.7200793">
        <ele>26.0929</ele>
        <time>2013-04-27T10:48:14Z</time>
      </trkpt>
      <trkpt lat="60.016884" lon="17.7199694">
        <ele>25.6123</ele>
        <time>2013-04-27T10:48:15Z</time>
      </trkpt>
      <trkpt lat="60.0168901" lon="17.7198548">
        <ele>25.6123</ele>
        <time>2013-04-27T10:48:16Z</time>
      </trkpt>
      <trkpt lat="60.0168949" lon="17.7197408">
        <ele>25.1317</ele>
        <time>2013-04-27T10:48:17Z</time>
      </trkpt>
      <trkpt lat="60.016903" lon="17.7196211">
        <ele>25.1317</ele>
        <time>2013-04-27T10:48:18Z</time>
      </trkpt>
      <trkpt lat="60.0169119" lon="17.7194964">
        <ele>24.651</ele>
        <time>2013-04-27T10:48:19Z</time>
      </trkpt>
      <trkpt lat="60.0169205" lon="17.7193677">
        <ele>24.651</ele>
        <time>2013-04-27T10:48:20Z</time>
      </trkpt>
      <trkpt lat="60.0169283" lon="17.7192333">
        <ele>24.651</ele>
        <time>2013-04-27T10:48:21Z</time>
      </trkpt>
      <trkpt lat="60.0169352" lon="17.719094">
        <ele>24.1703</ele>
        <time>2013-04-27T10:48:22Z</time>
      </trkpt>
      <trkpt lat="60.0169418" lon="17.7189499">
        <ele>23.6896</ele>
        <time>2013-04-27T10:48:23Z</time>
      </trkpt>
      <trkpt lat="60.0169485" lon="17.7188028">
        <ele>23.6896</ele>
        <time>2013-04-27T10:48:24Z</time>
      </trkpt>
      <trkpt lat="60.0169553" lon="17.7186527">
        <ele>23.209</ele>
        <time>2013-04-27T10:48:25Z</time>
      </trkpt>
      <trkpt lat="60.0169619" lon="17.7185006">
        <ele>23.209</ele>
        <time>2013-04-27T10:48:26Z</time>
      </trkpt>
      <trkpt lat="60.0169688" lon="17.718346">
        <ele>22.7283</ele>
        <time>2013-04-27T10:48:27Z</time>
      </trkpt>
      <trkpt lat="60.0169767" lon="17.7181889">
        <ele>22.7283</ele>
        <time>2013-04-27T10:48:28Z</time>
      </trkpt>
      <trkpt lat="60.016987" lon="17.7180295">
        <ele>22.2476</ele>
        <time>2013-04-27T10:48:29Z</time>
      </trkpt>
      <trkpt lat="60.0169994" lon="17.7178684">
        <ele>21.767</ele>
        <time>2013-04-27T10:48:30Z</time>
      </trkpt>
      <trkpt lat="60.0170144" lon="17.7177063">
        <ele>21.2864</ele>
        <time>2013-04-27T10:48:31Z</time>
      </trkpt>
      <trkpt lat="60.0170317" lon="17.7175444">
        <ele>21.2864</ele>
        <time>2013-04-27T10:48:32Z</time>
      </trkpt>
      <trkpt lat="60.0170518" lon="17.7173824">
        <ele>20.8057</ele>
        <time>2013-04-27T10:48:33Z</time>
      </trkpt>
      <trkpt lat="60.017074" lon="17.7172208">
        <ele>20.325</ele>
        <time>2013-04-27T10:48:34Z</time>
      </trkpt>
      <trkpt lat="60.0170984" lon="17.7170611">
        <ele>19.8444</ele>
        <time>2013-04-27T10:48:35Z</time>
      </trkpt>
      <trkpt lat="60.0171253" lon="17.7169075">
        <ele>19.3638</ele>
        <time>2013-04-27T10:48:36Z</time>
      </trkpt>
      <trkpt lat="60.0171549" lon="17.7167561">
        <ele>19.3638</ele>
        <time>2013-04-27T10:48:37Z</time>
      </trkpt>
      <trkpt lat="60.0171853" lon="17.7166078">
        <ele>18.8831</ele>
        <time>2013-04-27T10:48:38Z</time>
      </trkpt>
      <trkpt lat="60.0172155" lon="17.7164629">
        <ele>18.4023</ele>
        <time>2013-04-27T10:48:39Z</time>
      </trkpt>
      <trkpt lat="60.0172471" lon="17.7163234">
        <ele>18.4023</ele>
        <time>2013-04-27T10:48:40Z</time>
      </trkpt>
      <trkpt lat="60.0172796" lon="17.7161868">
        <ele>18.4023</ele>
        <time>2013-04-27T10:48:41Z</time>
      </trkpt>
      <trkpt lat="60.0173118" lon="17.7160522">
        <ele>18.4023</ele>
        <time>2013-04-27T10:48:42Z</time>
      </trkpt>
      <trkpt lat="60.017344" lon="17.7159204">
        <ele>18.4023</ele>
        <time>2013-04-27T10:48:43Z</time>
      </trkpt>
      <trkpt lat="60.0173763" lon="17.71579">
        <ele>18.4023</ele>
        <time>2013-04-27T10:48:44Z</time>
      </trkpt>
      <trkpt lat="60.0174077" lon="17.7156624">
        <ele>18.4023</ele>
        <time>2013-04-27T10:48:45Z</time>
      </trkpt>
      <trkpt lat="60.0174375" lon="17.7155389">
        <ele>18.4023</ele>
        <time>2013-04-27T10:48:46Z</time>
      </trkpt>
      <trkpt lat="60.0174657" lon="17.7154185">
        <ele>18.4023</ele>
        <time>2013-04-27T10:48:47Z</time>
      </trkpt>
      <trkpt lat="60.0174939" lon="17.7153004">
        <ele>18.4023</ele>
        <time>2013-04-27T10:48:48Z</time>
      </trkpt>
      <trkpt lat="60.0175206" lon="17.7151844">
        <ele>18.8831</ele>
        <time>2013-04-27T10:48:49Z</time>
      </trkpt>
      <trkpt lat="60.0175452" lon="17.71507">
        <ele>18.8831</ele>
        <time>2013-04-27T10:48:50Z</time>
      </trkpt>
      <trkpt lat="60.0175682" lon="17.7149574">
        <ele>18.8831</ele>
        <time>2013-04-27T10:48:51Z</time>
      </trkpt>
      <trkpt lat="60.0175904" lon="17.7148466">
        <ele>19.3638</ele>
        <time>2013-04-27T10:48:52Z</time>
      </trkpt>
      <trkpt lat="60.0176103" lon="17.7147369">
        <ele>19.3638</ele>
        <time>2013-04-27T10:48:53Z</time>
      </trkpt>
      <trkpt lat="60.0176299" lon="17.7146285">
        <ele>19.3638</ele>
        <time>2013-04-27T10:48:54Z</time>
      </trkpt>
      <trkpt lat="60.0176484" lon="17.7145197">
        <ele>19.8444</ele>
        <time>2013-04-27T10:48:55Z</time>
      </trkpt>
      <trkpt lat="60.0176646" lon="17.7144097">
        <ele>19.8444</ele>
        <time>2013-04-27T10:48:56Z</time>
      </trkpt>
      <trkpt lat="60.0176801" lon="17.7142998">
        <ele>19.8444</ele>
        <time>2013-04-27T10:48:57Z</time>
      </trkpt>
      <trkpt lat="60.0176936" lon="17.7141892">
        <ele>19.8444</ele>
        <time>2013-04-27T10:48:58Z</time>
      </trkpt>
      <trkpt lat="60.0177061" lon="17.7140765">
        <ele>20.325</ele>
        <time>2013-04-27T10:48:59Z</time>
      </trkpt>
      <trkpt lat="60.0177179" lon="17.7139625">
        <ele>20.325</ele>
        <time>2013-04-27T10:49:00Z</time>
      </trkpt>
      <trkpt lat="60.0177279" lon="17.7138479">
        <ele>20.325</ele>
        <time>2013-04-27T10:49:01Z</time>
      </trkpt>
      <trkpt lat="60.0177365" lon="17.713733">
        <ele>20.325</ele>
        <time>2013-04-27T10:49:02Z</time>
      </trkpt>
      <trkpt lat="60.0177457" lon="17.7136176">
        <ele>20.325</ele>
        <time>2013-04-27T10:49:03Z</time>
      </trkpt>
      <trkpt lat="60.0177552" lon="17.7135018">
        <ele>20.325</ele>
        <time>2013-04-27T10:49:04Z</time>
      </trkpt>
      <trkpt lat="60.0177626" lon="17.7133864">
        <ele>20.325</ele>
        <time>2013-04-27T10:49:05Z</time>
      </trkpt>
      <trkpt lat="60.0177696" lon="17.7132729">
        <ele>20.325</ele>
        <time>2013-04-27T10:49:06Z</time>
      </trkpt>
      <trkpt lat="60.0177768" lon="17.7131611">
        <ele>20.325</ele>
        <time>2013-04-27T10:49:07Z</time>
      </trkpt>
      <trkpt lat="60.0177841" lon="17.7130501">
        <ele>20.325</ele>
        <time>2013-04-27T10:49:08Z</time>
      </trkpt>
      <trkpt lat="60.017791" lon="17.7129397">
        <ele>20.325</ele>
        <time>2013-04-27T10:49:09Z</time>
      </trkpt>
      <trkpt lat="60.0177985" lon="17.7128289">
        <ele>20.8057</ele>
        <time>2013-04-27T10:49:10Z</time>
      </trkpt>
      <trkpt lat="60.0178056" lon="17.7127167">
        <ele>20.8057</ele>
        <time>2013-04-27T10:49:11Z</time>
      </trkpt>
      <trkpt lat="60.0178123" lon="17.7126068">
        <ele>20.8057</ele>
        <time>2013-04-27T10:49:12Z</time>
      </trkpt>
      <trkpt lat="60.0178189" lon="17.7124972">
        <ele>21.2864</ele>
        <time>2013-04-27T10:49:13Z</time>
      </trkpt>
      <trkpt lat="60.0178249" lon="17.7123876">
        <ele>21.2864</ele>
        <time>2013-04-27T10:49:14Z</time>
      </trkpt>
      <trkpt lat="60.0178306" lon="17.7122777">
        <ele>21.2864</ele>
        <time>2013-04-27T10:49:15Z</time>
      </trkpt>
      <trkpt lat="60.0178361" lon="17.7121692">
        <ele>21.2864</ele>
        <time>2013-04-27T10:49:16Z</time>
      </trkpt>
      <trkpt lat="60.0178432" lon="17.7120598">
        <ele>21.2864</ele>
        <time>2013-04-27T10:49:17Z</time>
      </trkpt>
      <trkpt lat="60.0178504" lon="17.7119515">
        <ele>21.2864</ele>
        <time>2013-04-27T10:49:18Z</time>
      </trkpt>
      <trkpt lat="60.0178565" lon="17.7118436">
        <ele>21.2864</ele>
        <time>2013-04-27T10:49:19Z</time>
      </trkpt>
      <trkpt lat="60.0178633" lon="17.7117346">
        <ele>21.767</ele>
        <time>2013-04-27T10:49:20Z</time>
      </trkpt>
      <trkpt lat="60.0178707" lon="17.7116262">
        <ele>21.767</ele>
        <time>2013-04-27T10:49:21Z</time>
      </trkpt>
      <trkpt lat="60.0178775" lon="17.711517">
        <ele>21.767</ele>
        <time>2013-04-27T10:49:22Z</time>
      </trkpt>
      <trkpt lat="60.0178842" lon="17.7114083">
        <ele>22.2476</ele>
        <time>2013-04-27T10:49:23Z</time>
      </trkpt>
      <trkpt lat="60.0178913" lon="17.7112992">
        <ele>22.2476</ele>
        <time>2013-04-27T10:49:24Z</time>
      </trkpt>
      <trkpt lat="60.0178987" lon="17.7111895">
        <ele>22.2476</ele>
        <time>2013-04-27T10:49:25Z</time>
      </trkpt>
      <trkpt lat="60.0179065" lon="17.7110799">
        <ele>22.2476</ele>
        <time>2013-04-27T10:49:26Z</time>
      </trkpt>
      <trkpt lat="60.0179143" lon="17.7109699">
        <ele>22.2476</ele>
        <time>2013-04-27T10:49:27Z</time>
      </trkpt>
      <trkpt lat="60.0179213" lon="17.7108582">
        <ele>22.2476</ele>
        <time>2013-04-27T10:49:28Z</time>
      </trkpt>
      <trkpt lat="60.0179276" lon="17.710748">
        <ele>22.7283</ele>
        <time>2013-04-27T10:49:29Z</time>
      </trkpt>
      <trkpt lat="60.0179329" lon="17.71064">
        <ele>22.2476</ele>
        <time>2013-04-27T10:49:30Z</time>
      </trkpt>
      <trkpt lat="60.0179394" lon="17.7105338">
        <ele>22.7283</ele>
        <time>2013-04-27T10:49:31Z</time>
      </trkpt>
      <trkpt lat="60.0179463" lon="17.7104295">
        <ele>22.2476</ele>
        <time>2013-04-27T10:49:32Z</time>
      </trkpt>
      <trkpt lat="60.0179531" lon="17.7103285">
        <ele>22.2476</ele>
        <time>2013-04-27T10:49:33Z</time>
      </trkpt>
      <trkpt lat="60.0179601" lon="17.7102305">
        <ele>22.2476</ele>
        <time>2013-04-27T10:49:34Z</time>
      </trkpt>
      <trkpt lat="60.0179667" lon="17.7101334">
        <ele>22.2476</ele>
        <time>2013-04-27T10:49:35Z</time>
      </trkpt>
      <trkpt lat="60.0179733" lon="17.7100356">
        <ele>22.2476</ele>
        <time>2013-04-27T10:49:36Z</time>
      </trkpt>
      <trkpt lat="60.0179798" lon="17.7099361">
        <ele>22.7283</ele>
        <time>2013-04-27T10:49:37Z</time>
      </trkpt>
      <trkpt lat="60.0179852" lon="17.7098355">
        <ele>22.2476</ele>
        <time>2013-04-27T10:49:38Z</time>
      </trkpt>
      <trkpt lat="60.0179894" lon="17.7097329">
        <ele>20.8057</ele>
        <time>2013-04-27T10:49:39Z</time>
      </trkpt>
      <trkpt lat="60.0179954" lon="17.7096281">
        <ele>20.8057</ele>
        <time>2013-04-27T10:49:40Z</time>
      </trkpt>
      <trkpt lat="60.0180023" lon="17.7095225">
        <ele>21.2864</ele>
        <time>2013-04-27T10:49:41Z</time>
      </trkpt>
      <trkpt lat="60.0180106" lon="17.709417">
        <ele>21.2864</ele>
        <time>2013-04-27T10:49:42Z</time>
      </trkpt>
      <trkpt lat="60.0180179" lon="17.7093121">
        <ele>21.2864</ele>
        <time>2013-04-27T10:49:43Z</time>
      </trkpt>
      <trkpt lat="60.0180241" lon="17.709207">
        <ele>21.2864</ele>
        <time>2013-04-27T10:49:44Z</time>
      </trkpt>
      <trkpt lat="60.0180306" lon="17.7091015">
        <ele>20.8057</ele>
        <time>2013-04-27T10:49:45Z</time>
      </trkpt>
      <trkpt lat="60.0180375" lon="17.7089962">
        <ele>21.2864</ele>
        <time>2013-04-27T10:49:46Z</time>
      </trkpt>
      <trkpt lat="60.0180437" lon="17.7088917">
        <ele>21.2864</ele>
        <time>2013-04-27T10:49:47Z</time>
      </trkpt>
      <trkpt lat="60.01805" lon="17.7087886">
        <ele>21.2864</ele>
        <time>2013-04-27T10:49:48Z</time>
      </trkpt>
      <trkpt lat="60.0180576" lon="17.7086836">
        <ele>21.767</ele>
        <time>2013-04-27T10:49:49Z</time>
      </trkpt>
      <trkpt lat="60.0180646" lon="17.7085757">
        <ele>21.767</ele>
        <time>2013-04-27T10:49:50Z</time>
      </trkpt>
      <trkpt lat="60.0180708" lon="17.7084676">
        <ele>21.767</ele>
        <time>2013-04-27T10:49:51Z</time>
      </trkpt>
      <trkpt lat="60.0180773" lon="17.7083605">
        <ele>21.767</ele>
        <time>2013-04-27T10:49:52Z</time>
      </trkpt>
      <trkpt lat="60.0180846" lon="17.7082547">
        <ele>21.767</ele>
        <time>2013-04-27T10:49:53Z</time>
      </trkpt>
      <trkpt lat="60.0180909" lon="17.7081483">
        <ele>21.767</ele>
        <time>2013-04-27T10:49:54Z</time>
      </trkpt>
      <trkpt lat="60.0180964" lon="17.7080401">
        <ele>21.767</ele>
        <time>2013-04-27T10:49:55Z</time>
      </trkpt>
      <trkpt lat="60.0181023" lon="17.707933">
        <ele>21.767</ele>
        <time>2013-04-27T10:49:56Z</time>
      </trkpt>
      <trkpt lat="60.0181091" lon="17.7078271">
        <ele>21.767</ele>
        <time>2013-04-27T10:49:57Z</time>
      </trkpt>
      <trkpt lat="60.0181158" lon="17.7077204">
        <ele>21.767</ele>
        <time>2013-04-27T10:49:58Z</time>
      </trkpt>
      <trkpt lat="60.0181239" lon="17.7076143">
        <ele>21.767</ele>
        <time>2013-04-27T10:49:59Z</time>
      </trkpt>
      <trkpt lat="60.0181334" lon="17.7075086">
        <ele>22.2476</ele>
        <time>2013-04-27T10:50:00Z</time>
      </trkpt>
      <trkpt lat="60.0181427" lon="17.707402">
        <ele>22.2476</ele>
        <time>2013-04-27T10:50:01Z</time>
      </trkpt>
      <trkpt lat="60.0181515" lon="17.7072942">
        <ele>22.2476</ele>
        <time>2013-04-27T10:50:02Z</time>
      </trkpt>
      <trkpt lat="60.0181614" lon="17.7071876">
        <ele>22.7283</ele>
        <time>2013-04-27T10:50:03Z</time>
      </trkpt>
      <trkpt lat="60.018172" lon="17.7070817">
        <ele>22.7283</ele>
        <time>2013-04-27T10:50:04Z</time>
      </trkpt>
      <trkpt lat="60.0181827" lon="17.7069765">
        <ele>22.7283</ele>
        <time>2013-04-27T10:50:05Z</time>
      </trkpt>
      <trkpt lat="60.018194" lon="17.706874">
        <ele>23.209</ele>
        <time>2013-04-27T10:50:06Z</time>
      </trkpt>
      <trkpt lat="60.0182064" lon="17.7067728">
        <ele>23.209</ele>
        <time>2013-04-27T10:50:07Z</time>
      </trkpt>
      <trkpt lat="60.0182199" lon="17.7066692">
        <ele>23.209</ele>
        <time>2013-04-27T10:50:08Z</time>
      </trkpt>
      <trkpt lat="60.0182352" lon="17.7065642">
        <ele>23.209</ele>
        <time>2013-04-27T10:50:09Z</time>
      </trkpt>
      <trkpt lat="60.0182509" lon="17.7064574">
        <ele>23.209</ele>
        <time>2013-04-27T10:50:10Z</time>
      </trkpt>
      <trkpt lat="60.0182673" lon="17.7063507">
        <ele>23.6896</ele>
        <time>2013-04-27T10:50:11Z</time>
      </trkpt>
      <trkpt lat="60.0182857" lon="17.7062457">
        <ele>23.6896</ele>
        <time>2013-04-27T10:50:12Z</time>
      </trkpt>
      <trkpt lat="60.0183048" lon="17.706139">
        <ele>24.1703</ele>
        <time>2013-04-27T10:50:13Z</time>
      </trkpt>
      <trkpt lat="60.0183245" lon="17.7060329">
        <ele>24.1703</ele>
        <time>2013-04-27T10:50:14Z</time>
      </trkpt>
      <trkpt lat="60.0183458" lon="17.7059287">
        <ele>24.651</ele>
        <time>2013-04-27T10:50:15Z</time>
      </trkpt>
      <trkpt lat="60.018368" lon="17.7058276">
        <ele>23.6896</ele>
        <time>2013-04-27T10:50:16Z</time>
      </trkpt>
      <trkpt lat="60.0183911" lon="17.7057256">
        <ele>23.209</ele>
        <time>2013-04-27T10:50:17Z</time>
      </trkpt>
      <trkpt lat="60.0184148" lon="17.7056242">
        <ele>22.7283</ele>
        <time>2013-04-27T10:50:18Z</time>
      </trkpt>
      <trkpt lat="60.01844" lon="17.7055226">
        <ele>22.2476</ele>
        <time>2013-04-27T10:50:19Z</time>
      </trkpt>
      <trkpt lat="60.0184666" lon="17.7054173">
        <ele>22.2476</ele>
        <time>2013-04-27T10:50:20Z</time>
      </trkpt>
      <trkpt lat="60.0184959" lon="17.7053112">
        <ele>22.2476</ele>
        <time>2013-04-27T10:50:21Z</time>
      </trkpt>
      <trkpt lat="60.018526" lon="17.7052045">
        <ele>21.767</ele>
        <time>2013-04-27T10:50:22Z</time>
      </trkpt>
      <trkpt lat="60.0185565" lon="17.7050968">
        <ele>21.767</ele>
        <time>2013-04-27T10:50:23Z</time>
      </trkpt>
      <trkpt lat="60.0185887" lon="17.7049915">
        <ele>21.767</ele>
        <time>2013-04-27T10:50:24Z</time>
      </trkpt>
      <trkpt lat="60.018622" lon="17.704888">
        <ele>21.767</ele>
        <time>2013-04-27T10:50:25Z</time>
      </trkpt>
      <trkpt lat="60.018656" lon="17.7047853">
        <ele>21.767</ele>
        <time>2013-04-27T10:50:26Z</time>
      </trkpt>
      <trkpt lat="60.0186914" lon="17.7046843">
        <ele>21.767</ele>
        <time>2013-04-27T10:50:27Z</time>
      </trkpt>
      <trkpt lat="60.0187281" lon="17.7045855">
        <ele>22.2476</ele>
        <time>2013-04-27T10:50:28Z</time>
      </trkpt>
      <trkpt lat="60.0187653" lon="17.7044902">
        <ele>22.2476</ele>
        <time>2013-04-27T10:50:29Z</time>
      </trkpt>
      <trkpt lat="60.0188026" lon="17.7043973">
        <ele>22.2476</ele>
        <time>2013-04-27T10:50:30Z</time>
      </trkpt>
      <trkpt lat="60.0188403" lon="17.7043063">
        <ele>22.2476</ele>
        <time>2013-04-27T10:50:31Z</time>
      </trkpt>
      <trkpt lat="60.0188791" lon="17.7042175">
        <ele>22.2476</ele>
        <time>2013-04-27T10:50:32Z</time>
      </trkpt>
      <trkpt lat="60.0189181" lon="17.7041307">
        <ele>22.2476</ele>
        <time>2013-04-27T10:50:33Z</time>
      </trkpt>
      <trkpt lat="60.0189575" lon="17.7040471">
        <ele>22.2476</ele>
        <time>2013-04-27T10:50:34Z</time>
      </trkpt>
      <trkpt lat="60.0189973" lon="17.7039628">
        <ele>22.2476</ele>
        <time>2013-04-27T10:50:35Z</time>
      </trkpt>
      <trkpt lat="60.0190369" lon="17.7038809">
        <ele>22.2476</ele>
        <time>2013-04-27T10:50:36Z</time>
      </trkpt>
      <trkpt lat="60.0190777" lon="17.7038026">
        <ele>22.2476</ele>
        <time>2013-04-27T10:50:37Z</time>
      </trkpt>
      <trkpt lat="60.0191184" lon="17.7037269">
        <ele>22.2476</ele>
        <time>2013-04-27T10:50:38Z</time>
      </trkpt>
      <trkpt lat="60.0191583" lon="17.7036535">
        <ele>22.2476</ele>
        <time>2013-04-27T10:50:39Z</time>
      </trkpt>
      <trkpt lat="60.0191984" lon="17.7035841">
        <ele>22.2476</ele>
        <time>2013-04-27T10:50:40Z</time>
      </trkpt>
      <trkpt lat="60.0192382" lon="17.7035151">
        <ele>22.2476</ele>
        <time>2013-04-27T10:50:41Z</time>
      </trkpt>
      <trkpt lat="60.0192782" lon="17.7034474">
        <ele>22.2476</ele>
        <time>2013-04-27T10:50:42Z</time>
      </trkpt>
      <trkpt lat="60.0193181" lon="17.7033806">
        <ele>22.2476</ele>
        <time>2013-04-27T10:50:43Z</time>
      </trkpt>
      <trkpt lat="60.0193578" lon="17.7033144">
        <ele>22.2476</ele>
        <time>2013-04-27T10:50:44Z</time>
      </trkpt>
      <trkpt lat="60.0193977" lon="17.7032499">
        <ele>22.2476</ele>
        <time>2013-04-27T10:50:45Z</time>
      </trkpt>
      <trkpt lat="60.0194368" lon="17.7031853">
        <ele>22.7283</ele>
        <time>2013-04-27T10:50:46Z</time>
      </trkpt>
      <trkpt lat="60.0194758" lon="17.7031215">
        <ele>22.2476</ele>
        <time>2013-04-27T10:50:47Z</time>
      </trkpt>
      <trkpt lat="60.019515" lon="17.7030585">
        <ele>22.2476</ele>
        <time>2013-04-27T10:50:48Z</time>
      </trkpt>
      <trkpt lat="60.0195543" lon="17.7029948">
        <ele>22.7283</ele>
        <time>2013-04-27T10:50:49Z</time>
      </trkpt>
      <trkpt lat="60.0195926" lon="17.702929">
        <ele>22.7283</ele>
        <time>2013-04-27T10:50:50Z</time>
      </trkpt>
      <trkpt lat="60.01963" lon="17.7028627">
        <ele>22.7283</ele>
        <time>2013-04-27T10:50:51Z</time>
      </trkpt>
      <trkpt lat="60.0196675" lon="17.7027973">
        <ele>23.209</ele>
        <time>2013-04-27T10:50:52Z</time>
      </trkpt>
      <trkpt lat="60.0197046" lon="17.7027329">
        <ele>23.209</ele>
        <time>2013-04-27T10:50:53Z</time>
      </trkpt>
      <trkpt lat="60.0197413" lon="17.7026681">
        <ele>23.6896</ele>
        <time>2013-04-27T10:50:54Z</time>
      </trkpt>
      <trkpt lat="60.019777" lon="17.702602">
        <ele>23.209</ele>
        <time>2013-04-27T10:50:55Z</time>
      </trkpt>
      <trkpt lat="60.0198124" lon="17.7025351">
        <ele>23.6896</ele>
        <time>2013-04-27T10:50:56Z</time>
      </trkpt>
      <trkpt lat="60.0198475" lon="17.7024668">
        <ele>23.6896</ele>
        <time>2013-04-27T10:50:57Z</time>
      </trkpt>
      <trkpt lat="60.0198817" lon="17.7023974">
        <ele>22.7283</ele>
        <time>2013-04-27T10:50:58Z</time>
      </trkpt>
      <trkpt lat="60.0199158" lon="17.7023268">
        <ele>22.7283</ele>
        <time>2013-04-27T10:50:59Z</time>
      </trkpt>
      <trkpt lat="60.0199491" lon="17.7022558">
        <ele>23.209</ele>
        <time>2013-04-27T10:51:00Z</time>
      </trkpt>
      <trkpt lat="60.0199819" lon="17.702184">
        <ele>23.209</ele>
        <time>2013-04-27T10:51:01Z</time>
      </trkpt>
      <trkpt lat="60.0200139" lon="17.702112">
        <ele>23.209</ele>
        <time>2013-04-27T10:51:02Z</time>
      </trkpt>
      <trkpt lat="60.020046" lon="17.70204">
        <ele>22.7283</ele>
        <time>2013-04-27T10:51:03Z</time>
      </trkpt>
      <trkpt lat="60.0200781" lon="17.701966">
        <ele>22.7283</ele>
        <time>2013-04-27T10:51:04Z</time>
      </trkpt>
      <trkpt lat="60.0201097" lon="17.7018911">
        <ele>22.7283</ele>
        <time>2013-04-27T10:51:05Z</time>
      </trkpt>
      <trkpt lat="60.0201406" lon="17.7018156">
        <ele>22.7283</ele>
        <time>2013-04-27T10:51:06Z</time>
      </trkpt>
      <trkpt lat="60.0201703" lon="17.7017398">
        <ele>22.7283</ele>
        <time>2013-04-27T10:51:07Z</time>
      </trkpt>
      <trkpt lat="60.0201996" lon="17.7016638">
        <ele>22.2476</ele>
        <time>2013-04-27T10:51:08Z</time>
      </trkpt>
      <trkpt lat="60.0202281" lon="17.7015863">
        <ele>22.2476</ele>
        <time>2013-04-27T10:51:09Z</time>
      </trkpt>
      <trkpt lat="60.0202562" lon="17.701508">
        <ele>22.2476</ele>
        <time>2013-04-27T10:51:10Z</time>
      </trkpt>
      <trkpt lat="60.0202842" lon="17.7014287">
        <ele>21.767</ele>
        <time>2013-04-27T10:51:11Z</time>
      </trkpt>
      <trkpt lat="60.0203116" lon="17.7013474">
        <ele>21.767</ele>
        <time>2013-04-27T10:51:12Z</time>
      </trkpt>
      <trkpt lat="60.0203388" lon="17.7012646">
        <ele>21.2864</ele>
        <time>2013-04-27T10:51:13Z</time>
      </trkpt>
      <trkpt lat="60.020366" lon="17.7011815">
        <ele>21.2864</ele>
        <time>2013-04-27T10:51:14Z</time>
      </trkpt>
      <trkpt lat="60.0203924" lon="17.7010965">
        <ele>21.2864</ele>
        <time>2013-04-27T10:51:15Z</time>
      </trkpt>
      <trkpt lat="60.0204173" lon="17.70101">
        <ele>20.8057</ele>
        <time>2013-04-27T10:51:16Z</time>
      </trkpt>
      <trkpt lat="60.0204416" lon="17.7009227">
        <ele>20.8057</ele>
        <time>2013-04-27T10:51:17Z</time>
      </trkpt>
      <trkpt lat="60.0204656" lon="17.7008355">
        <ele>20.8057</ele>
        <time>2013-04-27T10:51:18Z</time>
      </trkpt>
      <trkpt lat="60.0204889" lon="17.7007474">
        <ele>20.325</ele>
        <time>2013-04-27T10:51:19Z</time>
      </trkpt>
      <trkpt lat="60.020511" lon="17.7006584">
        <ele>19.8444</ele>
        <time>2013-04-27T10:51:20Z</time>
      </trkpt>
      <trkpt lat="60.0205338" lon="17.7005699">
        <ele>19.8444</ele>
        <time>2013-04-27T10:51:21Z</time>
      </trkpt>
      <trkpt lat="60.0205575" lon="17.7004803">
        <ele>19.3638</ele>
        <time>2013-04-27T10:51:22Z</time>
      </trkpt>
      <trkpt lat="60.0205819" lon="17.7003904">
        <ele>18.8831</ele>
        <time>2013-04-27T10:51:23Z</time>
      </trkpt>
      <trkpt lat="60.0206061" lon="17.7002988">
        <ele>18.8831</ele>
        <time>2013-04-27T10:51:24Z</time>
      </trkpt>
      <trkpt lat="60.0206297" lon="17.7002068">
        <ele>18.8831</ele>
        <time>2013-04-27T10:51:25Z</time>
      </trkpt>
      <trkpt lat="60.0206533" lon="17.700115">
        <ele>18.4023</ele>
        <time>2013-04-27T10:51:26Z</time>
      </trkpt>
      <trkpt lat="60.0206763" lon="17.7000218">
        <ele>18.4023</ele>
        <time>2013-04-27T10:51:27Z</time>
      </trkpt>
      <trkpt lat="60.0207005" lon="17.699929">
        <ele>18.4023</ele>
        <time>2013-04-27T10:51:28Z</time>
      </trkpt>
      <trkpt lat="60.0207244" lon="17.6998372">
        <ele>18.4023</ele>
        <time>2013-04-27T10:51:29Z</time>
      </trkpt>
      <trkpt lat="60.0207478" lon="17.699745">
        <ele>18.4023</ele>
        <time>2013-04-27T10:51:30Z</time>
      </trkpt>
      <trkpt lat="60.0207719" lon="17.6996521">
        <ele>18.4023</ele>
        <time>2013-04-27T10:51:31Z</time>
      </trkpt>
      <trkpt lat="60.0207963" lon="17.6995591">
        <ele>18.4023</ele>
        <time>2013-04-27T10:51:32Z</time>
      </trkpt>
      <trkpt lat="60.0208202" lon="17.6994656">
        <ele>17.9218</ele>
        <time>2013-04-27T10:51:33Z</time>
      </trkpt>
      <trkpt lat="60.020843" lon="17.6993738">
        <ele>16.9604</ele>
        <time>2013-04-27T10:51:34Z</time>
      </trkpt>
      <trkpt lat="60.0208662" lon="17.699281">
        <ele>16.9604</ele>
        <time>2013-04-27T10:51:35Z</time>
      </trkpt>
      <trkpt lat="60.020888" lon="17.6991889">
        <ele>16.4797</ele>
        <time>2013-04-27T10:51:36Z</time>
      </trkpt>
      <trkpt lat="60.0209115" lon="17.6990986">
        <ele>15.999</ele>
        <time>2013-04-27T10:51:37Z</time>
      </trkpt>
      <trkpt lat="60.0209359" lon="17.6990095">
        <ele>16.4797</ele>
        <time>2013-04-27T10:51:38Z</time>
      </trkpt>
      <trkpt lat="60.0209581" lon="17.6989193">
        <ele>15.999</ele>
        <time>2013-04-27T10:51:39Z</time>
      </trkpt>
      <trkpt lat="60.0209813" lon="17.6988288">
        <ele>15.999</ele>
        <time>2013-04-27T10:51:40Z</time>
      </trkpt>
      <trkpt lat="60.0210048" lon="17.6987372">
        <ele>15.999</ele>
        <time>2013-04-27T10:51:41Z</time>
      </trkpt>
      <trkpt lat="60.0210288" lon="17.6986432">
        <ele>15.999</ele>
        <time>2013-04-27T10:51:42Z</time>
      </trkpt>
      <trkpt lat="60.0210534" lon="17.6985474">
        <ele>16.4797</ele>
        <time>2013-04-27T10:51:43Z</time>
      </trkpt>
      <trkpt lat="60.0210788" lon="17.6984533">
        <ele>16.4797</ele>
        <time>2013-04-27T10:51:44Z</time>
      </trkpt>
      <trkpt lat="60.0211027" lon="17.6983609">
        <ele>16.4797</ele>
        <time>2013-04-27T10:51:45Z</time>
      </trkpt>
      <trkpt lat="60.0211264" lon="17.6982663">
        <ele>16.4797</ele>
        <time>2013-04-27T10:51:46Z</time>
      </trkpt>
      <trkpt lat="60.0211539" lon="17.6981679">
        <ele>17.4412</ele>
        <time>2013-04-27T10:51:47Z</time>
      </trkpt>
      <trkpt lat="60.0211812" lon="17.6980662">
        <ele>17.9218</ele>
        <time>2013-04-27T10:51:48Z</time>
      </trkpt>
      <trkpt lat="60.0212109" lon="17.6979611">
        <ele>18.8831</ele>
        <time>2013-04-27T10:51:49Z</time>
      </trkpt>
      <trkpt lat="60.021271" lon="17.6977432">
        <ele>20.325</ele>
        <time>2013-04-27T10:51:51Z</time>
      </trkpt>
      <trkpt lat="60.0213004" lon="17.6976336">
        <ele>20.8057</ele>
        <time>2013-04-27T10:51:52Z</time>
      </trkpt>
      <trkpt lat="60.0213289" lon="17.6975228">
        <ele>21.2864</ele>
        <time>2013-04-27T10:51:53Z</time>
      </trkpt>
      <trkpt lat="60.0213585" lon="17.6974108">
        <ele>21.767</ele>
        <time>2013-04-27T10:51:54Z</time>
      </trkpt>
      <trkpt lat="60.0213892" lon="17.6972964">
        <ele>21.767</ele>
        <time>2013-04-27T10:51:55Z</time>
      </trkpt>
      <trkpt lat="60.0214187" lon="17.6971821">
        <ele>20.8057</ele>
        <time>2013-04-27T10:51:56Z</time>
      </trkpt>
      <trkpt lat="60.0214485" lon="17.6970671">
        <ele>20.325</ele>
        <time>2013-04-27T10:51:57Z</time>
      </trkpt>
      <trkpt lat="60.0214782" lon="17.6969503">
        <ele>18.8831</ele>
        <time>2013-04-27T10:51:58Z</time>
      </trkpt>
      <trkpt lat="60.0215083" lon="17.6968325">
        <ele>17.9218</ele>
        <time>2013-04-27T10:51:59Z</time>
      </trkpt>
      <trkpt lat="60.0215383" lon="17.6967148">
        <ele>16.4797</ele>
        <time>2013-04-27T10:52:00Z</time>
      </trkpt>
      <trkpt lat="60.0215674" lon="17.6965973">
        <ele>15.0377</ele>
        <time>2013-04-27T10:52:01Z</time>
      </trkpt>
      <trkpt lat="60.0215973" lon="17.6964791">
        <ele>14.0764</ele>
        <time>2013-04-27T10:52:02Z</time>
      </trkpt>
      <trkpt lat="60.0216279" lon="17.6963598">
        <ele>13.1151</ele>
        <time>2013-04-27T10:52:03Z</time>
      </trkpt>
      <trkpt lat="60.0216591" lon="17.6962403">
        <ele>12.1538</ele>
        <time>2013-04-27T10:52:04Z</time>
      </trkpt>
      <trkpt lat="60.0216901" lon="17.6961196">
        <ele>11.6732</ele>
        <time>2013-04-27T10:52:05Z</time>
      </trkpt>
      <trkpt lat="60.0217231" lon="17.6959999">
        <ele>11.6732</ele>
        <time>2013-04-27T10:52:06Z</time>
      </trkpt>
      <trkpt lat="60.0217539" lon="17.6958824">
        <ele>10.7118</ele>
        <time>2013-04-27T10:52:07Z</time>
      </trkpt>
      <trkpt lat="60.0217842" lon="17.6957654">
        <ele>10.2312</ele>
        <time>2013-04-27T10:52:08Z</time>
      </trkpt>
      <trkpt lat="60.0218142" lon="17.6956499">
        <ele>9.75061</ele>
        <time>2013-04-27T10:52:09Z</time>
      </trkpt>
      <trkpt lat="60.0218439" lon="17.6955356">
        <ele>9.2699</ele>
        <time>2013-04-27T10:52:10Z</time>
      </trkpt>
      <trkpt lat="60.021873" lon="17.6954228">
        <ele>8.78918</ele>
        <time>2013-04-27T10:52:11Z</time>
      </trkpt>
      <trkpt lat="60.0219009" lon="17.6953114">
        <ele>8.30859</ele>
        <time>2013-04-27T10:52:12Z</time>
      </trkpt>
      <trkpt lat="60.0219269" lon="17.6952026">
        <ele>8.30859</ele>
        <time>2013-04-27T10:52:13Z</time>
      </trkpt>
      <trkpt lat="60.0219517" lon="17.695097">
        <ele>7.82788</ele>
        <time>2013-04-27T10:52:14Z</time>
      </trkpt>
      <trkpt lat="60.021975" lon="17.6949923">
        <ele>7.34717</ele>
        <time>2013-04-27T10:52:15Z</time>
      </trkpt>
      <trkpt lat="60.0219982" lon="17.6948866">
        <ele>7.34717</ele>
        <time>2013-04-27T10:52:16Z</time>
      </trkpt>
      <trkpt lat="60.0220215" lon="17.6947785">
        <ele>7.34717</ele>
        <time>2013-04-27T10:52:17Z</time>
      </trkpt>
      <trkpt lat="60.0220454" lon="17.6946687">
        <ele>7.34717</ele>
        <time>2013-04-27T10:52:18Z</time>
      </trkpt>
      <trkpt lat="60.0220677" lon="17.6945593">
        <ele>7.34717</ele>
        <time>2013-04-27T10:52:19Z</time>
      </trkpt>
      <trkpt lat="60.0220884" lon="17.6944502">
        <ele>7.34717</ele>
        <time>2013-04-27T10:52:20Z</time>
      </trkpt>
      <trkpt lat="60.0221081" lon="17.694343">
        <ele>7.34717</ele>
        <time>2013-04-27T10:52:21Z</time>
      </trkpt>
      <trkpt lat="60.0221271" lon="17.6942362">
        <ele>7.34717</ele>
        <time>2013-04-27T10:52:22Z</time>
      </trkpt>
      <trkpt lat="60.0221454" lon="17.6941279">
        <ele>6.86646</ele>
        <time>2013-04-27T10:52:23Z</time>
      </trkpt>
      <trkpt lat="60.0221628" lon="17.6940192">
        <ele>6.86646</ele>
        <time>2013-04-27T10:52:24Z</time>
      </trkpt>
      <trkpt lat="60.022179" lon="17.6939109">
        <ele>6.86646</ele>
        <time>2013-04-27T10:52:25Z</time>
      </trkpt>
      <trkpt lat="60.0221951" lon="17.693803">
        <ele>6.86646</ele>
        <time>2013-04-27T10:52:26Z</time>
      </trkpt>
      <trkpt lat="60.0222105" lon="17.6936954">
        <ele>6.86646</ele>
        <time>2013-04-27T10:52:27Z</time>
      </trkpt>
      <trkpt lat="60.0222246" lon="17.6935869">
        <ele>6.86646</ele>
        <time>2013-04-27T10:52:28Z</time>
      </trkpt>
      <trkpt lat="60.022238" lon="17.6934773">
        <ele>6.86646</ele>
        <time>2013-04-27T10:52:29Z</time>
      </trkpt>
      <trkpt lat="60.0222515" lon="17.6933657">
        <ele>6.86646</ele>
        <time>2013-04-27T10:52:30Z</time>
      </trkpt>
      <trkpt lat="60.0222645" lon="17.6932526">
        <ele>6.86646</ele>
        <time>2013-04-27T10:52:31Z</time>
      </trkpt>
      <trkpt lat="60.0222769" lon="17.6931386">
        <ele>6.86646</ele>
        <time>2013-04-27T10:52:32Z</time>
      </trkpt>
      <trkpt lat="60.0222876" lon="17.6930251">
        <ele>6.86646</ele>
        <time>2013-04-27T10:52:33Z</time>
      </trkpt>
      <trkpt lat="60.0222988" lon="17.6929116">
        <ele>6.86646</ele>
        <time>2013-04-27T10:52:34Z</time>
      </trkpt>
      <trkpt lat="60.0223096" lon="17.6927986">
        <ele>7.34717</ele>
        <time>2013-04-27T10:52:35Z</time>
      </trkpt>
      <trkpt lat="60.0223189" lon="17.6926848">
        <ele>7.34717</ele>
        <time>2013-04-27T10:52:36Z</time>
      </trkpt>
      <trkpt lat="60.0223277" lon="17.6925707">
        <ele>7.34717</ele>
        <time>2013-04-27T10:52:37Z</time>
      </trkpt>
      <trkpt lat="60.0223355" lon="17.6924561">
        <ele>7.34717</ele>
        <time>2013-04-27T10:52:38Z</time>
      </trkpt>
      <trkpt lat="60.0223432" lon="17.6923398">
        <ele>7.34717</ele>
        <time>2013-04-27T10:52:39Z</time>
      </trkpt>
      <trkpt lat="60.02235" lon="17.692222">
        <ele>7.82788</ele>
        <time>2013-04-27T10:52:40Z</time>
      </trkpt>
      <trkpt lat="60.0223562" lon="17.6921035">
        <ele>7.82788</ele>
        <time>2013-04-27T10:52:41Z</time>
      </trkpt>
      <trkpt lat="60.0223625" lon="17.691985">
        <ele>7.82788</ele>
        <time>2013-04-27T10:52:42Z</time>
      </trkpt>
      <trkpt lat="60.0223687" lon="17.6918662">
        <ele>7.82788</ele>
        <time>2013-04-27T10:52:43Z</time>
      </trkpt>
      <trkpt lat="60.0223743" lon="17.6917502">
        <ele>7.82788</ele>
        <time>2013-04-27T10:52:44Z</time>
      </trkpt>
      <trkpt lat="60.0223799" lon="17.6916382">
        <ele>7.82788</ele>
        <time>2013-04-27T10:52:45Z</time>
      </trkpt>
      <trkpt lat="60.0223841" lon="17.6915289">
        <ele>8.30859</ele>
        <time>2013-04-27T10:52:46Z</time>
      </trkpt>
      <trkpt lat="60.0223888" lon="17.6914192">
        <ele>8.30859</ele>
        <time>2013-04-27T10:52:47Z</time>
      </trkpt>
      <trkpt lat="60.022394" lon="17.6913094">
        <ele>8.30859</ele>
        <time>2013-04-27T10:52:48Z</time>
      </trkpt>
      <trkpt lat="60.0223982" lon="17.6911986">
        <ele>8.30859</ele>
        <time>2013-04-27T10:52:49Z</time>
      </trkpt>
      <trkpt lat="60.0224027" lon="17.6910881">
        <ele>7.82788</ele>
        <time>2013-04-27T10:52:50Z</time>
      </trkpt>
      <trkpt lat="60.022408" lon="17.6909758">
        <ele>7.82788</ele>
        <time>2013-04-27T10:52:51Z</time>
      </trkpt>
      <trkpt lat="60.0224125" lon="17.6908627">
        <ele>7.82788</ele>
        <time>2013-04-27T10:52:52Z</time>
      </trkpt>
      <trkpt lat="60.0224168" lon="17.6907531">
        <ele>7.82788</ele>
        <time>2013-04-27T10:52:53Z</time>
      </trkpt>
      <trkpt lat="60.0224218" lon="17.6906422">
        <ele>7.82788</ele>
        <time>2013-04-27T10:52:54Z</time>
      </trkpt>
      <trkpt lat="60.0224271" lon="17.690532">
        <ele>7.82788</ele>
        <time>2013-04-27T10:52:55Z</time>
      </trkpt>
      <trkpt lat="60.0224329" lon="17.6904216">
        <ele>7.82788</ele>
        <time>2013-04-27T10:52:56Z</time>
      </trkpt>
      <trkpt lat="60.0224379" lon="17.6903117">
        <ele>7.82788</ele>
        <time>2013-04-27T10:52:57Z</time>
      </trkpt>
      <trkpt lat="60.0224437" lon="17.6902027">
        <ele>8.30859</ele>
        <time>2013-04-27T10:52:58Z</time>
      </trkpt>
      <trkpt lat="60.0224493" lon="17.6900957">
        <ele>8.30859</ele>
        <time>2013-04-27T10:52:59Z</time>
      </trkpt>
      <trkpt lat="60.0224536" lon="17.6899898">
        <ele>8.30859</ele>
        <time>2013-04-27T10:53:00Z</time>
      </trkpt>
      <trkpt lat="60.0224576" lon="17.6898837">
        <ele>8.30859</ele>
        <time>2013-04-27T10:53:01Z</time>
      </trkpt>
      <trkpt lat="60.0224627" lon="17.6897761">
        <ele>8.30859</ele>
        <time>2013-04-27T10:53:02Z</time>
      </trkpt>
      <trkpt lat="60.0224676" lon="17.6896669">
        <ele>8.30859</ele>
        <time>2013-04-27T10:53:03Z</time>
      </trkpt>
      <trkpt lat="60.0224722" lon="17.6895569">
        <ele>8.30859</ele>
        <time>2013-04-27T10:53:04Z</time>
      </trkpt>
      <trkpt lat="60.0224769" lon="17.6894457">
        <ele>8.30859</ele>
        <time>2013-04-27T10:53:05Z</time>
      </trkpt>
      <trkpt lat="60.0224817" lon="17.6893323">
        <ele>8.30859</ele>
        <time>2013-04-27T10:53:06Z</time>
      </trkpt>
      <trkpt lat="60.0224866" lon="17.6892171">
        <ele>8.30859</ele>
        <time>2013-04-27T10:53:07Z</time>
      </trkpt>
      <trkpt lat="60.0224914" lon="17.6891033">
        <ele>8.30859</ele>
        <time>2013-04-27T10:53:08Z</time>
      </trkpt>
      <trkpt lat="60.0224966" lon="17.6889871">
        <ele>8.30859</ele>
        <time>2013-04-27T10:53:09Z</time>
      </trkpt>
      <trkpt lat="60.0225019" lon="17.6888722">
        <ele>8.30859</ele>
        <time>2013-04-27T10:53:10Z</time>
      </trkpt>
      <trkpt lat="60.0225072" lon="17.6887599">
        <ele>8.78918</ele>
        <time>2013-04-27T10:53:11Z</time>
      </trkpt>
      <trkpt lat="60.0225117" lon="17.6886487">
        <ele>9.2699</ele>
        <time>2013-04-27T10:53:12Z</time>
      </trkpt>
      <trkpt lat="60.0225163" lon="17.6885365">
        <ele>9.75061</ele>
        <time>2013-04-27T10:53:13Z</time>
      </trkpt>
      <trkpt lat="60.0225213" lon="17.6884225">
        <ele>10.2312</ele>
        <time>2013-04-27T10:53:14Z</time>
      </trkpt>
      <trkpt lat="60.0225261" lon="17.6883092">
        <ele>10.2312</ele>
        <time>2013-04-27T10:53:15Z</time>
      </trkpt>
      <trkpt lat="60.0225308" lon="17.6881962">
        <ele>10.2312</ele>
        <time>2013-04-27T10:53:16Z</time>
      </trkpt>
      <trkpt lat="60.0225359" lon="17.688083">
        <ele>10.7118</ele>
        <time>2013-04-27T10:53:17Z</time>
      </trkpt>
      <trkpt lat="60.0225409" lon="17.6879686">
        <ele>11.1925</ele>
        <time>2013-04-27T10:53:18Z</time>
      </trkpt>
      <trkpt lat="60.0225466" lon="17.6878536">
        <ele>11.6732</ele>
        <time>2013-04-27T10:53:19Z</time>
      </trkpt>
      <trkpt lat="60.0225526" lon="17.6877368">
        <ele>11.6732</ele>
        <time>2013-04-27T10:53:20Z</time>
      </trkpt>
      <trkpt lat="60.0225565" lon="17.6876182">
        <ele>12.1538</ele>
        <time>2013-04-27T10:53:21Z</time>
      </trkpt>
      <trkpt lat="60.0225607" lon="17.687499">
        <ele>12.6344</ele>
        <time>2013-04-27T10:53:22Z</time>
      </trkpt>
      <trkpt lat="60.0225664" lon="17.6873801">
        <ele>12.6344</ele>
        <time>2013-04-27T10:53:23Z</time>
      </trkpt>
      <trkpt lat="60.0225727" lon="17.6872612">
        <ele>12.6344</ele>
        <time>2013-04-27T10:53:24Z</time>
      </trkpt>
      <trkpt lat="60.0225783" lon="17.6871421">
        <ele>12.6344</ele>
        <time>2013-04-27T10:53:25Z</time>
      </trkpt>
      <trkpt lat="60.0225832" lon="17.6870228">
        <ele>12.6344</ele>
        <time>2013-04-27T10:53:26Z</time>
      </trkpt>
      <trkpt lat="60.0225888" lon="17.6869016">
        <ele>12.6344</ele>
        <time>2013-04-27T10:53:27Z</time>
      </trkpt>
      <trkpt lat="60.0225945" lon="17.6867804">
        <ele>12.6344</ele>
        <time>2013-04-27T10:53:28Z</time>
      </trkpt>
      <trkpt lat="60.0226" lon="17.6866587">
        <ele>12.6344</ele>
        <time>2013-04-27T10:53:29Z</time>
      </trkpt>
      <trkpt lat="60.0226053" lon="17.686537">
        <ele>12.6344</ele>
        <time>2013-04-27T10:53:30Z</time>
      </trkpt>
      <trkpt lat="60.0226108" lon="17.6864146">
        <ele>12.6344</ele>
        <time>2013-04-27T10:53:31Z</time>
      </trkpt>
      <trkpt lat="60.0226166" lon="17.6862939">
        <ele>12.1538</ele>
        <time>2013-04-27T10:53:32Z</time>
      </trkpt>
      <trkpt lat="60.0226228" lon="17.6861747">
        <ele>12.1538</ele>
        <time>2013-04-27T10:53:33Z</time>
      </trkpt>
      <trkpt lat="60.0226281" lon="17.6860557">
        <ele>11.6732</ele>
        <time>2013-04-27T10:53:34Z</time>
      </trkpt>
      <trkpt lat="60.0226331" lon="17.6859365">
        <ele>11.6732</ele>
        <time>2013-04-27T10:53:35Z</time>
      </trkpt>
      <trkpt lat="60.0226378" lon="17.6858159">
        <ele>11.6732</ele>
        <time>2013-04-27T10:53:36Z</time>
      </trkpt>
      <trkpt lat="60.0226428" lon="17.6856957">
        <ele>11.6732</ele>
        <time>2013-04-27T10:53:37Z</time>
      </trkpt>
      <trkpt lat="60.0226478" lon="17.6855775">
        <ele>11.1925</ele>
        <time>2013-04-27T10:53:38Z</time>
      </trkpt>
      <trkpt lat="60.0226552" lon="17.6854569">
        <ele>11.1925</ele>
        <time>2013-04-27T10:53:39Z</time>
      </trkpt>
      <trkpt lat="60.0226614" lon="17.6853346">
        <ele>11.1925</ele>
        <time>2013-04-27T10:53:40Z</time>
      </trkpt>
      <trkpt lat="60.0226666" lon="17.6852102">
        <ele>11.1925</ele>
        <time>2013-04-27T10:53:41Z</time>
      </trkpt>
      <trkpt lat="60.0226717" lon="17.6850858">
        <ele>11.1925</ele>
        <time>2013-04-27T10:53:42Z</time>
      </trkpt>
      <trkpt lat="60.0226761" lon="17.6849616">
        <ele>11.1925</ele>
        <time>2013-04-27T10:53:43Z</time>
      </trkpt>
      <trkpt lat="60.0226803" lon="17.6848387">
        <ele>11.1925</ele>
        <time>2013-04-27T10:53:44Z</time>
      </trkpt>
      <trkpt lat="60.0226839" lon="17.6847167">
        <ele>10.7118</ele>
        <time>2013-04-27T10:53:45Z</time>
      </trkpt>
      <trkpt lat="60.0226862" lon="17.6845919">
        <ele>10.7118</ele>
        <time>2013-04-27T10:53:46Z</time>
      </trkpt>
      <trkpt lat="60.0226886" lon="17.684467">
        <ele>10.7118</ele>
        <time>2013-04-27T10:53:47Z</time>
      </trkpt>
      <trkpt lat="60.0226911" lon="17.6843402">
        <ele>10.7118</ele>
        <time>2013-04-27T10:53:48Z</time>
      </trkpt>
      <trkpt lat="60.0226914" lon="17.6842142">
        <ele>10.7118</ele>
        <time>2013-04-27T10:53:49Z</time>
      </trkpt>
      <trkpt lat="60.0226919" lon="17.6840874">
        <ele>10.2312</ele>
        <time>2013-04-27T10:53:50Z</time>
      </trkpt>
      <trkpt lat="60.022692" lon="17.6839588">
        <ele>10.2312</ele>
        <time>2013-04-27T10:53:51Z</time>
      </trkpt>
      <trkpt lat="60.0226918" lon="17.6838302">
        <ele>10.2312</ele>
        <time>2013-04-27T10:53:52Z</time>
      </trkpt>
      <trkpt lat="60.0226914" lon="17.6837045">
        <ele>10.2312</ele>
        <time>2013-04-27T10:53:53Z</time>
      </trkpt>
      <trkpt lat="60.0226909" lon="17.683582">
        <ele>10.2312</ele>
        <time>2013-04-27T10:53:54Z</time>
      </trkpt>
      <trkpt lat="60.0226902" lon="17.6834593">
        <ele>9.75061</ele>
        <time>2013-04-27T10:53:55Z</time>
      </trkpt>
      <trkpt lat="60.0226891" lon="17.683335">
        <ele>9.75061</ele>
        <time>2013-04-27T10:53:56Z</time>
      </trkpt>
      <trkpt lat="60.0226871" lon="17.6832112">
        <ele>9.75061</ele>
        <time>2013-04-27T10:53:57Z</time>
      </trkpt>
      <trkpt lat="60.0226844" lon="17.6830884">
        <ele>9.75061</ele>
        <time>2013-04-27T10:53:58Z</time>
      </trkpt>
      <trkpt lat="60.022682" lon="17.6829662">
        <ele>9.75061</ele>
        <time>2013-04-27T10:53:59Z</time>
      </trkpt>
      <trkpt lat="60.0226788" lon="17.6828441">
        <ele>9.75061</ele>
        <time>2013-04-27T10:54:00Z</time>
      </trkpt>
      <trkpt lat="60.0226754" lon="17.6827225">
        <ele>9.2699</ele>
        <time>2013-04-27T10:54:01Z</time>
      </trkpt>
      <trkpt lat="60.0226718" lon="17.6826011">
        <ele>9.2699</ele>
        <time>2013-04-27T10:54:02Z</time>
      </trkpt>
      <trkpt lat="60.0226666" lon="17.6824782">
        <ele>9.2699</ele>
        <time>2013-04-27T10:54:03Z</time>
      </trkpt>
      <trkpt lat="60.0226598" lon="17.682353">
        <ele>9.2699</ele>
        <time>2013-04-27T10:54:04Z</time>
      </trkpt>
      <trkpt lat="60.0226526" lon="17.6822272">
        <ele>8.78918</ele>
        <time>2013-04-27T10:54:05Z</time>
      </trkpt>
      <trkpt lat="60.0226457" lon="17.6820966">
        <ele>8.78918</ele>
        <time>2013-04-27T10:54:06Z</time>
      </trkpt>
      <trkpt lat="60.0226376" lon="17.6819661">
        <ele>8.78918</ele>
        <time>2013-04-27T10:54:07Z</time>
      </trkpt>
      <trkpt lat="60.022629" lon="17.681836">
        <ele>8.78918</ele>
        <time>2013-04-27T10:54:08Z</time>
      </trkpt>
      <trkpt lat="60.0226209" lon="17.6817098">
        <ele>8.78918</ele>
        <time>2013-04-27T10:54:09Z</time>
      </trkpt>
      <trkpt lat="60.0226122" lon="17.6815854">
        <ele>8.30859</ele>
        <time>2013-04-27T10:54:10Z</time>
      </trkpt>
      <trkpt lat="60.0226032" lon="17.6814618">
        <ele>8.30859</ele>
        <time>2013-04-27T10:54:11Z</time>
      </trkpt>
      <trkpt lat="60.0225939" lon="17.6813377">
        <ele>8.30859</ele>
        <time>2013-04-27T10:54:12Z</time>
      </trkpt>
      <trkpt lat="60.0225835" lon="17.6812135">
        <ele>8.30859</ele>
        <time>2013-04-27T10:54:13Z</time>
      </trkpt>
      <trkpt lat="60.0225722" lon="17.6810896">
        <ele>8.30859</ele>
        <time>2013-04-27T10:54:14Z</time>
      </trkpt>
      <trkpt lat="60.0225611" lon="17.6809653">
        <ele>7.82788</ele>
        <time>2013-04-27T10:54:15Z</time>
      </trkpt>
      <trkpt lat="60.0225492" lon="17.6808404">
        <ele>7.82788</ele>
        <time>2013-04-27T10:54:16Z</time>
      </trkpt>
      <trkpt lat="60.0225355" lon="17.6807151">
        <ele>7.82788</ele>
        <time>2013-04-27T10:54:17Z</time>
      </trkpt>
      <trkpt lat="60.022522" lon="17.6805886">
        <ele>7.82788</ele>
        <time>2013-04-27T10:54:18Z</time>
      </trkpt>
      <trkpt lat="60.0225086" lon="17.6804613">
        <ele>7.34717</ele>
        <time>2013-04-27T10:54:19Z</time>
      </trkpt>
      <trkpt lat="60.022494" lon="17.6803333">
        <ele>7.34717</ele>
        <time>2013-04-27T10:54:20Z</time>
      </trkpt>
      <trkpt lat="60.022478" lon="17.6802042">
        <ele>7.34717</ele>
        <time>2013-04-27T10:54:21Z</time>
      </trkpt>
      <trkpt lat="60.0224612" lon="17.6800743">
        <ele>7.34717</ele>
        <time>2013-04-27T10:54:22Z</time>
      </trkpt>
      <trkpt lat="60.0224447" lon="17.6799444">
        <ele>7.34717</ele>
        <time>2013-04-27T10:54:23Z</time>
      </trkpt>
      <trkpt lat="60.0224282" lon="17.6798142">
        <ele>6.86646</ele>
        <time>2013-04-27T10:54:24Z</time>
      </trkpt>
      <trkpt lat="60.0224107" lon="17.679684">
        <ele>6.86646</ele>
        <time>2013-04-27T10:54:25Z</time>
      </trkpt>
      <trkpt lat="60.0223924" lon="17.6795532">
        <ele>6.86646</ele>
        <time>2013-04-27T10:54:26Z</time>
      </trkpt>
      <trkpt lat="60.0223733" lon="17.6794226">
        <ele>6.86646</ele>
        <time>2013-04-27T10:54:27Z</time>
      </trkpt>
      <trkpt lat="60.0223546" lon="17.6792934">
        <ele>6.86646</ele>
        <time>2013-04-27T10:54:28Z</time>
      </trkpt>
      <trkpt lat="60.022335" lon="17.6791658">
        <ele>6.86646</ele>
        <time>2013-04-27T10:54:29Z</time>
      </trkpt>
      <trkpt lat="60.0223148" lon="17.6790394">
        <ele>6.86646</ele>
        <time>2013-04-27T10:54:30Z</time>
      </trkpt>
      <trkpt lat="60.0222949" lon="17.6789143">
        <ele>6.38586</ele>
        <time>2013-04-27T10:54:31Z</time>
      </trkpt>
      <trkpt lat="60.0222755" lon="17.6787877">
        <ele>6.38586</ele>
        <time>2013-04-27T10:54:32Z</time>
      </trkpt>
      <trkpt lat="60.0222556" lon="17.6786595">
        <ele>6.38586</ele>
        <time>2013-04-27T10:54:33Z</time>
      </trkpt>
      <trkpt lat="60.022234" lon="17.6785304">
        <ele>6.38586</ele>
        <time>2013-04-27T10:54:34Z</time>
      </trkpt>
      <trkpt lat="60.0222122" lon="17.6784011">
        <ele>6.38586</ele>
        <time>2013-04-27T10:54:35Z</time>
      </trkpt>
      <trkpt lat="60.0221915" lon="17.6782726">
        <ele>6.38586</ele>
        <time>2013-04-27T10:54:36Z</time>
      </trkpt>
      <trkpt lat="60.0221718" lon="17.6781432">
        <ele>6.38586</ele>
        <time>2013-04-27T10:54:37Z</time>
      </trkpt>
      <trkpt lat="60.0221505" lon="17.6780129">
        <ele>6.86646</ele>
        <time>2013-04-27T10:54:38Z</time>
      </trkpt>
      <trkpt lat="60.0221291" lon="17.6778813">
        <ele>6.86646</ele>
        <time>2013-04-27T10:54:39Z</time>
      </trkpt>
      <trkpt lat="60.022108" lon="17.6777484">
        <ele>6.86646</ele>
        <time>2013-04-27T10:54:40Z</time>
      </trkpt>
      <trkpt lat="60.0220867" lon="17.6776159">
        <ele>7.34717</ele>
        <time>2013-04-27T10:54:41Z</time>
      </trkpt>
      <trkpt lat="60.0220652" lon="17.6774848">
        <ele>7.34717</ele>
        <time>2013-04-27T10:54:42Z</time>
      </trkpt>
      <trkpt lat="60.0220445" lon="17.6773533">
        <ele>7.34717</ele>
        <time>2013-04-27T10:54:43Z</time>
      </trkpt>
      <trkpt lat="60.0220246" lon="17.6772226">
        <ele>7.34717</ele>
        <time>2013-04-27T10:54:44Z</time>
      </trkpt>
      <trkpt lat="60.0220038" lon="17.6770937">
        <ele>7.82788</ele>
        <time>2013-04-27T10:54:45Z</time>
      </trkpt>
      <trkpt lat="60.0219837" lon="17.6769647">
        <ele>7.82788</ele>
        <time>2013-04-27T10:54:46Z</time>
      </trkpt>
      <trkpt lat="60.0219647" lon="17.6768355">
        <ele>8.30859</ele>
        <time>2013-04-27T10:54:47Z</time>
      </trkpt>
      <trkpt lat="60.0219464" lon="17.6767071">
        <ele>8.30859</ele>
        <time>2013-04-27T10:54:48Z</time>
      </trkpt>
      <trkpt lat="60.0219284" lon="17.6765801">
        <ele>8.78918</ele>
        <time>2013-04-27T10:54:49Z</time>
      </trkpt>
      <trkpt lat="60.0219112" lon="17.6764522">
        <ele>8.78918</ele>
        <time>2013-04-27T10:54:50Z</time>
      </trkpt>
      <trkpt lat="60.0218948" lon="17.6763227">
        <ele>9.2699</ele>
        <time>2013-04-27T10:54:51Z</time>
      </trkpt>
      <trkpt lat="60.0218786" lon="17.6761904">
        <ele>9.75061</ele>
        <time>2013-04-27T10:54:52Z</time>
      </trkpt>
      <trkpt lat="60.0218615" lon="17.6760541">
        <ele>9.75061</ele>
        <time>2013-04-27T10:54:53Z</time>
      </trkpt>
      <trkpt lat="60.0218455" lon="17.6759137">
        <ele>9.75061</ele>
        <time>2013-04-27T10:54:54Z</time>
      </trkpt>
      <trkpt lat="60.0218338" lon="17.6757697">
        <ele>10.2312</ele>
        <time>2013-04-27T10:54:55Z</time>
      </trkpt>
      <trkpt lat="60.0218272" lon="17.675624">
        <ele>10.2312</ele>
        <time>2013-04-27T10:54:56Z</time>
      </trkpt>
      <trkpt lat="60.0218216" lon="17.6754802">
        <ele>10.2312</ele>
        <time>2013-04-27T10:54:57Z</time>
      </trkpt>
      <trkpt lat="60.021816" lon="17.6753344">
        <ele>10.2312</ele>
        <time>2013-04-27T10:54:58Z</time>
      </trkpt>
      <trkpt lat="60.0218123" lon="17.6751936">
        <ele>11.6732</ele>
        <time>2013-04-27T10:54:59Z</time>
      </trkpt>
      <trkpt lat="60.021808" lon="17.6750572">
        <ele>11.6732</ele>
        <time>2013-04-27T10:55:00Z</time>
      </trkpt>
      <trkpt lat="60.0218045" lon="17.6749226">
        <ele>11.6732</ele>
        <time>2013-04-27T10:55:01Z</time>
      </trkpt>
      <trkpt lat="60.0218008" lon="17.6747859">
        <ele>11.6732</ele>
        <time>2013-04-27T10:55:02Z</time>
      </trkpt>
      <trkpt lat="60.0217973" lon="17.6746506">
        <ele>11.1925</ele>
        <time>2013-04-27T10:55:03Z</time>
      </trkpt>
      <trkpt lat="60.0217947" lon="17.674518">
        <ele>11.1925</ele>
        <time>2013-04-27T10:55:04Z</time>
      </trkpt>
      <trkpt lat="60.0217941" lon="17.6743871">
        <ele>11.1925</ele>
        <time>2013-04-27T10:55:05Z</time>
      </trkpt>
      <trkpt lat="60.0217946" lon="17.6742544">
        <ele>11.6732</ele>
        <time>2013-04-27T10:55:06Z</time>
      </trkpt>
      <trkpt lat="60.0217953" lon="17.6741213">
        <ele>12.1538</ele>
        <time>2013-04-27T10:55:07Z</time>
      </trkpt>
      <trkpt lat="60.0217962" lon="17.6739893">
        <ele>12.6344</ele>
        <time>2013-04-27T10:55:08Z</time>
      </trkpt>
      <trkpt lat="60.0217978" lon="17.6738587">
        <ele>13.1151</ele>
        <time>2013-04-27T10:55:09Z</time>
      </trkpt>
      <trkpt lat="60.0217998" lon="17.6737266">
        <ele>13.5958</ele>
        <time>2013-04-27T10:55:10Z</time>
      </trkpt>
      <trkpt lat="60.021801" lon="17.6735961">
        <ele>13.5958</ele>
        <time>2013-04-27T10:55:11Z</time>
      </trkpt>
      <trkpt lat="60.0218019" lon="17.6734669">
        <ele>13.5958</ele>
        <time>2013-04-27T10:55:12Z</time>
      </trkpt>
      <trkpt lat="60.0218015" lon="17.6733386">
        <ele>14.0764</ele>
        <time>2013-04-27T10:55:13Z</time>
      </trkpt>
      <trkpt lat="60.0218008" lon="17.673209">
        <ele>14.0764</ele>
        <time>2013-04-27T10:55:14Z</time>
      </trkpt>
      <trkpt lat="60.0218009" lon="17.6730765">
        <ele>14.0764</ele>
        <time>2013-04-27T10:55:15Z</time>
      </trkpt>
      <trkpt lat="60.0217999" lon="17.672944">
        <ele>14.0764</ele>
        <time>2013-04-27T10:55:16Z</time>
      </trkpt>
      <trkpt lat="60.0217983" lon="17.6728103">
        <ele>14.0764</ele>
        <time>2013-04-27T10:55:17Z</time>
      </trkpt>
      <trkpt lat="60.0217966" lon="17.672675">
        <ele>14.0764</ele>
        <time>2013-04-27T10:55:18Z</time>
      </trkpt>
      <trkpt lat="60.021794" lon="17.6725427">
        <ele>14.0764</ele>
        <time>2013-04-27T10:55:19Z</time>
      </trkpt>
      <trkpt lat="60.02179" lon="17.6724135">
        <ele>14.0764</ele>
        <time>2013-04-27T10:55:20Z</time>
      </trkpt>
      <trkpt lat="60.0217855" lon="17.6722851">
        <ele>14.557</ele>
        <time>2013-04-27T10:55:21Z</time>
      </trkpt>
      <trkpt lat="60.02178" lon="17.6721569">
        <ele>14.557</ele>
        <time>2013-04-27T10:55:22Z</time>
      </trkpt>
      <trkpt lat="60.0217729" lon="17.672028">
        <ele>14.557</ele>
        <time>2013-04-27T10:55:23Z</time>
      </trkpt>
      <trkpt lat="60.0217644" lon="17.6718999">
        <ele>14.557</ele>
        <time>2013-04-27T10:55:24Z</time>
      </trkpt>
      <trkpt lat="60.0217539" lon="17.6717696">
        <ele>14.0764</ele>
        <time>2013-04-27T10:55:25Z</time>
      </trkpt>
      <trkpt lat="60.0217429" lon="17.671639">
        <ele>14.0764</ele>
        <time>2013-04-27T10:55:26Z</time>
      </trkpt>
      <trkpt lat="60.0217308" lon="17.6715089">
        <ele>14.0764</ele>
        <time>2013-04-27T10:55:27Z</time>
      </trkpt>
      <trkpt lat="60.0217175" lon="17.671379">
        <ele>14.0764</ele>
        <time>2013-04-27T10:55:28Z</time>
      </trkpt>
      <trkpt lat="60.0217048" lon="17.6712488">
        <ele>14.0764</ele>
        <time>2013-04-27T10:55:29Z</time>
      </trkpt>
      <trkpt lat="60.0216909" lon="17.6711188">
        <ele>14.557</ele>
        <time>2013-04-27T10:55:30Z</time>
      </trkpt>
      <trkpt lat="60.0216736" lon="17.670978">
        <ele>15.0377</ele>
        <time>2013-04-27T10:55:31Z</time>
      </trkpt>
      <trkpt lat="60.0216558" lon="17.6708392">
        <ele>15.5184</ele>
        <time>2013-04-27T10:55:32Z</time>
      </trkpt>
      <trkpt lat="60.0216368" lon="17.6707019">
        <ele>15.999</ele>
        <time>2013-04-27T10:55:33Z</time>
      </trkpt>
      <trkpt lat="60.0216185" lon="17.6705743">
        <ele>15.5184</ele>
        <time>2013-04-27T10:55:34Z</time>
      </trkpt>
      <trkpt lat="60.0215995" lon="17.6704502">
        <ele>15.5184</ele>
        <time>2013-04-27T10:55:35Z</time>
      </trkpt>
      <trkpt lat="60.0215757" lon="17.6703357">
        <ele>15.5184</ele>
        <time>2013-04-27T10:55:36Z</time>
      </trkpt>
      <trkpt lat="60.0215552" lon="17.6702248">
        <ele>15.5184</ele>
        <time>2013-04-27T10:55:37Z</time>
      </trkpt>
      <trkpt lat="60.0215341" lon="17.6701133">
        <ele>15.5184</ele>
        <time>2013-04-27T10:55:38Z</time>
      </trkpt>
      <trkpt lat="60.0215132" lon="17.6700057">
        <ele>15.0377</ele>
        <time>2013-04-27T10:55:39Z</time>
      </trkpt>
      <trkpt lat="60.0214906" lon="17.6698928">
        <ele>15.0377</ele>
        <time>2013-04-27T10:55:40Z</time>
      </trkpt>
      <trkpt lat="60.0214667" lon="17.6697752">
        <ele>15.0377</ele>
        <time>2013-04-27T10:55:41Z</time>
      </trkpt>
      <trkpt lat="60.0214405" lon="17.6696543">
        <ele>14.557</ele>
        <time>2013-04-27T10:55:42Z</time>
      </trkpt>
      <trkpt lat="60.0214142" lon="17.6695342">
        <ele>14.557</ele>
        <time>2013-04-27T10:55:43Z</time>
      </trkpt>
      <trkpt lat="60.021389" lon="17.669416">
        <ele>14.0764</ele>
        <time>2013-04-27T10:55:44Z</time>
      </trkpt>
      <trkpt lat="60.0213627" lon="17.6692992">
        <ele>14.557</ele>
        <time>2013-04-27T10:55:45Z</time>
      </trkpt>
      <trkpt lat="60.0213353" lon="17.6691832">
        <ele>14.557</ele>
        <time>2013-04-27T10:55:46Z</time>
      </trkpt>
      <trkpt lat="60.021305" lon="17.669063">
        <ele>14.557</ele>
        <time>2013-04-27T10:55:47Z</time>
      </trkpt>
      <trkpt lat="60.0212741" lon="17.6689457">
        <ele>15.0377</ele>
        <time>2013-04-27T10:55:48Z</time>
      </trkpt>
      <trkpt lat="60.021244" lon="17.6688303">
        <ele>15.0377</ele>
        <time>2013-04-27T10:55:49Z</time>
      </trkpt>
      <trkpt lat="60.0212136" lon="17.668716">
        <ele>15.5184</ele>
        <time>2013-04-27T10:55:50Z</time>
      </trkpt>
      <trkpt lat="60.0211815" lon="17.6686055">
        <ele>15.5184</ele>
        <time>2013-04-27T10:55:51Z</time>
      </trkpt>
      <trkpt lat="60.0211492" lon="17.6684972">
        <ele>15.5184</ele>
        <time>2013-04-27T10:55:52Z</time>
      </trkpt>
      <trkpt lat="60.0211172" lon="17.668389">
        <ele>15.999</ele>
        <time>2013-04-27T10:55:53Z</time>
      </trkpt>
      <trkpt lat="60.0210849" lon="17.6682826">
        <ele>15.999</ele>
        <time>2013-04-27T10:55:54Z</time>
      </trkpt>
      <trkpt lat="60.0210516" lon="17.6681782">
        <ele>15.999</ele>
        <time>2013-04-27T10:55:55Z</time>
      </trkpt>
      <trkpt lat="60.0210177" lon="17.6680742">
        <ele>15.999</ele>
        <time>2013-04-27T10:55:56Z</time>
      </trkpt>
      <trkpt lat="60.0209829" lon="17.6679723">
        <ele>15.999</ele>
        <time>2013-04-27T10:55:57Z</time>
      </trkpt>
      <trkpt lat="60.0209477" lon="17.667873">
        <ele>16.4797</ele>
        <time>2013-04-27T10:55:58Z</time>
      </trkpt>
      <trkpt lat="60.020913" lon="17.667774">
        <ele>16.4797</ele>
        <time>2013-04-27T10:55:59Z</time>
      </trkpt>
      <trkpt lat="60.0208783" lon="17.6676743">
        <ele>16.4797</ele>
        <time>2013-04-27T10:56:00Z</time>
      </trkpt>
      <trkpt lat="60.0208432" lon="17.6675756">
        <ele>16.4797</ele>
        <time>2013-04-27T10:56:01Z</time>
      </trkpt>
      <trkpt lat="60.0208072" lon="17.6674768">
        <ele>16.4797</ele>
        <time>2013-04-27T10:56:02Z</time>
      </trkpt>
      <trkpt lat="60.0207706" lon="17.6673779">
        <ele>16.9604</ele>
        <time>2013-04-27T10:56:03Z</time>
      </trkpt>
      <trkpt lat="60.0207351" lon="17.6672795">
        <ele>16.9604</ele>
        <time>2013-04-27T10:56:04Z</time>
      </trkpt>
      <trkpt lat="60.0207013" lon="17.6671844">
        <ele>16.9604</ele>
        <time>2013-04-27T10:56:05Z</time>
      </trkpt>
      <trkpt lat="60.0206673" lon="17.6670908">
        <ele>16.9604</ele>
        <time>2013-04-27T10:56:06Z</time>
      </trkpt>
      <trkpt lat="60.0206321" lon="17.6669956">
        <ele>16.9604</ele>
        <time>2013-04-27T10:56:07Z</time>
      </trkpt>
      <trkpt lat="60.0205964" lon="17.6668993">
        <ele>17.4412</ele>
        <time>2013-04-27T10:56:08Z</time>
      </trkpt>
      <trkpt lat="60.0205608" lon="17.6668028">
        <ele>17.4412</ele>
        <time>2013-04-27T10:56:09Z</time>
      </trkpt>
      <trkpt lat="60.0205256" lon="17.666708">
        <ele>17.9218</ele>
        <time>2013-04-27T10:56:10Z</time>
      </trkpt>
      <trkpt lat="60.0204894" lon="17.6666138">
        <ele>17.9218</ele>
        <time>2013-04-27T10:56:11Z</time>
      </trkpt>
      <trkpt lat="60.0204529" lon="17.6665173">
        <ele>17.9218</ele>
        <time>2013-04-27T10:56:12Z</time>
      </trkpt>
      <trkpt lat="60.0204171" lon="17.6664186">
        <ele>18.4023</ele>
        <time>2013-04-27T10:56:13Z</time>
      </trkpt>
      <trkpt lat="60.0203821" lon="17.6663189">
        <ele>18.4023</ele>
        <time>2013-04-27T10:56:14Z</time>
      </trkpt>
      <trkpt lat="60.0203473" lon="17.6662192">
        <ele>18.4023</ele>
        <time>2013-04-27T10:56:15Z</time>
      </trkpt>
      <trkpt lat="60.0203121" lon="17.6661216">
        <ele>18.4023</ele>
        <time>2013-04-27T10:56:16Z</time>
      </trkpt>
      <trkpt lat="60.0202768" lon="17.6660237">
        <ele>18.8831</ele>
        <time>2013-04-27T10:56:17Z</time>
      </trkpt>
      <trkpt lat="60.0202417" lon="17.6659248">
        <ele>18.8831</ele>
        <time>2013-04-27T10:56:18Z</time>
      </trkpt>
      <trkpt lat="60.0202079" lon="17.6658284">
        <ele>19.3638</ele>
        <time>2013-04-27T10:56:19Z</time>
      </trkpt>
      <trkpt lat="60.0201742" lon="17.6657343">
        <ele>19.3638</ele>
        <time>2013-04-27T10:56:20Z</time>
      </trkpt>
      <trkpt lat="60.0201407" lon="17.665642">
        <ele>19.8444</ele>
        <time>2013-04-27T10:56:21Z</time>
      </trkpt>
      <trkpt lat="60.0201085" lon="17.6655519">
        <ele>20.325</ele>
        <time>2013-04-27T10:56:22Z</time>
      </trkpt>
      <trkpt lat="60.0200764" lon="17.6654628">
        <ele>20.325</ele>
        <time>2013-04-27T10:56:23Z</time>
      </trkpt>
      <trkpt lat="60.0200439" lon="17.6653731">
        <ele>20.325</ele>
        <time>2013-04-27T10:56:24Z</time>
      </trkpt>
      <trkpt lat="60.0200137" lon="17.6652877">
        <ele>20.325</ele>
        <time>2013-04-27T10:56:25Z</time>
      </trkpt>
      <trkpt lat="60.0199838" lon="17.6652023">
        <ele>20.325</ele>
        <time>2013-04-27T10:56:26Z</time>
      </trkpt>
      <trkpt lat="60.0199542" lon="17.6651173">
        <ele>20.325</ele>
        <time>2013-04-27T10:56:27Z</time>
      </trkpt>
      <trkpt lat="60.0199239" lon="17.6650308">
        <ele>20.8057</ele>
        <time>2013-04-27T10:56:28Z</time>
      </trkpt>
      <trkpt lat="60.0198939" lon="17.6649427">
        <ele>20.8057</ele>
        <time>2013-04-27T10:56:29Z</time>
      </trkpt>
      <trkpt lat="60.0198639" lon="17.6648526">
        <ele>21.2864</ele>
        <time>2013-04-27T10:56:30Z</time>
      </trkpt>
      <trkpt lat="60.019835" lon="17.6647614">
        <ele>21.2864</ele>
        <time>2013-04-27T10:56:31Z</time>
      </trkpt>
      <trkpt lat="60.019807" lon="17.6646687">
        <ele>21.767</ele>
        <time>2013-04-27T10:56:32Z</time>
      </trkpt>
      <trkpt lat="60.0197791" lon="17.6645763">
        <ele>21.767</ele>
        <time>2013-04-27T10:56:33Z</time>
      </trkpt>
      <trkpt lat="60.0197522" lon="17.6644822">
        <ele>22.2476</ele>
        <time>2013-04-27T10:56:34Z</time>
      </trkpt>
      <trkpt lat="60.0197258" lon="17.6643867">
        <ele>22.2476</ele>
        <time>2013-04-27T10:56:35Z</time>
      </trkpt>
      <trkpt lat="60.0196999" lon="17.6642917">
        <ele>22.7283</ele>
        <time>2013-04-27T10:56:36Z</time>
      </trkpt>
      <trkpt lat="60.0196744" lon="17.6641974">
        <ele>21.767</ele>
        <time>2013-04-27T10:56:37Z</time>
      </trkpt>
      <trkpt lat="60.0196495" lon="17.6641008">
        <ele>21.767</ele>
        <time>2013-04-27T10:56:38Z</time>
      </trkpt>
      <trkpt lat="60.0196252" lon="17.6640049">
        <ele>22.2476</ele>
        <time>2013-04-27T10:56:39Z</time>
      </trkpt>
      <trkpt lat="60.0196015" lon="17.6639085">
        <ele>22.2476</ele>
        <time>2013-04-27T10:56:40Z</time>
      </trkpt>
      <trkpt lat="60.0195791" lon="17.6638112">
        <ele>22.2476</ele>
        <time>2013-04-27T10:56:41Z</time>
      </trkpt>
      <trkpt lat="60.0195569" lon="17.6637124">
        <ele>22.7283</ele>
        <time>2013-04-27T10:56:42Z</time>
      </trkpt>
      <trkpt lat="60.0195354" lon="17.6636124">
        <ele>22.7283</ele>
        <time>2013-04-27T10:56:43Z</time>
      </trkpt>
      <trkpt lat="60.0195152" lon="17.6635143">
        <ele>22.7283</ele>
        <time>2013-04-27T10:56:44Z</time>
      </trkpt>
      <trkpt lat="60.0194947" lon="17.6634151">
        <ele>22.7283</ele>
        <time>2013-04-27T10:56:45Z</time>
      </trkpt>
      <trkpt lat="60.019474" lon="17.6633149">
        <ele>22.7283</ele>
        <time>2013-04-27T10:56:46Z</time>
      </trkpt>
      <trkpt lat="60.0194543" lon="17.6632125">
        <ele>22.7283</ele>
        <time>2013-04-27T10:56:47Z</time>
      </trkpt>
      <trkpt lat="60.0194356" lon="17.6631095">
        <ele>23.209</ele>
        <time>2013-04-27T10:56:48Z</time>
      </trkpt>
      <trkpt lat="60.0194169" lon="17.6630042">
        <ele>23.209</ele>
        <time>2013-04-27T10:56:49Z</time>
      </trkpt>
      <trkpt lat="60.0193984" lon="17.6628966">
        <ele>23.209</ele>
        <time>2013-04-27T10:56:50Z</time>
      </trkpt>
      <trkpt lat="60.0193802" lon="17.6627887">
        <ele>23.209</ele>
        <time>2013-04-27T10:56:51Z</time>
      </trkpt>
      <trkpt lat="60.0193631" lon="17.6626816">
        <ele>23.209</ele>
        <time>2013-04-27T10:56:52Z</time>
      </trkpt>
      <trkpt lat="60.0193469" lon="17.6625738">
        <ele>23.209</ele>
        <time>2013-04-27T10:56:53Z</time>
      </trkpt>
      <trkpt lat="60.0193314" lon="17.6624666">
        <ele>23.6896</ele>
        <time>2013-04-27T10:56:54Z</time>
      </trkpt>
      <trkpt lat="60.0193165" lon="17.6623593">
        <ele>23.6896</ele>
        <time>2013-04-27T10:56:55Z</time>
      </trkpt>
      <trkpt lat="60.0193015" lon="17.6622516">
        <ele>23.6896</ele>
        <time>2013-04-27T10:56:56Z</time>
      </trkpt>
      <trkpt lat="60.0192881" lon="17.6621424">
        <ele>23.6896</ele>
        <time>2013-04-27T10:56:57Z</time>
      </trkpt>
      <trkpt lat="60.0192762" lon="17.6620318">
        <ele>23.6896</ele>
        <time>2013-04-27T10:56:58Z</time>
      </trkpt>
      <trkpt lat="60.0192646" lon="17.6619215">
        <ele>23.6896</ele>
        <time>2013-04-27T10:56:59Z</time>
      </trkpt>
      <trkpt lat="60.0192533" lon="17.6618108">
        <ele>23.6896</ele>
        <time>2013-04-27T10:57:00Z</time>
      </trkpt>
      <trkpt lat="60.019243" lon="17.6616988">
        <ele>23.6896</ele>
        <time>2013-04-27T10:57:01Z</time>
      </trkpt>
      <trkpt lat="60.0192329" lon="17.6615869">
        <ele>23.6896</ele>
        <time>2013-04-27T10:57:02Z</time>
      </trkpt>
      <trkpt lat="60.0192232" lon="17.6614751">
        <ele>23.209</ele>
        <time>2013-04-27T10:57:03Z</time>
      </trkpt>
      <trkpt lat="60.0192144" lon="17.6613634">
        <ele>23.209</ele>
        <time>2013-04-27T10:57:04Z</time>
      </trkpt>
      <trkpt lat="60.0192047" lon="17.6612527">
        <ele>23.209</ele>
        <time>2013-04-27T10:57:05Z</time>
      </trkpt>
      <trkpt lat="60.0191961" lon="17.66114">
        <ele>23.209</ele>
        <time>2013-04-27T10:57:06Z</time>
      </trkpt>
      <trkpt lat="60.0191884" lon="17.6610259">
        <ele>23.6896</ele>
        <time>2013-04-27T10:57:07Z</time>
      </trkpt>
      <trkpt lat="60.0191785" lon="17.6609137">
        <ele>23.209</ele>
        <time>2013-04-27T10:57:08Z</time>
      </trkpt>
      <trkpt lat="60.0191704" lon="17.6608011">
        <ele>23.209</ele>
        <time>2013-04-27T10:57:09Z</time>
      </trkpt>
      <trkpt lat="60.0191626" lon="17.6606883">
        <ele>23.6896</ele>
        <time>2013-04-27T10:57:10Z</time>
      </trkpt>
      <trkpt lat="60.0191549" lon="17.6605755">
        <ele>24.1703</ele>
        <time>2013-04-27T10:57:11Z</time>
      </trkpt>
      <trkpt lat="60.0191461" lon="17.6604638">
        <ele>23.6896</ele>
        <time>2013-04-27T10:57:12Z</time>
      </trkpt>
      <trkpt lat="60.0191377" lon="17.6603521">
        <ele>23.6896</ele>
        <time>2013-04-27T10:57:13Z</time>
      </trkpt>
      <trkpt lat="60.0191295" lon="17.660239">
        <ele>23.6896</ele>
        <time>2013-04-27T10:57:14Z</time>
      </trkpt>
      <trkpt lat="60.0191221" lon="17.6601257">
        <ele>24.1703</ele>
        <time>2013-04-27T10:57:15Z</time>
      </trkpt>
      <trkpt lat="60.0191138" lon="17.6600142">
        <ele>24.1703</ele>
        <time>2013-04-27T10:57:16Z</time>
      </trkpt>
      <trkpt lat="60.0191041" lon="17.6599043">
        <ele>23.6896</ele>
        <time>2013-04-27T10:57:17Z</time>
      </trkpt>
      <trkpt lat="60.0190957" lon="17.6597942">
        <ele>23.6896</ele>
        <time>2013-04-27T10:57:18Z</time>
      </trkpt>
      <trkpt lat="60.019087" lon="17.6596842">
        <ele>23.6896</ele>
        <time>2013-04-27T10:57:19Z</time>
      </trkpt>
      <trkpt lat="60.0190783" lon="17.6595749">
        <ele>23.209</ele>
        <time>2013-04-27T10:57:20Z</time>
      </trkpt>
      <trkpt lat="60.0190703" lon="17.6594658">
        <ele>23.209</ele>
        <time>2013-04-27T10:57:21Z</time>
      </trkpt>
      <trkpt lat="60.0190611" lon="17.6593576">
        <ele>23.209</ele>
        <time>2013-04-27T10:57:22Z</time>
      </trkpt>
      <trkpt lat="60.0190523" lon="17.6592517">
        <ele>22.7283</ele>
        <time>2013-04-27T10:57:23Z</time>
      </trkpt>
      <trkpt lat="60.0190435" lon="17.659144">
        <ele>22.7283</ele>
        <time>2013-04-27T10:57:24Z</time>
      </trkpt>
      <trkpt lat="60.0190355" lon="17.6590348">
        <ele>22.7283</ele>
        <time>2013-04-27T10:57:25Z</time>
      </trkpt>
      <trkpt lat="60.0190276" lon="17.6589254">
        <ele>22.2476</ele>
        <time>2013-04-27T10:57:26Z</time>
      </trkpt>
      <trkpt lat="60.0190192" lon="17.6588167">
        <ele>22.2476</ele>
        <time>2013-04-27T10:57:27Z</time>
      </trkpt>
      <trkpt lat="60.0190114" lon="17.6587075">
        <ele>22.2476</ele>
        <time>2013-04-27T10:57:28Z</time>
      </trkpt>
      <trkpt lat="60.0190032" lon="17.6585981">
        <ele>22.2476</ele>
        <time>2013-04-27T10:57:29Z</time>
      </trkpt>
      <trkpt lat="60.0189947" lon="17.6584886">
        <ele>21.767</ele>
        <time>2013-04-27T10:57:30Z</time>
      </trkpt>
      <trkpt lat="60.0189865" lon="17.6583764">
        <ele>21.767</ele>
        <time>2013-04-27T10:57:31Z</time>
      </trkpt>
      <trkpt lat="60.0189786" lon="17.6582666">
        <ele>21.767</ele>
        <time>2013-04-27T10:57:32Z</time>
      </trkpt>
      <trkpt lat="60.0189704" lon="17.6581555">
        <ele>21.2864</ele>
        <time>2013-04-27T10:57:33Z</time>
      </trkpt>
      <trkpt lat="60.0189616" lon="17.6580413">
        <ele>21.2864</ele>
        <time>2013-04-27T10:57:34Z</time>
      </trkpt>
      <trkpt lat="60.0189517" lon="17.6579277">
        <ele>20.8057</ele>
        <time>2013-04-27T10:57:35Z</time>
      </trkpt>
      <trkpt lat="60.0189439" lon="17.6578164">
        <ele>20.8057</ele>
        <time>2013-04-27T10:57:36Z</time>
      </trkpt>
      <trkpt lat="60.0189368" lon="17.6577065">
        <ele>20.8057</ele>
        <time>2013-04-27T10:57:37Z</time>
      </trkpt>
      <trkpt lat="60.0189288" lon="17.6575973">
        <ele>20.8057</ele>
        <time>2013-04-27T10:57:38Z</time>
      </trkpt>
      <trkpt lat="60.0189209" lon="17.657488">
        <ele>20.8057</ele>
        <time>2013-04-27T10:57:39Z</time>
      </trkpt>
      <trkpt lat="60.0189135" lon="17.6573777">
        <ele>20.8057</ele>
        <time>2013-04-27T10:57:40Z</time>
      </trkpt>
      <trkpt lat="60.0189052" lon="17.6572654">
        <ele>20.8057</ele>
        <time>2013-04-27T10:57:41Z</time>
      </trkpt>
      <trkpt lat="60.0188967" lon="17.6571522">
        <ele>20.8057</ele>
        <time>2013-04-27T10:57:42Z</time>
      </trkpt>
      <trkpt lat="60.0188884" lon="17.6570384">
        <ele>20.8057</ele>
        <time>2013-04-27T10:57:43Z</time>
      </trkpt>
      <trkpt lat="60.0188798" lon="17.6569238">
        <ele>20.8057</ele>
        <time>2013-04-27T10:57:44Z</time>
      </trkpt>
      <trkpt lat="60.0188714" lon="17.6568089">
        <ele>20.8057</ele>
        <time>2013-04-27T10:57:45Z</time>
      </trkpt>
      <trkpt lat="60.0188627" lon="17.6566949">
        <ele>20.8057</ele>
        <time>2013-04-27T10:57:46Z</time>
      </trkpt>
      <trkpt lat="60.0188544" lon="17.6565797">
        <ele>20.8057</ele>
        <time>2013-04-27T10:57:47Z</time>
      </trkpt>
      <trkpt lat="60.0188462" lon="17.6564669">
        <ele>20.8057</ele>
        <time>2013-04-27T10:57:48Z</time>
      </trkpt>
      <trkpt lat="60.018838" lon="17.6563547">
        <ele>20.8057</ele>
        <time>2013-04-27T10:57:49Z</time>
      </trkpt>
      <trkpt lat="60.01883" lon="17.6562436">
        <ele>20.8057</ele>
        <time>2013-04-27T10:57:50Z</time>
      </trkpt>
      <trkpt lat="60.0188218" lon="17.656132">
        <ele>20.8057</ele>
        <time>2013-04-27T10:57:51Z</time>
      </trkpt>
      <trkpt lat="60.0188135" lon="17.6560231">
        <ele>20.325</ele>
        <time>2013-04-27T10:57:52Z</time>
      </trkpt>
      <trkpt lat="60.0188043" lon="17.6559116">
        <ele>20.325</ele>
        <time>2013-04-27T10:57:53Z</time>
      </trkpt>
      <trkpt lat="60.0187953" lon="17.6557998">
        <ele>20.325</ele>
        <time>2013-04-27T10:57:54Z</time>
      </trkpt>
      <trkpt lat="60.0187867" lon="17.6556886">
        <ele>20.325</ele>
        <time>2013-04-27T10:57:55Z</time>
      </trkpt>
      <trkpt lat="60.0187786" lon="17.6555763">
        <ele>20.325</ele>
        <time>2013-04-27T10:57:56Z</time>
      </trkpt>
      <trkpt lat="60.0187701" lon="17.6554647">
        <ele>20.325</ele>
        <time>2013-04-27T10:57:57Z</time>
      </trkpt>
      <trkpt lat="60.0187616" lon="17.6553518">
        <ele>20.325</ele>
        <time>2013-04-27T10:57:58Z</time>
      </trkpt>
      <trkpt lat="60.0187529" lon="17.6552381">
        <ele>20.325</ele>
        <time>2013-04-27T10:57:59Z</time>
      </trkpt>
      <trkpt lat="60.0187439" lon="17.6551238">
        <ele>19.8444</ele>
        <time>2013-04-27T10:58:00Z</time>
      </trkpt>
      <trkpt lat="60.0187348" lon="17.6550076">
        <ele>19.8444</ele>
        <time>2013-04-27T10:58:01Z</time>
      </trkpt>
      <trkpt lat="60.0187258" lon="17.6548886">
        <ele>19.8444</ele>
        <time>2013-04-27T10:58:02Z</time>
      </trkpt>
      <trkpt lat="60.0187168" lon="17.6547725">
        <ele>19.8444</ele>
        <time>2013-04-27T10:58:03Z</time>
      </trkpt>
      <trkpt lat="60.0187078" lon="17.6546555">
        <ele>19.8444</ele>
        <time>2013-04-27T10:58:04Z</time>
      </trkpt>
      <trkpt lat="60.0186985" lon="17.6545391">
        <ele>19.8444</ele>
        <time>2013-04-27T10:58:05Z</time>
      </trkpt>
      <trkpt lat="60.0186887" lon="17.6544225">
        <ele>19.3638</ele>
        <time>2013-04-27T10:58:06Z</time>
      </trkpt>
      <trkpt lat="60.0186789" lon="17.6543068">
        <ele>19.3638</ele>
        <time>2013-04-27T10:58:07Z</time>
      </trkpt>
      <trkpt lat="60.0186703" lon="17.6541933">
        <ele>18.8831</ele>
        <time>2013-04-27T10:58:08Z</time>
      </trkpt>
      <trkpt lat="60.0186619" lon="17.6540786">
        <ele>18.8831</ele>
        <time>2013-04-27T10:58:09Z</time>
      </trkpt>
      <trkpt lat="60.0186535" lon="17.6539615">
        <ele>18.8831</ele>
        <time>2013-04-27T10:58:10Z</time>
      </trkpt>
      <trkpt lat="60.018644" lon="17.6538446">
        <ele>19.3638</ele>
        <time>2013-04-27T10:58:11Z</time>
      </trkpt>
      <trkpt lat="60.0186347" lon="17.6537266">
        <ele>18.8831</ele>
        <time>2013-04-27T10:58:12Z</time>
      </trkpt>
      <trkpt lat="60.0186255" lon="17.6536097">
        <ele>19.3638</ele>
        <time>2013-04-27T10:58:13Z</time>
      </trkpt>
      <trkpt lat="60.0186165" lon="17.6534946">
        <ele>18.8831</ele>
        <time>2013-04-27T10:58:14Z</time>
      </trkpt>
      <trkpt lat="60.0186074" lon="17.6533797">
        <ele>18.8831</ele>
        <time>2013-04-27T10:58:15Z</time>
      </trkpt>
      <trkpt lat="60.0185985" lon="17.6532658">
        <ele>18.8831</ele>
        <time>2013-04-27T10:58:16Z</time>
      </trkpt>
      <trkpt lat="60.0185901" lon="17.6531516">
        <ele>18.8831</ele>
        <time>2013-04-27T10:58:17Z</time>
      </trkpt>
      <trkpt lat="60.0185812" lon="17.6530372">
        <ele>18.8831</ele>
        <time>2013-04-27T10:58:18Z</time>
      </trkpt>
      <trkpt lat="60.0185721" lon="17.6529231">
        <ele>18.8831</ele>
        <time>2013-04-27T10:58:19Z</time>
      </trkpt>
      <trkpt lat="60.0185629" lon="17.6528088">
        <ele>18.8831</ele>
        <time>2013-04-27T10:58:20Z</time>
      </trkpt>
      <trkpt lat="60.0185536" lon="17.6526932">
        <ele>18.8831</ele>
        <time>2013-04-27T10:58:21Z</time>
      </trkpt>
      <trkpt lat="60.0185453" lon="17.6525779">
        <ele>18.8831</ele>
        <time>2013-04-27T10:58:22Z</time>
      </trkpt>
      <trkpt lat="60.0185377" lon="17.6524626">
        <ele>19.3638</ele>
        <time>2013-04-27T10:58:23Z</time>
      </trkpt>
      <trkpt lat="60.0185296" lon="17.6523497">
        <ele>19.3638</ele>
        <time>2013-04-27T10:58:24Z</time>
      </trkpt>
      <trkpt lat="60.0185214" lon="17.652238">
        <ele>19.3638</ele>
        <time>2013-04-27T10:58:25Z</time>
      </trkpt>
      <trkpt lat="60.018513" lon="17.6521276">
        <ele>19.3638</ele>
        <time>2013-04-27T10:58:26Z</time>
      </trkpt>
      <trkpt lat="60.0185037" lon="17.6520204">
        <ele>19.3638</ele>
        <time>2013-04-27T10:58:27Z</time>
      </trkpt>
      <trkpt lat="60.0184956" lon="17.6519145">
        <ele>19.3638</ele>
        <time>2013-04-27T10:58:28Z</time>
      </trkpt>
      <trkpt lat="60.0184885" lon="17.6518068">
        <ele>19.8444</ele>
        <time>2013-04-27T10:58:29Z</time>
      </trkpt>
      <trkpt lat="60.0184803" lon="17.6516997">
        <ele>19.8444</ele>
        <time>2013-04-27T10:58:30Z</time>
      </trkpt>
      <trkpt lat="60.0184721" lon="17.6515931">
        <ele>19.8444</ele>
        <time>2013-04-27T10:58:31Z</time>
      </trkpt>
      <trkpt lat="60.0184639" lon="17.6514853">
        <ele>19.8444</ele>
        <time>2013-04-27T10:58:32Z</time>
      </trkpt>
      <trkpt lat="60.018457" lon="17.6513758">
        <ele>19.8444</ele>
        <time>2013-04-27T10:58:33Z</time>
      </trkpt>
      <trkpt lat="60.01845" lon="17.6512641">
        <ele>20.325</ele>
        <time>2013-04-27T10:58:34Z</time>
      </trkpt>
      <trkpt lat="60.0184424" lon="17.6511526">
        <ele>20.325</ele>
        <time>2013-04-27T10:58:35Z</time>
      </trkpt>
      <trkpt lat="60.0184359" lon="17.6510422">
        <ele>20.325</ele>
        <time>2013-04-27T10:58:36Z</time>
      </trkpt>
      <trkpt lat="60.0184292" lon="17.6509327">
        <ele>20.325</ele>
        <time>2013-04-27T10:58:37Z</time>
      </trkpt>
      <trkpt lat="60.018422" lon="17.6508231">
        <ele>20.325</ele>
        <time>2013-04-27T10:58:38Z</time>
      </trkpt>
      <trkpt lat="60.0184167" lon="17.6507125">
        <ele>20.325</ele>
        <time>2013-04-27T10:58:39Z</time>
      </trkpt>
      <trkpt lat="60.0184113" lon="17.6506015">
        <ele>20.325</ele>
        <time>2013-04-27T10:58:40Z</time>
      </trkpt>
      <trkpt lat="60.0184047" lon="17.6504907">
        <ele>20.325</ele>
        <time>2013-04-27T10:58:41Z</time>
      </trkpt>
      <trkpt lat="60.0184" lon="17.6503783">
        <ele>20.325</ele>
        <time>2013-04-27T10:58:42Z</time>
      </trkpt>
      <trkpt lat="60.0183964" lon="17.6502642">
        <ele>20.325</ele>
        <time>2013-04-27T10:58:43Z</time>
      </trkpt>
      <trkpt lat="60.0183922" lon="17.6501493">
        <ele>20.325</ele>
        <time>2013-04-27T10:58:44Z</time>
      </trkpt>
      <trkpt lat="60.0183849" lon="17.6499189">
        <ele>20.325</ele>
        <time>2013-04-27T10:58:46Z</time>
      </trkpt>
      <trkpt lat="60.018382" lon="17.6498049">
        <ele>20.325</ele>
        <time>2013-04-27T10:58:47Z</time>
      </trkpt>
      <trkpt lat="60.0183801" lon="17.6496912">
        <ele>20.325</ele>
        <time>2013-04-27T10:58:48Z</time>
      </trkpt>
      <trkpt lat="60.0183782" lon="17.6495764">
        <ele>20.8057</ele>
        <time>2013-04-27T10:58:49Z</time>
      </trkpt>
      <trkpt lat="60.0183757" lon="17.6494602">
        <ele>20.8057</ele>
        <time>2013-04-27T10:58:50Z</time>
      </trkpt>
      <trkpt lat="60.018374" lon="17.6493459">
        <ele>20.8057</ele>
        <time>2013-04-27T10:58:51Z</time>
      </trkpt>
      <trkpt lat="60.0183728" lon="17.6492318">
        <ele>20.8057</ele>
        <time>2013-04-27T10:58:52Z</time>
      </trkpt>
      <trkpt lat="60.0183723" lon="17.6491169">
        <ele>20.325</ele>
        <time>2013-04-27T10:58:53Z</time>
      </trkpt>
      <trkpt lat="60.0183714" lon="17.6490018">
        <ele>19.8444</ele>
        <time>2013-04-27T10:58:54Z</time>
      </trkpt>
      <trkpt lat="60.0183699" lon="17.6488866">
        <ele>19.8444</ele>
        <time>2013-04-27T10:58:55Z</time>
      </trkpt>
      <trkpt lat="60.0183691" lon="17.648772">
        <ele>19.3638</ele>
        <time>2013-04-27T10:58:56Z</time>
      </trkpt>
      <trkpt lat="60.0183689" lon="17.6486565">
        <ele>19.3638</ele>
        <time>2013-04-27T10:58:57Z</time>
      </trkpt>
      <trkpt lat="60.0183685" lon="17.64854">
        <ele>19.3638</ele>
        <time>2013-04-27T10:58:58Z</time>
      </trkpt>
      <trkpt lat="60.0183684" lon="17.6484223">
        <ele>19.3638</ele>
        <time>2013-04-27T10:58:59Z</time>
      </trkpt>
      <trkpt lat="60.018368" lon="17.648305">
        <ele>19.3638</ele>
        <time>2013-04-27T10:59:00Z</time>
      </trkpt>
      <trkpt lat="60.0183676" lon="17.6481906">
        <ele>19.3638</ele>
        <time>2013-04-27T10:59:01Z</time>
      </trkpt>
      <trkpt lat="60.0183673" lon="17.6480789">
        <ele>19.8444</ele>
        <time>2013-04-27T10:59:02Z</time>
      </trkpt>
      <trkpt lat="60.018367" lon="17.6479706">
        <ele>19.8444</ele>
        <time>2013-04-27T10:59:03Z</time>
      </trkpt>
      <trkpt lat="60.0183664" lon="17.6478655">
        <ele>19.8444</ele>
        <time>2013-04-27T10:59:04Z</time>
      </trkpt>
      <trkpt lat="60.0183654" lon="17.6477596">
        <ele>19.8444</ele>
        <time>2013-04-27T10:59:05Z</time>
      </trkpt>
      <trkpt lat="60.0183644" lon="17.6476505">
        <ele>19.8444</ele>
        <time>2013-04-27T10:59:06Z</time>
      </trkpt>
      <trkpt lat="60.0183643" lon="17.6475406">
        <ele>19.8444</ele>
        <time>2013-04-27T10:59:07Z</time>
      </trkpt>
      <trkpt lat="60.018364" lon="17.6474319">
        <ele>19.8444</ele>
        <time>2013-04-27T10:59:08Z</time>
      </trkpt>
      <trkpt lat="60.0183632" lon="17.6473241">
        <ele>19.8444</ele>
        <time>2013-04-27T10:59:09Z</time>
      </trkpt>
      <trkpt lat="60.0183624" lon="17.6472154">
        <ele>19.8444</ele>
        <time>2013-04-27T10:59:10Z</time>
      </trkpt>
      <trkpt lat="60.0183624" lon="17.6471055">
        <ele>19.8444</ele>
        <time>2013-04-27T10:59:11Z</time>
      </trkpt>
      <trkpt lat="60.0183623" lon="17.6469955">
        <ele>19.8444</ele>
        <time>2013-04-27T10:59:12Z</time>
      </trkpt>
      <trkpt lat="60.0183612" lon="17.6468837">
        <ele>19.8444</ele>
        <time>2013-04-27T10:59:13Z</time>
      </trkpt>
      <trkpt lat="60.0183598" lon="17.646771">
        <ele>19.3638</ele>
        <time>2013-04-27T10:59:14Z</time>
      </trkpt>
      <trkpt lat="60.0183583" lon="17.6466523">
        <ele>19.3638</ele>
        <time>2013-04-27T10:59:15Z</time>
      </trkpt>
      <trkpt lat="60.0183575" lon="17.6465378">
        <ele>19.3638</ele>
        <time>2013-04-27T10:59:16Z</time>
      </trkpt>
      <trkpt lat="60.0183565" lon="17.6464207">
        <ele>19.3638</ele>
        <time>2013-04-27T10:59:17Z</time>
      </trkpt>
      <trkpt lat="60.0183561" lon="17.646306">
        <ele>19.3638</ele>
        <time>2013-04-27T10:59:18Z</time>
      </trkpt>
      <trkpt lat="60.0183546" lon="17.6461923">
        <ele>18.8831</ele>
        <time>2013-04-27T10:59:19Z</time>
      </trkpt>
      <trkpt lat="60.0183538" lon="17.6460784">
        <ele>18.8831</ele>
        <time>2013-04-27T10:59:20Z</time>
      </trkpt>
      <trkpt lat="60.0183535" lon="17.645965">
        <ele>19.3638</ele>
        <time>2013-04-27T10:59:21Z</time>
      </trkpt>
      <trkpt lat="60.0183523" lon="17.6458518">
        <ele>19.3638</ele>
        <time>2013-04-27T10:59:22Z</time>
      </trkpt>
      <trkpt lat="60.0183515" lon="17.645738">
        <ele>19.3638</ele>
        <time>2013-04-27T10:59:23Z</time>
      </trkpt>
      <trkpt lat="60.0183507" lon="17.6456243">
        <ele>19.3638</ele>
        <time>2013-04-27T10:59:24Z</time>
      </trkpt>
      <trkpt lat="60.0183494" lon="17.6455114">
        <ele>19.8444</ele>
        <time>2013-04-27T10:59:25Z</time>
      </trkpt>
      <trkpt lat="60.0183489" lon="17.6454">
        <ele>19.8444</ele>
        <time>2013-04-27T10:59:26Z</time>
      </trkpt>
      <trkpt lat="60.0183483" lon="17.6452894">
        <ele>19.8444</ele>
        <time>2013-04-27T10:59:27Z</time>
      </trkpt>
      <trkpt lat="60.0183473" lon="17.6451805">
        <ele>19.8444</ele>
        <time>2013-04-27T10:59:28Z</time>
      </trkpt>
      <trkpt lat="60.0183461" lon="17.6450728">
        <ele>19.3638</ele>
        <time>2013-04-27T10:59:29Z</time>
      </trkpt>
      <trkpt lat="60.0183457" lon="17.6449656">
        <ele>19.3638</ele>
        <time>2013-04-27T10:59:30Z</time>
      </trkpt>
      <trkpt lat="60.0183456" lon="17.644858">
        <ele>19.3638</ele>
        <time>2013-04-27T10:59:31Z</time>
      </trkpt>
      <trkpt lat="60.0183458" lon="17.6447503">
        <ele>19.8444</ele>
        <time>2013-04-27T10:59:32Z</time>
      </trkpt>
      <trkpt lat="60.0183455" lon="17.6446443">
        <ele>19.8444</ele>
        <time>2013-04-27T10:59:33Z</time>
      </trkpt>
      <trkpt lat="60.0183445" lon="17.6445376">
        <ele>19.3638</ele>
        <time>2013-04-27T10:59:34Z</time>
      </trkpt>
      <trkpt lat="60.0183442" lon="17.6444315">
        <ele>19.3638</ele>
        <time>2013-04-27T10:59:35Z</time>
      </trkpt>
      <trkpt lat="60.0183447" lon="17.6443254">
        <ele>19.8444</ele>
        <time>2013-04-27T10:59:36Z</time>
      </trkpt>
      <trkpt lat="60.0183461" lon="17.6442198">
        <ele>19.8444</ele>
        <time>2013-04-27T10:59:37Z</time>
      </trkpt>
      <trkpt lat="60.0183474" lon="17.6441155">
        <ele>19.8444</ele>
        <time>2013-04-27T10:59:38Z</time>
      </trkpt>
      <trkpt lat="60.0183485" lon="17.6440126">
        <ele>20.325</ele>
        <time>2013-04-27T10:59:39Z</time>
      </trkpt>
      <trkpt lat="60.0183498" lon="17.643911">
        <ele>20.325</ele>
        <time>2013-04-27T10:59:40Z</time>
      </trkpt>
      <trkpt lat="60.0183509" lon="17.6438103">
        <ele>20.325</ele>
        <time>2013-04-27T10:59:41Z</time>
      </trkpt>
      <trkpt lat="60.018352" lon="17.64371">
        <ele>20.8057</ele>
        <time>2013-04-27T10:59:42Z</time>
      </trkpt>
      <trkpt lat="60.018354" lon="17.6436103">
        <ele>20.8057</ele>
        <time>2013-04-27T10:59:43Z</time>
      </trkpt>
      <trkpt lat="60.0183564" lon="17.6435103">
        <ele>20.8057</ele>
        <time>2013-04-27T10:59:44Z</time>
      </trkpt>
      <trkpt lat="60.0183578" lon="17.6434104">
        <ele>20.8057</ele>
        <time>2013-04-27T10:59:45Z</time>
      </trkpt>
      <trkpt lat="60.0183586" lon="17.6433111">
        <ele>20.8057</ele>
        <time>2013-04-27T10:59:46Z</time>
      </trkpt>
      <trkpt lat="60.0183585" lon="17.6432117">
        <ele>20.8057</ele>
        <time>2013-04-27T10:59:47Z</time>
      </trkpt>
      <trkpt lat="60.0183577" lon="17.6431117">
        <ele>20.8057</ele>
        <time>2013-04-27T10:59:48Z</time>
      </trkpt>
      <trkpt lat="60.018357" lon="17.6430112">
        <ele>20.8057</ele>
        <time>2013-04-27T10:59:49Z</time>
      </trkpt>
      <trkpt lat="60.0183556" lon="17.6429112">
        <ele>19.8444</ele>
        <time>2013-04-27T10:59:50Z</time>
      </trkpt>
      <trkpt lat="60.0183533" lon="17.6428102">
        <ele>19.3638</ele>
        <time>2013-04-27T10:59:51Z</time>
      </trkpt>
      <trkpt lat="60.0183488" lon="17.6427067">
        <ele>17.9218</ele>
        <time>2013-04-27T10:59:52Z</time>
      </trkpt>
      <trkpt lat="60.0183441" lon="17.642602">
        <ele>16.9604</ele>
        <time>2013-04-27T10:59:53Z</time>
      </trkpt>
      <trkpt lat="60.0183386" lon="17.6424983">
        <ele>16.4797</ele>
        <time>2013-04-27T10:59:54Z</time>
      </trkpt>
      <trkpt lat="60.0183318" lon="17.6423947">
        <ele>15.5184</ele>
        <time>2013-04-27T10:59:55Z</time>
      </trkpt>
      <trkpt lat="60.018325" lon="17.6422913">
        <ele>14.557</ele>
        <time>2013-04-27T10:59:56Z</time>
      </trkpt>
      <trkpt lat="60.0183174" lon="17.6421886">
        <ele>14.0764</ele>
        <time>2013-04-27T10:59:57Z</time>
      </trkpt>
      <trkpt lat="60.0183086" lon="17.6420838">
        <ele>13.5958</ele>
        <time>2013-04-27T10:59:58Z</time>
      </trkpt>
      <trkpt lat="60.0182985" lon="17.6419715">
        <ele>13.5958</ele>
        <time>2013-04-27T10:59:59Z</time>
      </trkpt>
      <trkpt lat="60.0182882" lon="17.6418559">
        <ele>13.5958</ele>
        <time>2013-04-27T11:00:00Z</time>
      </trkpt>
      <trkpt lat="60.018278" lon="17.6417404">
        <ele>14.0764</ele>
        <time>2013-04-27T11:00:01Z</time>
      </trkpt>
      <trkpt lat="60.0182675" lon="17.641625">
        <ele>14.0764</ele>
        <time>2013-04-27T11:00:02Z</time>
      </trkpt>
      <trkpt lat="60.018256" lon="17.64151">
        <ele>14.557</ele>
        <time>2013-04-27T11:00:03Z</time>
      </trkpt>
      <trkpt lat="60.0182447" lon="17.641394">
        <ele>14.557</ele>
        <time>2013-04-27T11:00:04Z</time>
      </trkpt>
      <trkpt lat="60.0182334" lon="17.6412779">
        <ele>15.0377</ele>
        <time>2013-04-27T11:00:05Z</time>
      </trkpt>
      <trkpt lat="60.0182217" lon="17.6411567">
        <ele>15.0377</ele>
        <time>2013-04-27T11:00:06Z</time>
      </trkpt>
      <trkpt lat="60.0182106" lon="17.6410354">
        <ele>15.5184</ele>
        <time>2013-04-27T11:00:07Z</time>
      </trkpt>
      <trkpt lat="60.0181993" lon="17.6409163">
        <ele>15.5184</ele>
        <time>2013-04-27T11:00:08Z</time>
      </trkpt>
      <trkpt lat="60.0181886" lon="17.6407965">
        <ele>15.999</ele>
        <time>2013-04-27T11:00:09Z</time>
      </trkpt>
      <trkpt lat="60.0181764" lon="17.6406775">
        <ele>15.999</ele>
        <time>2013-04-27T11:00:10Z</time>
      </trkpt>
      <trkpt lat="60.0181645" lon="17.6405604">
        <ele>15.999</ele>
        <time>2013-04-27T11:00:11Z</time>
      </trkpt>
      <trkpt lat="60.0181531" lon="17.6404451">
        <ele>15.999</ele>
        <time>2013-04-27T11:00:12Z</time>
      </trkpt>
      <trkpt lat="60.0181417" lon="17.640331">
        <ele>15.999</ele>
        <time>2013-04-27T11:00:13Z</time>
      </trkpt>
      <trkpt lat="60.0181303" lon="17.640217">
        <ele>16.4797</ele>
        <time>2013-04-27T11:00:14Z</time>
      </trkpt>
      <trkpt lat="60.0181188" lon="17.6401035">
        <ele>16.4797</ele>
        <time>2013-04-27T11:00:15Z</time>
      </trkpt>
      <trkpt lat="60.0181074" lon="17.6399899">
        <ele>16.4797</ele>
        <time>2013-04-27T11:00:16Z</time>
      </trkpt>
      <trkpt lat="60.0180967" lon="17.6398776">
        <ele>17.4412</ele>
        <time>2013-04-27T11:00:17Z</time>
      </trkpt>
      <trkpt lat="60.0180858" lon="17.6397679">
        <ele>17.9218</ele>
        <time>2013-04-27T11:00:18Z</time>
      </trkpt>
      <trkpt lat="60.0180744" lon="17.6396585">
        <ele>18.4023</ele>
        <time>2013-04-27T11:00:19Z</time>
      </trkpt>
      <trkpt lat="60.0180627" lon="17.6395429">
        <ele>18.4023</ele>
        <time>2013-04-27T11:00:20Z</time>
      </trkpt>
      <trkpt lat="60.0180518" lon="17.639425">
        <ele>18.4023</ele>
        <time>2013-04-27T11:00:21Z</time>
      </trkpt>
      <trkpt lat="60.0180415" lon="17.6393063">
        <ele>18.4023</ele>
        <time>2013-04-27T11:00:22Z</time>
      </trkpt>
      <trkpt lat="60.0180303" lon="17.6391893">
        <ele>18.4023</ele>
        <time>2013-04-27T11:00:23Z</time>
      </trkpt>
      <trkpt lat="60.0180183" lon="17.6390754">
        <ele>18.4023</ele>
        <time>2013-04-27T11:00:24Z</time>
      </trkpt>
      <trkpt lat="60.0180075" lon="17.6389639">
        <ele>18.4023</ele>
        <time>2013-04-27T11:00:25Z</time>
      </trkpt>
      <trkpt lat="60.0179974" lon="17.6388557">
        <ele>18.8831</ele>
        <time>2013-04-27T11:00:26Z</time>
      </trkpt>
      <trkpt lat="60.0179864" lon="17.6387472">
        <ele>18.8831</ele>
        <time>2013-04-27T11:00:27Z</time>
      </trkpt>
      <trkpt lat="60.0179749" lon="17.638639">
        <ele>19.3638</ele>
        <time>2013-04-27T11:00:28Z</time>
      </trkpt>
      <trkpt lat="60.0179622" lon="17.638532">
        <ele>19.3638</ele>
        <time>2013-04-27T11:00:29Z</time>
      </trkpt>
      <trkpt lat="60.0179483" lon="17.6384247">
        <ele>19.3638</ele>
        <time>2013-04-27T11:00:30Z</time>
      </trkpt>
      <trkpt lat="60.0179334" lon="17.6383164">
        <ele>19.8444</ele>
        <time>2013-04-27T11:00:31Z</time>
      </trkpt>
      <trkpt lat="60.0179173" lon="17.6382075">
        <ele>19.8444</ele>
        <time>2013-04-27T11:00:32Z</time>
      </trkpt>
      <trkpt lat="60.0178997" lon="17.6380988">
        <ele>19.8444</ele>
        <time>2013-04-27T11:00:33Z</time>
      </trkpt>
      <trkpt lat="60.0178789" lon="17.6379895">
        <ele>19.8444</ele>
        <time>2013-04-27T11:00:34Z</time>
      </trkpt>
      <trkpt lat="60.0178552" lon="17.6378793">
        <ele>19.8444</ele>
        <time>2013-04-27T11:00:35Z</time>
      </trkpt>
      <trkpt lat="60.0178309" lon="17.6377669">
        <ele>19.8444</ele>
        <time>2013-04-27T11:00:36Z</time>
      </trkpt>
      <trkpt lat="60.017806" lon="17.637655">
        <ele>19.8444</ele>
        <time>2013-04-27T11:00:37Z</time>
      </trkpt>
      <trkpt lat="60.0177801" lon="17.6375463">
        <ele>19.8444</ele>
        <time>2013-04-27T11:00:38Z</time>
      </trkpt>
      <trkpt lat="60.0177538" lon="17.6374404">
        <ele>19.8444</ele>
        <time>2013-04-27T11:00:39Z</time>
      </trkpt>
      <trkpt lat="60.0177262" lon="17.6373348">
        <ele>19.8444</ele>
        <time>2013-04-27T11:00:40Z</time>
      </trkpt>
      <trkpt lat="60.0176973" lon="17.6372286">
        <ele>19.8444</ele>
        <time>2013-04-27T11:00:41Z</time>
      </trkpt>
      <trkpt lat="60.0176676" lon="17.6371218">
        <ele>20.325</ele>
        <time>2013-04-27T11:00:42Z</time>
      </trkpt>
      <trkpt lat="60.0176369" lon="17.6370176">
        <ele>20.325</ele>
        <time>2013-04-27T11:00:43Z</time>
      </trkpt>
      <trkpt lat="60.0176061" lon="17.6369136">
        <ele>20.325</ele>
        <time>2013-04-27T11:00:44Z</time>
      </trkpt>
      <trkpt lat="60.0175745" lon="17.636808">
        <ele>20.325</ele>
        <time>2013-04-27T11:00:45Z</time>
      </trkpt>
      <trkpt lat="60.0175423" lon="17.6367019">
        <ele>20.8057</ele>
        <time>2013-04-27T11:00:46Z</time>
      </trkpt>
      <trkpt lat="60.0175095" lon="17.6365947">
        <ele>20.8057</ele>
        <time>2013-04-27T11:00:47Z</time>
      </trkpt>
      <trkpt lat="60.0174761" lon="17.6364843">
        <ele>20.8057</ele>
        <time>2013-04-27T11:00:48Z</time>
      </trkpt>
      <trkpt lat="60.0174432" lon="17.6363729">
        <ele>20.8057</ele>
        <time>2013-04-27T11:00:49Z</time>
      </trkpt>
      <trkpt lat="60.0174109" lon="17.6362641">
        <ele>20.8057</ele>
        <time>2013-04-27T11:00:50Z</time>
      </trkpt>
      <trkpt lat="60.0173797" lon="17.6361558">
        <ele>20.8057</ele>
        <time>2013-04-27T11:00:51Z</time>
      </trkpt>
      <trkpt lat="60.0173486" lon="17.6360474">
        <ele>20.8057</ele>
        <time>2013-04-27T11:00:52Z</time>
      </trkpt>
      <trkpt lat="60.0173173" lon="17.6359396">
        <ele>21.2864</ele>
        <time>2013-04-27T11:00:53Z</time>
      </trkpt>
      <trkpt lat="60.0172864" lon="17.6358367">
        <ele>20.8057</ele>
        <time>2013-04-27T11:00:54Z</time>
      </trkpt>
      <trkpt lat="60.0172559" lon="17.635733">
        <ele>20.8057</ele>
        <time>2013-04-27T11:00:55Z</time>
      </trkpt>
      <trkpt lat="60.0172258" lon="17.6356296">
        <ele>20.8057</ele>
        <time>2013-04-27T11:00:56Z</time>
      </trkpt>
      <trkpt lat="60.0171958" lon="17.6355254">
        <ele>20.8057</ele>
        <time>2013-04-27T11:00:57Z</time>
      </trkpt>
      <trkpt lat="60.0171658" lon="17.6354218">
        <ele>20.8057</ele>
        <time>2013-04-27T11:00:58Z</time>
      </trkpt>
      <trkpt lat="60.0171357" lon="17.6353181">
        <ele>20.8057</ele>
        <time>2013-04-27T11:00:59Z</time>
      </trkpt>
      <trkpt lat="60.0171062" lon="17.6352154">
        <ele>20.8057</ele>
        <time>2013-04-27T11:01:00Z</time>
      </trkpt>
      <trkpt lat="60.0170767" lon="17.6351135">
        <ele>20.8057</ele>
        <time>2013-04-27T11:01:01Z</time>
      </trkpt>
      <trkpt lat="60.0170467" lon="17.6350104">
        <ele>20.8057</ele>
        <time>2013-04-27T11:01:02Z</time>
      </trkpt>
      <trkpt lat="60.017016" lon="17.6349057">
        <ele>21.2864</ele>
        <time>2013-04-27T11:01:03Z</time>
      </trkpt>
      <trkpt lat="60.0169837" lon="17.6347933">
        <ele>21.767</ele>
        <time>2013-04-27T11:01:04Z</time>
      </trkpt>
      <trkpt lat="60.0169516" lon="17.6346795">
        <ele>22.7283</ele>
        <time>2013-04-27T11:01:05Z</time>
      </trkpt>
      <trkpt lat="60.0169206" lon="17.6345667">
        <ele>23.209</ele>
        <time>2013-04-27T11:01:06Z</time>
      </trkpt>
      <trkpt lat="60.0168905" lon="17.6344612">
        <ele>23.6896</ele>
        <time>2013-04-27T11:01:07Z</time>
      </trkpt>
      <trkpt lat="60.0168607" lon="17.6343574">
        <ele>24.1703</ele>
        <time>2013-04-27T11:01:08Z</time>
      </trkpt>
      <trkpt lat="60.0168307" lon="17.6342542">
        <ele>24.651</ele>
        <time>2013-04-27T11:01:09Z</time>
      </trkpt>
      <trkpt lat="60.0167995" lon="17.6341515">
        <ele>24.651</ele>
        <time>2013-04-27T11:01:10Z</time>
      </trkpt>
      <trkpt lat="60.0167672" lon="17.6340501">
        <ele>24.651</ele>
        <time>2013-04-27T11:01:11Z</time>
      </trkpt>
      <trkpt lat="60.0167332" lon="17.6339502">
        <ele>24.651</ele>
        <time>2013-04-27T11:01:12Z</time>
      </trkpt>
      <trkpt lat="60.0166981" lon="17.6338502">
        <ele>24.651</ele>
        <time>2013-04-27T11:01:13Z</time>
      </trkpt>
      <trkpt lat="60.0166622" lon="17.6337496">
        <ele>25.1317</ele>
        <time>2013-04-27T11:01:14Z</time>
      </trkpt>
      <trkpt lat="60.0166245" lon="17.6336545">
        <ele>25.1317</ele>
        <time>2013-04-27T11:01:15Z</time>
      </trkpt>
      <trkpt lat="60.0165845" lon="17.633557">
        <ele>25.6123</ele>
        <time>2013-04-27T11:01:16Z</time>
      </trkpt>
      <trkpt lat="60.0165441" lon="17.6334607">
        <ele>26.5736</ele>
        <time>2013-04-27T11:01:17Z</time>
      </trkpt>
      <trkpt lat="60.0165032" lon="17.6333684">
        <ele>26.5736</ele>
        <time>2013-04-27T11:01:18Z</time>
      </trkpt>
      <trkpt lat="60.0164615" lon="17.6332813">
        <ele>27.0543</ele>
        <time>2013-04-27T11:01:19Z</time>
      </trkpt>
      <trkpt lat="60.0164194" lon="17.6331966">
        <ele>27.5349</ele>
        <time>2013-04-27T11:01:20Z</time>
      </trkpt>
      <trkpt lat="60.0163778" lon="17.6331146">
        <ele>27.5349</ele>
        <time>2013-04-27T11:01:21Z</time>
      </trkpt>
      <trkpt lat="60.0163372" lon="17.6330374">
        <ele>27.5349</ele>
        <time>2013-04-27T11:01:22Z</time>
      </trkpt>
      <trkpt lat="60.016297" lon="17.6329618">
        <ele>27.5349</ele>
        <time>2013-04-27T11:01:23Z</time>
      </trkpt>
      <trkpt lat="60.0162574" lon="17.6328867">
        <ele>27.5349</ele>
        <time>2013-04-27T11:01:24Z</time>
      </trkpt>
      <trkpt lat="60.0162172" lon="17.6328114">
        <ele>27.5349</ele>
        <time>2013-04-27T11:01:25Z</time>
      </trkpt>
      <trkpt lat="60.0161758" lon="17.6327348">
        <ele>27.5349</ele>
        <time>2013-04-27T11:01:26Z</time>
      </trkpt>
      <trkpt lat="60.0161348" lon="17.6326586">
        <ele>27.5349</ele>
        <time>2013-04-27T11:01:27Z</time>
      </trkpt>
      <trkpt lat="60.0160949" lon="17.6325815">
        <ele>28.0155</ele>
        <time>2013-04-27T11:01:28Z</time>
      </trkpt>
      <trkpt lat="60.0160555" lon="17.6325045">
        <ele>28.0155</ele>
        <time>2013-04-27T11:01:29Z</time>
      </trkpt>
      <trkpt lat="60.0160152" lon="17.6324288">
        <ele>28.4962</ele>
        <time>2013-04-27T11:01:30Z</time>
      </trkpt>
      <trkpt lat="60.0159732" lon="17.6323504">
        <ele>28.4962</ele>
        <time>2013-04-27T11:01:31Z</time>
      </trkpt>
      <trkpt lat="60.0159311" lon="17.632269">
        <ele>28.4962</ele>
        <time>2013-04-27T11:01:32Z</time>
      </trkpt>
      <trkpt lat="60.0158886" lon="17.6321842">
        <ele>28.9769</ele>
        <time>2013-04-27T11:01:33Z</time>
      </trkpt>
      <trkpt lat="60.0158469" lon="17.6321019">
        <ele>28.9769</ele>
        <time>2013-04-27T11:01:34Z</time>
      </trkpt>
      <trkpt lat="60.0158079" lon="17.6320184">
        <ele>28.4962</ele>
        <time>2013-04-27T11:01:35Z</time>
      </trkpt>
      <trkpt lat="60.0157692" lon="17.6319326">
        <ele>28.4962</ele>
        <time>2013-04-27T11:01:36Z</time>
      </trkpt>
      <trkpt lat="60.0157319" lon="17.6318492">
        <ele>28.0155</ele>
        <time>2013-04-27T11:01:37Z</time>
      </trkpt>
      <trkpt lat="60.0156956" lon="17.6317661">
        <ele>28.0155</ele>
        <time>2013-04-27T11:01:38Z</time>
      </trkpt>
      <trkpt lat="60.0156589" lon="17.6316826">
        <ele>27.5349</ele>
        <time>2013-04-27T11:01:39Z</time>
      </trkpt>
      <trkpt lat="60.0156213" lon="17.6315968">
        <ele>27.5349</ele>
        <time>2013-04-27T11:01:40Z</time>
      </trkpt>
      <trkpt lat="60.0155837" lon="17.6315084">
        <ele>27.5349</ele>
        <time>2013-04-27T11:01:41Z</time>
      </trkpt>
      <trkpt lat="60.0155469" lon="17.631419">
        <ele>27.0543</ele>
        <time>2013-04-27T11:01:42Z</time>
      </trkpt>
      <trkpt lat="60.0155101" lon="17.6313297">
        <ele>27.0543</ele>
        <time>2013-04-27T11:01:43Z</time>
      </trkpt>
      <trkpt lat="60.0154738" lon="17.6312425">
        <ele>27.0543</ele>
        <time>2013-04-27T11:01:44Z</time>
      </trkpt>
      <trkpt lat="60.0154367" lon="17.631152">
        <ele>27.0543</ele>
        <time>2013-04-27T11:01:45Z</time>
      </trkpt>
      <trkpt lat="60.0153997" lon="17.6310627">
        <ele>26.5736</ele>
        <time>2013-04-27T11:01:46Z</time>
      </trkpt>
      <trkpt lat="60.0153631" lon="17.6309724">
        <ele>26.5736</ele>
        <time>2013-04-27T11:01:47Z</time>
      </trkpt>
      <trkpt lat="60.0153277" lon="17.6308852">
        <ele>26.0929</ele>
        <time>2013-04-27T11:01:48Z</time>
      </trkpt>
      <trkpt lat="60.0152896" lon="17.6307981">
        <ele>26.5736</ele>
        <time>2013-04-27T11:01:49Z</time>
      </trkpt>
      <trkpt lat="60.015251" lon="17.6307109">
        <ele>26.5736</ele>
        <time>2013-04-27T11:01:50Z</time>
      </trkpt>
      <trkpt lat="60.0152116" lon="17.6306252">
        <ele>26.5736</ele>
        <time>2013-04-27T11:01:51Z</time>
      </trkpt>
      <trkpt lat="60.0151705" lon="17.6305412">
        <ele>26.5736</ele>
        <time>2013-04-27T11:01:52Z</time>
      </trkpt>
      <trkpt lat="60.0151284" lon="17.6304576">
        <ele>26.5736</ele>
        <time>2013-04-27T11:01:53Z</time>
      </trkpt>
      <trkpt lat="60.0150859" lon="17.630378">
        <ele>26.5736</ele>
        <time>2013-04-27T11:01:54Z</time>
      </trkpt>
      <trkpt lat="60.0150417" lon="17.6302959">
        <ele>26.5736</ele>
        <time>2013-04-27T11:01:55Z</time>
      </trkpt>
      <trkpt lat="60.0149969" lon="17.6302157">
        <ele>27.0543</ele>
        <time>2013-04-27T11:01:56Z</time>
      </trkpt>
      <trkpt lat="60.0149515" lon="17.6301367">
        <ele>27.5349</ele>
        <time>2013-04-27T11:01:57Z</time>
      </trkpt>
      <trkpt lat="60.0149046" lon="17.6300585">
        <ele>27.5349</ele>
        <time>2013-04-27T11:01:58Z</time>
      </trkpt>
      <trkpt lat="60.0148575" lon="17.6299827">
        <ele>28.0155</ele>
        <time>2013-04-27T11:01:59Z</time>
      </trkpt>
      <trkpt lat="60.0148114" lon="17.6299087">
        <ele>28.0155</ele>
        <time>2013-04-27T11:02:00Z</time>
      </trkpt>
      <trkpt lat="60.0147663" lon="17.6298359">
        <ele>28.4962</ele>
        <time>2013-04-27T11:02:01Z</time>
      </trkpt>
      <trkpt lat="60.0147213" lon="17.6297626">
        <ele>28.4962</ele>
        <time>2013-04-27T11:02:02Z</time>
      </trkpt>
      <trkpt lat="60.0146751" lon="17.62969">
        <ele>28.4962</ele>
        <time>2013-04-27T11:02:03Z</time>
      </trkpt>
      <trkpt lat="60.014626" lon="17.6296129">
        <ele>28.9769</ele>
        <time>2013-04-27T11:02:04Z</time>
      </trkpt>
      <trkpt lat="60.0145766" lon="17.6295372">
        <ele>28.9769</ele>
        <time>2013-04-27T11:02:05Z</time>
      </trkpt>
      <trkpt lat="60.0145258" lon="17.6294616">
        <ele>29.4575</ele>
        <time>2013-04-27T11:02:06Z</time>
      </trkpt>
      <trkpt lat="60.0144727" lon="17.6293845">
        <ele>29.4575</ele>
        <time>2013-04-27T11:02:07Z</time>
      </trkpt>
      <trkpt lat="60.0144173" lon="17.6293062">
        <ele>29.4575</ele>
        <time>2013-04-27T11:02:08Z</time>
      </trkpt>
      <trkpt lat="60.0143598" lon="17.6292278">
        <ele>29.4575</ele>
        <time>2013-04-27T11:02:09Z</time>
      </trkpt>
      <trkpt lat="60.0143011" lon="17.6291503">
        <ele>29.4575</ele>
        <time>2013-04-27T11:02:10Z</time>
      </trkpt>
      <trkpt lat="60.0142421" lon="17.6290757">
        <ele>29.4575</ele>
        <time>2013-04-27T11:02:11Z</time>
      </trkpt>
      <trkpt lat="60.0141825" lon="17.6290063">
        <ele>29.4575</ele>
        <time>2013-04-27T11:02:12Z</time>
      </trkpt>
      <trkpt lat="60.0141217" lon="17.6289356">
        <ele>29.4575</ele>
        <time>2013-04-27T11:02:13Z</time>
      </trkpt>
      <trkpt lat="60.0140608" lon="17.6288607">
        <ele>29.4575</ele>
        <time>2013-04-27T11:02:14Z</time>
      </trkpt>
      <trkpt lat="60.0140008" lon="17.6287825">
        <ele>28.9769</ele>
        <time>2013-04-27T11:02:15Z</time>
      </trkpt>
      <trkpt lat="60.0139432" lon="17.6287022">
        <ele>28.9769</ele>
        <time>2013-04-27T11:02:16Z</time>
      </trkpt>
      <trkpt lat="60.0138872" lon="17.628625">
        <ele>28.9769</ele>
        <time>2013-04-27T11:02:17Z</time>
      </trkpt>
      <trkpt lat="60.0138329" lon="17.6285509">
        <ele>28.9769</ele>
        <time>2013-04-27T11:02:18Z</time>
      </trkpt>
      <trkpt lat="60.0137821" lon="17.6284768">
        <ele>28.9769</ele>
        <time>2013-04-27T11:02:19Z</time>
      </trkpt>
      <trkpt lat="60.0137332" lon="17.6284059">
        <ele>28.9769</ele>
        <time>2013-04-27T11:02:20Z</time>
      </trkpt>
      <trkpt lat="60.0136855" lon="17.6283391">
        <ele>28.9769</ele>
        <time>2013-04-27T11:02:21Z</time>
      </trkpt>
      <trkpt lat="60.0136395" lon="17.6282752">
        <ele>28.9769</ele>
        <time>2013-04-27T11:02:22Z</time>
      </trkpt>
      <trkpt lat="60.0135956" lon="17.6282089">
        <ele>28.9769</ele>
        <time>2013-04-27T11:02:23Z</time>
      </trkpt>
      <trkpt lat="60.0135511" lon="17.6281389">
        <ele>28.9769</ele>
        <time>2013-04-27T11:02:24Z</time>
      </trkpt>
      <trkpt lat="60.0135059" lon="17.6280676">
        <ele>28.9769</ele>
        <time>2013-04-27T11:02:25Z</time>
      </trkpt>
      <trkpt lat="60.0134588" lon="17.6279971">
        <ele>29.4575</ele>
        <time>2013-04-27T11:02:26Z</time>
      </trkpt>
      <trkpt lat="60.013412" lon="17.6279251">
        <ele>29.4575</ele>
        <time>2013-04-27T11:02:27Z</time>
      </trkpt>
      <trkpt lat="60.0133666" lon="17.6278501">
        <ele>29.4575</ele>
        <time>2013-04-27T11:02:28Z</time>
      </trkpt>
      <trkpt lat="60.0133214" lon="17.6277748">
        <ele>29.4575</ele>
        <time>2013-04-27T11:02:29Z</time>
      </trkpt>
      <trkpt lat="60.0132759" lon="17.6276986">
        <ele>28.9769</ele>
        <time>2013-04-27T11:02:30Z</time>
      </trkpt>
      <trkpt lat="60.01323" lon="17.6276214">
        <ele>28.9769</ele>
        <time>2013-04-27T11:02:31Z</time>
      </trkpt>
      <trkpt lat="60.0131843" lon="17.6275455">
        <ele>28.9769</ele>
        <time>2013-04-27T11:02:32Z</time>
      </trkpt>
      <trkpt lat="60.0131399" lon="17.6274719">
        <ele>28.9769</ele>
        <time>2013-04-27T11:02:33Z</time>
      </trkpt>
      <trkpt lat="60.0130978" lon="17.6273987">
        <ele>28.9769</ele>
        <time>2013-04-27T11:02:34Z</time>
      </trkpt>
      <trkpt lat="60.0130568" lon="17.6273227">
        <ele>28.4962</ele>
        <time>2013-04-27T11:02:35Z</time>
      </trkpt>
      <trkpt lat="60.0130155" lon="17.6272433">
        <ele>28.4962</ele>
        <time>2013-04-27T11:02:36Z</time>
      </trkpt>
      <trkpt lat="60.0129728" lon="17.6271632">
        <ele>28.4962</ele>
        <time>2013-04-27T11:02:37Z</time>
      </trkpt>
      <trkpt lat="60.0129296" lon="17.6270823">
        <ele>28.4962</ele>
        <time>2013-04-27T11:02:38Z</time>
      </trkpt>
      <trkpt lat="60.0128876" lon="17.6270012">
        <ele>28.4962</ele>
        <time>2013-04-27T11:02:39Z</time>
      </trkpt>
      <trkpt lat="60.0128469" lon="17.6269223">
        <ele>28.4962</ele>
        <time>2013-04-27T11:02:40Z</time>
      </trkpt>
      <trkpt lat="60.0128068" lon="17.6268461">
        <ele>28.0155</ele>
        <time>2013-04-27T11:02:41Z</time>
      </trkpt>
      <trkpt lat="60.0127681" lon="17.6267715">
        <ele>28.0155</ele>
        <time>2013-04-27T11:02:42Z</time>
      </trkpt>
      <trkpt lat="60.0127295" lon="17.626695">
        <ele>28.0155</ele>
        <time>2013-04-27T11:02:43Z</time>
      </trkpt>
      <trkpt lat="60.0126917" lon="17.6266155">
        <ele>28.0155</ele>
        <time>2013-04-27T11:02:44Z</time>
      </trkpt>
      <trkpt lat="60.0126543" lon="17.6265354">
        <ele>28.0155</ele>
        <time>2013-04-27T11:02:45Z</time>
      </trkpt>
      <trkpt lat="60.012616" lon="17.6264556">
        <ele>28.0155</ele>
        <time>2013-04-27T11:02:46Z</time>
      </trkpt>
      <trkpt lat="60.0125776" lon="17.6263735">
        <ele>28.0155</ele>
        <time>2013-04-27T11:02:47Z</time>
      </trkpt>
      <trkpt lat="60.012539" lon="17.6262887">
        <ele>28.0155</ele>
        <time>2013-04-27T11:02:48Z</time>
      </trkpt>
      <trkpt lat="60.0125008" lon="17.6262023">
        <ele>28.0155</ele>
        <time>2013-04-27T11:02:49Z</time>
      </trkpt>
      <trkpt lat="60.0124627" lon="17.6261132">
        <ele>28.0155</ele>
        <time>2013-04-27T11:02:50Z</time>
      </trkpt>
      <trkpt lat="60.0124248" lon="17.626024">
        <ele>28.0155</ele>
        <time>2013-04-27T11:02:51Z</time>
      </trkpt>
      <trkpt lat="60.0123881" lon="17.6259365">
        <ele>27.5349</ele>
        <time>2013-04-27T11:02:52Z</time>
      </trkpt>
      <trkpt lat="60.0123538" lon="17.6258486">
        <ele>27.5349</ele>
        <time>2013-04-27T11:02:53Z</time>
      </trkpt>
      <trkpt lat="60.0123208" lon="17.6257608">
        <ele>27.5349</ele>
        <time>2013-04-27T11:02:54Z</time>
      </trkpt>
      <trkpt lat="60.0122869" lon="17.6256732">
        <ele>27.5349</ele>
        <time>2013-04-27T11:02:55Z</time>
      </trkpt>
      <trkpt lat="60.0122522" lon="17.6255849">
        <ele>27.5349</ele>
        <time>2013-04-27T11:02:56Z</time>
      </trkpt>
      <trkpt lat="60.0122167" lon="17.6254963">
        <ele>27.5349</ele>
        <time>2013-04-27T11:02:57Z</time>
      </trkpt>
      <trkpt lat="60.0121814" lon="17.625407">
        <ele>27.5349</ele>
        <time>2013-04-27T11:02:58Z</time>
      </trkpt>
      <trkpt lat="60.012147" lon="17.6253154">
        <ele>27.5349</ele>
        <time>2013-04-27T11:02:59Z</time>
      </trkpt>
      <trkpt lat="60.0121125" lon="17.6252243">
        <ele>27.5349</ele>
        <time>2013-04-27T11:03:00Z</time>
      </trkpt>
      <trkpt lat="60.0120781" lon="17.6251342">
        <ele>27.5349</ele>
        <time>2013-04-27T11:03:01Z</time>
      </trkpt>
      <trkpt lat="60.0120441" lon="17.6250438">
        <ele>27.5349</ele>
        <time>2013-04-27T11:03:02Z</time>
      </trkpt>
      <trkpt lat="60.0120089" lon="17.6249534">
        <ele>27.5349</ele>
        <time>2013-04-27T11:03:03Z</time>
      </trkpt>
      <trkpt lat="60.0119745" lon="17.6248616">
        <ele>27.5349</ele>
        <time>2013-04-27T11:03:04Z</time>
      </trkpt>
      <trkpt lat="60.0119411" lon="17.6247674">
        <ele>27.5349</ele>
        <time>2013-04-27T11:03:05Z</time>
      </trkpt>
      <trkpt lat="60.011907" lon="17.6246719">
        <ele>27.5349</ele>
        <time>2013-04-27T11:03:06Z</time>
      </trkpt>
      <trkpt lat="60.0118722" lon="17.6245779">
        <ele>28.0155</ele>
        <time>2013-04-27T11:03:07Z</time>
      </trkpt>
      <trkpt lat="60.0118385" lon="17.6244877">
        <ele>28.0155</ele>
        <time>2013-04-27T11:03:08Z</time>
      </trkpt>
      <trkpt lat="60.0118065" lon="17.6243986">
        <ele>28.0155</ele>
        <time>2013-04-27T11:03:09Z</time>
      </trkpt>
      <trkpt lat="60.0117772" lon="17.6243249">
        <ele>27.5349</ele>
        <time>2013-04-27T11:03:10Z</time>
      </trkpt>
      <trkpt lat="60.0117587" lon="17.6242799">
        <ele>27.5349</ele>
        <time>2013-04-27T11:03:11Z</time>
      </trkpt>
      <trkpt lat="60.0117122" lon="17.6241904">
        <ele>27.0543</ele>
        <time>2013-04-27T11:03:12Z</time>
      </trkpt>
      <trkpt lat="60.0116711" lon="17.6241012">
        <ele>26.0929</ele>
        <time>2013-04-27T11:03:13Z</time>
      </trkpt>
      <trkpt lat="60.0116302" lon="17.624009">
        <ele>26.0929</ele>
        <time>2013-04-27T11:03:14Z</time>
      </trkpt>
      <trkpt lat="60.0115892" lon="17.6239205">
        <ele>26.0929</ele>
        <time>2013-04-27T11:03:15Z</time>
      </trkpt>
      <trkpt lat="60.0115464" lon="17.6238284">
        <ele>26.0929</ele>
        <time>2013-04-27T11:03:16Z</time>
      </trkpt>
      <trkpt lat="60.0115034" lon="17.6237401">
        <ele>26.0929</ele>
        <time>2013-04-27T11:03:17Z</time>
      </trkpt>
      <trkpt lat="60.0114594" lon="17.6236557">
        <ele>26.5736</ele>
        <time>2013-04-27T11:03:18Z</time>
      </trkpt>
      <trkpt lat="60.0114153" lon="17.6235723">
        <ele>26.5736</ele>
        <time>2013-04-27T11:03:19Z</time>
      </trkpt>
      <trkpt lat="60.0113706" lon="17.6234905">
        <ele>26.5736</ele>
        <time>2013-04-27T11:03:20Z</time>
      </trkpt>
      <trkpt lat="60.0113242" lon="17.6234114">
        <ele>26.5736</ele>
        <time>2013-04-27T11:03:21Z</time>
      </trkpt>
      <trkpt lat="60.011278" lon="17.6233325">
        <ele>26.5736</ele>
        <time>2013-04-27T11:03:22Z</time>
      </trkpt>
      <trkpt lat="60.011231" lon="17.623256">
        <ele>26.5736</ele>
        <time>2013-04-27T11:03:23Z</time>
      </trkpt>
      <trkpt lat="60.0111842" lon="17.6231854">
        <ele>26.5736</ele>
        <time>2013-04-27T11:03:24Z</time>
      </trkpt>
      <trkpt lat="60.0111371" lon="17.6231166">
        <ele>26.5736</ele>
        <time>2013-04-27T11:03:25Z</time>
      </trkpt>
      <trkpt lat="60.0110894" lon="17.6230476">
        <ele>26.0929</ele>
        <time>2013-04-27T11:03:26Z</time>
      </trkpt>
      <trkpt lat="60.0110397" lon="17.6229776">
        <ele>26.5736</ele>
        <time>2013-04-27T11:03:27Z</time>
      </trkpt>
      <trkpt lat="60.0109896" lon="17.6229096">
        <ele>26.5736</ele>
        <time>2013-04-27T11:03:28Z</time>
      </trkpt>
      <trkpt lat="60.0109388" lon="17.6228472">
        <ele>26.0929</ele>
        <time>2013-04-27T11:03:29Z</time>
      </trkpt>
      <trkpt lat="60.0108865" lon="17.6227877">
        <ele>26.0929</ele>
        <time>2013-04-27T11:03:30Z</time>
      </trkpt>
      <trkpt lat="60.0108318" lon="17.6227275">
        <ele>26.0929</ele>
        <time>2013-04-27T11:03:31Z</time>
      </trkpt>
      <trkpt lat="60.0107771" lon="17.6226641">
        <ele>26.0929</ele>
        <time>2013-04-27T11:03:32Z</time>
      </trkpt>
      <trkpt lat="60.0107223" lon="17.6225991">
        <ele>26.0929</ele>
        <time>2013-04-27T11:03:33Z</time>
      </trkpt>
      <trkpt lat="60.0106652" lon="17.6225379">
        <ele>26.0929</ele>
        <time>2013-04-27T11:03:34Z</time>
      </trkpt>
      <trkpt lat="60.0106088" lon="17.622476">
        <ele>26.5736</ele>
        <time>2013-04-27T11:03:35Z</time>
      </trkpt>
      <trkpt lat="60.0105531" lon="17.6224151">
        <ele>26.5736</ele>
        <time>2013-04-27T11:03:36Z</time>
      </trkpt>
      <trkpt lat="60.0104977" lon="17.6223586">
        <ele>26.5736</ele>
        <time>2013-04-27T11:03:37Z</time>
      </trkpt>
      <trkpt lat="60.010443" lon="17.6223047">
        <ele>26.5736</ele>
        <time>2013-04-27T11:03:38Z</time>
      </trkpt>
      <trkpt lat="60.0103886" lon="17.6222543">
        <ele>26.5736</ele>
        <time>2013-04-27T11:03:39Z</time>
      </trkpt>
      <trkpt lat="60.0103358" lon="17.6222064">
        <ele>27.0543</ele>
        <time>2013-04-27T11:03:40Z</time>
      </trkpt>
      <trkpt lat="60.0102865" lon="17.6221571">
        <ele>27.0543</ele>
        <time>2013-04-27T11:03:41Z</time>
      </trkpt>
      <trkpt lat="60.0102418" lon="17.6221046">
        <ele>27.0543</ele>
        <time>2013-04-27T11:03:42Z</time>
      </trkpt>
      <trkpt lat="60.0101974" lon="17.6220544">
        <ele>27.0543</ele>
        <time>2013-04-27T11:03:43Z</time>
      </trkpt>
      <trkpt lat="60.0101528" lon="17.6220069">
        <ele>27.0543</ele>
        <time>2013-04-27T11:03:44Z</time>
      </trkpt>
      <trkpt lat="60.0101068" lon="17.6219565">
        <ele>27.5349</ele>
        <time>2013-04-27T11:03:45Z</time>
      </trkpt>
      <trkpt lat="60.010059" lon="17.6219023">
        <ele>27.5349</ele>
        <time>2013-04-27T11:03:46Z</time>
      </trkpt>
      <trkpt lat="60.0100102" lon="17.6218444">
        <ele>27.5349</ele>
        <time>2013-04-27T11:03:47Z</time>
      </trkpt>
      <trkpt lat="60.0099617" lon="17.6217856">
        <ele>28.0155</ele>
        <time>2013-04-27T11:03:48Z</time>
      </trkpt>
      <trkpt lat="60.0099145" lon="17.6217291">
        <ele>28.0155</ele>
        <time>2013-04-27T11:03:49Z</time>
      </trkpt>
      <trkpt lat="60.0098702" lon="17.621671">
        <ele>28.0155</ele>
        <time>2013-04-27T11:03:50Z</time>
      </trkpt>
      <trkpt lat="60.0098276" lon="17.6216101">
        <ele>27.5349</ele>
        <time>2013-04-27T11:03:51Z</time>
      </trkpt>
      <trkpt lat="60.0097839" lon="17.6215514">
        <ele>28.0155</ele>
        <time>2013-04-27T11:03:52Z</time>
      </trkpt>
      <trkpt lat="60.0097401" lon="17.6214925">
        <ele>28.0155</ele>
        <time>2013-04-27T11:03:53Z</time>
      </trkpt>
      <trkpt lat="60.0096967" lon="17.6214326">
        <ele>28.0155</ele>
        <time>2013-04-27T11:03:54Z</time>
      </trkpt>
      <trkpt lat="60.0096534" lon="17.6213718">
        <ele>28.4962</ele>
        <time>2013-04-27T11:03:55Z</time>
      </trkpt>
      <trkpt lat="60.0096111" lon="17.6213087">
        <ele>28.4962</ele>
        <time>2013-04-27T11:03:56Z</time>
      </trkpt>
      <trkpt lat="60.0095697" lon="17.6212449">
        <ele>28.4962</ele>
        <time>2013-04-27T11:03:57Z</time>
      </trkpt>
      <trkpt lat="60.0095282" lon="17.6211821">
        <ele>28.4962</ele>
        <time>2013-04-27T11:03:58Z</time>
      </trkpt>
      <trkpt lat="60.0094878" lon="17.621119">
        <ele>28.9769</ele>
        <time>2013-04-27T11:03:59Z</time>
      </trkpt>
      <trkpt lat="60.0094484" lon="17.6210565">
        <ele>28.9769</ele>
        <time>2013-04-27T11:04:00Z</time>
      </trkpt>
      <trkpt lat="60.0094092" lon="17.6209943">
        <ele>28.9769</ele>
        <time>2013-04-27T11:04:01Z</time>
      </trkpt>
      <trkpt lat="60.0093702" lon="17.6209287">
        <ele>28.9769</ele>
        <time>2013-04-27T11:04:02Z</time>
      </trkpt>
      <trkpt lat="60.0093313" lon="17.62086">
        <ele>28.9769</ele>
        <time>2013-04-27T11:04:03Z</time>
      </trkpt>
      <trkpt lat="60.0092936" lon="17.6207911">
        <ele>28.9769</ele>
        <time>2013-04-27T11:04:04Z</time>
      </trkpt>
      <trkpt lat="60.0092563" lon="17.6207224">
        <ele>28.4962</ele>
        <time>2013-04-27T11:04:05Z</time>
      </trkpt>
      <trkpt lat="60.0092195" lon="17.6206533">
        <ele>28.4962</ele>
        <time>2013-04-27T11:04:06Z</time>
      </trkpt>
      <trkpt lat="60.0091828" lon="17.6205845">
        <ele>28.4962</ele>
        <time>2013-04-27T11:04:07Z</time>
      </trkpt>
      <trkpt lat="60.0091473" lon="17.6205146">
        <ele>28.4962</ele>
        <time>2013-04-27T11:04:08Z</time>
      </trkpt>
      <trkpt lat="60.0091107" lon="17.6204435">
        <ele>28.4962</ele>
        <time>2013-04-27T11:04:09Z</time>
      </trkpt>
      <trkpt lat="60.009075" lon="17.6203695">
        <ele>28.9769</ele>
        <time>2013-04-27T11:04:10Z</time>
      </trkpt>
      <trkpt lat="60.0090371" lon="17.6202952">
        <ele>28.9769</ele>
        <time>2013-04-27T11:04:11Z</time>
      </trkpt>
      <trkpt lat="60.0090012" lon="17.6202192">
        <ele>28.9769</ele>
        <time>2013-04-27T11:04:12Z</time>
      </trkpt>
      <trkpt lat="60.0089654" lon="17.6201436">
        <ele>28.9769</ele>
        <time>2013-04-27T11:04:13Z</time>
      </trkpt>
      <trkpt lat="60.0089299" lon="17.6200678">
        <ele>28.9769</ele>
        <time>2013-04-27T11:04:14Z</time>
      </trkpt>
      <trkpt lat="60.0088952" lon="17.6199894">
        <ele>28.9769</ele>
        <time>2013-04-27T11:04:15Z</time>
      </trkpt>
      <trkpt lat="60.008861" lon="17.6199078">
        <ele>28.9769</ele>
        <time>2013-04-27T11:04:16Z</time>
      </trkpt>
      <trkpt lat="60.0088272" lon="17.6198233">
        <ele>28.9769</ele>
        <time>2013-04-27T11:04:17Z</time>
      </trkpt>
      <trkpt lat="60.0087927" lon="17.6197395">
        <ele>28.9769</ele>
        <time>2013-04-27T11:04:18Z</time>
      </trkpt>
      <trkpt lat="60.0087583" lon="17.6196575">
        <ele>28.9769</ele>
        <time>2013-04-27T11:04:19Z</time>
      </trkpt>
      <trkpt lat="60.0087253" lon="17.6195768">
        <ele>28.9769</ele>
        <time>2013-04-27T11:04:20Z</time>
      </trkpt>
      <trkpt lat="60.0086943" lon="17.6194973">
        <ele>28.9769</ele>
        <time>2013-04-27T11:04:21Z</time>
      </trkpt>
      <trkpt lat="60.0086652" lon="17.6194191">
        <ele>28.9769</ele>
        <time>2013-04-27T11:04:22Z</time>
      </trkpt>
      <trkpt lat="60.0086375" lon="17.6193428">
        <ele>28.9769</ele>
        <time>2013-04-27T11:04:23Z</time>
      </trkpt>
      <trkpt lat="60.0086099" lon="17.6192665">
        <ele>28.9769</ele>
        <time>2013-04-27T11:04:24Z</time>
      </trkpt>
      <trkpt lat="60.0085819" lon="17.6191878">
        <ele>28.9769</ele>
        <time>2013-04-27T11:04:25Z</time>
      </trkpt>
      <trkpt lat="60.0085533" lon="17.619105">
        <ele>28.9769</ele>
        <time>2013-04-27T11:04:26Z</time>
      </trkpt>
      <trkpt lat="60.0085253" lon="17.619019">
        <ele>28.9769</ele>
        <time>2013-04-27T11:04:27Z</time>
      </trkpt>
      <trkpt lat="60.0084977" lon="17.6189319">
        <ele>28.9769</ele>
        <time>2013-04-27T11:04:28Z</time>
      </trkpt>
      <trkpt lat="60.0084695" lon="17.6188467">
        <ele>28.9769</ele>
        <time>2013-04-27T11:04:29Z</time>
      </trkpt>
      <trkpt lat="60.0084424" lon="17.6187626">
        <ele>28.9769</ele>
        <time>2013-04-27T11:04:30Z</time>
      </trkpt>
      <trkpt lat="60.0084159" lon="17.6186767">
        <ele>28.9769</ele>
        <time>2013-04-27T11:04:31Z</time>
      </trkpt>
      <trkpt lat="60.0083901" lon="17.6185889">
        <ele>28.9769</ele>
        <time>2013-04-27T11:04:32Z</time>
      </trkpt>
      <trkpt lat="60.0083642" lon="17.6184998">
        <ele>28.9769</ele>
        <time>2013-04-27T11:04:33Z</time>
      </trkpt>
      <trkpt lat="60.0083383" lon="17.6184082">
        <ele>28.9769</ele>
        <time>2013-04-27T11:04:34Z</time>
      </trkpt>
      <trkpt lat="60.0083129" lon="17.6183135">
        <ele>28.9769</ele>
        <time>2013-04-27T11:04:35Z</time>
      </trkpt>
      <trkpt lat="60.0082886" lon="17.6182173">
        <ele>28.9769</ele>
        <time>2013-04-27T11:04:36Z</time>
      </trkpt>
      <trkpt lat="60.008264" lon="17.6181207">
        <ele>28.9769</ele>
        <time>2013-04-27T11:04:37Z</time>
      </trkpt>
      <trkpt lat="60.0082394" lon="17.6180234">
        <ele>28.9769</ele>
        <time>2013-04-27T11:04:38Z</time>
      </trkpt>
      <trkpt lat="60.0082161" lon="17.6179255">
        <ele>29.4575</ele>
        <time>2013-04-27T11:04:39Z</time>
      </trkpt>
      <trkpt lat="60.0081933" lon="17.6178271">
        <ele>29.4575</ele>
        <time>2013-04-27T11:04:40Z</time>
      </trkpt>
      <trkpt lat="60.0081698" lon="17.617728">
        <ele>28.9769</ele>
        <time>2013-04-27T11:04:41Z</time>
      </trkpt>
      <trkpt lat="60.0081468" lon="17.6176277">
        <ele>28.9769</ele>
        <time>2013-04-27T11:04:42Z</time>
      </trkpt>
      <trkpt lat="60.0081253" lon="17.6175275">
        <ele>28.9769</ele>
        <time>2013-04-27T11:04:43Z</time>
      </trkpt>
      <trkpt lat="60.0081041" lon="17.6174255">
        <ele>28.9769</ele>
        <time>2013-04-27T11:04:44Z</time>
      </trkpt>
      <trkpt lat="60.0080839" lon="17.617321">
        <ele>28.9769</ele>
        <time>2013-04-27T11:04:45Z</time>
      </trkpt>
      <trkpt lat="60.0080642" lon="17.6172154">
        <ele>28.4962</ele>
        <time>2013-04-27T11:04:46Z</time>
      </trkpt>
      <trkpt lat="60.0080441" lon="17.6171097">
        <ele>28.4962</ele>
        <time>2013-04-27T11:04:47Z</time>
      </trkpt>
      <trkpt lat="60.008025" lon="17.6170044">
        <ele>28.4962</ele>
        <time>2013-04-27T11:04:48Z</time>
      </trkpt>
      <trkpt lat="60.0080079" lon="17.6168989">
        <ele>28.0155</ele>
        <time>2013-04-27T11:04:49Z</time>
      </trkpt>
      <trkpt lat="60.0079906" lon="17.6167953">
        <ele>28.0155</ele>
        <time>2013-04-27T11:04:50Z</time>
      </trkpt>
      <trkpt lat="60.0079736" lon="17.6166911">
        <ele>28.0155</ele>
        <time>2013-04-27T11:04:51Z</time>
      </trkpt>
      <trkpt lat="60.0079577" lon="17.616587">
        <ele>28.0155</ele>
        <time>2013-04-27T11:04:52Z</time>
      </trkpt>
      <trkpt lat="60.0079431" lon="17.6164824">
        <ele>28.0155</ele>
        <time>2013-04-27T11:04:53Z</time>
      </trkpt>
      <trkpt lat="60.0079285" lon="17.6163762">
        <ele>28.0155</ele>
        <time>2013-04-27T11:04:54Z</time>
      </trkpt>
      <trkpt lat="60.0079141" lon="17.6162675">
        <ele>28.0155</ele>
        <time>2013-04-27T11:04:55Z</time>
      </trkpt>
      <trkpt lat="60.0079" lon="17.6161571">
        <ele>28.0155</ele>
        <time>2013-04-27T11:04:56Z</time>
      </trkpt>
      <trkpt lat="60.0078859" lon="17.6160465">
        <ele>28.4962</ele>
        <time>2013-04-27T11:04:57Z</time>
      </trkpt>
      <trkpt lat="60.007874" lon="17.6159368">
        <ele>28.0155</ele>
        <time>2013-04-27T11:04:58Z</time>
      </trkpt>
      <trkpt lat="60.0078628" lon="17.6158259">
        <ele>28.0155</ele>
        <time>2013-04-27T11:04:59Z</time>
      </trkpt>
      <trkpt lat="60.0078515" lon="17.6157135">
        <ele>28.0155</ele>
        <time>2013-04-27T11:05:00Z</time>
      </trkpt>
      <trkpt lat="60.007841" lon="17.6156002">
        <ele>27.5349</ele>
        <time>2013-04-27T11:05:01Z</time>
      </trkpt>
      <trkpt lat="60.0078317" lon="17.6154896">
        <ele>27.5349</ele>
        <time>2013-04-27T11:05:02Z</time>
      </trkpt>
      <trkpt lat="60.0078234" lon="17.6153788">
        <ele>27.5349</ele>
        <time>2013-04-27T11:05:03Z</time>
      </trkpt>
      <trkpt lat="60.0078165" lon="17.6152676">
        <ele>27.0543</ele>
        <time>2013-04-27T11:05:04Z</time>
      </trkpt>
      <trkpt lat="60.0078084" lon="17.615155">
        <ele>26.5736</ele>
        <time>2013-04-27T11:05:05Z</time>
      </trkpt>
      <trkpt lat="60.0078001" lon="17.6150432">
        <ele>26.5736</ele>
        <time>2013-04-27T11:05:06Z</time>
      </trkpt>
      <trkpt lat="60.0077949" lon="17.614932">
        <ele>26.0929</ele>
        <time>2013-04-27T11:05:07Z</time>
      </trkpt>
      <trkpt lat="60.0077909" lon="17.6148195">
        <ele>26.0929</ele>
        <time>2013-04-27T11:05:08Z</time>
      </trkpt>
      <trkpt lat="60.0077861" lon="17.6147062">
        <ele>26.0929</ele>
        <time>2013-04-27T11:05:09Z</time>
      </trkpt>
      <trkpt lat="60.0077809" lon="17.6145933">
        <ele>26.0929</ele>
        <time>2013-04-27T11:05:10Z</time>
      </trkpt>
      <trkpt lat="60.0077768" lon="17.6144805">
        <ele>26.0929</ele>
        <time>2013-04-27T11:05:11Z</time>
      </trkpt>
      <trkpt lat="60.0077742" lon="17.6143672">
        <ele>26.0929</ele>
        <time>2013-04-27T11:05:12Z</time>
      </trkpt>
      <trkpt lat="60.0077717" lon="17.614254">
        <ele>26.0929</ele>
        <time>2013-04-27T11:05:13Z</time>
      </trkpt>
      <trkpt lat="60.0077699" lon="17.6141415">
        <ele>26.0929</ele>
        <time>2013-04-27T11:05:14Z</time>
      </trkpt>
      <trkpt lat="60.0077689" lon="17.6140305">
        <ele>25.6123</ele>
        <time>2013-04-27T11:05:15Z</time>
      </trkpt>
      <trkpt lat="60.007768" lon="17.6139223">
        <ele>25.1317</ele>
        <time>2013-04-27T11:05:16Z</time>
      </trkpt>
      <trkpt lat="60.007767" lon="17.6138147">
        <ele>25.6123</ele>
        <time>2013-04-27T11:05:17Z</time>
      </trkpt>
      <trkpt lat="60.0077668" lon="17.6137043">
        <ele>25.1317</ele>
        <time>2013-04-27T11:05:18Z</time>
      </trkpt>
      <trkpt lat="60.0077664" lon="17.6135892">
        <ele>25.1317</ele>
        <time>2013-04-27T11:05:19Z</time>
      </trkpt>
      <trkpt lat="60.0077654" lon="17.6134733">
        <ele>25.6123</ele>
        <time>2013-04-27T11:05:20Z</time>
      </trkpt>
      <trkpt lat="60.0077652" lon="17.613356">
        <ele>25.6123</ele>
        <time>2013-04-27T11:05:21Z</time>
      </trkpt>
      <trkpt lat="60.0077657" lon="17.6132396">
        <ele>25.6123</ele>
        <time>2013-04-27T11:05:22Z</time>
      </trkpt>
      <trkpt lat="60.0077664" lon="17.6131251">
        <ele>25.6123</ele>
        <time>2013-04-27T11:05:23Z</time>
      </trkpt>
      <trkpt lat="60.0077673" lon="17.6130101">
        <ele>25.6123</ele>
        <time>2013-04-27T11:05:24Z</time>
      </trkpt>
      <trkpt lat="60.0077695" lon="17.6128955">
        <ele>25.6123</ele>
        <time>2013-04-27T11:05:25Z</time>
      </trkpt>
      <trkpt lat="60.007772" lon="17.6127791">
        <ele>26.0929</ele>
        <time>2013-04-27T11:05:26Z</time>
      </trkpt>
      <trkpt lat="60.0077748" lon="17.6126601">
        <ele>26.0929</ele>
        <time>2013-04-27T11:05:27Z</time>
      </trkpt>
      <trkpt lat="60.0077771" lon="17.6125403">
        <ele>26.0929</ele>
        <time>2013-04-27T11:05:28Z</time>
      </trkpt>
      <trkpt lat="60.0077783" lon="17.6124215">
        <ele>26.0929</ele>
        <time>2013-04-27T11:05:29Z</time>
      </trkpt>
      <trkpt lat="60.0077804" lon="17.6123041">
        <ele>26.0929</ele>
        <time>2013-04-27T11:05:30Z</time>
      </trkpt>
      <trkpt lat="60.007784" lon="17.612186">
        <ele>26.0929</ele>
        <time>2013-04-27T11:05:31Z</time>
      </trkpt>
      <trkpt lat="60.0077876" lon="17.6120668">
        <ele>26.5736</ele>
        <time>2013-04-27T11:05:32Z</time>
      </trkpt>
      <trkpt lat="60.0077914" lon="17.611947">
        <ele>26.5736</ele>
        <time>2013-04-27T11:05:33Z</time>
      </trkpt>
      <trkpt lat="60.007796" lon="17.6118261">
        <ele>26.5736</ele>
        <time>2013-04-27T11:05:34Z</time>
      </trkpt>
      <trkpt lat="60.0078007" lon="17.6117061">
        <ele>26.5736</ele>
        <time>2013-04-27T11:05:35Z</time>
      </trkpt>
      <trkpt lat="60.0078059" lon="17.6115891">
        <ele>25.6123</ele>
        <time>2013-04-27T11:05:36Z</time>
      </trkpt>
      <trkpt lat="60.0078113" lon="17.6114733">
        <ele>25.1317</ele>
        <time>2013-04-27T11:05:37Z</time>
      </trkpt>
      <trkpt lat="60.0078166" lon="17.6113547">
        <ele>24.651</ele>
        <time>2013-04-27T11:05:38Z</time>
      </trkpt>
      <trkpt lat="60.0078213" lon="17.6112333">
        <ele>24.1703</ele>
        <time>2013-04-27T11:05:39Z</time>
      </trkpt>
      <trkpt lat="60.0078268" lon="17.6111127">
        <ele>23.6896</ele>
        <time>2013-04-27T11:05:40Z</time>
      </trkpt>
      <trkpt lat="60.0078328" lon="17.6109918">
        <ele>23.6896</ele>
        <time>2013-04-27T11:05:41Z</time>
      </trkpt>
      <trkpt lat="60.0078401" lon="17.6108716">
        <ele>23.6896</ele>
        <time>2013-04-27T11:05:42Z</time>
      </trkpt>
      <trkpt lat="60.0078473" lon="17.6107569">
        <ele>23.6896</ele>
        <time>2013-04-27T11:05:43Z</time>
      </trkpt>
      <trkpt lat="60.0078543" lon="17.610639">
        <ele>23.6896</ele>
        <time>2013-04-27T11:05:44Z</time>
      </trkpt>
      <trkpt lat="60.0078623" lon="17.6105229">
        <ele>23.209</ele>
        <time>2013-04-27T11:05:45Z</time>
      </trkpt>
      <trkpt lat="60.0078703" lon="17.6104048">
        <ele>22.7283</ele>
        <time>2013-04-27T11:05:46Z</time>
      </trkpt>
      <trkpt lat="60.0078772" lon="17.6102858">
        <ele>23.209</ele>
        <time>2013-04-27T11:05:47Z</time>
      </trkpt>
      <trkpt lat="60.0078835" lon="17.6101688">
        <ele>23.209</ele>
        <time>2013-04-27T11:05:48Z</time>
      </trkpt>
      <trkpt lat="60.0078909" lon="17.6100505">
        <ele>23.6896</ele>
        <time>2013-04-27T11:05:49Z</time>
      </trkpt>
      <trkpt lat="60.0078992" lon="17.609932">
        <ele>23.6896</ele>
        <time>2013-04-27T11:05:50Z</time>
      </trkpt>
      <trkpt lat="60.0079071" lon="17.6098143">
        <ele>23.6896</ele>
        <time>2013-04-27T11:05:51Z</time>
      </trkpt>
      <trkpt lat="60.0079151" lon="17.6096968">
        <ele>23.6896</ele>
        <time>2013-04-27T11:05:52Z</time>
      </trkpt>
      <trkpt lat="60.0079239" lon="17.6095782">
        <ele>23.6896</ele>
        <time>2013-04-27T11:05:53Z</time>
      </trkpt>
      <trkpt lat="60.0079322" lon="17.6094597">
        <ele>23.6896</ele>
        <time>2013-04-27T11:05:54Z</time>
      </trkpt>
      <trkpt lat="60.0079395" lon="17.609342">
        <ele>23.6896</ele>
        <time>2013-04-27T11:05:55Z</time>
      </trkpt>
      <trkpt lat="60.0079475" lon="17.6092253">
        <ele>23.6896</ele>
        <time>2013-04-27T11:05:56Z</time>
      </trkpt>
      <trkpt lat="60.0079577" lon="17.6091089">
        <ele>23.6896</ele>
        <time>2013-04-27T11:05:57Z</time>
      </trkpt>
      <trkpt lat="60.0079675" lon="17.6089913">
        <ele>23.6896</ele>
        <time>2013-04-27T11:05:58Z</time>
      </trkpt>
      <trkpt lat="60.0079769" lon="17.6088698">
        <ele>23.6896</ele>
        <time>2013-04-27T11:05:59Z</time>
      </trkpt>
      <trkpt lat="60.0079871" lon="17.6087498">
        <ele>23.209</ele>
        <time>2013-04-27T11:06:00Z</time>
      </trkpt>
      <trkpt lat="60.0079984" lon="17.6086318">
        <ele>22.7283</ele>
        <time>2013-04-27T11:06:01Z</time>
      </trkpt>
      <trkpt lat="60.0080099" lon="17.6085143">
        <ele>22.7283</ele>
        <time>2013-04-27T11:06:02Z</time>
      </trkpt>
      <trkpt lat="60.0080208" lon="17.6083971">
        <ele>23.209</ele>
        <time>2013-04-27T11:06:03Z</time>
      </trkpt>
      <trkpt lat="60.0080317" lon="17.6082785">
        <ele>23.209</ele>
        <time>2013-04-27T11:06:04Z</time>
      </trkpt>
      <trkpt lat="60.008043" lon="17.6081583">
        <ele>23.6896</ele>
        <time>2013-04-27T11:06:05Z</time>
      </trkpt>
      <trkpt lat="60.0080555" lon="17.608037">
        <ele>23.6896</ele>
        <time>2013-04-27T11:06:06Z</time>
      </trkpt>
      <trkpt lat="60.0080675" lon="17.6079171">
        <ele>23.6896</ele>
        <time>2013-04-27T11:06:07Z</time>
      </trkpt>
      <trkpt lat="60.0080777" lon="17.607799">
        <ele>24.1703</ele>
        <time>2013-04-27T11:06:08Z</time>
      </trkpt>
      <trkpt lat="60.0080902" lon="17.6076827">
        <ele>24.1703</ele>
        <time>2013-04-27T11:06:09Z</time>
      </trkpt>
      <trkpt lat="60.0081037" lon="17.6075658">
        <ele>24.651</ele>
        <time>2013-04-27T11:06:10Z</time>
      </trkpt>
      <trkpt lat="60.0081167" lon="17.6074466">
        <ele>24.651</ele>
        <time>2013-04-27T11:06:11Z</time>
      </trkpt>
      <trkpt lat="60.008131" lon="17.6073268">
        <ele>24.651</ele>
        <time>2013-04-27T11:06:12Z</time>
      </trkpt>
      <trkpt lat="60.0081451" lon="17.6072066">
        <ele>24.651</ele>
        <time>2013-04-27T11:06:13Z</time>
      </trkpt>
      <trkpt lat="60.0081581" lon="17.6070877">
        <ele>24.651</ele>
        <time>2013-04-27T11:06:14Z</time>
      </trkpt>
      <trkpt lat="60.0081719" lon="17.6069711">
        <ele>23.6896</ele>
        <time>2013-04-27T11:06:15Z</time>
      </trkpt>
      <trkpt lat="60.0081872" lon="17.6068549">
        <ele>23.209</ele>
        <time>2013-04-27T11:06:16Z</time>
      </trkpt>
      <trkpt lat="60.008203" lon="17.6067381">
        <ele>22.2476</ele>
        <time>2013-04-27T11:06:17Z</time>
      </trkpt>
      <trkpt lat="60.0082187" lon="17.6066211">
        <ele>22.7283</ele>
        <time>2013-04-27T11:06:18Z</time>
      </trkpt>
      <trkpt lat="60.0082332" lon="17.6065048">
        <ele>22.7283</ele>
        <time>2013-04-27T11:06:19Z</time>
      </trkpt>
      <trkpt lat="60.0082477" lon="17.6063892">
        <ele>22.7283</ele>
        <time>2013-04-27T11:06:20Z</time>
      </trkpt>
      <trkpt lat="60.0082623" lon="17.6062765">
        <ele>22.7283</ele>
        <time>2013-04-27T11:06:21Z</time>
      </trkpt>
      <trkpt lat="60.0082778" lon="17.6061656">
        <ele>22.7283</ele>
        <time>2013-04-27T11:06:22Z</time>
      </trkpt>
      <trkpt lat="60.0082925" lon="17.6060543">
        <ele>22.7283</ele>
        <time>2013-04-27T11:06:23Z</time>
      </trkpt>
      <trkpt lat="60.0083077" lon="17.6059402">
        <ele>22.7283</ele>
        <time>2013-04-27T11:06:24Z</time>
      </trkpt>
      <trkpt lat="60.0083228" lon="17.6058262">
        <ele>22.7283</ele>
        <time>2013-04-27T11:06:25Z</time>
      </trkpt>
      <trkpt lat="60.0083378" lon="17.605714">
        <ele>23.209</ele>
        <time>2013-04-27T11:06:26Z</time>
      </trkpt>
      <trkpt lat="60.0083538" lon="17.6056031">
        <ele>23.209</ele>
        <time>2013-04-27T11:06:27Z</time>
      </trkpt>
      <trkpt lat="60.0083704" lon="17.6054933">
        <ele>23.209</ele>
        <time>2013-04-27T11:06:28Z</time>
      </trkpt>
      <trkpt lat="60.0083865" lon="17.6053846">
        <ele>23.209</ele>
        <time>2013-04-27T11:06:29Z</time>
      </trkpt>
      <trkpt lat="60.0084021" lon="17.6052762">
        <ele>23.6896</ele>
        <time>2013-04-27T11:06:30Z</time>
      </trkpt>
      <trkpt lat="60.008418" lon="17.6051679">
        <ele>23.6896</ele>
        <time>2013-04-27T11:06:31Z</time>
      </trkpt>
      <trkpt lat="60.0084342" lon="17.6050595">
        <ele>24.1703</ele>
        <time>2013-04-27T11:06:32Z</time>
      </trkpt>
      <trkpt lat="60.0084502" lon="17.6049518">
        <ele>24.1703</ele>
        <time>2013-04-27T11:06:33Z</time>
      </trkpt>
      <trkpt lat="60.0084659" lon="17.6048452">
        <ele>24.1703</ele>
        <time>2013-04-27T11:06:34Z</time>
      </trkpt>
      <trkpt lat="60.0084814" lon="17.6047385">
        <ele>24.651</ele>
        <time>2013-04-27T11:06:35Z</time>
      </trkpt>
      <trkpt lat="60.0084964" lon="17.6046329">
        <ele>25.6123</ele>
        <time>2013-04-27T11:06:36Z</time>
      </trkpt>
      <trkpt lat="60.0085118" lon="17.6045293">
        <ele>26.0929</ele>
        <time>2013-04-27T11:06:37Z</time>
      </trkpt>
      <trkpt lat="60.0085274" lon="17.6044281">
        <ele>26.5736</ele>
        <time>2013-04-27T11:06:38Z</time>
      </trkpt>
      <trkpt lat="60.0085418" lon="17.6043271">
        <ele>27.5349</ele>
        <time>2013-04-27T11:06:39Z</time>
      </trkpt>
      <trkpt lat="60.0085553" lon="17.6042256">
        <ele>28.0155</ele>
        <time>2013-04-27T11:06:40Z</time>
      </trkpt>
      <trkpt lat="60.0085694" lon="17.6041227">
        <ele>28.4962</ele>
        <time>2013-04-27T11:06:41Z</time>
      </trkpt>
      <trkpt lat="60.0085848" lon="17.6040219">
        <ele>28.9769</ele>
        <time>2013-04-27T11:06:42Z</time>
      </trkpt>
      <trkpt lat="60.0085992" lon="17.6039206">
        <ele>29.4575</ele>
        <time>2013-04-27T11:06:43Z</time>
      </trkpt>
      <trkpt lat="60.008613" lon="17.6038194">
        <ele>29.4575</ele>
        <time>2013-04-27T11:06:44Z</time>
      </trkpt>
      <trkpt lat="60.0086269" lon="17.6037205">
        <ele>29.9381</ele>
        <time>2013-04-27T11:06:45Z</time>
      </trkpt>
      <trkpt lat="60.0086403" lon="17.6036223">
        <ele>30.4188</ele>
        <time>2013-04-27T11:06:46Z</time>
      </trkpt>
      <trkpt lat="60.0086541" lon="17.6035247">
        <ele>30.8995</ele>
        <time>2013-04-27T11:06:47Z</time>
      </trkpt>
      <trkpt lat="60.0086678" lon="17.603428">
        <ele>31.3801</ele>
        <time>2013-04-27T11:06:48Z</time>
      </trkpt>
      <trkpt lat="60.0086816" lon="17.6033314">
        <ele>31.8607</ele>
        <time>2013-04-27T11:06:49Z</time>
      </trkpt>
      <trkpt lat="60.008694" lon="17.6032357">
        <ele>31.8607</ele>
        <time>2013-04-27T11:06:50Z</time>
      </trkpt>
      <trkpt lat="60.0087077" lon="17.6031396">
        <ele>31.8607</ele>
        <time>2013-04-27T11:06:51Z</time>
      </trkpt>
      <trkpt lat="60.0087218" lon="17.6030427">
        <ele>31.8607</ele>
        <time>2013-04-27T11:06:52Z</time>
      </trkpt>
      <trkpt lat="60.0087357" lon="17.602945">
        <ele>31.8607</ele>
        <time>2013-04-27T11:06:53Z</time>
      </trkpt>
      <trkpt lat="60.0087491" lon="17.6028482">
        <ele>31.8607</ele>
        <time>2013-04-27T11:06:54Z</time>
      </trkpt>
      <trkpt lat="60.0087639" lon="17.6027539">
        <ele>32.3416</ele>
        <time>2013-04-27T11:06:55Z</time>
      </trkpt>
      <trkpt lat="60.0087775" lon="17.6026594">
        <ele>32.8223</ele>
        <time>2013-04-27T11:06:56Z</time>
      </trkpt>
      <trkpt lat="60.0087909" lon="17.6025645">
        <ele>32.8223</ele>
        <time>2013-04-27T11:06:57Z</time>
      </trkpt>
      <trkpt lat="60.0088065" lon="17.6024702">
        <ele>33.3029</ele>
        <time>2013-04-27T11:06:58Z</time>
      </trkpt>
      <trkpt lat="60.0088211" lon="17.6023759">
        <ele>33.7834</ele>
        <time>2013-04-27T11:06:59Z</time>
      </trkpt>
      <trkpt lat="60.0088352" lon="17.6022814">
        <ele>34.2642</ele>
        <time>2013-04-27T11:07:00Z</time>
      </trkpt>
      <trkpt lat="60.0088486" lon="17.6021888">
        <ele>34.2642</ele>
        <time>2013-04-27T11:07:01Z</time>
      </trkpt>
      <trkpt lat="60.0088639" lon="17.6020932">
        <ele>35.2255</ele>
        <time>2013-04-27T11:07:02Z</time>
      </trkpt>
      <trkpt lat="60.0088774" lon="17.6019989">
        <ele>34.7449</ele>
        <time>2013-04-27T11:07:03Z</time>
      </trkpt>
      <trkpt lat="60.0088911" lon="17.6019022">
        <ele>35.2255</ele>
        <time>2013-04-27T11:07:04Z</time>
      </trkpt>
      <trkpt lat="60.0089053" lon="17.6018028">
        <ele>35.2255</ele>
        <time>2013-04-27T11:07:05Z</time>
      </trkpt>
      <trkpt lat="60.0089196" lon="17.6017021">
        <ele>35.7061</ele>
        <time>2013-04-27T11:07:06Z</time>
      </trkpt>
      <trkpt lat="60.0089354" lon="17.6016004">
        <ele>35.7061</ele>
        <time>2013-04-27T11:07:07Z</time>
      </trkpt>
      <trkpt lat="60.0089511" lon="17.6014994">
        <ele>36.6675</ele>
        <time>2013-04-27T11:07:08Z</time>
      </trkpt>
      <trkpt lat="60.0089668" lon="17.6013995">
        <ele>36.6675</ele>
        <time>2013-04-27T11:07:09Z</time>
      </trkpt>
      <trkpt lat="60.0089818" lon="17.6013005">
        <ele>37.1481</ele>
        <time>2013-04-27T11:07:10Z</time>
      </trkpt>
      <trkpt lat="60.0089968" lon="17.6012006">
        <ele>37.1481</ele>
        <time>2013-04-27T11:07:11Z</time>
      </trkpt>
      <trkpt lat="60.0090133" lon="17.6011006">
        <ele>37.6287</ele>
        <time>2013-04-27T11:07:12Z</time>
      </trkpt>
      <trkpt lat="60.00903" lon="17.6010021">
        <ele>38.1094</ele>
        <time>2013-04-27T11:07:13Z</time>
      </trkpt>
      <trkpt lat="60.0090458" lon="17.6009016">
        <ele>38.5901</ele>
        <time>2013-04-27T11:07:14Z</time>
      </trkpt>
      <trkpt lat="60.0090618" lon="17.6007986">
        <ele>39.0707</ele>
        <time>2013-04-27T11:07:15Z</time>
      </trkpt>
      <trkpt lat="60.0090786" lon="17.600696">
        <ele>39.0707</ele>
        <time>2013-04-27T11:07:16Z</time>
      </trkpt>
      <trkpt lat="60.0090945" lon="17.6005925">
        <ele>39.0707</ele>
        <time>2013-04-27T11:07:17Z</time>
      </trkpt>
      <trkpt lat="60.0091102" lon="17.6004884">
        <ele>40.0321</ele>
        <time>2013-04-27T11:07:18Z</time>
      </trkpt>
      <trkpt lat="60.0091256" lon="17.6003865">
        <ele>40.0321</ele>
        <time>2013-04-27T11:07:19Z</time>
      </trkpt>
      <trkpt lat="60.0091403" lon="17.6002834">
        <ele>40.5128</ele>
        <time>2013-04-27T11:07:20Z</time>
      </trkpt>
      <trkpt lat="60.0091552" lon="17.6001795">
        <ele>40.5128</ele>
        <time>2013-04-27T11:07:21Z</time>
      </trkpt>
      <trkpt lat="60.0091722" lon="17.6000754">
        <ele>40.9934</ele>
        <time>2013-04-27T11:07:22Z</time>
      </trkpt>
      <trkpt lat="60.0091878" lon="17.5999714">
        <ele>40.9934</ele>
        <time>2013-04-27T11:07:23Z</time>
      </trkpt>
      <trkpt lat="60.0092025" lon="17.5998688">
        <ele>41.474</ele>
        <time>2013-04-27T11:07:24Z</time>
      </trkpt>
      <trkpt lat="60.0092167" lon="17.5997666">
        <ele>41.474</ele>
        <time>2013-04-27T11:07:25Z</time>
      </trkpt>
      <trkpt lat="60.0092314" lon="17.5996636">
        <ele>41.474</ele>
        <time>2013-04-27T11:07:26Z</time>
      </trkpt>
      <trkpt lat="60.0092464" lon="17.599561">
        <ele>41.474</ele>
        <time>2013-04-27T11:07:27Z</time>
      </trkpt>
      <trkpt lat="60.0092625" lon="17.5994583">
        <ele>41.474</ele>
        <time>2013-04-27T11:07:28Z</time>
      </trkpt>
      <trkpt lat="60.0092788" lon="17.5993558">
        <ele>40.9934</ele>
        <time>2013-04-27T11:07:29Z</time>
      </trkpt>
      <trkpt lat="60.0092952" lon="17.5992531">
        <ele>40.5128</ele>
        <time>2013-04-27T11:07:30Z</time>
      </trkpt>
      <trkpt lat="60.009313" lon="17.5991504">
        <ele>40.9934</ele>
        <time>2013-04-27T11:07:31Z</time>
      </trkpt>
      <trkpt lat="60.0093315" lon="17.5990485">
        <ele>41.474</ele>
        <time>2013-04-27T11:07:32Z</time>
      </trkpt>
      <trkpt lat="60.0093485" lon="17.5989489">
        <ele>41.9547</ele>
        <time>2013-04-27T11:07:33Z</time>
      </trkpt>
      <trkpt lat="60.0093653" lon="17.5988508">
        <ele>42.4354</ele>
        <time>2013-04-27T11:07:34Z</time>
      </trkpt>
      <trkpt lat="60.0093821" lon="17.5987502">
        <ele>42.4354</ele>
        <time>2013-04-27T11:07:35Z</time>
      </trkpt>
      <trkpt lat="60.0093992" lon="17.5986484">
        <ele>42.4354</ele>
        <time>2013-04-27T11:07:36Z</time>
      </trkpt>
      <trkpt lat="60.0094147" lon="17.5985521">
        <ele>42.4354</ele>
        <time>2013-04-27T11:07:37Z</time>
      </trkpt>
      <trkpt lat="60.0094307" lon="17.5984528">
        <ele>42.4354</ele>
        <time>2013-04-27T11:07:38Z</time>
      </trkpt>
      <trkpt lat="60.0094488" lon="17.598349">
        <ele>42.916</ele>
        <time>2013-04-27T11:07:39Z</time>
      </trkpt>
      <trkpt lat="60.0094681" lon="17.5982432">
        <ele>42.916</ele>
        <time>2013-04-27T11:07:40Z</time>
      </trkpt>
      <trkpt lat="60.0094873" lon="17.598138">
        <ele>42.916</ele>
        <time>2013-04-27T11:07:41Z</time>
      </trkpt>
      <trkpt lat="60.0095071" lon="17.5980314">
        <ele>42.916</ele>
        <time>2013-04-27T11:07:42Z</time>
      </trkpt>
      <trkpt lat="60.0095251" lon="17.5979279">
        <ele>42.916</ele>
        <time>2013-04-27T11:07:43Z</time>
      </trkpt>
      <trkpt lat="60.0095416" lon="17.5978252">
        <ele>40.5128</ele>
        <time>2013-04-27T11:07:44Z</time>
      </trkpt>
      <trkpt lat="60.0095582" lon="17.5977205">
        <ele>38.5901</ele>
        <time>2013-04-27T11:07:45Z</time>
      </trkpt>
      <trkpt lat="60.0095758" lon="17.597615">
        <ele>37.1481</ele>
        <time>2013-04-27T11:07:46Z</time>
      </trkpt>
      <trkpt lat="60.0095936" lon="17.5975085">
        <ele>37.1481</ele>
        <time>2013-04-27T11:07:47Z</time>
      </trkpt>
      <trkpt lat="60.0096111" lon="17.5974012">
        <ele>36.1868</ele>
        <time>2013-04-27T11:07:48Z</time>
      </trkpt>
      <trkpt lat="60.009629" lon="17.597294">
        <ele>35.2255</ele>
        <time>2013-04-27T11:07:49Z</time>
      </trkpt>
      <trkpt lat="60.0096468" lon="17.5971884">
        <ele>34.2642</ele>
        <time>2013-04-27T11:07:50Z</time>
      </trkpt>
      <trkpt lat="60.0096644" lon="17.5970834">
        <ele>34.2642</ele>
        <time>2013-04-27T11:07:51Z</time>
      </trkpt>
      <trkpt lat="60.0096836" lon="17.5969766">
        <ele>34.7449</ele>
        <time>2013-04-27T11:07:52Z</time>
      </trkpt>
      <trkpt lat="60.0097033" lon="17.5968687">
        <ele>34.7449</ele>
        <time>2013-04-27T11:07:53Z</time>
      </trkpt>
      <trkpt lat="60.0097229" lon="17.5967599">
        <ele>34.7449</ele>
        <time>2013-04-27T11:07:54Z</time>
      </trkpt>
      <trkpt lat="60.0097416" lon="17.5966529">
        <ele>34.7449</ele>
        <time>2013-04-27T11:07:55Z</time>
      </trkpt>
      <trkpt lat="60.0097607" lon="17.5965467">
        <ele>34.7449</ele>
        <time>2013-04-27T11:07:56Z</time>
      </trkpt>
      <trkpt lat="60.0097808" lon="17.5964398">
        <ele>34.7449</ele>
        <time>2013-04-27T11:07:57Z</time>
      </trkpt>
      <trkpt lat="60.0098012" lon="17.59633">
        <ele>35.2255</ele>
        <time>2013-04-27T11:07:58Z</time>
      </trkpt>
      <trkpt lat="60.0098202" lon="17.5962191">
        <ele>34.7449</ele>
        <time>2013-04-27T11:07:59Z</time>
      </trkpt>
      <trkpt lat="60.0098389" lon="17.5961098">
        <ele>34.7449</ele>
        <time>2013-04-27T11:08:00Z</time>
      </trkpt>
      <trkpt lat="60.0098587" lon="17.5960002">
        <ele>34.7449</ele>
        <time>2013-04-27T11:08:01Z</time>
      </trkpt>
      <trkpt lat="60.0098787" lon="17.5958883">
        <ele>34.7449</ele>
        <time>2013-04-27T11:08:02Z</time>
      </trkpt>
      <trkpt lat="60.0098978" lon="17.5957755">
        <ele>34.7449</ele>
        <time>2013-04-27T11:08:03Z</time>
      </trkpt>
      <trkpt lat="60.0099175" lon="17.5956641">
        <ele>34.7449</ele>
        <time>2013-04-27T11:08:04Z</time>
      </trkpt>
      <trkpt lat="60.009938" lon="17.595554">
        <ele>34.7449</ele>
        <time>2013-04-27T11:08:05Z</time>
      </trkpt>
      <trkpt lat="60.0099586" lon="17.5954428">
        <ele>34.7449</ele>
        <time>2013-04-27T11:08:06Z</time>
      </trkpt>
      <trkpt lat="60.0099784" lon="17.595331">
        <ele>34.7449</ele>
        <time>2013-04-27T11:08:07Z</time>
      </trkpt>
      <trkpt lat="60.0099984" lon="17.5952192">
        <ele>35.2255</ele>
        <time>2013-04-27T11:08:08Z</time>
      </trkpt>
      <trkpt lat="60.0100181" lon="17.5951073">
        <ele>35.2255</ele>
        <time>2013-04-27T11:08:09Z</time>
      </trkpt>
      <trkpt lat="60.0100377" lon="17.5949961">
        <ele>34.7449</ele>
        <time>2013-04-27T11:08:10Z</time>
      </trkpt>
      <trkpt lat="60.0100576" lon="17.594885">
        <ele>34.7449</ele>
        <time>2013-04-27T11:08:11Z</time>
      </trkpt>
      <trkpt lat="60.0100778" lon="17.5947739">
        <ele>34.7449</ele>
        <time>2013-04-27T11:08:12Z</time>
      </trkpt>
      <trkpt lat="60.0100984" lon="17.5946625">
        <ele>34.7449</ele>
        <time>2013-04-27T11:08:13Z</time>
      </trkpt>
      <trkpt lat="60.0101187" lon="17.5945513">
        <ele>35.2255</ele>
        <time>2013-04-27T11:08:14Z</time>
      </trkpt>
      <trkpt lat="60.0101398" lon="17.5944403">
        <ele>35.2255</ele>
        <time>2013-04-27T11:08:15Z</time>
      </trkpt>
      <trkpt lat="60.0101617" lon="17.5943281">
        <ele>35.2255</ele>
        <time>2013-04-27T11:08:16Z</time>
      </trkpt>
      <trkpt lat="60.0101829" lon="17.5942141">
        <ele>35.2255</ele>
        <time>2013-04-27T11:08:17Z</time>
      </trkpt>
      <trkpt lat="60.0102036" lon="17.5941022">
        <ele>35.2255</ele>
        <time>2013-04-27T11:08:18Z</time>
      </trkpt>
      <trkpt lat="60.0102238" lon="17.5939938">
        <ele>35.2255</ele>
        <time>2013-04-27T11:08:19Z</time>
      </trkpt>
      <trkpt lat="60.0102434" lon="17.5938886">
        <ele>35.2255</ele>
        <time>2013-04-27T11:08:20Z</time>
      </trkpt>
      <trkpt lat="60.0102623" lon="17.5937867">
        <ele>35.2255</ele>
        <time>2013-04-27T11:08:21Z</time>
      </trkpt>
      <trkpt lat="60.0102813" lon="17.5936845">
        <ele>35.2255</ele>
        <time>2013-04-27T11:08:22Z</time>
      </trkpt>
      <trkpt lat="60.0103021" lon="17.5935806">
        <ele>35.2255</ele>
        <time>2013-04-27T11:08:23Z</time>
      </trkpt>
      <trkpt lat="60.0103222" lon="17.5934765">
        <ele>35.2255</ele>
        <time>2013-04-27T11:08:24Z</time>
      </trkpt>
      <trkpt lat="60.0103424" lon="17.5933727">
        <ele>35.2255</ele>
        <time>2013-04-27T11:08:25Z</time>
      </trkpt>
      <trkpt lat="60.0103632" lon="17.5932693">
        <ele>35.7061</ele>
        <time>2013-04-27T11:08:26Z</time>
      </trkpt>
      <trkpt lat="60.0103832" lon="17.593165">
        <ele>35.7061</ele>
        <time>2013-04-27T11:08:27Z</time>
      </trkpt>
      <trkpt lat="60.010403" lon="17.5930594">
        <ele>36.1868</ele>
        <time>2013-04-27T11:08:28Z</time>
      </trkpt>
      <trkpt lat="60.0104231" lon="17.5929528">
        <ele>36.1868</ele>
        <time>2013-04-27T11:08:29Z</time>
      </trkpt>
      <trkpt lat="60.0104434" lon="17.5928449">
        <ele>36.1868</ele>
        <time>2013-04-27T11:08:30Z</time>
      </trkpt>
      <trkpt lat="60.0104648" lon="17.5927352">
        <ele>35.7061</ele>
        <time>2013-04-27T11:08:31Z</time>
      </trkpt>
      <trkpt lat="60.0104869" lon="17.5926254">
        <ele>35.7061</ele>
        <time>2013-04-27T11:08:32Z</time>
      </trkpt>
      <trkpt lat="60.0105086" lon="17.5925166">
        <ele>35.7061</ele>
        <time>2013-04-27T11:08:33Z</time>
      </trkpt>
      <trkpt lat="60.0105305" lon="17.5924095">
        <ele>35.7061</ele>
        <time>2013-04-27T11:08:34Z</time>
      </trkpt>
      <trkpt lat="60.0105528" lon="17.5923045">
        <ele>36.1868</ele>
        <time>2013-04-27T11:08:35Z</time>
      </trkpt>
      <trkpt lat="60.0105756" lon="17.5922005">
        <ele>36.1868</ele>
        <time>2013-04-27T11:08:36Z</time>
      </trkpt>
      <trkpt lat="60.0105989" lon="17.5920954">
        <ele>36.1868</ele>
        <time>2013-04-27T11:08:37Z</time>
      </trkpt>
      <trkpt lat="60.010622" lon="17.5919898">
        <ele>36.1868</ele>
        <time>2013-04-27T11:08:38Z</time>
      </trkpt>
      <trkpt lat="60.0106455" lon="17.5918841">
        <ele>35.7061</ele>
        <time>2013-04-27T11:08:39Z</time>
      </trkpt>
      <trkpt lat="60.0106699" lon="17.5917793">
        <ele>35.7061</ele>
        <time>2013-04-27T11:08:40Z</time>
      </trkpt>
      <trkpt lat="60.0106946" lon="17.5916762">
        <ele>36.1868</ele>
        <time>2013-04-27T11:08:41Z</time>
      </trkpt>
      <trkpt lat="60.0107191" lon="17.5915755">
        <ele>36.1868</ele>
        <time>2013-04-27T11:08:42Z</time>
      </trkpt>
      <trkpt lat="60.0107456" lon="17.5914773">
        <ele>36.1868</ele>
        <time>2013-04-27T11:08:43Z</time>
      </trkpt>
      <trkpt lat="60.0107717" lon="17.5913811">
        <ele>36.1868</ele>
        <time>2013-04-27T11:08:44Z</time>
      </trkpt>
      <trkpt lat="60.0107961" lon="17.5912864">
        <ele>36.1868</ele>
        <time>2013-04-27T11:08:45Z</time>
      </trkpt>
      <trkpt lat="60.0108211" lon="17.5911941">
        <ele>36.1868</ele>
        <time>2013-04-27T11:08:46Z</time>
      </trkpt>
      <trkpt lat="60.0108475" lon="17.5911062">
        <ele>36.6675</ele>
        <time>2013-04-27T11:08:47Z</time>
      </trkpt>
      <trkpt lat="60.0108735" lon="17.5910217">
        <ele>36.6675</ele>
        <time>2013-04-27T11:08:48Z</time>
      </trkpt>
      <trkpt lat="60.0108986" lon="17.5909372">
        <ele>36.6675</ele>
        <time>2013-04-27T11:08:49Z</time>
      </trkpt>
      <trkpt lat="60.0109254" lon="17.5908494">
        <ele>37.1481</ele>
        <time>2013-04-27T11:08:50Z</time>
      </trkpt>
      <trkpt lat="60.0109548" lon="17.5907589">
        <ele>37.1481</ele>
        <time>2013-04-27T11:08:51Z</time>
      </trkpt>
      <trkpt lat="60.0109858" lon="17.5906681">
        <ele>37.1481</ele>
        <time>2013-04-27T11:08:52Z</time>
      </trkpt>
      <trkpt lat="60.0110168" lon="17.5905756">
        <ele>37.6287</ele>
        <time>2013-04-27T11:08:53Z</time>
      </trkpt>
      <trkpt lat="60.0110478" lon="17.5904822">
        <ele>38.1094</ele>
        <time>2013-04-27T11:08:54Z</time>
      </trkpt>
      <trkpt lat="60.0110794" lon="17.5903886">
        <ele>38.5901</ele>
        <time>2013-04-27T11:08:55Z</time>
      </trkpt>
      <trkpt lat="60.0111122" lon="17.5902947">
        <ele>39.0707</ele>
        <time>2013-04-27T11:08:56Z</time>
      </trkpt>
      <trkpt lat="60.0111449" lon="17.5901933">
        <ele>37.6287</ele>
        <time>2013-04-27T11:08:57Z</time>
      </trkpt>
      <trkpt lat="60.0111787" lon="17.5901002">
        <ele>37.6287</ele>
        <time>2013-04-27T11:08:58Z</time>
      </trkpt>
      <trkpt lat="60.0112133" lon="17.5900096">
        <ele>38.1094</ele>
        <time>2013-04-27T11:08:59Z</time>
      </trkpt>
      <trkpt lat="60.0112489" lon="17.5899199">
        <ele>38.1094</ele>
        <time>2013-04-27T11:09:00Z</time>
      </trkpt>
      <trkpt lat="60.0112856" lon="17.5898323">
        <ele>38.5901</ele>
        <time>2013-04-27T11:09:01Z</time>
      </trkpt>
      <trkpt lat="60.0113231" lon="17.5897468">
        <ele>38.5901</ele>
        <time>2013-04-27T11:09:02Z</time>
      </trkpt>
      <trkpt lat="60.011361" lon="17.5896607">
        <ele>38.5901</ele>
        <time>2013-04-27T11:09:03Z</time>
      </trkpt>
      <trkpt lat="60.0114002" lon="17.5895765">
        <ele>39.0707</ele>
        <time>2013-04-27T11:09:04Z</time>
      </trkpt>
      <trkpt lat="60.0114394" lon="17.5894959">
        <ele>39.0707</ele>
        <time>2013-04-27T11:09:05Z</time>
      </trkpt>
      <trkpt lat="60.0114799" lon="17.5894167">
        <ele>39.0707</ele>
        <time>2013-04-27T11:09:06Z</time>
      </trkpt>
      <trkpt lat="60.0115213" lon="17.5893417">
        <ele>39.0707</ele>
        <time>2013-04-27T11:09:07Z</time>
      </trkpt>
      <trkpt lat="60.0115623" lon="17.5892651">
        <ele>38.5901</ele>
        <time>2013-04-27T11:09:08Z</time>
      </trkpt>
      <trkpt lat="60.0116044" lon="17.5891868">
        <ele>37.6287</ele>
        <time>2013-04-27T11:09:09Z</time>
      </trkpt>
      <trkpt lat="60.0116473" lon="17.5891081">
        <ele>36.6675</ele>
        <time>2013-04-27T11:09:10Z</time>
      </trkpt>
      <trkpt lat="60.0116909" lon="17.5890326">
        <ele>36.6675</ele>
        <time>2013-04-27T11:09:11Z</time>
      </trkpt>
      <trkpt lat="60.0117355" lon="17.5889584">
        <ele>36.6675</ele>
        <time>2013-04-27T11:09:12Z</time>
      </trkpt>
      <trkpt lat="60.0117805" lon="17.5888852">
        <ele>36.1868</ele>
        <time>2013-04-27T11:09:13Z</time>
      </trkpt>
      <trkpt lat="60.0118261" lon="17.5888132">
        <ele>36.1868</ele>
        <time>2013-04-27T11:09:14Z</time>
      </trkpt>
      <trkpt lat="60.0118736" lon="17.588745">
        <ele>35.7061</ele>
        <time>2013-04-27T11:09:15Z</time>
      </trkpt>
      <trkpt lat="60.0119204" lon="17.5886725">
        <ele>35.7061</ele>
        <time>2013-04-27T11:09:16Z</time>
      </trkpt>
      <trkpt lat="60.0119678" lon="17.5886">
        <ele>35.7061</ele>
        <time>2013-04-27T11:09:17Z</time>
      </trkpt>
      <trkpt lat="60.0120157" lon="17.5885275">
        <ele>35.7061</ele>
        <time>2013-04-27T11:09:18Z</time>
      </trkpt>
      <trkpt lat="60.0120634" lon="17.5884573">
        <ele>35.2255</ele>
        <time>2013-04-27T11:09:19Z</time>
      </trkpt>
      <trkpt lat="60.012111" lon="17.588387">
        <ele>35.2255</ele>
        <time>2013-04-27T11:09:20Z</time>
      </trkpt>
      <trkpt lat="60.0121586" lon="17.5883156">
        <ele>35.2255</ele>
        <time>2013-04-27T11:09:21Z</time>
      </trkpt>
      <trkpt lat="60.0122058" lon="17.5882449">
        <ele>35.2255</ele>
        <time>2013-04-27T11:09:22Z</time>
      </trkpt>
      <trkpt lat="60.0122544" lon="17.5881798">
        <ele>34.7449</ele>
        <time>2013-04-27T11:09:23Z</time>
      </trkpt>
      <trkpt lat="60.0123041" lon="17.5881198">
        <ele>34.7449</ele>
        <time>2013-04-27T11:09:24Z</time>
      </trkpt>
      <trkpt lat="60.0123538" lon="17.5880617">
        <ele>34.7449</ele>
        <time>2013-04-27T11:09:25Z</time>
      </trkpt>
      <trkpt lat="60.0124035" lon="17.5880043">
        <ele>34.7449</ele>
        <time>2013-04-27T11:09:26Z</time>
      </trkpt>
      <trkpt lat="60.0124528" lon="17.5879502">
        <ele>34.7449</ele>
        <time>2013-04-27T11:09:27Z</time>
      </trkpt>
      <trkpt lat="60.0125016" lon="17.5878974">
        <ele>34.7449</ele>
        <time>2013-04-27T11:09:28Z</time>
      </trkpt>
      <trkpt lat="60.0125504" lon="17.5878447">
        <ele>34.7449</ele>
        <time>2013-04-27T11:09:29Z</time>
      </trkpt>
      <trkpt lat="60.0126005" lon="17.5877933">
        <ele>34.7449</ele>
        <time>2013-04-27T11:09:30Z</time>
      </trkpt>
      <trkpt lat="60.0126505" lon="17.5877426">
        <ele>34.7449</ele>
        <time>2013-04-27T11:09:31Z</time>
      </trkpt>
      <trkpt lat="60.0127006" lon="17.5876994">
        <ele>35.2255</ele>
        <time>2013-04-27T11:09:32Z</time>
      </trkpt>
      <trkpt lat="60.0127516" lon="17.5876562">
        <ele>34.7449</ele>
        <time>2013-04-27T11:09:33Z</time>
      </trkpt>
      <trkpt lat="60.0128024" lon="17.5876115">
        <ele>34.7449</ele>
        <time>2013-04-27T11:09:34Z</time>
      </trkpt>
      <trkpt lat="60.0128529" lon="17.5875653">
        <ele>35.2255</ele>
        <time>2013-04-27T11:09:35Z</time>
      </trkpt>
      <trkpt lat="60.0129035" lon="17.587522">
        <ele>35.2255</ele>
        <time>2013-04-27T11:09:36Z</time>
      </trkpt>
      <trkpt lat="60.0129553" lon="17.5874821">
        <ele>35.2255</ele>
        <time>2013-04-27T11:09:37Z</time>
      </trkpt>
      <trkpt lat="60.0130071" lon="17.5874458">
        <ele>35.2255</ele>
        <time>2013-04-27T11:09:38Z</time>
      </trkpt>
      <trkpt lat="60.0130589" lon="17.5874073">
        <ele>35.2255</ele>
        <time>2013-04-27T11:09:39Z</time>
      </trkpt>
      <trkpt lat="60.0131113" lon="17.587366">
        <ele>34.7449</ele>
        <time>2013-04-27T11:09:40Z</time>
      </trkpt>
      <trkpt lat="60.0131641" lon="17.5873259">
        <ele>34.7449</ele>
        <time>2013-04-27T11:09:41Z</time>
      </trkpt>
      <trkpt lat="60.0132173" lon="17.5872894">
        <ele>34.7449</ele>
        <time>2013-04-27T11:09:42Z</time>
      </trkpt>
      <trkpt lat="60.0132703" lon="17.5872547">
        <ele>34.7449</ele>
        <time>2013-04-27T11:09:43Z</time>
      </trkpt>
      <trkpt lat="60.0133232" lon="17.587222">
        <ele>34.7449</ele>
        <time>2013-04-27T11:09:44Z</time>
      </trkpt>
      <trkpt lat="60.0133756" lon="17.5871902">
        <ele>34.7449</ele>
        <time>2013-04-27T11:09:45Z</time>
      </trkpt>
      <trkpt lat="60.0134271" lon="17.5871598">
        <ele>34.7449</ele>
        <time>2013-04-27T11:09:46Z</time>
      </trkpt>
      <trkpt lat="60.0134776" lon="17.587136">
        <ele>34.7449</ele>
        <time>2013-04-27T11:09:47Z</time>
      </trkpt>
      <trkpt lat="60.0135288" lon="17.5871097">
        <ele>34.7449</ele>
        <time>2013-04-27T11:09:48Z</time>
      </trkpt>
      <trkpt lat="60.0135799" lon="17.5870809">
        <ele>34.7449</ele>
        <time>2013-04-27T11:09:49Z</time>
      </trkpt>
      <trkpt lat="60.013633" lon="17.5870517">
        <ele>34.7449</ele>
        <time>2013-04-27T11:09:50Z</time>
      </trkpt>
      <trkpt lat="60.0136851" lon="17.5870237">
        <ele>34.7449</ele>
        <time>2013-04-27T11:09:51Z</time>
      </trkpt>
      <trkpt lat="60.0137375" lon="17.5869973">
        <ele>34.7449</ele>
        <time>2013-04-27T11:09:52Z</time>
      </trkpt>
      <trkpt lat="60.0137904" lon="17.5869719">
        <ele>34.7449</ele>
        <time>2013-04-27T11:09:53Z</time>
      </trkpt>
      <trkpt lat="60.013844" lon="17.5869469">
        <ele>34.7449</ele>
        <time>2013-04-27T11:09:54Z</time>
      </trkpt>
      <trkpt lat="60.0138976" lon="17.586922">
        <ele>34.7449</ele>
        <time>2013-04-27T11:09:55Z</time>
      </trkpt>
      <trkpt lat="60.0139525" lon="17.5868955">
        <ele>34.2642</ele>
        <time>2013-04-27T11:09:56Z</time>
      </trkpt>
      <trkpt lat="60.0140075" lon="17.5868725">
        <ele>33.7834</ele>
        <time>2013-04-27T11:09:57Z</time>
      </trkpt>
      <trkpt lat="60.0140608" lon="17.5868492">
        <ele>33.3029</ele>
        <time>2013-04-27T11:09:58Z</time>
      </trkpt>
      <trkpt lat="60.0141142" lon="17.5868257">
        <ele>33.7834</ele>
        <time>2013-04-27T11:09:59Z</time>
      </trkpt>
      <trkpt lat="60.0141663" lon="17.5868028">
        <ele>33.3029</ele>
        <time>2013-04-27T11:10:00Z</time>
      </trkpt>
      <trkpt lat="60.0142165" lon="17.5867817">
        <ele>32.8223</ele>
        <time>2013-04-27T11:10:01Z</time>
      </trkpt>
      <trkpt lat="60.014266" lon="17.5867593">
        <ele>32.3416</ele>
        <time>2013-04-27T11:10:02Z</time>
      </trkpt>
      <trkpt lat="60.0143156" lon="17.5867367">
        <ele>31.8607</ele>
        <time>2013-04-27T11:10:03Z</time>
      </trkpt>
      <trkpt lat="60.0143642" lon="17.58672">
        <ele>30.8995</ele>
        <time>2013-04-27T11:10:04Z</time>
      </trkpt>
      <trkpt lat="60.014413" lon="17.5867033">
        <ele>30.4188</ele>
        <time>2013-04-27T11:10:05Z</time>
      </trkpt>
      <trkpt lat="60.0144625" lon="17.5866832">
        <ele>29.9381</ele>
        <time>2013-04-27T11:10:06Z</time>
      </trkpt>
      <trkpt lat="60.014512" lon="17.5866631">
        <ele>30.4188</ele>
        <time>2013-04-27T11:10:07Z</time>
      </trkpt>
      <trkpt lat="60.0145617" lon="17.5866402">
        <ele>30.4188</ele>
        <time>2013-04-27T11:10:08Z</time>
      </trkpt>
      <trkpt lat="60.0146103" lon="17.5866184">
        <ele>29.4575</ele>
        <time>2013-04-27T11:10:09Z</time>
      </trkpt>
      <trkpt lat="60.0146591" lon="17.586604">
        <ele>28.9769</ele>
        <time>2013-04-27T11:10:10Z</time>
      </trkpt>
      <trkpt lat="60.0147087" lon="17.5865899">
        <ele>28.0155</ele>
        <time>2013-04-27T11:10:11Z</time>
      </trkpt>
      <trkpt lat="60.0147595" lon="17.586573">
        <ele>27.5349</ele>
        <time>2013-04-27T11:10:12Z</time>
      </trkpt>
      <trkpt lat="60.0148108" lon="17.5865533">
        <ele>27.5349</ele>
        <time>2013-04-27T11:10:13Z</time>
      </trkpt>
      <trkpt lat="60.0148631" lon="17.5865341">
        <ele>27.0543</ele>
        <time>2013-04-27T11:10:14Z</time>
      </trkpt>
      <trkpt lat="60.0149163" lon="17.5865139">
        <ele>27.0543</ele>
        <time>2013-04-27T11:10:15Z</time>
      </trkpt>
      <trkpt lat="60.0149709" lon="17.5864912">
        <ele>27.0543</ele>
        <time>2013-04-27T11:10:16Z</time>
      </trkpt>
      <trkpt lat="60.0150272" lon="17.5864684">
        <ele>27.0543</ele>
        <time>2013-04-27T11:10:17Z</time>
      </trkpt>
      <trkpt lat="60.0150824" lon="17.5864484">
        <ele>27.0543</ele>
        <time>2013-04-27T11:10:18Z</time>
      </trkpt>
      <trkpt lat="60.0151371" lon="17.5864249">
        <ele>26.5736</ele>
        <time>2013-04-27T11:10:19Z</time>
      </trkpt>
      <trkpt lat="60.015191" lon="17.5864">
        <ele>25.6123</ele>
        <time>2013-04-27T11:10:20Z</time>
      </trkpt>
      <trkpt lat="60.0152449" lon="17.5863761">
        <ele>26.0929</ele>
        <time>2013-04-27T11:10:21Z</time>
      </trkpt>
      <trkpt lat="60.0152982" lon="17.5863491">
        <ele>26.0929</ele>
        <time>2013-04-27T11:10:22Z</time>
      </trkpt>
      <trkpt lat="60.015352" lon="17.5863208">
        <ele>26.0929</ele>
        <time>2013-04-27T11:10:23Z</time>
      </trkpt>
      <trkpt lat="60.0154056" lon="17.5863013">
        <ele>26.0929</ele>
        <time>2013-04-27T11:10:24Z</time>
      </trkpt>
      <trkpt lat="60.015461" lon="17.586286">
        <ele>26.5736</ele>
        <time>2013-04-27T11:10:25Z</time>
      </trkpt>
      <trkpt lat="60.0155148" lon="17.5862688">
        <ele>26.5736</ele>
        <time>2013-04-27T11:10:26Z</time>
      </trkpt>
      <trkpt lat="60.0155692" lon="17.5862469">
        <ele>27.5349</ele>
        <time>2013-04-27T11:10:27Z</time>
      </trkpt>
      <trkpt lat="60.0156229" lon="17.5862249">
        <ele>27.5349</ele>
        <time>2013-04-27T11:10:28Z</time>
      </trkpt>
      <trkpt lat="60.0156762" lon="17.586201">
        <ele>28.0155</ele>
        <time>2013-04-27T11:10:29Z</time>
      </trkpt>
      <trkpt lat="60.0157283" lon="17.5861767">
        <ele>28.0155</ele>
        <time>2013-04-27T11:10:30Z</time>
      </trkpt>
      <trkpt lat="60.01578" lon="17.586155">
        <ele>28.4962</ele>
        <time>2013-04-27T11:10:31Z</time>
      </trkpt>
      <trkpt lat="60.0158309" lon="17.5861321">
        <ele>28.4962</ele>
        <time>2013-04-27T11:10:32Z</time>
      </trkpt>
      <trkpt lat="60.015881" lon="17.5861057">
        <ele>28.9769</ele>
        <time>2013-04-27T11:10:33Z</time>
      </trkpt>
      <trkpt lat="60.0159311" lon="17.5860793">
        <ele>28.9769</ele>
        <time>2013-04-27T11:10:34Z</time>
      </trkpt>
      <trkpt lat="60.0159825" lon="17.5860529">
        <ele>28.9769</ele>
        <time>2013-04-27T11:10:35Z</time>
      </trkpt>
      <trkpt lat="60.0160335" lon="17.5860224">
        <ele>29.4575</ele>
        <time>2013-04-27T11:10:36Z</time>
      </trkpt>
      <trkpt lat="60.0160841" lon="17.5859911">
        <ele>29.9381</ele>
        <time>2013-04-27T11:10:37Z</time>
      </trkpt>
      <trkpt lat="60.0161344" lon="17.5859582">
        <ele>29.9381</ele>
        <time>2013-04-27T11:10:38Z</time>
      </trkpt>
      <trkpt lat="60.0161844" lon="17.5859259">
        <ele>29.9381</ele>
        <time>2013-04-27T11:10:39Z</time>
      </trkpt>
      <trkpt lat="60.0162343" lon="17.5858928">
        <ele>29.9381</ele>
        <time>2013-04-27T11:10:40Z</time>
      </trkpt>
      <trkpt lat="60.0162844" lon="17.5858586">
        <ele>29.9381</ele>
        <time>2013-04-27T11:10:41Z</time>
      </trkpt>
      <trkpt lat="60.0163344" lon="17.5858237">
        <ele>29.9381</ele>
        <time>2013-04-27T11:10:42Z</time>
      </trkpt>
      <trkpt lat="60.0163846" lon="17.5857873">
        <ele>29.9381</ele>
        <time>2013-04-27T11:10:43Z</time>
      </trkpt>
      <trkpt lat="60.0164337" lon="17.5857515">
        <ele>29.9381</ele>
        <time>2013-04-27T11:10:44Z</time>
      </trkpt>
      <trkpt lat="60.0164794" lon="17.58571">
        <ele>29.9381</ele>
        <time>2013-04-27T11:10:45Z</time>
      </trkpt>
      <trkpt lat="60.0165263" lon="17.5856694">
        <ele>29.9381</ele>
        <time>2013-04-27T11:10:46Z</time>
      </trkpt>
      <trkpt lat="60.0165731" lon="17.5856255">
        <ele>29.9381</ele>
        <time>2013-04-27T11:10:47Z</time>
      </trkpt>
      <trkpt lat="60.0166209" lon="17.5855821">
        <ele>29.9381</ele>
        <time>2013-04-27T11:10:48Z</time>
      </trkpt>
      <trkpt lat="60.0166689" lon="17.5855379">
        <ele>29.9381</ele>
        <time>2013-04-27T11:10:49Z</time>
      </trkpt>
      <trkpt lat="60.0167156" lon="17.5854928">
        <ele>29.9381</ele>
        <time>2013-04-27T11:10:50Z</time>
      </trkpt>
      <trkpt lat="60.016762" lon="17.5854473">
        <ele>29.9381</ele>
        <time>2013-04-27T11:10:51Z</time>
      </trkpt>
      <trkpt lat="60.0168087" lon="17.5854002">
        <ele>29.9381</ele>
        <time>2013-04-27T11:10:52Z</time>
      </trkpt>
      <trkpt lat="60.0168549" lon="17.5853503">
        <ele>29.9381</ele>
        <time>2013-04-27T11:10:53Z</time>
      </trkpt>
      <trkpt lat="60.0169009" lon="17.5852992">
        <ele>29.9381</ele>
        <time>2013-04-27T11:10:54Z</time>
      </trkpt>
      <trkpt lat="60.0169471" lon="17.5852477">
        <ele>29.9381</ele>
        <time>2013-04-27T11:10:55Z</time>
      </trkpt>
      <trkpt lat="60.0169941" lon="17.5851952">
        <ele>29.9381</ele>
        <time>2013-04-27T11:10:56Z</time>
      </trkpt>
      <trkpt lat="60.01704" lon="17.5851402">
        <ele>29.9381</ele>
        <time>2013-04-27T11:10:57Z</time>
      </trkpt>
      <trkpt lat="60.0170849" lon="17.5850847">
        <ele>29.4575</ele>
        <time>2013-04-27T11:10:58Z</time>
      </trkpt>
      <trkpt lat="60.0171299" lon="17.5850276">
        <ele>29.9381</ele>
        <time>2013-04-27T11:10:59Z</time>
      </trkpt>
      <trkpt lat="60.0171748" lon="17.5849676">
        <ele>29.9381</ele>
        <time>2013-04-27T11:11:00Z</time>
      </trkpt>
      <trkpt lat="60.0172206" lon="17.584905">
        <ele>29.9381</ele>
        <time>2013-04-27T11:11:01Z</time>
      </trkpt>
      <trkpt lat="60.0172674" lon="17.5848419">
        <ele>29.9381</ele>
        <time>2013-04-27T11:11:02Z</time>
      </trkpt>
      <trkpt lat="60.0173142" lon="17.5847792">
        <ele>29.9381</ele>
        <time>2013-04-27T11:11:03Z</time>
      </trkpt>
      <trkpt lat="60.0173595" lon="17.5847149">
        <ele>29.9381</ele>
        <time>2013-04-27T11:11:04Z</time>
      </trkpt>
      <trkpt lat="60.0174046" lon="17.5846507">
        <ele>29.9381</ele>
        <time>2013-04-27T11:11:05Z</time>
      </trkpt>
      <trkpt lat="60.0174504" lon="17.5845844">
        <ele>29.9381</ele>
        <time>2013-04-27T11:11:06Z</time>
      </trkpt>
      <trkpt lat="60.0174961" lon="17.5845127">
        <ele>29.4575</ele>
        <time>2013-04-27T11:11:07Z</time>
      </trkpt>
      <trkpt lat="60.0175418" lon="17.5844389">
        <ele>29.4575</ele>
        <time>2013-04-27T11:11:08Z</time>
      </trkpt>
      <trkpt lat="60.0175878" lon="17.584365">
        <ele>29.4575</ele>
        <time>2013-04-27T11:11:09Z</time>
      </trkpt>
      <trkpt lat="60.0176326" lon="17.5842865">
        <ele>29.4575</ele>
        <time>2013-04-27T11:11:10Z</time>
      </trkpt>
      <trkpt lat="60.0176775" lon="17.5842046">
        <ele>29.4575</ele>
        <time>2013-04-27T11:11:11Z</time>
      </trkpt>
      <trkpt lat="60.0177221" lon="17.5841254">
        <ele>29.4575</ele>
        <time>2013-04-27T11:11:12Z</time>
      </trkpt>
      <trkpt lat="60.0177664" lon="17.5840471">
        <ele>29.4575</ele>
        <time>2013-04-27T11:11:13Z</time>
      </trkpt>
      <trkpt lat="60.0178102" lon="17.5839674">
        <ele>29.4575</ele>
        <time>2013-04-27T11:11:14Z</time>
      </trkpt>
      <trkpt lat="60.0178543" lon="17.5838859">
        <ele>29.4575</ele>
        <time>2013-04-27T11:11:15Z</time>
      </trkpt>
      <trkpt lat="60.0178978" lon="17.5837994">
        <ele>29.4575</ele>
        <time>2013-04-27T11:11:16Z</time>
      </trkpt>
      <trkpt lat="60.01794" lon="17.5837104">
        <ele>29.4575</ele>
        <time>2013-04-27T11:11:17Z</time>
      </trkpt>
      <trkpt lat="60.0179821" lon="17.5836246">
        <ele>29.4575</ele>
        <time>2013-04-27T11:11:18Z</time>
      </trkpt>
      <trkpt lat="60.0180231" lon="17.583538">
        <ele>29.4575</ele>
        <time>2013-04-27T11:11:19Z</time>
      </trkpt>
      <trkpt lat="60.0180632" lon="17.5834498">
        <ele>29.4575</ele>
        <time>2013-04-27T11:11:20Z</time>
      </trkpt>
      <trkpt lat="60.0181019" lon="17.5833619">
        <ele>30.4188</ele>
        <time>2013-04-27T11:11:21Z</time>
      </trkpt>
      <trkpt lat="60.0181395" lon="17.5832722">
        <ele>30.8995</ele>
        <time>2013-04-27T11:11:22Z</time>
      </trkpt>
      <trkpt lat="60.0181772" lon="17.5831808">
        <ele>31.3801</ele>
        <time>2013-04-27T11:11:23Z</time>
      </trkpt>
      <trkpt lat="60.0182166" lon="17.5830899">
        <ele>31.8607</ele>
        <time>2013-04-27T11:11:24Z</time>
      </trkpt>
      <trkpt lat="60.0182572" lon="17.5830057">
        <ele>31.8607</ele>
        <time>2013-04-27T11:11:25Z</time>
      </trkpt>
      <trkpt lat="60.0182918" lon="17.5829143">
        <ele>31.8607</ele>
        <time>2013-04-27T11:11:26Z</time>
      </trkpt>
      <trkpt lat="60.018325" lon="17.5828154">
        <ele>31.8607</ele>
        <time>2013-04-27T11:11:27Z</time>
      </trkpt>
      <trkpt lat="60.0183604" lon="17.5827133">
        <ele>32.8223</ele>
        <time>2013-04-27T11:11:28Z</time>
      </trkpt>
      <trkpt lat="60.0183969" lon="17.5826092">
        <ele>33.3029</ele>
        <time>2013-04-27T11:11:29Z</time>
      </trkpt>
      <trkpt lat="60.0184342" lon="17.582505">
        <ele>34.2642</ele>
        <time>2013-04-27T11:11:30Z</time>
      </trkpt>
      <trkpt lat="60.0184692" lon="17.5823994">
        <ele>34.7449</ele>
        <time>2013-04-27T11:11:31Z</time>
      </trkpt>
      <trkpt lat="60.0185041" lon="17.5822963">
        <ele>35.2255</ele>
        <time>2013-04-27T11:11:32Z</time>
      </trkpt>
      <trkpt lat="60.0185379" lon="17.5821932">
        <ele>35.2255</ele>
        <time>2013-04-27T11:11:33Z</time>
      </trkpt>
      <trkpt lat="60.0185685" lon="17.5820865">
        <ele>36.1868</ele>
        <time>2013-04-27T11:11:34Z</time>
      </trkpt>
      <trkpt lat="60.0185992" lon="17.5819751">
        <ele>37.1481</ele>
        <time>2013-04-27T11:11:35Z</time>
      </trkpt>
      <trkpt lat="60.0186297" lon="17.5818648">
        <ele>37.6287</ele>
        <time>2013-04-27T11:11:36Z</time>
      </trkpt>
      <trkpt lat="60.0186585" lon="17.5817525">
        <ele>37.6287</ele>
        <time>2013-04-27T11:11:37Z</time>
      </trkpt>
      <trkpt lat="60.0186875" lon="17.5816387">
        <ele>39.0707</ele>
        <time>2013-04-27T11:11:38Z</time>
      </trkpt>
      <trkpt lat="60.0187156" lon="17.581528">
        <ele>38.1094</ele>
        <time>2013-04-27T11:11:39Z</time>
      </trkpt>
      <trkpt lat="60.0187434" lon="17.5814188">
        <ele>38.1094</ele>
        <time>2013-04-27T11:11:40Z</time>
      </trkpt>
      <trkpt lat="60.0187706" lon="17.5813126">
        <ele>38.1094</ele>
        <time>2013-04-27T11:11:41Z</time>
      </trkpt>
      <trkpt lat="60.0187975" lon="17.5812073">
        <ele>37.6287</ele>
        <time>2013-04-27T11:11:42Z</time>
      </trkpt>
      <trkpt lat="60.0188247" lon="17.5811047">
        <ele>37.6287</ele>
        <time>2013-04-27T11:11:43Z</time>
      </trkpt>
      <trkpt lat="60.0188493" lon="17.5810024">
        <ele>38.1094</ele>
        <time>2013-04-27T11:11:44Z</time>
      </trkpt>
      <trkpt lat="60.0188715" lon="17.5808969">
        <ele>37.1481</ele>
        <time>2013-04-27T11:11:45Z</time>
      </trkpt>
      <trkpt lat="60.0188927" lon="17.5807913">
        <ele>36.1868</ele>
        <time>2013-04-27T11:11:46Z</time>
      </trkpt>
      <trkpt lat="60.018914" lon="17.5806861">
        <ele>35.7061</ele>
        <time>2013-04-27T11:11:47Z</time>
      </trkpt>
      <trkpt lat="60.0189378" lon="17.5805833">
        <ele>34.7449</ele>
        <time>2013-04-27T11:11:48Z</time>
      </trkpt>
      <trkpt lat="60.0189584" lon="17.5804801">
        <ele>33.7834</ele>
        <time>2013-04-27T11:11:49Z</time>
      </trkpt>
      <trkpt lat="60.0189781" lon="17.580375">
        <ele>32.8223</ele>
        <time>2013-04-27T11:11:50Z</time>
      </trkpt>
      <trkpt lat="60.0189978" lon="17.5802681">
        <ele>31.8607</ele>
        <time>2013-04-27T11:11:51Z</time>
      </trkpt>
      <trkpt lat="60.0190181" lon="17.5801594">
        <ele>29.9381</ele>
        <time>2013-04-27T11:11:52Z</time>
      </trkpt>
      <trkpt lat="60.0190368" lon="17.5800455">
        <ele>28.9769</ele>
        <time>2013-04-27T11:11:53Z</time>
      </trkpt>
      <trkpt lat="60.0190552" lon="17.5799387">
        <ele>27.5349</ele>
        <time>2013-04-27T11:11:54Z</time>
      </trkpt>
      <trkpt lat="60.0190757" lon="17.5798311">
        <ele>26.5736</ele>
        <time>2013-04-27T11:11:55Z</time>
      </trkpt>
      <trkpt lat="60.019104" lon="17.5797368">
        <ele>25.6123</ele>
        <time>2013-04-27T11:11:56Z</time>
      </trkpt>
      <trkpt lat="60.0191409" lon="17.5796663">
        <ele>25.1317</ele>
        <time>2013-04-27T11:11:57Z</time>
      </trkpt>
      <trkpt lat="60.0191853" lon="17.579618">
        <ele>25.1317</ele>
        <time>2013-04-27T11:11:58Z</time>
      </trkpt>
      <trkpt lat="60.0192331" lon="17.579581">
        <ele>24.651</ele>
        <time>2013-04-27T11:11:59Z</time>
      </trkpt>
      <trkpt lat="60.0192828" lon="17.5795482">
        <ele>24.651</ele>
        <time>2013-04-27T11:12:00Z</time>
      </trkpt>
      <trkpt lat="60.0193331" lon="17.5795151">
        <ele>25.1317</ele>
        <time>2013-04-27T11:12:01Z</time>
      </trkpt>
      <trkpt lat="60.0193848" lon="17.5794765">
        <ele>25.1317</ele>
        <time>2013-04-27T11:12:02Z</time>
      </trkpt>
      <trkpt lat="60.0194397" lon="17.5794363">
        <ele>25.1317</ele>
        <time>2013-04-27T11:12:03Z</time>
      </trkpt>
      <trkpt lat="60.0194927" lon="17.579389">
        <ele>25.1317</ele>
        <time>2013-04-27T11:12:04Z</time>
      </trkpt>
      <trkpt lat="60.0195489" lon="17.5793398">
        <ele>25.1317</ele>
        <time>2013-04-27T11:12:05Z</time>
      </trkpt>
      <trkpt lat="60.0196044" lon="17.5792783">
        <ele>25.1317</ele>
        <time>2013-04-27T11:12:06Z</time>
      </trkpt>
      <trkpt lat="60.0196587" lon="17.579216">
        <ele>23.6896</ele>
        <time>2013-04-27T11:12:07Z</time>
      </trkpt>
      <trkpt lat="60.0197117" lon="17.5791513">
        <ele>22.7283</ele>
        <time>2013-04-27T11:12:08Z</time>
      </trkpt>
      <trkpt lat="60.0197609" lon="17.5790856">
        <ele>20.325</ele>
        <time>2013-04-27T11:12:09Z</time>
      </trkpt>
      <trkpt lat="60.0198106" lon="17.57903">
        <ele>18.4023</ele>
        <time>2013-04-27T11:12:10Z</time>
      </trkpt>
      <trkpt lat="60.019864" lon="17.5789811">
        <ele>16.4797</ele>
        <time>2013-04-27T11:12:11Z</time>
      </trkpt>
      <trkpt lat="60.0199125" lon="17.578922">
        <ele>13.5958</ele>
        <time>2013-04-27T11:12:12Z</time>
      </trkpt>
      <trkpt lat="60.0199552" lon="17.5788645">
        <ele>10.7118</ele>
        <time>2013-04-27T11:12:13Z</time>
      </trkpt>
      <trkpt lat="60.019988" lon="17.5787995">
        <ele>8.30859</ele>
        <time>2013-04-27T11:12:14Z</time>
      </trkpt>
      <trkpt lat="60.0200208" lon="17.5787363">
        <ele>4.46326</ele>
        <time>2013-04-27T11:12:15Z</time>
      </trkpt>
      <trkpt lat="60.0200506" lon="17.578665">
        <ele>0.618042</ele>
        <time>2013-04-27T11:12:16Z</time>
      </trkpt>
      <trkpt lat="60.0200686" lon="17.5785789">
        <ele>0</ele>
        <time>2013-04-27T11:12:17Z</time>
      </trkpt>
      <trkpt lat="60.0200884" lon="17.5784878">
        <ele>0</ele>
        <time>2013-04-27T11:12:18Z</time>
      </trkpt>
      <trkpt lat="60.0201087" lon="17.5783853">
        <ele>0</ele>
        <time>2013-04-27T11:12:19Z</time>
      </trkpt>
      <trkpt lat="60.0201241" lon="17.578276">
        <ele>0</ele>
        <time>2013-04-27T11:12:20Z</time>
      </trkpt>
      <trkpt lat="60.0201339" lon="17.5781635">
        <ele>0</ele>
        <time>2013-04-27T11:12:21Z</time>
      </trkpt>
      <trkpt lat="60.0201438" lon="17.5780579">
        <ele>0</ele>
        <time>2013-04-27T11:12:22Z</time>
      </trkpt>
      <trkpt lat="60.0201594" lon="17.5779586">
        <ele>0</ele>
        <time>2013-04-27T11:12:23Z</time>
      </trkpt>
      <trkpt lat="60.0201689" lon="17.5778552">
        <ele>0</ele>
        <time>2013-04-27T11:12:24Z</time>
      </trkpt>
      <trkpt lat="60.0201767" lon="17.5777352">
        <ele>0</ele>
        <time>2013-04-27T11:12:25Z</time>
      </trkpt>
      <trkpt lat="60.0201835" lon="17.5776236">
        <ele>0</ele>
        <time>2013-04-27T11:12:26Z</time>
      </trkpt>
      <trkpt lat="60.0201878" lon="17.577506">
        <ele>0</ele>
        <time>2013-04-27T11:12:27Z</time>
      </trkpt>
      <trkpt lat="60.0202001" lon="17.5773833">
        <ele>0</ele>
        <time>2013-04-27T11:12:28Z</time>
      </trkpt>
      <trkpt lat="60.0202084" lon="17.5772527">
        <ele>0</ele>
        <time>2013-04-27T11:12:29Z</time>
      </trkpt>
      <trkpt lat="60.0202225" lon="17.5771303">
        <ele>0</ele>
        <time>2013-04-27T11:12:30Z</time>
      </trkpt>
      <trkpt lat="60.0202395" lon="17.577009">
        <ele>0</ele>
        <time>2013-04-27T11:12:31Z</time>
      </trkpt>
      <trkpt lat="60.0202603" lon="17.576887">
        <ele>0</ele>
        <time>2013-04-27T11:12:32Z</time>
      </trkpt>
      <trkpt lat="60.0202843" lon="17.5767075">
        <ele>0</ele>
        <time>2013-04-27T11:12:33Z</time>
      </trkpt>
      <trkpt lat="60.0203241" lon="17.5765888">
        <ele>0</ele>
        <time>2013-04-27T11:12:34Z</time>
      </trkpt>
      <trkpt lat="60.0203603" lon="17.5764814">
        <ele>0</ele>
        <time>2013-04-27T11:12:35Z</time>
      </trkpt>
      <trkpt lat="60.0203883" lon="17.5763759">
        <ele>0</ele>
        <time>2013-04-27T11:12:36Z</time>
      </trkpt>
      <trkpt lat="60.0204245" lon="17.5762696">
        <ele>0</ele>
        <time>2013-04-27T11:12:37Z</time>
      </trkpt>
      <trkpt lat="60.0204607" lon="17.5761426">
        <ele>0</ele>
        <time>2013-04-27T11:12:38Z</time>
      </trkpt>
      <trkpt lat="60.0205048" lon="17.5760403">
        <ele>0</ele>
        <time>2013-04-27T11:12:39Z</time>
      </trkpt>
      <trkpt lat="60.0205483" lon="17.5759538">
        <ele>0</ele>
        <time>2013-04-27T11:12:40Z</time>
      </trkpt>
      <trkpt lat="60.0205953" lon="17.5758952">
        <ele>0</ele>
        <time>2013-04-27T11:12:41Z</time>
      </trkpt>
      <trkpt lat="60.020639" lon="17.5758371">
        <ele>0</ele>
        <time>2013-04-27T11:12:42Z</time>
      </trkpt>
      <trkpt lat="60.0206864" lon="17.5757686">
        <ele>0</ele>
        <time>2013-04-27T11:12:43Z</time>
      </trkpt>
      <trkpt lat="60.0207322" lon="17.5756975">
        <ele>0</ele>
        <time>2013-04-27T11:12:44Z</time>
      </trkpt>
      <trkpt lat="60.0207835" lon="17.5756357">
        <ele>0</ele>
        <time>2013-04-27T11:12:45Z</time>
      </trkpt>
      <trkpt lat="60.0208327" lon="17.5755735">
        <ele>0</ele>
        <time>2013-04-27T11:12:46Z</time>
      </trkpt>
      <trkpt lat="60.0208793" lon="17.5755234">
        <ele>0</ele>
        <time>2013-04-27T11:12:47Z</time>
      </trkpt>
      <trkpt lat="60.0209283" lon="17.5754767">
        <ele>0.137451</ele>
        <time>2013-04-27T11:12:48Z</time>
      </trkpt>
      <trkpt lat="60.0209871" lon="17.5754376">
        <ele>2.06006</ele>
        <time>2013-04-27T11:12:49Z</time>
      </trkpt>
      <trkpt lat="60.0210198" lon="17.5752967">
        <ele>8.30859</ele>
        <time>2013-04-27T11:12:50Z</time>
      </trkpt>
      <trkpt lat="60.021061" lon="17.5751115">
        <ele>11.6732</ele>
        <time>2013-04-27T11:12:51Z</time>
      </trkpt>
      <trkpt lat="60.0211135" lon="17.5750686">
        <ele>14.557</ele>
        <time>2013-04-27T11:12:52Z</time>
      </trkpt>
      <trkpt lat="60.0211644" lon="17.575027">
        <ele>16.9604</ele>
        <time>2013-04-27T11:12:53Z</time>
      </trkpt>
      <trkpt lat="60.0212193" lon="17.5749995">
        <ele>19.8444</ele>
        <time>2013-04-27T11:12:54Z</time>
      </trkpt>
      <trkpt lat="60.0212823" lon="17.5749947">
        <ele>21.767</ele>
        <time>2013-04-27T11:12:55Z</time>
      </trkpt>
      <trkpt lat="60.0213331" lon="17.5749792">
        <ele>23.209</ele>
        <time>2013-04-27T11:12:56Z</time>
      </trkpt>
      <trkpt lat="60.0213853" lon="17.5749847">
        <ele>24.651</ele>
        <time>2013-04-27T11:12:57Z</time>
      </trkpt>
      <trkpt lat="60.0214362" lon="17.5749741">
        <ele>24.651</ele>
        <time>2013-04-27T11:12:58Z</time>
      </trkpt>
      <trkpt lat="60.021488" lon="17.5749544">
        <ele>25.6123</ele>
        <time>2013-04-27T11:12:59Z</time>
      </trkpt>
      <trkpt lat="60.0215472" lon="17.5749229">
        <ele>26.5736</ele>
        <time>2013-04-27T11:13:00Z</time>
      </trkpt>
      <trkpt lat="60.0216133" lon="17.5748777">
        <ele>29.4575</ele>
        <time>2013-04-27T11:13:01Z</time>
      </trkpt>
      <trkpt lat="60.0216834" lon="17.5748328">
        <ele>32.3416</ele>
        <time>2013-04-27T11:13:02Z</time>
      </trkpt>
      <trkpt lat="60.0217418" lon="17.5747927">
        <ele>32.3416</ele>
        <time>2013-04-27T11:13:03Z</time>
      </trkpt>
      <trkpt lat="60.0217973" lon="17.5747478">
        <ele>33.7834</ele>
        <time>2013-04-27T11:13:04Z</time>
      </trkpt>
      <trkpt lat="60.0218511" lon="17.5747132">
        <ele>34.2642</ele>
        <time>2013-04-27T11:13:05Z</time>
      </trkpt>
      <trkpt lat="60.021897" lon="17.5746899">
        <ele>33.7834</ele>
        <time>2013-04-27T11:13:06Z</time>
      </trkpt>
      <trkpt lat="60.0219411" lon="17.5746759">
        <ele>33.3029</ele>
        <time>2013-04-27T11:13:07Z</time>
      </trkpt>
      <trkpt lat="60.0219815" lon="17.574671">
        <ele>34.2642</ele>
        <time>2013-04-27T11:13:08Z</time>
      </trkpt>
      <trkpt lat="60.0220132" lon="17.5746629">
        <ele>33.7834</ele>
        <time>2013-04-27T11:13:09Z</time>
      </trkpt>
      <trkpt lat="60.0220343" lon="17.5746506">
        <ele>31.8607</ele>
        <time>2013-04-27T11:13:10Z</time>
      </trkpt>
      <trkpt lat="60.0220674" lon="17.5746329">
        <ele>30.4188</ele>
        <time>2013-04-27T11:13:11Z</time>
      </trkpt>
      <trkpt lat="60.0221029" lon="17.5746095">
        <ele>28.4962</ele>
        <time>2013-04-27T11:13:12Z</time>
      </trkpt>
      <trkpt lat="60.0221439" lon="17.5745842">
        <ele>28.0155</ele>
        <time>2013-04-27T11:13:13Z</time>
      </trkpt>
      <trkpt lat="60.022178" lon="17.5745615">
        <ele>28.4962</ele>
        <time>2013-04-27T11:13:14Z</time>
      </trkpt>
      <trkpt lat="60.0222112" lon="17.5745401">
        <ele>28.0155</ele>
        <time>2013-04-27T11:13:15Z</time>
      </trkpt>
      <trkpt lat="60.0222499" lon="17.5745234">
        <ele>26.5736</ele>
        <time>2013-04-27T11:13:16Z</time>
      </trkpt>
      <trkpt lat="60.0222938" lon="17.5745081">
        <ele>27.0543</ele>
        <time>2013-04-27T11:13:17Z</time>
      </trkpt>
      <trkpt lat="60.0223446" lon="17.5744883">
        <ele>28.4962</ele>
        <time>2013-04-27T11:13:18Z</time>
      </trkpt>
      <trkpt lat="60.0224" lon="17.5744701">
        <ele>30.4188</ele>
        <time>2013-04-27T11:13:19Z</time>
      </trkpt>
      <trkpt lat="60.022466" lon="17.5744663">
        <ele>29.4575</ele>
        <time>2013-04-27T11:13:20Z</time>
      </trkpt>
      <trkpt lat="60.0225114" lon="17.574451">
        <ele>29.4575</ele>
        <time>2013-04-27T11:13:21Z</time>
      </trkpt>
      <trkpt lat="60.0225675" lon="17.5744451">
        <ele>28.9769</ele>
        <time>2013-04-27T11:13:22Z</time>
      </trkpt>
      <trkpt lat="60.0226145" lon="17.574427">
        <ele>32.8223</ele>
        <time>2013-04-27T11:13:23Z</time>
      </trkpt>
      <trkpt lat="60.0226702" lon="17.574419">
        <ele>31.8607</ele>
        <time>2013-04-27T11:13:24Z</time>
      </trkpt>
      <trkpt lat="60.0227203" lon="17.5744184">
        <ele>30.8995</ele>
        <time>2013-04-27T11:13:25Z</time>
      </trkpt>
      <trkpt lat="60.0227968" lon="17.5743857">
        <ele>33.7834</ele>
        <time>2013-04-27T11:13:26Z</time>
      </trkpt>
      <trkpt lat="60.0228611" lon="17.5743696">
        <ele>34.2642</ele>
        <time>2013-04-27T11:13:27Z</time>
      </trkpt>
      <trkpt lat="60.022926" lon="17.5743591">
        <ele>35.2255</ele>
        <time>2013-04-27T11:13:28Z</time>
      </trkpt>
      <trkpt lat="60.0229886" lon="17.5743552">
        <ele>36.6675</ele>
        <time>2013-04-27T11:13:29Z</time>
      </trkpt>
      <trkpt lat="60.0230594" lon="17.5743651">
        <ele>35.7061</ele>
        <time>2013-04-27T11:13:30Z</time>
      </trkpt>
      <trkpt lat="60.0231337" lon="17.5743695">
        <ele>36.1868</ele>
        <time>2013-04-27T11:13:31Z</time>
      </trkpt>
      <trkpt lat="60.0232034" lon="17.5743863">
        <ele>35.7061</ele>
        <time>2013-04-27T11:13:32Z</time>
      </trkpt>
      <trkpt lat="60.0232667" lon="17.5744012">
        <ele>35.7061</ele>
        <time>2013-04-27T11:13:33Z</time>
      </trkpt>
      <trkpt lat="60.023326" lon="17.5744208">
        <ele>35.2255</ele>
        <time>2013-04-27T11:13:34Z</time>
      </trkpt>
      <trkpt lat="60.0233901" lon="17.5744408">
        <ele>34.7449</ele>
        <time>2013-04-27T11:13:35Z</time>
      </trkpt>
      <trkpt lat="60.0234472" lon="17.5744607">
        <ele>33.7834</ele>
        <time>2013-04-27T11:13:36Z</time>
      </trkpt>
      <trkpt lat="60.0235045" lon="17.574468">
        <ele>33.7834</ele>
        <time>2013-04-27T11:13:37Z</time>
      </trkpt>
      <trkpt lat="60.0235624" lon="17.5744786">
        <ele>34.2642</ele>
        <time>2013-04-27T11:13:38Z</time>
      </trkpt>
      <trkpt lat="60.0236258" lon="17.5744957">
        <ele>34.7449</ele>
        <time>2013-04-27T11:13:39Z</time>
      </trkpt>
      <trkpt lat="60.0236885" lon="17.5745151">
        <ele>35.2255</ele>
        <time>2013-04-27T11:13:40Z</time>
      </trkpt>
      <trkpt lat="60.0237481" lon="17.5745249">
        <ele>34.7449</ele>
        <time>2013-04-27T11:13:41Z</time>
      </trkpt>
      <trkpt lat="60.0238061" lon="17.5745298">
        <ele>35.7061</ele>
        <time>2013-04-27T11:13:42Z</time>
      </trkpt>
      <trkpt lat="60.0238653" lon="17.5745358">
        <ele>38.1094</ele>
        <time>2013-04-27T11:13:43Z</time>
      </trkpt>
      <trkpt lat="60.0239086" lon="17.5745257">
        <ele>37.1481</ele>
        <time>2013-04-27T11:13:44Z</time>
      </trkpt>
      <trkpt lat="60.0239454" lon="17.5745029">
        <ele>35.7061</ele>
        <time>2013-04-27T11:13:45Z</time>
      </trkpt>
      <trkpt lat="60.0239998" lon="17.5744819">
        <ele>35.7061</ele>
        <time>2013-04-27T11:13:46Z</time>
      </trkpt>
      <trkpt lat="60.0240584" lon="17.5744573">
        <ele>35.7061</ele>
        <time>2013-04-27T11:13:47Z</time>
      </trkpt>
      <trkpt lat="60.0241157" lon="17.5744333">
        <ele>34.7449</ele>
        <time>2013-04-27T11:13:48Z</time>
      </trkpt>
      <trkpt lat="60.0241745" lon="17.5744013">
        <ele>34.7449</ele>
        <time>2013-04-27T11:13:49Z</time>
      </trkpt>
      <trkpt lat="60.0242312" lon="17.57437">
        <ele>36.1868</ele>
        <time>2013-04-27T11:13:50Z</time>
      </trkpt>
      <trkpt lat="60.0242822" lon="17.574332">
        <ele>35.7061</ele>
        <time>2013-04-27T11:13:51Z</time>
      </trkpt>
      <trkpt lat="60.0243348" lon="17.5742946">
        <ele>36.6675</ele>
        <time>2013-04-27T11:13:52Z</time>
      </trkpt>
      <trkpt lat="60.024382" lon="17.5742503">
        <ele>35.2255</ele>
        <time>2013-04-27T11:13:53Z</time>
      </trkpt>
      <trkpt lat="60.0244329" lon="17.5742046">
        <ele>34.2642</ele>
        <time>2013-04-27T11:13:54Z</time>
      </trkpt>
      <trkpt lat="60.0244852" lon="17.5741537">
        <ele>34.2642</ele>
        <time>2013-04-27T11:13:55Z</time>
      </trkpt>
      <trkpt lat="60.0245378" lon="17.5741013">
        <ele>33.3029</ele>
        <time>2013-04-27T11:13:56Z</time>
      </trkpt>
      <trkpt lat="60.0245929" lon="17.5740485">
        <ele>32.8223</ele>
        <time>2013-04-27T11:13:57Z</time>
      </trkpt>
      <trkpt lat="60.0246452" lon="17.5739914">
        <ele>31.8607</ele>
        <time>2013-04-27T11:13:58Z</time>
      </trkpt>
      <trkpt lat="60.0246939" lon="17.5739434">
        <ele>31.8607</ele>
        <time>2013-04-27T11:13:59Z</time>
      </trkpt>
      <trkpt lat="60.0247476" lon="17.5739087">
        <ele>33.3029</ele>
        <time>2013-04-27T11:14:00Z</time>
      </trkpt>
      <trkpt lat="60.0248048" lon="17.5738706">
        <ele>34.2642</ele>
        <time>2013-04-27T11:14:01Z</time>
      </trkpt>
      <trkpt lat="60.0248561" lon="17.5738207">
        <ele>34.7449</ele>
        <time>2013-04-27T11:14:02Z</time>
      </trkpt>
      <trkpt lat="60.0249056" lon="17.5737741">
        <ele>34.7449</ele>
        <time>2013-04-27T11:14:03Z</time>
      </trkpt>
      <trkpt lat="60.0249548" lon="17.5737399">
        <ele>35.2255</ele>
        <time>2013-04-27T11:14:04Z</time>
      </trkpt>
      <trkpt lat="60.0250067" lon="17.5737139">
        <ele>35.7061</ele>
        <time>2013-04-27T11:14:05Z</time>
      </trkpt>
      <trkpt lat="60.0250577" lon="17.573681">
        <ele>35.7061</ele>
        <time>2013-04-27T11:14:06Z</time>
      </trkpt>
      <trkpt lat="60.0251162" lon="17.5736406">
        <ele>36.1868</ele>
        <time>2013-04-27T11:14:07Z</time>
      </trkpt>
      <trkpt lat="60.0251732" lon="17.5735945">
        <ele>34.2642</ele>
        <time>2013-04-27T11:14:08Z</time>
      </trkpt>
      <trkpt lat="60.0252296" lon="17.5735401">
        <ele>33.3029</ele>
        <time>2013-04-27T11:14:09Z</time>
      </trkpt>
      <trkpt lat="60.0252859" lon="17.5734767">
        <ele>32.3416</ele>
        <time>2013-04-27T11:14:10Z</time>
      </trkpt>
      <trkpt lat="60.0253429" lon="17.5734092">
        <ele>30.4188</ele>
        <time>2013-04-27T11:14:11Z</time>
      </trkpt>
      <trkpt lat="60.0253969" lon="17.5733331">
        <ele>28.4962</ele>
        <time>2013-04-27T11:14:12Z</time>
      </trkpt>
      <trkpt lat="60.0254431" lon="17.5732485">
        <ele>25.6123</ele>
        <time>2013-04-27T11:14:13Z</time>
      </trkpt>
      <trkpt lat="60.0254952" lon="17.5730042">
        <ele>24.1703</ele>
        <time>2013-04-27T11:14:14Z</time>
      </trkpt>
      <trkpt lat="60.0255373" lon="17.5728862">
        <ele>22.7283</ele>
        <time>2013-04-27T11:14:15Z</time>
      </trkpt>
      <trkpt lat="60.0255606" lon="17.5727447">
        <ele>20.8057</ele>
        <time>2013-04-27T11:14:16Z</time>
      </trkpt>
      <trkpt lat="60.0255746" lon="17.5726054">
        <ele>19.3638</ele>
        <time>2013-04-27T11:14:17Z</time>
      </trkpt>
      <trkpt lat="60.0255847" lon="17.572483">
        <ele>16.9604</ele>
        <time>2013-04-27T11:14:18Z</time>
      </trkpt>
      <trkpt lat="60.0255875" lon="17.5723464">
        <ele>16.4797</ele>
        <time>2013-04-27T11:14:19Z</time>
      </trkpt>
      <trkpt lat="60.0255814" lon="17.572163">
        <ele>17.9218</ele>
        <time>2013-04-27T11:14:20Z</time>
      </trkpt>
      <trkpt lat="60.025589" lon="17.5720364">
        <ele>16.4797</ele>
        <time>2013-04-27T11:14:21Z</time>
      </trkpt>
      <trkpt lat="60.0256036" lon="17.5719122">
        <ele>16.4797</ele>
        <time>2013-04-27T11:14:22Z</time>
      </trkpt>
      <trkpt lat="60.0256092" lon="17.571765">
        <ele>17.9218</ele>
        <time>2013-04-27T11:14:23Z</time>
      </trkpt>
      <trkpt lat="60.025622" lon="17.5716268">
        <ele>18.8831</ele>
        <time>2013-04-27T11:14:24Z</time>
      </trkpt>
      <trkpt lat="60.0256358" lon="17.5715114">
        <ele>18.8831</ele>
        <time>2013-04-27T11:14:25Z</time>
      </trkpt>
      <trkpt lat="60.0256445" lon="17.5714042">
        <ele>18.4023</ele>
        <time>2013-04-27T11:14:26Z</time>
      </trkpt>
      <trkpt lat="60.0256567" lon="17.5712932">
        <ele>18.4023</ele>
        <time>2013-04-27T11:14:27Z</time>
      </trkpt>
      <trkpt lat="60.0256685" lon="17.5711793">
        <ele>17.9218</ele>
        <time>2013-04-27T11:14:28Z</time>
      </trkpt>
      <trkpt lat="60.0256776" lon="17.5710366">
        <ele>17.9218</ele>
        <time>2013-04-27T11:14:29Z</time>
      </trkpt>
      <trkpt lat="60.0256936" lon="17.5708506">
        <ele>18.4023</ele>
        <time>2013-04-27T11:14:30Z</time>
      </trkpt>
      <trkpt lat="60.0256873" lon="17.5706835">
        <ele>17.4412</ele>
        <time>2013-04-27T11:14:31Z</time>
      </trkpt>
      <trkpt lat="60.025669" lon="17.5705068">
        <ele>15.999</ele>
        <time>2013-04-27T11:14:32Z</time>
      </trkpt>
      <trkpt lat="60.025635" lon="17.5703213">
        <ele>15.0377</ele>
        <time>2013-04-27T11:14:33Z</time>
      </trkpt>
      <trkpt lat="60.0256042" lon="17.5701371">
        <ele>14.557</ele>
        <time>2013-04-27T11:14:34Z</time>
      </trkpt>
      <trkpt lat="60.0255548" lon="17.5699758">
        <ele>13.5958</ele>
        <time>2013-04-27T11:14:35Z</time>
      </trkpt>
      <trkpt lat="60.0254983" lon="17.5698506">
        <ele>14.0764</ele>
        <time>2013-04-27T11:14:36Z</time>
      </trkpt>
      <trkpt lat="60.0254393" lon="17.5697236">
        <ele>14.557</ele>
        <time>2013-04-27T11:14:37Z</time>
      </trkpt>
      <trkpt lat="60.0253818" lon="17.5696121">
        <ele>14.557</ele>
        <time>2013-04-27T11:14:38Z</time>
      </trkpt>
      <trkpt lat="60.0253244" lon="17.5695043">
        <ele>14.557</ele>
        <time>2013-04-27T11:14:39Z</time>
      </trkpt>
      <trkpt lat="60.0252696" lon="17.5693983">
        <ele>15.0377</ele>
        <time>2013-04-27T11:14:40Z</time>
      </trkpt>
      <trkpt lat="60.0252146" lon="17.5692839">
        <ele>15.5184</ele>
        <time>2013-04-27T11:14:41Z</time>
      </trkpt>
      <trkpt lat="60.0251628" lon="17.5691655">
        <ele>15.999</ele>
        <time>2013-04-27T11:14:42Z</time>
      </trkpt>
      <trkpt lat="60.0251134" lon="17.569047">
        <ele>16.9604</ele>
        <time>2013-04-27T11:14:43Z</time>
      </trkpt>
      <trkpt lat="60.025069" lon="17.5689275">
        <ele>17.9218</ele>
        <time>2013-04-27T11:14:44Z</time>
      </trkpt>
      <trkpt lat="60.0250289" lon="17.5688088">
        <ele>18.8831</ele>
        <time>2013-04-27T11:14:45Z</time>
      </trkpt>
      <trkpt lat="60.025002" lon="17.5686902">
        <ele>19.8444</ele>
        <time>2013-04-27T11:14:46Z</time>
      </trkpt>
      <trkpt lat="60.0249694" lon="17.5685875">
        <ele>20.325</ele>
        <time>2013-04-27T11:14:47Z</time>
      </trkpt>
      <trkpt lat="60.0249447" lon="17.5684681">
        <ele>21.2864</ele>
        <time>2013-04-27T11:14:48Z</time>
      </trkpt>
      <trkpt lat="60.0249218" lon="17.5683452">
        <ele>22.2476</ele>
        <time>2013-04-27T11:14:49Z</time>
      </trkpt>
      <trkpt lat="60.0249032" lon="17.5682246">
        <ele>23.209</ele>
        <time>2013-04-27T11:14:50Z</time>
      </trkpt>
      <trkpt lat="60.0248825" lon="17.5681007">
        <ele>23.6896</ele>
        <time>2013-04-27T11:14:51Z</time>
      </trkpt>
      <trkpt lat="60.024864" lon="17.5679816">
        <ele>24.1703</ele>
        <time>2013-04-27T11:14:52Z</time>
      </trkpt>
      <trkpt lat="60.0248389" lon="17.5678596">
        <ele>25.1317</ele>
        <time>2013-04-27T11:14:53Z</time>
      </trkpt>
      <trkpt lat="60.024814" lon="17.5677369">
        <ele>25.6123</ele>
        <time>2013-04-27T11:14:54Z</time>
      </trkpt>
      <trkpt lat="60.0247919" lon="17.5676065">
        <ele>26.0929</ele>
        <time>2013-04-27T11:14:55Z</time>
      </trkpt>
      <trkpt lat="60.0247691" lon="17.5674878">
        <ele>27.0543</ele>
        <time>2013-04-27T11:14:56Z</time>
      </trkpt>
      <trkpt lat="60.0247467" lon="17.5673614">
        <ele>28.9769</ele>
        <time>2013-04-27T11:14:57Z</time>
      </trkpt>
      <trkpt lat="60.0247276" lon="17.5672449">
        <ele>30.8995</ele>
        <time>2013-04-27T11:14:58Z</time>
      </trkpt>
      <trkpt lat="60.0247028" lon="17.5671261">
        <ele>31.8607</ele>
        <time>2013-04-27T11:14:59Z</time>
      </trkpt>
      <trkpt lat="60.0246803" lon="17.5670072">
        <ele>34.2642</ele>
        <time>2013-04-27T11:15:00Z</time>
      </trkpt>
      <trkpt lat="60.0246589" lon="17.5668863">
        <ele>36.6675</ele>
        <time>2013-04-27T11:15:01Z</time>
      </trkpt>
      <trkpt lat="60.0246322" lon="17.5667726">
        <ele>38.1094</ele>
        <time>2013-04-27T11:15:02Z</time>
      </trkpt>
      <trkpt lat="60.0246104" lon="17.5666767">
        <ele>38.5901</ele>
        <time>2013-04-27T11:15:03Z</time>
      </trkpt>
      <trkpt lat="60.0245817" lon="17.5665952">
        <ele>38.5901</ele>
        <time>2013-04-27T11:15:04Z</time>
      </trkpt>
      <trkpt lat="60.0245435" lon="17.5665104">
        <ele>38.1094</ele>
        <time>2013-04-27T11:15:05Z</time>
      </trkpt>
      <trkpt lat="60.0244983" lon="17.5664017">
        <ele>38.1094</ele>
        <time>2013-04-27T11:15:06Z</time>
      </trkpt>
      <trkpt lat="60.024449" lon="17.5662923">
        <ele>37.1481</ele>
        <time>2013-04-27T11:15:07Z</time>
      </trkpt>
      <trkpt lat="60.0243971" lon="17.5661892">
        <ele>36.6675</ele>
        <time>2013-04-27T11:15:08Z</time>
      </trkpt>
      <trkpt lat="60.0243434" lon="17.5660896">
        <ele>36.1868</ele>
        <time>2013-04-27T11:15:09Z</time>
      </trkpt>
      <trkpt lat="60.0242894" lon="17.565994">
        <ele>35.7061</ele>
        <time>2013-04-27T11:15:10Z</time>
      </trkpt>
      <trkpt lat="60.024235" lon="17.5658952">
        <ele>36.1868</ele>
        <time>2013-04-27T11:15:11Z</time>
      </trkpt>
      <trkpt lat="60.0241832" lon="17.565812">
        <ele>35.7061</ele>
        <time>2013-04-27T11:15:12Z</time>
      </trkpt>
      <trkpt lat="60.0241396" lon="17.5657339">
        <ele>35.2255</ele>
        <time>2013-04-27T11:15:13Z</time>
      </trkpt>
      <trkpt lat="60.024098" lon="17.5656566">
        <ele>35.7061</ele>
        <time>2013-04-27T11:15:14Z</time>
      </trkpt>
      <trkpt lat="60.0240543" lon="17.5655765">
        <ele>36.1868</ele>
        <time>2013-04-27T11:15:15Z</time>
      </trkpt>
      <trkpt lat="60.0240107" lon="17.5655039">
        <ele>35.7061</ele>
        <time>2013-04-27T11:15:16Z</time>
      </trkpt>
      <trkpt lat="60.0239672" lon="17.5654246">
        <ele>35.7061</ele>
        <time>2013-04-27T11:15:17Z</time>
      </trkpt>
      <trkpt lat="60.0239242" lon="17.5653345">
        <ele>35.2255</ele>
        <time>2013-04-27T11:15:18Z</time>
      </trkpt>
      <trkpt lat="60.0238834" lon="17.5652318">
        <ele>34.7449</ele>
        <time>2013-04-27T11:15:19Z</time>
      </trkpt>
      <trkpt lat="60.0238447" lon="17.5651191">
        <ele>34.2642</ele>
        <time>2013-04-27T11:15:20Z</time>
      </trkpt>
      <trkpt lat="60.0238112" lon="17.5650008">
        <ele>33.7834</ele>
        <time>2013-04-27T11:15:21Z</time>
      </trkpt>
      <trkpt lat="60.0237688" lon="17.5648228">
        <ele>33.3029</ele>
        <time>2013-04-27T11:15:22Z</time>
      </trkpt>
      <trkpt lat="60.023747" lon="17.5646715">
        <ele>33.3029</ele>
        <time>2013-04-27T11:15:23Z</time>
      </trkpt>
      <trkpt lat="60.0237315" lon="17.5645235">
        <ele>33.3029</ele>
        <time>2013-04-27T11:15:24Z</time>
      </trkpt>
      <trkpt lat="60.0237341" lon="17.5643776">
        <ele>32.8223</ele>
        <time>2013-04-27T11:15:25Z</time>
      </trkpt>
      <trkpt lat="60.0237253" lon="17.5641965">
        <ele>32.8223</ele>
        <time>2013-04-27T11:15:26Z</time>
      </trkpt>
      <trkpt lat="60.0237354" lon="17.5640458">
        <ele>32.3416</ele>
        <time>2013-04-27T11:15:27Z</time>
      </trkpt>
      <trkpt lat="60.0237246" lon="17.5639027">
        <ele>31.8607</ele>
        <time>2013-04-27T11:15:28Z</time>
      </trkpt>
      <trkpt lat="60.0237206" lon="17.5637733">
        <ele>31.8607</ele>
        <time>2013-04-27T11:15:29Z</time>
      </trkpt>
      <trkpt lat="60.0237204" lon="17.5636468">
        <ele>31.8607</ele>
        <time>2013-04-27T11:15:30Z</time>
      </trkpt>
      <trkpt lat="60.0237238" lon="17.5635252">
        <ele>31.8607</ele>
        <time>2013-04-27T11:15:31Z</time>
      </trkpt>
      <trkpt lat="60.0237297" lon="17.5634087">
        <ele>31.3801</ele>
        <time>2013-04-27T11:15:32Z</time>
      </trkpt>
      <trkpt lat="60.0237358" lon="17.5632978">
        <ele>31.3801</ele>
        <time>2013-04-27T11:15:33Z</time>
      </trkpt>
      <trkpt lat="60.0237428" lon="17.5631935">
        <ele>30.4188</ele>
        <time>2013-04-27T11:15:34Z</time>
      </trkpt>
      <trkpt lat="60.0237492" lon="17.5630936">
        <ele>30.4188</ele>
        <time>2013-04-27T11:15:35Z</time>
      </trkpt>
      <trkpt lat="60.0237553" lon="17.5629986">
        <ele>29.9381</ele>
        <time>2013-04-27T11:15:36Z</time>
      </trkpt>
      <trkpt lat="60.0237601" lon="17.5629091">
        <ele>29.9381</ele>
        <time>2013-04-27T11:15:37Z</time>
      </trkpt>
      <trkpt lat="60.0237647" lon="17.5628231">
        <ele>29.9381</ele>
        <time>2013-04-27T11:15:38Z</time>
      </trkpt>
      <trkpt lat="60.0237704" lon="17.5627396">
        <ele>29.4575</ele>
        <time>2013-04-27T11:15:39Z</time>
      </trkpt>
      <trkpt lat="60.0237765" lon="17.5626578">
        <ele>29.4575</ele>
        <time>2013-04-27T11:15:40Z</time>
      </trkpt>
      <trkpt lat="60.0237833" lon="17.5625775">
        <ele>29.4575</ele>
        <time>2013-04-27T11:15:41Z</time>
      </trkpt>
      <trkpt lat="60.0237904" lon="17.5624989">
        <ele>28.9769</ele>
        <time>2013-04-27T11:15:42Z</time>
      </trkpt>
      <trkpt lat="60.0237964" lon="17.5624191">
        <ele>28.9769</ele>
        <time>2013-04-27T11:15:43Z</time>
      </trkpt>
      <trkpt lat="60.023803" lon="17.5623368">
        <ele>28.4962</ele>
        <time>2013-04-27T11:15:44Z</time>
      </trkpt>
      <trkpt lat="60.0238112" lon="17.5622545">
        <ele>28.0155</ele>
        <time>2013-04-27T11:15:45Z</time>
      </trkpt>
      <trkpt lat="60.0238206" lon="17.5621675">
        <ele>28.0155</ele>
        <time>2013-04-27T11:15:46Z</time>
      </trkpt>
      <trkpt lat="60.0238297" lon="17.5620799">
        <ele>28.0155</ele>
        <time>2013-04-27T11:15:47Z</time>
      </trkpt>
      <trkpt lat="60.0238377" lon="17.5619916">
        <ele>28.0155</ele>
        <time>2013-04-27T11:15:48Z</time>
      </trkpt>
      <trkpt lat="60.0238466" lon="17.5619033">
        <ele>28.0155</ele>
        <time>2013-04-27T11:15:49Z</time>
      </trkpt>
      <trkpt lat="60.0238538" lon="17.561812">
        <ele>27.5349</ele>
        <time>2013-04-27T11:15:50Z</time>
      </trkpt>
      <trkpt lat="60.0238624" lon="17.5617173">
        <ele>27.5349</ele>
        <time>2013-04-27T11:15:51Z</time>
      </trkpt>
      <trkpt lat="60.0238735" lon="17.5616236">
        <ele>27.5349</ele>
        <time>2013-04-27T11:15:52Z</time>
      </trkpt>
      <trkpt lat="60.0238854" lon="17.5615302">
        <ele>27.5349</ele>
        <time>2013-04-27T11:15:53Z</time>
      </trkpt>
      <trkpt lat="60.0238935" lon="17.5614377">
        <ele>27.5349</ele>
        <time>2013-04-27T11:15:54Z</time>
      </trkpt>
      <trkpt lat="60.023903" lon="17.5613413">
        <ele>27.5349</ele>
        <time>2013-04-27T11:15:55Z</time>
      </trkpt>
      <trkpt lat="60.0239167" lon="17.5612442">
        <ele>27.5349</ele>
        <time>2013-04-27T11:15:56Z</time>
      </trkpt>
      <trkpt lat="60.0239284" lon="17.5611426">
        <ele>27.5349</ele>
        <time>2013-04-27T11:15:57Z</time>
      </trkpt>
      <trkpt lat="60.023936" lon="17.5610413">
        <ele>27.5349</ele>
        <time>2013-04-27T11:15:58Z</time>
      </trkpt>
      <trkpt lat="60.0239453" lon="17.5609409">
        <ele>28.0155</ele>
        <time>2013-04-27T11:15:59Z</time>
      </trkpt>
      <trkpt lat="60.0239598" lon="17.5608433">
        <ele>27.5349</ele>
        <time>2013-04-27T11:16:00Z</time>
      </trkpt>
      <trkpt lat="60.0239755" lon="17.5607486">
        <ele>27.0543</ele>
        <time>2013-04-27T11:16:01Z</time>
      </trkpt>
      <trkpt lat="60.0239911" lon="17.5606549">
        <ele>27.0543</ele>
        <time>2013-04-27T11:16:02Z</time>
      </trkpt>
      <trkpt lat="60.0240061" lon="17.5605622">
        <ele>27.5349</ele>
        <time>2013-04-27T11:16:03Z</time>
      </trkpt>
      <trkpt lat="60.0240227" lon="17.5604715">
        <ele>27.0543</ele>
        <time>2013-04-27T11:16:04Z</time>
      </trkpt>
      <trkpt lat="60.0240392" lon="17.560384">
        <ele>27.0543</ele>
        <time>2013-04-27T11:16:05Z</time>
      </trkpt>
      <trkpt lat="60.0240554" lon="17.5602989">
        <ele>27.0543</ele>
        <time>2013-04-27T11:16:06Z</time>
      </trkpt>
      <trkpt lat="60.0240748" lon="17.5602176">
        <ele>27.0543</ele>
        <time>2013-04-27T11:16:07Z</time>
      </trkpt>
      <trkpt lat="60.0240983" lon="17.5601439">
        <ele>27.0543</ele>
        <time>2013-04-27T11:16:08Z</time>
      </trkpt>
      <trkpt lat="60.0241229" lon="17.5600751">
        <ele>26.5736</ele>
        <time>2013-04-27T11:16:09Z</time>
      </trkpt>
      <trkpt lat="60.0241455" lon="17.5600035">
        <ele>26.5736</ele>
        <time>2013-04-27T11:16:10Z</time>
      </trkpt>
      <trkpt lat="60.0241672" lon="17.5599271">
        <ele>26.5736</ele>
        <time>2013-04-27T11:16:11Z</time>
      </trkpt>
      <trkpt lat="60.0241915" lon="17.5598514">
        <ele>26.5736</ele>
        <time>2013-04-27T11:16:12Z</time>
      </trkpt>
      <trkpt lat="60.0242188" lon="17.5597764">
        <ele>26.5736</ele>
        <time>2013-04-27T11:16:13Z</time>
      </trkpt>
      <trkpt lat="60.0242462" lon="17.5597022">
        <ele>26.0929</ele>
        <time>2013-04-27T11:16:14Z</time>
      </trkpt>
      <trkpt lat="60.0242732" lon="17.5596301">
        <ele>25.6123</ele>
        <time>2013-04-27T11:16:15Z</time>
      </trkpt>
      <trkpt lat="60.0242987" lon="17.559555">
        <ele>25.1317</ele>
        <time>2013-04-27T11:16:16Z</time>
      </trkpt>
      <trkpt lat="60.0243236" lon="17.5594753">
        <ele>25.1317</ele>
        <time>2013-04-27T11:16:17Z</time>
      </trkpt>
      <trkpt lat="60.0243509" lon="17.5593954">
        <ele>24.651</ele>
        <time>2013-04-27T11:16:18Z</time>
      </trkpt>
      <trkpt lat="60.0243795" lon="17.559322">
        <ele>24.1703</ele>
        <time>2013-04-27T11:16:19Z</time>
      </trkpt>
      <trkpt lat="60.0244086" lon="17.5592526">
        <ele>24.651</ele>
        <time>2013-04-27T11:16:20Z</time>
      </trkpt>
      <trkpt lat="60.0244389" lon="17.5591874">
        <ele>24.651</ele>
        <time>2013-04-27T11:16:21Z</time>
      </trkpt>
      <trkpt lat="60.0244703" lon="17.5591213">
        <ele>24.651</ele>
        <time>2013-04-27T11:16:22Z</time>
      </trkpt>
      <trkpt lat="60.0245017" lon="17.5590545">
        <ele>24.651</ele>
        <time>2013-04-27T11:16:23Z</time>
      </trkpt>
      <trkpt lat="60.0245322" lon="17.5589831">
        <ele>24.651</ele>
        <time>2013-04-27T11:16:24Z</time>
      </trkpt>
      <trkpt lat="60.0245648" lon="17.5589142">
        <ele>24.651</ele>
        <time>2013-04-27T11:16:25Z</time>
      </trkpt>
      <trkpt lat="60.0245988" lon="17.5588469">
        <ele>24.651</ele>
        <time>2013-04-27T11:16:26Z</time>
      </trkpt>
      <trkpt lat="60.0246323" lon="17.5587765">
        <ele>24.651</ele>
        <time>2013-04-27T11:16:27Z</time>
      </trkpt>
      <trkpt lat="60.024666" lon="17.5587041">
        <ele>25.1317</ele>
        <time>2013-04-27T11:16:28Z</time>
      </trkpt>
      <trkpt lat="60.0246997" lon="17.5586367">
        <ele>24.651</ele>
        <time>2013-04-27T11:16:29Z</time>
      </trkpt>
      <trkpt lat="60.0247339" lon="17.5585684">
        <ele>24.651</ele>
        <time>2013-04-27T11:16:30Z</time>
      </trkpt>
      <trkpt lat="60.0247691" lon="17.5584977">
        <ele>25.1317</ele>
        <time>2013-04-27T11:16:31Z</time>
      </trkpt>
      <trkpt lat="60.0248058" lon="17.5584277">
        <ele>24.651</ele>
        <time>2013-04-27T11:16:32Z</time>
      </trkpt>
      <trkpt lat="60.0248447" lon="17.5583622">
        <ele>24.651</ele>
        <time>2013-04-27T11:16:33Z</time>
      </trkpt>
      <trkpt lat="60.0248846" lon="17.5582953">
        <ele>24.651</ele>
        <time>2013-04-27T11:16:34Z</time>
      </trkpt>
      <trkpt lat="60.0249243" lon="17.5582309">
        <ele>24.1703</ele>
        <time>2013-04-27T11:16:35Z</time>
      </trkpt>
      <trkpt lat="60.0249638" lon="17.558168">
        <ele>23.6896</ele>
        <time>2013-04-27T11:16:36Z</time>
      </trkpt>
      <trkpt lat="60.0250041" lon="17.5581083">
        <ele>23.6896</ele>
        <time>2013-04-27T11:16:37Z</time>
      </trkpt>
      <trkpt lat="60.0250453" lon="17.5580482">
        <ele>23.6896</ele>
        <time>2013-04-27T11:16:38Z</time>
      </trkpt>
      <trkpt lat="60.0250869" lon="17.5579853">
        <ele>23.6896</ele>
        <time>2013-04-27T11:16:39Z</time>
      </trkpt>
      <trkpt lat="60.025129" lon="17.5579204">
        <ele>23.6896</ele>
        <time>2013-04-27T11:16:40Z</time>
      </trkpt>
      <trkpt lat="60.0251715" lon="17.5578596">
        <ele>24.1703</ele>
        <time>2013-04-27T11:16:41Z</time>
      </trkpt>
      <trkpt lat="60.0252139" lon="17.5578037">
        <ele>24.1703</ele>
        <time>2013-04-27T11:16:42Z</time>
      </trkpt>
      <trkpt lat="60.025255" lon="17.5577473">
        <ele>24.1703</ele>
        <time>2013-04-27T11:16:43Z</time>
      </trkpt>
      <trkpt lat="60.0252964" lon="17.5576894">
        <ele>24.651</ele>
        <time>2013-04-27T11:16:44Z</time>
      </trkpt>
      <trkpt lat="60.0253389" lon="17.5576322">
        <ele>24.651</ele>
        <time>2013-04-27T11:16:45Z</time>
      </trkpt>
      <trkpt lat="60.0253819" lon="17.5575753">
        <ele>25.1317</ele>
        <time>2013-04-27T11:16:46Z</time>
      </trkpt>
      <trkpt lat="60.0254262" lon="17.5575239">
        <ele>25.6123</ele>
        <time>2013-04-27T11:16:47Z</time>
      </trkpt>
      <trkpt lat="60.0254714" lon="17.5574756">
        <ele>25.6123</ele>
        <time>2013-04-27T11:16:48Z</time>
      </trkpt>
      <trkpt lat="60.0255159" lon="17.5574251">
        <ele>26.0929</ele>
        <time>2013-04-27T11:16:49Z</time>
      </trkpt>
      <trkpt lat="60.0255595" lon="17.5573707">
        <ele>26.0929</ele>
        <time>2013-04-27T11:16:50Z</time>
      </trkpt>
      <trkpt lat="60.0256026" lon="17.5573174">
        <ele>25.6123</ele>
        <time>2013-04-27T11:16:51Z</time>
      </trkpt>
      <trkpt lat="60.0256446" lon="17.557264">
        <ele>25.6123</ele>
        <time>2013-04-27T11:16:52Z</time>
      </trkpt>
      <trkpt lat="60.0256866" lon="17.5572126">
        <ele>25.1317</ele>
        <time>2013-04-27T11:16:53Z</time>
      </trkpt>
      <trkpt lat="60.025729" lon="17.5571614">
        <ele>25.1317</ele>
        <time>2013-04-27T11:16:54Z</time>
      </trkpt>
      <trkpt lat="60.02577" lon="17.5571052">
        <ele>25.6123</ele>
        <time>2013-04-27T11:16:55Z</time>
      </trkpt>
      <trkpt lat="60.0258118" lon="17.5570469">
        <ele>25.6123</ele>
        <time>2013-04-27T11:16:56Z</time>
      </trkpt>
      <trkpt lat="60.0258533" lon="17.5569853">
        <ele>25.6123</ele>
        <time>2013-04-27T11:16:57Z</time>
      </trkpt>
      <trkpt lat="60.0258927" lon="17.5569185">
        <ele>26.0929</ele>
        <time>2013-04-27T11:16:58Z</time>
      </trkpt>
      <trkpt lat="60.0259316" lon="17.5568528">
        <ele>26.0929</ele>
        <time>2013-04-27T11:16:59Z</time>
      </trkpt>
      <trkpt lat="60.0259693" lon="17.5567837">
        <ele>26.5736</ele>
        <time>2013-04-27T11:17:00Z</time>
      </trkpt>
      <trkpt lat="60.0260048" lon="17.5567121">
        <ele>27.0543</ele>
        <time>2013-04-27T11:17:01Z</time>
      </trkpt>
      <trkpt lat="60.0260378" lon="17.5566334">
        <ele>27.0543</ele>
        <time>2013-04-27T11:17:02Z</time>
      </trkpt>
      <trkpt lat="60.0260708" lon="17.5565564">
        <ele>27.0543</ele>
        <time>2013-04-27T11:17:03Z</time>
      </trkpt>
      <trkpt lat="60.0261036" lon="17.5564777">
        <ele>27.5349</ele>
        <time>2013-04-27T11:17:04Z</time>
      </trkpt>
      <trkpt lat="60.0261345" lon="17.5563937">
        <ele>28.0155</ele>
        <time>2013-04-27T11:17:05Z</time>
      </trkpt>
      <trkpt lat="60.026163" lon="17.5563029">
        <ele>28.0155</ele>
        <time>2013-04-27T11:17:06Z</time>
      </trkpt>
      <trkpt lat="60.0261884" lon="17.5562109">
        <ele>28.4962</ele>
        <time>2013-04-27T11:17:07Z</time>
      </trkpt>
      <trkpt lat="60.0262112" lon="17.556119">
        <ele>28.4962</ele>
        <time>2013-04-27T11:17:08Z</time>
      </trkpt>
      <trkpt lat="60.0262335" lon="17.556027">
        <ele>28.9769</ele>
        <time>2013-04-27T11:17:09Z</time>
      </trkpt>
      <trkpt lat="60.0262542" lon="17.5559358">
        <ele>28.9769</ele>
        <time>2013-04-27T11:17:10Z</time>
      </trkpt>
      <trkpt lat="60.0262734" lon="17.5558431">
        <ele>28.9769</ele>
        <time>2013-04-27T11:17:11Z</time>
      </trkpt>
      <trkpt lat="60.0262878" lon="17.5557477">
        <ele>29.4575</ele>
        <time>2013-04-27T11:17:12Z</time>
      </trkpt>
      <trkpt lat="60.0263003" lon="17.5556488">
        <ele>29.4575</ele>
        <time>2013-04-27T11:17:13Z</time>
      </trkpt>
      <trkpt lat="60.0263111" lon="17.5555478">
        <ele>29.4575</ele>
        <time>2013-04-27T11:17:14Z</time>
      </trkpt>
      <trkpt lat="60.0263188" lon="17.5554483">
        <ele>28.4962</ele>
        <time>2013-04-27T11:17:15Z</time>
      </trkpt>
      <trkpt lat="60.0263232" lon="17.5553509">
        <ele>28.9769</ele>
        <time>2013-04-27T11:17:16Z</time>
      </trkpt>
      <trkpt lat="60.0263273" lon="17.5552493">
        <ele>28.9769</ele>
        <time>2013-04-27T11:17:17Z</time>
      </trkpt>
      <trkpt lat="60.0263318" lon="17.5551535">
        <ele>28.9769</ele>
        <time>2013-04-27T11:17:18Z</time>
      </trkpt>
      <trkpt lat="60.0263323" lon="17.5550588">
        <ele>29.4575</ele>
        <time>2013-04-27T11:17:19Z</time>
      </trkpt>
      <trkpt lat="60.0263323" lon="17.5549623">
        <ele>29.4575</ele>
        <time>2013-04-27T11:17:20Z</time>
      </trkpt>
      <trkpt lat="60.0263348" lon="17.5548639">
        <ele>29.4575</ele>
        <time>2013-04-27T11:17:21Z</time>
      </trkpt>
      <trkpt lat="60.0263323" lon="17.5547449">
        <ele>29.4575</ele>
        <time>2013-04-27T11:17:22Z</time>
      </trkpt>
      <trkpt lat="60.0263322" lon="17.5546374">
        <ele>29.9381</ele>
        <time>2013-04-27T11:17:23Z</time>
      </trkpt>
      <trkpt lat="60.0263356" lon="17.5545421">
        <ele>29.9381</ele>
        <time>2013-04-27T11:17:24Z</time>
      </trkpt>
      <trkpt lat="60.0263317" lon="17.5544367">
        <ele>30.4188</ele>
        <time>2013-04-27T11:17:25Z</time>
      </trkpt>
      <trkpt lat="60.0263283" lon="17.554352">
        <ele>30.4188</ele>
        <time>2013-04-27T11:17:26Z</time>
      </trkpt>
      <trkpt lat="60.0263232" lon="17.5542543">
        <ele>29.9381</ele>
        <time>2013-04-27T11:17:27Z</time>
      </trkpt>
      <trkpt lat="60.026319" lon="17.5541559">
        <ele>30.8995</ele>
        <time>2013-04-27T11:17:28Z</time>
      </trkpt>
      <trkpt lat="60.02632" lon="17.5540681">
        <ele>30.8995</ele>
        <time>2013-04-27T11:17:29Z</time>
      </trkpt>
      <trkpt lat="60.0263149" lon="17.5539778">
        <ele>31.3801</ele>
        <time>2013-04-27T11:17:30Z</time>
      </trkpt>
      <trkpt lat="60.0263072" lon="17.5538985">
        <ele>31.3801</ele>
        <time>2013-04-27T11:17:31Z</time>
      </trkpt>
      <trkpt lat="60.0262981" lon="17.5537996">
        <ele>31.3801</ele>
        <time>2013-04-27T11:17:32Z</time>
      </trkpt>
      <trkpt lat="60.0262918" lon="17.5536986">
        <ele>31.8607</ele>
        <time>2013-04-27T11:17:33Z</time>
      </trkpt>
      <trkpt lat="60.0262879" lon="17.5536026">
        <ele>32.8223</ele>
        <time>2013-04-27T11:17:34Z</time>
      </trkpt>
      <trkpt lat="60.0262868" lon="17.5535249">
        <ele>32.8223</ele>
        <time>2013-04-27T11:17:35Z</time>
      </trkpt>
      <trkpt lat="60.0262827" lon="17.5534447">
        <ele>33.3029</ele>
        <time>2013-04-27T11:17:36Z</time>
      </trkpt>
      <trkpt lat="60.0262774" lon="17.5533865">
        <ele>33.3029</ele>
        <time>2013-04-27T11:17:37Z</time>
      </trkpt>
      <trkpt lat="60.0262755" lon="17.5533401">
        <ele>32.8223</ele>
        <time>2013-04-27T11:17:38Z</time>
      </trkpt>
      <trkpt lat="60.0262735" lon="17.5532996">
        <ele>32.8223</ele>
        <time>2013-04-27T11:17:39Z</time>
      </trkpt>
      <trkpt lat="60.026274" lon="17.5532642">
        <ele>31.8607</ele>
        <time>2013-04-27T11:17:40Z</time>
      </trkpt>
      <trkpt lat="60.0262822" lon="17.5532399">
        <ele>30.8995</ele>
        <time>2013-04-27T11:17:41Z</time>
      </trkpt>
      <trkpt lat="60.0262919" lon="17.5532173">
        <ele>29.9381</ele>
        <time>2013-04-27T11:17:42Z</time>
      </trkpt>
      <trkpt lat="60.0262944" lon="17.5531974">
        <ele>29.4575</ele>
        <time>2013-04-27T11:17:43Z</time>
      </trkpt>
      <trkpt lat="60.0262879" lon="17.5531546">
        <ele>29.4575</ele>
        <time>2013-04-27T11:17:44Z</time>
      </trkpt>
      <trkpt lat="60.0262816" lon="17.5530976">
        <ele>28.9769</ele>
        <time>2013-04-27T11:17:45Z</time>
      </trkpt>
      <trkpt lat="60.0262782" lon="17.5530272">
        <ele>28.9769</ele>
        <time>2013-04-27T11:17:46Z</time>
      </trkpt>
      <trkpt lat="60.0262748" lon="17.5529536">
        <ele>28.9769</ele>
        <time>2013-04-27T11:17:47Z</time>
      </trkpt>
      <trkpt lat="60.0262682" lon="17.5528749">
        <ele>28.4962</ele>
        <time>2013-04-27T11:17:48Z</time>
      </trkpt>
      <trkpt lat="60.026263" lon="17.5527888">
        <ele>28.0155</ele>
        <time>2013-04-27T11:17:49Z</time>
      </trkpt>
      <trkpt lat="60.0262552" lon="17.5527029">
        <ele>27.5349</ele>
        <time>2013-04-27T11:17:50Z</time>
      </trkpt>
      <trkpt lat="60.0262423" lon="17.5525983">
        <ele>27.5349</ele>
        <time>2013-04-27T11:17:51Z</time>
      </trkpt>
      <trkpt lat="60.0262335" lon="17.552493">
        <ele>27.0543</ele>
        <time>2013-04-27T11:17:52Z</time>
      </trkpt>
      <trkpt lat="60.0262334" lon="17.5523864">
        <ele>27.0543</ele>
        <time>2013-04-27T11:17:53Z</time>
      </trkpt>
      <trkpt lat="60.0262371" lon="17.5522815">
        <ele>26.5736</ele>
        <time>2013-04-27T11:17:54Z</time>
      </trkpt>
      <trkpt lat="60.0262362" lon="17.5521797">
        <ele>26.0929</ele>
        <time>2013-04-27T11:17:55Z</time>
      </trkpt>
      <trkpt lat="60.026231" lon="17.5520802">
        <ele>26.0929</ele>
        <time>2013-04-27T11:17:56Z</time>
      </trkpt>
      <trkpt lat="60.0262131" lon="17.5519942">
        <ele>26.0929</ele>
        <time>2013-04-27T11:17:57Z</time>
      </trkpt>
      <trkpt lat="60.0261904" lon="17.5519208">
        <ele>26.0929</ele>
        <time>2013-04-27T11:17:58Z</time>
      </trkpt>
      <trkpt lat="60.0261506" lon="17.5518074">
        <ele>27.0543</ele>
        <time>2013-04-27T11:17:59Z</time>
      </trkpt>
      <trkpt lat="60.0261064" lon="17.5517192">
        <ele>28.0155</ele>
        <time>2013-04-27T11:18:00Z</time>
      </trkpt>
      <trkpt lat="60.0260614" lon="17.5516533">
        <ele>28.4962</ele>
        <time>2013-04-27T11:18:01Z</time>
      </trkpt>
      <trkpt lat="60.0260173" lon="17.5516021">
        <ele>28.4962</ele>
        <time>2013-04-27T11:18:02Z</time>
      </trkpt>
      <trkpt lat="60.0259701" lon="17.5515461">
        <ele>28.4962</ele>
        <time>2013-04-27T11:18:03Z</time>
      </trkpt>
      <trkpt lat="60.0259211" lon="17.5514913">
        <ele>28.9769</ele>
        <time>2013-04-27T11:18:04Z</time>
      </trkpt>
      <trkpt lat="60.0258728" lon="17.5514315">
        <ele>28.9769</ele>
        <time>2013-04-27T11:18:05Z</time>
      </trkpt>
      <trkpt lat="60.0258246" lon="17.5513669">
        <ele>28.9769</ele>
        <time>2013-04-27T11:18:06Z</time>
      </trkpt>
      <trkpt lat="60.0257765" lon="17.5512991">
        <ele>28.9769</ele>
        <time>2013-04-27T11:18:07Z</time>
      </trkpt>
      <trkpt lat="60.0257313" lon="17.5512218">
        <ele>28.9769</ele>
        <time>2013-04-27T11:18:08Z</time>
      </trkpt>
      <trkpt lat="60.0256904" lon="17.5511338">
        <ele>28.9769</ele>
        <time>2013-04-27T11:18:09Z</time>
      </trkpt>
      <trkpt lat="60.0256492" lon="17.5510393">
        <ele>28.9769</ele>
        <time>2013-04-27T11:18:10Z</time>
      </trkpt>
      <trkpt lat="60.0256102" lon="17.5509361">
        <ele>28.9769</ele>
        <time>2013-04-27T11:18:11Z</time>
      </trkpt>
      <trkpt lat="60.0255736" lon="17.5508251">
        <ele>28.9769</ele>
        <time>2013-04-27T11:18:12Z</time>
      </trkpt>
      <trkpt lat="60.0255424" lon="17.550707">
        <ele>29.4575</ele>
        <time>2013-04-27T11:18:13Z</time>
      </trkpt>
      <trkpt lat="60.0255136" lon="17.5505863">
        <ele>29.4575</ele>
        <time>2013-04-27T11:18:14Z</time>
      </trkpt>
      <trkpt lat="60.0254845" lon="17.5504646">
        <ele>29.4575</ele>
        <time>2013-04-27T11:18:15Z</time>
      </trkpt>
      <trkpt lat="60.025456" lon="17.5503432">
        <ele>29.4575</ele>
        <time>2013-04-27T11:18:16Z</time>
      </trkpt>
      <trkpt lat="60.0254285" lon="17.5502231">
        <ele>29.4575</ele>
        <time>2013-04-27T11:18:17Z</time>
      </trkpt>
      <trkpt lat="60.0254016" lon="17.5501029">
        <ele>29.4575</ele>
        <time>2013-04-27T11:18:18Z</time>
      </trkpt>
      <trkpt lat="60.0253744" lon="17.5499818">
        <ele>29.4575</ele>
        <time>2013-04-27T11:18:19Z</time>
      </trkpt>
      <trkpt lat="60.0253473" lon="17.5498596">
        <ele>29.4575</ele>
        <time>2013-04-27T11:18:20Z</time>
      </trkpt>
      <trkpt lat="60.0253195" lon="17.5497362">
        <ele>29.4575</ele>
        <time>2013-04-27T11:18:21Z</time>
      </trkpt>
      <trkpt lat="60.0252886" lon="17.549612">
        <ele>28.9769</ele>
        <time>2013-04-27T11:18:22Z</time>
      </trkpt>
      <trkpt lat="60.0252603" lon="17.549485">
        <ele>28.9769</ele>
        <time>2013-04-27T11:18:23Z</time>
      </trkpt>
      <trkpt lat="60.0252326" lon="17.5493572">
        <ele>28.9769</ele>
        <time>2013-04-27T11:18:24Z</time>
      </trkpt>
      <trkpt lat="60.0252047" lon="17.5492291">
        <ele>28.9769</ele>
        <time>2013-04-27T11:18:25Z</time>
      </trkpt>
      <trkpt lat="60.0251768" lon="17.5491018">
        <ele>28.9769</ele>
        <time>2013-04-27T11:18:26Z</time>
      </trkpt>
      <trkpt lat="60.0251491" lon="17.5489742">
        <ele>28.4962</ele>
        <time>2013-04-27T11:18:27Z</time>
      </trkpt>
      <trkpt lat="60.0251204" lon="17.5488437">
        <ele>28.9769</ele>
        <time>2013-04-27T11:18:28Z</time>
      </trkpt>
      <trkpt lat="60.0250892" lon="17.5487128">
        <ele>28.9769</ele>
        <time>2013-04-27T11:18:29Z</time>
      </trkpt>
      <trkpt lat="60.0250576" lon="17.5485819">
        <ele>28.9769</ele>
        <time>2013-04-27T11:18:30Z</time>
      </trkpt>
      <trkpt lat="60.025029" lon="17.5484519">
        <ele>28.9769</ele>
        <time>2013-04-27T11:18:31Z</time>
      </trkpt>
      <trkpt lat="60.0250005" lon="17.5483226">
        <ele>28.9769</ele>
        <time>2013-04-27T11:18:32Z</time>
      </trkpt>
      <trkpt lat="60.0249711" lon="17.5481944">
        <ele>28.9769</ele>
        <time>2013-04-27T11:18:33Z</time>
      </trkpt>
      <trkpt lat="60.0249424" lon="17.5480655">
        <ele>28.9769</ele>
        <time>2013-04-27T11:18:34Z</time>
      </trkpt>
      <trkpt lat="60.0249141" lon="17.5479336">
        <ele>28.9769</ele>
        <time>2013-04-27T11:18:35Z</time>
      </trkpt>
      <trkpt lat="60.0248836" lon="17.5478008">
        <ele>28.9769</ele>
        <time>2013-04-27T11:18:36Z</time>
      </trkpt>
      <trkpt lat="60.024851" lon="17.5476687">
        <ele>28.4962</ele>
        <time>2013-04-27T11:18:37Z</time>
      </trkpt>
      <trkpt lat="60.0248172" lon="17.5475378">
        <ele>28.4962</ele>
        <time>2013-04-27T11:18:38Z</time>
      </trkpt>
      <trkpt lat="60.0247829" lon="17.5474077">
        <ele>28.4962</ele>
        <time>2013-04-27T11:18:39Z</time>
      </trkpt>
      <trkpt lat="60.0247484" lon="17.5472788">
        <ele>28.4962</ele>
        <time>2013-04-27T11:18:40Z</time>
      </trkpt>
      <trkpt lat="60.0247142" lon="17.5471524">
        <ele>28.0155</ele>
        <time>2013-04-27T11:18:41Z</time>
      </trkpt>
      <trkpt lat="60.0246791" lon="17.5470291">
        <ele>28.0155</ele>
        <time>2013-04-27T11:18:42Z</time>
      </trkpt>
      <trkpt lat="60.0246432" lon="17.5469089">
        <ele>28.0155</ele>
        <time>2013-04-27T11:18:43Z</time>
      </trkpt>
      <trkpt lat="60.024608" lon="17.5467911">
        <ele>28.4962</ele>
        <time>2013-04-27T11:18:44Z</time>
      </trkpt>
      <trkpt lat="60.0245739" lon="17.5466754">
        <ele>28.4962</ele>
        <time>2013-04-27T11:18:45Z</time>
      </trkpt>
      <trkpt lat="60.0245401" lon="17.5465613">
        <ele>28.4962</ele>
        <time>2013-04-27T11:18:46Z</time>
      </trkpt>
      <trkpt lat="60.0245057" lon="17.5464475">
        <ele>28.4962</ele>
        <time>2013-04-27T11:18:47Z</time>
      </trkpt>
      <trkpt lat="60.0244707" lon="17.5463358">
        <ele>28.4962</ele>
        <time>2013-04-27T11:18:48Z</time>
      </trkpt>
      <trkpt lat="60.0244356" lon="17.5462246">
        <ele>28.4962</ele>
        <time>2013-04-27T11:18:49Z</time>
      </trkpt>
      <trkpt lat="60.0244007" lon="17.5461147">
        <ele>28.0155</ele>
        <time>2013-04-27T11:18:50Z</time>
      </trkpt>
      <trkpt lat="60.0243653" lon="17.5460053">
        <ele>28.4962</ele>
        <time>2013-04-27T11:18:51Z</time>
      </trkpt>
      <trkpt lat="60.0243298" lon="17.5458925">
        <ele>28.4962</ele>
        <time>2013-04-27T11:18:52Z</time>
      </trkpt>
      <trkpt lat="60.0242947" lon="17.5457775">
        <ele>28.4962</ele>
        <time>2013-04-27T11:18:53Z</time>
      </trkpt>
      <trkpt lat="60.0242597" lon="17.5456635">
        <ele>28.9769</ele>
        <time>2013-04-27T11:18:54Z</time>
      </trkpt>
      <trkpt lat="60.024224" lon="17.5455507">
        <ele>28.9769</ele>
        <time>2013-04-27T11:18:55Z</time>
      </trkpt>
      <trkpt lat="60.0241884" lon="17.5454383">
        <ele>28.9769</ele>
        <time>2013-04-27T11:18:56Z</time>
      </trkpt>
      <trkpt lat="60.0241543" lon="17.5453265">
        <ele>28.9769</ele>
        <time>2013-04-27T11:18:57Z</time>
      </trkpt>
      <trkpt lat="60.0241221" lon="17.5452136">
        <ele>28.9769</ele>
        <time>2013-04-27T11:18:58Z</time>
      </trkpt>
      <trkpt lat="60.0240898" lon="17.5451007">
        <ele>28.9769</ele>
        <time>2013-04-27T11:18:59Z</time>
      </trkpt>
      <trkpt lat="60.0240569" lon="17.5449876">
        <ele>29.4575</ele>
        <time>2013-04-27T11:19:00Z</time>
      </trkpt>
      <trkpt lat="60.024024" lon="17.5448725">
        <ele>29.4575</ele>
        <time>2013-04-27T11:19:01Z</time>
      </trkpt>
      <trkpt lat="60.0239921" lon="17.5447633">
        <ele>28.9769</ele>
        <time>2013-04-27T11:19:02Z</time>
      </trkpt>
      <trkpt lat="60.0239593" lon="17.5446504">
        <ele>28.9769</ele>
        <time>2013-04-27T11:19:03Z</time>
      </trkpt>
      <trkpt lat="60.0239268" lon="17.544537">
        <ele>28.9769</ele>
        <time>2013-04-27T11:19:04Z</time>
      </trkpt>
      <trkpt lat="60.0238932" lon="17.5444239">
        <ele>28.9769</ele>
        <time>2013-04-27T11:19:05Z</time>
      </trkpt>
      <trkpt lat="60.0238595" lon="17.5443133">
        <ele>28.9769</ele>
        <time>2013-04-27T11:19:06Z</time>
      </trkpt>
      <trkpt lat="60.0238273" lon="17.5442037">
        <ele>28.4962</ele>
        <time>2013-04-27T11:19:07Z</time>
      </trkpt>
      <trkpt lat="60.0237976" lon="17.5440981">
        <ele>28.4962</ele>
        <time>2013-04-27T11:19:08Z</time>
      </trkpt>
      <trkpt lat="60.0237667" lon="17.5439904">
        <ele>28.9769</ele>
        <time>2013-04-27T11:19:09Z</time>
      </trkpt>
      <trkpt lat="60.0237352" lon="17.5438851">
        <ele>28.4962</ele>
        <time>2013-04-27T11:19:10Z</time>
      </trkpt>
      <trkpt lat="60.0237038" lon="17.5437811">
        <ele>28.4962</ele>
        <time>2013-04-27T11:19:11Z</time>
      </trkpt>
      <trkpt lat="60.0236728" lon="17.5436781">
        <ele>28.4962</ele>
        <time>2013-04-27T11:19:12Z</time>
      </trkpt>
      <trkpt lat="60.0236422" lon="17.5435756">
        <ele>28.4962</ele>
        <time>2013-04-27T11:19:13Z</time>
      </trkpt>
      <trkpt lat="60.0236134" lon="17.5434756">
        <ele>28.0155</ele>
        <time>2013-04-27T11:19:14Z</time>
      </trkpt>
      <trkpt lat="60.0235844" lon="17.5433704">
        <ele>28.0155</ele>
        <time>2013-04-27T11:19:15Z</time>
      </trkpt>
      <trkpt lat="60.0235583" lon="17.5432604">
        <ele>27.5349</ele>
        <time>2013-04-27T11:19:16Z</time>
      </trkpt>
      <trkpt lat="60.0235362" lon="17.5431446">
        <ele>27.5349</ele>
        <time>2013-04-27T11:19:17Z</time>
      </trkpt>
      <trkpt lat="60.0235194" lon="17.543017">
        <ele>27.0543</ele>
        <time>2013-04-27T11:19:18Z</time>
      </trkpt>
      <trkpt lat="60.023512" lon="17.5428803">
        <ele>26.5736</ele>
        <time>2013-04-27T11:19:19Z</time>
      </trkpt>
      <trkpt lat="60.0235139" lon="17.5427357">
        <ele>26.5736</ele>
        <time>2013-04-27T11:19:20Z</time>
      </trkpt>
      <trkpt lat="60.0235241" lon="17.5425867">
        <ele>26.0929</ele>
        <time>2013-04-27T11:19:21Z</time>
      </trkpt>
      <trkpt lat="60.0235388" lon="17.5424358">
        <ele>25.1317</ele>
        <time>2013-04-27T11:19:22Z</time>
      </trkpt>
      <trkpt lat="60.0235541" lon="17.542283">
        <ele>24.651</ele>
        <time>2013-04-27T11:19:23Z</time>
      </trkpt>
      <trkpt lat="60.0235671" lon="17.5421308">
        <ele>24.651</ele>
        <time>2013-04-27T11:19:24Z</time>
      </trkpt>
      <trkpt lat="60.0235767" lon="17.5419796">
        <ele>24.651</ele>
        <time>2013-04-27T11:19:25Z</time>
      </trkpt>
      <trkpt lat="60.0235816" lon="17.5418286">
        <ele>24.1703</ele>
        <time>2013-04-27T11:19:26Z</time>
      </trkpt>
      <trkpt lat="60.0235818" lon="17.5416808">
        <ele>24.1703</ele>
        <time>2013-04-27T11:19:27Z</time>
      </trkpt>
      <trkpt lat="60.0235783" lon="17.5415399">
        <ele>22.7283</ele>
        <time>2013-04-27T11:19:28Z</time>
      </trkpt>
      <trkpt lat="60.023573" lon="17.5414124">
        <ele>22.2476</ele>
        <time>2013-04-27T11:19:29Z</time>
      </trkpt>
      <trkpt lat="60.0235859" lon="17.5412855">
        <ele>23.209</ele>
        <time>2013-04-27T11:19:30Z</time>
      </trkpt>
      <trkpt lat="60.0235797" lon="17.5411652">
        <ele>22.7283</ele>
        <time>2013-04-27T11:19:31Z</time>
      </trkpt>
      <trkpt lat="60.0235669" lon="17.5410386">
        <ele>22.2476</ele>
        <time>2013-04-27T11:19:32Z</time>
      </trkpt>
      <trkpt lat="60.0235527" lon="17.5409078">
        <ele>22.2476</ele>
        <time>2013-04-27T11:19:33Z</time>
      </trkpt>
      <trkpt lat="60.0235441" lon="17.5407651">
        <ele>22.7283</ele>
        <time>2013-04-27T11:19:34Z</time>
      </trkpt>
      <trkpt lat="60.0235497" lon="17.5406549">
        <ele>22.7283</ele>
        <time>2013-04-27T11:19:35Z</time>
      </trkpt>
      <trkpt lat="60.0235607" lon="17.540542">
        <ele>22.2476</ele>
        <time>2013-04-27T11:19:36Z</time>
      </trkpt>
      <trkpt lat="60.0235766" lon="17.540427">
        <ele>22.2476</ele>
        <time>2013-04-27T11:19:37Z</time>
      </trkpt>
      <trkpt lat="60.0235977" lon="17.5403134">
        <ele>22.2476</ele>
        <time>2013-04-27T11:19:38Z</time>
      </trkpt>
      <trkpt lat="60.0236243" lon="17.5402043">
        <ele>22.7283</ele>
        <time>2013-04-27T11:19:39Z</time>
      </trkpt>
      <trkpt lat="60.0236543" lon="17.5401043">
        <ele>22.2476</ele>
        <time>2013-04-27T11:19:40Z</time>
      </trkpt>
      <trkpt lat="60.023687" lon="17.5400075">
        <ele>22.2476</ele>
        <time>2013-04-27T11:19:41Z</time>
      </trkpt>
      <trkpt lat="60.02372" lon="17.5399282">
        <ele>22.7283</ele>
        <time>2013-04-27T11:19:42Z</time>
      </trkpt>
      <trkpt lat="60.0237497" lon="17.5398581">
        <ele>22.2476</ele>
        <time>2013-04-27T11:19:43Z</time>
      </trkpt>
      <trkpt lat="60.0237748" lon="17.5397815">
        <ele>22.2476</ele>
        <time>2013-04-27T11:19:44Z</time>
      </trkpt>
      <trkpt lat="60.0238014" lon="17.5397092">
        <ele>22.2476</ele>
        <time>2013-04-27T11:19:45Z</time>
      </trkpt>
      <trkpt lat="60.0238321" lon="17.5396438">
        <ele>22.2476</ele>
        <time>2013-04-27T11:19:46Z</time>
      </trkpt>
      <trkpt lat="60.0238636" lon="17.5395847">
        <ele>21.767</ele>
        <time>2013-04-27T11:19:47Z</time>
      </trkpt>
      <trkpt lat="60.023891" lon="17.5395263">
        <ele>21.767</ele>
        <time>2013-04-27T11:19:48Z</time>
      </trkpt>
      <trkpt lat="60.0239147" lon="17.539465">
        <ele>21.2864</ele>
        <time>2013-04-27T11:19:49Z</time>
      </trkpt>
      <trkpt lat="60.023934" lon="17.5393953">
        <ele>21.2864</ele>
        <time>2013-04-27T11:19:50Z</time>
      </trkpt>
      <trkpt lat="60.0239452" lon="17.5393118">
        <ele>21.2864</ele>
        <time>2013-04-27T11:19:51Z</time>
      </trkpt>
      <trkpt lat="60.0239515" lon="17.5392346">
        <ele>21.2864</ele>
        <time>2013-04-27T11:19:52Z</time>
      </trkpt>
      <trkpt lat="60.0239476" lon="17.5391471">
        <ele>22.2476</ele>
        <time>2013-04-27T11:19:53Z</time>
      </trkpt>
      <trkpt lat="60.0239392" lon="17.5390518">
        <ele>22.7283</ele>
        <time>2013-04-27T11:19:54Z</time>
      </trkpt>
      <trkpt lat="60.0239277" lon="17.5389653">
        <ele>24.1703</ele>
        <time>2013-04-27T11:19:55Z</time>
      </trkpt>
      <trkpt lat="60.0239159" lon="17.5388834">
        <ele>24.651</ele>
        <time>2013-04-27T11:19:56Z</time>
      </trkpt>
      <trkpt lat="60.0239028" lon="17.5387834">
        <ele>25.6123</ele>
        <time>2013-04-27T11:19:57Z</time>
      </trkpt>
      <trkpt lat="60.0238867" lon="17.5386814">
        <ele>26.0929</ele>
        <time>2013-04-27T11:19:58Z</time>
      </trkpt>
      <trkpt lat="60.0238696" lon="17.5385841">
        <ele>26.0929</ele>
        <time>2013-04-27T11:19:59Z</time>
      </trkpt>
      <trkpt lat="60.0238549" lon="17.5384883">
        <ele>26.0929</ele>
        <time>2013-04-27T11:20:00Z</time>
      </trkpt>
      <trkpt lat="60.0238403" lon="17.5383808">
        <ele>26.5736</ele>
        <time>2013-04-27T11:20:01Z</time>
      </trkpt>
      <trkpt lat="60.0238263" lon="17.5382686">
        <ele>27.0543</ele>
        <time>2013-04-27T11:20:02Z</time>
      </trkpt>
      <trkpt lat="60.0238113" lon="17.5381559">
        <ele>27.5349</ele>
        <time>2013-04-27T11:20:03Z</time>
      </trkpt>
      <trkpt lat="60.0237974" lon="17.5380454">
        <ele>27.5349</ele>
        <time>2013-04-27T11:20:04Z</time>
      </trkpt>
      <trkpt lat="60.0237844" lon="17.537936">
        <ele>28.0155</ele>
        <time>2013-04-27T11:20:05Z</time>
      </trkpt>
      <trkpt lat="60.0237696" lon="17.5378272">
        <ele>28.0155</ele>
        <time>2013-04-27T11:20:06Z</time>
      </trkpt>
      <trkpt lat="60.0237558" lon="17.5377213">
        <ele>28.0155</ele>
        <time>2013-04-27T11:20:07Z</time>
      </trkpt>
      <trkpt lat="60.0237428" lon="17.5376191">
        <ele>28.0155</ele>
        <time>2013-04-27T11:20:08Z</time>
      </trkpt>
      <trkpt lat="60.0237304" lon="17.5375212">
        <ele>28.0155</ele>
        <time>2013-04-27T11:20:09Z</time>
      </trkpt>
      <trkpt lat="60.0237191" lon="17.5374291">
        <ele>27.5349</ele>
        <time>2013-04-27T11:20:10Z</time>
      </trkpt>
      <trkpt lat="60.0237081" lon="17.5373407">
        <ele>27.5349</ele>
        <time>2013-04-27T11:20:11Z</time>
      </trkpt>
      <trkpt lat="60.0236962" lon="17.5372507">
        <ele>27.5349</ele>
        <time>2013-04-27T11:20:12Z</time>
      </trkpt>
      <trkpt lat="60.0236821" lon="17.5371615">
        <ele>28.0155</ele>
        <time>2013-04-27T11:20:13Z</time>
      </trkpt>
      <trkpt lat="60.0236586" lon="17.5370819">
        <ele>28.0155</ele>
        <time>2013-04-27T11:20:14Z</time>
      </trkpt>
      <trkpt lat="60.023622" lon="17.5370221">
        <ele>28.0155</ele>
        <time>2013-04-27T11:20:15Z</time>
      </trkpt>
      <trkpt lat="60.0235747" lon="17.5369822">
        <ele>28.0155</ele>
        <time>2013-04-27T11:20:16Z</time>
      </trkpt>
      <trkpt lat="60.0235229" lon="17.5369607">
        <ele>28.0155</ele>
        <time>2013-04-27T11:20:17Z</time>
      </trkpt>
      <trkpt lat="60.0234698" lon="17.5369502">
        <ele>28.0155</ele>
        <time>2013-04-27T11:20:18Z</time>
      </trkpt>
      <trkpt lat="60.0234155" lon="17.5369451">
        <ele>28.0155</ele>
        <time>2013-04-27T11:20:19Z</time>
      </trkpt>
      <trkpt lat="60.0233592" lon="17.5369434">
        <ele>28.0155</ele>
        <time>2013-04-27T11:20:20Z</time>
      </trkpt>
      <trkpt lat="60.0233005" lon="17.5369404">
        <ele>28.0155</ele>
        <time>2013-04-27T11:20:21Z</time>
      </trkpt>
      <trkpt lat="60.0232402" lon="17.5369367">
        <ele>28.0155</ele>
        <time>2013-04-27T11:20:22Z</time>
      </trkpt>
      <trkpt lat="60.0231798" lon="17.5369336">
        <ele>28.4962</ele>
        <time>2013-04-27T11:20:23Z</time>
      </trkpt>
      <trkpt lat="60.0231188" lon="17.5369284">
        <ele>28.4962</ele>
        <time>2013-04-27T11:20:24Z</time>
      </trkpt>
      <trkpt lat="60.0230565" lon="17.5369165">
        <ele>28.4962</ele>
        <time>2013-04-27T11:20:25Z</time>
      </trkpt>
      <trkpt lat="60.0229929" lon="17.5368985">
        <ele>28.4962</ele>
        <time>2013-04-27T11:20:26Z</time>
      </trkpt>
      <trkpt lat="60.0229291" lon="17.5368771">
        <ele>28.4962</ele>
        <time>2013-04-27T11:20:27Z</time>
      </trkpt>
      <trkpt lat="60.0228663" lon="17.5368533">
        <ele>28.4962</ele>
        <time>2013-04-27T11:20:28Z</time>
      </trkpt>
      <trkpt lat="60.0228041" lon="17.5368269">
        <ele>28.4962</ele>
        <time>2013-04-27T11:20:29Z</time>
      </trkpt>
      <trkpt lat="60.0227427" lon="17.5367979">
        <ele>28.4962</ele>
        <time>2013-04-27T11:20:30Z</time>
      </trkpt>
      <trkpt lat="60.0226825" lon="17.5367663">
        <ele>28.4962</ele>
        <time>2013-04-27T11:20:31Z</time>
      </trkpt>
      <trkpt lat="60.0226238" lon="17.5367312">
        <ele>28.4962</ele>
        <time>2013-04-27T11:20:32Z</time>
      </trkpt>
      <trkpt lat="60.022566" lon="17.5366938">
        <ele>28.4962</ele>
        <time>2013-04-27T11:20:33Z</time>
      </trkpt>
      <trkpt lat="60.022508" lon="17.536654">
        <ele>28.4962</ele>
        <time>2013-04-27T11:20:34Z</time>
      </trkpt>
      <trkpt lat="60.0224501" lon="17.5366124">
        <ele>28.4962</ele>
        <time>2013-04-27T11:20:35Z</time>
      </trkpt>
      <trkpt lat="60.0223924" lon="17.5365694">
        <ele>28.4962</ele>
        <time>2013-04-27T11:20:36Z</time>
      </trkpt>
      <trkpt lat="60.0223353" lon="17.5365228">
        <ele>28.4962</ele>
        <time>2013-04-27T11:20:37Z</time>
      </trkpt>
      <trkpt lat="60.0222794" lon="17.536473">
        <ele>28.4962</ele>
        <time>2013-04-27T11:20:38Z</time>
      </trkpt>
      <trkpt lat="60.0222237" lon="17.536424">
        <ele>28.4962</ele>
        <time>2013-04-27T11:20:39Z</time>
      </trkpt>
      <trkpt lat="60.0221691" lon="17.5363747">
        <ele>28.4962</ele>
        <time>2013-04-27T11:20:40Z</time>
      </trkpt>
      <trkpt lat="60.0221153" lon="17.5363219">
        <ele>28.4962</ele>
        <time>2013-04-27T11:20:41Z</time>
      </trkpt>
      <trkpt lat="60.0220619" lon="17.5362669">
        <ele>28.9769</ele>
        <time>2013-04-27T11:20:42Z</time>
      </trkpt>
      <trkpt lat="60.0220089" lon="17.536211">
        <ele>28.9769</ele>
        <time>2013-04-27T11:20:43Z</time>
      </trkpt>
      <trkpt lat="60.0219557" lon="17.5361556">
        <ele>28.9769</ele>
        <time>2013-04-27T11:20:44Z</time>
      </trkpt>
      <trkpt lat="60.0219029" lon="17.536101">
        <ele>28.9769</ele>
        <time>2013-04-27T11:20:45Z</time>
      </trkpt>
      <trkpt lat="60.0218512" lon="17.5360473">
        <ele>29.4575</ele>
        <time>2013-04-27T11:20:46Z</time>
      </trkpt>
      <trkpt lat="60.021801" lon="17.5359918">
        <ele>29.4575</ele>
        <time>2013-04-27T11:20:47Z</time>
      </trkpt>
      <trkpt lat="60.0217521" lon="17.5359359">
        <ele>29.4575</ele>
        <time>2013-04-27T11:20:48Z</time>
      </trkpt>
      <trkpt lat="60.0217023" lon="17.5358801">
        <ele>29.4575</ele>
        <time>2013-04-27T11:20:49Z</time>
      </trkpt>
      <trkpt lat="60.0216515" lon="17.5358234">
        <ele>29.4575</ele>
        <time>2013-04-27T11:20:50Z</time>
      </trkpt>
      <trkpt lat="60.0216002" lon="17.5357661">
        <ele>29.4575</ele>
        <time>2013-04-27T11:20:51Z</time>
      </trkpt>
      <trkpt lat="60.0215476" lon="17.535708">
        <ele>29.4575</ele>
        <time>2013-04-27T11:20:52Z</time>
      </trkpt>
      <trkpt lat="60.0214937" lon="17.5356485">
        <ele>29.4575</ele>
        <time>2013-04-27T11:20:53Z</time>
      </trkpt>
      <trkpt lat="60.0214402" lon="17.5355869">
        <ele>28.9769</ele>
        <time>2013-04-27T11:20:54Z</time>
      </trkpt>
      <trkpt lat="60.0213868" lon="17.535525">
        <ele>28.9769</ele>
        <time>2013-04-27T11:20:55Z</time>
      </trkpt>
      <trkpt lat="60.0213125" lon="17.5354729">
        <ele>28.9769</ele>
        <time>2013-04-27T11:20:56Z</time>
      </trkpt>
      <trkpt lat="60.021258" lon="17.53541">
        <ele>28.4962</ele>
        <time>2013-04-27T11:20:57Z</time>
      </trkpt>
      <trkpt lat="60.0212067" lon="17.5353464">
        <ele>28.4962</ele>
        <time>2013-04-27T11:20:58Z</time>
      </trkpt>
      <trkpt lat="60.0211534" lon="17.5352868">
        <ele>28.0155</ele>
        <time>2013-04-27T11:20:59Z</time>
      </trkpt>
      <trkpt lat="60.0211026" lon="17.5352262">
        <ele>28.0155</ele>
        <time>2013-04-27T11:21:00Z</time>
      </trkpt>
      <trkpt lat="60.0210502" lon="17.5351675">
        <ele>28.0155</ele>
        <time>2013-04-27T11:21:01Z</time>
      </trkpt>
      <trkpt lat="60.0209967" lon="17.5351098">
        <ele>28.0155</ele>
        <time>2013-04-27T11:21:02Z</time>
      </trkpt>
      <trkpt lat="60.0209424" lon="17.5350541">
        <ele>27.5349</ele>
        <time>2013-04-27T11:21:03Z</time>
      </trkpt>
      <trkpt lat="60.0208877" lon="17.5349999">
        <ele>27.5349</ele>
        <time>2013-04-27T11:21:04Z</time>
      </trkpt>
      <trkpt lat="60.0208331" lon="17.5349463">
        <ele>27.5349</ele>
        <time>2013-04-27T11:21:05Z</time>
      </trkpt>
      <trkpt lat="60.0207782" lon="17.5348932">
        <ele>27.5349</ele>
        <time>2013-04-27T11:21:06Z</time>
      </trkpt>
      <trkpt lat="60.0207224" lon="17.5348435">
        <ele>27.5349</ele>
        <time>2013-04-27T11:21:07Z</time>
      </trkpt>
      <trkpt lat="60.0206654" lon="17.5347966">
        <ele>27.0543</ele>
        <time>2013-04-27T11:21:08Z</time>
      </trkpt>
      <trkpt lat="60.0206073" lon="17.5347513">
        <ele>27.0543</ele>
        <time>2013-04-27T11:21:09Z</time>
      </trkpt>
      <trkpt lat="60.0205481" lon="17.5347091">
        <ele>27.0543</ele>
        <time>2013-04-27T11:21:10Z</time>
      </trkpt>
      <trkpt lat="60.0204886" lon="17.534668">
        <ele>27.0543</ele>
        <time>2013-04-27T11:21:11Z</time>
      </trkpt>
      <trkpt lat="60.0204292" lon="17.534628">
        <ele>27.0543</ele>
        <time>2013-04-27T11:21:12Z</time>
      </trkpt>
      <trkpt lat="60.020369" lon="17.534591">
        <ele>27.0543</ele>
        <time>2013-04-27T11:21:13Z</time>
      </trkpt>
      <trkpt lat="60.0203057" lon="17.5345565">
        <ele>27.0543</ele>
        <time>2013-04-27T11:21:14Z</time>
      </trkpt>
      <trkpt lat="60.0202422" lon="17.5345267">
        <ele>27.0543</ele>
        <time>2013-04-27T11:21:15Z</time>
      </trkpt>
      <trkpt lat="60.020178" lon="17.5345005">
        <ele>27.0543</ele>
        <time>2013-04-27T11:21:16Z</time>
      </trkpt>
      <trkpt lat="60.0201106" lon="17.534476">
        <ele>27.0543</ele>
        <time>2013-04-27T11:21:17Z</time>
      </trkpt>
      <trkpt lat="60.0200436" lon="17.5344547">
        <ele>27.5349</ele>
        <time>2013-04-27T11:21:18Z</time>
      </trkpt>
      <trkpt lat="60.0199769" lon="17.5344373">
        <ele>27.5349</ele>
        <time>2013-04-27T11:21:19Z</time>
      </trkpt>
      <trkpt lat="60.0199092" lon="17.5344254">
        <ele>27.5349</ele>
        <time>2013-04-27T11:21:20Z</time>
      </trkpt>
      <trkpt lat="60.0198416" lon="17.534416">
        <ele>28.0155</ele>
        <time>2013-04-27T11:21:21Z</time>
      </trkpt>
      <trkpt lat="60.0197729" lon="17.5344083">
        <ele>28.4962</ele>
        <time>2013-04-27T11:21:22Z</time>
      </trkpt>
      <trkpt lat="60.0197039" lon="17.5344038">
        <ele>28.4962</ele>
        <time>2013-04-27T11:21:23Z</time>
      </trkpt>
      <trkpt lat="60.0196351" lon="17.5344027">
        <ele>28.4962</ele>
        <time>2013-04-27T11:21:24Z</time>
      </trkpt>
      <trkpt lat="60.0195673" lon="17.5344033">
        <ele>28.9769</ele>
        <time>2013-04-27T11:21:25Z</time>
      </trkpt>
      <trkpt lat="60.0195007" lon="17.5344052">
        <ele>28.9769</ele>
        <time>2013-04-27T11:21:26Z</time>
      </trkpt>
      <trkpt lat="60.0194357" lon="17.5344103">
        <ele>28.9769</ele>
        <time>2013-04-27T11:21:27Z</time>
      </trkpt>
      <trkpt lat="60.01937" lon="17.5344174">
        <ele>28.9769</ele>
        <time>2013-04-27T11:21:28Z</time>
      </trkpt>
      <trkpt lat="60.0193045" lon="17.534425">
        <ele>28.9769</ele>
        <time>2013-04-27T11:21:29Z</time>
      </trkpt>
      <trkpt lat="60.0192387" lon="17.5344341">
        <ele>28.9769</ele>
        <time>2013-04-27T11:21:30Z</time>
      </trkpt>
      <trkpt lat="60.0191724" lon="17.5344435">
        <ele>29.4575</ele>
        <time>2013-04-27T11:21:31Z</time>
      </trkpt>
      <trkpt lat="60.0191047" lon="17.5344539">
        <ele>29.4575</ele>
        <time>2013-04-27T11:21:32Z</time>
      </trkpt>
      <trkpt lat="60.0190378" lon="17.5344622">
        <ele>29.4575</ele>
        <time>2013-04-27T11:21:33Z</time>
      </trkpt>
      <trkpt lat="60.0189705" lon="17.5344709">
        <ele>29.4575</ele>
        <time>2013-04-27T11:21:34Z</time>
      </trkpt>
      <trkpt lat="60.0189032" lon="17.5344793">
        <ele>29.4575</ele>
        <time>2013-04-27T11:21:35Z</time>
      </trkpt>
      <trkpt lat="60.0188348" lon="17.5344891">
        <ele>29.4575</ele>
        <time>2013-04-27T11:21:36Z</time>
      </trkpt>
      <trkpt lat="60.0187658" lon="17.534502">
        <ele>29.4575</ele>
        <time>2013-04-27T11:21:37Z</time>
      </trkpt>
      <trkpt lat="60.0186963" lon="17.5345156">
        <ele>29.4575</ele>
        <time>2013-04-27T11:21:38Z</time>
      </trkpt>
      <trkpt lat="60.018627" lon="17.5345273">
        <ele>29.4575</ele>
        <time>2013-04-27T11:21:39Z</time>
      </trkpt>
      <trkpt lat="60.0185571" lon="17.5345357">
        <ele>29.4575</ele>
        <time>2013-04-27T11:21:40Z</time>
      </trkpt>
      <trkpt lat="60.0184875" lon="17.5345442">
        <ele>29.4575</ele>
        <time>2013-04-27T11:21:41Z</time>
      </trkpt>
      <trkpt lat="60.0184179" lon="17.5345535">
        <ele>29.4575</ele>
        <time>2013-04-27T11:21:42Z</time>
      </trkpt>
      <trkpt lat="60.0183489" lon="17.5345631">
        <ele>29.4575</ele>
        <time>2013-04-27T11:21:43Z</time>
      </trkpt>
      <trkpt lat="60.0182794" lon="17.5345715">
        <ele>29.4575</ele>
        <time>2013-04-27T11:21:44Z</time>
      </trkpt>
      <trkpt lat="60.0182107" lon="17.5345782">
        <ele>29.9381</ele>
        <time>2013-04-27T11:21:45Z</time>
      </trkpt>
      <trkpt lat="60.0181422" lon="17.5345851">
        <ele>29.9381</ele>
        <time>2013-04-27T11:21:46Z</time>
      </trkpt>
      <trkpt lat="60.0180737" lon="17.5345933">
        <ele>29.9381</ele>
        <time>2013-04-27T11:21:47Z</time>
      </trkpt>
      <trkpt lat="60.0180054" lon="17.5346009">
        <ele>29.9381</ele>
        <time>2013-04-27T11:21:48Z</time>
      </trkpt>
      <trkpt lat="60.0179371" lon="17.5346076">
        <ele>29.9381</ele>
        <time>2013-04-27T11:21:49Z</time>
      </trkpt>
      <trkpt lat="60.0178675" lon="17.5346169">
        <ele>29.9381</ele>
        <time>2013-04-27T11:21:50Z</time>
      </trkpt>
      <trkpt lat="60.0178001" lon="17.5346217">
        <ele>30.4188</ele>
        <time>2013-04-27T11:21:51Z</time>
      </trkpt>
      <trkpt lat="60.0177334" lon="17.5346227">
        <ele>30.4188</ele>
        <time>2013-04-27T11:21:52Z</time>
      </trkpt>
      <trkpt lat="60.0176662" lon="17.5346249">
        <ele>30.4188</ele>
        <time>2013-04-27T11:21:53Z</time>
      </trkpt>
      <trkpt lat="60.0175997" lon="17.534625">
        <ele>30.4188</ele>
        <time>2013-04-27T11:21:54Z</time>
      </trkpt>
      <trkpt lat="60.0175339" lon="17.5346224">
        <ele>30.4188</ele>
        <time>2013-04-27T11:21:55Z</time>
      </trkpt>
      <trkpt lat="60.0174683" lon="17.5346207">
        <ele>30.4188</ele>
        <time>2013-04-27T11:21:56Z</time>
      </trkpt>
      <trkpt lat="60.0174026" lon="17.5346161">
        <ele>30.4188</ele>
        <time>2013-04-27T11:21:57Z</time>
      </trkpt>
      <trkpt lat="60.0173375" lon="17.5346099">
        <ele>30.4188</ele>
        <time>2013-04-27T11:21:58Z</time>
      </trkpt>
      <trkpt lat="60.0172725" lon="17.5346036">
        <ele>30.4188</ele>
        <time>2013-04-27T11:21:59Z</time>
      </trkpt>
      <trkpt lat="60.0172073" lon="17.5345969">
        <ele>30.4188</ele>
        <time>2013-04-27T11:22:00Z</time>
      </trkpt>
      <trkpt lat="60.0171419" lon="17.5345884">
        <ele>30.4188</ele>
        <time>2013-04-27T11:22:01Z</time>
      </trkpt>
      <trkpt lat="60.0170761" lon="17.5345777">
        <ele>30.4188</ele>
        <time>2013-04-27T11:22:02Z</time>
      </trkpt>
      <trkpt lat="60.0170097" lon="17.5345656">
        <ele>30.4188</ele>
        <time>2013-04-27T11:22:03Z</time>
      </trkpt>
      <trkpt lat="60.0169438" lon="17.534553">
        <ele>30.8995</ele>
        <time>2013-04-27T11:22:04Z</time>
      </trkpt>
      <trkpt lat="60.0168777" lon="17.5345382">
        <ele>30.8995</ele>
        <time>2013-04-27T11:22:05Z</time>
      </trkpt>
      <trkpt lat="60.016811" lon="17.5345191">
        <ele>30.8995</ele>
        <time>2013-04-27T11:22:06Z</time>
      </trkpt>
      <trkpt lat="60.016744" lon="17.5344998">
        <ele>30.8995</ele>
        <time>2013-04-27T11:22:07Z</time>
      </trkpt>
      <trkpt lat="60.0166776" lon="17.5344796">
        <ele>31.3801</ele>
        <time>2013-04-27T11:22:08Z</time>
      </trkpt>
      <trkpt lat="60.0166107" lon="17.5344581">
        <ele>31.3801</ele>
        <time>2013-04-27T11:22:09Z</time>
      </trkpt>
      <trkpt lat="60.0165444" lon="17.5344353">
        <ele>31.3801</ele>
        <time>2013-04-27T11:22:10Z</time>
      </trkpt>
      <trkpt lat="60.0164776" lon="17.534411">
        <ele>31.3801</ele>
        <time>2013-04-27T11:22:11Z</time>
      </trkpt>
      <trkpt lat="60.0164106" lon="17.5343848">
        <ele>31.3801</ele>
        <time>2013-04-27T11:22:12Z</time>
      </trkpt>
      <trkpt lat="60.016342" lon="17.5343579">
        <ele>31.3801</ele>
        <time>2013-04-27T11:22:13Z</time>
      </trkpt>
      <trkpt lat="60.0162732" lon="17.5343304">
        <ele>31.3801</ele>
        <time>2013-04-27T11:22:14Z</time>
      </trkpt>
      <trkpt lat="60.0162052" lon="17.5343033">
        <ele>31.3801</ele>
        <time>2013-04-27T11:22:15Z</time>
      </trkpt>
      <trkpt lat="60.0161366" lon="17.5342767">
        <ele>31.3801</ele>
        <time>2013-04-27T11:22:16Z</time>
      </trkpt>
      <trkpt lat="60.0160674" lon="17.5342501">
        <ele>30.8995</ele>
        <time>2013-04-27T11:22:17Z</time>
      </trkpt>
      <trkpt lat="60.0159972" lon="17.5342238">
        <ele>30.8995</ele>
        <time>2013-04-27T11:22:18Z</time>
      </trkpt>
      <trkpt lat="60.0159261" lon="17.5341986">
        <ele>30.8995</ele>
        <time>2013-04-27T11:22:19Z</time>
      </trkpt>
      <trkpt lat="60.0158544" lon="17.5341741">
        <ele>30.8995</ele>
        <time>2013-04-27T11:22:20Z</time>
      </trkpt>
      <trkpt lat="60.0157822" lon="17.5341467">
        <ele>30.8995</ele>
        <time>2013-04-27T11:22:21Z</time>
      </trkpt>
      <trkpt lat="60.01571" lon="17.5341182">
        <ele>30.8995</ele>
        <time>2013-04-27T11:22:22Z</time>
      </trkpt>
      <trkpt lat="60.0156376" lon="17.5340892">
        <ele>30.8995</ele>
        <time>2013-04-27T11:22:23Z</time>
      </trkpt>
      <trkpt lat="60.0155661" lon="17.5340597">
        <ele>30.8995</ele>
        <time>2013-04-27T11:22:24Z</time>
      </trkpt>
      <trkpt lat="60.015495" lon="17.5340298">
        <ele>30.8995</ele>
        <time>2013-04-27T11:22:25Z</time>
      </trkpt>
      <trkpt lat="60.0154232" lon="17.5340012">
        <ele>30.8995</ele>
        <time>2013-04-27T11:22:26Z</time>
      </trkpt>
      <trkpt lat="60.0153522" lon="17.5339747">
        <ele>30.4188</ele>
        <time>2013-04-27T11:22:27Z</time>
      </trkpt>
      <trkpt lat="60.0152821" lon="17.5339468">
        <ele>30.4188</ele>
        <time>2013-04-27T11:22:28Z</time>
      </trkpt>
      <trkpt lat="60.0152109" lon="17.5339162">
        <ele>30.4188</ele>
        <time>2013-04-27T11:22:29Z</time>
      </trkpt>
      <trkpt lat="60.0151388" lon="17.5338875">
        <ele>30.4188</ele>
        <time>2013-04-27T11:22:30Z</time>
      </trkpt>
      <trkpt lat="60.0150663" lon="17.5338587">
        <ele>30.4188</ele>
        <time>2013-04-27T11:22:31Z</time>
      </trkpt>
      <trkpt lat="60.0149933" lon="17.533829">
        <ele>30.4188</ele>
        <time>2013-04-27T11:22:32Z</time>
      </trkpt>
      <trkpt lat="60.0149196" lon="17.5338006">
        <ele>30.4188</ele>
        <time>2013-04-27T11:22:33Z</time>
      </trkpt>
      <trkpt lat="60.0148455" lon="17.5337725">
        <ele>30.4188</ele>
        <time>2013-04-27T11:22:34Z</time>
      </trkpt>
      <trkpt lat="60.0147719" lon="17.5337456">
        <ele>30.4188</ele>
        <time>2013-04-27T11:22:35Z</time>
      </trkpt>
      <trkpt lat="60.0146985" lon="17.5337168">
        <ele>30.4188</ele>
        <time>2013-04-27T11:22:36Z</time>
      </trkpt>
      <trkpt lat="60.0146254" lon="17.5336879">
        <ele>29.9381</ele>
        <time>2013-04-27T11:22:37Z</time>
      </trkpt>
      <trkpt lat="60.0145535" lon="17.5336607">
        <ele>29.9381</ele>
        <time>2013-04-27T11:22:38Z</time>
      </trkpt>
      <trkpt lat="60.0144824" lon="17.5336323">
        <ele>29.9381</ele>
        <time>2013-04-27T11:22:39Z</time>
      </trkpt>
      <trkpt lat="60.0144108" lon="17.533604">
        <ele>29.9381</ele>
        <time>2013-04-27T11:22:40Z</time>
      </trkpt>
      <trkpt lat="60.0143385" lon="17.5335754">
        <ele>29.9381</ele>
        <time>2013-04-27T11:22:41Z</time>
      </trkpt>
      <trkpt lat="60.0142664" lon="17.5335464">
        <ele>29.9381</ele>
        <time>2013-04-27T11:22:42Z</time>
      </trkpt>
      <trkpt lat="60.0141949" lon="17.5335195">
        <ele>29.9381</ele>
        <time>2013-04-27T11:22:43Z</time>
      </trkpt>
      <trkpt lat="60.0141235" lon="17.5334945">
        <ele>29.9381</ele>
        <time>2013-04-27T11:22:44Z</time>
      </trkpt>
      <trkpt lat="60.0140521" lon="17.5334676">
        <ele>29.9381</ele>
        <time>2013-04-27T11:22:45Z</time>
      </trkpt>
      <trkpt lat="60.0139809" lon="17.5334406">
        <ele>30.4188</ele>
        <time>2013-04-27T11:22:46Z</time>
      </trkpt>
      <trkpt lat="60.0139095" lon="17.5334158">
        <ele>30.4188</ele>
        <time>2013-04-27T11:22:47Z</time>
      </trkpt>
      <trkpt lat="60.0138375" lon="17.533391">
        <ele>30.4188</ele>
        <time>2013-04-27T11:22:48Z</time>
      </trkpt>
      <trkpt lat="60.0137659" lon="17.5333638">
        <ele>30.4188</ele>
        <time>2013-04-27T11:22:49Z</time>
      </trkpt>
      <trkpt lat="60.0136949" lon="17.5333358">
        <ele>30.4188</ele>
        <time>2013-04-27T11:22:50Z</time>
      </trkpt>
      <trkpt lat="60.0136241" lon="17.5333084">
        <ele>30.4188</ele>
        <time>2013-04-27T11:22:51Z</time>
      </trkpt>
      <trkpt lat="60.0135521" lon="17.5332796">
        <ele>30.8995</ele>
        <time>2013-04-27T11:22:52Z</time>
      </trkpt>
      <trkpt lat="60.0134796" lon="17.5332501">
        <ele>30.8995</ele>
        <time>2013-04-27T11:22:53Z</time>
      </trkpt>
      <trkpt lat="60.013407" lon="17.5332191">
        <ele>30.8995</ele>
        <time>2013-04-27T11:22:54Z</time>
      </trkpt>
      <trkpt lat="60.0133344" lon="17.5331884">
        <ele>30.8995</ele>
        <time>2013-04-27T11:22:55Z</time>
      </trkpt>
      <trkpt lat="60.0132619" lon="17.5331562">
        <ele>30.8995</ele>
        <time>2013-04-27T11:22:56Z</time>
      </trkpt>
      <trkpt lat="60.013189" lon="17.5331221">
        <ele>30.8995</ele>
        <time>2013-04-27T11:22:57Z</time>
      </trkpt>
      <trkpt lat="60.0131159" lon="17.5330867">
        <ele>30.8995</ele>
        <time>2013-04-27T11:22:58Z</time>
      </trkpt>
      <trkpt lat="60.0130433" lon="17.5330502">
        <ele>31.3801</ele>
        <time>2013-04-27T11:22:59Z</time>
      </trkpt>
      <trkpt lat="60.0129722" lon="17.5330113">
        <ele>31.3801</ele>
        <time>2013-04-27T11:23:00Z</time>
      </trkpt>
      <trkpt lat="60.0129025" lon="17.5329704">
        <ele>31.3801</ele>
        <time>2013-04-27T11:23:01Z</time>
      </trkpt>
      <trkpt lat="60.0128339" lon="17.5329289">
        <ele>31.3801</ele>
        <time>2013-04-27T11:23:02Z</time>
      </trkpt>
      <trkpt lat="60.0127663" lon="17.5328833">
        <ele>31.3801</ele>
        <time>2013-04-27T11:23:03Z</time>
      </trkpt>
      <trkpt lat="60.0126994" lon="17.5328361">
        <ele>30.8995</ele>
        <time>2013-04-27T11:23:04Z</time>
      </trkpt>
      <trkpt lat="60.0126316" lon="17.5327894">
        <ele>31.3801</ele>
        <time>2013-04-27T11:23:05Z</time>
      </trkpt>
      <trkpt lat="60.0125646" lon="17.5327433">
        <ele>31.3801</ele>
        <time>2013-04-27T11:23:06Z</time>
      </trkpt>
      <trkpt lat="60.0124994" lon="17.5326958">
        <ele>30.8995</ele>
        <time>2013-04-27T11:23:07Z</time>
      </trkpt>
      <trkpt lat="60.0124359" lon="17.5326462">
        <ele>30.8995</ele>
        <time>2013-04-27T11:23:08Z</time>
      </trkpt>
      <trkpt lat="60.0123726" lon="17.5325989">
        <ele>31.3801</ele>
        <time>2013-04-27T11:23:09Z</time>
      </trkpt>
      <trkpt lat="60.0123094" lon="17.5325534">
        <ele>31.3801</ele>
        <time>2013-04-27T11:23:10Z</time>
      </trkpt>
      <trkpt lat="60.012247" lon="17.532507">
        <ele>31.3801</ele>
        <time>2013-04-27T11:23:11Z</time>
      </trkpt>
      <trkpt lat="60.0121841" lon="17.5324615">
        <ele>31.3801</ele>
        <time>2013-04-27T11:23:12Z</time>
      </trkpt>
      <trkpt lat="60.0121238" lon="17.5324185">
        <ele>31.8607</ele>
        <time>2013-04-27T11:23:13Z</time>
      </trkpt>
      <trkpt lat="60.0120657" lon="17.5323746">
        <ele>31.8607</ele>
        <time>2013-04-27T11:23:14Z</time>
      </trkpt>
      <trkpt lat="60.0120083" lon="17.5323316">
        <ele>31.8607</ele>
        <time>2013-04-27T11:23:15Z</time>
      </trkpt>
      <trkpt lat="60.0119504" lon="17.53229">
        <ele>32.3416</ele>
        <time>2013-04-27T11:23:16Z</time>
      </trkpt>
      <trkpt lat="60.0118924" lon="17.5322446">
        <ele>32.3416</ele>
        <time>2013-04-27T11:23:17Z</time>
      </trkpt>
      <trkpt lat="60.0118331" lon="17.5321994">
        <ele>32.3416</ele>
        <time>2013-04-27T11:23:18Z</time>
      </trkpt>
      <trkpt lat="60.011773" lon="17.5321576">
        <ele>32.8223</ele>
        <time>2013-04-27T11:23:19Z</time>
      </trkpt>
      <trkpt lat="60.0117136" lon="17.532115">
        <ele>32.8223</ele>
        <time>2013-04-27T11:23:20Z</time>
      </trkpt>
      <trkpt lat="60.011655" lon="17.5320711">
        <ele>32.8223</ele>
        <time>2013-04-27T11:23:21Z</time>
      </trkpt>
      <trkpt lat="60.0115972" lon="17.532027">
        <ele>32.8223</ele>
        <time>2013-04-27T11:23:22Z</time>
      </trkpt>
      <trkpt lat="60.0115401" lon="17.5319825">
        <ele>32.8223</ele>
        <time>2013-04-27T11:23:23Z</time>
      </trkpt>
      <trkpt lat="60.0114833" lon="17.5319385">
        <ele>32.8223</ele>
        <time>2013-04-27T11:23:24Z</time>
      </trkpt>
      <trkpt lat="60.0114267" lon="17.5318954">
        <ele>32.8223</ele>
        <time>2013-04-27T11:23:25Z</time>
      </trkpt>
      <trkpt lat="60.0113691" lon="17.5318513">
        <ele>32.8223</ele>
        <time>2013-04-27T11:23:26Z</time>
      </trkpt>
      <trkpt lat="60.0113105" lon="17.5318069">
        <ele>32.8223</ele>
        <time>2013-04-27T11:23:27Z</time>
      </trkpt>
      <trkpt lat="60.0112511" lon="17.5317623">
        <ele>32.8223</ele>
        <time>2013-04-27T11:23:28Z</time>
      </trkpt>
      <trkpt lat="60.0111914" lon="17.5317156">
        <ele>32.8223</ele>
        <time>2013-04-27T11:23:29Z</time>
      </trkpt>
      <trkpt lat="60.0111304" lon="17.531669">
        <ele>32.8223</ele>
        <time>2013-04-27T11:23:30Z</time>
      </trkpt>
      <trkpt lat="60.0110691" lon="17.531621">
        <ele>33.3029</ele>
        <time>2013-04-27T11:23:31Z</time>
      </trkpt>
      <trkpt lat="60.0110072" lon="17.5315743">
        <ele>33.3029</ele>
        <time>2013-04-27T11:23:32Z</time>
      </trkpt>
      <trkpt lat="60.0109451" lon="17.5315286">
        <ele>33.7834</ele>
        <time>2013-04-27T11:23:33Z</time>
      </trkpt>
      <trkpt lat="60.0108834" lon="17.5314816">
        <ele>33.7834</ele>
        <time>2013-04-27T11:23:34Z</time>
      </trkpt>
      <trkpt lat="60.0108225" lon="17.5314355">
        <ele>33.7834</ele>
        <time>2013-04-27T11:23:35Z</time>
      </trkpt>
      <trkpt lat="60.0107605" lon="17.5313912">
        <ele>33.7834</ele>
        <time>2013-04-27T11:23:36Z</time>
      </trkpt>
      <trkpt lat="60.0106978" lon="17.5313475">
        <ele>33.7834</ele>
        <time>2013-04-27T11:23:37Z</time>
      </trkpt>
      <trkpt lat="60.0106355" lon="17.5313018">
        <ele>33.7834</ele>
        <time>2013-04-27T11:23:38Z</time>
      </trkpt>
      <trkpt lat="60.0105729" lon="17.5312545">
        <ele>33.3029</ele>
        <time>2013-04-27T11:23:39Z</time>
      </trkpt>
      <trkpt lat="60.0105097" lon="17.5312085">
        <ele>33.3029</ele>
        <time>2013-04-27T11:23:40Z</time>
      </trkpt>
      <trkpt lat="60.0104466" lon="17.5311645">
        <ele>33.3029</ele>
        <time>2013-04-27T11:23:41Z</time>
      </trkpt>
      <trkpt lat="60.0103837" lon="17.5311225">
        <ele>33.3029</ele>
        <time>2013-04-27T11:23:42Z</time>
      </trkpt>
      <trkpt lat="60.0103207" lon="17.5310791">
        <ele>32.8223</ele>
        <time>2013-04-27T11:23:43Z</time>
      </trkpt>
      <trkpt lat="60.0102575" lon="17.531036">
        <ele>32.8223</ele>
        <time>2013-04-27T11:23:44Z</time>
      </trkpt>
      <trkpt lat="60.0101943" lon="17.530994">
        <ele>32.8223</ele>
        <time>2013-04-27T11:23:45Z</time>
      </trkpt>
      <trkpt lat="60.0101297" lon="17.530953">
        <ele>32.8223</ele>
        <time>2013-04-27T11:23:46Z</time>
      </trkpt>
      <trkpt lat="60.0100648" lon="17.5309123">
        <ele>32.8223</ele>
        <time>2013-04-27T11:23:47Z</time>
      </trkpt>
      <trkpt lat="60.0099999" lon="17.5308708">
        <ele>32.8223</ele>
        <time>2013-04-27T11:23:48Z</time>
      </trkpt>
      <trkpt lat="60.0099348" lon="17.5308295">
        <ele>32.8223</ele>
        <time>2013-04-27T11:23:49Z</time>
      </trkpt>
      <trkpt lat="60.0098691" lon="17.5307891">
        <ele>32.8223</ele>
        <time>2013-04-27T11:23:50Z</time>
      </trkpt>
      <trkpt lat="60.0098031" lon="17.5307486">
        <ele>32.8223</ele>
        <time>2013-04-27T11:23:51Z</time>
      </trkpt>
      <trkpt lat="60.0097359" lon="17.5307073">
        <ele>32.8223</ele>
        <time>2013-04-27T11:23:52Z</time>
      </trkpt>
      <trkpt lat="60.0096682" lon="17.5306655">
        <ele>32.8223</ele>
        <time>2013-04-27T11:23:53Z</time>
      </trkpt>
      <trkpt lat="60.0096008" lon="17.5306227">
        <ele>32.8223</ele>
        <time>2013-04-27T11:23:54Z</time>
      </trkpt>
      <trkpt lat="60.0095339" lon="17.5305787">
        <ele>32.8223</ele>
        <time>2013-04-27T11:23:55Z</time>
      </trkpt>
      <trkpt lat="60.0094674" lon="17.5305355">
        <ele>32.8223</ele>
        <time>2013-04-27T11:23:56Z</time>
      </trkpt>
      <trkpt lat="60.0094009" lon="17.5304953">
        <ele>32.8223</ele>
        <time>2013-04-27T11:23:57Z</time>
      </trkpt>
      <trkpt lat="60.009335" lon="17.5304567">
        <ele>33.3029</ele>
        <time>2013-04-27T11:23:58Z</time>
      </trkpt>
      <trkpt lat="60.0092703" lon="17.5304177">
        <ele>33.3029</ele>
        <time>2013-04-27T11:23:59Z</time>
      </trkpt>
      <trkpt lat="60.0092075" lon="17.5303794">
        <ele>33.3029</ele>
        <time>2013-04-27T11:24:00Z</time>
      </trkpt>
      <trkpt lat="60.0091455" lon="17.5303409">
        <ele>33.3029</ele>
        <time>2013-04-27T11:24:01Z</time>
      </trkpt>
      <trkpt lat="60.0090833" lon="17.5303003">
        <ele>33.3029</ele>
        <time>2013-04-27T11:24:02Z</time>
      </trkpt>
      <trkpt lat="60.0090209" lon="17.5302575">
        <ele>33.3029</ele>
        <time>2013-04-27T11:24:03Z</time>
      </trkpt>
      <trkpt lat="60.0089579" lon="17.5302155">
        <ele>32.8223</ele>
        <time>2013-04-27T11:24:04Z</time>
      </trkpt>
      <trkpt lat="60.0088952" lon="17.530175">
        <ele>32.8223</ele>
        <time>2013-04-27T11:24:05Z</time>
      </trkpt>
      <trkpt lat="60.0088341" lon="17.5301353">
        <ele>32.8223</ele>
        <time>2013-04-27T11:24:06Z</time>
      </trkpt>
      <trkpt lat="60.008774" lon="17.5300954">
        <ele>32.8223</ele>
        <time>2013-04-27T11:24:07Z</time>
      </trkpt>
      <trkpt lat="60.0087144" lon="17.5300565">
        <ele>32.8223</ele>
        <time>2013-04-27T11:24:08Z</time>
      </trkpt>
      <trkpt lat="60.0086549" lon="17.5300195">
        <ele>32.8223</ele>
        <time>2013-04-27T11:24:09Z</time>
      </trkpt>
      <trkpt lat="60.0085959" lon="17.5299815">
        <ele>32.8223</ele>
        <time>2013-04-27T11:24:10Z</time>
      </trkpt>
      <trkpt lat="60.0085371" lon="17.5299446">
        <ele>32.8223</ele>
        <time>2013-04-27T11:24:11Z</time>
      </trkpt>
      <trkpt lat="60.0084777" lon="17.5299082">
        <ele>32.8223</ele>
        <time>2013-04-27T11:24:12Z</time>
      </trkpt>
      <trkpt lat="60.0084182" lon="17.5298724">
        <ele>32.8223</ele>
        <time>2013-04-27T11:24:13Z</time>
      </trkpt>
      <trkpt lat="60.0083586" lon="17.5298342">
        <ele>32.8223</ele>
        <time>2013-04-27T11:24:14Z</time>
      </trkpt>
      <trkpt lat="60.0082995" lon="17.5297935">
        <ele>32.8223</ele>
        <time>2013-04-27T11:24:15Z</time>
      </trkpt>
      <trkpt lat="60.0082419" lon="17.5297513">
        <ele>33.3029</ele>
        <time>2013-04-27T11:24:16Z</time>
      </trkpt>
      <trkpt lat="60.008184" lon="17.5297089">
        <ele>33.3029</ele>
        <time>2013-04-27T11:24:17Z</time>
      </trkpt>
      <trkpt lat="60.0081257" lon="17.5296699">
        <ele>33.3029</ele>
        <time>2013-04-27T11:24:18Z</time>
      </trkpt>
      <trkpt lat="60.0080653" lon="17.529631">
        <ele>33.3029</ele>
        <time>2013-04-27T11:24:19Z</time>
      </trkpt>
      <trkpt lat="60.0080036" lon="17.5295928">
        <ele>33.3029</ele>
        <time>2013-04-27T11:24:20Z</time>
      </trkpt>
      <trkpt lat="60.0079431" lon="17.5295556">
        <ele>33.3029</ele>
        <time>2013-04-27T11:24:21Z</time>
      </trkpt>
      <trkpt lat="60.0078648" lon="17.5295321">
        <ele>32.8223</ele>
        <time>2013-04-27T11:24:22Z</time>
      </trkpt>
      <trkpt lat="60.0077986" lon="17.529499">
        <ele>32.8223</ele>
        <time>2013-04-27T11:24:23Z</time>
      </trkpt>
      <trkpt lat="60.0077354" lon="17.5294644">
        <ele>32.8223</ele>
        <time>2013-04-27T11:24:24Z</time>
      </trkpt>
      <trkpt lat="60.0076754" lon="17.5294256">
        <ele>32.8223</ele>
        <time>2013-04-27T11:24:25Z</time>
      </trkpt>
      <trkpt lat="60.0076167" lon="17.5293841">
        <ele>32.3416</ele>
        <time>2013-04-27T11:24:26Z</time>
      </trkpt>
      <trkpt lat="60.0075592" lon="17.5293396">
        <ele>32.3416</ele>
        <time>2013-04-27T11:24:27Z</time>
      </trkpt>
      <trkpt lat="60.0075037" lon="17.5292961">
        <ele>31.8607</ele>
        <time>2013-04-27T11:24:28Z</time>
      </trkpt>
      <trkpt lat="60.0074484" lon="17.5292526">
        <ele>31.8607</ele>
        <time>2013-04-27T11:24:29Z</time>
      </trkpt>
      <trkpt lat="60.0073909" lon="17.5292028">
        <ele>31.8607</ele>
        <time>2013-04-27T11:24:30Z</time>
      </trkpt>
      <trkpt lat="60.0073339" lon="17.5291534">
        <ele>31.3801</ele>
        <time>2013-04-27T11:24:31Z</time>
      </trkpt>
      <trkpt lat="60.0072769" lon="17.5291009">
        <ele>31.3801</ele>
        <time>2013-04-27T11:24:32Z</time>
      </trkpt>
      <trkpt lat="60.007223" lon="17.5290413">
        <ele>31.3801</ele>
        <time>2013-04-27T11:24:33Z</time>
      </trkpt>
      <trkpt lat="60.0071697" lon="17.5289797">
        <ele>31.3801</ele>
        <time>2013-04-27T11:24:34Z</time>
      </trkpt>
      <trkpt lat="60.0071141" lon="17.5289152">
        <ele>30.8995</ele>
        <time>2013-04-27T11:24:35Z</time>
      </trkpt>
      <trkpt lat="60.0070604" lon="17.528849">
        <ele>30.8995</ele>
        <time>2013-04-27T11:24:36Z</time>
      </trkpt>
      <trkpt lat="60.0070082" lon="17.5287811">
        <ele>30.8995</ele>
        <time>2013-04-27T11:24:37Z</time>
      </trkpt>
      <trkpt lat="60.0069573" lon="17.5287098">
        <ele>30.8995</ele>
        <time>2013-04-27T11:24:38Z</time>
      </trkpt>
      <trkpt lat="60.0069095" lon="17.5286345">
        <ele>30.4188</ele>
        <time>2013-04-27T11:24:39Z</time>
      </trkpt>
      <trkpt lat="60.006862" lon="17.5285553">
        <ele>30.4188</ele>
        <time>2013-04-27T11:24:40Z</time>
      </trkpt>
      <trkpt lat="60.0068164" lon="17.5284805">
        <ele>30.4188</ele>
        <time>2013-04-27T11:24:41Z</time>
      </trkpt>
      <trkpt lat="60.0067712" lon="17.5284009">
        <ele>29.9381</ele>
        <time>2013-04-27T11:24:42Z</time>
      </trkpt>
      <trkpt lat="60.0067276" lon="17.5283168">
        <ele>29.9381</ele>
        <time>2013-04-27T11:24:43Z</time>
      </trkpt>
      <trkpt lat="60.0066833" lon="17.5282311">
        <ele>29.9381</ele>
        <time>2013-04-27T11:24:44Z</time>
      </trkpt>
      <trkpt lat="60.0066391" lon="17.5281464">
        <ele>29.9381</ele>
        <time>2013-04-27T11:24:45Z</time>
      </trkpt>
      <trkpt lat="60.006596" lon="17.5280596">
        <ele>29.9381</ele>
        <time>2013-04-27T11:24:46Z</time>
      </trkpt>
      <trkpt lat="60.0065538" lon="17.5279715">
        <ele>29.4575</ele>
        <time>2013-04-27T11:24:47Z</time>
      </trkpt>
      <trkpt lat="60.0065138" lon="17.527884">
        <ele>29.4575</ele>
        <time>2013-04-27T11:24:48Z</time>
      </trkpt>
      <trkpt lat="60.0064756" lon="17.5277953">
        <ele>28.9769</ele>
        <time>2013-04-27T11:24:49Z</time>
      </trkpt>
      <trkpt lat="60.0064373" lon="17.5277069">
        <ele>28.9769</ele>
        <time>2013-04-27T11:24:50Z</time>
      </trkpt>
      <trkpt lat="60.0064002" lon="17.5276163">
        <ele>28.9769</ele>
        <time>2013-04-27T11:24:51Z</time>
      </trkpt>
      <trkpt lat="60.0063633" lon="17.5275229">
        <ele>28.9769</ele>
        <time>2013-04-27T11:24:52Z</time>
      </trkpt>
      <trkpt lat="60.0063272" lon="17.5274291">
        <ele>28.9769</ele>
        <time>2013-04-27T11:24:53Z</time>
      </trkpt>
      <trkpt lat="60.0062921" lon="17.5273348">
        <ele>28.9769</ele>
        <time>2013-04-27T11:24:54Z</time>
      </trkpt>
      <trkpt lat="60.0062583" lon="17.527239">
        <ele>28.9769</ele>
        <time>2013-04-27T11:24:55Z</time>
      </trkpt>
      <trkpt lat="60.0062259" lon="17.5271408">
        <ele>28.9769</ele>
        <time>2013-04-27T11:24:56Z</time>
      </trkpt>
      <trkpt lat="60.0061951" lon="17.5270413">
        <ele>28.9769</ele>
        <time>2013-04-27T11:24:57Z</time>
      </trkpt>
      <trkpt lat="60.0061649" lon="17.5269406">
        <ele>28.4962</ele>
        <time>2013-04-27T11:24:58Z</time>
      </trkpt>
      <trkpt lat="60.0061347" lon="17.5268393">
        <ele>28.4962</ele>
        <time>2013-04-27T11:24:59Z</time>
      </trkpt>
      <trkpt lat="60.0061041" lon="17.5267391">
        <ele>28.4962</ele>
        <time>2013-04-27T11:25:00Z</time>
      </trkpt>
      <trkpt lat="60.0060746" lon="17.5266387">
        <ele>28.4962</ele>
        <time>2013-04-27T11:25:01Z</time>
      </trkpt>
      <trkpt lat="60.006047" lon="17.5265371">
        <ele>28.4962</ele>
        <time>2013-04-27T11:25:02Z</time>
      </trkpt>
      <trkpt lat="60.0060193" lon="17.5264361">
        <ele>28.4962</ele>
        <time>2013-04-27T11:25:03Z</time>
      </trkpt>
      <trkpt lat="60.0059906" lon="17.5263358">
        <ele>28.4962</ele>
        <time>2013-04-27T11:25:04Z</time>
      </trkpt>
      <trkpt lat="60.0059618" lon="17.5262352">
        <ele>28.4962</ele>
        <time>2013-04-27T11:25:05Z</time>
      </trkpt>
      <trkpt lat="60.0059336" lon="17.5261339">
        <ele>28.9769</ele>
        <time>2013-04-27T11:25:06Z</time>
      </trkpt>
      <trkpt lat="60.0059051" lon="17.5260331">
        <ele>28.9769</ele>
        <time>2013-04-27T11:25:07Z</time>
      </trkpt>
      <trkpt lat="60.0058757" lon="17.5259326">
        <ele>28.9769</ele>
        <time>2013-04-27T11:25:08Z</time>
      </trkpt>
      <trkpt lat="60.0058462" lon="17.5258321">
        <ele>28.9769</ele>
        <time>2013-04-27T11:25:09Z</time>
      </trkpt>
      <trkpt lat="60.0058173" lon="17.5257302">
        <ele>28.9769</ele>
        <time>2013-04-27T11:25:10Z</time>
      </trkpt>
      <trkpt lat="60.0057892" lon="17.5256279">
        <ele>28.9769</ele>
        <time>2013-04-27T11:25:11Z</time>
      </trkpt>
      <trkpt lat="60.0057607" lon="17.525525">
        <ele>28.9769</ele>
        <time>2013-04-27T11:25:12Z</time>
      </trkpt>
      <trkpt lat="60.0057322" lon="17.525423">
        <ele>28.9769</ele>
        <time>2013-04-27T11:25:13Z</time>
      </trkpt>
      <trkpt lat="60.0057031" lon="17.5253219">
        <ele>28.9769</ele>
        <time>2013-04-27T11:25:14Z</time>
      </trkpt>
      <trkpt lat="60.0056742" lon="17.5252215">
        <ele>28.4962</ele>
        <time>2013-04-27T11:25:15Z</time>
      </trkpt>
      <trkpt lat="60.0056448" lon="17.5251179">
        <ele>28.4962</ele>
        <time>2013-04-27T11:25:16Z</time>
      </trkpt>
      <trkpt lat="60.0056152" lon="17.5250128">
        <ele>28.4962</ele>
        <time>2013-04-27T11:25:17Z</time>
      </trkpt>
      <trkpt lat="60.0055847" lon="17.5249071">
        <ele>28.4962</ele>
        <time>2013-04-27T11:25:18Z</time>
      </trkpt>
      <trkpt lat="60.0055541" lon="17.5248028">
        <ele>28.4962</ele>
        <time>2013-04-27T11:25:19Z</time>
      </trkpt>
      <trkpt lat="60.0055249" lon="17.5246987">
        <ele>28.0155</ele>
        <time>2013-04-27T11:25:20Z</time>
      </trkpt>
      <trkpt lat="60.0054959" lon="17.5245946">
        <ele>28.0155</ele>
        <time>2013-04-27T11:25:21Z</time>
      </trkpt>
      <trkpt lat="60.0054669" lon="17.5244895">
        <ele>27.5349</ele>
        <time>2013-04-27T11:25:22Z</time>
      </trkpt>
      <trkpt lat="60.0054367" lon="17.524381">
        <ele>27.0543</ele>
        <time>2013-04-27T11:25:23Z</time>
      </trkpt>
      <trkpt lat="60.0054059" lon="17.5242712">
        <ele>26.5736</ele>
        <time>2013-04-27T11:25:24Z</time>
      </trkpt>
      <trkpt lat="60.0053747" lon="17.5241593">
        <ele>26.5736</ele>
        <time>2013-04-27T11:25:25Z</time>
      </trkpt>
      <trkpt lat="60.0053433" lon="17.5240479">
        <ele>26.0929</ele>
        <time>2013-04-27T11:25:26Z</time>
      </trkpt>
      <trkpt lat="60.005312" lon="17.5239363">
        <ele>26.0929</ele>
        <time>2013-04-27T11:25:27Z</time>
      </trkpt>
      <trkpt lat="60.0052813" lon="17.5238276">
        <ele>25.6123</ele>
        <time>2013-04-27T11:25:28Z</time>
      </trkpt>
      <trkpt lat="60.0052499" lon="17.5237166">
        <ele>25.6123</ele>
        <time>2013-04-27T11:25:29Z</time>
      </trkpt>
      <trkpt lat="60.0052188" lon="17.5236053">
        <ele>25.6123</ele>
        <time>2013-04-27T11:25:30Z</time>
      </trkpt>
      <trkpt lat="60.0051862" lon="17.5234923">
        <ele>25.6123</ele>
        <time>2013-04-27T11:25:31Z</time>
      </trkpt>
      <trkpt lat="60.0051537" lon="17.5233782">
        <ele>25.6123</ele>
        <time>2013-04-27T11:25:32Z</time>
      </trkpt>
      <trkpt lat="60.0051214" lon="17.523264">
        <ele>25.6123</ele>
        <time>2013-04-27T11:25:33Z</time>
      </trkpt>
      <trkpt lat="60.0050888" lon="17.5231478">
        <ele>25.6123</ele>
        <time>2013-04-27T11:25:34Z</time>
      </trkpt>
      <trkpt lat="60.0050568" lon="17.5230302">
        <ele>25.6123</ele>
        <time>2013-04-27T11:25:35Z</time>
      </trkpt>
      <trkpt lat="60.0050254" lon="17.5229158">
        <ele>25.6123</ele>
        <time>2013-04-27T11:25:36Z</time>
      </trkpt>
      <trkpt lat="60.0049935" lon="17.5228069">
        <ele>25.6123</ele>
        <time>2013-04-27T11:25:37Z</time>
      </trkpt>
      <trkpt lat="60.0049603" lon="17.5226965">
        <ele>25.6123</ele>
        <time>2013-04-27T11:25:38Z</time>
      </trkpt>
      <trkpt lat="60.0049262" lon="17.5225814">
        <ele>25.6123</ele>
        <time>2013-04-27T11:25:39Z</time>
      </trkpt>
      <trkpt lat="60.0048937" lon="17.5224666">
        <ele>25.6123</ele>
        <time>2013-04-27T11:25:40Z</time>
      </trkpt>
      <trkpt lat="60.0048614" lon="17.5223543">
        <ele>25.6123</ele>
        <time>2013-04-27T11:25:41Z</time>
      </trkpt>
      <trkpt lat="60.0048293" lon="17.5222427">
        <ele>25.1317</ele>
        <time>2013-04-27T11:25:42Z</time>
      </trkpt>
      <trkpt lat="60.0047982" lon="17.5221319">
        <ele>25.1317</ele>
        <time>2013-04-27T11:25:43Z</time>
      </trkpt>
      <trkpt lat="60.0047672" lon="17.5220237">
        <ele>25.1317</ele>
        <time>2013-04-27T11:25:44Z</time>
      </trkpt>
      <trkpt lat="60.0047364" lon="17.5219192">
        <ele>25.1317</ele>
        <time>2013-04-27T11:25:45Z</time>
      </trkpt>
      <trkpt lat="60.0047066" lon="17.5218171">
        <ele>25.1317</ele>
        <time>2013-04-27T11:25:46Z</time>
      </trkpt>
      <trkpt lat="60.0046766" lon="17.5217171">
        <ele>24.651</ele>
        <time>2013-04-27T11:25:47Z</time>
      </trkpt>
      <trkpt lat="60.0046468" lon="17.5216176">
        <ele>24.651</ele>
        <time>2013-04-27T11:25:48Z</time>
      </trkpt>
      <trkpt lat="60.0046184" lon="17.5215162">
        <ele>24.651</ele>
        <time>2013-04-27T11:25:49Z</time>
      </trkpt>
      <trkpt lat="60.0045899" lon="17.5214138">
        <ele>24.651</ele>
        <time>2013-04-27T11:25:50Z</time>
      </trkpt>
      <trkpt lat="60.0045604" lon="17.521313">
        <ele>24.651</ele>
        <time>2013-04-27T11:25:51Z</time>
      </trkpt>
      <trkpt lat="60.0045309" lon="17.5212123">
        <ele>24.1703</ele>
        <time>2013-04-27T11:25:52Z</time>
      </trkpt>
      <trkpt lat="60.0045015" lon="17.5211098">
        <ele>24.1703</ele>
        <time>2013-04-27T11:25:53Z</time>
      </trkpt>
      <trkpt lat="60.0044725" lon="17.5210086">
        <ele>24.1703</ele>
        <time>2013-04-27T11:25:54Z</time>
      </trkpt>
      <trkpt lat="60.0044438" lon="17.5209084">
        <ele>24.1703</ele>
        <time>2013-04-27T11:25:55Z</time>
      </trkpt>
      <trkpt lat="60.0044139" lon="17.5208054">
        <ele>24.1703</ele>
        <time>2013-04-27T11:25:56Z</time>
      </trkpt>
      <trkpt lat="60.0043829" lon="17.5207029">
        <ele>24.1703</ele>
        <time>2013-04-27T11:25:57Z</time>
      </trkpt>
      <trkpt lat="60.004352" lon="17.5206007">
        <ele>24.651</ele>
        <time>2013-04-27T11:25:58Z</time>
      </trkpt>
      <trkpt lat="60.0043211" lon="17.5204986">
        <ele>24.651</ele>
        <time>2013-04-27T11:25:59Z</time>
      </trkpt>
      <trkpt lat="60.00429" lon="17.5203975">
        <ele>24.651</ele>
        <time>2013-04-27T11:26:00Z</time>
      </trkpt>
      <trkpt lat="60.0042586" lon="17.5202965">
        <ele>24.651</ele>
        <time>2013-04-27T11:26:01Z</time>
      </trkpt>
      <trkpt lat="60.0042264" lon="17.5201946">
        <ele>24.651</ele>
        <time>2013-04-27T11:26:02Z</time>
      </trkpt>
      <trkpt lat="60.0041942" lon="17.5200937">
        <ele>24.651</ele>
        <time>2013-04-27T11:26:03Z</time>
      </trkpt>
      <trkpt lat="60.0041611" lon="17.5199946">
        <ele>24.651</ele>
        <time>2013-04-27T11:26:04Z</time>
      </trkpt>
      <trkpt lat="60.0041277" lon="17.5198976">
        <ele>24.1703</ele>
        <time>2013-04-27T11:26:05Z</time>
      </trkpt>
      <trkpt lat="60.0040943" lon="17.5198013">
        <ele>24.1703</ele>
        <time>2013-04-27T11:26:06Z</time>
      </trkpt>
      <trkpt lat="60.0040614" lon="17.5197066">
        <ele>24.1703</ele>
        <time>2013-04-27T11:26:07Z</time>
      </trkpt>
      <trkpt lat="60.0040278" lon="17.5196144">
        <ele>24.1703</ele>
        <time>2013-04-27T11:26:08Z</time>
      </trkpt>
      <trkpt lat="60.0039951" lon="17.5195229">
        <ele>24.1703</ele>
        <time>2013-04-27T11:26:09Z</time>
      </trkpt>
      <trkpt lat="60.0039622" lon="17.5194321">
        <ele>24.1703</ele>
        <time>2013-04-27T11:26:10Z</time>
      </trkpt>
      <trkpt lat="60.0039283" lon="17.5193441">
        <ele>24.1703</ele>
        <time>2013-04-27T11:26:11Z</time>
      </trkpt>
      <trkpt lat="60.0038927" lon="17.5192586">
        <ele>24.1703</ele>
        <time>2013-04-27T11:26:12Z</time>
      </trkpt>
      <trkpt lat="60.0038568" lon="17.5191721">
        <ele>24.1703</ele>
        <time>2013-04-27T11:26:13Z</time>
      </trkpt>
      <trkpt lat="60.0038208" lon="17.5190844">
        <ele>24.1703</ele>
        <time>2013-04-27T11:26:14Z</time>
      </trkpt>
      <trkpt lat="60.0037836" lon="17.518998">
        <ele>24.1703</ele>
        <time>2013-04-27T11:26:15Z</time>
      </trkpt>
      <trkpt lat="60.0037456" lon="17.5189121">
        <ele>24.1703</ele>
        <time>2013-04-27T11:26:16Z</time>
      </trkpt>
      <trkpt lat="60.0037063" lon="17.5188269">
        <ele>24.1703</ele>
        <time>2013-04-27T11:26:17Z</time>
      </trkpt>
      <trkpt lat="60.003667" lon="17.5187421">
        <ele>24.651</ele>
        <time>2013-04-27T11:26:18Z</time>
      </trkpt>
      <trkpt lat="60.0036279" lon="17.5186578">
        <ele>24.651</ele>
        <time>2013-04-27T11:26:19Z</time>
      </trkpt>
      <trkpt lat="60.0035876" lon="17.5185755">
        <ele>24.651</ele>
        <time>2013-04-27T11:26:20Z</time>
      </trkpt>
      <trkpt lat="60.0035462" lon="17.5184955">
        <ele>24.651</ele>
        <time>2013-04-27T11:26:21Z</time>
      </trkpt>
      <trkpt lat="60.0035048" lon="17.5184166">
        <ele>24.651</ele>
        <time>2013-04-27T11:26:22Z</time>
      </trkpt>
      <trkpt lat="60.0034638" lon="17.5183386">
        <ele>24.651</ele>
        <time>2013-04-27T11:26:23Z</time>
      </trkpt>
      <trkpt lat="60.0034233" lon="17.518262">
        <ele>24.651</ele>
        <time>2013-04-27T11:26:24Z</time>
      </trkpt>
      <trkpt lat="60.0033823" lon="17.5181858">
        <ele>25.1317</ele>
        <time>2013-04-27T11:26:25Z</time>
      </trkpt>
      <trkpt lat="60.0033404" lon="17.5181098">
        <ele>25.1317</ele>
        <time>2013-04-27T11:26:26Z</time>
      </trkpt>
      <trkpt lat="60.0032985" lon="17.5180346">
        <ele>25.1317</ele>
        <time>2013-04-27T11:26:27Z</time>
      </trkpt>
      <trkpt lat="60.0032571" lon="17.5179593">
        <ele>25.1317</ele>
        <time>2013-04-27T11:26:28Z</time>
      </trkpt>
      <trkpt lat="60.0032157" lon="17.5178857">
        <ele>25.1317</ele>
        <time>2013-04-27T11:26:29Z</time>
      </trkpt>
      <trkpt lat="60.0031743" lon="17.5178144">
        <ele>25.1317</ele>
        <time>2013-04-27T11:26:30Z</time>
      </trkpt>
      <trkpt lat="60.0031328" lon="17.5177434">
        <ele>25.1317</ele>
        <time>2013-04-27T11:26:31Z</time>
      </trkpt>
      <trkpt lat="60.0030919" lon="17.5176709">
        <ele>25.1317</ele>
        <time>2013-04-27T11:26:32Z</time>
      </trkpt>
      <trkpt lat="60.003052" lon="17.5175973">
        <ele>25.1317</ele>
        <time>2013-04-27T11:26:33Z</time>
      </trkpt>
      <trkpt lat="60.0030116" lon="17.5175273">
        <ele>25.1317</ele>
        <time>2013-04-27T11:26:34Z</time>
      </trkpt>
      <trkpt lat="60.0029712" lon="17.517459">
        <ele>25.1317</ele>
        <time>2013-04-27T11:26:35Z</time>
      </trkpt>
      <trkpt lat="60.0029308" lon="17.5173894">
        <ele>25.1317</ele>
        <time>2013-04-27T11:26:36Z</time>
      </trkpt>
      <trkpt lat="60.0028902" lon="17.5173207">
        <ele>25.6123</ele>
        <time>2013-04-27T11:26:37Z</time>
      </trkpt>
      <trkpt lat="60.0028495" lon="17.5172534">
        <ele>25.6123</ele>
        <time>2013-04-27T11:26:38Z</time>
      </trkpt>
      <trkpt lat="60.0028082" lon="17.5171846">
        <ele>26.0929</ele>
        <time>2013-04-27T11:26:39Z</time>
      </trkpt>
      <trkpt lat="60.002767" lon="17.5171155">
        <ele>26.5736</ele>
        <time>2013-04-27T11:26:40Z</time>
      </trkpt>
      <trkpt lat="60.0027268" lon="17.5170466">
        <ele>26.5736</ele>
        <time>2013-04-27T11:26:41Z</time>
      </trkpt>
      <trkpt lat="60.0026869" lon="17.5169771">
        <ele>26.5736</ele>
        <time>2013-04-27T11:26:42Z</time>
      </trkpt>
      <trkpt lat="60.0026473" lon="17.5169063">
        <ele>26.5736</ele>
        <time>2013-04-27T11:26:43Z</time>
      </trkpt>
      <trkpt lat="60.0026098" lon="17.5168404">
        <ele>26.5736</ele>
        <time>2013-04-27T11:26:44Z</time>
      </trkpt>
      <trkpt lat="60.0025717" lon="17.5167758">
        <ele>26.5736</ele>
        <time>2013-04-27T11:26:45Z</time>
      </trkpt>
      <trkpt lat="60.0025329" lon="17.5167116">
        <ele>26.5736</ele>
        <time>2013-04-27T11:26:46Z</time>
      </trkpt>
      <trkpt lat="60.002495" lon="17.5166488">
        <ele>26.5736</ele>
        <time>2013-04-27T11:26:47Z</time>
      </trkpt>
      <trkpt lat="60.002458" lon="17.5165852">
        <ele>27.0543</ele>
        <time>2013-04-27T11:26:48Z</time>
      </trkpt>
      <trkpt lat="60.0024221" lon="17.5165245">
        <ele>27.0543</ele>
        <time>2013-04-27T11:26:49Z</time>
      </trkpt>
      <trkpt lat="60.0023865" lon="17.5164681">
        <ele>27.5349</ele>
        <time>2013-04-27T11:26:50Z</time>
      </trkpt>
      <trkpt lat="60.0023517" lon="17.5164133">
        <ele>27.5349</ele>
        <time>2013-04-27T11:26:51Z</time>
      </trkpt>
      <trkpt lat="60.0023209" lon="17.5163615">
        <ele>27.5349</ele>
        <time>2013-04-27T11:26:52Z</time>
      </trkpt>
      <trkpt lat="60.0022914" lon="17.5163075">
        <ele>28.0155</ele>
        <time>2013-04-27T11:26:53Z</time>
      </trkpt>
      <trkpt lat="60.002259" lon="17.5162526">
        <ele>28.0155</ele>
        <time>2013-04-27T11:26:54Z</time>
      </trkpt>
      <trkpt lat="60.0022274" lon="17.5161981">
        <ele>28.4962</ele>
        <time>2013-04-27T11:26:55Z</time>
      </trkpt>
      <trkpt lat="60.002195" lon="17.5161426">
        <ele>28.4962</ele>
        <time>2013-04-27T11:26:56Z</time>
      </trkpt>
      <trkpt lat="60.00216" lon="17.5160882">
        <ele>28.9769</ele>
        <time>2013-04-27T11:26:57Z</time>
      </trkpt>
      <trkpt lat="60.0021227" lon="17.516038">
        <ele>28.9769</ele>
        <time>2013-04-27T11:26:58Z</time>
      </trkpt>
      <trkpt lat="60.0020839" lon="17.515993">
        <ele>29.4575</ele>
        <time>2013-04-27T11:26:59Z</time>
      </trkpt>
      <trkpt lat="60.002044" lon="17.5159547">
        <ele>29.4575</ele>
        <time>2013-04-27T11:27:00Z</time>
      </trkpt>
      <trkpt lat="60.0020025" lon="17.5159159">
        <ele>29.4575</ele>
        <time>2013-04-27T11:27:01Z</time>
      </trkpt>
      <trkpt lat="60.0019591" lon="17.5158816">
        <ele>29.4575</ele>
        <time>2013-04-27T11:27:02Z</time>
      </trkpt>
      <trkpt lat="60.0019133" lon="17.5158438">
        <ele>28.9769</ele>
        <time>2013-04-27T11:27:03Z</time>
      </trkpt>
      <trkpt lat="60.0018649" lon="17.5158086">
        <ele>29.4575</ele>
        <time>2013-04-27T11:27:04Z</time>
      </trkpt>
      <trkpt lat="60.0018131" lon="17.5157734">
        <ele>29.4575</ele>
        <time>2013-04-27T11:27:05Z</time>
      </trkpt>
      <trkpt lat="60.0017586" lon="17.515739">
        <ele>29.9381</ele>
        <time>2013-04-27T11:27:06Z</time>
      </trkpt>
      <trkpt lat="60.0017011" lon="17.5157062">
        <ele>29.4575</ele>
        <time>2013-04-27T11:27:07Z</time>
      </trkpt>
      <trkpt lat="60.0016424" lon="17.5156792">
        <ele>29.4575</ele>
        <time>2013-04-27T11:27:08Z</time>
      </trkpt>
      <trkpt lat="60.0015841" lon="17.515651">
        <ele>29.4575</ele>
        <time>2013-04-27T11:27:09Z</time>
      </trkpt>
      <trkpt lat="60.001526" lon="17.5156149">
        <ele>29.9381</ele>
        <time>2013-04-27T11:27:10Z</time>
      </trkpt>
      <trkpt lat="60.0014685" lon="17.5155813">
        <ele>29.9381</ele>
        <time>2013-04-27T11:27:11Z</time>
      </trkpt>
      <trkpt lat="60.0014141" lon="17.5155507">
        <ele>29.9381</ele>
        <time>2013-04-27T11:27:12Z</time>
      </trkpt>
      <trkpt lat="60.0013587" lon="17.5155174">
        <ele>30.4188</ele>
        <time>2013-04-27T11:27:13Z</time>
      </trkpt>
      <trkpt lat="60.0013025" lon="17.5154864">
        <ele>30.8995</ele>
        <time>2013-04-27T11:27:14Z</time>
      </trkpt>
      <trkpt lat="60.0012473" lon="17.5154562">
        <ele>31.3801</ele>
        <time>2013-04-27T11:27:15Z</time>
      </trkpt>
      <trkpt lat="60.0011944" lon="17.5154313">
        <ele>30.8995</ele>
        <time>2013-04-27T11:27:16Z</time>
      </trkpt>
      <trkpt lat="60.001138" lon="17.5154092">
        <ele>30.8995</ele>
        <time>2013-04-27T11:27:17Z</time>
      </trkpt>
      <trkpt lat="60.001084" lon="17.5153879">
        <ele>30.4188</ele>
        <time>2013-04-27T11:27:18Z</time>
      </trkpt>
      <trkpt lat="60.0010287" lon="17.5153694">
        <ele>30.4188</ele>
        <time>2013-04-27T11:27:19Z</time>
      </trkpt>
      <trkpt lat="60.0009748" lon="17.5153461">
        <ele>30.8995</ele>
        <time>2013-04-27T11:27:20Z</time>
      </trkpt>
      <trkpt lat="60.0009282" lon="17.5153212">
        <ele>30.8995</ele>
        <time>2013-04-27T11:27:21Z</time>
      </trkpt>
      <trkpt lat="60.0008836" lon="17.5152977">
        <ele>31.3801</ele>
        <time>2013-04-27T11:27:22Z</time>
      </trkpt>
      <trkpt lat="60.0008339" lon="17.5152756">
        <ele>31.8607</ele>
        <time>2013-04-27T11:27:23Z</time>
      </trkpt>
      <trkpt lat="60.0007855" lon="17.5152557">
        <ele>32.3416</ele>
        <time>2013-04-27T11:27:24Z</time>
      </trkpt>
      <trkpt lat="60.0007339" lon="17.5152316">
        <ele>32.3416</ele>
        <time>2013-04-27T11:27:25Z</time>
      </trkpt>
      <trkpt lat="60.0006811" lon="17.5152066">
        <ele>31.8607</ele>
        <time>2013-04-27T11:27:26Z</time>
      </trkpt>
      <trkpt lat="60.0006249" lon="17.5151835">
        <ele>31.8607</ele>
        <time>2013-04-27T11:27:27Z</time>
      </trkpt>
      <trkpt lat="60.0005662" lon="17.5151654">
        <ele>31.8607</ele>
        <time>2013-04-27T11:27:28Z</time>
      </trkpt>
      <trkpt lat="60.0005061" lon="17.5151594">
        <ele>31.8607</ele>
        <time>2013-04-27T11:27:29Z</time>
      </trkpt>
      <trkpt lat="60.0004438" lon="17.5151586">
        <ele>31.8607</ele>
        <time>2013-04-27T11:27:30Z</time>
      </trkpt>
      <trkpt lat="60.0003831" lon="17.5151658">
        <ele>31.8607</ele>
        <time>2013-04-27T11:27:31Z</time>
      </trkpt>
      <trkpt lat="60.000321" lon="17.5151889">
        <ele>31.8607</ele>
        <time>2013-04-27T11:27:32Z</time>
      </trkpt>
      <trkpt lat="60.0002598" lon="17.5152259">
        <ele>32.3416</ele>
        <time>2013-04-27T11:27:33Z</time>
      </trkpt>
      <trkpt lat="60.0001988" lon="17.5152771">
        <ele>31.8607</ele>
        <time>2013-04-27T11:27:34Z</time>
      </trkpt>
      <trkpt lat="60.000138" lon="17.5153324">
        <ele>31.8607</ele>
        <time>2013-04-27T11:27:35Z</time>
      </trkpt>
      <trkpt lat="60.0000736" lon="17.5153879">
        <ele>31.8607</ele>
        <time>2013-04-27T11:27:36Z</time>
      </trkpt>
      <trkpt lat="60.0000077" lon="17.5154389">
        <ele>31.8607</ele>
        <time>2013-04-27T11:27:37Z</time>
      </trkpt>
      <trkpt lat="59.9999398" lon="17.5154845">
        <ele>31.8607</ele>
        <time>2013-04-27T11:27:38Z</time>
      </trkpt>
      <trkpt lat="59.9998686" lon="17.5155138">
        <ele>32.3416</ele>
        <time>2013-04-27T11:27:39Z</time>
      </trkpt>
      <trkpt lat="59.9997949" lon="17.5155262">
        <ele>32.3416</ele>
        <time>2013-04-27T11:27:40Z</time>
      </trkpt>
      <trkpt lat="59.9997221" lon="17.5155223">
        <ele>32.3416</ele>
        <time>2013-04-27T11:27:41Z</time>
      </trkpt>
      <trkpt lat="59.9996507" lon="17.515504">
        <ele>32.3416</ele>
        <time>2013-04-27T11:27:42Z</time>
      </trkpt>
      <trkpt lat="59.999581" lon="17.5154725">
        <ele>32.3416</ele>
        <time>2013-04-27T11:27:43Z</time>
      </trkpt>
      <trkpt lat="59.9995139" lon="17.5154267">
        <ele>32.3416</ele>
        <time>2013-04-27T11:27:44Z</time>
      </trkpt>
      <trkpt lat="59.9994488" lon="17.5153704">
        <ele>32.3416</ele>
        <time>2013-04-27T11:27:45Z</time>
      </trkpt>
      <trkpt lat="59.9993854" lon="17.5153107">
        <ele>31.8607</ele>
        <time>2013-04-27T11:27:46Z</time>
      </trkpt>
      <trkpt lat="59.9993245" lon="17.5152497">
        <ele>31.8607</ele>
        <time>2013-04-27T11:27:47Z</time>
      </trkpt>
      <trkpt lat="59.9992675" lon="17.5151895">
        <ele>31.3801</ele>
        <time>2013-04-27T11:27:48Z</time>
      </trkpt>
      <trkpt lat="59.9992137" lon="17.5151275">
        <ele>31.3801</ele>
        <time>2013-04-27T11:27:49Z</time>
      </trkpt>
      <trkpt lat="59.9991633" lon="17.5150616">
        <ele>31.3801</ele>
        <time>2013-04-27T11:27:50Z</time>
      </trkpt>
      <trkpt lat="59.9991162" lon="17.5149907">
        <ele>31.3801</ele>
        <time>2013-04-27T11:27:51Z</time>
      </trkpt>
      <trkpt lat="59.9990722" lon="17.5149128">
        <ele>31.8607</ele>
        <time>2013-04-27T11:27:52Z</time>
      </trkpt>
      <trkpt lat="59.9990342" lon="17.5148251">
        <ele>31.3801</ele>
        <time>2013-04-27T11:27:53Z</time>
      </trkpt>
      <trkpt lat="59.9990001" lon="17.5147311">
        <ele>31.3801</ele>
        <time>2013-04-27T11:27:54Z</time>
      </trkpt>
      <trkpt lat="59.9989686" lon="17.514637">
        <ele>31.3801</ele>
        <time>2013-04-27T11:27:55Z</time>
      </trkpt>
      <trkpt lat="59.9989379" lon="17.5145453">
        <ele>31.3801</ele>
        <time>2013-04-27T11:27:56Z</time>
      </trkpt>
      <trkpt lat="59.9989065" lon="17.5144544">
        <ele>31.8607</ele>
        <time>2013-04-27T11:27:57Z</time>
      </trkpt>
      <trkpt lat="59.9988717" lon="17.5143659">
        <ele>31.8607</ele>
        <time>2013-04-27T11:27:58Z</time>
      </trkpt>
      <trkpt lat="59.9988344" lon="17.5142821">
        <ele>31.8607</ele>
        <time>2013-04-27T11:27:59Z</time>
      </trkpt>
      <trkpt lat="59.9987955" lon="17.5142008">
        <ele>31.8607</ele>
        <time>2013-04-27T11:28:00Z</time>
      </trkpt>
      <trkpt lat="59.9987514" lon="17.514125">
        <ele>31.3801</ele>
        <time>2013-04-27T11:28:01Z</time>
      </trkpt>
      <trkpt lat="59.9987045" lon="17.5140525">
        <ele>31.3801</ele>
        <time>2013-04-27T11:28:02Z</time>
      </trkpt>
      <trkpt lat="59.9986556" lon="17.5139816">
        <ele>30.8995</ele>
        <time>2013-04-27T11:28:03Z</time>
      </trkpt>
      <trkpt lat="59.9986065" lon="17.5139107">
        <ele>30.8995</ele>
        <time>2013-04-27T11:28:04Z</time>
      </trkpt>
      <trkpt lat="59.9985574" lon="17.5138357">
        <ele>30.4188</ele>
        <time>2013-04-27T11:28:05Z</time>
      </trkpt>
      <trkpt lat="59.998507" lon="17.5137603">
        <ele>30.4188</ele>
        <time>2013-04-27T11:28:06Z</time>
      </trkpt>
      <trkpt lat="59.9984531" lon="17.5136896">
        <ele>29.9381</ele>
        <time>2013-04-27T11:28:07Z</time>
      </trkpt>
      <trkpt lat="59.998396" lon="17.5136263">
        <ele>29.4575</ele>
        <time>2013-04-27T11:28:08Z</time>
      </trkpt>
      <trkpt lat="59.998334" lon="17.5135706">
        <ele>28.9769</ele>
        <time>2013-04-27T11:28:09Z</time>
      </trkpt>
      <trkpt lat="59.9982656" lon="17.5135235">
        <ele>28.4962</ele>
        <time>2013-04-27T11:28:10Z</time>
      </trkpt>
      <trkpt lat="59.9981924" lon="17.5134857">
        <ele>28.0155</ele>
        <time>2013-04-27T11:28:11Z</time>
      </trkpt>
      <trkpt lat="59.9981159" lon="17.5134563">
        <ele>27.5349</ele>
        <time>2013-04-27T11:28:12Z</time>
      </trkpt>
      <trkpt lat="59.9980397" lon="17.513431">
        <ele>27.5349</ele>
        <time>2013-04-27T11:28:13Z</time>
      </trkpt>
      <trkpt lat="59.9979655" lon="17.5134072">
        <ele>27.0543</ele>
        <time>2013-04-27T11:28:14Z</time>
      </trkpt>
      <trkpt lat="59.9978922" lon="17.5133854">
        <ele>27.0543</ele>
        <time>2013-04-27T11:28:15Z</time>
      </trkpt>
      <trkpt lat="59.997821" lon="17.513365">
        <ele>26.5736</ele>
        <time>2013-04-27T11:28:16Z</time>
      </trkpt>
      <trkpt lat="59.9977492" lon="17.5133453">
        <ele>26.5736</ele>
        <time>2013-04-27T11:28:17Z</time>
      </trkpt>
      <trkpt lat="59.9976776" lon="17.5133269">
        <ele>26.5736</ele>
        <time>2013-04-27T11:28:18Z</time>
      </trkpt>
      <trkpt lat="59.9976065" lon="17.5133088">
        <ele>26.5736</ele>
        <time>2013-04-27T11:28:19Z</time>
      </trkpt>
      <trkpt lat="59.9975353" lon="17.5132897">
        <ele>26.0929</ele>
        <time>2013-04-27T11:28:20Z</time>
      </trkpt>
      <trkpt lat="59.9974635" lon="17.5132703">
        <ele>26.0929</ele>
        <time>2013-04-27T11:28:21Z</time>
      </trkpt>
      <trkpt lat="59.9973933" lon="17.5132541">
        <ele>26.5736</ele>
        <time>2013-04-27T11:28:22Z</time>
      </trkpt>
      <trkpt lat="59.9973249" lon="17.5132388">
        <ele>26.0929</ele>
        <time>2013-04-27T11:28:23Z</time>
      </trkpt>
      <trkpt lat="59.997257" lon="17.5132221">
        <ele>26.0929</ele>
        <time>2013-04-27T11:28:24Z</time>
      </trkpt>
      <trkpt lat="59.9971882" lon="17.5132029">
        <ele>26.0929</ele>
        <time>2013-04-27T11:28:25Z</time>
      </trkpt>
      <trkpt lat="59.9971193" lon="17.513184">
        <ele>26.0929</ele>
        <time>2013-04-27T11:28:26Z</time>
      </trkpt>
      <trkpt lat="59.9970504" lon="17.5131654">
        <ele>26.5736</ele>
        <time>2013-04-27T11:28:27Z</time>
      </trkpt>
      <trkpt lat="59.996982" lon="17.5131472">
        <ele>26.5736</ele>
        <time>2013-04-27T11:28:28Z</time>
      </trkpt>
      <trkpt lat="59.9969146" lon="17.5131295">
        <ele>26.5736</ele>
        <time>2013-04-27T11:28:29Z</time>
      </trkpt>
      <trkpt lat="59.9968467" lon="17.5131122">
        <ele>26.5736</ele>
        <time>2013-04-27T11:28:30Z</time>
      </trkpt>
      <trkpt lat="59.9967785" lon="17.5130938">
        <ele>26.5736</ele>
        <time>2013-04-27T11:28:31Z</time>
      </trkpt>
      <trkpt lat="59.9967117" lon="17.5130751">
        <ele>26.5736</ele>
        <time>2013-04-27T11:28:32Z</time>
      </trkpt>
      <trkpt lat="59.9966463" lon="17.5130583">
        <ele>26.5736</ele>
        <time>2013-04-27T11:28:33Z</time>
      </trkpt>
      <trkpt lat="59.996581" lon="17.5130409">
        <ele>27.0543</ele>
        <time>2013-04-27T11:28:34Z</time>
      </trkpt>
      <trkpt lat="59.9965156" lon="17.5130231">
        <ele>27.0543</ele>
        <time>2013-04-27T11:28:35Z</time>
      </trkpt>
      <trkpt lat="59.9964509" lon="17.5130057">
        <ele>27.0543</ele>
        <time>2013-04-27T11:28:36Z</time>
      </trkpt>
      <trkpt lat="59.9963867" lon="17.5129869">
        <ele>27.5349</ele>
        <time>2013-04-27T11:28:37Z</time>
      </trkpt>
      <trkpt lat="59.9963229" lon="17.5129698">
        <ele>27.5349</ele>
        <time>2013-04-27T11:28:38Z</time>
      </trkpt>
      <trkpt lat="59.9962609" lon="17.5129532">
        <ele>27.5349</ele>
        <time>2013-04-27T11:28:39Z</time>
      </trkpt>
      <trkpt lat="59.9961994" lon="17.5129356">
        <ele>27.5349</ele>
        <time>2013-04-27T11:28:40Z</time>
      </trkpt>
      <trkpt lat="59.9961379" lon="17.5129181">
        <ele>27.5349</ele>
        <time>2013-04-27T11:28:41Z</time>
      </trkpt>
      <trkpt lat="59.996076" lon="17.5129026">
        <ele>27.5349</ele>
        <time>2013-04-27T11:28:42Z</time>
      </trkpt>
      <trkpt lat="59.9960143" lon="17.5128874">
        <ele>27.5349</ele>
        <time>2013-04-27T11:28:43Z</time>
      </trkpt>
      <trkpt lat="59.9959528" lon="17.5128715">
        <ele>27.5349</ele>
        <time>2013-04-27T11:28:44Z</time>
      </trkpt>
      <trkpt lat="59.9958917" lon="17.5128576">
        <ele>28.0155</ele>
        <time>2013-04-27T11:28:45Z</time>
      </trkpt>
      <trkpt lat="59.9958314" lon="17.5128421">
        <ele>28.0155</ele>
        <time>2013-04-27T11:28:46Z</time>
      </trkpt>
      <trkpt lat="59.9957714" lon="17.5128227">
        <ele>28.0155</ele>
        <time>2013-04-27T11:28:47Z</time>
      </trkpt>
      <trkpt lat="59.9957112" lon="17.5128016">
        <ele>28.4962</ele>
        <time>2013-04-27T11:28:48Z</time>
      </trkpt>
      <trkpt lat="59.9956522" lon="17.5127757">
        <ele>28.4962</ele>
        <time>2013-04-27T11:28:49Z</time>
      </trkpt>
      <trkpt lat="59.9955948" lon="17.5127432">
        <ele>28.4962</ele>
        <time>2013-04-27T11:28:50Z</time>
      </trkpt>
      <trkpt lat="59.9955391" lon="17.5127019">
        <ele>28.4962</ele>
        <time>2013-04-27T11:28:51Z</time>
      </trkpt>
      <trkpt lat="59.9954853" lon="17.5126483">
        <ele>28.4962</ele>
        <time>2013-04-27T11:28:52Z</time>
      </trkpt>
      <trkpt lat="59.9954342" lon="17.5125846">
        <ele>28.4962</ele>
        <time>2013-04-27T11:28:53Z</time>
      </trkpt>
      <trkpt lat="59.9953868" lon="17.5125126">
        <ele>28.0155</ele>
        <time>2013-04-27T11:28:54Z</time>
      </trkpt>
      <trkpt lat="59.9953436" lon="17.5124338">
        <ele>28.0155</ele>
        <time>2013-04-27T11:28:55Z</time>
      </trkpt>
      <trkpt lat="59.9953047" lon="17.5123492">
        <ele>28.0155</ele>
        <time>2013-04-27T11:28:56Z</time>
      </trkpt>
      <trkpt lat="59.9952708" lon="17.512258">
        <ele>27.5349</ele>
        <time>2013-04-27T11:28:57Z</time>
      </trkpt>
      <trkpt lat="59.9952421" lon="17.5121609">
        <ele>27.5349</ele>
        <time>2013-04-27T11:28:58Z</time>
      </trkpt>
      <trkpt lat="59.9952178" lon="17.5120593">
        <ele>27.5349</ele>
        <time>2013-04-27T11:28:59Z</time>
      </trkpt>
      <trkpt lat="59.9951969" lon="17.5119524">
        <ele>27.5349</ele>
        <time>2013-04-27T11:29:00Z</time>
      </trkpt>
      <trkpt lat="59.9951812" lon="17.511839">
        <ele>27.0543</ele>
        <time>2013-04-27T11:29:01Z</time>
      </trkpt>
      <trkpt lat="59.9951695" lon="17.5117206">
        <ele>27.0543</ele>
        <time>2013-04-27T11:29:02Z</time>
      </trkpt>
      <trkpt lat="59.9951622" lon="17.5116018">
        <ele>27.0543</ele>
        <time>2013-04-27T11:29:03Z</time>
      </trkpt>
      <trkpt lat="59.9951592" lon="17.5114813">
        <ele>26.5736</ele>
        <time>2013-04-27T11:29:04Z</time>
      </trkpt>
      <trkpt lat="59.9951595" lon="17.5113573">
        <ele>26.5736</ele>
        <time>2013-04-27T11:29:05Z</time>
      </trkpt>
      <trkpt lat="59.9951612" lon="17.5112314">
        <ele>26.0929</ele>
        <time>2013-04-27T11:29:06Z</time>
      </trkpt>
      <trkpt lat="59.9951649" lon="17.5111049">
        <ele>26.0929</ele>
        <time>2013-04-27T11:29:07Z</time>
      </trkpt>
      <trkpt lat="59.99517" lon="17.5109808">
        <ele>26.0929</ele>
        <time>2013-04-27T11:29:08Z</time>
      </trkpt>
      <trkpt lat="59.9951755" lon="17.5108579">
        <ele>25.6123</ele>
        <time>2013-04-27T11:29:09Z</time>
      </trkpt>
      <trkpt lat="59.9951814" lon="17.5107362">
        <ele>25.6123</ele>
        <time>2013-04-27T11:29:10Z</time>
      </trkpt>
      <trkpt lat="59.9951871" lon="17.5106149">
        <ele>25.6123</ele>
        <time>2013-04-27T11:29:11Z</time>
      </trkpt>
      <trkpt lat="59.9951929" lon="17.5104952">
        <ele>25.1317</ele>
        <time>2013-04-27T11:29:12Z</time>
      </trkpt>
      <trkpt lat="59.9952001" lon="17.5103767">
        <ele>25.1317</ele>
        <time>2013-04-27T11:29:13Z</time>
      </trkpt>
      <trkpt lat="59.9952073" lon="17.5102586">
        <ele>24.651</ele>
        <time>2013-04-27T11:29:14Z</time>
      </trkpt>
      <trkpt lat="59.9952151" lon="17.5101415">
        <ele>24.651</ele>
        <time>2013-04-27T11:29:15Z</time>
      </trkpt>
      <trkpt lat="59.9952231" lon="17.5100264">
        <ele>24.1703</ele>
        <time>2013-04-27T11:29:16Z</time>
      </trkpt>
      <trkpt lat="59.9952316" lon="17.5099137">
        <ele>24.1703</ele>
        <time>2013-04-27T11:29:17Z</time>
      </trkpt>
      <trkpt lat="59.9952393" lon="17.5098028">
        <ele>24.1703</ele>
        <time>2013-04-27T11:29:18Z</time>
      </trkpt>
      <trkpt lat="59.9952473" lon="17.5096935">
        <ele>23.6896</ele>
        <time>2013-04-27T11:29:19Z</time>
      </trkpt>
      <trkpt lat="59.9952563" lon="17.5095843">
        <ele>23.6896</ele>
        <time>2013-04-27T11:29:20Z</time>
      </trkpt>
      <trkpt lat="59.9952656" lon="17.509477">
        <ele>23.6896</ele>
        <time>2013-04-27T11:29:21Z</time>
      </trkpt>
      <trkpt lat="59.9952784" lon="17.5093719">
        <ele>23.6896</ele>
        <time>2013-04-27T11:29:22Z</time>
      </trkpt>
      <trkpt lat="59.9952926" lon="17.5092683">
        <ele>23.6896</ele>
        <time>2013-04-27T11:29:23Z</time>
      </trkpt>
      <trkpt lat="59.9953067" lon="17.5091667">
        <ele>23.6896</ele>
        <time>2013-04-27T11:29:24Z</time>
      </trkpt>
      <trkpt lat="59.9953198" lon="17.5090679">
        <ele>23.6896</ele>
        <time>2013-04-27T11:29:25Z</time>
      </trkpt>
      <trkpt lat="59.9953331" lon="17.5089668">
        <ele>23.6896</ele>
        <time>2013-04-27T11:29:26Z</time>
      </trkpt>
      <trkpt lat="59.995348" lon="17.508862">
        <ele>23.6896</ele>
        <time>2013-04-27T11:29:27Z</time>
      </trkpt>
      <trkpt lat="59.995364" lon="17.5087549">
        <ele>23.6896</ele>
        <time>2013-04-27T11:29:28Z</time>
      </trkpt>
      <trkpt lat="59.9953797" lon="17.5086523">
        <ele>23.6896</ele>
        <time>2013-04-27T11:29:29Z</time>
      </trkpt>
      <trkpt lat="59.9953936" lon="17.508555">
        <ele>23.6896</ele>
        <time>2013-04-27T11:29:30Z</time>
      </trkpt>
      <trkpt lat="59.9954062" lon="17.5084633">
        <ele>24.1703</ele>
        <time>2013-04-27T11:29:31Z</time>
      </trkpt>
      <trkpt lat="59.9954205" lon="17.5083753">
        <ele>24.1703</ele>
        <time>2013-04-27T11:29:32Z</time>
      </trkpt>
      <trkpt lat="59.9954347" lon="17.5082891">
        <ele>24.1703</ele>
        <time>2013-04-27T11:29:33Z</time>
      </trkpt>
      <trkpt lat="59.9954491" lon="17.5082053">
        <ele>24.1703</ele>
        <time>2013-04-27T11:29:34Z</time>
      </trkpt>
      <trkpt lat="59.9954632" lon="17.5081235">
        <ele>24.1703</ele>
        <time>2013-04-27T11:29:35Z</time>
      </trkpt>
      <trkpt lat="59.9954761" lon="17.5080385">
        <ele>24.1703</ele>
        <time>2013-04-27T11:29:36Z</time>
      </trkpt>
      <trkpt lat="59.99549" lon="17.5079504">
        <ele>24.651</ele>
        <time>2013-04-27T11:29:37Z</time>
      </trkpt>
      <trkpt lat="59.9955061" lon="17.5078613">
        <ele>24.651</ele>
        <time>2013-04-27T11:29:38Z</time>
      </trkpt>
      <trkpt lat="59.9955213" lon="17.5077702">
        <ele>25.1317</ele>
        <time>2013-04-27T11:29:39Z</time>
      </trkpt>
      <trkpt lat="59.9955355" lon="17.5076779">
        <ele>25.1317</ele>
        <time>2013-04-27T11:29:40Z</time>
      </trkpt>
      <trkpt lat="59.9955503" lon="17.5075863">
        <ele>25.1317</ele>
        <time>2013-04-27T11:29:41Z</time>
      </trkpt>
      <trkpt lat="59.9955667" lon="17.5074951">
        <ele>25.1317</ele>
        <time>2013-04-27T11:29:42Z</time>
      </trkpt>
      <trkpt lat="59.9955835" lon="17.5074055">
        <ele>25.1317</ele>
        <time>2013-04-27T11:29:43Z</time>
      </trkpt>
      <trkpt lat="59.995601" lon="17.507318">
        <ele>25.1317</ele>
        <time>2013-04-27T11:29:44Z</time>
      </trkpt>
      <trkpt lat="59.9956192" lon="17.5072312">
        <ele>25.1317</ele>
        <time>2013-04-27T11:29:45Z</time>
      </trkpt>
      <trkpt lat="59.9956372" lon="17.5071455">
        <ele>25.6123</ele>
        <time>2013-04-27T11:29:46Z</time>
      </trkpt>
      <trkpt lat="59.9956567" lon="17.5070585">
        <ele>25.6123</ele>
        <time>2013-04-27T11:29:47Z</time>
      </trkpt>
      <trkpt lat="59.9956772" lon="17.5069686">
        <ele>25.6123</ele>
        <time>2013-04-27T11:29:48Z</time>
      </trkpt>
      <trkpt lat="59.9957" lon="17.5068802">
        <ele>25.6123</ele>
        <time>2013-04-27T11:29:49Z</time>
      </trkpt>
      <trkpt lat="59.9957232" lon="17.5067943">
        <ele>26.0929</ele>
        <time>2013-04-27T11:29:50Z</time>
      </trkpt>
      <trkpt lat="59.9957494" lon="17.5067103">
        <ele>26.0929</ele>
        <time>2013-04-27T11:29:51Z</time>
      </trkpt>
      <trkpt lat="59.9957766" lon="17.5066259">
        <ele>26.5736</ele>
        <time>2013-04-27T11:29:52Z</time>
      </trkpt>
      <trkpt lat="59.995804" lon="17.5065425">
        <ele>26.5736</ele>
        <time>2013-04-27T11:29:53Z</time>
      </trkpt>
      <trkpt lat="59.9958306" lon="17.5064605">
        <ele>27.0543</ele>
        <time>2013-04-27T11:29:54Z</time>
      </trkpt>
      <trkpt lat="59.9958569" lon="17.5063798">
        <ele>27.0543</ele>
        <time>2013-04-27T11:29:55Z</time>
      </trkpt>
      <trkpt lat="59.9958834" lon="17.5062993">
        <ele>27.0543</ele>
        <time>2013-04-27T11:29:56Z</time>
      </trkpt>
      <trkpt lat="59.9959103" lon="17.5062144">
        <ele>27.0543</ele>
        <time>2013-04-27T11:29:57Z</time>
      </trkpt>
      <trkpt lat="59.9959385" lon="17.50613">
        <ele>27.5349</ele>
        <time>2013-04-27T11:29:58Z</time>
      </trkpt>
      <trkpt lat="59.9959665" lon="17.5060462">
        <ele>27.5349</ele>
        <time>2013-04-27T11:29:59Z</time>
      </trkpt>
      <trkpt lat="59.9959953" lon="17.5059614">
        <ele>27.5349</ele>
        <time>2013-04-27T11:30:00Z</time>
      </trkpt>
      <trkpt lat="59.9960229" lon="17.5058752">
        <ele>27.5349</ele>
        <time>2013-04-27T11:30:01Z</time>
      </trkpt>
      <trkpt lat="59.9960504" lon="17.5057883">
        <ele>28.0155</ele>
        <time>2013-04-27T11:30:02Z</time>
      </trkpt>
      <trkpt lat="59.9960779" lon="17.5057006">
        <ele>28.0155</ele>
        <time>2013-04-27T11:30:03Z</time>
      </trkpt>
      <trkpt lat="59.9961049" lon="17.5056102">
        <ele>28.0155</ele>
        <time>2013-04-27T11:30:04Z</time>
      </trkpt>
      <trkpt lat="59.996132" lon="17.5055214">
        <ele>28.4962</ele>
        <time>2013-04-27T11:30:05Z</time>
      </trkpt>
      <trkpt lat="59.9961578" lon="17.505433">
        <ele>28.4962</ele>
        <time>2013-04-27T11:30:06Z</time>
      </trkpt>
      <trkpt lat="59.9961848" lon="17.5053448">
        <ele>28.4962</ele>
        <time>2013-04-27T11:30:07Z</time>
      </trkpt>
      <trkpt lat="59.9962112" lon="17.5052568">
        <ele>28.0155</ele>
        <time>2013-04-27T11:30:08Z</time>
      </trkpt>
      <trkpt lat="59.9962384" lon="17.5051698">
        <ele>28.0155</ele>
        <time>2013-04-27T11:30:09Z</time>
      </trkpt>
      <trkpt lat="59.9962655" lon="17.5050808">
        <ele>28.0155</ele>
        <time>2013-04-27T11:30:10Z</time>
      </trkpt>
      <trkpt lat="59.9962916" lon="17.5049904">
        <ele>28.4962</ele>
        <time>2013-04-27T11:30:11Z</time>
      </trkpt>
      <trkpt lat="59.9963179" lon="17.5048994">
        <ele>28.4962</ele>
        <time>2013-04-27T11:30:12Z</time>
      </trkpt>
      <trkpt lat="59.9963434" lon="17.5048072">
        <ele>28.4962</ele>
        <time>2013-04-27T11:30:13Z</time>
      </trkpt>
      <trkpt lat="59.9963636" lon="17.5047098">
        <ele>28.4962</ele>
        <time>2013-04-27T11:30:14Z</time>
      </trkpt>
      <trkpt lat="59.9963753" lon="17.5046093">
        <ele>28.4962</ele>
        <time>2013-04-27T11:30:15Z</time>
      </trkpt>
      <trkpt lat="59.9963778" lon="17.5045093">
        <ele>28.4962</ele>
        <time>2013-04-27T11:30:16Z</time>
      </trkpt>
      <trkpt lat="59.9963651" lon="17.5044078">
        <ele>28.4962</ele>
        <time>2013-04-27T11:30:17Z</time>
      </trkpt>
      <trkpt lat="59.9963432" lon="17.5043026">
        <ele>28.4962</ele>
        <time>2013-04-27T11:30:18Z</time>
      </trkpt>
      <trkpt lat="59.9963102" lon="17.5042283">
        <ele>28.4962</ele>
        <time>2013-04-27T11:30:19Z</time>
      </trkpt>
      <trkpt lat="59.9962659" lon="17.5041766">
        <ele>28.4962</ele>
        <time>2013-04-27T11:30:20Z</time>
      </trkpt>
      <trkpt lat="59.9962108" lon="17.5041254">
        <ele>28.4962</ele>
        <time>2013-04-27T11:30:21Z</time>
      </trkpt>
      <trkpt lat="59.9961552" lon="17.504081">
        <ele>28.0155</ele>
        <time>2013-04-27T11:30:22Z</time>
      </trkpt>
      <trkpt lat="59.9961003" lon="17.5040358">
        <ele>28.4962</ele>
        <time>2013-04-27T11:30:23Z</time>
      </trkpt>
      <trkpt lat="59.9960476" lon="17.5039893">
        <ele>28.4962</ele>
        <time>2013-04-27T11:30:24Z</time>
      </trkpt>
      <trkpt lat="59.9959986" lon="17.503944">
        <ele>28.4962</ele>
        <time>2013-04-27T11:30:25Z</time>
      </trkpt>
      <trkpt lat="59.9959517" lon="17.5038963">
        <ele>28.4962</ele>
        <time>2013-04-27T11:30:26Z</time>
      </trkpt>
      <trkpt lat="59.9959031" lon="17.503854">
        <ele>28.4962</ele>
        <time>2013-04-27T11:30:27Z</time>
      </trkpt>
      <trkpt lat="59.9958538" lon="17.50381">
        <ele>28.0155</ele>
        <time>2013-04-27T11:30:28Z</time>
      </trkpt>
      <trkpt lat="59.9958069" lon="17.5037692">
        <ele>28.0155</ele>
        <time>2013-04-27T11:30:29Z</time>
      </trkpt>
      <trkpt lat="59.9957625" lon="17.5037225">
        <ele>28.0155</ele>
        <time>2013-04-27T11:30:30Z</time>
      </trkpt>
      <trkpt lat="59.995723" lon="17.5036661">
        <ele>27.5349</ele>
        <time>2013-04-27T11:30:31Z</time>
      </trkpt>
      <trkpt lat="59.9956866" lon="17.5035954">
        <ele>27.5349</ele>
        <time>2013-04-27T11:30:32Z</time>
      </trkpt>
      <trkpt lat="59.9956631" lon="17.5035124">
        <ele>28.0155</ele>
        <time>2013-04-27T11:30:33Z</time>
      </trkpt>
      <trkpt lat="59.9956533" lon="17.503426">
        <ele>28.4962</ele>
        <time>2013-04-27T11:30:34Z</time>
      </trkpt>
      <trkpt lat="59.9956537" lon="17.5033386">
        <ele>28.4962</ele>
        <time>2013-04-27T11:30:35Z</time>
      </trkpt>
      <trkpt lat="59.9956601" lon="17.5032506">
        <ele>28.0155</ele>
        <time>2013-04-27T11:30:36Z</time>
      </trkpt>
      <trkpt lat="59.9956746" lon="17.5031613">
        <ele>28.0155</ele>
        <time>2013-04-27T11:30:37Z</time>
      </trkpt>
      <trkpt lat="59.9956911" lon="17.5030713">
        <ele>28.0155</ele>
        <time>2013-04-27T11:30:38Z</time>
      </trkpt>
      <trkpt lat="59.9957059" lon="17.5029806">
        <ele>28.0155</ele>
        <time>2013-04-27T11:30:39Z</time>
      </trkpt>
      <trkpt lat="59.9957184" lon="17.5028839">
        <ele>28.0155</ele>
        <time>2013-04-27T11:30:40Z</time>
      </trkpt>
      <trkpt lat="59.9957292" lon="17.5027807">
        <ele>27.5349</ele>
        <time>2013-04-27T11:30:41Z</time>
      </trkpt>
      <trkpt lat="59.9957373" lon="17.502675">
        <ele>27.5349</ele>
        <time>2013-04-27T11:30:42Z</time>
      </trkpt>
      <trkpt lat="59.9957377" lon="17.5025712">
        <ele>27.0543</ele>
        <time>2013-04-27T11:30:43Z</time>
      </trkpt>
      <trkpt lat="59.9957295" lon="17.5024668">
        <ele>27.0543</ele>
        <time>2013-04-27T11:30:44Z</time>
      </trkpt>
      <trkpt lat="59.9957168" lon="17.5023614">
        <ele>26.5736</ele>
        <time>2013-04-27T11:30:45Z</time>
      </trkpt>
      <trkpt lat="59.9957015" lon="17.5022609">
        <ele>26.0929</ele>
        <time>2013-04-27T11:30:46Z</time>
      </trkpt>
      <trkpt lat="59.995678" lon="17.5021485">
        <ele>26.0929</ele>
        <time>2013-04-27T11:30:47Z</time>
      </trkpt>
      <trkpt lat="59.9956527" lon="17.5020318">
        <ele>25.6123</ele>
        <time>2013-04-27T11:30:48Z</time>
      </trkpt>
      <trkpt lat="59.995616" lon="17.5019274">
        <ele>25.1317</ele>
        <time>2013-04-27T11:30:49Z</time>
      </trkpt>
      <trkpt lat="59.9955657" lon="17.5018348">
        <ele>25.1317</ele>
        <time>2013-04-27T11:30:50Z</time>
      </trkpt>
      <trkpt lat="59.9955129" lon="17.501769">
        <ele>25.1317</ele>
        <time>2013-04-27T11:30:51Z</time>
      </trkpt>
      <trkpt lat="59.9954545" lon="17.5017118">
        <ele>25.6123</ele>
        <time>2013-04-27T11:30:52Z</time>
      </trkpt>
      <trkpt lat="59.9953949" lon="17.5016691">
        <ele>26.5736</ele>
        <time>2013-04-27T11:30:53Z</time>
      </trkpt>
      <trkpt lat="59.9953347" lon="17.5016365">
        <ele>26.5736</ele>
        <time>2013-04-27T11:30:54Z</time>
      </trkpt>
      <trkpt lat="59.9952772" lon="17.5016046">
        <ele>27.5349</ele>
        <time>2013-04-27T11:30:55Z</time>
      </trkpt>
      <trkpt lat="59.9952249" lon="17.5015643">
        <ele>28.4962</ele>
        <time>2013-04-27T11:30:56Z</time>
      </trkpt>
      <trkpt lat="59.9951731" lon="17.5015302">
        <ele>28.4962</ele>
        <time>2013-04-27T11:30:57Z</time>
      </trkpt>
      <trkpt lat="59.9951254" lon="17.5014891">
        <ele>29.4575</ele>
        <time>2013-04-27T11:30:58Z</time>
      </trkpt>
      <trkpt lat="59.995082" lon="17.5014436">
        <ele>29.9381</ele>
        <time>2013-04-27T11:30:59Z</time>
      </trkpt>
      <trkpt lat="59.9950408" lon="17.501395">
        <ele>30.4188</ele>
        <time>2013-04-27T11:31:00Z</time>
      </trkpt>
      <trkpt lat="59.995002" lon="17.5013484">
        <ele>30.8995</ele>
        <time>2013-04-27T11:31:01Z</time>
      </trkpt>
      <trkpt lat="59.9949655" lon="17.5013028">
        <ele>31.3801</ele>
        <time>2013-04-27T11:31:02Z</time>
      </trkpt>
      <trkpt lat="59.9949215" lon="17.5012619">
        <ele>31.3801</ele>
        <time>2013-04-27T11:31:03Z</time>
      </trkpt>
      <trkpt lat="59.9948814" lon="17.5012199">
        <ele>31.8607</ele>
        <time>2013-04-27T11:31:04Z</time>
      </trkpt>
      <trkpt lat="59.9948417" lon="17.5011744">
        <ele>31.8607</ele>
        <time>2013-04-27T11:31:05Z</time>
      </trkpt>
      <trkpt lat="59.9948001" lon="17.5011239">
        <ele>31.8607</ele>
        <time>2013-04-27T11:31:06Z</time>
      </trkpt>
      <trkpt lat="59.9947597" lon="17.5010682">
        <ele>31.3801</ele>
        <time>2013-04-27T11:31:07Z</time>
      </trkpt>
      <trkpt lat="59.9947188" lon="17.5010115">
        <ele>31.3801</ele>
        <time>2013-04-27T11:31:08Z</time>
      </trkpt>
      <trkpt lat="59.9946773" lon="17.5009532">
        <ele>30.8995</ele>
        <time>2013-04-27T11:31:09Z</time>
      </trkpt>
      <trkpt lat="59.9946347" lon="17.5008905">
        <ele>30.8995</ele>
        <time>2013-04-27T11:31:10Z</time>
      </trkpt>
      <trkpt lat="59.9945923" lon="17.5008252">
        <ele>30.4188</ele>
        <time>2013-04-27T11:31:11Z</time>
      </trkpt>
      <trkpt lat="59.9945498" lon="17.5007631">
        <ele>30.4188</ele>
        <time>2013-04-27T11:31:12Z</time>
      </trkpt>
      <trkpt lat="59.9945041" lon="17.5007157">
        <ele>30.4188</ele>
        <time>2013-04-27T11:31:13Z</time>
      </trkpt>
      <trkpt lat="59.9944544" lon="17.5006951">
        <ele>29.9381</ele>
        <time>2013-04-27T11:31:14Z</time>
      </trkpt>
      <trkpt lat="59.994405" lon="17.5007019">
        <ele>30.4188</ele>
        <time>2013-04-27T11:31:15Z</time>
      </trkpt>
      <trkpt lat="59.9943578" lon="17.5007356">
        <ele>30.4188</ele>
        <time>2013-04-27T11:31:16Z</time>
      </trkpt>
      <trkpt lat="59.9943167" lon="17.5007893">
        <ele>30.8995</ele>
        <time>2013-04-27T11:31:17Z</time>
      </trkpt>
      <trkpt lat="59.9942832" lon="17.5008613">
        <ele>30.8995</ele>
        <time>2013-04-27T11:31:18Z</time>
      </trkpt>
      <trkpt lat="59.9942527" lon="17.5009458">
        <ele>31.3801</ele>
        <time>2013-04-27T11:31:19Z</time>
      </trkpt>
      <trkpt lat="59.9942225" lon="17.5010371">
        <ele>31.3801</ele>
        <time>2013-04-27T11:31:20Z</time>
      </trkpt>
      <trkpt lat="59.9941899" lon="17.5011268">
        <ele>31.8607</ele>
        <time>2013-04-27T11:31:21Z</time>
      </trkpt>
      <trkpt lat="59.9941556" lon="17.5012123">
        <ele>31.8607</ele>
        <time>2013-04-27T11:31:22Z</time>
      </trkpt>
      <trkpt lat="59.9941221" lon="17.5012971">
        <ele>31.8607</ele>
        <time>2013-04-27T11:31:23Z</time>
      </trkpt>
      <trkpt lat="59.9940889" lon="17.5013847">
        <ele>31.8607</ele>
        <time>2013-04-27T11:31:24Z</time>
      </trkpt>
      <trkpt lat="59.9940543" lon="17.5014732">
        <ele>31.8607</ele>
        <time>2013-04-27T11:31:25Z</time>
      </trkpt>
      <trkpt lat="59.9940195" lon="17.5015632">
        <ele>32.3416</ele>
        <time>2013-04-27T11:31:26Z</time>
      </trkpt>
      <trkpt lat="59.9939873" lon="17.5016576">
        <ele>32.3416</ele>
        <time>2013-04-27T11:31:27Z</time>
      </trkpt>
      <trkpt lat="59.9939545" lon="17.5017531">
        <ele>32.3416</ele>
        <time>2013-04-27T11:31:28Z</time>
      </trkpt>
      <trkpt lat="59.9939199" lon="17.5018477">
        <ele>32.3416</ele>
        <time>2013-04-27T11:31:29Z</time>
      </trkpt>
      <trkpt lat="59.9938833" lon="17.5019422">
        <ele>32.3416</ele>
        <time>2013-04-27T11:31:30Z</time>
      </trkpt>
      <trkpt lat="59.9938452" lon="17.5020368">
        <ele>32.8223</ele>
        <time>2013-04-27T11:31:31Z</time>
      </trkpt>
      <trkpt lat="59.9938074" lon="17.5021337">
        <ele>32.8223</ele>
        <time>2013-04-27T11:31:32Z</time>
      </trkpt>
      <trkpt lat="59.9937698" lon="17.502231">
        <ele>32.8223</ele>
        <time>2013-04-27T11:31:33Z</time>
      </trkpt>
      <trkpt lat="59.9937314" lon="17.5023267">
        <ele>32.8223</ele>
        <time>2013-04-27T11:31:34Z</time>
      </trkpt>
      <trkpt lat="59.9936946" lon="17.5024237">
        <ele>33.3029</ele>
        <time>2013-04-27T11:31:35Z</time>
      </trkpt>
      <trkpt lat="59.9936595" lon="17.5025222">
        <ele>33.3029</ele>
        <time>2013-04-27T11:31:36Z</time>
      </trkpt>
      <trkpt lat="59.9936249" lon="17.5026171">
        <ele>33.3029</ele>
        <time>2013-04-27T11:31:37Z</time>
      </trkpt>
      <trkpt lat="59.9935895" lon="17.5027108">
        <ele>33.3029</ele>
        <time>2013-04-27T11:31:38Z</time>
      </trkpt>
      <trkpt lat="59.9935549" lon="17.502801">
        <ele>33.7834</ele>
        <time>2013-04-27T11:31:39Z</time>
      </trkpt>
      <trkpt lat="59.9935226" lon="17.502887">
        <ele>34.2642</ele>
        <time>2013-04-27T11:31:40Z</time>
      </trkpt>
      <trkpt lat="59.9934911" lon="17.5029713">
        <ele>34.2642</ele>
        <time>2013-04-27T11:31:41Z</time>
      </trkpt>
      <trkpt lat="59.9934589" lon="17.5030578">
        <ele>34.7449</ele>
        <time>2013-04-27T11:31:42Z</time>
      </trkpt>
      <trkpt lat="59.9934258" lon="17.5031463">
        <ele>34.7449</ele>
        <time>2013-04-27T11:31:43Z</time>
      </trkpt>
      <trkpt lat="59.9933926" lon="17.5032315">
        <ele>35.2255</ele>
        <time>2013-04-27T11:31:44Z</time>
      </trkpt>
      <trkpt lat="59.9933599" lon="17.5033163">
        <ele>35.2255</ele>
        <time>2013-04-27T11:31:45Z</time>
      </trkpt>
      <trkpt lat="59.9933281" lon="17.5034">
        <ele>34.7449</ele>
        <time>2013-04-27T11:31:46Z</time>
      </trkpt>
      <trkpt lat="59.993293" lon="17.5034847">
        <ele>34.2642</ele>
        <time>2013-04-27T11:31:47Z</time>
      </trkpt>
      <trkpt lat="59.9932555" lon="17.5035684">
        <ele>34.2642</ele>
        <time>2013-04-27T11:31:48Z</time>
      </trkpt>
      <trkpt lat="59.9932158" lon="17.5036505">
        <ele>34.2642</ele>
        <time>2013-04-27T11:31:49Z</time>
      </trkpt>
      <trkpt lat="59.9931749" lon="17.5037357">
        <ele>34.2642</ele>
        <time>2013-04-27T11:31:50Z</time>
      </trkpt>
      <trkpt lat="59.9931326" lon="17.5038235">
        <ele>33.7834</ele>
        <time>2013-04-27T11:31:51Z</time>
      </trkpt>
      <trkpt lat="59.9930885" lon="17.5039146">
        <ele>34.2642</ele>
        <time>2013-04-27T11:31:52Z</time>
      </trkpt>
      <trkpt lat="59.993042" lon="17.5040056">
        <ele>33.7834</ele>
        <time>2013-04-27T11:31:53Z</time>
      </trkpt>
      <trkpt lat="59.9929943" lon="17.5040937">
        <ele>33.7834</ele>
        <time>2013-04-27T11:31:54Z</time>
      </trkpt>
      <trkpt lat="59.9929467" lon="17.5041805">
        <ele>33.7834</ele>
        <time>2013-04-27T11:31:55Z</time>
      </trkpt>
      <trkpt lat="59.9928994" lon="17.504266">
        <ele>33.3029</ele>
        <time>2013-04-27T11:31:56Z</time>
      </trkpt>
      <trkpt lat="59.9928517" lon="17.5043499">
        <ele>33.3029</ele>
        <time>2013-04-27T11:31:57Z</time>
      </trkpt>
      <trkpt lat="59.9928051" lon="17.5044331">
        <ele>33.3029</ele>
        <time>2013-04-27T11:31:58Z</time>
      </trkpt>
      <trkpt lat="59.99276" lon="17.504517">
        <ele>33.3029</ele>
        <time>2013-04-27T11:31:59Z</time>
      </trkpt>
      <trkpt lat="59.9927146" lon="17.5045988">
        <ele>32.8223</ele>
        <time>2013-04-27T11:32:00Z</time>
      </trkpt>
      <trkpt lat="59.9926688" lon="17.5046813">
        <ele>32.8223</ele>
        <time>2013-04-27T11:32:01Z</time>
      </trkpt>
      <trkpt lat="59.992623" lon="17.504766">
        <ele>32.8223</ele>
        <time>2013-04-27T11:32:02Z</time>
      </trkpt>
      <trkpt lat="59.9925787" lon="17.5048506">
        <ele>32.8223</ele>
        <time>2013-04-27T11:32:03Z</time>
      </trkpt>
      <trkpt lat="59.9925367" lon="17.5049351">
        <ele>32.8223</ele>
        <time>2013-04-27T11:32:04Z</time>
      </trkpt>
      <trkpt lat="59.9924965" lon="17.5050235">
        <ele>32.8223</ele>
        <time>2013-04-27T11:32:05Z</time>
      </trkpt>
      <trkpt lat="59.9924537" lon="17.505108">
        <ele>32.8223</ele>
        <time>2013-04-27T11:32:06Z</time>
      </trkpt>
      <trkpt lat="59.9924069" lon="17.5051832">
        <ele>32.8223</ele>
        <time>2013-04-27T11:32:07Z</time>
      </trkpt>
      <trkpt lat="59.9923594" lon="17.5052582">
        <ele>32.8223</ele>
        <time>2013-04-27T11:32:08Z</time>
      </trkpt>
      <trkpt lat="59.9923137" lon="17.5053314">
        <ele>33.3029</ele>
        <time>2013-04-27T11:32:09Z</time>
      </trkpt>
      <trkpt lat="59.9922707" lon="17.505405">
        <ele>33.3029</ele>
        <time>2013-04-27T11:32:10Z</time>
      </trkpt>
      <trkpt lat="59.9922291" lon="17.5054795">
        <ele>33.3029</ele>
        <time>2013-04-27T11:32:11Z</time>
      </trkpt>
      <trkpt lat="59.9921863" lon="17.5055546">
        <ele>33.7834</ele>
        <time>2013-04-27T11:32:12Z</time>
      </trkpt>
      <trkpt lat="59.9921425" lon="17.5056304">
        <ele>33.7834</ele>
        <time>2013-04-27T11:32:13Z</time>
      </trkpt>
      <trkpt lat="59.9920987" lon="17.5057064">
        <ele>33.7834</ele>
        <time>2013-04-27T11:32:14Z</time>
      </trkpt>
      <trkpt lat="59.9920553" lon="17.5057818">
        <ele>33.7834</ele>
        <time>2013-04-27T11:32:15Z</time>
      </trkpt>
      <trkpt lat="59.9920116" lon="17.5058524">
        <ele>34.2642</ele>
        <time>2013-04-27T11:32:16Z</time>
      </trkpt>
      <trkpt lat="59.9919666" lon="17.5059156">
        <ele>34.2642</ele>
        <time>2013-04-27T11:32:17Z</time>
      </trkpt>
      <trkpt lat="59.9919199" lon="17.5059743">
        <ele>34.2642</ele>
        <time>2013-04-27T11:32:18Z</time>
      </trkpt>
      <trkpt lat="59.9918708" lon="17.5060306">
        <ele>34.7449</ele>
        <time>2013-04-27T11:32:19Z</time>
      </trkpt>
      <trkpt lat="59.9918195" lon="17.506081">
        <ele>34.7449</ele>
        <time>2013-04-27T11:32:20Z</time>
      </trkpt>
      <trkpt lat="59.991767" lon="17.506124">
        <ele>35.2255</ele>
        <time>2013-04-27T11:32:21Z</time>
      </trkpt>
      <trkpt lat="59.9917152" lon="17.5061561">
        <ele>35.2255</ele>
        <time>2013-04-27T11:32:22Z</time>
      </trkpt>
      <trkpt lat="59.9916621" lon="17.5061846">
        <ele>35.2255</ele>
        <time>2013-04-27T11:32:23Z</time>
      </trkpt>
      <trkpt lat="59.9916076" lon="17.5062056">
        <ele>35.2255</ele>
        <time>2013-04-27T11:32:24Z</time>
      </trkpt>
      <trkpt lat="59.9915532" lon="17.5062213">
        <ele>35.2255</ele>
        <time>2013-04-27T11:32:25Z</time>
      </trkpt>
      <trkpt lat="59.9914981" lon="17.5062351">
        <ele>35.2255</ele>
        <time>2013-04-27T11:32:26Z</time>
      </trkpt>
      <trkpt lat="59.9914429" lon="17.5062466">
        <ele>35.2255</ele>
        <time>2013-04-27T11:32:27Z</time>
      </trkpt>
      <trkpt lat="59.9913873" lon="17.5062549">
        <ele>35.2255</ele>
        <time>2013-04-27T11:32:28Z</time>
      </trkpt>
      <trkpt lat="59.9913314" lon="17.5062612">
        <ele>35.2255</ele>
        <time>2013-04-27T11:32:29Z</time>
      </trkpt>
      <trkpt lat="59.9912751" lon="17.5062657">
        <ele>34.7449</ele>
        <time>2013-04-27T11:32:30Z</time>
      </trkpt>
      <trkpt lat="59.991219" lon="17.5062674">
        <ele>34.7449</ele>
        <time>2013-04-27T11:32:31Z</time>
      </trkpt>
      <trkpt lat="59.9911647" lon="17.5062678">
        <ele>34.7449</ele>
        <time>2013-04-27T11:32:32Z</time>
      </trkpt>
      <trkpt lat="59.9911114" lon="17.5062681">
        <ele>34.7449</ele>
        <time>2013-04-27T11:32:33Z</time>
      </trkpt>
      <trkpt lat="59.9910561" lon="17.50627">
        <ele>34.7449</ele>
        <time>2013-04-27T11:32:34Z</time>
      </trkpt>
      <trkpt lat="59.991" lon="17.5062741">
        <ele>34.7449</ele>
        <time>2013-04-27T11:32:35Z</time>
      </trkpt>
      <trkpt lat="59.9909442" lon="17.506282">
        <ele>34.2642</ele>
        <time>2013-04-27T11:32:36Z</time>
      </trkpt>
      <trkpt lat="59.9908871" lon="17.5062913">
        <ele>34.2642</ele>
        <time>2013-04-27T11:32:37Z</time>
      </trkpt>
      <trkpt lat="59.9908283" lon="17.5063026">
        <ele>34.2642</ele>
        <time>2013-04-27T11:32:38Z</time>
      </trkpt>
      <trkpt lat="59.9907669" lon="17.5063166">
        <ele>34.2642</ele>
        <time>2013-04-27T11:32:39Z</time>
      </trkpt>
      <trkpt lat="59.9907056" lon="17.5063311">
        <ele>34.2642</ele>
        <time>2013-04-27T11:32:40Z</time>
      </trkpt>
      <trkpt lat="59.9906441" lon="17.5063519">
        <ele>34.2642</ele>
        <time>2013-04-27T11:32:41Z</time>
      </trkpt>
      <trkpt lat="59.9905839" lon="17.5063783">
        <ele>34.2642</ele>
        <time>2013-04-27T11:32:42Z</time>
      </trkpt>
      <trkpt lat="59.9905229" lon="17.5064152">
        <ele>34.2642</ele>
        <time>2013-04-27T11:32:43Z</time>
      </trkpt>
      <trkpt lat="59.9904644" lon="17.5064604">
        <ele>34.2642</ele>
        <time>2013-04-27T11:32:44Z</time>
      </trkpt>
      <trkpt lat="59.9904084" lon="17.5065195">
        <ele>34.2642</ele>
        <time>2013-04-27T11:32:45Z</time>
      </trkpt>
      <trkpt lat="59.9903555" lon="17.5065884">
        <ele>34.7449</ele>
        <time>2013-04-27T11:32:46Z</time>
      </trkpt>
      <trkpt lat="59.9903032" lon="17.5066625">
        <ele>34.2642</ele>
        <time>2013-04-27T11:32:47Z</time>
      </trkpt>
      <trkpt lat="59.9902516" lon="17.5067392">
        <ele>34.2642</ele>
        <time>2013-04-27T11:32:48Z</time>
      </trkpt>
      <trkpt lat="59.9902012" lon="17.5068153">
        <ele>34.7449</ele>
        <time>2013-04-27T11:32:49Z</time>
      </trkpt>
      <trkpt lat="59.9901515" lon="17.5068919">
        <ele>34.7449</ele>
        <time>2013-04-27T11:32:50Z</time>
      </trkpt>
      <trkpt lat="59.9901028" lon="17.5069702">
        <ele>34.7449</ele>
        <time>2013-04-27T11:32:51Z</time>
      </trkpt>
      <trkpt lat="59.9900547" lon="17.5070496">
        <ele>34.7449</ele>
        <time>2013-04-27T11:32:52Z</time>
      </trkpt>
      <trkpt lat="59.990007" lon="17.5071283">
        <ele>34.7449</ele>
        <time>2013-04-27T11:32:53Z</time>
      </trkpt>
      <trkpt lat="59.9899597" lon="17.5072033">
        <ele>34.7449</ele>
        <time>2013-04-27T11:32:54Z</time>
      </trkpt>
      <trkpt lat="59.9899125" lon="17.5072765">
        <ele>34.7449</ele>
        <time>2013-04-27T11:32:55Z</time>
      </trkpt>
      <trkpt lat="59.9898652" lon="17.5073505">
        <ele>34.7449</ele>
        <time>2013-04-27T11:32:56Z</time>
      </trkpt>
      <trkpt lat="59.989819" lon="17.5074247">
        <ele>34.7449</ele>
        <time>2013-04-27T11:32:57Z</time>
      </trkpt>
      <trkpt lat="59.9897738" lon="17.5074994">
        <ele>35.2255</ele>
        <time>2013-04-27T11:32:58Z</time>
      </trkpt>
      <trkpt lat="59.9897283" lon="17.5075728">
        <ele>35.2255</ele>
        <time>2013-04-27T11:32:59Z</time>
      </trkpt>
      <trkpt lat="59.9896821" lon="17.5076454">
        <ele>35.2255</ele>
        <time>2013-04-27T11:33:00Z</time>
      </trkpt>
      <trkpt lat="59.9896357" lon="17.507718">
        <ele>35.2255</ele>
        <time>2013-04-27T11:33:01Z</time>
      </trkpt>
      <trkpt lat="59.989589" lon="17.5077899">
        <ele>35.7061</ele>
        <time>2013-04-27T11:33:02Z</time>
      </trkpt>
      <trkpt lat="59.9895428" lon="17.5078592">
        <ele>35.7061</ele>
        <time>2013-04-27T11:33:03Z</time>
      </trkpt>
      <trkpt lat="59.9894973" lon="17.5079277">
        <ele>36.1868</ele>
        <time>2013-04-27T11:33:04Z</time>
      </trkpt>
      <trkpt lat="59.9894513" lon="17.5079943">
        <ele>36.1868</ele>
        <time>2013-04-27T11:33:05Z</time>
      </trkpt>
      <trkpt lat="59.9894043" lon="17.5080582">
        <ele>36.6675</ele>
        <time>2013-04-27T11:33:06Z</time>
      </trkpt>
      <trkpt lat="59.9893568" lon="17.5081338">
        <ele>36.6675</ele>
        <time>2013-04-27T11:33:07Z</time>
      </trkpt>
      <trkpt lat="59.9893093" lon="17.5081881">
        <ele>37.1481</ele>
        <time>2013-04-27T11:33:08Z</time>
      </trkpt>
      <trkpt lat="59.9892621" lon="17.5082592">
        <ele>37.1481</ele>
        <time>2013-04-27T11:33:09Z</time>
      </trkpt>
      <trkpt lat="59.9892128" lon="17.5083193">
        <ele>37.6287</ele>
        <time>2013-04-27T11:33:10Z</time>
      </trkpt>
      <trkpt lat="59.9891661" lon="17.5083742">
        <ele>38.1094</ele>
        <time>2013-04-27T11:33:11Z</time>
      </trkpt>
      <trkpt lat="59.9891275" lon="17.5084123">
        <ele>38.5901</ele>
        <time>2013-04-27T11:33:12Z</time>
      </trkpt>
      <trkpt lat="59.9890817" lon="17.5084667">
        <ele>38.5901</ele>
        <time>2013-04-27T11:33:13Z</time>
      </trkpt>
      <trkpt lat="59.9890417" lon="17.5084964">
        <ele>39.0707</ele>
        <time>2013-04-27T11:33:14Z</time>
      </trkpt>
      <trkpt lat="59.9890018" lon="17.5085213">
        <ele>39.0707</ele>
        <time>2013-04-27T11:33:15Z</time>
      </trkpt>
      <trkpt lat="59.9889667" lon="17.5085462">
        <ele>38.5901</ele>
        <time>2013-04-27T11:33:16Z</time>
      </trkpt>
      <trkpt lat="59.9889265" lon="17.508569">
        <ele>38.5901</ele>
        <time>2013-04-27T11:33:17Z</time>
      </trkpt>
      <trkpt lat="59.988885" lon="17.5085805">
        <ele>38.5901</ele>
        <time>2013-04-27T11:33:18Z</time>
      </trkpt>
      <trkpt lat="59.9888407" lon="17.5085998">
        <ele>39.0707</ele>
        <time>2013-04-27T11:33:19Z</time>
      </trkpt>
      <trkpt lat="59.9887926" lon="17.5086219">
        <ele>39.5513</ele>
        <time>2013-04-27T11:33:20Z</time>
      </trkpt>
      <trkpt lat="59.9887416" lon="17.5086468">
        <ele>39.0707</ele>
        <time>2013-04-27T11:33:21Z</time>
      </trkpt>
      <trkpt lat="59.9886831" lon="17.5086833">
        <ele>38.5901</ele>
        <time>2013-04-27T11:33:22Z</time>
      </trkpt>
      <trkpt lat="59.9886281" lon="17.5087117">
        <ele>38.5901</ele>
        <time>2013-04-27T11:33:23Z</time>
      </trkpt>
      <trkpt lat="59.9885743" lon="17.5087367">
        <ele>38.1094</ele>
        <time>2013-04-27T11:33:24Z</time>
      </trkpt>
      <trkpt lat="59.9885173" lon="17.5087643">
        <ele>38.1094</ele>
        <time>2013-04-27T11:33:25Z</time>
      </trkpt>
      <trkpt lat="59.9884602" lon="17.5087889">
        <ele>37.6287</ele>
        <time>2013-04-27T11:33:26Z</time>
      </trkpt>
      <trkpt lat="59.9884047" lon="17.5088057">
        <ele>37.1481</ele>
        <time>2013-04-27T11:33:27Z</time>
      </trkpt>
      <trkpt lat="59.9883442" lon="17.5088222">
        <ele>36.6675</ele>
        <time>2013-04-27T11:33:28Z</time>
      </trkpt>
      <trkpt lat="59.9882859" lon="17.5088364">
        <ele>36.6675</ele>
        <time>2013-04-27T11:33:29Z</time>
      </trkpt>
      <trkpt lat="59.9882256" lon="17.5088566">
        <ele>36.6675</ele>
        <time>2013-04-27T11:33:30Z</time>
      </trkpt>
      <trkpt lat="59.988166" lon="17.5088821">
        <ele>36.6675</ele>
        <time>2013-04-27T11:33:31Z</time>
      </trkpt>
      <trkpt lat="59.9881047" lon="17.5089134">
        <ele>36.1868</ele>
        <time>2013-04-27T11:33:32Z</time>
      </trkpt>
      <trkpt lat="59.9880421" lon="17.5089481">
        <ele>35.7061</ele>
        <time>2013-04-27T11:33:33Z</time>
      </trkpt>
      <trkpt lat="59.9879824" lon="17.508984">
        <ele>35.7061</ele>
        <time>2013-04-27T11:33:34Z</time>
      </trkpt>
      <trkpt lat="59.9879219" lon="17.5090241">
        <ele>35.2255</ele>
        <time>2013-04-27T11:33:35Z</time>
      </trkpt>
      <trkpt lat="59.9878597" lon="17.5090677">
        <ele>34.7449</ele>
        <time>2013-04-27T11:33:36Z</time>
      </trkpt>
      <trkpt lat="59.9877966" lon="17.5091164">
        <ele>33.7834</ele>
        <time>2013-04-27T11:33:37Z</time>
      </trkpt>
      <trkpt lat="59.9877391" lon="17.5091621">
        <ele>33.7834</ele>
        <time>2013-04-27T11:33:38Z</time>
      </trkpt>
      <trkpt lat="59.987683" lon="17.5092132">
        <ele>33.7834</ele>
        <time>2013-04-27T11:33:39Z</time>
      </trkpt>
      <trkpt lat="59.9876274" lon="17.5092658">
        <ele>33.7834</ele>
        <time>2013-04-27T11:33:40Z</time>
      </trkpt>
      <trkpt lat="59.9875717" lon="17.5093195">
        <ele>33.3029</ele>
        <time>2013-04-27T11:33:41Z</time>
      </trkpt>
      <trkpt lat="59.9875168" lon="17.5093765">
        <ele>33.3029</ele>
        <time>2013-04-27T11:33:42Z</time>
      </trkpt>
      <trkpt lat="59.9874623" lon="17.5094352">
        <ele>33.3029</ele>
        <time>2013-04-27T11:33:43Z</time>
      </trkpt>
      <trkpt lat="59.9874084" lon="17.5094961">
        <ele>33.3029</ele>
        <time>2013-04-27T11:33:44Z</time>
      </trkpt>
      <trkpt lat="59.9873541" lon="17.5095578">
        <ele>33.3029</ele>
        <time>2013-04-27T11:33:45Z</time>
      </trkpt>
      <trkpt lat="59.9872976" lon="17.5096229">
        <ele>33.7834</ele>
        <time>2013-04-27T11:33:46Z</time>
      </trkpt>
      <trkpt lat="59.9872435" lon="17.5096842">
        <ele>34.2642</ele>
        <time>2013-04-27T11:33:47Z</time>
      </trkpt>
      <trkpt lat="59.9871926" lon="17.5097428">
        <ele>34.7449</ele>
        <time>2013-04-27T11:33:48Z</time>
      </trkpt>
      <trkpt lat="59.9871401" lon="17.5097957">
        <ele>34.7449</ele>
        <time>2013-04-27T11:33:49Z</time>
      </trkpt>
      <trkpt lat="59.9870874" lon="17.509854">
        <ele>34.7449</ele>
        <time>2013-04-27T11:33:50Z</time>
      </trkpt>
      <trkpt lat="59.9870336" lon="17.5099167">
        <ele>35.2255</ele>
        <time>2013-04-27T11:33:51Z</time>
      </trkpt>
      <trkpt lat="59.9869788" lon="17.509982">
        <ele>35.7061</ele>
        <time>2013-04-27T11:33:52Z</time>
      </trkpt>
      <trkpt lat="59.9869238" lon="17.510036">
        <ele>35.2255</ele>
        <time>2013-04-27T11:33:53Z</time>
      </trkpt>
      <trkpt lat="59.9868694" lon="17.5100992">
        <ele>34.2642</ele>
        <time>2013-04-27T11:33:54Z</time>
      </trkpt>
      <trkpt lat="59.9868228" lon="17.510156">
        <ele>33.7834</ele>
        <time>2013-04-27T11:33:55Z</time>
      </trkpt>
      <trkpt lat="59.9867746" lon="17.510222">
        <ele>34.2642</ele>
        <time>2013-04-27T11:33:56Z</time>
      </trkpt>
      <trkpt lat="59.9867295" lon="17.510288">
        <ele>34.7449</ele>
        <time>2013-04-27T11:33:57Z</time>
      </trkpt>
      <trkpt lat="59.9866866" lon="17.5103555">
        <ele>35.7061</ele>
        <time>2013-04-27T11:33:58Z</time>
      </trkpt>
      <trkpt lat="59.9866457" lon="17.5104246">
        <ele>36.6675</ele>
        <time>2013-04-27T11:33:59Z</time>
      </trkpt>
      <trkpt lat="59.9866053" lon="17.5104932">
        <ele>36.6675</ele>
        <time>2013-04-27T11:34:00Z</time>
      </trkpt>
      <trkpt lat="59.9865577" lon="17.5105751">
        <ele>36.6675</ele>
        <time>2013-04-27T11:34:01Z</time>
      </trkpt>
      <trkpt lat="59.9865087" lon="17.5106597">
        <ele>36.1868</ele>
        <time>2013-04-27T11:34:02Z</time>
      </trkpt>
      <trkpt lat="59.9864577" lon="17.5107535">
        <ele>36.1868</ele>
        <time>2013-04-27T11:34:03Z</time>
      </trkpt>
      <trkpt lat="59.9864042" lon="17.5108491">
        <ele>36.1868</ele>
        <time>2013-04-27T11:34:04Z</time>
      </trkpt>
      <trkpt lat="59.9863486" lon="17.5109446">
        <ele>35.7061</ele>
        <time>2013-04-27T11:34:05Z</time>
      </trkpt>
      <trkpt lat="59.9862927" lon="17.5110378">
        <ele>35.7061</ele>
        <time>2013-04-27T11:34:06Z</time>
      </trkpt>
      <trkpt lat="59.9862354" lon="17.5111263">
        <ele>35.7061</ele>
        <time>2013-04-27T11:34:07Z</time>
      </trkpt>
      <trkpt lat="59.986178" lon="17.5112088">
        <ele>35.7061</ele>
        <time>2013-04-27T11:34:08Z</time>
      </trkpt>
      <trkpt lat="59.9861212" lon="17.5112888">
        <ele>35.7061</ele>
        <time>2013-04-27T11:34:09Z</time>
      </trkpt>
      <trkpt lat="59.9860649" lon="17.5113683">
        <ele>35.2255</ele>
        <time>2013-04-27T11:34:10Z</time>
      </trkpt>
      <trkpt lat="59.9860095" lon="17.5114442">
        <ele>35.7061</ele>
        <time>2013-04-27T11:34:11Z</time>
      </trkpt>
      <trkpt lat="59.9859547" lon="17.5115185">
        <ele>35.7061</ele>
        <time>2013-04-27T11:34:12Z</time>
      </trkpt>
      <trkpt lat="59.9859006" lon="17.511591">
        <ele>35.7061</ele>
        <time>2013-04-27T11:34:13Z</time>
      </trkpt>
      <trkpt lat="59.9858466" lon="17.5116605">
        <ele>35.7061</ele>
        <time>2013-04-27T11:34:14Z</time>
      </trkpt>
      <trkpt lat="59.9857934" lon="17.5117284">
        <ele>35.7061</ele>
        <time>2013-04-27T11:34:15Z</time>
      </trkpt>
      <trkpt lat="59.9857396" lon="17.5117967">
        <ele>35.2255</ele>
        <time>2013-04-27T11:34:16Z</time>
      </trkpt>
      <trkpt lat="59.9856853" lon="17.5118629">
        <ele>35.2255</ele>
        <time>2013-04-27T11:34:17Z</time>
      </trkpt>
      <trkpt lat="59.9856311" lon="17.5119297">
        <ele>35.7061</ele>
        <time>2013-04-27T11:34:18Z</time>
      </trkpt>
      <trkpt lat="59.9855768" lon="17.5119961">
        <ele>35.7061</ele>
        <time>2013-04-27T11:34:19Z</time>
      </trkpt>
      <trkpt lat="59.9855224" lon="17.5120584">
        <ele>35.7061</ele>
        <time>2013-04-27T11:34:20Z</time>
      </trkpt>
      <trkpt lat="59.9854682" lon="17.5121173">
        <ele>35.7061</ele>
        <time>2013-04-27T11:34:21Z</time>
      </trkpt>
      <trkpt lat="59.9854131" lon="17.5121738">
        <ele>35.7061</ele>
        <time>2013-04-27T11:34:22Z</time>
      </trkpt>
      <trkpt lat="59.9853571" lon="17.5122261">
        <ele>35.7061</ele>
        <time>2013-04-27T11:34:23Z</time>
      </trkpt>
      <trkpt lat="59.9853014" lon="17.5122754">
        <ele>35.7061</ele>
        <time>2013-04-27T11:34:24Z</time>
      </trkpt>
      <trkpt lat="59.9852468" lon="17.5123245">
        <ele>35.7061</ele>
        <time>2013-04-27T11:34:25Z</time>
      </trkpt>
      <trkpt lat="59.9851921" lon="17.5123773">
        <ele>36.1868</ele>
        <time>2013-04-27T11:34:26Z</time>
      </trkpt>
      <trkpt lat="59.9851365" lon="17.5124322">
        <ele>35.7061</ele>
        <time>2013-04-27T11:34:27Z</time>
      </trkpt>
      <trkpt lat="59.9850807" lon="17.5124918">
        <ele>36.1868</ele>
        <time>2013-04-27T11:34:28Z</time>
      </trkpt>
      <trkpt lat="59.9850258" lon="17.5125531">
        <ele>36.1868</ele>
        <time>2013-04-27T11:34:29Z</time>
      </trkpt>
      <trkpt lat="59.9849715" lon="17.5126162">
        <ele>36.1868</ele>
        <time>2013-04-27T11:34:30Z</time>
      </trkpt>
      <trkpt lat="59.9849187" lon="17.5126786">
        <ele>36.6675</ele>
        <time>2013-04-27T11:34:31Z</time>
      </trkpt>
      <trkpt lat="59.9848681" lon="17.512746">
        <ele>36.6675</ele>
        <time>2013-04-27T11:34:32Z</time>
      </trkpt>
      <trkpt lat="59.9848195" lon="17.5128136">
        <ele>37.1481</ele>
        <time>2013-04-27T11:34:33Z</time>
      </trkpt>
      <trkpt lat="59.9847773" lon="17.5128846">
        <ele>37.6287</ele>
        <time>2013-04-27T11:34:34Z</time>
      </trkpt>
      <trkpt lat="59.9847383" lon="17.5129647">
        <ele>38.1094</ele>
        <time>2013-04-27T11:34:35Z</time>
      </trkpt>
      <trkpt lat="59.9846995" lon="17.5130539">
        <ele>38.5901</ele>
        <time>2013-04-27T11:34:36Z</time>
      </trkpt>
      <trkpt lat="59.9846626" lon="17.5131569">
        <ele>39.0707</ele>
        <time>2013-04-27T11:34:37Z</time>
      </trkpt>
      <trkpt lat="59.9846255" lon="17.5133119">
        <ele>39.0707</ele>
        <time>2013-04-27T11:34:38Z</time>
      </trkpt>
      <trkpt lat="59.9845988" lon="17.5134186">
        <ele>39.0707</ele>
        <time>2013-04-27T11:34:39Z</time>
      </trkpt>
      <trkpt lat="59.9845684" lon="17.5135144">
        <ele>40.0321</ele>
        <time>2013-04-27T11:34:40Z</time>
      </trkpt>
      <trkpt lat="59.9845421" lon="17.5136224">
        <ele>40.0321</ele>
        <time>2013-04-27T11:34:41Z</time>
      </trkpt>
      <trkpt lat="59.9845179" lon="17.5137371">
        <ele>40.0321</ele>
        <time>2013-04-27T11:34:42Z</time>
      </trkpt>
      <trkpt lat="59.9844934" lon="17.5138535">
        <ele>40.0321</ele>
        <time>2013-04-27T11:34:43Z</time>
      </trkpt>
      <trkpt lat="59.9844689" lon="17.5139683">
        <ele>40.0321</ele>
        <time>2013-04-27T11:34:44Z</time>
      </trkpt>
      <trkpt lat="59.9844439" lon="17.5140801">
        <ele>40.0321</ele>
        <time>2013-04-27T11:34:45Z</time>
      </trkpt>
      <trkpt lat="59.9844198" lon="17.5141914">
        <ele>40.5128</ele>
        <time>2013-04-27T11:34:46Z</time>
      </trkpt>
      <trkpt lat="59.9843957" lon="17.5143013">
        <ele>40.5128</ele>
        <time>2013-04-27T11:34:47Z</time>
      </trkpt>
      <trkpt lat="59.9843646" lon="17.5144093">
        <ele>40.5128</ele>
        <time>2013-04-27T11:34:48Z</time>
      </trkpt>
      <trkpt lat="59.9843338" lon="17.5145176">
        <ele>40.5128</ele>
        <time>2013-04-27T11:34:49Z</time>
      </trkpt>
      <trkpt lat="59.9843084" lon="17.5146224">
        <ele>40.5128</ele>
        <time>2013-04-27T11:34:50Z</time>
      </trkpt>
      <trkpt lat="59.9842753" lon="17.5147322">
        <ele>40.5128</ele>
        <time>2013-04-27T11:34:51Z</time>
      </trkpt>
      <trkpt lat="59.9842436" lon="17.5148432">
        <ele>40.5128</ele>
        <time>2013-04-27T11:34:52Z</time>
      </trkpt>
      <trkpt lat="59.9842135" lon="17.5149533">
        <ele>40.5128</ele>
        <time>2013-04-27T11:34:53Z</time>
      </trkpt>
      <trkpt lat="59.9841831" lon="17.5150643">
        <ele>40.9934</ele>
        <time>2013-04-27T11:34:54Z</time>
      </trkpt>
      <trkpt lat="59.9841546" lon="17.5151744">
        <ele>40.5128</ele>
        <time>2013-04-27T11:34:55Z</time>
      </trkpt>
      <trkpt lat="59.9841246" lon="17.515288">
        <ele>40.9934</ele>
        <time>2013-04-27T11:34:56Z</time>
      </trkpt>
      <trkpt lat="59.9840932" lon="17.5153998">
        <ele>40.9934</ele>
        <time>2013-04-27T11:34:57Z</time>
      </trkpt>
      <trkpt lat="59.9840618" lon="17.5155093">
        <ele>40.9934</ele>
        <time>2013-04-27T11:34:58Z</time>
      </trkpt>
      <trkpt lat="59.9840303" lon="17.5156178">
        <ele>40.9934</ele>
        <time>2013-04-27T11:34:59Z</time>
      </trkpt>
      <trkpt lat="59.9839982" lon="17.5157253">
        <ele>40.9934</ele>
        <time>2013-04-27T11:35:00Z</time>
      </trkpt>
      <trkpt lat="59.9839663" lon="17.5158325">
        <ele>40.9934</ele>
        <time>2013-04-27T11:35:01Z</time>
      </trkpt>
      <trkpt lat="59.9839347" lon="17.5159392">
        <ele>40.9934</ele>
        <time>2013-04-27T11:35:02Z</time>
      </trkpt>
      <trkpt lat="59.9839033" lon="17.5160455">
        <ele>41.474</ele>
        <time>2013-04-27T11:35:03Z</time>
      </trkpt>
      <trkpt lat="59.9838717" lon="17.5161531">
        <ele>41.474</ele>
        <time>2013-04-27T11:35:04Z</time>
      </trkpt>
      <trkpt lat="59.9838405" lon="17.5162614">
        <ele>41.474</ele>
        <time>2013-04-27T11:35:05Z</time>
      </trkpt>
      <trkpt lat="59.98381" lon="17.5163677">
        <ele>40.9934</ele>
        <time>2013-04-27T11:35:06Z</time>
      </trkpt>
      <trkpt lat="59.9837794" lon="17.5164728">
        <ele>40.9934</ele>
        <time>2013-04-27T11:35:07Z</time>
      </trkpt>
      <trkpt lat="59.9837484" lon="17.5165806">
        <ele>40.9934</ele>
        <time>2013-04-27T11:35:08Z</time>
      </trkpt>
      <trkpt lat="59.9837178" lon="17.5166924">
        <ele>40.9934</ele>
        <time>2013-04-27T11:35:09Z</time>
      </trkpt>
      <trkpt lat="59.9836855" lon="17.516807">
        <ele>40.9934</ele>
        <time>2013-04-27T11:35:10Z</time>
      </trkpt>
      <trkpt lat="59.9836561" lon="17.516922">
        <ele>40.9934</ele>
        <time>2013-04-27T11:35:11Z</time>
      </trkpt>
      <trkpt lat="59.9836267" lon="17.5170401">
        <ele>40.9934</ele>
        <time>2013-04-27T11:35:12Z</time>
      </trkpt>
      <trkpt lat="59.9835962" lon="17.5171622">
        <ele>40.9934</ele>
        <time>2013-04-27T11:35:13Z</time>
      </trkpt>
      <trkpt lat="59.9835635" lon="17.5172864">
        <ele>40.9934</ele>
        <time>2013-04-27T11:35:14Z</time>
      </trkpt>
      <trkpt lat="59.9835275" lon="17.5174112">
        <ele>40.9934</ele>
        <time>2013-04-27T11:35:15Z</time>
      </trkpt>
      <trkpt lat="59.9834859" lon="17.5175335">
        <ele>40.9934</ele>
        <time>2013-04-27T11:35:16Z</time>
      </trkpt>
      <trkpt lat="59.9834355" lon="17.5176464">
        <ele>40.9934</ele>
        <time>2013-04-27T11:35:17Z</time>
      </trkpt>
      <trkpt lat="59.9833665" lon="17.5177282">
        <ele>40.9934</ele>
        <time>2013-04-27T11:35:18Z</time>
      </trkpt>
      <trkpt lat="59.9833009" lon="17.5177906">
        <ele>40.5128</ele>
        <time>2013-04-27T11:35:19Z</time>
      </trkpt>
      <trkpt lat="59.9832326" lon="17.5178403">
        <ele>40.5128</ele>
        <time>2013-04-27T11:35:20Z</time>
      </trkpt>
      <trkpt lat="59.9831626" lon="17.5178793">
        <ele>40.0321</ele>
        <time>2013-04-27T11:35:21Z</time>
      </trkpt>
      <trkpt lat="59.9830935" lon="17.5179055">
        <ele>39.5513</ele>
        <time>2013-04-27T11:35:22Z</time>
      </trkpt>
      <trkpt lat="59.9830238" lon="17.5179298">
        <ele>39.0707</ele>
        <time>2013-04-27T11:35:23Z</time>
      </trkpt>
      <trkpt lat="59.9829536" lon="17.5179557">
        <ele>38.5901</ele>
        <time>2013-04-27T11:35:24Z</time>
      </trkpt>
      <trkpt lat="59.9828841" lon="17.5179827">
        <ele>38.5901</ele>
        <time>2013-04-27T11:35:25Z</time>
      </trkpt>
      <trkpt lat="59.9828134" lon="17.5180079">
        <ele>38.5901</ele>
        <time>2013-04-27T11:35:26Z</time>
      </trkpt>
      <trkpt lat="59.9827438" lon="17.5180302">
        <ele>38.1094</ele>
        <time>2013-04-27T11:35:27Z</time>
      </trkpt>
      <trkpt lat="59.9826761" lon="17.5180517">
        <ele>37.6287</ele>
        <time>2013-04-27T11:35:28Z</time>
      </trkpt>
      <trkpt lat="59.9826087" lon="17.5180739">
        <ele>37.6287</ele>
        <time>2013-04-27T11:35:29Z</time>
      </trkpt>
      <trkpt lat="59.9825405" lon="17.5180953">
        <ele>37.6287</ele>
        <time>2013-04-27T11:35:30Z</time>
      </trkpt>
      <trkpt lat="59.9824725" lon="17.5181194">
        <ele>37.1481</ele>
        <time>2013-04-27T11:35:31Z</time>
      </trkpt>
      <trkpt lat="59.9824056" lon="17.5181412">
        <ele>37.1481</ele>
        <time>2013-04-27T11:35:32Z</time>
      </trkpt>
      <trkpt lat="59.9823389" lon="17.5181608">
        <ele>37.1481</ele>
        <time>2013-04-27T11:35:33Z</time>
      </trkpt>
      <trkpt lat="59.9822718" lon="17.5181817">
        <ele>37.1481</ele>
        <time>2013-04-27T11:35:34Z</time>
      </trkpt>
      <trkpt lat="59.9822052" lon="17.5181966">
        <ele>37.1481</ele>
        <time>2013-04-27T11:35:35Z</time>
      </trkpt>
      <trkpt lat="59.9821379" lon="17.5182115">
        <ele>36.6675</ele>
        <time>2013-04-27T11:35:36Z</time>
      </trkpt>
      <trkpt lat="59.9820726" lon="17.5182262">
        <ele>36.1868</ele>
        <time>2013-04-27T11:35:37Z</time>
      </trkpt>
      <trkpt lat="59.9820059" lon="17.5182366">
        <ele>35.7061</ele>
        <time>2013-04-27T11:35:38Z</time>
      </trkpt>
      <trkpt lat="59.9819385" lon="17.5182405">
        <ele>35.7061</ele>
        <time>2013-04-27T11:35:39Z</time>
      </trkpt>
      <trkpt lat="59.9818706" lon="17.5182343">
        <ele>35.2255</ele>
        <time>2013-04-27T11:35:40Z</time>
      </trkpt>
      <trkpt lat="59.9818025" lon="17.5182231">
        <ele>34.7449</ele>
        <time>2013-04-27T11:35:41Z</time>
      </trkpt>
      <trkpt lat="59.9817339" lon="17.5182112">
        <ele>34.2642</ele>
        <time>2013-04-27T11:35:42Z</time>
      </trkpt>
      <trkpt lat="59.9816624" lon="17.5182029">
        <ele>33.7834</ele>
        <time>2013-04-27T11:35:43Z</time>
      </trkpt>
      <trkpt lat="59.9815898" lon="17.5181962">
        <ele>33.3029</ele>
        <time>2013-04-27T11:35:44Z</time>
      </trkpt>
      <trkpt lat="59.9815182" lon="17.5181868">
        <ele>32.8223</ele>
        <time>2013-04-27T11:35:45Z</time>
      </trkpt>
      <trkpt lat="59.9814464" lon="17.5181764">
        <ele>32.8223</ele>
        <time>2013-04-27T11:35:46Z</time>
      </trkpt>
      <trkpt lat="59.9813744" lon="17.5181642">
        <ele>32.3416</ele>
        <time>2013-04-27T11:35:47Z</time>
      </trkpt>
      <trkpt lat="59.9813024" lon="17.5181509">
        <ele>32.3416</ele>
        <time>2013-04-27T11:35:48Z</time>
      </trkpt>
      <trkpt lat="59.9812341" lon="17.5181331">
        <ele>32.3416</ele>
        <time>2013-04-27T11:35:49Z</time>
      </trkpt>
      <trkpt lat="59.981167" lon="17.5181159">
        <ele>31.8607</ele>
        <time>2013-04-27T11:35:50Z</time>
      </trkpt>
      <trkpt lat="59.9810988" lon="17.5180971">
        <ele>31.8607</ele>
        <time>2013-04-27T11:35:51Z</time>
      </trkpt>
      <trkpt lat="59.9810272" lon="17.5180781">
        <ele>31.3801</ele>
        <time>2013-04-27T11:35:52Z</time>
      </trkpt>
      <trkpt lat="59.9809551" lon="17.5180597">
        <ele>31.3801</ele>
        <time>2013-04-27T11:35:53Z</time>
      </trkpt>
      <trkpt lat="59.9808833" lon="17.5180428">
        <ele>31.3801</ele>
        <time>2013-04-27T11:35:54Z</time>
      </trkpt>
      <trkpt lat="59.9808128" lon="17.518025">
        <ele>31.3801</ele>
        <time>2013-04-27T11:35:55Z</time>
      </trkpt>
      <trkpt lat="59.980742" lon="17.518007">
        <ele>31.3801</ele>
        <time>2013-04-27T11:35:56Z</time>
      </trkpt>
      <trkpt lat="59.9806709" lon="17.5179899">
        <ele>31.3801</ele>
        <time>2013-04-27T11:35:57Z</time>
      </trkpt>
      <trkpt lat="59.9805985" lon="17.5179774">
        <ele>30.8995</ele>
        <time>2013-04-27T11:35:58Z</time>
      </trkpt>
      <trkpt lat="59.9805263" lon="17.5179667">
        <ele>30.8995</ele>
        <time>2013-04-27T11:35:59Z</time>
      </trkpt>
      <trkpt lat="59.9804552" lon="17.51796">
        <ele>30.8995</ele>
        <time>2013-04-27T11:36:00Z</time>
      </trkpt>
      <trkpt lat="59.980385" lon="17.5179599">
        <ele>30.8995</ele>
        <time>2013-04-27T11:36:01Z</time>
      </trkpt>
      <trkpt lat="59.9803145" lon="17.517967">
        <ele>31.3801</ele>
        <time>2013-04-27T11:36:02Z</time>
      </trkpt>
      <trkpt lat="59.980245" lon="17.517979">
        <ele>30.8995</ele>
        <time>2013-04-27T11:36:03Z</time>
      </trkpt>
      <trkpt lat="59.980177" lon="17.517997">
        <ele>30.8995</ele>
        <time>2013-04-27T11:36:04Z</time>
      </trkpt>
      <trkpt lat="59.9801095" lon="17.5180242">
        <ele>30.8995</ele>
        <time>2013-04-27T11:36:05Z</time>
      </trkpt>
      <trkpt lat="59.9800425" lon="17.5180594">
        <ele>30.8995</ele>
        <time>2013-04-27T11:36:06Z</time>
      </trkpt>
      <trkpt lat="59.9799748" lon="17.5181008">
        <ele>30.4188</ele>
        <time>2013-04-27T11:36:07Z</time>
      </trkpt>
      <trkpt lat="59.9799072" lon="17.518147">
        <ele>30.4188</ele>
        <time>2013-04-27T11:36:08Z</time>
      </trkpt>
      <trkpt lat="59.9798398" lon="17.5181973">
        <ele>30.4188</ele>
        <time>2013-04-27T11:36:09Z</time>
      </trkpt>
      <trkpt lat="59.979773" lon="17.5182495">
        <ele>30.4188</ele>
        <time>2013-04-27T11:36:10Z</time>
      </trkpt>
      <trkpt lat="59.9797074" lon="17.5183065">
        <ele>30.4188</ele>
        <time>2013-04-27T11:36:11Z</time>
      </trkpt>
      <trkpt lat="59.979642" lon="17.5183676">
        <ele>30.4188</ele>
        <time>2013-04-27T11:36:12Z</time>
      </trkpt>
      <trkpt lat="59.979577" lon="17.5184291">
        <ele>30.8995</ele>
        <time>2013-04-27T11:36:13Z</time>
      </trkpt>
      <trkpt lat="59.9795121" lon="17.5184919">
        <ele>30.8995</ele>
        <time>2013-04-27T11:36:14Z</time>
      </trkpt>
      <trkpt lat="59.9794479" lon="17.5185547">
        <ele>30.8995</ele>
        <time>2013-04-27T11:36:15Z</time>
      </trkpt>
      <trkpt lat="59.9793852" lon="17.5186176">
        <ele>31.3801</ele>
        <time>2013-04-27T11:36:16Z</time>
      </trkpt>
      <trkpt lat="59.9793229" lon="17.518678">
        <ele>31.3801</ele>
        <time>2013-04-27T11:36:17Z</time>
      </trkpt>
      <trkpt lat="59.979262" lon="17.5187373">
        <ele>31.3801</ele>
        <time>2013-04-27T11:36:18Z</time>
      </trkpt>
      <trkpt lat="59.9792021" lon="17.5187946">
        <ele>31.3801</ele>
        <time>2013-04-27T11:36:19Z</time>
      </trkpt>
      <trkpt lat="59.9791427" lon="17.5188488">
        <ele>31.8607</ele>
        <time>2013-04-27T11:36:20Z</time>
      </trkpt>
      <trkpt lat="59.9790832" lon="17.5189">
        <ele>31.8607</ele>
        <time>2013-04-27T11:36:21Z</time>
      </trkpt>
      <trkpt lat="59.979024" lon="17.5189464">
        <ele>31.8607</ele>
        <time>2013-04-27T11:36:22Z</time>
      </trkpt>
      <trkpt lat="59.9789639" lon="17.5189921">
        <ele>32.3416</ele>
        <time>2013-04-27T11:36:23Z</time>
      </trkpt>
      <trkpt lat="59.9789017" lon="17.5190364">
        <ele>31.8607</ele>
        <time>2013-04-27T11:36:24Z</time>
      </trkpt>
      <trkpt lat="59.9788369" lon="17.5190773">
        <ele>31.8607</ele>
        <time>2013-04-27T11:36:25Z</time>
      </trkpt>
      <trkpt lat="59.9787717" lon="17.5191168">
        <ele>32.3416</ele>
        <time>2013-04-27T11:36:26Z</time>
      </trkpt>
      <trkpt lat="59.9787067" lon="17.519155">
        <ele>32.3416</ele>
        <time>2013-04-27T11:36:27Z</time>
      </trkpt>
      <trkpt lat="59.9786429" lon="17.5191942">
        <ele>32.3416</ele>
        <time>2013-04-27T11:36:28Z</time>
      </trkpt>
      <trkpt lat="59.9785802" lon="17.5192352">
        <ele>32.3416</ele>
        <time>2013-04-27T11:36:29Z</time>
      </trkpt>
      <trkpt lat="59.9785187" lon="17.5192792">
        <ele>32.8223</ele>
        <time>2013-04-27T11:36:30Z</time>
      </trkpt>
      <trkpt lat="59.9784585" lon="17.5193261">
        <ele>32.8223</ele>
        <time>2013-04-27T11:36:31Z</time>
      </trkpt>
      <trkpt lat="59.9783995" lon="17.5193779">
        <ele>32.8223</ele>
        <time>2013-04-27T11:36:32Z</time>
      </trkpt>
      <trkpt lat="59.978343" lon="17.5194364">
        <ele>32.8223</ele>
        <time>2013-04-27T11:36:33Z</time>
      </trkpt>
      <trkpt lat="59.9782881" lon="17.519502">
        <ele>33.3029</ele>
        <time>2013-04-27T11:36:34Z</time>
      </trkpt>
      <trkpt lat="59.9782336" lon="17.5195731">
        <ele>33.3029</ele>
        <time>2013-04-27T11:36:35Z</time>
      </trkpt>
      <trkpt lat="59.9781786" lon="17.5196477">
        <ele>33.3029</ele>
        <time>2013-04-27T11:36:36Z</time>
      </trkpt>
      <trkpt lat="59.9781252" lon="17.5197275">
        <ele>33.3029</ele>
        <time>2013-04-27T11:36:37Z</time>
      </trkpt>
      <trkpt lat="59.9780747" lon="17.5198112">
        <ele>33.3029</ele>
        <time>2013-04-27T11:36:38Z</time>
      </trkpt>
      <trkpt lat="59.978028" lon="17.5199014">
        <ele>33.3029</ele>
        <time>2013-04-27T11:36:39Z</time>
      </trkpt>
      <trkpt lat="59.9779838" lon="17.5199976">
        <ele>33.7834</ele>
        <time>2013-04-27T11:36:40Z</time>
      </trkpt>
      <trkpt lat="59.9779415" lon="17.5200979">
        <ele>33.7834</ele>
        <time>2013-04-27T11:36:41Z</time>
      </trkpt>
      <trkpt lat="59.977901" lon="17.5202003">
        <ele>33.7834</ele>
        <time>2013-04-27T11:36:42Z</time>
      </trkpt>
      <trkpt lat="59.9778627" lon="17.5203034">
        <ele>34.2642</ele>
        <time>2013-04-27T11:36:43Z</time>
      </trkpt>
      <trkpt lat="59.9778248" lon="17.5204064">
        <ele>34.2642</ele>
        <time>2013-04-27T11:36:44Z</time>
      </trkpt>
      <trkpt lat="59.9777876" lon="17.5205101">
        <ele>34.2642</ele>
        <time>2013-04-27T11:36:45Z</time>
      </trkpt>
      <trkpt lat="59.9777501" lon="17.5206153">
        <ele>34.2642</ele>
        <time>2013-04-27T11:36:46Z</time>
      </trkpt>
      <trkpt lat="59.9777116" lon="17.5207214">
        <ele>34.7449</ele>
        <time>2013-04-27T11:36:47Z</time>
      </trkpt>
      <trkpt lat="59.9776735" lon="17.520827">
        <ele>34.7449</ele>
        <time>2013-04-27T11:36:48Z</time>
      </trkpt>
      <trkpt lat="59.9776355" lon="17.5209328">
        <ele>34.7449</ele>
        <time>2013-04-27T11:36:49Z</time>
      </trkpt>
      <trkpt lat="59.9775968" lon="17.5210385">
        <ele>34.7449</ele>
        <time>2013-04-27T11:36:50Z</time>
      </trkpt>
      <trkpt lat="59.9775577" lon="17.5211451">
        <ele>35.2255</ele>
        <time>2013-04-27T11:36:51Z</time>
      </trkpt>
      <trkpt lat="59.9775187" lon="17.5212508">
        <ele>35.2255</ele>
        <time>2013-04-27T11:36:52Z</time>
      </trkpt>
      <trkpt lat="59.9774799" lon="17.5213555">
        <ele>35.2255</ele>
        <time>2013-04-27T11:36:53Z</time>
      </trkpt>
      <trkpt lat="59.9774406" lon="17.5214599">
        <ele>35.2255</ele>
        <time>2013-04-27T11:36:54Z</time>
      </trkpt>
      <trkpt lat="59.977401" lon="17.5215623">
        <ele>35.7061</ele>
        <time>2013-04-27T11:36:55Z</time>
      </trkpt>
      <trkpt lat="59.9773618" lon="17.5216622">
        <ele>35.7061</ele>
        <time>2013-04-27T11:36:56Z</time>
      </trkpt>
      <trkpt lat="59.977322" lon="17.5217601">
        <ele>35.7061</ele>
        <time>2013-04-27T11:36:57Z</time>
      </trkpt>
      <trkpt lat="59.977281" lon="17.5218569">
        <ele>35.7061</ele>
        <time>2013-04-27T11:36:58Z</time>
      </trkpt>
      <trkpt lat="59.9772389" lon="17.5219539">
        <ele>35.7061</ele>
        <time>2013-04-27T11:36:59Z</time>
      </trkpt>
      <trkpt lat="59.9771957" lon="17.5220507">
        <ele>35.7061</ele>
        <time>2013-04-27T11:37:00Z</time>
      </trkpt>
      <trkpt lat="59.9771529" lon="17.5221463">
        <ele>35.7061</ele>
        <time>2013-04-27T11:37:01Z</time>
      </trkpt>
      <trkpt lat="59.9771112" lon="17.5222425">
        <ele>35.7061</ele>
        <time>2013-04-27T11:37:02Z</time>
      </trkpt>
      <trkpt lat="59.9770696" lon="17.5223371">
        <ele>35.7061</ele>
        <time>2013-04-27T11:37:03Z</time>
      </trkpt>
      <trkpt lat="59.9770267" lon="17.5224279">
        <ele>35.7061</ele>
        <time>2013-04-27T11:37:04Z</time>
      </trkpt>
      <trkpt lat="59.9769838" lon="17.5225185">
        <ele>35.7061</ele>
        <time>2013-04-27T11:37:05Z</time>
      </trkpt>
      <trkpt lat="59.9769407" lon="17.5226112">
        <ele>35.7061</ele>
        <time>2013-04-27T11:37:06Z</time>
      </trkpt>
      <trkpt lat="59.9768966" lon="17.5227056">
        <ele>35.7061</ele>
        <time>2013-04-27T11:37:07Z</time>
      </trkpt>
      <trkpt lat="59.9768515" lon="17.5228008">
        <ele>35.7061</ele>
        <time>2013-04-27T11:37:08Z</time>
      </trkpt>
      <trkpt lat="59.9768056" lon="17.5228945">
        <ele>35.7061</ele>
        <time>2013-04-27T11:37:09Z</time>
      </trkpt>
      <trkpt lat="59.9767595" lon="17.5229847">
        <ele>35.7061</ele>
        <time>2013-04-27T11:37:10Z</time>
      </trkpt>
      <trkpt lat="59.9767139" lon="17.5230725">
        <ele>35.7061</ele>
        <time>2013-04-27T11:37:11Z</time>
      </trkpt>
      <trkpt lat="59.9766688" lon="17.5231597">
        <ele>35.7061</ele>
        <time>2013-04-27T11:37:12Z</time>
      </trkpt>
      <trkpt lat="59.9766245" lon="17.5232483">
        <ele>35.7061</ele>
        <time>2013-04-27T11:37:13Z</time>
      </trkpt>
      <trkpt lat="59.9765802" lon="17.5233374">
        <ele>36.1868</ele>
        <time>2013-04-27T11:37:14Z</time>
      </trkpt>
      <trkpt lat="59.9765356" lon="17.5234265">
        <ele>36.1868</ele>
        <time>2013-04-27T11:37:15Z</time>
      </trkpt>
      <trkpt lat="59.97649" lon="17.523515">
        <ele>36.1868</ele>
        <time>2013-04-27T11:37:16Z</time>
      </trkpt>
      <trkpt lat="59.9764439" lon="17.523603">
        <ele>36.1868</ele>
        <time>2013-04-27T11:37:17Z</time>
      </trkpt>
      <trkpt lat="59.9763974" lon="17.5236892">
        <ele>36.1868</ele>
        <time>2013-04-27T11:37:18Z</time>
      </trkpt>
      <trkpt lat="59.9763507" lon="17.5237751">
        <ele>36.1868</ele>
        <time>2013-04-27T11:37:19Z</time>
      </trkpt>
      <trkpt lat="59.9763046" lon="17.5238605">
        <ele>36.1868</ele>
        <time>2013-04-27T11:37:20Z</time>
      </trkpt>
      <trkpt lat="59.9762588" lon="17.5239438">
        <ele>36.1868</ele>
        <time>2013-04-27T11:37:21Z</time>
      </trkpt>
      <trkpt lat="59.9762138" lon="17.5240284">
        <ele>36.1868</ele>
        <time>2013-04-27T11:37:22Z</time>
      </trkpt>
      <trkpt lat="59.9761699" lon="17.5241156">
        <ele>36.1868</ele>
        <time>2013-04-27T11:37:23Z</time>
      </trkpt>
      <trkpt lat="59.9761268" lon="17.5242055">
        <ele>36.6675</ele>
        <time>2013-04-27T11:37:24Z</time>
      </trkpt>
      <trkpt lat="59.9760848" lon="17.5242977">
        <ele>36.6675</ele>
        <time>2013-04-27T11:37:25Z</time>
      </trkpt>
      <trkpt lat="59.976043" lon="17.52439">
        <ele>36.6675</ele>
        <time>2013-04-27T11:37:26Z</time>
      </trkpt>
      <trkpt lat="59.9760014" lon="17.5244827">
        <ele>36.6675</ele>
        <time>2013-04-27T11:37:27Z</time>
      </trkpt>
      <trkpt lat="59.9759595" lon="17.5245763">
        <ele>36.6675</ele>
        <time>2013-04-27T11:37:28Z</time>
      </trkpt>
      <trkpt lat="59.9759177" lon="17.5246712">
        <ele>36.6675</ele>
        <time>2013-04-27T11:37:29Z</time>
      </trkpt>
      <trkpt lat="59.9758767" lon="17.5247666">
        <ele>36.6675</ele>
        <time>2013-04-27T11:37:30Z</time>
      </trkpt>
      <trkpt lat="59.9758353" lon="17.5248604">
        <ele>37.1481</ele>
        <time>2013-04-27T11:37:31Z</time>
      </trkpt>
      <trkpt lat="59.9757918" lon="17.5249506">
        <ele>37.1481</ele>
        <time>2013-04-27T11:37:32Z</time>
      </trkpt>
      <trkpt lat="59.9757467" lon="17.5250391">
        <ele>37.1481</ele>
        <time>2013-04-27T11:37:33Z</time>
      </trkpt>
      <trkpt lat="59.9756996" lon="17.5251247">
        <ele>37.1481</ele>
        <time>2013-04-27T11:37:34Z</time>
      </trkpt>
      <trkpt lat="59.9756508" lon="17.525206">
        <ele>37.1481</ele>
        <time>2013-04-27T11:37:35Z</time>
      </trkpt>
      <trkpt lat="59.9756006" lon="17.5252861">
        <ele>37.1481</ele>
        <time>2013-04-27T11:37:36Z</time>
      </trkpt>
      <trkpt lat="59.9755502" lon="17.5253655">
        <ele>37.6287</ele>
        <time>2013-04-27T11:37:37Z</time>
      </trkpt>
      <trkpt lat="59.9754997" lon="17.5254414">
        <ele>37.6287</ele>
        <time>2013-04-27T11:37:38Z</time>
      </trkpt>
      <trkpt lat="59.9754488" lon="17.5255145">
        <ele>37.6287</ele>
        <time>2013-04-27T11:37:39Z</time>
      </trkpt>
      <trkpt lat="59.9754001" lon="17.5255812">
        <ele>37.6287</ele>
        <time>2013-04-27T11:37:40Z</time>
      </trkpt>
      <trkpt lat="59.9753468" lon="17.5256528">
        <ele>37.6287</ele>
        <time>2013-04-27T11:37:41Z</time>
      </trkpt>
      <trkpt lat="59.9752929" lon="17.5257209">
        <ele>37.6287</ele>
        <time>2013-04-27T11:37:42Z</time>
      </trkpt>
      <trkpt lat="59.9752379" lon="17.5257871">
        <ele>37.6287</ele>
        <time>2013-04-27T11:37:43Z</time>
      </trkpt>
      <trkpt lat="59.9751831" lon="17.5258529">
        <ele>37.6287</ele>
        <time>2013-04-27T11:37:44Z</time>
      </trkpt>
      <trkpt lat="59.9751295" lon="17.5259161">
        <ele>38.1094</ele>
        <time>2013-04-27T11:37:45Z</time>
      </trkpt>
      <trkpt lat="59.9750749" lon="17.5259746">
        <ele>38.1094</ele>
        <time>2013-04-27T11:37:46Z</time>
      </trkpt>
      <trkpt lat="59.9750211" lon="17.5260305">
        <ele>38.5901</ele>
        <time>2013-04-27T11:37:47Z</time>
      </trkpt>
      <trkpt lat="59.974968" lon="17.5260886">
        <ele>38.5901</ele>
        <time>2013-04-27T11:37:48Z</time>
      </trkpt>
      <trkpt lat="59.9749142" lon="17.5261476">
        <ele>39.0707</ele>
        <time>2013-04-27T11:37:49Z</time>
      </trkpt>
      <trkpt lat="59.9748602" lon="17.5262063">
        <ele>39.0707</ele>
        <time>2013-04-27T11:37:50Z</time>
      </trkpt>
      <trkpt lat="59.9748065" lon="17.5262647">
        <ele>39.0707</ele>
        <time>2013-04-27T11:37:51Z</time>
      </trkpt>
      <trkpt lat="59.9747524" lon="17.5263238">
        <ele>39.0707</ele>
        <time>2013-04-27T11:37:52Z</time>
      </trkpt>
      <trkpt lat="59.9746982" lon="17.5263837">
        <ele>38.5901</ele>
        <time>2013-04-27T11:37:53Z</time>
      </trkpt>
      <trkpt lat="59.9746437" lon="17.5264466">
        <ele>38.5901</ele>
        <time>2013-04-27T11:37:54Z</time>
      </trkpt>
      <trkpt lat="59.9745887" lon="17.5265107">
        <ele>38.5901</ele>
        <time>2013-04-27T11:37:55Z</time>
      </trkpt>
      <trkpt lat="59.9745345" lon="17.5265727">
        <ele>38.5901</ele>
        <time>2013-04-27T11:37:56Z</time>
      </trkpt>
      <trkpt lat="59.9744815" lon="17.5266339">
        <ele>38.5901</ele>
        <time>2013-04-27T11:37:57Z</time>
      </trkpt>
      <trkpt lat="59.9744289" lon="17.5266941">
        <ele>38.5901</ele>
        <time>2013-04-27T11:37:58Z</time>
      </trkpt>
      <trkpt lat="59.9743759" lon="17.5267532">
        <ele>38.5901</ele>
        <time>2013-04-27T11:37:59Z</time>
      </trkpt>
      <trkpt lat="59.9743222" lon="17.5268153">
        <ele>38.5901</ele>
        <time>2013-04-27T11:38:00Z</time>
      </trkpt>
      <trkpt lat="59.9742688" lon="17.5268785">
        <ele>38.5901</ele>
        <time>2013-04-27T11:38:01Z</time>
      </trkpt>
      <trkpt lat="59.9742152" lon="17.5269418">
        <ele>38.1094</ele>
        <time>2013-04-27T11:38:02Z</time>
      </trkpt>
      <trkpt lat="59.9741601" lon="17.5270034">
        <ele>38.1094</ele>
        <time>2013-04-27T11:38:03Z</time>
      </trkpt>
      <trkpt lat="59.9741051" lon="17.5270596">
        <ele>38.5901</ele>
        <time>2013-04-27T11:38:04Z</time>
      </trkpt>
      <trkpt lat="59.9740492" lon="17.5271171">
        <ele>38.5901</ele>
        <time>2013-04-27T11:38:05Z</time>
      </trkpt>
      <trkpt lat="59.9739928" lon="17.5271722">
        <ele>38.5901</ele>
        <time>2013-04-27T11:38:06Z</time>
      </trkpt>
      <trkpt lat="59.9739322" lon="17.5272298">
        <ele>38.5901</ele>
        <time>2013-04-27T11:38:07Z</time>
      </trkpt>
      <trkpt lat="59.9738736" lon="17.5272845">
        <ele>38.5901</ele>
        <time>2013-04-27T11:38:08Z</time>
      </trkpt>
      <trkpt lat="59.973813" lon="17.527337">
        <ele>38.1094</ele>
        <time>2013-04-27T11:38:09Z</time>
      </trkpt>
      <trkpt lat="59.9737512" lon="17.5273891">
        <ele>38.1094</ele>
        <time>2013-04-27T11:38:10Z</time>
      </trkpt>
      <trkpt lat="59.9736881" lon="17.5274415">
        <ele>38.1094</ele>
        <time>2013-04-27T11:38:11Z</time>
      </trkpt>
      <trkpt lat="59.9736259" lon="17.5274938">
        <ele>38.1094</ele>
        <time>2013-04-27T11:38:12Z</time>
      </trkpt>
      <trkpt lat="59.9735637" lon="17.5275479">
        <ele>38.1094</ele>
        <time>2013-04-27T11:38:13Z</time>
      </trkpt>
      <trkpt lat="59.9735011" lon="17.5276043">
        <ele>38.1094</ele>
        <time>2013-04-27T11:38:14Z</time>
      </trkpt>
      <trkpt lat="59.9734388" lon="17.5276606">
        <ele>38.1094</ele>
        <time>2013-04-27T11:38:15Z</time>
      </trkpt>
      <trkpt lat="59.9733769" lon="17.527717">
        <ele>37.6287</ele>
        <time>2013-04-27T11:38:16Z</time>
      </trkpt>
      <trkpt lat="59.9733161" lon="17.5277742">
        <ele>37.6287</ele>
        <time>2013-04-27T11:38:17Z</time>
      </trkpt>
      <trkpt lat="59.9732543" lon="17.5278304">
        <ele>37.6287</ele>
        <time>2013-04-27T11:38:18Z</time>
      </trkpt>
      <trkpt lat="59.9731923" lon="17.5278862">
        <ele>37.6287</ele>
        <time>2013-04-27T11:38:19Z</time>
      </trkpt>
      <trkpt lat="59.9731316" lon="17.5279436">
        <ele>37.6287</ele>
        <time>2013-04-27T11:38:20Z</time>
      </trkpt>
      <trkpt lat="59.973071" lon="17.5280015">
        <ele>37.6287</ele>
        <time>2013-04-27T11:38:21Z</time>
      </trkpt>
      <trkpt lat="59.97301" lon="17.5280583">
        <ele>37.6287</ele>
        <time>2013-04-27T11:38:22Z</time>
      </trkpt>
      <trkpt lat="59.9729494" lon="17.5281156">
        <ele>37.6287</ele>
        <time>2013-04-27T11:38:23Z</time>
      </trkpt>
      <trkpt lat="59.9728894" lon="17.5281739">
        <ele>37.1481</ele>
        <time>2013-04-27T11:38:24Z</time>
      </trkpt>
      <trkpt lat="59.9728291" lon="17.5282335">
        <ele>37.1481</ele>
        <time>2013-04-27T11:38:25Z</time>
      </trkpt>
      <trkpt lat="59.9727676" lon="17.5282928">
        <ele>37.1481</ele>
        <time>2013-04-27T11:38:26Z</time>
      </trkpt>
      <trkpt lat="59.972706" lon="17.5283533">
        <ele>37.1481</ele>
        <time>2013-04-27T11:38:27Z</time>
      </trkpt>
      <trkpt lat="59.9726446" lon="17.5284149">
        <ele>37.1481</ele>
        <time>2013-04-27T11:38:28Z</time>
      </trkpt>
      <trkpt lat="59.9725835" lon="17.5284772">
        <ele>37.1481</ele>
        <time>2013-04-27T11:38:29Z</time>
      </trkpt>
      <trkpt lat="59.9725216" lon="17.5285386">
        <ele>37.1481</ele>
        <time>2013-04-27T11:38:30Z</time>
      </trkpt>
      <trkpt lat="59.9724594" lon="17.5285997">
        <ele>37.1481</ele>
        <time>2013-04-27T11:38:31Z</time>
      </trkpt>
      <trkpt lat="59.9723972" lon="17.5286631">
        <ele>37.1481</ele>
        <time>2013-04-27T11:38:32Z</time>
      </trkpt>
      <trkpt lat="59.9723349" lon="17.5287293">
        <ele>37.6287</ele>
        <time>2013-04-27T11:38:33Z</time>
      </trkpt>
      <trkpt lat="59.9722734" lon="17.5287915">
        <ele>37.6287</ele>
        <time>2013-04-27T11:38:34Z</time>
      </trkpt>
      <trkpt lat="59.9722127" lon="17.5288517">
        <ele>37.6287</ele>
        <time>2013-04-27T11:38:35Z</time>
      </trkpt>
      <trkpt lat="59.9721528" lon="17.5289128">
        <ele>37.6287</ele>
        <time>2013-04-27T11:38:36Z</time>
      </trkpt>
      <trkpt lat="59.9720942" lon="17.5289764">
        <ele>37.6287</ele>
        <time>2013-04-27T11:38:37Z</time>
      </trkpt>
      <trkpt lat="59.9720362" lon="17.5290403">
        <ele>37.6287</ele>
        <time>2013-04-27T11:38:38Z</time>
      </trkpt>
      <trkpt lat="59.9719777" lon="17.5291052">
        <ele>37.6287</ele>
        <time>2013-04-27T11:38:39Z</time>
      </trkpt>
      <trkpt lat="59.97192" lon="17.5291736">
        <ele>38.1094</ele>
        <time>2013-04-27T11:38:40Z</time>
      </trkpt>
      <trkpt lat="59.9718652" lon="17.5292405">
        <ele>38.1094</ele>
        <time>2013-04-27T11:38:41Z</time>
      </trkpt>
      <trkpt lat="59.9718119" lon="17.5293055">
        <ele>38.1094</ele>
        <time>2013-04-27T11:38:42Z</time>
      </trkpt>
      <trkpt lat="59.9717565" lon="17.5293737">
        <ele>38.1094</ele>
        <time>2013-04-27T11:38:43Z</time>
      </trkpt>
      <trkpt lat="59.9717" lon="17.5294436">
        <ele>38.1094</ele>
        <time>2013-04-27T11:38:44Z</time>
      </trkpt>
      <trkpt lat="59.9716435" lon="17.5295151">
        <ele>38.1094</ele>
        <time>2013-04-27T11:38:45Z</time>
      </trkpt>
      <trkpt lat="59.9715881" lon="17.5295882">
        <ele>38.1094</ele>
        <time>2013-04-27T11:38:46Z</time>
      </trkpt>
      <trkpt lat="59.9715328" lon="17.5296654">
        <ele>37.6287</ele>
        <time>2013-04-27T11:38:47Z</time>
      </trkpt>
      <trkpt lat="59.9714802" lon="17.529741">
        <ele>37.6287</ele>
        <time>2013-04-27T11:38:48Z</time>
      </trkpt>
      <trkpt lat="59.9714279" lon="17.5298156">
        <ele>37.6287</ele>
        <time>2013-04-27T11:38:49Z</time>
      </trkpt>
      <trkpt lat="59.9713757" lon="17.5298906">
        <ele>37.6287</ele>
        <time>2013-04-27T11:38:50Z</time>
      </trkpt>
      <trkpt lat="59.9713259" lon="17.5299674">
        <ele>37.6287</ele>
        <time>2013-04-27T11:38:51Z</time>
      </trkpt>
      <trkpt lat="59.9712766" lon="17.530044">
        <ele>37.1481</ele>
        <time>2013-04-27T11:38:52Z</time>
      </trkpt>
      <trkpt lat="59.9712281" lon="17.5301185">
        <ele>36.6675</ele>
        <time>2013-04-27T11:38:53Z</time>
      </trkpt>
      <trkpt lat="59.9711781" lon="17.5301953">
        <ele>36.6675</ele>
        <time>2013-04-27T11:38:54Z</time>
      </trkpt>
      <trkpt lat="59.9711305" lon="17.5302684">
        <ele>36.1868</ele>
        <time>2013-04-27T11:38:55Z</time>
      </trkpt>
      <trkpt lat="59.9710882" lon="17.5303373">
        <ele>36.1868</ele>
        <time>2013-04-27T11:38:56Z</time>
      </trkpt>
      <trkpt lat="59.9710438" lon="17.5304098">
        <ele>35.2255</ele>
        <time>2013-04-27T11:38:57Z</time>
      </trkpt>
      <trkpt lat="59.9709955" lon="17.5304854">
        <ele>34.7449</ele>
        <time>2013-04-27T11:38:58Z</time>
      </trkpt>
      <trkpt lat="59.9709462" lon="17.5305619">
        <ele>34.7449</ele>
        <time>2013-04-27T11:38:59Z</time>
      </trkpt>
      <trkpt lat="59.970895" lon="17.5306398">
        <ele>34.2642</ele>
        <time>2013-04-27T11:39:00Z</time>
      </trkpt>
      <trkpt lat="59.9708407" lon="17.5307185">
        <ele>33.7834</ele>
        <time>2013-04-27T11:39:01Z</time>
      </trkpt>
      <trkpt lat="59.9707865" lon="17.5307995">
        <ele>33.3029</ele>
        <time>2013-04-27T11:39:02Z</time>
      </trkpt>
      <trkpt lat="59.9707321" lon="17.5308818">
        <ele>33.3029</ele>
        <time>2013-04-27T11:39:03Z</time>
      </trkpt>
      <trkpt lat="59.970679" lon="17.5309651">
        <ele>32.8223</ele>
        <time>2013-04-27T11:39:04Z</time>
      </trkpt>
      <trkpt lat="59.9706272" lon="17.5310488">
        <ele>32.8223</ele>
        <time>2013-04-27T11:39:05Z</time>
      </trkpt>
      <trkpt lat="59.9705764" lon="17.5311329">
        <ele>32.3416</ele>
        <time>2013-04-27T11:39:06Z</time>
      </trkpt>
      <trkpt lat="59.9705272" lon="17.5312189">
        <ele>32.3416</ele>
        <time>2013-04-27T11:39:07Z</time>
      </trkpt>
      <trkpt lat="59.9704786" lon="17.5313101">
        <ele>32.3416</ele>
        <time>2013-04-27T11:39:08Z</time>
      </trkpt>
      <trkpt lat="59.9704344" lon="17.5314032">
        <ele>32.3416</ele>
        <time>2013-04-27T11:39:09Z</time>
      </trkpt>
      <trkpt lat="59.9703879" lon="17.5315216">
        <ele>32.3416</ele>
        <time>2013-04-27T11:39:10Z</time>
      </trkpt>
      <trkpt lat="59.9703449" lon="17.5316178">
        <ele>31.8607</ele>
        <time>2013-04-27T11:39:11Z</time>
      </trkpt>
      <trkpt lat="59.9703045" lon="17.5317193">
        <ele>32.3416</ele>
        <time>2013-04-27T11:39:12Z</time>
      </trkpt>
      <trkpt lat="59.9702667" lon="17.5318225">
        <ele>32.3416</ele>
        <time>2013-04-27T11:39:13Z</time>
      </trkpt>
      <trkpt lat="59.9702299" lon="17.531931">
        <ele>32.3416</ele>
        <time>2013-04-27T11:39:14Z</time>
      </trkpt>
      <trkpt lat="59.9701939" lon="17.5320339">
        <ele>32.3416</ele>
        <time>2013-04-27T11:39:15Z</time>
      </trkpt>
      <trkpt lat="59.9701611" lon="17.5321294">
        <ele>32.3416</ele>
        <time>2013-04-27T11:39:16Z</time>
      </trkpt>
      <trkpt lat="59.9701269" lon="17.5322354">
        <ele>33.3029</ele>
        <time>2013-04-27T11:39:17Z</time>
      </trkpt>
      <trkpt lat="59.9700931" lon="17.5323409">
        <ele>33.3029</ele>
        <time>2013-04-27T11:39:18Z</time>
      </trkpt>
      <trkpt lat="59.9700697" lon="17.5324477">
        <ele>34.2642</ele>
        <time>2013-04-27T11:39:19Z</time>
      </trkpt>
      <trkpt lat="59.9700456" lon="17.532548">
        <ele>34.2642</ele>
        <time>2013-04-27T11:39:20Z</time>
      </trkpt>
      <trkpt lat="59.9700131" lon="17.532647">
        <ele>34.7449</ele>
        <time>2013-04-27T11:39:21Z</time>
      </trkpt>
      <trkpt lat="59.9699777" lon="17.5327486">
        <ele>34.7449</ele>
        <time>2013-04-27T11:39:22Z</time>
      </trkpt>
      <trkpt lat="59.9699422" lon="17.5328472">
        <ele>35.2255</ele>
        <time>2013-04-27T11:39:23Z</time>
      </trkpt>
      <trkpt lat="59.9699019" lon="17.5329451">
        <ele>35.2255</ele>
        <time>2013-04-27T11:39:24Z</time>
      </trkpt>
      <trkpt lat="59.9698608" lon="17.5330439">
        <ele>35.2255</ele>
        <time>2013-04-27T11:39:25Z</time>
      </trkpt>
      <trkpt lat="59.9698191" lon="17.5331414">
        <ele>35.7061</ele>
        <time>2013-04-27T11:39:26Z</time>
      </trkpt>
      <trkpt lat="59.9697741" lon="17.5332314">
        <ele>36.1868</ele>
        <time>2013-04-27T11:39:27Z</time>
      </trkpt>
      <trkpt lat="59.9697286" lon="17.5333131">
        <ele>36.1868</ele>
        <time>2013-04-27T11:39:28Z</time>
      </trkpt>
      <trkpt lat="59.9696835" lon="17.533391">
        <ele>36.1868</ele>
        <time>2013-04-27T11:39:29Z</time>
      </trkpt>
      <trkpt lat="59.9696383" lon="17.5334692">
        <ele>36.1868</ele>
        <time>2013-04-27T11:39:30Z</time>
      </trkpt>
      <trkpt lat="59.9695917" lon="17.5335498">
        <ele>36.1868</ele>
        <time>2013-04-27T11:39:31Z</time>
      </trkpt>
      <trkpt lat="59.9695397" lon="17.5336197">
        <ele>36.1868</ele>
        <time>2013-04-27T11:39:32Z</time>
      </trkpt>
      <trkpt lat="59.9694851" lon="17.5336951">
        <ele>36.1868</ele>
        <time>2013-04-27T11:39:33Z</time>
      </trkpt>
      <trkpt lat="59.9694323" lon="17.5337757">
        <ele>36.1868</ele>
        <time>2013-04-27T11:39:34Z</time>
      </trkpt>
      <trkpt lat="59.9693819" lon="17.5338541">
        <ele>35.7061</ele>
        <time>2013-04-27T11:39:35Z</time>
      </trkpt>
      <trkpt lat="59.9693332" lon="17.5339344">
        <ele>35.7061</ele>
        <time>2013-04-27T11:39:36Z</time>
      </trkpt>
      <trkpt lat="59.9692853" lon="17.5340171">
        <ele>35.2255</ele>
        <time>2013-04-27T11:39:37Z</time>
      </trkpt>
      <trkpt lat="59.9692382" lon="17.5341063">
        <ele>35.7061</ele>
        <time>2013-04-27T11:39:38Z</time>
      </trkpt>
      <trkpt lat="59.9691939" lon="17.5341836">
        <ele>35.7061</ele>
        <time>2013-04-27T11:39:39Z</time>
      </trkpt>
      <trkpt lat="59.9691496" lon="17.5342586">
        <ele>35.2255</ele>
        <time>2013-04-27T11:39:40Z</time>
      </trkpt>
      <trkpt lat="59.9691059" lon="17.5343296">
        <ele>34.7449</ele>
        <time>2013-04-27T11:39:41Z</time>
      </trkpt>
      <trkpt lat="59.9690621" lon="17.5344051">
        <ele>34.7449</ele>
        <time>2013-04-27T11:39:42Z</time>
      </trkpt>
      <trkpt lat="59.9690193" lon="17.5344803">
        <ele>34.7449</ele>
        <time>2013-04-27T11:39:43Z</time>
      </trkpt>
      <trkpt lat="59.9689722" lon="17.534564">
        <ele>34.7449</ele>
        <time>2013-04-27T11:39:44Z</time>
      </trkpt>
      <trkpt lat="59.9689255" lon="17.5346471">
        <ele>34.7449</ele>
        <time>2013-04-27T11:39:45Z</time>
      </trkpt>
      <trkpt lat="59.9688811" lon="17.53473">
        <ele>34.7449</ele>
        <time>2013-04-27T11:39:46Z</time>
      </trkpt>
      <trkpt lat="59.9688379" lon="17.5348129">
        <ele>34.2642</ele>
        <time>2013-04-27T11:39:47Z</time>
      </trkpt>
      <trkpt lat="59.9687955" lon="17.5348941">
        <ele>34.2642</ele>
        <time>2013-04-27T11:39:48Z</time>
      </trkpt>
      <trkpt lat="59.9687537" lon="17.5349733">
        <ele>34.7449</ele>
        <time>2013-04-27T11:39:49Z</time>
      </trkpt>
      <trkpt lat="59.968714" lon="17.5350513">
        <ele>34.7449</ele>
        <time>2013-04-27T11:39:50Z</time>
      </trkpt>
      <trkpt lat="59.9686775" lon="17.5351268">
        <ele>34.7449</ele>
        <time>2013-04-27T11:39:51Z</time>
      </trkpt>
      <trkpt lat="59.9686417" lon="17.5352028">
        <ele>34.7449</ele>
        <time>2013-04-27T11:39:52Z</time>
      </trkpt>
      <trkpt lat="59.9686023" lon="17.5352815">
        <ele>34.7449</ele>
        <time>2013-04-27T11:39:53Z</time>
      </trkpt>
      <trkpt lat="59.9685612" lon="17.5353608">
        <ele>34.7449</ele>
        <time>2013-04-27T11:39:54Z</time>
      </trkpt>
      <trkpt lat="59.9685195" lon="17.5354397">
        <ele>34.7449</ele>
        <time>2013-04-27T11:39:55Z</time>
      </trkpt>
      <trkpt lat="59.9684775" lon="17.5355185">
        <ele>34.2642</ele>
        <time>2013-04-27T11:39:56Z</time>
      </trkpt>
      <trkpt lat="59.9684345" lon="17.5355976">
        <ele>34.2642</ele>
        <time>2013-04-27T11:39:57Z</time>
      </trkpt>
      <trkpt lat="59.9683918" lon="17.5356764">
        <ele>34.2642</ele>
        <time>2013-04-27T11:39:58Z</time>
      </trkpt>
      <trkpt lat="59.9683504" lon="17.5357536">
        <ele>34.2642</ele>
        <time>2013-04-27T11:39:59Z</time>
      </trkpt>
      <trkpt lat="59.9683082" lon="17.5358277">
        <ele>33.7834</ele>
        <time>2013-04-27T11:40:00Z</time>
      </trkpt>
      <trkpt lat="59.9682657" lon="17.5359048">
        <ele>33.7834</ele>
        <time>2013-04-27T11:40:01Z</time>
      </trkpt>
      <trkpt lat="59.9682236" lon="17.5359861">
        <ele>33.7834</ele>
        <time>2013-04-27T11:40:02Z</time>
      </trkpt>
      <trkpt lat="59.9681825" lon="17.5360699">
        <ele>33.7834</ele>
        <time>2013-04-27T11:40:03Z</time>
      </trkpt>
      <trkpt lat="59.9681428" lon="17.5361587">
        <ele>33.7834</ele>
        <time>2013-04-27T11:40:04Z</time>
      </trkpt>
      <trkpt lat="59.968104" lon="17.5362519">
        <ele>33.7834</ele>
        <time>2013-04-27T11:40:05Z</time>
      </trkpt>
      <trkpt lat="59.968067" lon="17.5363463">
        <ele>33.7834</ele>
        <time>2013-04-27T11:40:06Z</time>
      </trkpt>
      <trkpt lat="59.968032" lon="17.5364415">
        <ele>33.7834</ele>
        <time>2013-04-27T11:40:07Z</time>
      </trkpt>
      <trkpt lat="59.9679978" lon="17.5365362">
        <ele>33.7834</ele>
        <time>2013-04-27T11:40:08Z</time>
      </trkpt>
      <trkpt lat="59.9679647" lon="17.536633">
        <ele>33.7834</ele>
        <time>2013-04-27T11:40:09Z</time>
      </trkpt>
      <trkpt lat="59.9679315" lon="17.5367319">
        <ele>33.7834</ele>
        <time>2013-04-27T11:40:10Z</time>
      </trkpt>
      <trkpt lat="59.9678969" lon="17.5368305">
        <ele>33.7834</ele>
        <time>2013-04-27T11:40:11Z</time>
      </trkpt>
      <trkpt lat="59.9678606" lon="17.53693">
        <ele>33.7834</ele>
        <time>2013-04-27T11:40:12Z</time>
      </trkpt>
      <trkpt lat="59.9678227" lon="17.537029">
        <ele>34.2642</ele>
        <time>2013-04-27T11:40:13Z</time>
      </trkpt>
      <trkpt lat="59.9677828" lon="17.5371227">
        <ele>34.2642</ele>
        <time>2013-04-27T11:40:14Z</time>
      </trkpt>
      <trkpt lat="59.967741" lon="17.5372139">
        <ele>34.7449</ele>
        <time>2013-04-27T11:40:15Z</time>
      </trkpt>
      <trkpt lat="59.9676988" lon="17.5372983">
        <ele>34.7449</ele>
        <time>2013-04-27T11:40:16Z</time>
      </trkpt>
      <trkpt lat="59.9676558" lon="17.5373791">
        <ele>34.7449</ele>
        <time>2013-04-27T11:40:17Z</time>
      </trkpt>
      <trkpt lat="59.9676118" lon="17.5374574">
        <ele>35.2255</ele>
        <time>2013-04-27T11:40:18Z</time>
      </trkpt>
      <trkpt lat="59.9675655" lon="17.5375367">
        <ele>35.2255</ele>
        <time>2013-04-27T11:40:19Z</time>
      </trkpt>
      <trkpt lat="59.967518" lon="17.5376142">
        <ele>35.2255</ele>
        <time>2013-04-27T11:40:20Z</time>
      </trkpt>
      <trkpt lat="59.9674692" lon="17.5376887">
        <ele>34.7449</ele>
        <time>2013-04-27T11:40:21Z</time>
      </trkpt>
      <trkpt lat="59.9674186" lon="17.5377635">
        <ele>34.7449</ele>
        <time>2013-04-27T11:40:22Z</time>
      </trkpt>
      <trkpt lat="59.9673672" lon="17.5378368">
        <ele>34.7449</ele>
        <time>2013-04-27T11:40:23Z</time>
      </trkpt>
      <trkpt lat="59.9673165" lon="17.537909">
        <ele>34.7449</ele>
        <time>2013-04-27T11:40:24Z</time>
      </trkpt>
      <trkpt lat="59.9672653" lon="17.5379825">
        <ele>34.7449</ele>
        <time>2013-04-27T11:40:25Z</time>
      </trkpt>
      <trkpt lat="59.9672135" lon="17.5380572">
        <ele>34.2642</ele>
        <time>2013-04-27T11:40:26Z</time>
      </trkpt>
      <trkpt lat="59.9671623" lon="17.5381311">
        <ele>34.2642</ele>
        <time>2013-04-27T11:40:27Z</time>
      </trkpt>
      <trkpt lat="59.9671115" lon="17.5382057">
        <ele>34.2642</ele>
        <time>2013-04-27T11:40:28Z</time>
      </trkpt>
      <trkpt lat="59.9670602" lon="17.5382798">
        <ele>34.2642</ele>
        <time>2013-04-27T11:40:29Z</time>
      </trkpt>
      <trkpt lat="59.9670094" lon="17.5383545">
        <ele>34.2642</ele>
        <time>2013-04-27T11:40:30Z</time>
      </trkpt>
      <trkpt lat="59.9669587" lon="17.5384333">
        <ele>34.2642</ele>
        <time>2013-04-27T11:40:31Z</time>
      </trkpt>
      <trkpt lat="59.9669085" lon="17.5385146">
        <ele>34.2642</ele>
        <time>2013-04-27T11:40:32Z</time>
      </trkpt>
      <trkpt lat="59.966859" lon="17.5385983">
        <ele>34.2642</ele>
        <time>2013-04-27T11:40:33Z</time>
      </trkpt>
      <trkpt lat="59.9668096" lon="17.5386814">
        <ele>34.2642</ele>
        <time>2013-04-27T11:40:34Z</time>
      </trkpt>
      <trkpt lat="59.9667609" lon="17.5387667">
        <ele>34.2642</ele>
        <time>2013-04-27T11:40:35Z</time>
      </trkpt>
      <trkpt lat="59.966713" lon="17.5388539">
        <ele>34.2642</ele>
        <time>2013-04-27T11:40:36Z</time>
      </trkpt>
      <trkpt lat="59.9666653" lon="17.5389415">
        <ele>34.2642</ele>
        <time>2013-04-27T11:40:37Z</time>
      </trkpt>
      <trkpt lat="59.9666182" lon="17.5390295">
        <ele>34.2642</ele>
        <time>2013-04-27T11:40:38Z</time>
      </trkpt>
      <trkpt lat="59.9665716" lon="17.5391173">
        <ele>34.2642</ele>
        <time>2013-04-27T11:40:39Z</time>
      </trkpt>
      <trkpt lat="59.9665251" lon="17.5392046">
        <ele>34.2642</ele>
        <time>2013-04-27T11:40:40Z</time>
      </trkpt>
      <trkpt lat="59.9664785" lon="17.5392911">
        <ele>34.2642</ele>
        <time>2013-04-27T11:40:41Z</time>
      </trkpt>
      <trkpt lat="59.9664314" lon="17.5393781">
        <ele>34.2642</ele>
        <time>2013-04-27T11:40:42Z</time>
      </trkpt>
      <trkpt lat="59.9663835" lon="17.5394627">
        <ele>34.2642</ele>
        <time>2013-04-27T11:40:43Z</time>
      </trkpt>
      <trkpt lat="59.9663342" lon="17.5395428">
        <ele>34.2642</ele>
        <time>2013-04-27T11:40:44Z</time>
      </trkpt>
      <trkpt lat="59.9662841" lon="17.539621">
        <ele>34.2642</ele>
        <time>2013-04-27T11:40:45Z</time>
      </trkpt>
      <trkpt lat="59.9662328" lon="17.5396987">
        <ele>34.2642</ele>
        <time>2013-04-27T11:40:46Z</time>
      </trkpt>
      <trkpt lat="59.96618" lon="17.5397765">
        <ele>33.7834</ele>
        <time>2013-04-27T11:40:47Z</time>
      </trkpt>
      <trkpt lat="59.9661273" lon="17.5398563">
        <ele>33.7834</ele>
        <time>2013-04-27T11:40:48Z</time>
      </trkpt>
      <trkpt lat="59.9660749" lon="17.539936">
        <ele>33.7834</ele>
        <time>2013-04-27T11:40:49Z</time>
      </trkpt>
      <trkpt lat="59.9660227" lon="17.5400184">
        <ele>33.7834</ele>
        <time>2013-04-27T11:40:50Z</time>
      </trkpt>
      <trkpt lat="59.9659688" lon="17.5401024">
        <ele>33.7834</ele>
        <time>2013-04-27T11:40:51Z</time>
      </trkpt>
      <trkpt lat="59.9659124" lon="17.5401847">
        <ele>33.7834</ele>
        <time>2013-04-27T11:40:52Z</time>
      </trkpt>
      <trkpt lat="59.9658543" lon="17.5402637">
        <ele>33.7834</ele>
        <time>2013-04-27T11:40:53Z</time>
      </trkpt>
      <trkpt lat="59.9657957" lon="17.540339">
        <ele>33.7834</ele>
        <time>2013-04-27T11:40:54Z</time>
      </trkpt>
      <trkpt lat="59.9657367" lon="17.5404131">
        <ele>33.3029</ele>
        <time>2013-04-27T11:40:55Z</time>
      </trkpt>
      <trkpt lat="59.9656774" lon="17.5404871">
        <ele>33.3029</ele>
        <time>2013-04-27T11:40:56Z</time>
      </trkpt>
      <trkpt lat="59.965617" lon="17.5405612">
        <ele>33.3029</ele>
        <time>2013-04-27T11:40:57Z</time>
      </trkpt>
      <trkpt lat="59.9655565" lon="17.5406359">
        <ele>33.3029</ele>
        <time>2013-04-27T11:40:58Z</time>
      </trkpt>
      <trkpt lat="59.9654964" lon="17.540709">
        <ele>33.3029</ele>
        <time>2013-04-27T11:40:59Z</time>
      </trkpt>
      <trkpt lat="59.965437" lon="17.5407804">
        <ele>33.3029</ele>
        <time>2013-04-27T11:41:00Z</time>
      </trkpt>
      <trkpt lat="59.9653782" lon="17.5408496">
        <ele>33.3029</ele>
        <time>2013-04-27T11:41:01Z</time>
      </trkpt>
      <trkpt lat="59.9653195" lon="17.5409172">
        <ele>32.8223</ele>
        <time>2013-04-27T11:41:02Z</time>
      </trkpt>
      <trkpt lat="59.9652609" lon="17.5409863">
        <ele>32.8223</ele>
        <time>2013-04-27T11:41:03Z</time>
      </trkpt>
      <trkpt lat="59.9652024" lon="17.5410566">
        <ele>32.8223</ele>
        <time>2013-04-27T11:41:04Z</time>
      </trkpt>
      <trkpt lat="59.9651441" lon="17.5411285">
        <ele>32.8223</ele>
        <time>2013-04-27T11:41:05Z</time>
      </trkpt>
      <trkpt lat="59.965087" lon="17.541201">
        <ele>32.8223</ele>
        <time>2013-04-27T11:41:06Z</time>
      </trkpt>
      <trkpt lat="59.9650294" lon="17.5412726">
        <ele>32.3416</ele>
        <time>2013-04-27T11:41:07Z</time>
      </trkpt>
      <trkpt lat="59.9649705" lon="17.5413429">
        <ele>32.3416</ele>
        <time>2013-04-27T11:41:08Z</time>
      </trkpt>
      <trkpt lat="59.9649111" lon="17.5414127">
        <ele>32.3416</ele>
        <time>2013-04-27T11:41:09Z</time>
      </trkpt>
      <trkpt lat="59.964852" lon="17.5414798">
        <ele>32.3416</ele>
        <time>2013-04-27T11:41:10Z</time>
      </trkpt>
      <trkpt lat="59.9647914" lon="17.5415451">
        <ele>32.3416</ele>
        <time>2013-04-27T11:41:11Z</time>
      </trkpt>
      <trkpt lat="59.9647302" lon="17.5416095">
        <ele>32.3416</ele>
        <time>2013-04-27T11:41:12Z</time>
      </trkpt>
      <trkpt lat="59.9646692" lon="17.5416724">
        <ele>32.3416</ele>
        <time>2013-04-27T11:41:13Z</time>
      </trkpt>
      <trkpt lat="59.9645467" lon="17.5417955">
        <ele>32.3416</ele>
        <time>2013-04-27T11:41:15Z</time>
      </trkpt>
      <trkpt lat="59.9644845" lon="17.5418571">
        <ele>32.3416</ele>
        <time>2013-04-27T11:41:16Z</time>
      </trkpt>
      <trkpt lat="59.9644219" lon="17.5419174">
        <ele>32.3416</ele>
        <time>2013-04-27T11:41:17Z</time>
      </trkpt>
      <trkpt lat="59.9643593" lon="17.5419764">
        <ele>32.3416</ele>
        <time>2013-04-27T11:41:18Z</time>
      </trkpt>
      <trkpt lat="59.9642962" lon="17.5420339">
        <ele>32.8223</ele>
        <time>2013-04-27T11:41:19Z</time>
      </trkpt>
      <trkpt lat="59.964233" lon="17.5420925">
        <ele>32.8223</ele>
        <time>2013-04-27T11:41:20Z</time>
      </trkpt>
      <trkpt lat="59.9641707" lon="17.542151">
        <ele>32.8223</ele>
        <time>2013-04-27T11:41:21Z</time>
      </trkpt>
      <trkpt lat="59.9641096" lon="17.5422085">
        <ele>32.8223</ele>
        <time>2013-04-27T11:41:22Z</time>
      </trkpt>
      <trkpt lat="59.9640496" lon="17.5422644">
        <ele>32.8223</ele>
        <time>2013-04-27T11:41:23Z</time>
      </trkpt>
      <trkpt lat="59.9639906" lon="17.5423189">
        <ele>32.8223</ele>
        <time>2013-04-27T11:41:24Z</time>
      </trkpt>
      <trkpt lat="59.963933" lon="17.5423733">
        <ele>32.8223</ele>
        <time>2013-04-27T11:41:25Z</time>
      </trkpt>
      <trkpt lat="59.9638769" lon="17.5424282">
        <ele>32.8223</ele>
        <time>2013-04-27T11:41:26Z</time>
      </trkpt>
      <trkpt lat="59.9638211" lon="17.5424798">
        <ele>32.8223</ele>
        <time>2013-04-27T11:41:27Z</time>
      </trkpt>
      <trkpt lat="59.9637651" lon="17.5425244">
        <ele>32.8223</ele>
        <time>2013-04-27T11:41:28Z</time>
      </trkpt>
      <trkpt lat="59.9637096" lon="17.5425702">
        <ele>32.8223</ele>
        <time>2013-04-27T11:41:29Z</time>
      </trkpt>
      <trkpt lat="59.9636539" lon="17.5426183">
        <ele>32.8223</ele>
        <time>2013-04-27T11:41:30Z</time>
      </trkpt>
      <trkpt lat="59.9635981" lon="17.5426667">
        <ele>32.3416</ele>
        <time>2013-04-27T11:41:31Z</time>
      </trkpt>
      <trkpt lat="59.9635422" lon="17.5427206">
        <ele>31.8607</ele>
        <time>2013-04-27T11:41:32Z</time>
      </trkpt>
      <trkpt lat="59.9634867" lon="17.5427793">
        <ele>31.8607</ele>
        <time>2013-04-27T11:41:33Z</time>
      </trkpt>
      <trkpt lat="59.9634316" lon="17.5428426">
        <ele>31.8607</ele>
        <time>2013-04-27T11:41:34Z</time>
      </trkpt>
      <trkpt lat="59.9633786" lon="17.5429146">
        <ele>31.8607</ele>
        <time>2013-04-27T11:41:35Z</time>
      </trkpt>
      <trkpt lat="59.9633291" lon="17.5429933">
        <ele>31.8607</ele>
        <time>2013-04-27T11:41:36Z</time>
      </trkpt>
      <trkpt lat="59.9632837" lon="17.5430799">
        <ele>31.8607</ele>
        <time>2013-04-27T11:41:37Z</time>
      </trkpt>
      <trkpt lat="59.9632428" lon="17.5431734">
        <ele>31.8607</ele>
        <time>2013-04-27T11:41:38Z</time>
      </trkpt>
      <trkpt lat="59.9632057" lon="17.5432739">
        <ele>32.3416</ele>
        <time>2013-04-27T11:41:39Z</time>
      </trkpt>
      <trkpt lat="59.9631718" lon="17.5433807">
        <ele>32.3416</ele>
        <time>2013-04-27T11:41:40Z</time>
      </trkpt>
      <trkpt lat="59.9631404" lon="17.543492">
        <ele>32.3416</ele>
        <time>2013-04-27T11:41:41Z</time>
      </trkpt>
      <trkpt lat="59.9631118" lon="17.5436041">
        <ele>32.8223</ele>
        <time>2013-04-27T11:41:42Z</time>
      </trkpt>
      <trkpt lat="59.963086" lon="17.5437184">
        <ele>32.8223</ele>
        <time>2013-04-27T11:41:43Z</time>
      </trkpt>
      <trkpt lat="59.9630627" lon="17.5438347">
        <ele>32.8223</ele>
        <time>2013-04-27T11:41:44Z</time>
      </trkpt>
      <trkpt lat="59.9630407" lon="17.5439536">
        <ele>33.3029</ele>
        <time>2013-04-27T11:41:45Z</time>
      </trkpt>
      <trkpt lat="59.9630182" lon="17.5440732">
        <ele>33.3029</ele>
        <time>2013-04-27T11:41:46Z</time>
      </trkpt>
      <trkpt lat="59.9629959" lon="17.544191">
        <ele>33.7834</ele>
        <time>2013-04-27T11:41:47Z</time>
      </trkpt>
      <trkpt lat="59.962974" lon="17.5443057">
        <ele>33.7834</ele>
        <time>2013-04-27T11:41:48Z</time>
      </trkpt>
      <trkpt lat="59.9629509" lon="17.5444142">
        <ele>34.2642</ele>
        <time>2013-04-27T11:41:49Z</time>
      </trkpt>
      <trkpt lat="59.9629235" lon="17.5445183">
        <ele>34.2642</ele>
        <time>2013-04-27T11:41:50Z</time>
      </trkpt>
      <trkpt lat="59.9628923" lon="17.5446188">
        <ele>34.7449</ele>
        <time>2013-04-27T11:41:51Z</time>
      </trkpt>
      <trkpt lat="59.9628565" lon="17.544688">
        <ele>35.7061</ele>
        <time>2013-04-27T11:41:52Z</time>
      </trkpt>
      <trkpt lat="59.9628019" lon="17.5447578">
        <ele>36.1868</ele>
        <time>2013-04-27T11:41:53Z</time>
      </trkpt>
      <trkpt lat="59.9627382" lon="17.5448555">
        <ele>35.2255</ele>
        <time>2013-04-27T11:41:54Z</time>
      </trkpt>
      <trkpt lat="59.9626768" lon="17.5449217">
        <ele>35.2255</ele>
        <time>2013-04-27T11:41:55Z</time>
      </trkpt>
      <trkpt lat="59.9626186" lon="17.5449638">
        <ele>34.7449</ele>
        <time>2013-04-27T11:41:56Z</time>
      </trkpt>
      <trkpt lat="59.9625614" lon="17.5449799">
        <ele>33.7834</ele>
        <time>2013-04-27T11:41:57Z</time>
      </trkpt>
      <trkpt lat="59.9624964" lon="17.5450118">
        <ele>32.8223</ele>
        <time>2013-04-27T11:41:58Z</time>
      </trkpt>
      <trkpt lat="59.9624322" lon="17.5450415">
        <ele>32.3416</ele>
        <time>2013-04-27T11:41:59Z</time>
      </trkpt>
      <trkpt lat="59.9623694" lon="17.5450736">
        <ele>31.3801</ele>
        <time>2013-04-27T11:42:00Z</time>
      </trkpt>
      <trkpt lat="59.962309" lon="17.5451017">
        <ele>30.8995</ele>
        <time>2013-04-27T11:42:01Z</time>
      </trkpt>
      <trkpt lat="59.9622484" lon="17.54513">
        <ele>30.4188</ele>
        <time>2013-04-27T11:42:02Z</time>
      </trkpt>
      <trkpt lat="59.9621893" lon="17.545155">
        <ele>29.9381</ele>
        <time>2013-04-27T11:42:03Z</time>
      </trkpt>
      <trkpt lat="59.962129" lon="17.5451783">
        <ele>29.9381</ele>
        <time>2013-04-27T11:42:04Z</time>
      </trkpt>
      <trkpt lat="59.9620681" lon="17.5451954">
        <ele>29.9381</ele>
        <time>2013-04-27T11:42:05Z</time>
      </trkpt>
      <trkpt lat="59.9620069" lon="17.5452104">
        <ele>29.4575</ele>
        <time>2013-04-27T11:42:06Z</time>
      </trkpt>
      <trkpt lat="59.9619446" lon="17.5452223">
        <ele>28.4962</ele>
        <time>2013-04-27T11:42:07Z</time>
      </trkpt>
      <trkpt lat="59.9618853" lon="17.5452216">
        <ele>28.4962</ele>
        <time>2013-04-27T11:42:08Z</time>
      </trkpt>
      <trkpt lat="59.9618224" lon="17.5452165">
        <ele>28.4962</ele>
        <time>2013-04-27T11:42:09Z</time>
      </trkpt>
      <trkpt lat="59.96175" lon="17.5452107">
        <ele>27.0543</ele>
        <time>2013-04-27T11:42:10Z</time>
      </trkpt>
      <trkpt lat="59.9616732" lon="17.545198">
        <ele>26.0929</ele>
        <time>2013-04-27T11:42:11Z</time>
      </trkpt>
      <trkpt lat="59.9616107" lon="17.5451631">
        <ele>25.6123</ele>
        <time>2013-04-27T11:42:12Z</time>
      </trkpt>
      <trkpt lat="59.9615511" lon="17.545123">
        <ele>25.1317</ele>
        <time>2013-04-27T11:42:13Z</time>
      </trkpt>
      <trkpt lat="59.9614894" lon="17.5450854">
        <ele>24.651</ele>
        <time>2013-04-27T11:42:14Z</time>
      </trkpt>
      <trkpt lat="59.9614261" lon="17.545046">
        <ele>23.6896</ele>
        <time>2013-04-27T11:42:15Z</time>
      </trkpt>
      <trkpt lat="59.9613662" lon="17.5450021">
        <ele>23.6896</ele>
        <time>2013-04-27T11:42:16Z</time>
      </trkpt>
      <trkpt lat="59.9613042" lon="17.5449607">
        <ele>23.209</ele>
        <time>2013-04-27T11:42:17Z</time>
      </trkpt>
      <trkpt lat="59.961241" lon="17.5449201">
        <ele>23.209</ele>
        <time>2013-04-27T11:42:18Z</time>
      </trkpt>
      <trkpt lat="59.9611793" lon="17.5448789">
        <ele>22.7283</ele>
        <time>2013-04-27T11:42:19Z</time>
      </trkpt>
      <trkpt lat="59.9611176" lon="17.5448405">
        <ele>22.7283</ele>
        <time>2013-04-27T11:42:20Z</time>
      </trkpt>
      <trkpt lat="59.9610554" lon="17.5448032">
        <ele>22.2476</ele>
        <time>2013-04-27T11:42:21Z</time>
      </trkpt>
      <trkpt lat="59.9609931" lon="17.5447683">
        <ele>22.2476</ele>
        <time>2013-04-27T11:42:22Z</time>
      </trkpt>
      <trkpt lat="59.9609302" lon="17.5447348">
        <ele>22.2476</ele>
        <time>2013-04-27T11:42:23Z</time>
      </trkpt>
      <trkpt lat="59.9608666" lon="17.5447049">
        <ele>22.2476</ele>
        <time>2013-04-27T11:42:24Z</time>
      </trkpt>
      <trkpt lat="59.9608031" lon="17.5446757">
        <ele>22.2476</ele>
        <time>2013-04-27T11:42:25Z</time>
      </trkpt>
      <trkpt lat="59.9607394" lon="17.544652">
        <ele>22.2476</ele>
        <time>2013-04-27T11:42:26Z</time>
      </trkpt>
      <trkpt lat="59.9606745" lon="17.5446292">
        <ele>22.2476</ele>
        <time>2013-04-27T11:42:27Z</time>
      </trkpt>
      <trkpt lat="59.960609" lon="17.5446069">
        <ele>22.2476</ele>
        <time>2013-04-27T11:42:28Z</time>
      </trkpt>
      <trkpt lat="59.9605435" lon="17.5445862">
        <ele>22.2476</ele>
        <time>2013-04-27T11:42:29Z</time>
      </trkpt>
      <trkpt lat="59.9604768" lon="17.5445653">
        <ele>21.767</ele>
        <time>2013-04-27T11:42:30Z</time>
      </trkpt>
      <trkpt lat="59.9604092" lon="17.5445432">
        <ele>21.2864</ele>
        <time>2013-04-27T11:42:31Z</time>
      </trkpt>
      <trkpt lat="59.960341" lon="17.5445205">
        <ele>21.2864</ele>
        <time>2013-04-27T11:42:32Z</time>
      </trkpt>
      <trkpt lat="59.960272" lon="17.5444986">
        <ele>20.8057</ele>
        <time>2013-04-27T11:42:33Z</time>
      </trkpt>
      <trkpt lat="59.9602028" lon="17.5444769">
        <ele>20.8057</ele>
        <time>2013-04-27T11:42:34Z</time>
      </trkpt>
      <trkpt lat="59.9601333" lon="17.5444552">
        <ele>20.8057</ele>
        <time>2013-04-27T11:42:35Z</time>
      </trkpt>
      <trkpt lat="59.9600637" lon="17.544433">
        <ele>20.8057</ele>
        <time>2013-04-27T11:42:36Z</time>
      </trkpt>
      <trkpt lat="59.9599935" lon="17.5444106">
        <ele>20.8057</ele>
        <time>2013-04-27T11:42:37Z</time>
      </trkpt>
      <trkpt lat="59.9599226" lon="17.5443884">
        <ele>20.8057</ele>
        <time>2013-04-27T11:42:38Z</time>
      </trkpt>
      <trkpt lat="59.9598505" lon="17.5443663">
        <ele>20.8057</ele>
        <time>2013-04-27T11:42:39Z</time>
      </trkpt>
      <trkpt lat="59.9597776" lon="17.5443463">
        <ele>20.325</ele>
        <time>2013-04-27T11:42:40Z</time>
      </trkpt>
      <trkpt lat="59.9597045" lon="17.5443265">
        <ele>20.325</ele>
        <time>2013-04-27T11:42:41Z</time>
      </trkpt>
      <trkpt lat="59.9596303" lon="17.544308">
        <ele>19.8444</ele>
        <time>2013-04-27T11:42:42Z</time>
      </trkpt>
      <trkpt lat="59.9595553" lon="17.5442925">
        <ele>19.8444</ele>
        <time>2013-04-27T11:42:43Z</time>
      </trkpt>
      <trkpt lat="59.9594807" lon="17.5442817">
        <ele>19.8444</ele>
        <time>2013-04-27T11:42:44Z</time>
      </trkpt>
      <trkpt lat="59.9594066" lon="17.5442695">
        <ele>19.3638</ele>
        <time>2013-04-27T11:42:45Z</time>
      </trkpt>
      <trkpt lat="59.959333" lon="17.544256">
        <ele>19.3638</ele>
        <time>2013-04-27T11:42:46Z</time>
      </trkpt>
      <trkpt lat="59.95926" lon="17.5442425">
        <ele>19.3638</ele>
        <time>2013-04-27T11:42:47Z</time>
      </trkpt>
      <trkpt lat="59.9591891" lon="17.5442277">
        <ele>19.3638</ele>
        <time>2013-04-27T11:42:48Z</time>
      </trkpt>
      <trkpt lat="59.9591194" lon="17.5442131">
        <ele>19.3638</ele>
        <time>2013-04-27T11:42:49Z</time>
      </trkpt>
      <trkpt lat="59.9590501" lon="17.5441978">
        <ele>19.3638</ele>
        <time>2013-04-27T11:42:50Z</time>
      </trkpt>
      <trkpt lat="59.9589808" lon="17.5441827">
        <ele>19.3638</ele>
        <time>2013-04-27T11:42:51Z</time>
      </trkpt>
      <trkpt lat="59.9589123" lon="17.5441682">
        <ele>19.8444</ele>
        <time>2013-04-27T11:42:52Z</time>
      </trkpt>
      <trkpt lat="59.9588435" lon="17.5441536">
        <ele>19.8444</ele>
        <time>2013-04-27T11:42:53Z</time>
      </trkpt>
      <trkpt lat="59.958774" lon="17.5441387">
        <ele>19.8444</ele>
        <time>2013-04-27T11:42:54Z</time>
      </trkpt>
      <trkpt lat="59.9587037" lon="17.5441239">
        <ele>19.8444</ele>
        <time>2013-04-27T11:42:55Z</time>
      </trkpt>
      <trkpt lat="59.9586337" lon="17.544111">
        <ele>19.8444</ele>
        <time>2013-04-27T11:42:56Z</time>
      </trkpt>
      <trkpt lat="59.9585639" lon="17.5441022">
        <ele>19.8444</ele>
        <time>2013-04-27T11:42:57Z</time>
      </trkpt>
      <trkpt lat="59.9584944" lon="17.5440996">
        <ele>19.8444</ele>
        <time>2013-04-27T11:42:58Z</time>
      </trkpt>
      <trkpt lat="59.9584242" lon="17.5441025">
        <ele>19.8444</ele>
        <time>2013-04-27T11:42:59Z</time>
      </trkpt>
      <trkpt lat="59.9583539" lon="17.5441149">
        <ele>19.8444</ele>
        <time>2013-04-27T11:43:00Z</time>
      </trkpt>
      <trkpt lat="59.9582836" lon="17.5441341">
        <ele>19.8444</ele>
        <time>2013-04-27T11:43:01Z</time>
      </trkpt>
      <trkpt lat="59.9582136" lon="17.5441531">
        <ele>19.3638</ele>
        <time>2013-04-27T11:43:02Z</time>
      </trkpt>
      <trkpt lat="59.958144" lon="17.5441713">
        <ele>19.3638</ele>
        <time>2013-04-27T11:43:03Z</time>
      </trkpt>
      <trkpt lat="59.9580749" lon="17.5441884">
        <ele>19.3638</ele>
        <time>2013-04-27T11:43:04Z</time>
      </trkpt>
      <trkpt lat="59.9580077" lon="17.5442039">
        <ele>19.3638</ele>
        <time>2013-04-27T11:43:05Z</time>
      </trkpt>
      <trkpt lat="59.9579389" lon="17.5442213">
        <ele>19.3638</ele>
        <time>2013-04-27T11:43:06Z</time>
      </trkpt>
      <trkpt lat="59.9578701" lon="17.5442403">
        <ele>19.3638</ele>
        <time>2013-04-27T11:43:07Z</time>
      </trkpt>
      <trkpt lat="59.9578018" lon="17.5442598">
        <ele>19.3638</ele>
        <time>2013-04-27T11:43:08Z</time>
      </trkpt>
      <trkpt lat="59.9577338" lon="17.5442807">
        <ele>19.3638</ele>
        <time>2013-04-27T11:43:09Z</time>
      </trkpt>
      <trkpt lat="59.957667" lon="17.5443006">
        <ele>19.3638</ele>
        <time>2013-04-27T11:43:10Z</time>
      </trkpt>
      <trkpt lat="59.9576008" lon="17.5443208">
        <ele>19.3638</ele>
        <time>2013-04-27T11:43:11Z</time>
      </trkpt>
      <trkpt lat="59.9575348" lon="17.5443421">
        <ele>19.3638</ele>
        <time>2013-04-27T11:43:12Z</time>
      </trkpt>
      <trkpt lat="59.9574681" lon="17.5443602">
        <ele>19.3638</ele>
        <time>2013-04-27T11:43:13Z</time>
      </trkpt>
      <trkpt lat="59.9574009" lon="17.5443778">
        <ele>19.3638</ele>
        <time>2013-04-27T11:43:14Z</time>
      </trkpt>
      <trkpt lat="59.9573348" lon="17.544396">
        <ele>19.8444</ele>
        <time>2013-04-27T11:43:15Z</time>
      </trkpt>
      <trkpt lat="59.9572693" lon="17.5444145">
        <ele>19.8444</ele>
        <time>2013-04-27T11:43:16Z</time>
      </trkpt>
      <trkpt lat="59.957204" lon="17.5444329">
        <ele>19.8444</ele>
        <time>2013-04-27T11:43:17Z</time>
      </trkpt>
      <trkpt lat="59.9571386" lon="17.5444489">
        <ele>19.3638</ele>
        <time>2013-04-27T11:43:18Z</time>
      </trkpt>
      <trkpt lat="59.9570724" lon="17.544465">
        <ele>19.3638</ele>
        <time>2013-04-27T11:43:19Z</time>
      </trkpt>
      <trkpt lat="59.9570059" lon="17.5444826">
        <ele>19.3638</ele>
        <time>2013-04-27T11:43:20Z</time>
      </trkpt>
      <trkpt lat="59.9569388" lon="17.5445011">
        <ele>19.3638</ele>
        <time>2013-04-27T11:43:21Z</time>
      </trkpt>
      <trkpt lat="59.9568703" lon="17.5445187">
        <ele>19.3638</ele>
        <time>2013-04-27T11:43:22Z</time>
      </trkpt>
      <trkpt lat="59.9567995" lon="17.5445355">
        <ele>19.3638</ele>
        <time>2013-04-27T11:43:23Z</time>
      </trkpt>
      <trkpt lat="59.9567278" lon="17.5445533">
        <ele>19.3638</ele>
        <time>2013-04-27T11:43:24Z</time>
      </trkpt>
      <trkpt lat="59.9566552" lon="17.5445748">
        <ele>19.3638</ele>
        <time>2013-04-27T11:43:25Z</time>
      </trkpt>
      <trkpt lat="59.9565824" lon="17.5445976">
        <ele>19.8444</ele>
        <time>2013-04-27T11:43:26Z</time>
      </trkpt>
      <trkpt lat="59.9565097" lon="17.5446188">
        <ele>19.8444</ele>
        <time>2013-04-27T11:43:27Z</time>
      </trkpt>
      <trkpt lat="59.9564379" lon="17.5446385">
        <ele>20.325</ele>
        <time>2013-04-27T11:43:28Z</time>
      </trkpt>
      <trkpt lat="59.9563673" lon="17.5446588">
        <ele>20.325</ele>
        <time>2013-04-27T11:43:29Z</time>
      </trkpt>
      <trkpt lat="59.9562976" lon="17.5446811">
        <ele>20.325</ele>
        <time>2013-04-27T11:43:30Z</time>
      </trkpt>
      <trkpt lat="59.9562275" lon="17.5447028">
        <ele>20.8057</ele>
        <time>2013-04-27T11:43:31Z</time>
      </trkpt>
      <trkpt lat="59.9561575" lon="17.5447281">
        <ele>21.2864</ele>
        <time>2013-04-27T11:43:32Z</time>
      </trkpt>
      <trkpt lat="59.9560887" lon="17.5447613">
        <ele>21.767</ele>
        <time>2013-04-27T11:43:33Z</time>
      </trkpt>
      <trkpt lat="59.9560223" lon="17.5448058">
        <ele>21.767</ele>
        <time>2013-04-27T11:43:34Z</time>
      </trkpt>
      <trkpt lat="59.9559581" lon="17.5448577">
        <ele>22.2476</ele>
        <time>2013-04-27T11:43:35Z</time>
      </trkpt>
      <trkpt lat="59.9558939" lon="17.5449141">
        <ele>22.7283</ele>
        <time>2013-04-27T11:43:36Z</time>
      </trkpt>
      <trkpt lat="59.9558306" lon="17.5449799">
        <ele>22.7283</ele>
        <time>2013-04-27T11:43:37Z</time>
      </trkpt>
      <trkpt lat="59.9557674" lon="17.5450546">
        <ele>22.7283</ele>
        <time>2013-04-27T11:43:38Z</time>
      </trkpt>
      <trkpt lat="59.9557029" lon="17.5451388">
        <ele>23.209</ele>
        <time>2013-04-27T11:43:39Z</time>
      </trkpt>
      <trkpt lat="59.9556366" lon="17.5452281">
        <ele>23.6896</ele>
        <time>2013-04-27T11:43:40Z</time>
      </trkpt>
      <trkpt lat="59.9555672" lon="17.5453151">
        <ele>23.6896</ele>
        <time>2013-04-27T11:43:41Z</time>
      </trkpt>
      <trkpt lat="59.9554945" lon="17.5453964">
        <ele>24.1703</ele>
        <time>2013-04-27T11:43:42Z</time>
      </trkpt>
      <trkpt lat="59.9554177" lon="17.5454663">
        <ele>24.651</ele>
        <time>2013-04-27T11:43:43Z</time>
      </trkpt>
      <trkpt lat="59.9553375" lon="17.5455222">
        <ele>24.651</ele>
        <time>2013-04-27T11:43:44Z</time>
      </trkpt>
      <trkpt lat="59.9552578" lon="17.545572">
        <ele>24.651</ele>
        <time>2013-04-27T11:43:45Z</time>
      </trkpt>
      <trkpt lat="59.9551791" lon="17.5456173">
        <ele>25.1317</ele>
        <time>2013-04-27T11:43:46Z</time>
      </trkpt>
      <trkpt lat="59.9550991" lon="17.545659">
        <ele>25.6123</ele>
        <time>2013-04-27T11:43:47Z</time>
      </trkpt>
      <trkpt lat="59.9550195" lon="17.5456998">
        <ele>25.6123</ele>
        <time>2013-04-27T11:43:48Z</time>
      </trkpt>
      <trkpt lat="59.9549387" lon="17.5457412">
        <ele>26.0929</ele>
        <time>2013-04-27T11:43:49Z</time>
      </trkpt>
      <trkpt lat="59.9548604" lon="17.5457807">
        <ele>26.0929</ele>
        <time>2013-04-27T11:43:50Z</time>
      </trkpt>
      <trkpt lat="59.954785" lon="17.5458216">
        <ele>26.5736</ele>
        <time>2013-04-27T11:43:51Z</time>
      </trkpt>
      <trkpt lat="59.954713" lon="17.5458641">
        <ele>27.0543</ele>
        <time>2013-04-27T11:43:52Z</time>
      </trkpt>
      <trkpt lat="59.9546409" lon="17.5459045">
        <ele>27.5349</ele>
        <time>2013-04-27T11:43:53Z</time>
      </trkpt>
      <trkpt lat="59.954569" lon="17.5459423">
        <ele>27.5349</ele>
        <time>2013-04-27T11:43:54Z</time>
      </trkpt>
      <trkpt lat="59.9544975" lon="17.5459777">
        <ele>28.0155</ele>
        <time>2013-04-27T11:43:55Z</time>
      </trkpt>
      <trkpt lat="59.9544257" lon="17.5460157">
        <ele>28.0155</ele>
        <time>2013-04-27T11:43:56Z</time>
      </trkpt>
      <trkpt lat="59.9543522" lon="17.5460521">
        <ele>28.4962</ele>
        <time>2013-04-27T11:43:57Z</time>
      </trkpt>
      <trkpt lat="59.9542777" lon="17.5460877">
        <ele>28.4962</ele>
        <time>2013-04-27T11:43:58Z</time>
      </trkpt>
      <trkpt lat="59.9542032" lon="17.5461231">
        <ele>28.4962</ele>
        <time>2013-04-27T11:43:59Z</time>
      </trkpt>
      <trkpt lat="59.9541286" lon="17.5461583">
        <ele>28.4962</ele>
        <time>2013-04-27T11:44:00Z</time>
      </trkpt>
      <trkpt lat="59.9540543" lon="17.5461926">
        <ele>28.4962</ele>
        <time>2013-04-27T11:44:01Z</time>
      </trkpt>
      <trkpt lat="59.9539813" lon="17.5462278">
        <ele>28.9769</ele>
        <time>2013-04-27T11:44:02Z</time>
      </trkpt>
      <trkpt lat="59.953909" lon="17.5462626">
        <ele>28.4962</ele>
        <time>2013-04-27T11:44:03Z</time>
      </trkpt>
      <trkpt lat="59.9538378" lon="17.5462992">
        <ele>28.4962</ele>
        <time>2013-04-27T11:44:04Z</time>
      </trkpt>
      <trkpt lat="59.9537668" lon="17.5463339">
        <ele>28.4962</ele>
        <time>2013-04-27T11:44:05Z</time>
      </trkpt>
      <trkpt lat="59.9536971" lon="17.5463636">
        <ele>28.4962</ele>
        <time>2013-04-27T11:44:06Z</time>
      </trkpt>
      <trkpt lat="59.9536272" lon="17.5463965">
        <ele>28.4962</ele>
        <time>2013-04-27T11:44:07Z</time>
      </trkpt>
      <trkpt lat="59.9535572" lon="17.5464294">
        <ele>28.9769</ele>
        <time>2013-04-27T11:44:08Z</time>
      </trkpt>
      <trkpt lat="59.9534831" lon="17.5464563">
        <ele>28.9769</ele>
        <time>2013-04-27T11:44:09Z</time>
      </trkpt>
      <trkpt lat="59.9534068" lon="17.5464721">
        <ele>29.4575</ele>
        <time>2013-04-27T11:44:10Z</time>
      </trkpt>
      <trkpt lat="59.9533288" lon="17.5464837">
        <ele>29.4575</ele>
        <time>2013-04-27T11:44:11Z</time>
      </trkpt>
      <trkpt lat="59.9532512" lon="17.5464889">
        <ele>29.9381</ele>
        <time>2013-04-27T11:44:12Z</time>
      </trkpt>
      <trkpt lat="59.953178" lon="17.5464824">
        <ele>29.9381</ele>
        <time>2013-04-27T11:44:13Z</time>
      </trkpt>
      <trkpt lat="59.9531055" lon="17.5464665">
        <ele>30.4188</ele>
        <time>2013-04-27T11:44:14Z</time>
      </trkpt>
      <trkpt lat="59.9530314" lon="17.5464465">
        <ele>29.9381</ele>
        <time>2013-04-27T11:44:15Z</time>
      </trkpt>
      <trkpt lat="59.9529583" lon="17.546434">
        <ele>30.4188</ele>
        <time>2013-04-27T11:44:16Z</time>
      </trkpt>
      <trkpt lat="59.9528867" lon="17.5464156">
        <ele>29.9381</ele>
        <time>2013-04-27T11:44:17Z</time>
      </trkpt>
      <trkpt lat="59.9528178" lon="17.5463905">
        <ele>29.9381</ele>
        <time>2013-04-27T11:44:18Z</time>
      </trkpt>
      <trkpt lat="59.9527465" lon="17.5463681">
        <ele>29.4575</ele>
        <time>2013-04-27T11:44:19Z</time>
      </trkpt>
      <trkpt lat="59.9526767" lon="17.5463465">
        <ele>28.9769</ele>
        <time>2013-04-27T11:44:20Z</time>
      </trkpt>
      <trkpt lat="59.952607" lon="17.5463267">
        <ele>28.0155</ele>
        <time>2013-04-27T11:44:21Z</time>
      </trkpt>
      <trkpt lat="59.9525377" lon="17.5463138">
        <ele>27.5349</ele>
        <time>2013-04-27T11:44:22Z</time>
      </trkpt>
      <trkpt lat="59.9524677" lon="17.5463045">
        <ele>27.0543</ele>
        <time>2013-04-27T11:44:23Z</time>
      </trkpt>
      <trkpt lat="59.9523995" lon="17.546294">
        <ele>27.0543</ele>
        <time>2013-04-27T11:44:24Z</time>
      </trkpt>
      <trkpt lat="59.9523319" lon="17.5462795">
        <ele>26.5736</ele>
        <time>2013-04-27T11:44:25Z</time>
      </trkpt>
      <trkpt lat="59.9522647" lon="17.5462676">
        <ele>26.0929</ele>
        <time>2013-04-27T11:44:26Z</time>
      </trkpt>
      <trkpt lat="59.9521968" lon="17.546264">
        <ele>25.6123</ele>
        <time>2013-04-27T11:44:27Z</time>
      </trkpt>
      <trkpt lat="59.9521296" lon="17.546269">
        <ele>25.1317</ele>
        <time>2013-04-27T11:44:28Z</time>
      </trkpt>
      <trkpt lat="59.9520647" lon="17.5462765">
        <ele>24.651</ele>
        <time>2013-04-27T11:44:29Z</time>
      </trkpt>
      <trkpt lat="59.9519944" lon="17.5462992">
        <ele>24.1703</ele>
        <time>2013-04-27T11:44:30Z</time>
      </trkpt>
      <trkpt lat="59.9519234" lon="17.5463283">
        <ele>24.1703</ele>
        <time>2013-04-27T11:44:31Z</time>
      </trkpt>
      <trkpt lat="59.9518538" lon="17.5463613">
        <ele>23.6896</ele>
        <time>2013-04-27T11:44:32Z</time>
      </trkpt>
      <trkpt lat="59.951786" lon="17.5464002">
        <ele>23.6896</ele>
        <time>2013-04-27T11:44:33Z</time>
      </trkpt>
      <trkpt lat="59.9517199" lon="17.5464423">
        <ele>23.6896</ele>
        <time>2013-04-27T11:44:34Z</time>
      </trkpt>
      <trkpt lat="59.951654" lon="17.5464868">
        <ele>23.6896</ele>
        <time>2013-04-27T11:44:35Z</time>
      </trkpt>
      <trkpt lat="59.9515884" lon="17.5465355">
        <ele>23.6896</ele>
        <time>2013-04-27T11:44:36Z</time>
      </trkpt>
      <trkpt lat="59.9515245" lon="17.5465857">
        <ele>24.1703</ele>
        <time>2013-04-27T11:44:37Z</time>
      </trkpt>
      <trkpt lat="59.9514601" lon="17.5466374">
        <ele>24.651</ele>
        <time>2013-04-27T11:44:38Z</time>
      </trkpt>
      <trkpt lat="59.9513988" lon="17.5466834">
        <ele>24.1703</ele>
        <time>2013-04-27T11:44:39Z</time>
      </trkpt>
      <trkpt lat="59.9513384" lon="17.5467277">
        <ele>24.1703</ele>
        <time>2013-04-27T11:44:40Z</time>
      </trkpt>
      <trkpt lat="59.9512764" lon="17.5467763">
        <ele>24.1703</ele>
        <time>2013-04-27T11:44:41Z</time>
      </trkpt>
      <trkpt lat="59.9512159" lon="17.546823">
        <ele>24.1703</ele>
        <time>2013-04-27T11:44:42Z</time>
      </trkpt>
      <trkpt lat="59.9511557" lon="17.5468685">
        <ele>24.1703</ele>
        <time>2013-04-27T11:44:43Z</time>
      </trkpt>
      <trkpt lat="59.9510944" lon="17.5469131">
        <ele>24.1703</ele>
        <time>2013-04-27T11:44:44Z</time>
      </trkpt>
      <trkpt lat="59.9510351" lon="17.5469565">
        <ele>23.6896</ele>
        <time>2013-04-27T11:44:45Z</time>
      </trkpt>
      <trkpt lat="59.950978" lon="17.5470007">
        <ele>24.1703</ele>
        <time>2013-04-27T11:44:46Z</time>
      </trkpt>
      <trkpt lat="59.950921" lon="17.5470436">
        <ele>24.1703</ele>
        <time>2013-04-27T11:44:47Z</time>
      </trkpt>
      <trkpt lat="59.9508631" lon="17.5470903">
        <ele>23.6896</ele>
        <time>2013-04-27T11:44:48Z</time>
      </trkpt>
      <trkpt lat="59.9508076" lon="17.5471341">
        <ele>23.6896</ele>
        <time>2013-04-27T11:44:49Z</time>
      </trkpt>
      <trkpt lat="59.9507506" lon="17.5471766">
        <ele>23.6896</ele>
        <time>2013-04-27T11:44:50Z</time>
      </trkpt>
      <trkpt lat="59.9506969" lon="17.5472151">
        <ele>23.6896</ele>
        <time>2013-04-27T11:44:51Z</time>
      </trkpt>
      <trkpt lat="59.9506433" lon="17.547255">
        <ele>23.6896</ele>
        <time>2013-04-27T11:44:52Z</time>
      </trkpt>
      <trkpt lat="59.9505916" lon="17.5472981">
        <ele>24.1703</ele>
        <time>2013-04-27T11:44:53Z</time>
      </trkpt>
      <trkpt lat="59.9505381" lon="17.5473462">
        <ele>24.1703</ele>
        <time>2013-04-27T11:44:54Z</time>
      </trkpt>
      <trkpt lat="59.9504866" lon="17.547389">
        <ele>24.651</ele>
        <time>2013-04-27T11:44:55Z</time>
      </trkpt>
      <trkpt lat="59.9504336" lon="17.547433">
        <ele>24.651</ele>
        <time>2013-04-27T11:44:56Z</time>
      </trkpt>
      <trkpt lat="59.9503814" lon="17.547486">
        <ele>25.1317</ele>
        <time>2013-04-27T11:44:57Z</time>
      </trkpt>
      <trkpt lat="59.9503303" lon="17.5475433">
        <ele>25.1317</ele>
        <time>2013-04-27T11:44:58Z</time>
      </trkpt>
      <trkpt lat="59.9502803" lon="17.5476005">
        <ele>25.1317</ele>
        <time>2013-04-27T11:44:59Z</time>
      </trkpt>
      <trkpt lat="59.950231" lon="17.5476547">
        <ele>25.6123</ele>
        <time>2013-04-27T11:45:00Z</time>
      </trkpt>
      <trkpt lat="59.9501806" lon="17.5477051">
        <ele>25.6123</ele>
        <time>2013-04-27T11:45:01Z</time>
      </trkpt>
      <trkpt lat="59.9501296" lon="17.5477498">
        <ele>25.6123</ele>
        <time>2013-04-27T11:45:02Z</time>
      </trkpt>
      <trkpt lat="59.9500778" lon="17.5477878">
        <ele>26.0929</ele>
        <time>2013-04-27T11:45:03Z</time>
      </trkpt>
      <trkpt lat="59.9500249" lon="17.5478191">
        <ele>26.0929</ele>
        <time>2013-04-27T11:45:04Z</time>
      </trkpt>
      <trkpt lat="59.9499705" lon="17.5478456">
        <ele>26.0929</ele>
        <time>2013-04-27T11:45:05Z</time>
      </trkpt>
      <trkpt lat="59.9499166" lon="17.5478777">
        <ele>26.5736</ele>
        <time>2013-04-27T11:45:06Z</time>
      </trkpt>
      <trkpt lat="59.9498647" lon="17.5479117">
        <ele>26.5736</ele>
        <time>2013-04-27T11:45:07Z</time>
      </trkpt>
      <trkpt lat="59.9498145" lon="17.5479444">
        <ele>26.5736</ele>
        <time>2013-04-27T11:45:08Z</time>
      </trkpt>
      <trkpt lat="59.9497657" lon="17.547972">
        <ele>27.0543</ele>
        <time>2013-04-27T11:45:09Z</time>
      </trkpt>
      <trkpt lat="59.9497177" lon="17.5479914">
        <ele>27.0543</ele>
        <time>2013-04-27T11:45:10Z</time>
      </trkpt>
      <trkpt lat="59.9496706" lon="17.5480056">
        <ele>27.0543</ele>
        <time>2013-04-27T11:45:11Z</time>
      </trkpt>
      <trkpt lat="59.9496232" lon="17.5480189">
        <ele>27.0543</ele>
        <time>2013-04-27T11:45:12Z</time>
      </trkpt>
      <trkpt lat="59.949574" lon="17.5480292">
        <ele>27.5349</ele>
        <time>2013-04-27T11:45:13Z</time>
      </trkpt>
      <trkpt lat="59.9495227" lon="17.5480352">
        <ele>27.0543</ele>
        <time>2013-04-27T11:45:14Z</time>
      </trkpt>
      <trkpt lat="59.9494712" lon="17.5480398">
        <ele>27.5349</ele>
        <time>2013-04-27T11:45:15Z</time>
      </trkpt>
      <trkpt lat="59.9494195" lon="17.5480393">
        <ele>27.5349</ele>
        <time>2013-04-27T11:45:16Z</time>
      </trkpt>
      <trkpt lat="59.9493671" lon="17.5480371">
        <ele>27.5349</ele>
        <time>2013-04-27T11:45:17Z</time>
      </trkpt>
      <trkpt lat="59.9493164" lon="17.5480288">
        <ele>28.0155</ele>
        <time>2013-04-27T11:45:18Z</time>
      </trkpt>
      <trkpt lat="59.9492655" lon="17.548017">
        <ele>28.0155</ele>
        <time>2013-04-27T11:45:19Z</time>
      </trkpt>
      <trkpt lat="59.9492158" lon="17.5480015">
        <ele>28.0155</ele>
        <time>2013-04-27T11:45:20Z</time>
      </trkpt>
      <trkpt lat="59.949166" lon="17.5479779">
        <ele>28.0155</ele>
        <time>2013-04-27T11:45:21Z</time>
      </trkpt>
      <trkpt lat="59.9491136" lon="17.5479574">
        <ele>28.0155</ele>
        <time>2013-04-27T11:45:22Z</time>
      </trkpt>
      <trkpt lat="59.9490625" lon="17.5479325">
        <ele>28.0155</ele>
        <time>2013-04-27T11:45:23Z</time>
      </trkpt>
      <trkpt lat="59.9490142" lon="17.5479064">
        <ele>28.0155</ele>
        <time>2013-04-27T11:45:24Z</time>
      </trkpt>
      <trkpt lat="59.9489723" lon="17.5478715">
        <ele>28.4962</ele>
        <time>2013-04-27T11:45:25Z</time>
      </trkpt>
      <trkpt lat="59.9489275" lon="17.5478353">
        <ele>28.4962</ele>
        <time>2013-04-27T11:45:26Z</time>
      </trkpt>
      <trkpt lat="59.9488816" lon="17.547801">
        <ele>28.4962</ele>
        <time>2013-04-27T11:45:27Z</time>
      </trkpt>
      <trkpt lat="59.9488355" lon="17.5477678">
        <ele>28.9769</ele>
        <time>2013-04-27T11:45:28Z</time>
      </trkpt>
      <trkpt lat="59.9487905" lon="17.547727">
        <ele>28.9769</ele>
        <time>2013-04-27T11:45:29Z</time>
      </trkpt>
      <trkpt lat="59.9487465" lon="17.5476857">
        <ele>28.9769</ele>
        <time>2013-04-27T11:45:30Z</time>
      </trkpt>
      <trkpt lat="59.9487028" lon="17.5476424">
        <ele>29.4575</ele>
        <time>2013-04-27T11:45:31Z</time>
      </trkpt>
      <trkpt lat="59.9486584" lon="17.5475977">
        <ele>29.4575</ele>
        <time>2013-04-27T11:45:32Z</time>
      </trkpt>
      <trkpt lat="59.9486157" lon="17.5475539">
        <ele>29.9381</ele>
        <time>2013-04-27T11:45:33Z</time>
      </trkpt>
      <trkpt lat="59.9485734" lon="17.5475053">
        <ele>29.9381</ele>
        <time>2013-04-27T11:45:34Z</time>
      </trkpt>
      <trkpt lat="59.9485315" lon="17.5474549">
        <ele>29.9381</ele>
        <time>2013-04-27T11:45:35Z</time>
      </trkpt>
      <trkpt lat="59.9484895" lon="17.5474021">
        <ele>30.4188</ele>
        <time>2013-04-27T11:45:36Z</time>
      </trkpt>
      <trkpt lat="59.9484474" lon="17.5473463">
        <ele>30.4188</ele>
        <time>2013-04-27T11:45:37Z</time>
      </trkpt>
      <trkpt lat="59.9484035" lon="17.5472939">
        <ele>29.9381</ele>
        <time>2013-04-27T11:45:38Z</time>
      </trkpt>
      <trkpt lat="59.9483593" lon="17.5472425">
        <ele>29.9381</ele>
        <time>2013-04-27T11:45:39Z</time>
      </trkpt>
      <trkpt lat="59.9483173" lon="17.5471822">
        <ele>29.9381</ele>
        <time>2013-04-27T11:45:40Z</time>
      </trkpt>
      <trkpt lat="59.948278" lon="17.5471123">
        <ele>29.9381</ele>
        <time>2013-04-27T11:45:41Z</time>
      </trkpt>
      <trkpt lat="59.948241" lon="17.547038">
        <ele>29.4575</ele>
        <time>2013-04-27T11:45:42Z</time>
      </trkpt>
      <trkpt lat="59.9482046" lon="17.546965">
        <ele>29.4575</ele>
        <time>2013-04-27T11:45:43Z</time>
      </trkpt>
      <trkpt lat="59.9481674" lon="17.546896">
        <ele>29.9381</ele>
        <time>2013-04-27T11:45:44Z</time>
      </trkpt>
      <trkpt lat="59.94813" lon="17.5468275">
        <ele>29.9381</ele>
        <time>2013-04-27T11:45:45Z</time>
      </trkpt>
      <trkpt lat="59.9480927" lon="17.5467562">
        <ele>29.9381</ele>
        <time>2013-04-27T11:45:46Z</time>
      </trkpt>
      <trkpt lat="59.9480542" lon="17.5466831">
        <ele>29.9381</ele>
        <time>2013-04-27T11:45:47Z</time>
      </trkpt>
      <trkpt lat="59.948015" lon="17.546608">
        <ele>29.9381</ele>
        <time>2013-04-27T11:45:48Z</time>
      </trkpt>
      <trkpt lat="59.947974" lon="17.5465317">
        <ele>29.4575</ele>
        <time>2013-04-27T11:45:49Z</time>
      </trkpt>
      <trkpt lat="59.9479328" lon="17.5464583">
        <ele>28.9769</ele>
        <time>2013-04-27T11:45:50Z</time>
      </trkpt>
      <trkpt lat="59.9478927" lon="17.5463836">
        <ele>28.0155</ele>
        <time>2013-04-27T11:45:51Z</time>
      </trkpt>
      <trkpt lat="59.9478525" lon="17.5463064">
        <ele>27.5349</ele>
        <time>2013-04-27T11:45:52Z</time>
      </trkpt>
      <trkpt lat="59.947811" lon="17.5462281">
        <ele>27.0543</ele>
        <time>2013-04-27T11:45:53Z</time>
      </trkpt>
      <trkpt lat="59.947769" lon="17.54615">
        <ele>27.0543</ele>
        <time>2013-04-27T11:45:54Z</time>
      </trkpt>
      <trkpt lat="59.947727" lon="17.5460729">
        <ele>26.5736</ele>
        <time>2013-04-27T11:45:55Z</time>
      </trkpt>
      <trkpt lat="59.9476857" lon="17.5459956">
        <ele>26.0929</ele>
        <time>2013-04-27T11:45:56Z</time>
      </trkpt>
      <trkpt lat="59.9476455" lon="17.5459181">
        <ele>26.0929</ele>
        <time>2013-04-27T11:45:57Z</time>
      </trkpt>
      <trkpt lat="59.9476048" lon="17.5458424">
        <ele>26.0929</ele>
        <time>2013-04-27T11:45:58Z</time>
      </trkpt>
      <trkpt lat="59.9475632" lon="17.5457673">
        <ele>26.5736</ele>
        <time>2013-04-27T11:45:59Z</time>
      </trkpt>
      <trkpt lat="59.9475208" lon="17.545691">
        <ele>26.0929</ele>
        <time>2013-04-27T11:46:00Z</time>
      </trkpt>
      <trkpt lat="59.947479" lon="17.5456139">
        <ele>25.6123</ele>
        <time>2013-04-27T11:46:01Z</time>
      </trkpt>
      <trkpt lat="59.9474377" lon="17.5455366">
        <ele>25.6123</ele>
        <time>2013-04-27T11:46:02Z</time>
      </trkpt>
      <trkpt lat="59.947397" lon="17.5454586">
        <ele>25.1317</ele>
        <time>2013-04-27T11:46:03Z</time>
      </trkpt>
      <trkpt lat="59.9473557" lon="17.5453818">
        <ele>25.1317</ele>
        <time>2013-04-27T11:46:04Z</time>
      </trkpt>
      <trkpt lat="59.947314" lon="17.5453078">
        <ele>24.651</ele>
        <time>2013-04-27T11:46:05Z</time>
      </trkpt>
      <trkpt lat="59.9472741" lon="17.5452362">
        <ele>24.1703</ele>
        <time>2013-04-27T11:46:06Z</time>
      </trkpt>
      <trkpt lat="59.947235" lon="17.5451673">
        <ele>24.1703</ele>
        <time>2013-04-27T11:46:07Z</time>
      </trkpt>
      <trkpt lat="59.9471949" lon="17.5451015">
        <ele>23.6896</ele>
        <time>2013-04-27T11:46:08Z</time>
      </trkpt>
      <trkpt lat="59.9471525" lon="17.5450384">
        <ele>23.6896</ele>
        <time>2013-04-27T11:46:09Z</time>
      </trkpt>
      <trkpt lat="59.947108" lon="17.5449768">
        <ele>23.209</ele>
        <time>2013-04-27T11:46:10Z</time>
      </trkpt>
      <trkpt lat="59.9470617" lon="17.5449145">
        <ele>23.209</ele>
        <time>2013-04-27T11:46:11Z</time>
      </trkpt>
      <trkpt lat="59.9470143" lon="17.5448512">
        <ele>23.209</ele>
        <time>2013-04-27T11:46:12Z</time>
      </trkpt>
      <trkpt lat="59.9469651" lon="17.5447903">
        <ele>22.7283</ele>
        <time>2013-04-27T11:46:13Z</time>
      </trkpt>
      <trkpt lat="59.9469137" lon="17.5447317">
        <ele>22.7283</ele>
        <time>2013-04-27T11:46:14Z</time>
      </trkpt>
      <trkpt lat="59.9468607" lon="17.5446711">
        <ele>22.7283</ele>
        <time>2013-04-27T11:46:15Z</time>
      </trkpt>
      <trkpt lat="59.9468066" lon="17.5446116">
        <ele>22.2476</ele>
        <time>2013-04-27T11:46:16Z</time>
      </trkpt>
      <trkpt lat="59.9467522" lon="17.5445555">
        <ele>22.2476</ele>
        <time>2013-04-27T11:46:17Z</time>
      </trkpt>
      <trkpt lat="59.9466971" lon="17.5445015">
        <ele>21.767</ele>
        <time>2013-04-27T11:46:18Z</time>
      </trkpt>
      <trkpt lat="59.9466401" lon="17.5444503">
        <ele>21.767</ele>
        <time>2013-04-27T11:46:19Z</time>
      </trkpt>
      <trkpt lat="59.9465805" lon="17.5444028">
        <ele>21.767</ele>
        <time>2013-04-27T11:46:20Z</time>
      </trkpt>
      <trkpt lat="59.9465185" lon="17.5443572">
        <ele>21.2864</ele>
        <time>2013-04-27T11:46:21Z</time>
      </trkpt>
      <trkpt lat="59.9464569" lon="17.5443131">
        <ele>21.2864</ele>
        <time>2013-04-27T11:46:22Z</time>
      </trkpt>
      <trkpt lat="59.9463958" lon="17.5442708">
        <ele>21.2864</ele>
        <time>2013-04-27T11:46:23Z</time>
      </trkpt>
      <trkpt lat="59.9463356" lon="17.5442343">
        <ele>21.2864</ele>
        <time>2013-04-27T11:46:24Z</time>
      </trkpt>
      <trkpt lat="59.9462746" lon="17.5442026">
        <ele>21.2864</ele>
        <time>2013-04-27T11:46:25Z</time>
      </trkpt>
      <trkpt lat="59.9462125" lon="17.5441759">
        <ele>21.2864</ele>
        <time>2013-04-27T11:46:26Z</time>
      </trkpt>
      <trkpt lat="59.9461502" lon="17.5441516">
        <ele>21.2864</ele>
        <time>2013-04-27T11:46:27Z</time>
      </trkpt>
      <trkpt lat="59.946088" lon="17.5441293">
        <ele>21.2864</ele>
        <time>2013-04-27T11:46:28Z</time>
      </trkpt>
      <trkpt lat="59.9460253" lon="17.544112">
        <ele>21.2864</ele>
        <time>2013-04-27T11:46:29Z</time>
      </trkpt>
      <trkpt lat="59.9459626" lon="17.544095">
        <ele>20.8057</ele>
        <time>2013-04-27T11:46:30Z</time>
      </trkpt>
      <trkpt lat="59.9459" lon="17.5440801">
        <ele>20.8057</ele>
        <time>2013-04-27T11:46:31Z</time>
      </trkpt>
      <trkpt lat="59.9458393" lon="17.5440669">
        <ele>20.8057</ele>
        <time>2013-04-27T11:46:32Z</time>
      </trkpt>
      <trkpt lat="59.9457789" lon="17.5440609">
        <ele>20.8057</ele>
        <time>2013-04-27T11:46:33Z</time>
      </trkpt>
      <trkpt lat="59.9457188" lon="17.5440638">
        <ele>20.325</ele>
        <time>2013-04-27T11:46:34Z</time>
      </trkpt>
      <trkpt lat="59.9456599" lon="17.5440645">
        <ele>20.325</ele>
        <time>2013-04-27T11:46:35Z</time>
      </trkpt>
      <trkpt lat="59.945602" lon="17.5440593">
        <ele>20.325</ele>
        <time>2013-04-27T11:46:36Z</time>
      </trkpt>
      <trkpt lat="59.9455444" lon="17.5440517">
        <ele>19.8444</ele>
        <time>2013-04-27T11:46:37Z</time>
      </trkpt>
      <trkpt lat="59.9454865" lon="17.5440459">
        <ele>19.8444</ele>
        <time>2013-04-27T11:46:38Z</time>
      </trkpt>
      <trkpt lat="59.9454281" lon="17.5440406">
        <ele>19.8444</ele>
        <time>2013-04-27T11:46:39Z</time>
      </trkpt>
      <trkpt lat="59.945369" lon="17.544036">
        <ele>19.3638</ele>
        <time>2013-04-27T11:46:40Z</time>
      </trkpt>
      <trkpt lat="59.9453101" lon="17.5440323">
        <ele>19.3638</ele>
        <time>2013-04-27T11:46:41Z</time>
      </trkpt>
      <trkpt lat="59.945251" lon="17.5440304">
        <ele>19.3638</ele>
        <time>2013-04-27T11:46:42Z</time>
      </trkpt>
      <trkpt lat="59.9451922" lon="17.5440283">
        <ele>19.3638</ele>
        <time>2013-04-27T11:46:43Z</time>
      </trkpt>
      <trkpt lat="59.9451332" lon="17.5440232">
        <ele>19.3638</ele>
        <time>2013-04-27T11:46:44Z</time>
      </trkpt>
      <trkpt lat="59.9450737" lon="17.5440205">
        <ele>18.8831</ele>
        <time>2013-04-27T11:46:45Z</time>
      </trkpt>
      <trkpt lat="59.9450137" lon="17.5440195">
        <ele>18.8831</ele>
        <time>2013-04-27T11:46:46Z</time>
      </trkpt>
      <trkpt lat="59.9449531" lon="17.5440185">
        <ele>18.8831</ele>
        <time>2013-04-27T11:46:47Z</time>
      </trkpt>
      <trkpt lat="59.9448909" lon="17.5440186">
        <ele>18.8831</ele>
        <time>2013-04-27T11:46:48Z</time>
      </trkpt>
      <trkpt lat="59.9448293" lon="17.5440179">
        <ele>19.3638</ele>
        <time>2013-04-27T11:46:49Z</time>
      </trkpt>
      <trkpt lat="59.9447697" lon="17.5440179">
        <ele>19.3638</ele>
        <time>2013-04-27T11:46:50Z</time>
      </trkpt>
      <trkpt lat="59.94471" lon="17.5440189">
        <ele>19.8444</ele>
        <time>2013-04-27T11:46:51Z</time>
      </trkpt>
      <trkpt lat="59.94465" lon="17.5440174">
        <ele>19.8444</ele>
        <time>2013-04-27T11:46:52Z</time>
      </trkpt>
      <trkpt lat="59.9445895" lon="17.5440148">
        <ele>20.325</ele>
        <time>2013-04-27T11:46:53Z</time>
      </trkpt>
      <trkpt lat="59.9445288" lon="17.5440133">
        <ele>20.325</ele>
        <time>2013-04-27T11:46:54Z</time>
      </trkpt>
      <trkpt lat="59.9444671" lon="17.5440107">
        <ele>20.325</ele>
        <time>2013-04-27T11:46:55Z</time>
      </trkpt>
      <trkpt lat="59.944405" lon="17.5440076">
        <ele>20.325</ele>
        <time>2013-04-27T11:46:56Z</time>
      </trkpt>
      <trkpt lat="59.9443429" lon="17.544005">
        <ele>20.325</ele>
        <time>2013-04-27T11:46:57Z</time>
      </trkpt>
      <trkpt lat="59.9442817" lon="17.5440034">
        <ele>20.325</ele>
        <time>2013-04-27T11:46:58Z</time>
      </trkpt>
      <trkpt lat="59.9442217" lon="17.5439978">
        <ele>20.325</ele>
        <time>2013-04-27T11:46:59Z</time>
      </trkpt>
      <trkpt lat="59.9441626" lon="17.543991">
        <ele>20.325</ele>
        <time>2013-04-27T11:47:00Z</time>
      </trkpt>
      <trkpt lat="59.9441039" lon="17.5439878">
        <ele>20.325</ele>
        <time>2013-04-27T11:47:01Z</time>
      </trkpt>
      <trkpt lat="59.944045" lon="17.5439826">
        <ele>19.8444</ele>
        <time>2013-04-27T11:47:02Z</time>
      </trkpt>
      <trkpt lat="59.9439869" lon="17.5439761">
        <ele>19.8444</ele>
        <time>2013-04-27T11:47:03Z</time>
      </trkpt>
      <trkpt lat="59.9439279" lon="17.5439682">
        <ele>19.3638</ele>
        <time>2013-04-27T11:47:04Z</time>
      </trkpt>
      <trkpt lat="59.9438689" lon="17.5439589">
        <ele>19.3638</ele>
        <time>2013-04-27T11:47:05Z</time>
      </trkpt>
      <trkpt lat="59.9438089" lon="17.543948">
        <ele>18.8831</ele>
        <time>2013-04-27T11:47:06Z</time>
      </trkpt>
      <trkpt lat="59.9437506" lon="17.5439356">
        <ele>18.8831</ele>
        <time>2013-04-27T11:47:07Z</time>
      </trkpt>
      <trkpt lat="59.9436913" lon="17.5439219">
        <ele>18.8831</ele>
        <time>2013-04-27T11:47:08Z</time>
      </trkpt>
      <trkpt lat="59.9436312" lon="17.5439082">
        <ele>18.8831</ele>
        <time>2013-04-27T11:47:09Z</time>
      </trkpt>
      <trkpt lat="59.9435711" lon="17.5438913">
        <ele>18.4023</ele>
        <time>2013-04-27T11:47:10Z</time>
      </trkpt>
      <trkpt lat="59.9435125" lon="17.5438699">
        <ele>18.4023</ele>
        <time>2013-04-27T11:47:11Z</time>
      </trkpt>
      <trkpt lat="59.9434534" lon="17.5438507">
        <ele>18.4023</ele>
        <time>2013-04-27T11:47:12Z</time>
      </trkpt>
      <trkpt lat="59.9433939" lon="17.5438304">
        <ele>18.8831</ele>
        <time>2013-04-27T11:47:13Z</time>
      </trkpt>
      <trkpt lat="59.9433337" lon="17.5438085">
        <ele>18.8831</ele>
        <time>2013-04-27T11:47:14Z</time>
      </trkpt>
      <trkpt lat="59.943274" lon="17.5437844">
        <ele>18.8831</ele>
        <time>2013-04-27T11:47:15Z</time>
      </trkpt>
      <trkpt lat="59.9432151" lon="17.543758">
        <ele>18.8831</ele>
        <time>2013-04-27T11:47:16Z</time>
      </trkpt>
      <trkpt lat="59.9431566" lon="17.5437319">
        <ele>18.8831</ele>
        <time>2013-04-27T11:47:17Z</time>
      </trkpt>
      <trkpt lat="59.9430994" lon="17.5437056">
        <ele>18.8831</ele>
        <time>2013-04-27T11:47:18Z</time>
      </trkpt>
      <trkpt lat="59.9430427" lon="17.5436781">
        <ele>18.8831</ele>
        <time>2013-04-27T11:47:19Z</time>
      </trkpt>
      <trkpt lat="59.9429876" lon="17.5436454">
        <ele>18.8831</ele>
        <time>2013-04-27T11:47:20Z</time>
      </trkpt>
      <trkpt lat="59.9429339" lon="17.5436101">
        <ele>19.3638</ele>
        <time>2013-04-27T11:47:21Z</time>
      </trkpt>
      <trkpt lat="59.9428805" lon="17.5435749">
        <ele>19.3638</ele>
        <time>2013-04-27T11:47:22Z</time>
      </trkpt>
      <trkpt lat="59.9428272" lon="17.5435414">
        <ele>19.3638</ele>
        <time>2013-04-27T11:47:23Z</time>
      </trkpt>
      <trkpt lat="59.9427741" lon="17.5435067">
        <ele>19.3638</ele>
        <time>2013-04-27T11:47:24Z</time>
      </trkpt>
      <trkpt lat="59.9427203" lon="17.5434688">
        <ele>19.3638</ele>
        <time>2013-04-27T11:47:25Z</time>
      </trkpt>
      <trkpt lat="59.9426651" lon="17.54343">
        <ele>19.3638</ele>
        <time>2013-04-27T11:47:26Z</time>
      </trkpt>
      <trkpt lat="59.9426089" lon="17.543392">
        <ele>19.8444</ele>
        <time>2013-04-27T11:47:27Z</time>
      </trkpt>
      <trkpt lat="59.9425527" lon="17.543351">
        <ele>19.8444</ele>
        <time>2013-04-27T11:47:28Z</time>
      </trkpt>
      <trkpt lat="59.942498" lon="17.543306">
        <ele>20.325</ele>
        <time>2013-04-27T11:47:29Z</time>
      </trkpt>
      <trkpt lat="59.9424436" lon="17.5432601">
        <ele>20.325</ele>
        <time>2013-04-27T11:47:30Z</time>
      </trkpt>
      <trkpt lat="59.942389" lon="17.5432146">
        <ele>20.325</ele>
        <time>2013-04-27T11:47:31Z</time>
      </trkpt>
      <trkpt lat="59.9423354" lon="17.5431679">
        <ele>20.8057</ele>
        <time>2013-04-27T11:47:32Z</time>
      </trkpt>
      <trkpt lat="59.9422832" lon="17.5431205">
        <ele>20.8057</ele>
        <time>2013-04-27T11:47:33Z</time>
      </trkpt>
      <trkpt lat="59.942232" lon="17.5430762">
        <ele>20.8057</ele>
        <time>2013-04-27T11:47:34Z</time>
      </trkpt>
      <trkpt lat="59.9421817" lon="17.5430349">
        <ele>21.2864</ele>
        <time>2013-04-27T11:47:35Z</time>
      </trkpt>
      <trkpt lat="59.9421325" lon="17.5429933">
        <ele>21.2864</ele>
        <time>2013-04-27T11:47:36Z</time>
      </trkpt>
      <trkpt lat="59.9420846" lon="17.5429503">
        <ele>21.2864</ele>
        <time>2013-04-27T11:47:37Z</time>
      </trkpt>
      <trkpt lat="59.9420375" lon="17.5429069">
        <ele>21.767</ele>
        <time>2013-04-27T11:47:38Z</time>
      </trkpt>
      <trkpt lat="59.9419906" lon="17.5428647">
        <ele>21.767</ele>
        <time>2013-04-27T11:47:39Z</time>
      </trkpt>
      <trkpt lat="59.9419448" lon="17.5428216">
        <ele>21.767</ele>
        <time>2013-04-27T11:47:40Z</time>
      </trkpt>
      <trkpt lat="59.9418999" lon="17.5427794">
        <ele>21.767</ele>
        <time>2013-04-27T11:47:41Z</time>
      </trkpt>
      <trkpt lat="59.9418553" lon="17.5427384">
        <ele>22.2476</ele>
        <time>2013-04-27T11:47:42Z</time>
      </trkpt>
      <trkpt lat="59.9418113" lon="17.5426965">
        <ele>22.2476</ele>
        <time>2013-04-27T11:47:43Z</time>
      </trkpt>
      <trkpt lat="59.9417668" lon="17.5426603">
        <ele>22.2476</ele>
        <time>2013-04-27T11:47:44Z</time>
      </trkpt>
      <trkpt lat="59.9417197" lon="17.5426379">
        <ele>22.2476</ele>
        <time>2013-04-27T11:47:45Z</time>
      </trkpt>
      <trkpt lat="59.9416715" lon="17.5426194">
        <ele>22.2476</ele>
        <time>2013-04-27T11:47:46Z</time>
      </trkpt>
      <trkpt lat="59.9416253" lon="17.5425927">
        <ele>22.2476</ele>
        <time>2013-04-27T11:47:47Z</time>
      </trkpt>
      <trkpt lat="59.9415812" lon="17.5425804">
        <ele>22.2476</ele>
        <time>2013-04-27T11:47:48Z</time>
      </trkpt>
      <trkpt lat="59.9415404" lon="17.5426084">
        <ele>22.2476</ele>
        <time>2013-04-27T11:47:49Z</time>
      </trkpt>
      <trkpt lat="59.9415027" lon="17.5426654">
        <ele>22.2476</ele>
        <time>2013-04-27T11:47:50Z</time>
      </trkpt>
      <trkpt lat="59.9414638" lon="17.542729">
        <ele>22.2476</ele>
        <time>2013-04-27T11:47:51Z</time>
      </trkpt>
      <trkpt lat="59.9414205" lon="17.5427881">
        <ele>22.7283</ele>
        <time>2013-04-27T11:47:52Z</time>
      </trkpt>
      <trkpt lat="59.9413763" lon="17.5428498">
        <ele>22.7283</ele>
        <time>2013-04-27T11:47:53Z</time>
      </trkpt>
      <trkpt lat="59.9413348" lon="17.5429203">
        <ele>22.7283</ele>
        <time>2013-04-27T11:47:54Z</time>
      </trkpt>
      <trkpt lat="59.941298" lon="17.5430031">
        <ele>23.209</ele>
        <time>2013-04-27T11:47:55Z</time>
      </trkpt>
      <trkpt lat="59.941261" lon="17.5430845">
        <ele>23.6896</ele>
        <time>2013-04-27T11:47:56Z</time>
      </trkpt>
      <trkpt lat="59.9412212" lon="17.5431587">
        <ele>24.1703</ele>
        <time>2013-04-27T11:47:57Z</time>
      </trkpt>
      <trkpt lat="59.941183" lon="17.5432351">
        <ele>24.651</ele>
        <time>2013-04-27T11:47:58Z</time>
      </trkpt>
      <trkpt lat="59.9411456" lon="17.5433138">
        <ele>24.651</ele>
        <time>2013-04-27T11:47:59Z</time>
      </trkpt>
      <trkpt lat="59.9411063" lon="17.5433906">
        <ele>25.1317</ele>
        <time>2013-04-27T11:48:00Z</time>
      </trkpt>
      <trkpt lat="59.9410655" lon="17.5434677">
        <ele>25.1317</ele>
        <time>2013-04-27T11:48:01Z</time>
      </trkpt>
      <trkpt lat="59.941024" lon="17.5435484">
        <ele>25.6123</ele>
        <time>2013-04-27T11:48:02Z</time>
      </trkpt>
      <trkpt lat="59.9409806" lon="17.5436293">
        <ele>25.6123</ele>
        <time>2013-04-27T11:48:03Z</time>
      </trkpt>
      <trkpt lat="59.9409368" lon="17.5437116">
        <ele>25.6123</ele>
        <time>2013-04-27T11:48:04Z</time>
      </trkpt>
      <trkpt lat="59.9408924" lon="17.5437943">
        <ele>25.6123</ele>
        <time>2013-04-27T11:48:05Z</time>
      </trkpt>
      <trkpt lat="59.9408469" lon="17.5438761">
        <ele>25.6123</ele>
        <time>2013-04-27T11:48:06Z</time>
      </trkpt>
      <trkpt lat="59.9408006" lon="17.5439588">
        <ele>25.6123</ele>
        <time>2013-04-27T11:48:07Z</time>
      </trkpt>
      <trkpt lat="59.9407534" lon="17.5440448">
        <ele>25.6123</ele>
        <time>2013-04-27T11:48:08Z</time>
      </trkpt>
      <trkpt lat="59.9407053" lon="17.5441304">
        <ele>26.0929</ele>
        <time>2013-04-27T11:48:09Z</time>
      </trkpt>
      <trkpt lat="59.9406562" lon="17.544214">
        <ele>26.5736</ele>
        <time>2013-04-27T11:48:10Z</time>
      </trkpt>
      <trkpt lat="59.940606" lon="17.5442947">
        <ele>26.5736</ele>
        <time>2013-04-27T11:48:11Z</time>
      </trkpt>
      <trkpt lat="59.9405557" lon="17.5443743">
        <ele>27.0543</ele>
        <time>2013-04-27T11:48:12Z</time>
      </trkpt>
      <trkpt lat="59.9405096" lon="17.5444783">
        <ele>27.0543</ele>
        <time>2013-04-27T11:48:13Z</time>
      </trkpt>
      <trkpt lat="59.9404593" lon="17.5445582">
        <ele>27.0543</ele>
        <time>2013-04-27T11:48:14Z</time>
      </trkpt>
      <trkpt lat="59.9404091" lon="17.5446322">
        <ele>27.0543</ele>
        <time>2013-04-27T11:48:15Z</time>
      </trkpt>
      <trkpt lat="59.9403602" lon="17.5447057">
        <ele>27.0543</ele>
        <time>2013-04-27T11:48:16Z</time>
      </trkpt>
      <trkpt lat="59.9403107" lon="17.5447758">
        <ele>27.0543</ele>
        <time>2013-04-27T11:48:17Z</time>
      </trkpt>
      <trkpt lat="59.9402595" lon="17.5448436">
        <ele>27.0543</ele>
        <time>2013-04-27T11:48:18Z</time>
      </trkpt>
      <trkpt lat="59.9402064" lon="17.5449097">
        <ele>27.0543</ele>
        <time>2013-04-27T11:48:19Z</time>
      </trkpt>
      <trkpt lat="59.9401497" lon="17.5449742">
        <ele>26.5736</ele>
        <time>2013-04-27T11:48:20Z</time>
      </trkpt>
      <trkpt lat="59.9400916" lon="17.5450383">
        <ele>26.5736</ele>
        <time>2013-04-27T11:48:21Z</time>
      </trkpt>
      <trkpt lat="59.9400334" lon="17.5451047">
        <ele>26.5736</ele>
        <time>2013-04-27T11:48:22Z</time>
      </trkpt>
      <trkpt lat="59.9399745" lon="17.5451786">
        <ele>26.0929</ele>
        <time>2013-04-27T11:48:23Z</time>
      </trkpt>
      <trkpt lat="59.9399155" lon="17.5452542">
        <ele>26.0929</ele>
        <time>2013-04-27T11:48:24Z</time>
      </trkpt>
      <trkpt lat="59.9398563" lon="17.5453283">
        <ele>25.6123</ele>
        <time>2013-04-27T11:48:25Z</time>
      </trkpt>
      <trkpt lat="59.9397974" lon="17.5454004">
        <ele>25.6123</ele>
        <time>2013-04-27T11:48:26Z</time>
      </trkpt>
      <trkpt lat="59.9397384" lon="17.5454699">
        <ele>25.6123</ele>
        <time>2013-04-27T11:48:27Z</time>
      </trkpt>
      <trkpt lat="59.9396788" lon="17.5455404">
        <ele>25.6123</ele>
        <time>2013-04-27T11:48:28Z</time>
      </trkpt>
      <trkpt lat="59.9396194" lon="17.5456134">
        <ele>25.1317</ele>
        <time>2013-04-27T11:48:29Z</time>
      </trkpt>
      <trkpt lat="59.9395595" lon="17.5456847">
        <ele>25.1317</ele>
        <time>2013-04-27T11:48:30Z</time>
      </trkpt>
      <trkpt lat="59.9394983" lon="17.5457532">
        <ele>25.1317</ele>
        <time>2013-04-27T11:48:31Z</time>
      </trkpt>
      <trkpt lat="59.9394357" lon="17.5458221">
        <ele>24.651</ele>
        <time>2013-04-27T11:48:32Z</time>
      </trkpt>
      <trkpt lat="59.9393736" lon="17.5458931">
        <ele>24.651</ele>
        <time>2013-04-27T11:48:33Z</time>
      </trkpt>
      <trkpt lat="59.9393114" lon="17.5459631">
        <ele>24.651</ele>
        <time>2013-04-27T11:48:34Z</time>
      </trkpt>
      <trkpt lat="59.9392502" lon="17.5460321">
        <ele>24.1703</ele>
        <time>2013-04-27T11:48:35Z</time>
      </trkpt>
      <trkpt lat="59.9391908" lon="17.5461032">
        <ele>24.1703</ele>
        <time>2013-04-27T11:48:36Z</time>
      </trkpt>
      <trkpt lat="59.9391337" lon="17.5461749">
        <ele>24.1703</ele>
        <time>2013-04-27T11:48:37Z</time>
      </trkpt>
      <trkpt lat="59.9390784" lon="17.5462501">
        <ele>24.1703</ele>
        <time>2013-04-27T11:48:38Z</time>
      </trkpt>
      <trkpt lat="59.9390251" lon="17.5463294">
        <ele>24.1703</ele>
        <time>2013-04-27T11:48:39Z</time>
      </trkpt>
      <trkpt lat="59.938973" lon="17.5464096">
        <ele>24.1703</ele>
        <time>2013-04-27T11:48:40Z</time>
      </trkpt>
      <trkpt lat="59.9389192" lon="17.5464819">
        <ele>24.1703</ele>
        <time>2013-04-27T11:48:41Z</time>
      </trkpt>
      <trkpt lat="59.9388637" lon="17.5465433">
        <ele>23.6896</ele>
        <time>2013-04-27T11:48:42Z</time>
      </trkpt>
      <trkpt lat="59.938807" lon="17.5465976">
        <ele>23.6896</ele>
        <time>2013-04-27T11:48:43Z</time>
      </trkpt>
      <trkpt lat="59.93875" lon="17.546655">
        <ele>23.6896</ele>
        <time>2013-04-27T11:48:44Z</time>
      </trkpt>
      <trkpt lat="59.9386925" lon="17.5467167">
        <ele>23.6896</ele>
        <time>2013-04-27T11:48:45Z</time>
      </trkpt>
      <trkpt lat="59.938635" lon="17.546784">
        <ele>23.6896</ele>
        <time>2013-04-27T11:48:46Z</time>
      </trkpt>
      <trkpt lat="59.9385793" lon="17.5468557">
        <ele>23.6896</ele>
        <time>2013-04-27T11:48:47Z</time>
      </trkpt>
      <trkpt lat="59.9385244" lon="17.5469285">
        <ele>23.6896</ele>
        <time>2013-04-27T11:48:48Z</time>
      </trkpt>
      <trkpt lat="59.9384696" lon="17.5470015">
        <ele>23.6896</ele>
        <time>2013-04-27T11:48:49Z</time>
      </trkpt>
      <trkpt lat="59.9384153" lon="17.5470788">
        <ele>23.6896</ele>
        <time>2013-04-27T11:48:50Z</time>
      </trkpt>
      <trkpt lat="59.9383619" lon="17.5471611">
        <ele>23.6896</ele>
        <time>2013-04-27T11:48:51Z</time>
      </trkpt>
      <trkpt lat="59.9383094" lon="17.5472461">
        <ele>23.6896</ele>
        <time>2013-04-27T11:48:52Z</time>
      </trkpt>
      <trkpt lat="59.9382572" lon="17.5473323">
        <ele>23.6896</ele>
        <time>2013-04-27T11:48:53Z</time>
      </trkpt>
      <trkpt lat="59.9382049" lon="17.5474202">
        <ele>23.209</ele>
        <time>2013-04-27T11:48:54Z</time>
      </trkpt>
      <trkpt lat="59.9381529" lon="17.547512">
        <ele>23.6896</ele>
        <time>2013-04-27T11:48:55Z</time>
      </trkpt>
      <trkpt lat="59.9381008" lon="17.5476049">
        <ele>23.6896</ele>
        <time>2013-04-27T11:48:56Z</time>
      </trkpt>
      <trkpt lat="59.9380495" lon="17.547698">
        <ele>23.6896</ele>
        <time>2013-04-27T11:48:57Z</time>
      </trkpt>
      <trkpt lat="59.9379979" lon="17.5477911">
        <ele>24.1703</ele>
        <time>2013-04-27T11:48:58Z</time>
      </trkpt>
      <trkpt lat="59.9379468" lon="17.5478826">
        <ele>24.1703</ele>
        <time>2013-04-27T11:48:59Z</time>
      </trkpt>
      <trkpt lat="59.9378958" lon="17.547973">
        <ele>24.1703</ele>
        <time>2013-04-27T11:49:00Z</time>
      </trkpt>
      <trkpt lat="59.9378452" lon="17.5480634">
        <ele>24.1703</ele>
        <time>2013-04-27T11:49:01Z</time>
      </trkpt>
      <trkpt lat="59.9377951" lon="17.5481568">
        <ele>24.1703</ele>
        <time>2013-04-27T11:49:02Z</time>
      </trkpt>
      <trkpt lat="59.9377451" lon="17.5482536">
        <ele>24.1703</ele>
        <time>2013-04-27T11:49:03Z</time>
      </trkpt>
      <trkpt lat="59.9376955" lon="17.5483521">
        <ele>24.651</ele>
        <time>2013-04-27T11:49:04Z</time>
      </trkpt>
      <trkpt lat="59.9376463" lon="17.5484504">
        <ele>24.651</ele>
        <time>2013-04-27T11:49:05Z</time>
      </trkpt>
      <trkpt lat="59.9375967" lon="17.5485484">
        <ele>24.651</ele>
        <time>2013-04-27T11:49:06Z</time>
      </trkpt>
      <trkpt lat="59.9375472" lon="17.5486474">
        <ele>24.651</ele>
        <time>2013-04-27T11:49:07Z</time>
      </trkpt>
      <trkpt lat="59.9374964" lon="17.5487463">
        <ele>24.651</ele>
        <time>2013-04-27T11:49:08Z</time>
      </trkpt>
      <trkpt lat="59.9374454" lon="17.5488479">
        <ele>24.651</ele>
        <time>2013-04-27T11:49:09Z</time>
      </trkpt>
      <trkpt lat="59.9373948" lon="17.5489499">
        <ele>24.651</ele>
        <time>2013-04-27T11:49:10Z</time>
      </trkpt>
      <trkpt lat="59.9373439" lon="17.5490509">
        <ele>24.651</ele>
        <time>2013-04-27T11:49:11Z</time>
      </trkpt>
      <trkpt lat="59.9372922" lon="17.5491535">
        <ele>24.651</ele>
        <time>2013-04-27T11:49:12Z</time>
      </trkpt>
      <trkpt lat="59.9372395" lon="17.5492566">
        <ele>24.651</ele>
        <time>2013-04-27T11:49:13Z</time>
      </trkpt>
      <trkpt lat="59.9371875" lon="17.5493617">
        <ele>25.1317</ele>
        <time>2013-04-27T11:49:14Z</time>
      </trkpt>
      <trkpt lat="59.9371361" lon="17.5494667">
        <ele>25.1317</ele>
        <time>2013-04-27T11:49:15Z</time>
      </trkpt>
      <trkpt lat="59.9370864" lon="17.5495727">
        <ele>25.6123</ele>
        <time>2013-04-27T11:49:16Z</time>
      </trkpt>
      <trkpt lat="59.9370409" lon="17.5496837">
        <ele>25.6123</ele>
        <time>2013-04-27T11:49:17Z</time>
      </trkpt>
      <trkpt lat="59.9369979" lon="17.5497972">
        <ele>25.6123</ele>
        <time>2013-04-27T11:49:18Z</time>
      </trkpt>
      <trkpt lat="59.9369494" lon="17.5498997">
        <ele>25.6123</ele>
        <time>2013-04-27T11:49:19Z</time>
      </trkpt>
      <trkpt lat="59.9368943" lon="17.5499849">
        <ele>25.6123</ele>
        <time>2013-04-27T11:49:20Z</time>
      </trkpt>
      <trkpt lat="59.93684" lon="17.5500684">
        <ele>25.6123</ele>
        <time>2013-04-27T11:49:21Z</time>
      </trkpt>
      <trkpt lat="59.9367899" lon="17.5501596">
        <ele>25.6123</ele>
        <time>2013-04-27T11:49:22Z</time>
      </trkpt>
      <trkpt lat="59.9367417" lon="17.5502561">
        <ele>25.6123</ele>
        <time>2013-04-27T11:49:23Z</time>
      </trkpt>
      <trkpt lat="59.9366942" lon="17.5503525">
        <ele>25.6123</ele>
        <time>2013-04-27T11:49:24Z</time>
      </trkpt>
      <trkpt lat="59.9366468" lon="17.5504496">
        <ele>25.6123</ele>
        <time>2013-04-27T11:49:25Z</time>
      </trkpt>
      <trkpt lat="59.9365982" lon="17.5505457">
        <ele>25.6123</ele>
        <time>2013-04-27T11:49:26Z</time>
      </trkpt>
      <trkpt lat="59.9365499" lon="17.5506412">
        <ele>25.6123</ele>
        <time>2013-04-27T11:49:27Z</time>
      </trkpt>
      <trkpt lat="59.9365026" lon="17.5507375">
        <ele>25.6123</ele>
        <time>2013-04-27T11:49:28Z</time>
      </trkpt>
      <trkpt lat="59.9364556" lon="17.5508342">
        <ele>25.6123</ele>
        <time>2013-04-27T11:49:29Z</time>
      </trkpt>
      <trkpt lat="59.9364078" lon="17.5509323">
        <ele>25.6123</ele>
        <time>2013-04-27T11:49:30Z</time>
      </trkpt>
      <trkpt lat="59.9363583" lon="17.5510305">
        <ele>25.6123</ele>
        <time>2013-04-27T11:49:31Z</time>
      </trkpt>
      <trkpt lat="59.9363075" lon="17.5511276">
        <ele>25.6123</ele>
        <time>2013-04-27T11:49:32Z</time>
      </trkpt>
      <trkpt lat="59.9362555" lon="17.5512272">
        <ele>25.6123</ele>
        <time>2013-04-27T11:49:33Z</time>
      </trkpt>
      <trkpt lat="59.9362029" lon="17.5513294">
        <ele>25.1317</ele>
        <time>2013-04-27T11:49:34Z</time>
      </trkpt>
      <trkpt lat="59.9361511" lon="17.5514327">
        <ele>25.6123</ele>
        <time>2013-04-27T11:49:35Z</time>
      </trkpt>
      <trkpt lat="59.9360999" lon="17.551537">
        <ele>25.6123</ele>
        <time>2013-04-27T11:49:36Z</time>
      </trkpt>
      <trkpt lat="59.9360488" lon="17.5516423">
        <ele>25.6123</ele>
        <time>2013-04-27T11:49:37Z</time>
      </trkpt>
      <trkpt lat="59.9359954" lon="17.5517477">
        <ele>25.6123</ele>
        <time>2013-04-27T11:49:38Z</time>
      </trkpt>
      <trkpt lat="59.9359407" lon="17.5518542">
        <ele>25.1317</ele>
        <time>2013-04-27T11:49:39Z</time>
      </trkpt>
      <trkpt lat="59.9358868" lon="17.5519626">
        <ele>25.6123</ele>
        <time>2013-04-27T11:49:40Z</time>
      </trkpt>
      <trkpt lat="59.9358319" lon="17.5520717">
        <ele>25.1317</ele>
        <time>2013-04-27T11:49:41Z</time>
      </trkpt>
      <trkpt lat="59.9357763" lon="17.5521806">
        <ele>25.1317</ele>
        <time>2013-04-27T11:49:42Z</time>
      </trkpt>
      <trkpt lat="59.935721" lon="17.55229">
        <ele>25.6123</ele>
        <time>2013-04-27T11:49:43Z</time>
      </trkpt>
      <trkpt lat="59.9356649" lon="17.5524014">
        <ele>25.1317</ele>
        <time>2013-04-27T11:49:44Z</time>
      </trkpt>
      <trkpt lat="59.9356091" lon="17.5525149">
        <ele>25.1317</ele>
        <time>2013-04-27T11:49:45Z</time>
      </trkpt>
      <trkpt lat="59.9355534" lon="17.5526279">
        <ele>25.1317</ele>
        <time>2013-04-27T11:49:46Z</time>
      </trkpt>
      <trkpt lat="59.9354967" lon="17.5527391">
        <ele>25.1317</ele>
        <time>2013-04-27T11:49:47Z</time>
      </trkpt>
      <trkpt lat="59.9354398" lon="17.5528503">
        <ele>25.1317</ele>
        <time>2013-04-27T11:49:48Z</time>
      </trkpt>
      <trkpt lat="59.9353835" lon="17.5529609">
        <ele>25.1317</ele>
        <time>2013-04-27T11:49:49Z</time>
      </trkpt>
      <trkpt lat="59.9353282" lon="17.5530711">
        <ele>25.1317</ele>
        <time>2013-04-27T11:49:50Z</time>
      </trkpt>
      <trkpt lat="59.935273" lon="17.5531815">
        <ele>25.1317</ele>
        <time>2013-04-27T11:49:51Z</time>
      </trkpt>
      <trkpt lat="59.9352186" lon="17.5532933">
        <ele>25.1317</ele>
        <time>2013-04-27T11:49:52Z</time>
      </trkpt>
      <trkpt lat="59.9351653" lon="17.5534078">
        <ele>25.1317</ele>
        <time>2013-04-27T11:49:53Z</time>
      </trkpt>
      <trkpt lat="59.9351127" lon="17.5535228">
        <ele>25.1317</ele>
        <time>2013-04-27T11:49:54Z</time>
      </trkpt>
      <trkpt lat="59.935059" lon="17.5536343">
        <ele>25.1317</ele>
        <time>2013-04-27T11:49:55Z</time>
      </trkpt>
      <trkpt lat="59.9350047" lon="17.5537425">
        <ele>25.1317</ele>
        <time>2013-04-27T11:49:56Z</time>
      </trkpt>
      <trkpt lat="59.9349507" lon="17.5538518">
        <ele>25.1317</ele>
        <time>2013-04-27T11:49:57Z</time>
      </trkpt>
      <trkpt lat="59.9348968" lon="17.5539622">
        <ele>25.1317</ele>
        <time>2013-04-27T11:49:58Z</time>
      </trkpt>
      <trkpt lat="59.9348415" lon="17.5540693">
        <ele>25.1317</ele>
        <time>2013-04-27T11:49:59Z</time>
      </trkpt>
      <trkpt lat="59.9347866" lon="17.554175">
        <ele>25.1317</ele>
        <time>2013-04-27T11:50:00Z</time>
      </trkpt>
      <trkpt lat="59.9347322" lon="17.5542807">
        <ele>25.1317</ele>
        <time>2013-04-27T11:50:01Z</time>
      </trkpt>
      <trkpt lat="59.9346784" lon="17.5543867">
        <ele>25.1317</ele>
        <time>2013-04-27T11:50:02Z</time>
      </trkpt>
      <trkpt lat="59.9346258" lon="17.5544929">
        <ele>25.1317</ele>
        <time>2013-04-27T11:50:03Z</time>
      </trkpt>
      <trkpt lat="59.9345737" lon="17.5545983">
        <ele>25.1317</ele>
        <time>2013-04-27T11:50:04Z</time>
      </trkpt>
      <trkpt lat="59.9345204" lon="17.5547014">
        <ele>25.1317</ele>
        <time>2013-04-27T11:50:05Z</time>
      </trkpt>
      <trkpt lat="59.9344661" lon="17.5548055">
        <ele>25.1317</ele>
        <time>2013-04-27T11:50:06Z</time>
      </trkpt>
      <trkpt lat="59.9344114" lon="17.5549105">
        <ele>25.1317</ele>
        <time>2013-04-27T11:50:07Z</time>
      </trkpt>
      <trkpt lat="59.9343582" lon="17.5550163">
        <ele>25.1317</ele>
        <time>2013-04-27T11:50:08Z</time>
      </trkpt>
      <trkpt lat="59.9343086" lon="17.5551287">
        <ele>24.651</ele>
        <time>2013-04-27T11:50:09Z</time>
      </trkpt>
      <trkpt lat="59.9342685" lon="17.5552511">
        <ele>24.651</ele>
        <time>2013-04-27T11:50:10Z</time>
      </trkpt>
      <trkpt lat="59.9342406" lon="17.5553842">
        <ele>25.1317</ele>
        <time>2013-04-27T11:50:11Z</time>
      </trkpt>
      <trkpt lat="59.9342176" lon="17.5555198">
        <ele>25.1317</ele>
        <time>2013-04-27T11:50:12Z</time>
      </trkpt>
      <trkpt lat="59.9341847" lon="17.5556455">
        <ele>25.1317</ele>
        <time>2013-04-27T11:50:13Z</time>
      </trkpt>
      <trkpt lat="59.934128" lon="17.5557393">
        <ele>25.1317</ele>
        <time>2013-04-27T11:50:14Z</time>
      </trkpt>
      <trkpt lat="59.9340583" lon="17.5557979">
        <ele>25.1317</ele>
        <time>2013-04-27T11:50:15Z</time>
      </trkpt>
      <trkpt lat="59.9339949" lon="17.5558327">
        <ele>25.1317</ele>
        <time>2013-04-27T11:50:16Z</time>
      </trkpt>
      <trkpt lat="59.9339337" lon="17.5558721">
        <ele>25.1317</ele>
        <time>2013-04-27T11:50:17Z</time>
      </trkpt>
      <trkpt lat="59.9338791" lon="17.5559279">
        <ele>25.1317</ele>
        <time>2013-04-27T11:50:18Z</time>
      </trkpt>
      <trkpt lat="59.933833" lon="17.555999">
        <ele>25.1317</ele>
        <time>2013-04-27T11:50:19Z</time>
      </trkpt>
      <trkpt lat="59.9337903" lon="17.5560834">
        <ele>25.1317</ele>
        <time>2013-04-27T11:50:20Z</time>
      </trkpt>
      <trkpt lat="59.9337479" lon="17.5561683">
        <ele>25.1317</ele>
        <time>2013-04-27T11:50:21Z</time>
      </trkpt>
      <trkpt lat="59.9337045" lon="17.5562532">
        <ele>25.6123</ele>
        <time>2013-04-27T11:50:22Z</time>
      </trkpt>
      <trkpt lat="59.9336608" lon="17.5563399">
        <ele>25.6123</ele>
        <time>2013-04-27T11:50:23Z</time>
      </trkpt>
      <trkpt lat="59.9336164" lon="17.5564287">
        <ele>25.6123</ele>
        <time>2013-04-27T11:50:24Z</time>
      </trkpt>
      <trkpt lat="59.9335718" lon="17.5565194">
        <ele>25.6123</ele>
        <time>2013-04-27T11:50:25Z</time>
      </trkpt>
      <trkpt lat="59.933525" lon="17.5566112">
        <ele>25.6123</ele>
        <time>2013-04-27T11:50:26Z</time>
      </trkpt>
      <trkpt lat="59.9334774" lon="17.5567061">
        <ele>25.6123</ele>
        <time>2013-04-27T11:50:27Z</time>
      </trkpt>
      <trkpt lat="59.9334294" lon="17.5568039">
        <ele>26.0929</ele>
        <time>2013-04-27T11:50:28Z</time>
      </trkpt>
      <trkpt lat="59.93338" lon="17.5569012">
        <ele>26.0929</ele>
        <time>2013-04-27T11:50:29Z</time>
      </trkpt>
      <trkpt lat="59.933331" lon="17.5569977">
        <ele>26.0929</ele>
        <time>2013-04-27T11:50:30Z</time>
      </trkpt>
      <trkpt lat="59.9332824" lon="17.5570946">
        <ele>26.0929</ele>
        <time>2013-04-27T11:50:31Z</time>
      </trkpt>
      <trkpt lat="59.9332335" lon="17.5571914">
        <ele>26.0929</ele>
        <time>2013-04-27T11:50:32Z</time>
      </trkpt>
      <trkpt lat="59.9331834" lon="17.5572884">
        <ele>26.0929</ele>
        <time>2013-04-27T11:50:33Z</time>
      </trkpt>
      <trkpt lat="59.9331337" lon="17.5573883">
        <ele>26.5736</ele>
        <time>2013-04-27T11:50:34Z</time>
      </trkpt>
      <trkpt lat="59.9330848" lon="17.5574901">
        <ele>26.5736</ele>
        <time>2013-04-27T11:50:35Z</time>
      </trkpt>
      <trkpt lat="59.9330352" lon="17.5575908">
        <ele>26.5736</ele>
        <time>2013-04-27T11:50:36Z</time>
      </trkpt>
      <trkpt lat="59.932985" lon="17.5576903">
        <ele>26.5736</ele>
        <time>2013-04-27T11:50:37Z</time>
      </trkpt>
      <trkpt lat="59.9329352" lon="17.55779">
        <ele>26.5736</ele>
        <time>2013-04-27T11:50:38Z</time>
      </trkpt>
      <trkpt lat="59.9328855" lon="17.5578893">
        <ele>27.0543</ele>
        <time>2013-04-27T11:50:39Z</time>
      </trkpt>
      <trkpt lat="59.9328361" lon="17.5579876">
        <ele>27.0543</ele>
        <time>2013-04-27T11:50:40Z</time>
      </trkpt>
      <trkpt lat="59.9327867" lon="17.5580862">
        <ele>27.0543</ele>
        <time>2013-04-27T11:50:41Z</time>
      </trkpt>
      <trkpt lat="59.9327375" lon="17.5581855">
        <ele>27.0543</ele>
        <time>2013-04-27T11:50:42Z</time>
      </trkpt>
      <trkpt lat="59.932688" lon="17.5582843">
        <ele>27.5349</ele>
        <time>2013-04-27T11:50:43Z</time>
      </trkpt>
      <trkpt lat="59.9326377" lon="17.5583845">
        <ele>27.5349</ele>
        <time>2013-04-27T11:50:44Z</time>
      </trkpt>
      <trkpt lat="59.9325866" lon="17.5584855">
        <ele>27.5349</ele>
        <time>2013-04-27T11:50:45Z</time>
      </trkpt>
      <trkpt lat="59.9325351" lon="17.5585864">
        <ele>27.5349</ele>
        <time>2013-04-27T11:50:46Z</time>
      </trkpt>
      <trkpt lat="59.9324851" lon="17.5586872">
        <ele>28.0155</ele>
        <time>2013-04-27T11:50:47Z</time>
      </trkpt>
      <trkpt lat="59.9324362" lon="17.5587863">
        <ele>28.0155</ele>
        <time>2013-04-27T11:50:48Z</time>
      </trkpt>
      <trkpt lat="59.9323877" lon="17.5588833">
        <ele>28.0155</ele>
        <time>2013-04-27T11:50:49Z</time>
      </trkpt>
      <trkpt lat="59.9323399" lon="17.558981">
        <ele>28.4962</ele>
        <time>2013-04-27T11:50:50Z</time>
      </trkpt>
      <trkpt lat="59.9322917" lon="17.5590783">
        <ele>28.4962</ele>
        <time>2013-04-27T11:50:51Z</time>
      </trkpt>
      <trkpt lat="59.932243" lon="17.5591744">
        <ele>28.4962</ele>
        <time>2013-04-27T11:50:52Z</time>
      </trkpt>
      <trkpt lat="59.932195" lon="17.5592713">
        <ele>28.4962</ele>
        <time>2013-04-27T11:50:53Z</time>
      </trkpt>
      <trkpt lat="59.9321471" lon="17.5593676">
        <ele>28.9769</ele>
        <time>2013-04-27T11:50:54Z</time>
      </trkpt>
      <trkpt lat="59.9320993" lon="17.5594637">
        <ele>28.9769</ele>
        <time>2013-04-27T11:50:55Z</time>
      </trkpt>
      <trkpt lat="59.9320521" lon="17.5595607">
        <ele>28.9769</ele>
        <time>2013-04-27T11:50:56Z</time>
      </trkpt>
      <trkpt lat="59.9320055" lon="17.5596566">
        <ele>29.4575</ele>
        <time>2013-04-27T11:50:57Z</time>
      </trkpt>
      <trkpt lat="59.9319584" lon="17.5597519">
        <ele>29.4575</ele>
        <time>2013-04-27T11:50:58Z</time>
      </trkpt>
      <trkpt lat="59.9319116" lon="17.5598469">
        <ele>29.9381</ele>
        <time>2013-04-27T11:50:59Z</time>
      </trkpt>
      <trkpt lat="59.931865" lon="17.559942">
        <ele>30.4188</ele>
        <time>2013-04-27T11:51:00Z</time>
      </trkpt>
      <trkpt lat="59.9318174" lon="17.5600382">
        <ele>30.4188</ele>
        <time>2013-04-27T11:51:01Z</time>
      </trkpt>
      <trkpt lat="59.931769" lon="17.5601349">
        <ele>30.8995</ele>
        <time>2013-04-27T11:51:02Z</time>
      </trkpt>
      <trkpt lat="59.9317205" lon="17.560231">
        <ele>31.3801</ele>
        <time>2013-04-27T11:51:03Z</time>
      </trkpt>
      <trkpt lat="59.9316724" lon="17.5603278">
        <ele>31.3801</ele>
        <time>2013-04-27T11:51:04Z</time>
      </trkpt>
      <trkpt lat="59.9316235" lon="17.5604252">
        <ele>31.3801</ele>
        <time>2013-04-27T11:51:05Z</time>
      </trkpt>
      <trkpt lat="59.9315744" lon="17.5605226">
        <ele>31.3801</ele>
        <time>2013-04-27T11:51:06Z</time>
      </trkpt>
      <trkpt lat="59.9315245" lon="17.5606182">
        <ele>31.3801</ele>
        <time>2013-04-27T11:51:07Z</time>
      </trkpt>
      <trkpt lat="59.9314743" lon="17.560713">
        <ele>31.8607</ele>
        <time>2013-04-27T11:51:08Z</time>
      </trkpt>
      <trkpt lat="59.9314255" lon="17.5608092">
        <ele>31.8607</ele>
        <time>2013-04-27T11:51:09Z</time>
      </trkpt>
      <trkpt lat="59.9313759" lon="17.5609052">
        <ele>31.8607</ele>
        <time>2013-04-27T11:51:10Z</time>
      </trkpt>
      <trkpt lat="59.9313258" lon="17.561003">
        <ele>31.8607</ele>
        <time>2013-04-27T11:51:11Z</time>
      </trkpt>
      <trkpt lat="59.931276" lon="17.5611035">
        <ele>31.8607</ele>
        <time>2013-04-27T11:51:12Z</time>
      </trkpt>
      <trkpt lat="59.9312258" lon="17.561204">
        <ele>31.8607</ele>
        <time>2013-04-27T11:51:13Z</time>
      </trkpt>
      <trkpt lat="59.9311771" lon="17.5613056">
        <ele>31.8607</ele>
        <time>2013-04-27T11:51:14Z</time>
      </trkpt>
      <trkpt lat="59.9311296" lon="17.5614086">
        <ele>31.8607</ele>
        <time>2013-04-27T11:51:15Z</time>
      </trkpt>
      <trkpt lat="59.9310819" lon="17.5615106">
        <ele>31.8607</ele>
        <time>2013-04-27T11:51:16Z</time>
      </trkpt>
      <trkpt lat="59.9310321" lon="17.5616109">
        <ele>31.8607</ele>
        <time>2013-04-27T11:51:17Z</time>
      </trkpt>
      <trkpt lat="59.9309813" lon="17.561711">
        <ele>31.8607</ele>
        <time>2013-04-27T11:51:18Z</time>
      </trkpt>
      <trkpt lat="59.9309306" lon="17.5618116">
        <ele>31.8607</ele>
        <time>2013-04-27T11:51:19Z</time>
      </trkpt>
      <trkpt lat="59.9308796" lon="17.5619117">
        <ele>31.8607</ele>
        <time>2013-04-27T11:51:20Z</time>
      </trkpt>
      <trkpt lat="59.930829" lon="17.562011">
        <ele>31.8607</ele>
        <time>2013-04-27T11:51:21Z</time>
      </trkpt>
      <trkpt lat="59.9307788" lon="17.5621089">
        <ele>31.8607</ele>
        <time>2013-04-27T11:51:22Z</time>
      </trkpt>
      <trkpt lat="59.9307296" lon="17.5622058">
        <ele>31.8607</ele>
        <time>2013-04-27T11:51:23Z</time>
      </trkpt>
      <trkpt lat="59.9306794" lon="17.5623035">
        <ele>31.3801</ele>
        <time>2013-04-27T11:51:24Z</time>
      </trkpt>
      <trkpt lat="59.930626" lon="17.5624042">
        <ele>31.3801</ele>
        <time>2013-04-27T11:51:25Z</time>
      </trkpt>
      <trkpt lat="59.930571" lon="17.5625063">
        <ele>30.8995</ele>
        <time>2013-04-27T11:51:26Z</time>
      </trkpt>
      <trkpt lat="59.9305166" lon="17.5626096">
        <ele>30.8995</ele>
        <time>2013-04-27T11:51:27Z</time>
      </trkpt>
      <trkpt lat="59.9304626" lon="17.562713">
        <ele>30.8995</ele>
        <time>2013-04-27T11:51:28Z</time>
      </trkpt>
      <trkpt lat="59.9304092" lon="17.562817">
        <ele>30.4188</ele>
        <time>2013-04-27T11:51:29Z</time>
      </trkpt>
      <trkpt lat="59.9303567" lon="17.5629211">
        <ele>30.4188</ele>
        <time>2013-04-27T11:51:30Z</time>
      </trkpt>
      <trkpt lat="59.9303046" lon="17.5630247">
        <ele>30.4188</ele>
        <time>2013-04-27T11:51:31Z</time>
      </trkpt>
      <trkpt lat="59.9302524" lon="17.5631278">
        <ele>30.4188</ele>
        <time>2013-04-27T11:51:32Z</time>
      </trkpt>
      <trkpt lat="59.9301977" lon="17.5632334">
        <ele>30.4188</ele>
        <time>2013-04-27T11:51:33Z</time>
      </trkpt>
      <trkpt lat="59.930144" lon="17.5633422">
        <ele>30.4188</ele>
        <time>2013-04-27T11:51:34Z</time>
      </trkpt>
      <trkpt lat="59.9300888" lon="17.5634536">
        <ele>30.4188</ele>
        <time>2013-04-27T11:51:35Z</time>
      </trkpt>
      <trkpt lat="59.9300332" lon="17.5635691">
        <ele>30.4188</ele>
        <time>2013-04-27T11:51:36Z</time>
      </trkpt>
      <trkpt lat="59.9299772" lon="17.5636856">
        <ele>30.4188</ele>
        <time>2013-04-27T11:51:37Z</time>
      </trkpt>
      <trkpt lat="59.9299194" lon="17.5638007">
        <ele>30.4188</ele>
        <time>2013-04-27T11:51:38Z</time>
      </trkpt>
      <trkpt lat="59.9298614" lon="17.5639155">
        <ele>29.9381</ele>
        <time>2013-04-27T11:51:39Z</time>
      </trkpt>
      <trkpt lat="59.9298045" lon="17.5640301">
        <ele>29.9381</ele>
        <time>2013-04-27T11:51:40Z</time>
      </trkpt>
      <trkpt lat="59.9297488" lon="17.5641421">
        <ele>30.4188</ele>
        <time>2013-04-27T11:51:41Z</time>
      </trkpt>
      <trkpt lat="59.9296954" lon="17.5642514">
        <ele>30.4188</ele>
        <time>2013-04-27T11:51:42Z</time>
      </trkpt>
      <trkpt lat="59.9296432" lon="17.56436">
        <ele>30.4188</ele>
        <time>2013-04-27T11:51:43Z</time>
      </trkpt>
      <trkpt lat="59.9295904" lon="17.5644668">
        <ele>30.4188</ele>
        <time>2013-04-27T11:51:44Z</time>
      </trkpt>
      <trkpt lat="59.9295376" lon="17.5645713">
        <ele>30.4188</ele>
        <time>2013-04-27T11:51:45Z</time>
      </trkpt>
      <trkpt lat="59.9294849" lon="17.5646765">
        <ele>30.4188</ele>
        <time>2013-04-27T11:51:46Z</time>
      </trkpt>
      <trkpt lat="59.9294309" lon="17.5647837">
        <ele>30.4188</ele>
        <time>2013-04-27T11:51:47Z</time>
      </trkpt>
      <trkpt lat="59.9293764" lon="17.5648917">
        <ele>30.4188</ele>
        <time>2013-04-27T11:51:48Z</time>
      </trkpt>
      <trkpt lat="59.929322" lon="17.565">
        <ele>30.4188</ele>
        <time>2013-04-27T11:51:49Z</time>
      </trkpt>
      <trkpt lat="59.9292682" lon="17.5651072">
        <ele>29.9381</ele>
        <time>2013-04-27T11:51:50Z</time>
      </trkpt>
      <trkpt lat="59.9292145" lon="17.5652124">
        <ele>29.9381</ele>
        <time>2013-04-27T11:51:51Z</time>
      </trkpt>
      <trkpt lat="59.9291608" lon="17.5653173">
        <ele>29.9381</ele>
        <time>2013-04-27T11:51:52Z</time>
      </trkpt>
      <trkpt lat="59.9291066" lon="17.5654227">
        <ele>29.9381</ele>
        <time>2013-04-27T11:51:53Z</time>
      </trkpt>
      <trkpt lat="59.9290523" lon="17.5655273">
        <ele>29.4575</ele>
        <time>2013-04-27T11:51:54Z</time>
      </trkpt>
      <trkpt lat="59.9289984" lon="17.5656303">
        <ele>29.4575</ele>
        <time>2013-04-27T11:51:55Z</time>
      </trkpt>
      <trkpt lat="59.9289451" lon="17.5657334">
        <ele>29.4575</ele>
        <time>2013-04-27T11:51:56Z</time>
      </trkpt>
      <trkpt lat="59.9288927" lon="17.5658363">
        <ele>28.9769</ele>
        <time>2013-04-27T11:51:57Z</time>
      </trkpt>
      <trkpt lat="59.9288409" lon="17.5659389">
        <ele>28.9769</ele>
        <time>2013-04-27T11:51:58Z</time>
      </trkpt>
      <trkpt lat="59.928791" lon="17.5660409">
        <ele>28.9769</ele>
        <time>2013-04-27T11:51:59Z</time>
      </trkpt>
      <trkpt lat="59.9287418" lon="17.5661406">
        <ele>28.9769</ele>
        <time>2013-04-27T11:52:00Z</time>
      </trkpt>
      <trkpt lat="59.9286925" lon="17.566241">
        <ele>28.9769</ele>
        <time>2013-04-27T11:52:01Z</time>
      </trkpt>
      <trkpt lat="59.9286439" lon="17.5663434">
        <ele>28.9769</ele>
        <time>2013-04-27T11:52:02Z</time>
      </trkpt>
      <trkpt lat="59.9285954" lon="17.5664441">
        <ele>28.9769</ele>
        <time>2013-04-27T11:52:03Z</time>
      </trkpt>
      <trkpt lat="59.9285467" lon="17.5665405">
        <ele>28.4962</ele>
        <time>2013-04-27T11:52:04Z</time>
      </trkpt>
      <trkpt lat="59.928496" lon="17.5666346">
        <ele>28.4962</ele>
        <time>2013-04-27T11:52:05Z</time>
      </trkpt>
      <trkpt lat="59.9284465" lon="17.5667289">
        <ele>28.4962</ele>
        <time>2013-04-27T11:52:06Z</time>
      </trkpt>
      <trkpt lat="59.9283979" lon="17.5668248">
        <ele>28.0155</ele>
        <time>2013-04-27T11:52:07Z</time>
      </trkpt>
      <trkpt lat="59.9283499" lon="17.5669202">
        <ele>28.0155</ele>
        <time>2013-04-27T11:52:08Z</time>
      </trkpt>
      <trkpt lat="59.9283019" lon="17.567013">
        <ele>28.0155</ele>
        <time>2013-04-27T11:52:09Z</time>
      </trkpt>
      <trkpt lat="59.9282548" lon="17.5671049">
        <ele>28.0155</ele>
        <time>2013-04-27T11:52:10Z</time>
      </trkpt>
      <trkpt lat="59.9282135" lon="17.5671978">
        <ele>27.5349</ele>
        <time>2013-04-27T11:52:11Z</time>
      </trkpt>
      <trkpt lat="59.9281812" lon="17.5672911">
        <ele>27.5349</ele>
        <time>2013-04-27T11:52:12Z</time>
      </trkpt>
      <trkpt lat="59.928156" lon="17.5673793">
        <ele>27.5349</ele>
        <time>2013-04-27T11:52:13Z</time>
      </trkpt>
      <trkpt lat="59.9281346" lon="17.5674593">
        <ele>27.0543</ele>
        <time>2013-04-27T11:52:14Z</time>
      </trkpt>
      <trkpt lat="59.9281098" lon="17.5675289">
        <ele>27.0543</ele>
        <time>2013-04-27T11:52:15Z</time>
      </trkpt>
      <trkpt lat="59.9280768" lon="17.5675802">
        <ele>27.0543</ele>
        <time>2013-04-27T11:52:16Z</time>
      </trkpt>
      <trkpt lat="59.9280385" lon="17.5676141">
        <ele>27.0543</ele>
        <time>2013-04-27T11:52:17Z</time>
      </trkpt>
      <trkpt lat="59.927998" lon="17.56764">
        <ele>27.0543</ele>
        <time>2013-04-27T11:52:18Z</time>
      </trkpt>
      <trkpt lat="59.9279544" lon="17.5676672">
        <ele>26.5736</ele>
        <time>2013-04-27T11:52:19Z</time>
      </trkpt>
      <trkpt lat="59.9279067" lon="17.5676884">
        <ele>26.5736</ele>
        <time>2013-04-27T11:52:20Z</time>
      </trkpt>
      <trkpt lat="59.927856" lon="17.5676918">
        <ele>25.6123</ele>
        <time>2013-04-27T11:52:21Z</time>
      </trkpt>
      <trkpt lat="59.9278021" lon="17.5676783">
        <ele>25.6123</ele>
        <time>2013-04-27T11:52:22Z</time>
      </trkpt>
      <trkpt lat="59.9277456" lon="17.5676666">
        <ele>25.1317</ele>
        <time>2013-04-27T11:52:23Z</time>
      </trkpt>
      <trkpt lat="59.9276878" lon="17.567676">
        <ele>24.651</ele>
        <time>2013-04-27T11:52:24Z</time>
      </trkpt>
      <trkpt lat="59.9276291" lon="17.5677011">
        <ele>24.651</ele>
        <time>2013-04-27T11:52:25Z</time>
      </trkpt>
      <trkpt lat="59.9275703" lon="17.5677328">
        <ele>24.651</ele>
        <time>2013-04-27T11:52:26Z</time>
      </trkpt>
      <trkpt lat="59.9275118" lon="17.5677666">
        <ele>24.651</ele>
        <time>2013-04-27T11:52:27Z</time>
      </trkpt>
      <trkpt lat="59.9274547" lon="17.5678016">
        <ele>24.651</ele>
        <time>2013-04-27T11:52:28Z</time>
      </trkpt>
      <trkpt lat="59.9273975" lon="17.5678371">
        <ele>24.651</ele>
        <time>2013-04-27T11:52:29Z</time>
      </trkpt>
      <trkpt lat="59.9273392" lon="17.5678698">
        <ele>24.651</ele>
        <time>2013-04-27T11:52:30Z</time>
      </trkpt>
      <trkpt lat="59.9272791" lon="17.5679007">
        <ele>24.651</ele>
        <time>2013-04-27T11:52:31Z</time>
      </trkpt>
      <trkpt lat="59.927215" lon="17.5679281">
        <ele>23.6896</ele>
        <time>2013-04-27T11:52:32Z</time>
      </trkpt>
      <trkpt lat="59.927151" lon="17.5679526">
        <ele>23.6896</ele>
        <time>2013-04-27T11:52:33Z</time>
      </trkpt>
      <trkpt lat="59.9270846" lon="17.5679773">
        <ele>23.6896</ele>
        <time>2013-04-27T11:52:34Z</time>
      </trkpt>
      <trkpt lat="59.9270165" lon="17.5679978">
        <ele>23.6896</ele>
        <time>2013-04-27T11:52:35Z</time>
      </trkpt>
      <trkpt lat="59.926947" lon="17.5680123">
        <ele>23.209</ele>
        <time>2013-04-27T11:52:36Z</time>
      </trkpt>
      <trkpt lat="59.9268767" lon="17.568024">
        <ele>23.209</ele>
        <time>2013-04-27T11:52:37Z</time>
      </trkpt>
      <trkpt lat="59.926806" lon="17.568036">
        <ele>23.209</ele>
        <time>2013-04-27T11:52:38Z</time>
      </trkpt>
      <trkpt lat="59.9267348" lon="17.5680453">
        <ele>23.209</ele>
        <time>2013-04-27T11:52:39Z</time>
      </trkpt>
      <trkpt lat="59.9266636" lon="17.56805">
        <ele>23.209</ele>
        <time>2013-04-27T11:52:40Z</time>
      </trkpt>
      <trkpt lat="59.9265923" lon="17.5680485">
        <ele>23.209</ele>
        <time>2013-04-27T11:52:41Z</time>
      </trkpt>
      <trkpt lat="59.9265216" lon="17.568043">
        <ele>23.209</ele>
        <time>2013-04-27T11:52:42Z</time>
      </trkpt>
      <trkpt lat="59.9264502" lon="17.5680371">
        <ele>23.209</ele>
        <time>2013-04-27T11:52:43Z</time>
      </trkpt>
      <trkpt lat="59.9263787" lon="17.5680281">
        <ele>23.209</ele>
        <time>2013-04-27T11:52:44Z</time>
      </trkpt>
      <trkpt lat="59.9263079" lon="17.568013">
        <ele>23.209</ele>
        <time>2013-04-27T11:52:45Z</time>
      </trkpt>
      <trkpt lat="59.9262377" lon="17.5679931">
        <ele>23.209</ele>
        <time>2013-04-27T11:52:46Z</time>
      </trkpt>
      <trkpt lat="59.9261678" lon="17.56797">
        <ele>23.209</ele>
        <time>2013-04-27T11:52:47Z</time>
      </trkpt>
      <trkpt lat="59.926099" lon="17.5679425">
        <ele>23.209</ele>
        <time>2013-04-27T11:52:48Z</time>
      </trkpt>
      <trkpt lat="59.9260317" lon="17.5679105">
        <ele>23.6896</ele>
        <time>2013-04-27T11:52:49Z</time>
      </trkpt>
      <trkpt lat="59.9259654" lon="17.5678764">
        <ele>23.6896</ele>
        <time>2013-04-27T11:52:50Z</time>
      </trkpt>
      <trkpt lat="59.9258991" lon="17.5678412">
        <ele>23.6896</ele>
        <time>2013-04-27T11:52:51Z</time>
      </trkpt>
      <trkpt lat="59.9258328" lon="17.5678039">
        <ele>23.6896</ele>
        <time>2013-04-27T11:52:52Z</time>
      </trkpt>
      <trkpt lat="59.925767" lon="17.5677631">
        <ele>23.6896</ele>
        <time>2013-04-27T11:52:53Z</time>
      </trkpt>
      <trkpt lat="59.9257017" lon="17.5677172">
        <ele>24.1703</ele>
        <time>2013-04-27T11:52:54Z</time>
      </trkpt>
      <trkpt lat="59.925637" lon="17.5676655">
        <ele>24.1703</ele>
        <time>2013-04-27T11:52:55Z</time>
      </trkpt>
      <trkpt lat="59.9255734" lon="17.5676071">
        <ele>24.1703</ele>
        <time>2013-04-27T11:52:56Z</time>
      </trkpt>
      <trkpt lat="59.9255097" lon="17.5675445">
        <ele>24.1703</ele>
        <time>2013-04-27T11:52:57Z</time>
      </trkpt>
      <trkpt lat="59.9254449" lon="17.5674796">
        <ele>24.1703</ele>
        <time>2013-04-27T11:52:58Z</time>
      </trkpt>
      <trkpt lat="59.92538" lon="17.5674121">
        <ele>24.1703</ele>
        <time>2013-04-27T11:52:59Z</time>
      </trkpt>
      <trkpt lat="59.9253148" lon="17.5673444">
        <ele>24.1703</ele>
        <time>2013-04-27T11:53:00Z</time>
      </trkpt>
      <trkpt lat="59.925249" lon="17.5672776">
        <ele>24.1703</ele>
        <time>2013-04-27T11:53:01Z</time>
      </trkpt>
      <trkpt lat="59.9251838" lon="17.5672112">
        <ele>24.1703</ele>
        <time>2013-04-27T11:53:02Z</time>
      </trkpt>
      <trkpt lat="59.9251191" lon="17.5671453">
        <ele>24.1703</ele>
        <time>2013-04-27T11:53:03Z</time>
      </trkpt>
      <trkpt lat="59.9250547" lon="17.5670803">
        <ele>23.6896</ele>
        <time>2013-04-27T11:53:04Z</time>
      </trkpt>
      <trkpt lat="59.9249899" lon="17.5670164">
        <ele>23.6896</ele>
        <time>2013-04-27T11:53:05Z</time>
      </trkpt>
      <trkpt lat="59.9249247" lon="17.5669523">
        <ele>23.6896</ele>
        <time>2013-04-27T11:53:06Z</time>
      </trkpt>
      <trkpt lat="59.9248589" lon="17.5668876">
        <ele>23.6896</ele>
        <time>2013-04-27T11:53:07Z</time>
      </trkpt>
      <trkpt lat="59.9247938" lon="17.5668201">
        <ele>23.6896</ele>
        <time>2013-04-27T11:53:08Z</time>
      </trkpt>
      <trkpt lat="59.9247288" lon="17.5667539">
        <ele>23.6896</ele>
        <time>2013-04-27T11:53:09Z</time>
      </trkpt>
      <trkpt lat="59.9246638" lon="17.5666893">
        <ele>23.6896</ele>
        <time>2013-04-27T11:53:10Z</time>
      </trkpt>
      <trkpt lat="59.9246" lon="17.5666265">
        <ele>23.6896</ele>
        <time>2013-04-27T11:53:11Z</time>
      </trkpt>
      <trkpt lat="59.9245376" lon="17.5665651">
        <ele>23.6896</ele>
        <time>2013-04-27T11:53:12Z</time>
      </trkpt>
      <trkpt lat="59.9244752" lon="17.5665053">
        <ele>23.6896</ele>
        <time>2013-04-27T11:53:13Z</time>
      </trkpt>
      <trkpt lat="59.9244122" lon="17.5664431">
        <ele>23.6896</ele>
        <time>2013-04-27T11:53:14Z</time>
      </trkpt>
      <trkpt lat="59.9243492" lon="17.5663779">
        <ele>23.209</ele>
        <time>2013-04-27T11:53:15Z</time>
      </trkpt>
      <trkpt lat="59.9242856" lon="17.5663122">
        <ele>22.7283</ele>
        <time>2013-04-27T11:53:16Z</time>
      </trkpt>
      <trkpt lat="59.9242217" lon="17.5662478">
        <ele>22.2476</ele>
        <time>2013-04-27T11:53:17Z</time>
      </trkpt>
      <trkpt lat="59.9241577" lon="17.5661839">
        <ele>22.2476</ele>
        <time>2013-04-27T11:53:18Z</time>
      </trkpt>
      <trkpt lat="59.9240943" lon="17.5661191">
        <ele>21.767</ele>
        <time>2013-04-27T11:53:19Z</time>
      </trkpt>
      <trkpt lat="59.924031" lon="17.5660539">
        <ele>21.767</ele>
        <time>2013-04-27T11:53:20Z</time>
      </trkpt>
      <trkpt lat="59.9239674" lon="17.5659901">
        <ele>21.2864</ele>
        <time>2013-04-27T11:53:21Z</time>
      </trkpt>
      <trkpt lat="59.9239037" lon="17.5659261">
        <ele>21.2864</ele>
        <time>2013-04-27T11:53:22Z</time>
      </trkpt>
      <trkpt lat="59.923841" lon="17.5658609">
        <ele>20.8057</ele>
        <time>2013-04-27T11:53:23Z</time>
      </trkpt>
      <trkpt lat="59.923779" lon="17.5657977">
        <ele>20.325</ele>
        <time>2013-04-27T11:53:24Z</time>
      </trkpt>
      <trkpt lat="59.9237172" lon="17.5657372">
        <ele>20.325</ele>
        <time>2013-04-27T11:53:25Z</time>
      </trkpt>
      <trkpt lat="59.9236556" lon="17.5656764">
        <ele>19.8444</ele>
        <time>2013-04-27T11:53:26Z</time>
      </trkpt>
      <trkpt lat="59.9235937" lon="17.5656142">
        <ele>19.8444</ele>
        <time>2013-04-27T11:53:27Z</time>
      </trkpt>
      <trkpt lat="59.9235317" lon="17.5655521">
        <ele>19.3638</ele>
        <time>2013-04-27T11:53:28Z</time>
      </trkpt>
      <trkpt lat="59.9234702" lon="17.5654927">
        <ele>19.3638</ele>
        <time>2013-04-27T11:53:29Z</time>
      </trkpt>
      <trkpt lat="59.92341" lon="17.5654356">
        <ele>19.8444</ele>
        <time>2013-04-27T11:53:30Z</time>
      </trkpt>
      <trkpt lat="59.9233506" lon="17.5653786">
        <ele>19.8444</ele>
        <time>2013-04-27T11:53:31Z</time>
      </trkpt>
      <trkpt lat="59.9232912" lon="17.565321">
        <ele>19.8444</ele>
        <time>2013-04-27T11:53:32Z</time>
      </trkpt>
      <trkpt lat="59.9232309" lon="17.5652626">
        <ele>19.3638</ele>
        <time>2013-04-27T11:53:33Z</time>
      </trkpt>
      <trkpt lat="59.9231712" lon="17.5652092">
        <ele>19.3638</ele>
        <time>2013-04-27T11:53:34Z</time>
      </trkpt>
      <trkpt lat="59.9230542" lon="17.5651102">
        <ele>19.3638</ele>
        <time>2013-04-27T11:53:36Z</time>
      </trkpt>
      <trkpt lat="59.9229962" lon="17.5650662">
        <ele>18.8831</ele>
        <time>2013-04-27T11:53:37Z</time>
      </trkpt>
      <trkpt lat="59.9229391" lon="17.5650261">
        <ele>18.8831</ele>
        <time>2013-04-27T11:53:38Z</time>
      </trkpt>
      <trkpt lat="59.9228821" lon="17.5649915">
        <ele>18.4023</ele>
        <time>2013-04-27T11:53:39Z</time>
      </trkpt>
      <trkpt lat="59.9228242" lon="17.5649611">
        <ele>18.4023</ele>
        <time>2013-04-27T11:53:40Z</time>
      </trkpt>
      <trkpt lat="59.9227655" lon="17.5649329">
        <ele>18.4023</ele>
        <time>2013-04-27T11:53:41Z</time>
      </trkpt>
      <trkpt lat="59.9227057" lon="17.5649058">
        <ele>17.9218</ele>
        <time>2013-04-27T11:53:42Z</time>
      </trkpt>
      <trkpt lat="59.9226453" lon="17.5648782">
        <ele>17.9218</ele>
        <time>2013-04-27T11:53:43Z</time>
      </trkpt>
      <trkpt lat="59.9225828" lon="17.5648462">
        <ele>17.9218</ele>
        <time>2013-04-27T11:53:44Z</time>
      </trkpt>
      <trkpt lat="59.9225179" lon="17.5648088">
        <ele>17.4412</ele>
        <time>2013-04-27T11:53:45Z</time>
      </trkpt>
      <trkpt lat="59.9224502" lon="17.5647744">
        <ele>17.4412</ele>
        <time>2013-04-27T11:53:46Z</time>
      </trkpt>
      <trkpt lat="59.9223813" lon="17.564747">
        <ele>16.9604</ele>
        <time>2013-04-27T11:53:47Z</time>
      </trkpt>
      <trkpt lat="59.9223133" lon="17.5647222">
        <ele>16.9604</ele>
        <time>2013-04-27T11:53:48Z</time>
      </trkpt>
      <trkpt lat="59.9222469" lon="17.5646965">
        <ele>16.9604</ele>
        <time>2013-04-27T11:53:49Z</time>
      </trkpt>
      <trkpt lat="59.9221819" lon="17.5646719">
        <ele>16.4797</ele>
        <time>2013-04-27T11:53:50Z</time>
      </trkpt>
      <trkpt lat="59.9221171" lon="17.5646495">
        <ele>16.4797</ele>
        <time>2013-04-27T11:53:51Z</time>
      </trkpt>
      <trkpt lat="59.9220512" lon="17.5646295">
        <ele>16.4797</ele>
        <time>2013-04-27T11:53:52Z</time>
      </trkpt>
      <trkpt lat="59.9219855" lon="17.5646099">
        <ele>15.999</ele>
        <time>2013-04-27T11:53:53Z</time>
      </trkpt>
      <trkpt lat="59.9219206" lon="17.5645907">
        <ele>15.999</ele>
        <time>2013-04-27T11:53:54Z</time>
      </trkpt>
      <trkpt lat="59.9218561" lon="17.5645713">
        <ele>15.999</ele>
        <time>2013-04-27T11:53:55Z</time>
      </trkpt>
      <trkpt lat="59.9217919" lon="17.5645518">
        <ele>15.5184</ele>
        <time>2013-04-27T11:53:56Z</time>
      </trkpt>
      <trkpt lat="59.9217286" lon="17.5645306">
        <ele>15.5184</ele>
        <time>2013-04-27T11:53:57Z</time>
      </trkpt>
      <trkpt lat="59.9216654" lon="17.564509">
        <ele>15.5184</ele>
        <time>2013-04-27T11:53:58Z</time>
      </trkpt>
      <trkpt lat="59.9216012" lon="17.5644871">
        <ele>15.0377</ele>
        <time>2013-04-27T11:53:59Z</time>
      </trkpt>
      <trkpt lat="59.9215367" lon="17.5644633">
        <ele>15.0377</ele>
        <time>2013-04-27T11:54:00Z</time>
      </trkpt>
      <trkpt lat="59.9214712" lon="17.5644394">
        <ele>15.0377</ele>
        <time>2013-04-27T11:54:01Z</time>
      </trkpt>
      <trkpt lat="59.9214047" lon="17.5644177">
        <ele>15.0377</ele>
        <time>2013-04-27T11:54:02Z</time>
      </trkpt>
      <trkpt lat="59.9213383" lon="17.5643949">
        <ele>14.557</ele>
        <time>2013-04-27T11:54:03Z</time>
      </trkpt>
      <trkpt lat="59.9212717" lon="17.5643712">
        <ele>14.557</ele>
        <time>2013-04-27T11:54:04Z</time>
      </trkpt>
      <trkpt lat="59.9212037" lon="17.5643524">
        <ele>14.0764</ele>
        <time>2013-04-27T11:54:05Z</time>
      </trkpt>
      <trkpt lat="59.9211351" lon="17.5643362">
        <ele>14.0764</ele>
        <time>2013-04-27T11:54:06Z</time>
      </trkpt>
      <trkpt lat="59.9210665" lon="17.5643204">
        <ele>14.0764</ele>
        <time>2013-04-27T11:54:07Z</time>
      </trkpt>
      <trkpt lat="59.920998" lon="17.5643057">
        <ele>14.0764</ele>
        <time>2013-04-27T11:54:08Z</time>
      </trkpt>
      <trkpt lat="59.9209305" lon="17.5642934">
        <ele>13.5958</ele>
        <time>2013-04-27T11:54:09Z</time>
      </trkpt>
      <trkpt lat="59.920863" lon="17.5642849">
        <ele>13.5958</ele>
        <time>2013-04-27T11:54:10Z</time>
      </trkpt>
      <trkpt lat="59.9207953" lon="17.5642766">
        <ele>13.5958</ele>
        <time>2013-04-27T11:54:11Z</time>
      </trkpt>
      <trkpt lat="59.9207257" lon="17.5642715">
        <ele>13.5958</ele>
        <time>2013-04-27T11:54:12Z</time>
      </trkpt>
      <trkpt lat="59.9206551" lon="17.5642654">
        <ele>13.5958</ele>
        <time>2013-04-27T11:54:13Z</time>
      </trkpt>
      <trkpt lat="59.9205838" lon="17.5642596">
        <ele>13.1151</ele>
        <time>2013-04-27T11:54:14Z</time>
      </trkpt>
      <trkpt lat="59.9205107" lon="17.5642559">
        <ele>13.1151</ele>
        <time>2013-04-27T11:54:15Z</time>
      </trkpt>
      <trkpt lat="59.9204377" lon="17.5642562">
        <ele>13.1151</ele>
        <time>2013-04-27T11:54:16Z</time>
      </trkpt>
      <trkpt lat="59.9203657" lon="17.5642638">
        <ele>13.1151</ele>
        <time>2013-04-27T11:54:17Z</time>
      </trkpt>
      <trkpt lat="59.9202973" lon="17.5642865">
        <ele>13.1151</ele>
        <time>2013-04-27T11:54:18Z</time>
      </trkpt>
      <trkpt lat="59.9202291" lon="17.5643116">
        <ele>12.6344</ele>
        <time>2013-04-27T11:54:19Z</time>
      </trkpt>
      <trkpt lat="59.9201604" lon="17.5643053">
        <ele>12.6344</ele>
        <time>2013-04-27T11:54:20Z</time>
      </trkpt>
      <trkpt lat="59.9200947" lon="17.5642681">
        <ele>12.6344</ele>
        <time>2013-04-27T11:54:21Z</time>
      </trkpt>
      <trkpt lat="59.9200295" lon="17.5642385">
        <ele>12.6344</ele>
        <time>2013-04-27T11:54:22Z</time>
      </trkpt>
      <trkpt lat="59.919963" lon="17.5642261">
        <ele>12.6344</ele>
        <time>2013-04-27T11:54:23Z</time>
      </trkpt>
      <trkpt lat="59.919899" lon="17.5642206">
        <ele>12.6344</ele>
        <time>2013-04-27T11:54:24Z</time>
      </trkpt>
      <trkpt lat="59.9198358" lon="17.5642188">
        <ele>12.6344</ele>
        <time>2013-04-27T11:54:25Z</time>
      </trkpt>
      <trkpt lat="59.9197724" lon="17.564215">
        <ele>12.6344</ele>
        <time>2013-04-27T11:54:26Z</time>
      </trkpt>
      <trkpt lat="59.9197083" lon="17.5642134">
        <ele>12.6344</ele>
        <time>2013-04-27T11:54:27Z</time>
      </trkpt>
      <trkpt lat="59.9196434" lon="17.5642141">
        <ele>12.6344</ele>
        <time>2013-04-27T11:54:28Z</time>
      </trkpt>
      <trkpt lat="59.9195784" lon="17.5642177">
        <ele>12.1538</ele>
        <time>2013-04-27T11:54:29Z</time>
      </trkpt>
      <trkpt lat="59.9195121" lon="17.5642255">
        <ele>12.1538</ele>
        <time>2013-04-27T11:54:30Z</time>
      </trkpt>
      <trkpt lat="59.9194441" lon="17.5642322">
        <ele>11.6732</ele>
        <time>2013-04-27T11:54:31Z</time>
      </trkpt>
      <trkpt lat="59.9193778" lon="17.5642378">
        <ele>11.6732</ele>
        <time>2013-04-27T11:54:32Z</time>
      </trkpt>
      <trkpt lat="59.9193124" lon="17.5642453">
        <ele>11.1925</ele>
        <time>2013-04-27T11:54:33Z</time>
      </trkpt>
      <trkpt lat="59.9192467" lon="17.5642602">
        <ele>11.1925</ele>
        <time>2013-04-27T11:54:34Z</time>
      </trkpt>
      <trkpt lat="59.9191825" lon="17.564284">
        <ele>10.7118</ele>
        <time>2013-04-27T11:54:35Z</time>
      </trkpt>
      <trkpt lat="59.9191199" lon="17.5643263">
        <ele>10.7118</ele>
        <time>2013-04-27T11:54:36Z</time>
      </trkpt>
      <trkpt lat="59.9190603" lon="17.5643786">
        <ele>10.7118</ele>
        <time>2013-04-27T11:54:37Z</time>
      </trkpt>
      <trkpt lat="59.9190034" lon="17.5644419">
        <ele>10.7118</ele>
        <time>2013-04-27T11:54:38Z</time>
      </trkpt>
      <trkpt lat="59.9189496" lon="17.5645171">
        <ele>11.1925</ele>
        <time>2013-04-27T11:54:39Z</time>
      </trkpt>
      <trkpt lat="59.9188972" lon="17.5645984">
        <ele>11.1925</ele>
        <time>2013-04-27T11:54:40Z</time>
      </trkpt>
      <trkpt lat="59.918845" lon="17.5646838">
        <ele>11.1925</ele>
        <time>2013-04-27T11:54:41Z</time>
      </trkpt>
      <trkpt lat="59.9187928" lon="17.564772">
        <ele>11.1925</ele>
        <time>2013-04-27T11:54:42Z</time>
      </trkpt>
      <trkpt lat="59.9187411" lon="17.5648611">
        <ele>11.1925</ele>
        <time>2013-04-27T11:54:43Z</time>
      </trkpt>
      <trkpt lat="59.91869" lon="17.56495">
        <ele>11.1925</ele>
        <time>2013-04-27T11:54:44Z</time>
      </trkpt>
      <trkpt lat="59.9186395" lon="17.5650388">
        <ele>11.1925</ele>
        <time>2013-04-27T11:54:45Z</time>
      </trkpt>
      <trkpt lat="59.9185883" lon="17.5651274">
        <ele>11.1925</ele>
        <time>2013-04-27T11:54:46Z</time>
      </trkpt>
      <trkpt lat="59.9185369" lon="17.565215">
        <ele>11.1925</ele>
        <time>2013-04-27T11:54:47Z</time>
      </trkpt>
      <trkpt lat="59.9184862" lon="17.5653038">
        <ele>11.1925</ele>
        <time>2013-04-27T11:54:48Z</time>
      </trkpt>
      <trkpt lat="59.9184347" lon="17.5653918">
        <ele>11.6732</ele>
        <time>2013-04-27T11:54:49Z</time>
      </trkpt>
      <trkpt lat="59.9183818" lon="17.5654776">
        <ele>11.6732</ele>
        <time>2013-04-27T11:54:50Z</time>
      </trkpt>
      <trkpt lat="59.918328" lon="17.5655631">
        <ele>11.6732</ele>
        <time>2013-04-27T11:54:51Z</time>
      </trkpt>
      <trkpt lat="59.9182739" lon="17.565649">
        <ele>12.1538</ele>
        <time>2013-04-27T11:54:52Z</time>
      </trkpt>
      <trkpt lat="59.9182197" lon="17.5657315">
        <ele>12.1538</ele>
        <time>2013-04-27T11:54:53Z</time>
      </trkpt>
      <trkpt lat="59.9181666" lon="17.5658138">
        <ele>12.1538</ele>
        <time>2013-04-27T11:54:54Z</time>
      </trkpt>
      <trkpt lat="59.9181134" lon="17.5658952">
        <ele>12.1538</ele>
        <time>2013-04-27T11:54:55Z</time>
      </trkpt>
      <trkpt lat="59.9180609" lon="17.5659764">
        <ele>12.1538</ele>
        <time>2013-04-27T11:54:56Z</time>
      </trkpt>
      <trkpt lat="59.9180081" lon="17.5660575">
        <ele>12.6344</ele>
        <time>2013-04-27T11:54:57Z</time>
      </trkpt>
      <trkpt lat="59.9179549" lon="17.5661402">
        <ele>12.6344</ele>
        <time>2013-04-27T11:54:58Z</time>
      </trkpt>
      <trkpt lat="59.9179008" lon="17.5662255">
        <ele>12.6344</ele>
        <time>2013-04-27T11:54:59Z</time>
      </trkpt>
      <trkpt lat="59.9178461" lon="17.5663126">
        <ele>12.6344</ele>
        <time>2013-04-27T11:55:00Z</time>
      </trkpt>
      <trkpt lat="59.9177922" lon="17.5664016">
        <ele>12.6344</ele>
        <time>2013-04-27T11:55:01Z</time>
      </trkpt>
      <trkpt lat="59.9177394" lon="17.5664921">
        <ele>12.6344</ele>
        <time>2013-04-27T11:55:02Z</time>
      </trkpt>
      <trkpt lat="59.9176879" lon="17.5665819">
        <ele>12.6344</ele>
        <time>2013-04-27T11:55:03Z</time>
      </trkpt>
      <trkpt lat="59.917637" lon="17.5666751">
        <ele>12.6344</ele>
        <time>2013-04-27T11:55:04Z</time>
      </trkpt>
      <trkpt lat="59.917587" lon="17.566772">
        <ele>12.6344</ele>
        <time>2013-04-27T11:55:05Z</time>
      </trkpt>
      <trkpt lat="59.9175375" lon="17.5668732">
        <ele>12.6344</ele>
        <time>2013-04-27T11:55:06Z</time>
      </trkpt>
      <trkpt lat="59.9174885" lon="17.566977">
        <ele>12.6344</ele>
        <time>2013-04-27T11:55:07Z</time>
      </trkpt>
      <trkpt lat="59.9174406" lon="17.567079">
        <ele>12.6344</ele>
        <time>2013-04-27T11:55:08Z</time>
      </trkpt>
      <trkpt lat="59.9173929" lon="17.5671807">
        <ele>12.6344</ele>
        <time>2013-04-27T11:55:09Z</time>
      </trkpt>
      <trkpt lat="59.917345" lon="17.5672855">
        <ele>12.6344</ele>
        <time>2013-04-27T11:55:10Z</time>
      </trkpt>
      <trkpt lat="59.9172974" lon="17.5673919">
        <ele>13.1151</ele>
        <time>2013-04-27T11:55:11Z</time>
      </trkpt>
      <trkpt lat="59.9172497" lon="17.5674962">
        <ele>13.1151</ele>
        <time>2013-04-27T11:55:12Z</time>
      </trkpt>
      <trkpt lat="59.9172026" lon="17.5676017">
        <ele>13.1151</ele>
        <time>2013-04-27T11:55:13Z</time>
      </trkpt>
      <trkpt lat="59.9171564" lon="17.5677107">
        <ele>13.5958</ele>
        <time>2013-04-27T11:55:14Z</time>
      </trkpt>
      <trkpt lat="59.9171094" lon="17.5678213">
        <ele>13.5958</ele>
        <time>2013-04-27T11:55:15Z</time>
      </trkpt>
      <trkpt lat="59.9170616" lon="17.5679334">
        <ele>14.0764</ele>
        <time>2013-04-27T11:55:16Z</time>
      </trkpt>
      <trkpt lat="59.9170133" lon="17.5680467">
        <ele>14.0764</ele>
        <time>2013-04-27T11:55:17Z</time>
      </trkpt>
      <trkpt lat="59.916965" lon="17.5681578">
        <ele>14.0764</ele>
        <time>2013-04-27T11:55:18Z</time>
      </trkpt>
      <trkpt lat="59.9169169" lon="17.5682656">
        <ele>14.557</ele>
        <time>2013-04-27T11:55:19Z</time>
      </trkpt>
      <trkpt lat="59.9168708" lon="17.5683735">
        <ele>14.557</ele>
        <time>2013-04-27T11:55:20Z</time>
      </trkpt>
      <trkpt lat="59.9168276" lon="17.5684833">
        <ele>14.557</ele>
        <time>2013-04-27T11:55:21Z</time>
      </trkpt>
      <trkpt lat="59.9167856" lon="17.5685943">
        <ele>14.557</ele>
        <time>2013-04-27T11:55:22Z</time>
      </trkpt>
      <trkpt lat="59.9167438" lon="17.5687052">
        <ele>15.0377</ele>
        <time>2013-04-27T11:55:23Z</time>
      </trkpt>
      <trkpt lat="59.9167022" lon="17.5688185">
        <ele>15.0377</ele>
        <time>2013-04-27T11:55:24Z</time>
      </trkpt>
      <trkpt lat="59.9166604" lon="17.5689369">
        <ele>15.0377</ele>
        <time>2013-04-27T11:55:25Z</time>
      </trkpt>
      <trkpt lat="59.916619" lon="17.569055">
        <ele>15.0377</ele>
        <time>2013-04-27T11:55:26Z</time>
      </trkpt>
      <trkpt lat="59.9165789" lon="17.5691707">
        <ele>15.5184</ele>
        <time>2013-04-27T11:55:27Z</time>
      </trkpt>
      <trkpt lat="59.9165403" lon="17.5692848">
        <ele>15.5184</ele>
        <time>2013-04-27T11:55:28Z</time>
      </trkpt>
      <trkpt lat="59.9165029" lon="17.5693967">
        <ele>15.5184</ele>
        <time>2013-04-27T11:55:29Z</time>
      </trkpt>
      <trkpt lat="59.9164668" lon="17.5695056">
        <ele>15.999</ele>
        <time>2013-04-27T11:55:30Z</time>
      </trkpt>
      <trkpt lat="59.9164318" lon="17.5696092">
        <ele>15.999</ele>
        <time>2013-04-27T11:55:31Z</time>
      </trkpt>
      <trkpt lat="59.9163947" lon="17.5697046">
        <ele>15.999</ele>
        <time>2013-04-27T11:55:32Z</time>
      </trkpt>
      <trkpt lat="59.9163516" lon="17.5697812">
        <ele>16.4797</ele>
        <time>2013-04-27T11:55:33Z</time>
      </trkpt>
      <trkpt lat="59.9163043" lon="17.5698386">
        <ele>16.4797</ele>
        <time>2013-04-27T11:55:34Z</time>
      </trkpt>
      <trkpt lat="59.9162624" lon="17.5698996">
        <ele>16.9604</ele>
        <time>2013-04-27T11:55:35Z</time>
      </trkpt>
      <trkpt lat="59.9162252" lon="17.5699733">
        <ele>17.4412</ele>
        <time>2013-04-27T11:55:36Z</time>
      </trkpt>
      <trkpt lat="59.9161909" lon="17.5700548">
        <ele>17.4412</ele>
        <time>2013-04-27T11:55:37Z</time>
      </trkpt>
      <trkpt lat="59.9161598" lon="17.5701392">
        <ele>17.9218</ele>
        <time>2013-04-27T11:55:38Z</time>
      </trkpt>
      <trkpt lat="59.9161308" lon="17.5702221">
        <ele>17.9218</ele>
        <time>2013-04-27T11:55:39Z</time>
      </trkpt>
      <trkpt lat="59.9161024" lon="17.5703064">
        <ele>18.4023</ele>
        <time>2013-04-27T11:55:40Z</time>
      </trkpt>
      <trkpt lat="59.916074" lon="17.5703925">
        <ele>18.4023</ele>
        <time>2013-04-27T11:55:41Z</time>
      </trkpt>
      <trkpt lat="59.9160487" lon="17.5704774">
        <ele>18.8831</ele>
        <time>2013-04-27T11:55:42Z</time>
      </trkpt>
      <trkpt lat="59.9160227" lon="17.5705581">
        <ele>18.8831</ele>
        <time>2013-04-27T11:55:43Z</time>
      </trkpt>
      <trkpt lat="59.9159941" lon="17.5706385">
        <ele>18.8831</ele>
        <time>2013-04-27T11:55:44Z</time>
      </trkpt>
      <trkpt lat="59.9159668" lon="17.5707218">
        <ele>19.3638</ele>
        <time>2013-04-27T11:55:45Z</time>
      </trkpt>
      <trkpt lat="59.9159402" lon="17.5708078">
        <ele>19.3638</ele>
        <time>2013-04-27T11:55:46Z</time>
      </trkpt>
      <trkpt lat="59.915914" lon="17.5708993">
        <ele>19.3638</ele>
        <time>2013-04-27T11:55:47Z</time>
      </trkpt>
      <trkpt lat="59.9158871" lon="17.5709965">
        <ele>19.3638</ele>
        <time>2013-04-27T11:55:48Z</time>
      </trkpt>
      <trkpt lat="59.9158637" lon="17.5710983">
        <ele>19.3638</ele>
        <time>2013-04-27T11:55:49Z</time>
      </trkpt>
      <trkpt lat="59.9158424" lon="17.5712062">
        <ele>19.3638</ele>
        <time>2013-04-27T11:55:50Z</time>
      </trkpt>
      <trkpt lat="59.9158234" lon="17.5713212">
        <ele>19.3638</ele>
        <time>2013-04-27T11:55:51Z</time>
      </trkpt>
      <trkpt lat="59.9158075" lon="17.5714419">
        <ele>19.3638</ele>
        <time>2013-04-27T11:55:52Z</time>
      </trkpt>
      <trkpt lat="59.9157977" lon="17.5715652">
        <ele>19.3638</ele>
        <time>2013-04-27T11:55:53Z</time>
      </trkpt>
      <trkpt lat="59.9157923" lon="17.5716899">
        <ele>19.3638</ele>
        <time>2013-04-27T11:55:54Z</time>
      </trkpt>
      <trkpt lat="59.915785" lon="17.5718164">
        <ele>19.3638</ele>
        <time>2013-04-27T11:55:55Z</time>
      </trkpt>
      <trkpt lat="59.9157746" lon="17.5719459">
        <ele>19.3638</ele>
        <time>2013-04-27T11:55:56Z</time>
      </trkpt>
      <trkpt lat="59.9157763" lon="17.5721161">
        <ele>18.8831</ele>
        <time>2013-04-27T11:55:57Z</time>
      </trkpt>
      <trkpt lat="59.9157695" lon="17.5722743">
        <ele>18.8831</ele>
        <time>2013-04-27T11:55:58Z</time>
      </trkpt>
      <trkpt lat="59.9157514" lon="17.5724261">
        <ele>18.4023</ele>
        <time>2013-04-27T11:55:59Z</time>
      </trkpt>
      <trkpt lat="59.9157263" lon="17.5725696">
        <ele>18.8831</ele>
        <time>2013-04-27T11:56:00Z</time>
      </trkpt>
      <trkpt lat="59.9156947" lon="17.5727041">
        <ele>18.8831</ele>
        <time>2013-04-27T11:56:01Z</time>
      </trkpt>
      <trkpt lat="59.9156591" lon="17.5728294">
        <ele>18.8831</ele>
        <time>2013-04-27T11:56:02Z</time>
      </trkpt>
      <trkpt lat="59.9156232" lon="17.5729509">
        <ele>18.4023</ele>
        <time>2013-04-27T11:56:03Z</time>
      </trkpt>
      <trkpt lat="59.9155882" lon="17.5730704">
        <ele>18.4023</ele>
        <time>2013-04-27T11:56:04Z</time>
      </trkpt>
      <trkpt lat="59.9155522" lon="17.5731871">
        <ele>18.8831</ele>
        <time>2013-04-27T11:56:05Z</time>
      </trkpt>
      <trkpt lat="59.9155113" lon="17.5732937">
        <ele>18.4023</ele>
        <time>2013-04-27T11:56:06Z</time>
      </trkpt>
      <trkpt lat="59.9154682" lon="17.5733949">
        <ele>18.4023</ele>
        <time>2013-04-27T11:56:07Z</time>
      </trkpt>
      <trkpt lat="59.9154225" lon="17.5734881">
        <ele>18.4023</ele>
        <time>2013-04-27T11:56:08Z</time>
      </trkpt>
      <trkpt lat="59.9153717" lon="17.5735751">
        <ele>18.4023</ele>
        <time>2013-04-27T11:56:09Z</time>
      </trkpt>
      <trkpt lat="59.915316" lon="17.5736471">
        <ele>17.9218</ele>
        <time>2013-04-27T11:56:10Z</time>
      </trkpt>
      <trkpt lat="59.915257" lon="17.5736959">
        <ele>17.9218</ele>
        <time>2013-04-27T11:56:11Z</time>
      </trkpt>
      <trkpt lat="59.9151898" lon="17.5737264">
        <ele>17.9218</ele>
        <time>2013-04-27T11:56:12Z</time>
      </trkpt>
      <trkpt lat="59.9151174" lon="17.5737434">
        <ele>17.4412</ele>
        <time>2013-04-27T11:56:13Z</time>
      </trkpt>
      <trkpt lat="59.9150441" lon="17.5737485">
        <ele>17.4412</ele>
        <time>2013-04-27T11:56:14Z</time>
      </trkpt>
      <trkpt lat="59.9149684" lon="17.5737387">
        <ele>16.9604</ele>
        <time>2013-04-27T11:56:15Z</time>
      </trkpt>
      <trkpt lat="59.9148863" lon="17.5737278">
        <ele>16.9604</ele>
        <time>2013-04-27T11:56:16Z</time>
      </trkpt>
      <trkpt lat="59.9148033" lon="17.5737081">
        <ele>16.9604</ele>
        <time>2013-04-27T11:56:17Z</time>
      </trkpt>
      <trkpt lat="59.9147143" lon="17.5736931">
        <ele>16.9604</ele>
        <time>2013-04-27T11:56:18Z</time>
      </trkpt>
      <trkpt lat="59.9146223" lon="17.5736793">
        <ele>16.4797</ele>
        <time>2013-04-27T11:56:19Z</time>
      </trkpt>
      <trkpt lat="59.9145272" lon="17.5736658">
        <ele>16.4797</ele>
        <time>2013-04-27T11:56:20Z</time>
      </trkpt>
      <trkpt lat="59.9144283" lon="17.57365">
        <ele>15.999</ele>
        <time>2013-04-27T11:56:21Z</time>
      </trkpt>
      <trkpt lat="59.9143297" lon="17.5736318">
        <ele>15.999</ele>
        <time>2013-04-27T11:56:22Z</time>
      </trkpt>
      <trkpt lat="59.9142329" lon="17.5736128">
        <ele>15.999</ele>
        <time>2013-04-27T11:56:23Z</time>
      </trkpt>
      <trkpt lat="59.914139" lon="17.573602">
        <ele>15.999</ele>
        <time>2013-04-27T11:56:24Z</time>
      </trkpt>
      <trkpt lat="59.9140485" lon="17.5735927">
        <ele>15.999</ele>
        <time>2013-04-27T11:56:25Z</time>
      </trkpt>
      <trkpt lat="59.9139616" lon="17.5735818">
        <ele>15.999</ele>
        <time>2013-04-27T11:56:26Z</time>
      </trkpt>
      <trkpt lat="59.9138805" lon="17.5735831">
        <ele>15.999</ele>
        <time>2013-04-27T11:56:27Z</time>
      </trkpt>
      <trkpt lat="59.9138087" lon="17.573587">
        <ele>15.999</ele>
        <time>2013-04-27T11:56:28Z</time>
      </trkpt>
      <trkpt lat="59.9137453" lon="17.5735874">
        <ele>15.999</ele>
        <time>2013-04-27T11:56:29Z</time>
      </trkpt>
      <trkpt lat="59.9136918" lon="17.5735849">
        <ele>15.999</ele>
        <time>2013-04-27T11:56:30Z</time>
      </trkpt>
      <trkpt lat="59.9136464" lon="17.5735844">
        <ele>15.999</ele>
        <time>2013-04-27T11:56:31Z</time>
      </trkpt>
      <trkpt lat="59.9136074" lon="17.5735884">
        <ele>15.5184</ele>
        <time>2013-04-27T11:56:32Z</time>
      </trkpt>
      <trkpt lat="59.913578" lon="17.5735945">
        <ele>15.5184</ele>
        <time>2013-04-27T11:56:33Z</time>
      </trkpt>
      <trkpt lat="59.9135539" lon="17.573602">
        <ele>15.5184</ele>
        <time>2013-04-27T11:56:34Z</time>
      </trkpt>
      <trkpt lat="59.9135398" lon="17.5736082">
        <ele>15.5184</ele>
        <time>2013-04-27T11:56:35Z</time>
      </trkpt>
      <trkpt lat="59.9135345" lon="17.5736118">
        <ele>15.0377</ele>
        <time>2013-04-27T11:56:36Z</time>
      </trkpt>
      <trkpt lat="59.9135322" lon="17.5736117">
        <ele>15.0377</ele>
        <time>2013-04-27T11:56:37Z</time>
      </trkpt>
      <trkpt lat="59.9135327" lon="17.5736123">
        <ele>15.0377</ele>
        <time>2013-04-27T11:56:38Z</time>
      </trkpt>
      <trkpt lat="59.913381" lon="17.5752693">
        <ele>16.4797</ele>
        <time>2013-04-27T12:29:47Z</time>
      </trkpt>
      <trkpt lat="59.9133803" lon="17.5752745">
        <ele>16.4797</ele>
        <time>2013-04-27T12:29:48Z</time>
      </trkpt>
      <trkpt lat="59.9133798" lon="17.5752793">
        <ele>16.4797</ele>
        <time>2013-04-27T12:29:49Z</time>
      </trkpt>
      <trkpt lat="59.9133783" lon="17.5752923">
        <ele>16.4797</ele>
        <time>2013-04-27T12:29:50Z</time>
      </trkpt>
      <trkpt lat="59.9133735" lon="17.5753175">
        <ele>16.4797</ele>
        <time>2013-04-27T12:29:51Z</time>
      </trkpt>
      <trkpt lat="59.9133694" lon="17.5753464">
        <ele>15.999</ele>
        <time>2013-04-27T12:29:52Z</time>
      </trkpt>
      <trkpt lat="59.9133669" lon="17.575372">
        <ele>16.4797</ele>
        <time>2013-04-27T12:29:53Z</time>
      </trkpt>
      <trkpt lat="59.9133586" lon="17.5754068">
        <ele>16.4797</ele>
        <time>2013-04-27T12:29:54Z</time>
      </trkpt>
      <trkpt lat="59.9133471" lon="17.5754495">
        <ele>16.4797</ele>
        <time>2013-04-27T12:29:55Z</time>
      </trkpt>
      <trkpt lat="59.9133301" lon="17.5754959">
        <ele>16.4797</ele>
        <time>2013-04-27T12:29:56Z</time>
      </trkpt>
      <trkpt lat="59.9133135" lon="17.5755445">
        <ele>16.4797</ele>
        <time>2013-04-27T12:29:57Z</time>
      </trkpt>
      <trkpt lat="59.9133014" lon="17.5755932">
        <ele>16.4797</ele>
        <time>2013-04-27T12:29:58Z</time>
      </trkpt>
      <trkpt lat="59.9132949" lon="17.5756445">
        <ele>16.9604</ele>
        <time>2013-04-27T12:29:59Z</time>
      </trkpt>
      <trkpt lat="59.9132945" lon="17.5756984">
        <ele>17.4412</ele>
        <time>2013-04-27T12:30:00Z</time>
      </trkpt>
      <trkpt lat="59.9132959" lon="17.5757617">
        <ele>17.9218</ele>
        <time>2013-04-27T12:30:01Z</time>
      </trkpt>
      <trkpt lat="59.9133016" lon="17.5758238">
        <ele>17.9218</ele>
        <time>2013-04-27T12:30:02Z</time>
      </trkpt>
      <trkpt lat="59.9133141" lon="17.5758914">
        <ele>17.9218</ele>
        <time>2013-04-27T12:30:03Z</time>
      </trkpt>
      <trkpt lat="59.9133286" lon="17.5759626">
        <ele>17.9218</ele>
        <time>2013-04-27T12:30:04Z</time>
      </trkpt>
      <trkpt lat="59.9133455" lon="17.5760345">
        <ele>17.9218</ele>
        <time>2013-04-27T12:30:05Z</time>
      </trkpt>
      <trkpt lat="59.9133659" lon="17.5761086">
        <ele>17.9218</ele>
        <time>2013-04-27T12:30:06Z</time>
      </trkpt>
      <trkpt lat="59.9133892" lon="17.5761833">
        <ele>17.9218</ele>
        <time>2013-04-27T12:30:07Z</time>
      </trkpt>
      <trkpt lat="59.9134146" lon="17.5762592">
        <ele>17.9218</ele>
        <time>2013-04-27T12:30:08Z</time>
      </trkpt>
      <trkpt lat="59.9134429" lon="17.5763429">
        <ele>17.9218</ele>
        <time>2013-04-27T12:30:09Z</time>
      </trkpt>
      <trkpt lat="59.9134751" lon="17.5764272">
        <ele>17.9218</ele>
        <time>2013-04-27T12:30:10Z</time>
      </trkpt>
      <trkpt lat="59.9135102" lon="17.5765166">
        <ele>17.9218</ele>
        <time>2013-04-27T12:30:11Z</time>
      </trkpt>
      <trkpt lat="59.913543" lon="17.5766151">
        <ele>17.4412</ele>
        <time>2013-04-27T12:30:12Z</time>
      </trkpt>
      <trkpt lat="59.9135699" lon="17.5767251">
        <ele>17.4412</ele>
        <time>2013-04-27T12:30:13Z</time>
      </trkpt>
      <trkpt lat="59.913592" lon="17.5768401">
        <ele>16.9604</ele>
        <time>2013-04-27T12:30:14Z</time>
      </trkpt>
      <trkpt lat="59.9136128" lon="17.5769571">
        <ele>16.9604</ele>
        <time>2013-04-27T12:30:15Z</time>
      </trkpt>
      <trkpt lat="59.9136268" lon="17.5770798">
        <ele>16.9604</ele>
        <time>2013-04-27T12:30:16Z</time>
      </trkpt>
      <trkpt lat="59.9136352" lon="17.5772042">
        <ele>16.9604</ele>
        <time>2013-04-27T12:30:17Z</time>
      </trkpt>
      <trkpt lat="59.9136415" lon="17.5773276">
        <ele>17.4412</ele>
        <time>2013-04-27T12:30:18Z</time>
      </trkpt>
      <trkpt lat="59.9136435" lon="17.577448">
        <ele>17.9218</ele>
        <time>2013-04-27T12:30:19Z</time>
      </trkpt>
      <trkpt lat="59.9136399" lon="17.5775663">
        <ele>17.9218</ele>
        <time>2013-04-27T12:30:20Z</time>
      </trkpt>
      <trkpt lat="59.9136325" lon="17.5776832">
        <ele>18.4023</ele>
        <time>2013-04-27T12:30:21Z</time>
      </trkpt>
      <trkpt lat="59.9136232" lon="17.5777959">
        <ele>18.8831</ele>
        <time>2013-04-27T12:30:22Z</time>
      </trkpt>
      <trkpt lat="59.913606" lon="17.5778958">
        <ele>18.8831</ele>
        <time>2013-04-27T12:30:23Z</time>
      </trkpt>
      <trkpt lat="59.9135863" lon="17.5779885">
        <ele>18.8831</ele>
        <time>2013-04-27T12:30:24Z</time>
      </trkpt>
      <trkpt lat="59.9135662" lon="17.5780766">
        <ele>19.3638</ele>
        <time>2013-04-27T12:30:25Z</time>
      </trkpt>
      <trkpt lat="59.9135434" lon="17.5781598">
        <ele>19.8444</ele>
        <time>2013-04-27T12:30:26Z</time>
      </trkpt>
      <trkpt lat="59.9135228" lon="17.5782435">
        <ele>19.8444</ele>
        <time>2013-04-27T12:30:27Z</time>
      </trkpt>
      <trkpt lat="59.9135005" lon="17.5783188">
        <ele>20.325</ele>
        <time>2013-04-27T12:30:28Z</time>
      </trkpt>
      <trkpt lat="59.9134775" lon="17.5783841">
        <ele>20.325</ele>
        <time>2013-04-27T12:30:29Z</time>
      </trkpt>
      <trkpt lat="59.913455" lon="17.5784382">
        <ele>20.8057</ele>
        <time>2013-04-27T12:30:30Z</time>
      </trkpt>
      <trkpt lat="59.9134311" lon="17.5784859">
        <ele>21.2864</ele>
        <time>2013-04-27T12:30:31Z</time>
      </trkpt>
      <trkpt lat="59.9134053" lon="17.5785298">
        <ele>21.767</ele>
        <time>2013-04-27T12:30:32Z</time>
      </trkpt>
      <trkpt lat="59.9133804" lon="17.5785775">
        <ele>22.2476</ele>
        <time>2013-04-27T12:30:33Z</time>
      </trkpt>
      <trkpt lat="59.9133558" lon="17.5786282">
        <ele>22.7283</ele>
        <time>2013-04-27T12:30:34Z</time>
      </trkpt>
      <trkpt lat="59.9133295" lon="17.5786757">
        <ele>23.209</ele>
        <time>2013-04-27T12:30:35Z</time>
      </trkpt>
      <trkpt lat="59.9133025" lon="17.5787229">
        <ele>23.6896</ele>
        <time>2013-04-27T12:30:36Z</time>
      </trkpt>
      <trkpt lat="59.9132748" lon="17.5787763">
        <ele>23.6896</ele>
        <time>2013-04-27T12:30:37Z</time>
      </trkpt>
      <trkpt lat="59.9132462" lon="17.5788244">
        <ele>24.1703</ele>
        <time>2013-04-27T12:30:38Z</time>
      </trkpt>
      <trkpt lat="59.9132151" lon="17.5788717">
        <ele>24.1703</ele>
        <time>2013-04-27T12:30:39Z</time>
      </trkpt>
      <trkpt lat="59.9131823" lon="17.5789178">
        <ele>24.1703</ele>
        <time>2013-04-27T12:30:40Z</time>
      </trkpt>
      <trkpt lat="59.913147" lon="17.5789613">
        <ele>24.1703</ele>
        <time>2013-04-27T12:30:41Z</time>
      </trkpt>
      <trkpt lat="59.9131101" lon="17.5790125">
        <ele>24.1703</ele>
        <time>2013-04-27T12:30:42Z</time>
      </trkpt>
      <trkpt lat="59.913074" lon="17.5790684">
        <ele>24.1703</ele>
        <time>2013-04-27T12:30:43Z</time>
      </trkpt>
      <trkpt lat="59.9130389" lon="17.5791209">
        <ele>24.1703</ele>
        <time>2013-04-27T12:30:44Z</time>
      </trkpt>
      <trkpt lat="59.9130061" lon="17.5791797">
        <ele>24.1703</ele>
        <time>2013-04-27T12:30:45Z</time>
      </trkpt>
      <trkpt lat="59.9129742" lon="17.5792445">
        <ele>24.1703</ele>
        <time>2013-04-27T12:30:46Z</time>
      </trkpt>
      <trkpt lat="59.9129422" lon="17.5793103">
        <ele>24.1703</ele>
        <time>2013-04-27T12:30:47Z</time>
      </trkpt>
      <trkpt lat="59.912909" lon="17.5793757">
        <ele>24.1703</ele>
        <time>2013-04-27T12:30:48Z</time>
      </trkpt>
      <trkpt lat="59.9128716" lon="17.5794419">
        <ele>24.1703</ele>
        <time>2013-04-27T12:30:49Z</time>
      </trkpt>
      <trkpt lat="59.9128313" lon="17.5795103">
        <ele>24.1703</ele>
        <time>2013-04-27T12:30:50Z</time>
      </trkpt>
      <trkpt lat="59.9127915" lon="17.5795876">
        <ele>24.651</ele>
        <time>2013-04-27T12:30:51Z</time>
      </trkpt>
      <trkpt lat="59.912752" lon="17.5796705">
        <ele>24.1703</ele>
        <time>2013-04-27T12:30:52Z</time>
      </trkpt>
      <trkpt lat="59.9127114" lon="17.5797564">
        <ele>23.209</ele>
        <time>2013-04-27T12:30:53Z</time>
      </trkpt>
      <trkpt lat="59.9126758" lon="17.5798446">
        <ele>23.209</ele>
        <time>2013-04-27T12:30:54Z</time>
      </trkpt>
      <trkpt lat="59.9126415" lon="17.5799388">
        <ele>23.6896</ele>
        <time>2013-04-27T12:30:55Z</time>
      </trkpt>
      <trkpt lat="59.9126085" lon="17.5800332">
        <ele>23.6896</ele>
        <time>2013-04-27T12:30:56Z</time>
      </trkpt>
      <trkpt lat="59.9125755" lon="17.5801266">
        <ele>24.1703</ele>
        <time>2013-04-27T12:30:57Z</time>
      </trkpt>
      <trkpt lat="59.9125431" lon="17.5802202">
        <ele>24.1703</ele>
        <time>2013-04-27T12:30:58Z</time>
      </trkpt>
      <trkpt lat="59.9125096" lon="17.5803124">
        <ele>24.1703</ele>
        <time>2013-04-27T12:30:59Z</time>
      </trkpt>
      <trkpt lat="59.9124749" lon="17.5804101">
        <ele>24.651</ele>
        <time>2013-04-27T12:31:00Z</time>
      </trkpt>
      <trkpt lat="59.9124386" lon="17.5805097">
        <ele>25.1317</ele>
        <time>2013-04-27T12:31:01Z</time>
      </trkpt>
      <trkpt lat="59.9124017" lon="17.5806095">
        <ele>25.1317</ele>
        <time>2013-04-27T12:31:02Z</time>
      </trkpt>
      <trkpt lat="59.9123644" lon="17.5807112">
        <ele>25.1317</ele>
        <time>2013-04-27T12:31:03Z</time>
      </trkpt>
      <trkpt lat="59.9123278" lon="17.5808157">
        <ele>25.6123</ele>
        <time>2013-04-27T12:31:04Z</time>
      </trkpt>
      <trkpt lat="59.9122923" lon="17.5809194">
        <ele>25.6123</ele>
        <time>2013-04-27T12:31:05Z</time>
      </trkpt>
      <trkpt lat="59.9122571" lon="17.5810197">
        <ele>25.6123</ele>
        <time>2013-04-27T12:31:06Z</time>
      </trkpt>
      <trkpt lat="59.9122224" lon="17.5811158">
        <ele>26.0929</ele>
        <time>2013-04-27T12:31:07Z</time>
      </trkpt>
      <trkpt lat="59.9121889" lon="17.5812105">
        <ele>26.0929</ele>
        <time>2013-04-27T12:31:08Z</time>
      </trkpt>
      <trkpt lat="59.9121562" lon="17.5813056">
        <ele>26.0929</ele>
        <time>2013-04-27T12:31:09Z</time>
      </trkpt>
      <trkpt lat="59.9121231" lon="17.5814011">
        <ele>26.5736</ele>
        <time>2013-04-27T12:31:10Z</time>
      </trkpt>
      <trkpt lat="59.9120893" lon="17.5814961">
        <ele>26.5736</ele>
        <time>2013-04-27T12:31:11Z</time>
      </trkpt>
      <trkpt lat="59.9120558" lon="17.5815912">
        <ele>26.5736</ele>
        <time>2013-04-27T12:31:12Z</time>
      </trkpt>
      <trkpt lat="59.9120241" lon="17.5816855">
        <ele>26.5736</ele>
        <time>2013-04-27T12:31:13Z</time>
      </trkpt>
      <trkpt lat="59.9119943" lon="17.5817802">
        <ele>27.0543</ele>
        <time>2013-04-27T12:31:14Z</time>
      </trkpt>
      <trkpt lat="59.9119639" lon="17.5818771">
        <ele>27.0543</ele>
        <time>2013-04-27T12:31:15Z</time>
      </trkpt>
      <trkpt lat="59.9119325" lon="17.581977">
        <ele>27.0543</ele>
        <time>2013-04-27T12:31:16Z</time>
      </trkpt>
      <trkpt lat="59.9118998" lon="17.5820787">
        <ele>27.5349</ele>
        <time>2013-04-27T12:31:17Z</time>
      </trkpt>
      <trkpt lat="59.9118665" lon="17.5821776">
        <ele>27.5349</ele>
        <time>2013-04-27T12:31:18Z</time>
      </trkpt>
      <trkpt lat="59.9118345" lon="17.5822712">
        <ele>27.5349</ele>
        <time>2013-04-27T12:31:19Z</time>
      </trkpt>
      <trkpt lat="59.911804" lon="17.5823641">
        <ele>27.5349</ele>
        <time>2013-04-27T12:31:20Z</time>
      </trkpt>
      <trkpt lat="59.9117756" lon="17.58246">
        <ele>27.5349</ele>
        <time>2013-04-27T12:31:21Z</time>
      </trkpt>
      <trkpt lat="59.9117467" lon="17.5825563">
        <ele>28.0155</ele>
        <time>2013-04-27T12:31:22Z</time>
      </trkpt>
      <trkpt lat="59.9117175" lon="17.5826486">
        <ele>28.0155</ele>
        <time>2013-04-27T12:31:23Z</time>
      </trkpt>
      <trkpt lat="59.9116902" lon="17.5827381">
        <ele>28.0155</ele>
        <time>2013-04-27T12:31:24Z</time>
      </trkpt>
      <trkpt lat="59.9116624" lon="17.5828281">
        <ele>28.0155</ele>
        <time>2013-04-27T12:31:25Z</time>
      </trkpt>
      <trkpt lat="59.9116346" lon="17.5829189">
        <ele>28.4962</ele>
        <time>2013-04-27T12:31:26Z</time>
      </trkpt>
      <trkpt lat="59.9116076" lon="17.5830097">
        <ele>28.4962</ele>
        <time>2013-04-27T12:31:27Z</time>
      </trkpt>
      <trkpt lat="59.9115817" lon="17.5830987">
        <ele>28.4962</ele>
        <time>2013-04-27T12:31:28Z</time>
      </trkpt>
      <trkpt lat="59.911557" lon="17.5831851">
        <ele>28.9769</ele>
        <time>2013-04-27T12:31:29Z</time>
      </trkpt>
      <trkpt lat="59.9115325" lon="17.5832696">
        <ele>28.9769</ele>
        <time>2013-04-27T12:31:30Z</time>
      </trkpt>
      <trkpt lat="59.9115075" lon="17.5833572">
        <ele>28.9769</ele>
        <time>2013-04-27T12:31:31Z</time>
      </trkpt>
      <trkpt lat="59.9114807" lon="17.5834492">
        <ele>29.4575</ele>
        <time>2013-04-27T12:31:32Z</time>
      </trkpt>
      <trkpt lat="59.9114521" lon="17.583544">
        <ele>29.4575</ele>
        <time>2013-04-27T12:31:33Z</time>
      </trkpt>
      <trkpt lat="59.9114243" lon="17.5836399">
        <ele>29.4575</ele>
        <time>2013-04-27T12:31:34Z</time>
      </trkpt>
      <trkpt lat="59.9113978" lon="17.5837363">
        <ele>29.4575</ele>
        <time>2013-04-27T12:31:35Z</time>
      </trkpt>
      <trkpt lat="59.9113701" lon="17.5838341">
        <ele>29.9381</ele>
        <time>2013-04-27T12:31:36Z</time>
      </trkpt>
      <trkpt lat="59.9113378" lon="17.5839301">
        <ele>29.9381</ele>
        <time>2013-04-27T12:31:37Z</time>
      </trkpt>
      <trkpt lat="59.9113021" lon="17.5840269">
        <ele>29.9381</ele>
        <time>2013-04-27T12:31:38Z</time>
      </trkpt>
      <trkpt lat="59.9112669" lon="17.5841283">
        <ele>29.9381</ele>
        <time>2013-04-27T12:31:39Z</time>
      </trkpt>
      <trkpt lat="59.9112307" lon="17.5842305">
        <ele>29.9381</ele>
        <time>2013-04-27T12:31:40Z</time>
      </trkpt>
      <trkpt lat="59.9111976" lon="17.5843337">
        <ele>29.9381</ele>
        <time>2013-04-27T12:31:41Z</time>
      </trkpt>
      <trkpt lat="59.9111657" lon="17.5844392">
        <ele>29.9381</ele>
        <time>2013-04-27T12:31:42Z</time>
      </trkpt>
      <trkpt lat="59.911132" lon="17.5845477">
        <ele>29.9381</ele>
        <time>2013-04-27T12:31:43Z</time>
      </trkpt>
      <trkpt lat="59.9110993" lon="17.5846579">
        <ele>29.9381</ele>
        <time>2013-04-27T12:31:44Z</time>
      </trkpt>
      <trkpt lat="59.9110684" lon="17.5847676">
        <ele>29.9381</ele>
        <time>2013-04-27T12:31:45Z</time>
      </trkpt>
      <trkpt lat="59.91104" lon="17.584877">
        <ele>29.9381</ele>
        <time>2013-04-27T12:31:46Z</time>
      </trkpt>
      <trkpt lat="59.9110151" lon="17.5849837">
        <ele>29.9381</ele>
        <time>2013-04-27T12:31:47Z</time>
      </trkpt>
      <trkpt lat="59.9109919" lon="17.5850878">
        <ele>29.9381</ele>
        <time>2013-04-27T12:31:48Z</time>
      </trkpt>
      <trkpt lat="59.9109691" lon="17.5851898">
        <ele>29.4575</ele>
        <time>2013-04-27T12:31:49Z</time>
      </trkpt>
      <trkpt lat="59.9109468" lon="17.5852953">
        <ele>29.4575</ele>
        <time>2013-04-27T12:31:50Z</time>
      </trkpt>
      <trkpt lat="59.9109255" lon="17.5854039">
        <ele>29.4575</ele>
        <time>2013-04-27T12:31:51Z</time>
      </trkpt>
      <trkpt lat="59.9109032" lon="17.585515">
        <ele>29.4575</ele>
        <time>2013-04-27T12:31:52Z</time>
      </trkpt>
      <trkpt lat="59.910882" lon="17.5856281">
        <ele>29.4575</ele>
        <time>2013-04-27T12:31:53Z</time>
      </trkpt>
      <trkpt lat="59.9108619" lon="17.5857414">
        <ele>29.4575</ele>
        <time>2013-04-27T12:31:54Z</time>
      </trkpt>
      <trkpt lat="59.9108435" lon="17.5858529">
        <ele>29.4575</ele>
        <time>2013-04-27T12:31:55Z</time>
      </trkpt>
      <trkpt lat="59.9108253" lon="17.5859622">
        <ele>29.4575</ele>
        <time>2013-04-27T12:31:56Z</time>
      </trkpt>
      <trkpt lat="59.9108053" lon="17.5860715">
        <ele>29.4575</ele>
        <time>2013-04-27T12:31:57Z</time>
      </trkpt>
      <trkpt lat="59.9107836" lon="17.5861818">
        <ele>29.4575</ele>
        <time>2013-04-27T12:31:58Z</time>
      </trkpt>
      <trkpt lat="59.9107622" lon="17.5862908">
        <ele>29.4575</ele>
        <time>2013-04-27T12:31:59Z</time>
      </trkpt>
      <trkpt lat="59.9107411" lon="17.5863987">
        <ele>29.4575</ele>
        <time>2013-04-27T12:32:00Z</time>
      </trkpt>
      <trkpt lat="59.9107196" lon="17.5865051">
        <ele>29.4575</ele>
        <time>2013-04-27T12:32:01Z</time>
      </trkpt>
      <trkpt lat="59.9106977" lon="17.5866101">
        <ele>28.9769</ele>
        <time>2013-04-27T12:32:02Z</time>
      </trkpt>
      <trkpt lat="59.9106767" lon="17.586714">
        <ele>29.4575</ele>
        <time>2013-04-27T12:32:03Z</time>
      </trkpt>
      <trkpt lat="59.9106559" lon="17.5868169">
        <ele>28.9769</ele>
        <time>2013-04-27T12:32:04Z</time>
      </trkpt>
      <trkpt lat="59.9106337" lon="17.5869189">
        <ele>28.9769</ele>
        <time>2013-04-27T12:32:05Z</time>
      </trkpt>
      <trkpt lat="59.910609" lon="17.5870204">
        <ele>29.4575</ele>
        <time>2013-04-27T12:32:06Z</time>
      </trkpt>
      <trkpt lat="59.9105832" lon="17.587123">
        <ele>29.4575</ele>
        <time>2013-04-27T12:32:07Z</time>
      </trkpt>
      <trkpt lat="59.9105561" lon="17.5872277">
        <ele>29.4575</ele>
        <time>2013-04-27T12:32:08Z</time>
      </trkpt>
      <trkpt lat="59.9105275" lon="17.5873327">
        <ele>29.4575</ele>
        <time>2013-04-27T12:32:09Z</time>
      </trkpt>
      <trkpt lat="59.9104971" lon="17.5874371">
        <ele>29.4575</ele>
        <time>2013-04-27T12:32:10Z</time>
      </trkpt>
      <trkpt lat="59.910466" lon="17.5875389">
        <ele>29.4575</ele>
        <time>2013-04-27T12:32:11Z</time>
      </trkpt>
      <trkpt lat="59.9104343" lon="17.587637">
        <ele>29.4575</ele>
        <time>2013-04-27T12:32:12Z</time>
      </trkpt>
      <trkpt lat="59.9104019" lon="17.5877363">
        <ele>29.4575</ele>
        <time>2013-04-27T12:32:13Z</time>
      </trkpt>
      <trkpt lat="59.9103684" lon="17.5878334">
        <ele>29.4575</ele>
        <time>2013-04-27T12:32:14Z</time>
      </trkpt>
      <trkpt lat="59.9103345" lon="17.5879263">
        <ele>29.4575</ele>
        <time>2013-04-27T12:32:15Z</time>
      </trkpt>
      <trkpt lat="59.9103018" lon="17.5880178">
        <ele>28.9769</ele>
        <time>2013-04-27T12:32:16Z</time>
      </trkpt>
      <trkpt lat="59.9102682" lon="17.5881068">
        <ele>28.9769</ele>
        <time>2013-04-27T12:32:17Z</time>
      </trkpt>
      <trkpt lat="59.910234" lon="17.5881939">
        <ele>28.9769</ele>
        <time>2013-04-27T12:32:18Z</time>
      </trkpt>
      <trkpt lat="59.9102012" lon="17.5882835">
        <ele>28.4962</ele>
        <time>2013-04-27T12:32:19Z</time>
      </trkpt>
      <trkpt lat="59.910167" lon="17.5883756">
        <ele>28.4962</ele>
        <time>2013-04-27T12:32:20Z</time>
      </trkpt>
      <trkpt lat="59.9101315" lon="17.5884671">
        <ele>28.4962</ele>
        <time>2013-04-27T12:32:21Z</time>
      </trkpt>
      <trkpt lat="59.9100975" lon="17.588558">
        <ele>28.4962</ele>
        <time>2013-04-27T12:32:22Z</time>
      </trkpt>
      <trkpt lat="59.910065" lon="17.5886476">
        <ele>28.4962</ele>
        <time>2013-04-27T12:32:23Z</time>
      </trkpt>
      <trkpt lat="59.9100315" lon="17.5887339">
        <ele>28.4962</ele>
        <time>2013-04-27T12:32:24Z</time>
      </trkpt>
      <trkpt lat="59.9099979" lon="17.5888205">
        <ele>28.4962</ele>
        <time>2013-04-27T12:32:25Z</time>
      </trkpt>
      <trkpt lat="59.9099646" lon="17.5889106">
        <ele>28.4962</ele>
        <time>2013-04-27T12:32:26Z</time>
      </trkpt>
      <trkpt lat="59.9099308" lon="17.5890038">
        <ele>28.4962</ele>
        <time>2013-04-27T12:32:27Z</time>
      </trkpt>
      <trkpt lat="59.9098962" lon="17.5890949">
        <ele>28.4962</ele>
        <time>2013-04-27T12:32:28Z</time>
      </trkpt>
      <trkpt lat="59.9098619" lon="17.5891805">
        <ele>28.4962</ele>
        <time>2013-04-27T12:32:29Z</time>
      </trkpt>
      <trkpt lat="59.9098273" lon="17.589266">
        <ele>28.4962</ele>
        <time>2013-04-27T12:32:30Z</time>
      </trkpt>
      <trkpt lat="59.9097925" lon="17.5893537">
        <ele>28.4962</ele>
        <time>2013-04-27T12:32:31Z</time>
      </trkpt>
      <trkpt lat="59.9097582" lon="17.58944">
        <ele>28.4962</ele>
        <time>2013-04-27T12:32:32Z</time>
      </trkpt>
      <trkpt lat="59.9097242" lon="17.5895272">
        <ele>28.4962</ele>
        <time>2013-04-27T12:32:33Z</time>
      </trkpt>
      <trkpt lat="59.9096893" lon="17.5896152">
        <ele>28.4962</ele>
        <time>2013-04-27T12:32:34Z</time>
      </trkpt>
      <trkpt lat="59.9096528" lon="17.5897034">
        <ele>28.4962</ele>
        <time>2013-04-27T12:32:35Z</time>
      </trkpt>
      <trkpt lat="59.9096159" lon="17.5897914">
        <ele>28.4962</ele>
        <time>2013-04-27T12:32:36Z</time>
      </trkpt>
      <trkpt lat="59.9095797" lon="17.5898787">
        <ele>28.4962</ele>
        <time>2013-04-27T12:32:37Z</time>
      </trkpt>
      <trkpt lat="59.9095424" lon="17.5899696">
        <ele>28.4962</ele>
        <time>2013-04-27T12:32:38Z</time>
      </trkpt>
      <trkpt lat="59.9095041" lon="17.590065">
        <ele>28.4962</ele>
        <time>2013-04-27T12:32:39Z</time>
      </trkpt>
      <trkpt lat="59.9094659" lon="17.5901575">
        <ele>28.9769</ele>
        <time>2013-04-27T12:32:40Z</time>
      </trkpt>
      <trkpt lat="59.9094277" lon="17.5902473">
        <ele>28.9769</ele>
        <time>2013-04-27T12:32:41Z</time>
      </trkpt>
      <trkpt lat="59.9093897" lon="17.5903371">
        <ele>28.9769</ele>
        <time>2013-04-27T12:32:42Z</time>
      </trkpt>
      <trkpt lat="59.9093522" lon="17.5904281">
        <ele>28.9769</ele>
        <time>2013-04-27T12:32:43Z</time>
      </trkpt>
      <trkpt lat="59.9093145" lon="17.5905197">
        <ele>29.4575</ele>
        <time>2013-04-27T12:32:44Z</time>
      </trkpt>
      <trkpt lat="59.9092782" lon="17.5906093">
        <ele>29.4575</ele>
        <time>2013-04-27T12:32:45Z</time>
      </trkpt>
      <trkpt lat="59.909243" lon="17.5906943">
        <ele>29.4575</ele>
        <time>2013-04-27T12:32:46Z</time>
      </trkpt>
      <trkpt lat="59.9092078" lon="17.5907838">
        <ele>29.9381</ele>
        <time>2013-04-27T12:32:47Z</time>
      </trkpt>
      <trkpt lat="59.909171" lon="17.5908741">
        <ele>30.4188</ele>
        <time>2013-04-27T12:32:48Z</time>
      </trkpt>
      <trkpt lat="59.9091356" lon="17.5909631">
        <ele>30.4188</ele>
        <time>2013-04-27T12:32:49Z</time>
      </trkpt>
      <trkpt lat="59.9090991" lon="17.5910528">
        <ele>30.8995</ele>
        <time>2013-04-27T12:32:50Z</time>
      </trkpt>
      <trkpt lat="59.9090612" lon="17.591146">
        <ele>30.8995</ele>
        <time>2013-04-27T12:32:51Z</time>
      </trkpt>
      <trkpt lat="59.9090254" lon="17.5912375">
        <ele>30.8995</ele>
        <time>2013-04-27T12:32:52Z</time>
      </trkpt>
      <trkpt lat="59.9089907" lon="17.59133">
        <ele>31.3801</ele>
        <time>2013-04-27T12:32:53Z</time>
      </trkpt>
      <trkpt lat="59.908955" lon="17.5914298">
        <ele>31.8607</ele>
        <time>2013-04-27T12:32:54Z</time>
      </trkpt>
      <trkpt lat="59.9089191" lon="17.5915314">
        <ele>32.3416</ele>
        <time>2013-04-27T12:32:55Z</time>
      </trkpt>
      <trkpt lat="59.9088839" lon="17.5916304">
        <ele>32.8223</ele>
        <time>2013-04-27T12:32:56Z</time>
      </trkpt>
      <trkpt lat="59.9088503" lon="17.5917275">
        <ele>32.8223</ele>
        <time>2013-04-27T12:32:57Z</time>
      </trkpt>
      <trkpt lat="59.9088176" lon="17.5918271">
        <ele>32.8223</ele>
        <time>2013-04-27T12:32:58Z</time>
      </trkpt>
      <trkpt lat="59.9087842" lon="17.5919349">
        <ele>32.8223</ele>
        <time>2013-04-27T12:32:59Z</time>
      </trkpt>
      <trkpt lat="59.9087515" lon="17.5920482">
        <ele>32.8223</ele>
        <time>2013-04-27T12:33:00Z</time>
      </trkpt>
      <trkpt lat="59.9087229" lon="17.5921607">
        <ele>32.8223</ele>
        <time>2013-04-27T12:33:01Z</time>
      </trkpt>
      <trkpt lat="59.9086955" lon="17.5922747">
        <ele>32.8223</ele>
        <time>2013-04-27T12:33:02Z</time>
      </trkpt>
      <trkpt lat="59.9086679" lon="17.5923892">
        <ele>32.8223</ele>
        <time>2013-04-27T12:33:03Z</time>
      </trkpt>
      <trkpt lat="59.9086401" lon="17.5925056">
        <ele>32.8223</ele>
        <time>2013-04-27T12:33:04Z</time>
      </trkpt>
      <trkpt lat="59.9086136" lon="17.5926233">
        <ele>32.3416</ele>
        <time>2013-04-27T12:33:05Z</time>
      </trkpt>
      <trkpt lat="59.9085878" lon="17.5927402">
        <ele>32.3416</ele>
        <time>2013-04-27T12:33:06Z</time>
      </trkpt>
      <trkpt lat="59.9085623" lon="17.5928567">
        <ele>32.3416</ele>
        <time>2013-04-27T12:33:07Z</time>
      </trkpt>
      <trkpt lat="59.9085368" lon="17.5929743">
        <ele>31.8607</ele>
        <time>2013-04-27T12:33:08Z</time>
      </trkpt>
      <trkpt lat="59.9085111" lon="17.5930894">
        <ele>31.8607</ele>
        <time>2013-04-27T12:33:09Z</time>
      </trkpt>
      <trkpt lat="59.9084867" lon="17.5932019">
        <ele>31.3801</ele>
        <time>2013-04-27T12:33:10Z</time>
      </trkpt>
      <trkpt lat="59.9084623" lon="17.5933149">
        <ele>30.8995</ele>
        <time>2013-04-27T12:33:11Z</time>
      </trkpt>
      <trkpt lat="59.9084365" lon="17.5934299">
        <ele>30.8995</ele>
        <time>2013-04-27T12:33:12Z</time>
      </trkpt>
      <trkpt lat="59.9084111" lon="17.5935458">
        <ele>30.8995</ele>
        <time>2013-04-27T12:33:13Z</time>
      </trkpt>
      <trkpt lat="59.9083856" lon="17.5936604">
        <ele>30.8995</ele>
        <time>2013-04-27T12:33:14Z</time>
      </trkpt>
      <trkpt lat="59.9083604" lon="17.5937765">
        <ele>30.4188</ele>
        <time>2013-04-27T12:33:15Z</time>
      </trkpt>
      <trkpt lat="59.908335" lon="17.5938924">
        <ele>30.8995</ele>
        <time>2013-04-27T12:33:16Z</time>
      </trkpt>
      <trkpt lat="59.9083096" lon="17.5940059">
        <ele>30.8995</ele>
        <time>2013-04-27T12:33:17Z</time>
      </trkpt>
      <trkpt lat="59.9082842" lon="17.5941186">
        <ele>30.8995</ele>
        <time>2013-04-27T12:33:18Z</time>
      </trkpt>
      <trkpt lat="59.9082596" lon="17.5942328">
        <ele>30.8995</ele>
        <time>2013-04-27T12:33:19Z</time>
      </trkpt>
      <trkpt lat="59.9082349" lon="17.5943482">
        <ele>30.4188</ele>
        <time>2013-04-27T12:33:20Z</time>
      </trkpt>
      <trkpt lat="59.9082089" lon="17.5944654">
        <ele>30.8995</ele>
        <time>2013-04-27T12:33:21Z</time>
      </trkpt>
      <trkpt lat="59.9081848" lon="17.5945807">
        <ele>30.8995</ele>
        <time>2013-04-27T12:33:22Z</time>
      </trkpt>
      <trkpt lat="59.9081618" lon="17.594696">
        <ele>30.8995</ele>
        <time>2013-04-27T12:33:23Z</time>
      </trkpt>
      <trkpt lat="59.9081387" lon="17.5948141">
        <ele>30.8995</ele>
        <time>2013-04-27T12:33:24Z</time>
      </trkpt>
      <trkpt lat="59.9081168" lon="17.5949327">
        <ele>31.3801</ele>
        <time>2013-04-27T12:33:25Z</time>
      </trkpt>
      <trkpt lat="59.9080957" lon="17.5950492">
        <ele>31.3801</ele>
        <time>2013-04-27T12:33:26Z</time>
      </trkpt>
      <trkpt lat="59.9080759" lon="17.5951646">
        <ele>31.3801</ele>
        <time>2013-04-27T12:33:27Z</time>
      </trkpt>
      <trkpt lat="59.9080579" lon="17.5952811">
        <ele>31.8607</ele>
        <time>2013-04-27T12:33:28Z</time>
      </trkpt>
      <trkpt lat="59.9080411" lon="17.5953984">
        <ele>31.8607</ele>
        <time>2013-04-27T12:33:29Z</time>
      </trkpt>
      <trkpt lat="59.9080256" lon="17.5955178">
        <ele>31.8607</ele>
        <time>2013-04-27T12:33:30Z</time>
      </trkpt>
      <trkpt lat="59.9080125" lon="17.5956356">
        <ele>31.8607</ele>
        <time>2013-04-27T12:33:31Z</time>
      </trkpt>
      <trkpt lat="59.9080009" lon="17.595751">
        <ele>31.8607</ele>
        <time>2013-04-27T12:33:32Z</time>
      </trkpt>
      <trkpt lat="59.9079914" lon="17.5958655">
        <ele>32.3416</ele>
        <time>2013-04-27T12:33:33Z</time>
      </trkpt>
      <trkpt lat="59.9079832" lon="17.5959805">
        <ele>32.3416</ele>
        <time>2013-04-27T12:33:34Z</time>
      </trkpt>
      <trkpt lat="59.9079764" lon="17.5960964">
        <ele>32.3416</ele>
        <time>2013-04-27T12:33:35Z</time>
      </trkpt>
      <trkpt lat="59.9079709" lon="17.5962142">
        <ele>32.3416</ele>
        <time>2013-04-27T12:33:36Z</time>
      </trkpt>
      <trkpt lat="59.9079656" lon="17.5963328">
        <ele>32.3416</ele>
        <time>2013-04-27T12:33:37Z</time>
      </trkpt>
      <trkpt lat="59.9079615" lon="17.5964499">
        <ele>32.3416</ele>
        <time>2013-04-27T12:33:38Z</time>
      </trkpt>
      <trkpt lat="59.9079593" lon="17.5965652">
        <ele>32.3416</ele>
        <time>2013-04-27T12:33:39Z</time>
      </trkpt>
      <trkpt lat="59.9079584" lon="17.5966825">
        <ele>32.3416</ele>
        <time>2013-04-27T12:33:40Z</time>
      </trkpt>
      <trkpt lat="59.9079579" lon="17.5968">
        <ele>32.3416</ele>
        <time>2013-04-27T12:33:41Z</time>
      </trkpt>
      <trkpt lat="59.9079576" lon="17.5969139">
        <ele>32.3416</ele>
        <time>2013-04-27T12:33:42Z</time>
      </trkpt>
      <trkpt lat="59.9079598" lon="17.5970279">
        <ele>32.3416</ele>
        <time>2013-04-27T12:33:43Z</time>
      </trkpt>
      <trkpt lat="59.907964" lon="17.5971445">
        <ele>31.8607</ele>
        <time>2013-04-27T12:33:44Z</time>
      </trkpt>
      <trkpt lat="59.9079691" lon="17.5972616">
        <ele>31.8607</ele>
        <time>2013-04-27T12:33:45Z</time>
      </trkpt>
      <trkpt lat="59.9079747" lon="17.5973781">
        <ele>31.8607</ele>
        <time>2013-04-27T12:33:46Z</time>
      </trkpt>
      <trkpt lat="59.9079812" lon="17.5974952">
        <ele>31.8607</ele>
        <time>2013-04-27T12:33:47Z</time>
      </trkpt>
      <trkpt lat="59.9079882" lon="17.597611">
        <ele>31.8607</ele>
        <time>2013-04-27T12:33:48Z</time>
      </trkpt>
      <trkpt lat="59.9079977" lon="17.597725">
        <ele>31.8607</ele>
        <time>2013-04-27T12:33:49Z</time>
      </trkpt>
      <trkpt lat="59.9080079" lon="17.5978364">
        <ele>31.8607</ele>
        <time>2013-04-27T12:33:50Z</time>
      </trkpt>
      <trkpt lat="59.9080193" lon="17.5979485">
        <ele>31.8607</ele>
        <time>2013-04-27T12:33:51Z</time>
      </trkpt>
      <trkpt lat="59.9080329" lon="17.5980598">
        <ele>31.8607</ele>
        <time>2013-04-27T12:33:52Z</time>
      </trkpt>
      <trkpt lat="59.9080478" lon="17.5981728">
        <ele>31.3801</ele>
        <time>2013-04-27T12:33:53Z</time>
      </trkpt>
      <trkpt lat="59.9080634" lon="17.5982894">
        <ele>31.8607</ele>
        <time>2013-04-27T12:33:54Z</time>
      </trkpt>
      <trkpt lat="59.9080799" lon="17.5984057">
        <ele>31.8607</ele>
        <time>2013-04-27T12:33:55Z</time>
      </trkpt>
      <trkpt lat="59.9080967" lon="17.5985176">
        <ele>31.8607</ele>
        <time>2013-04-27T12:33:56Z</time>
      </trkpt>
      <trkpt lat="59.9081153" lon="17.5986255">
        <ele>31.8607</ele>
        <time>2013-04-27T12:33:57Z</time>
      </trkpt>
      <trkpt lat="59.9081355" lon="17.5987328">
        <ele>32.3416</ele>
        <time>2013-04-27T12:33:58Z</time>
      </trkpt>
      <trkpt lat="59.9081565" lon="17.5988411">
        <ele>32.3416</ele>
        <time>2013-04-27T12:33:59Z</time>
      </trkpt>
      <trkpt lat="59.908178" lon="17.5989481">
        <ele>32.3416</ele>
        <time>2013-04-27T12:34:00Z</time>
      </trkpt>
      <trkpt lat="59.9082008" lon="17.5990532">
        <ele>32.3416</ele>
        <time>2013-04-27T12:34:01Z</time>
      </trkpt>
      <trkpt lat="59.9082265" lon="17.5991575">
        <ele>32.3416</ele>
        <time>2013-04-27T12:34:02Z</time>
      </trkpt>
      <trkpt lat="59.9082534" lon="17.5992616">
        <ele>32.8223</ele>
        <time>2013-04-27T12:34:03Z</time>
      </trkpt>
      <trkpt lat="59.9082816" lon="17.5993652">
        <ele>32.8223</ele>
        <time>2013-04-27T12:34:04Z</time>
      </trkpt>
      <trkpt lat="59.9083104" lon="17.5994671">
        <ele>32.8223</ele>
        <time>2013-04-27T12:34:05Z</time>
      </trkpt>
      <trkpt lat="59.90834" lon="17.5995693">
        <ele>32.8223</ele>
        <time>2013-04-27T12:34:06Z</time>
      </trkpt>
      <trkpt lat="59.9083702" lon="17.5996724">
        <ele>33.3029</ele>
        <time>2013-04-27T12:34:07Z</time>
      </trkpt>
      <trkpt lat="59.9084022" lon="17.599773">
        <ele>33.3029</ele>
        <time>2013-04-27T12:34:08Z</time>
      </trkpt>
      <trkpt lat="59.9084349" lon="17.5998692">
        <ele>33.3029</ele>
        <time>2013-04-27T12:34:09Z</time>
      </trkpt>
      <trkpt lat="59.9084691" lon="17.5999647">
        <ele>33.3029</ele>
        <time>2013-04-27T12:34:10Z</time>
      </trkpt>
      <trkpt lat="59.9085052" lon="17.6000591">
        <ele>32.8223</ele>
        <time>2013-04-27T12:34:11Z</time>
      </trkpt>
      <trkpt lat="59.9085435" lon="17.6001516">
        <ele>32.8223</ele>
        <time>2013-04-27T12:34:12Z</time>
      </trkpt>
      <trkpt lat="59.9085823" lon="17.6002451">
        <ele>32.8223</ele>
        <time>2013-04-27T12:34:13Z</time>
      </trkpt>
      <trkpt lat="59.9086209" lon="17.6003397">
        <ele>32.8223</ele>
        <time>2013-04-27T12:34:14Z</time>
      </trkpt>
      <trkpt lat="59.9086613" lon="17.6004328">
        <ele>32.8223</ele>
        <time>2013-04-27T12:34:15Z</time>
      </trkpt>
      <trkpt lat="59.9087036" lon="17.6005243">
        <ele>32.8223</ele>
        <time>2013-04-27T12:34:16Z</time>
      </trkpt>
      <trkpt lat="59.9087462" lon="17.6006163">
        <ele>32.3416</ele>
        <time>2013-04-27T12:34:17Z</time>
      </trkpt>
      <trkpt lat="59.9087901" lon="17.6007068">
        <ele>32.3416</ele>
        <time>2013-04-27T12:34:18Z</time>
      </trkpt>
      <trkpt lat="59.9088367" lon="17.6007939">
        <ele>31.8607</ele>
        <time>2013-04-27T12:34:19Z</time>
      </trkpt>
      <trkpt lat="59.9088851" lon="17.6008787">
        <ele>31.8607</ele>
        <time>2013-04-27T12:34:20Z</time>
      </trkpt>
      <trkpt lat="59.9089341" lon="17.6009611">
        <ele>31.3801</ele>
        <time>2013-04-27T12:34:21Z</time>
      </trkpt>
      <trkpt lat="59.9089844" lon="17.6010419">
        <ele>31.3801</ele>
        <time>2013-04-27T12:34:22Z</time>
      </trkpt>
      <trkpt lat="59.9090348" lon="17.6011222">
        <ele>30.8995</ele>
        <time>2013-04-27T12:34:23Z</time>
      </trkpt>
      <trkpt lat="59.909085" lon="17.6012031">
        <ele>30.4188</ele>
        <time>2013-04-27T12:34:24Z</time>
      </trkpt>
      <trkpt lat="59.9091352" lon="17.6012819">
        <ele>29.9381</ele>
        <time>2013-04-27T12:34:25Z</time>
      </trkpt>
      <trkpt lat="59.9091861" lon="17.6013596">
        <ele>29.9381</ele>
        <time>2013-04-27T12:34:26Z</time>
      </trkpt>
      <trkpt lat="59.9092363" lon="17.6014356">
        <ele>29.4575</ele>
        <time>2013-04-27T12:34:27Z</time>
      </trkpt>
      <trkpt lat="59.9092865" lon="17.6015133">
        <ele>28.9769</ele>
        <time>2013-04-27T12:34:28Z</time>
      </trkpt>
      <trkpt lat="59.9093362" lon="17.6015921">
        <ele>28.9769</ele>
        <time>2013-04-27T12:34:29Z</time>
      </trkpt>
      <trkpt lat="59.9093859" lon="17.6016731">
        <ele>28.4962</ele>
        <time>2013-04-27T12:34:30Z</time>
      </trkpt>
      <trkpt lat="59.9094361" lon="17.6017548">
        <ele>28.0155</ele>
        <time>2013-04-27T12:34:31Z</time>
      </trkpt>
      <trkpt lat="59.9094875" lon="17.6018366">
        <ele>27.5349</ele>
        <time>2013-04-27T12:34:32Z</time>
      </trkpt>
      <trkpt lat="59.9095402" lon="17.601918">
        <ele>27.5349</ele>
        <time>2013-04-27T12:34:33Z</time>
      </trkpt>
      <trkpt lat="59.9095925" lon="17.6019983">
        <ele>27.0543</ele>
        <time>2013-04-27T12:34:34Z</time>
      </trkpt>
      <trkpt lat="59.9096446" lon="17.6020786">
        <ele>26.5736</ele>
        <time>2013-04-27T12:34:35Z</time>
      </trkpt>
      <trkpt lat="59.9096963" lon="17.6021599">
        <ele>26.5736</ele>
        <time>2013-04-27T12:34:36Z</time>
      </trkpt>
      <trkpt lat="59.9097471" lon="17.6022416">
        <ele>26.0929</ele>
        <time>2013-04-27T12:34:37Z</time>
      </trkpt>
      <trkpt lat="59.9097978" lon="17.6023209">
        <ele>26.0929</ele>
        <time>2013-04-27T12:34:38Z</time>
      </trkpt>
      <trkpt lat="59.9098491" lon="17.6023982">
        <ele>25.6123</ele>
        <time>2013-04-27T12:34:39Z</time>
      </trkpt>
      <trkpt lat="59.9098999" lon="17.6024748">
        <ele>25.6123</ele>
        <time>2013-04-27T12:34:40Z</time>
      </trkpt>
      <trkpt lat="59.9099506" lon="17.6025513">
        <ele>25.1317</ele>
        <time>2013-04-27T12:34:41Z</time>
      </trkpt>
      <trkpt lat="59.9100008" lon="17.6026291">
        <ele>25.1317</ele>
        <time>2013-04-27T12:34:42Z</time>
      </trkpt>
      <trkpt lat="59.9100514" lon="17.6027095">
        <ele>25.1317</ele>
        <time>2013-04-27T12:34:43Z</time>
      </trkpt>
      <trkpt lat="59.9101024" lon="17.6027908">
        <ele>25.1317</ele>
        <time>2013-04-27T12:34:44Z</time>
      </trkpt>
      <trkpt lat="59.910153" lon="17.6028705">
        <ele>25.1317</ele>
        <time>2013-04-27T12:34:45Z</time>
      </trkpt>
      <trkpt lat="59.910202" lon="17.6029474">
        <ele>25.1317</ele>
        <time>2013-04-27T12:34:46Z</time>
      </trkpt>
      <trkpt lat="59.9102511" lon="17.6030233">
        <ele>25.1317</ele>
        <time>2013-04-27T12:34:47Z</time>
      </trkpt>
      <trkpt lat="59.9103008" lon="17.6030996">
        <ele>25.1317</ele>
        <time>2013-04-27T12:34:48Z</time>
      </trkpt>
      <trkpt lat="59.910351" lon="17.6031776">
        <ele>25.1317</ele>
        <time>2013-04-27T12:34:49Z</time>
      </trkpt>
      <trkpt lat="59.9104001" lon="17.603255">
        <ele>25.1317</ele>
        <time>2013-04-27T12:34:50Z</time>
      </trkpt>
      <trkpt lat="59.9104482" lon="17.6033306">
        <ele>25.1317</ele>
        <time>2013-04-27T12:34:51Z</time>
      </trkpt>
      <trkpt lat="59.9104956" lon="17.6034045">
        <ele>25.1317</ele>
        <time>2013-04-27T12:34:52Z</time>
      </trkpt>
      <trkpt lat="59.9105418" lon="17.6034772">
        <ele>25.6123</ele>
        <time>2013-04-27T12:34:53Z</time>
      </trkpt>
      <trkpt lat="59.9105876" lon="17.6035492">
        <ele>25.6123</ele>
        <time>2013-04-27T12:34:54Z</time>
      </trkpt>
      <trkpt lat="59.9106328" lon="17.6036191">
        <ele>25.6123</ele>
        <time>2013-04-27T12:34:55Z</time>
      </trkpt>
      <trkpt lat="59.9106782" lon="17.6036899">
        <ele>25.6123</ele>
        <time>2013-04-27T12:34:56Z</time>
      </trkpt>
      <trkpt lat="59.9107234" lon="17.6037599">
        <ele>25.6123</ele>
        <time>2013-04-27T12:34:57Z</time>
      </trkpt>
      <trkpt lat="59.9107679" lon="17.603829">
        <ele>25.6123</ele>
        <time>2013-04-27T12:34:58Z</time>
      </trkpt>
      <trkpt lat="59.910811" lon="17.6038973">
        <ele>26.0929</ele>
        <time>2013-04-27T12:34:59Z</time>
      </trkpt>
      <trkpt lat="59.9108528" lon="17.6039631">
        <ele>26.0929</ele>
        <time>2013-04-27T12:35:00Z</time>
      </trkpt>
      <trkpt lat="59.9108934" lon="17.6040303">
        <ele>26.0929</ele>
        <time>2013-04-27T12:35:01Z</time>
      </trkpt>
      <trkpt lat="59.9109336" lon="17.6040977">
        <ele>26.0929</ele>
        <time>2013-04-27T12:35:02Z</time>
      </trkpt>
      <trkpt lat="59.9109755" lon="17.6041639">
        <ele>26.0929</ele>
        <time>2013-04-27T12:35:03Z</time>
      </trkpt>
      <trkpt lat="59.9110162" lon="17.6042279">
        <ele>26.0929</ele>
        <time>2013-04-27T12:35:04Z</time>
      </trkpt>
      <trkpt lat="59.9110546" lon="17.6042925">
        <ele>26.0929</ele>
        <time>2013-04-27T12:35:05Z</time>
      </trkpt>
      <trkpt lat="59.9110909" lon="17.6043598">
        <ele>26.0929</ele>
        <time>2013-04-27T12:35:06Z</time>
      </trkpt>
      <trkpt lat="59.9111261" lon="17.6044308">
        <ele>25.6123</ele>
        <time>2013-04-27T12:35:07Z</time>
      </trkpt>
      <trkpt lat="59.9111617" lon="17.604508">
        <ele>26.0929</ele>
        <time>2013-04-27T12:35:08Z</time>
      </trkpt>
      <trkpt lat="59.9111969" lon="17.6045872">
        <ele>25.6123</ele>
        <time>2013-04-27T12:35:09Z</time>
      </trkpt>
      <trkpt lat="59.9112312" lon="17.6046663">
        <ele>25.6123</ele>
        <time>2013-04-27T12:35:10Z</time>
      </trkpt>
      <trkpt lat="59.9112648" lon="17.6047466">
        <ele>25.6123</ele>
        <time>2013-04-27T12:35:11Z</time>
      </trkpt>
      <trkpt lat="59.9112968" lon="17.6048292">
        <ele>26.0929</ele>
        <time>2013-04-27T12:35:12Z</time>
      </trkpt>
      <trkpt lat="59.911328" lon="17.6049134">
        <ele>26.0929</ele>
        <time>2013-04-27T12:35:13Z</time>
      </trkpt>
      <trkpt lat="59.9113589" lon="17.6049991">
        <ele>26.0929</ele>
        <time>2013-04-27T12:35:14Z</time>
      </trkpt>
      <trkpt lat="59.9113879" lon="17.6050883">
        <ele>26.5736</ele>
        <time>2013-04-27T12:35:15Z</time>
      </trkpt>
      <trkpt lat="59.9114155" lon="17.6051804">
        <ele>26.5736</ele>
        <time>2013-04-27T12:35:16Z</time>
      </trkpt>
      <trkpt lat="59.9114405" lon="17.6052731">
        <ele>26.5736</ele>
        <time>2013-04-27T12:35:17Z</time>
      </trkpt>
      <trkpt lat="59.9114647" lon="17.6053642">
        <ele>26.5736</ele>
        <time>2013-04-27T12:35:18Z</time>
      </trkpt>
      <trkpt lat="59.9114887" lon="17.605457">
        <ele>26.5736</ele>
        <time>2013-04-27T12:35:19Z</time>
      </trkpt>
      <trkpt lat="59.9115118" lon="17.6055545">
        <ele>27.0543</ele>
        <time>2013-04-27T12:35:20Z</time>
      </trkpt>
      <trkpt lat="59.9115319" lon="17.605655">
        <ele>26.5736</ele>
        <time>2013-04-27T12:35:21Z</time>
      </trkpt>
      <trkpt lat="59.9115482" lon="17.6057558">
        <ele>27.0543</ele>
        <time>2013-04-27T12:35:22Z</time>
      </trkpt>
      <trkpt lat="59.9115647" lon="17.6058554">
        <ele>27.0543</ele>
        <time>2013-04-27T12:35:23Z</time>
      </trkpt>
      <trkpt lat="59.9115818" lon="17.6059525">
        <ele>27.0543</ele>
        <time>2013-04-27T12:35:24Z</time>
      </trkpt>
      <trkpt lat="59.9115964" lon="17.6060479">
        <ele>27.0543</ele>
        <time>2013-04-27T12:35:25Z</time>
      </trkpt>
      <trkpt lat="59.9116094" lon="17.6061414">
        <ele>27.0543</ele>
        <time>2013-04-27T12:35:26Z</time>
      </trkpt>
      <trkpt lat="59.9116215" lon="17.6062319">
        <ele>27.0543</ele>
        <time>2013-04-27T12:35:27Z</time>
      </trkpt>
      <trkpt lat="59.9116325" lon="17.6063194">
        <ele>27.0543</ele>
        <time>2013-04-27T12:35:28Z</time>
      </trkpt>
      <trkpt lat="59.911643" lon="17.6064045">
        <ele>26.5736</ele>
        <time>2013-04-27T12:35:29Z</time>
      </trkpt>
      <trkpt lat="59.9116524" lon="17.6064869">
        <ele>26.5736</ele>
        <time>2013-04-27T12:35:30Z</time>
      </trkpt>
      <trkpt lat="59.9116621" lon="17.606566">
        <ele>26.5736</ele>
        <time>2013-04-27T12:35:31Z</time>
      </trkpt>
      <trkpt lat="59.9116707" lon="17.6066452">
        <ele>26.5736</ele>
        <time>2013-04-27T12:35:32Z</time>
      </trkpt>
      <trkpt lat="59.911672" lon="17.6067277">
        <ele>26.5736</ele>
        <time>2013-04-27T12:35:33Z</time>
      </trkpt>
      <trkpt lat="59.9116614" lon="17.60681">
        <ele>26.5736</ele>
        <time>2013-04-27T12:35:34Z</time>
      </trkpt>
      <trkpt lat="59.9116387" lon="17.6068831">
        <ele>26.5736</ele>
        <time>2013-04-27T12:35:35Z</time>
      </trkpt>
      <trkpt lat="59.9116065" lon="17.6069353">
        <ele>26.5736</ele>
        <time>2013-04-27T12:35:36Z</time>
      </trkpt>
      <trkpt lat="59.9115689" lon="17.6069613">
        <ele>26.5736</ele>
        <time>2013-04-27T12:35:37Z</time>
      </trkpt>
      <trkpt lat="59.911528" lon="17.6069787">
        <ele>27.0543</ele>
        <time>2013-04-27T12:35:38Z</time>
      </trkpt>
      <trkpt lat="59.911484" lon="17.6069963">
        <ele>26.5736</ele>
        <time>2013-04-27T12:35:39Z</time>
      </trkpt>
      <trkpt lat="59.9114376" lon="17.607015">
        <ele>26.5736</ele>
        <time>2013-04-27T12:35:40Z</time>
      </trkpt>
      <trkpt lat="59.911388" lon="17.6070323">
        <ele>26.0929</ele>
        <time>2013-04-27T12:35:41Z</time>
      </trkpt>
      <trkpt lat="59.9113376" lon="17.6070541">
        <ele>26.0929</ele>
        <time>2013-04-27T12:35:42Z</time>
      </trkpt>
      <trkpt lat="59.9112874" lon="17.6070758">
        <ele>26.0929</ele>
        <time>2013-04-27T12:35:43Z</time>
      </trkpt>
      <trkpt lat="59.9112363" lon="17.6070979">
        <ele>26.0929</ele>
        <time>2013-04-27T12:35:44Z</time>
      </trkpt>
      <trkpt lat="59.911184" lon="17.6071217">
        <ele>25.6123</ele>
        <time>2013-04-27T12:35:45Z</time>
      </trkpt>
      <trkpt lat="59.9111313" lon="17.6071464">
        <ele>25.6123</ele>
        <time>2013-04-27T12:35:46Z</time>
      </trkpt>
      <trkpt lat="59.9110786" lon="17.6071712">
        <ele>25.6123</ele>
        <time>2013-04-27T12:35:47Z</time>
      </trkpt>
      <trkpt lat="59.9110248" lon="17.6071954">
        <ele>25.6123</ele>
        <time>2013-04-27T12:35:48Z</time>
      </trkpt>
      <trkpt lat="59.9109704" lon="17.6072196">
        <ele>25.6123</ele>
        <time>2013-04-27T12:35:49Z</time>
      </trkpt>
      <trkpt lat="59.9109162" lon="17.6072452">
        <ele>25.1317</ele>
        <time>2013-04-27T12:35:50Z</time>
      </trkpt>
      <trkpt lat="59.9108628" lon="17.6072715">
        <ele>25.1317</ele>
        <time>2013-04-27T12:35:51Z</time>
      </trkpt>
      <trkpt lat="59.9108096" lon="17.6072927">
        <ele>24.651</ele>
        <time>2013-04-27T12:35:52Z</time>
      </trkpt>
      <trkpt lat="59.9107567" lon="17.6073141">
        <ele>24.1703</ele>
        <time>2013-04-27T12:35:53Z</time>
      </trkpt>
      <trkpt lat="59.9107042" lon="17.6073364">
        <ele>23.6896</ele>
        <time>2013-04-27T12:35:54Z</time>
      </trkpt>
      <trkpt lat="59.9106521" lon="17.6073581">
        <ele>23.209</ele>
        <time>2013-04-27T12:35:55Z</time>
      </trkpt>
      <trkpt lat="59.9106008" lon="17.6073799">
        <ele>22.7283</ele>
        <time>2013-04-27T12:35:56Z</time>
      </trkpt>
      <trkpt lat="59.91055" lon="17.6074035">
        <ele>22.7283</ele>
        <time>2013-04-27T12:35:57Z</time>
      </trkpt>
      <trkpt lat="59.9104987" lon="17.6074282">
        <ele>22.7283</ele>
        <time>2013-04-27T12:35:58Z</time>
      </trkpt>
      <trkpt lat="59.9104449" lon="17.6074551">
        <ele>22.7283</ele>
        <time>2013-04-27T12:35:59Z</time>
      </trkpt>
      <trkpt lat="59.9103888" lon="17.6074825">
        <ele>22.7283</ele>
        <time>2013-04-27T12:36:00Z</time>
      </trkpt>
      <trkpt lat="59.9103312" lon="17.6075103">
        <ele>22.7283</ele>
        <time>2013-04-27T12:36:01Z</time>
      </trkpt>
      <trkpt lat="59.9102731" lon="17.6075389">
        <ele>22.7283</ele>
        <time>2013-04-27T12:36:02Z</time>
      </trkpt>
      <trkpt lat="59.9102151" lon="17.6075674">
        <ele>22.7283</ele>
        <time>2013-04-27T12:36:03Z</time>
      </trkpt>
      <trkpt lat="59.9101569" lon="17.6075948">
        <ele>22.7283</ele>
        <time>2013-04-27T12:36:04Z</time>
      </trkpt>
      <trkpt lat="59.9100977" lon="17.6076233">
        <ele>22.7283</ele>
        <time>2013-04-27T12:36:05Z</time>
      </trkpt>
      <trkpt lat="59.9100375" lon="17.6076528">
        <ele>22.7283</ele>
        <time>2013-04-27T12:36:06Z</time>
      </trkpt>
      <trkpt lat="59.9099775" lon="17.6076812">
        <ele>22.7283</ele>
        <time>2013-04-27T12:36:07Z</time>
      </trkpt>
      <trkpt lat="59.9099185" lon="17.6077096">
        <ele>22.7283</ele>
        <time>2013-04-27T12:36:08Z</time>
      </trkpt>
      <trkpt lat="59.9098596" lon="17.6077397">
        <ele>22.2476</ele>
        <time>2013-04-27T12:36:09Z</time>
      </trkpt>
      <trkpt lat="59.9098003" lon="17.6077706">
        <ele>22.2476</ele>
        <time>2013-04-27T12:36:10Z</time>
      </trkpt>
      <trkpt lat="59.9097406" lon="17.6078013">
        <ele>22.7283</ele>
        <time>2013-04-27T12:36:11Z</time>
      </trkpt>
      <trkpt lat="59.9096806" lon="17.6078329">
        <ele>22.7283</ele>
        <time>2013-04-27T12:36:12Z</time>
      </trkpt>
      <trkpt lat="59.90962" lon="17.6078645">
        <ele>22.7283</ele>
        <time>2013-04-27T12:36:13Z</time>
      </trkpt>
      <trkpt lat="59.9095596" lon="17.6078969">
        <ele>23.209</ele>
        <time>2013-04-27T12:36:14Z</time>
      </trkpt>
      <trkpt lat="59.9094994" lon="17.6079259">
        <ele>23.209</ele>
        <time>2013-04-27T12:36:15Z</time>
      </trkpt>
      <trkpt lat="59.9094397" lon="17.6079554">
        <ele>23.209</ele>
        <time>2013-04-27T12:36:16Z</time>
      </trkpt>
      <trkpt lat="59.9093797" lon="17.6079848">
        <ele>23.209</ele>
        <time>2013-04-27T12:36:17Z</time>
      </trkpt>
      <trkpt lat="59.9093193" lon="17.6080129">
        <ele>23.209</ele>
        <time>2013-04-27T12:36:18Z</time>
      </trkpt>
      <trkpt lat="59.9092597" lon="17.6080409">
        <ele>22.7283</ele>
        <time>2013-04-27T12:36:19Z</time>
      </trkpt>
      <trkpt lat="59.9092005" lon="17.6080688">
        <ele>22.7283</ele>
        <time>2013-04-27T12:36:20Z</time>
      </trkpt>
      <trkpt lat="59.909141" lon="17.6080978">
        <ele>22.7283</ele>
        <time>2013-04-27T12:36:21Z</time>
      </trkpt>
      <trkpt lat="59.9090813" lon="17.6081266">
        <ele>22.7283</ele>
        <time>2013-04-27T12:36:22Z</time>
      </trkpt>
      <trkpt lat="59.9090214" lon="17.6081554">
        <ele>22.7283</ele>
        <time>2013-04-27T12:36:23Z</time>
      </trkpt>
      <trkpt lat="59.9089617" lon="17.6081838">
        <ele>22.7283</ele>
        <time>2013-04-27T12:36:24Z</time>
      </trkpt>
      <trkpt lat="59.9089023" lon="17.6082092">
        <ele>22.7283</ele>
        <time>2013-04-27T12:36:25Z</time>
      </trkpt>
      <trkpt lat="59.9088431" lon="17.6082346">
        <ele>22.7283</ele>
        <time>2013-04-27T12:36:26Z</time>
      </trkpt>
      <trkpt lat="59.9087841" lon="17.6082605">
        <ele>22.7283</ele>
        <time>2013-04-27T12:36:27Z</time>
      </trkpt>
      <trkpt lat="59.9087244" lon="17.6082889">
        <ele>23.209</ele>
        <time>2013-04-27T12:36:28Z</time>
      </trkpt>
      <trkpt lat="59.9086643" lon="17.6083153">
        <ele>23.6896</ele>
        <time>2013-04-27T12:36:29Z</time>
      </trkpt>
      <trkpt lat="59.9086046" lon="17.6083442">
        <ele>24.1703</ele>
        <time>2013-04-27T12:36:30Z</time>
      </trkpt>
      <trkpt lat="59.9085453" lon="17.6083737">
        <ele>24.1703</ele>
        <time>2013-04-27T12:36:31Z</time>
      </trkpt>
      <trkpt lat="59.9084862" lon="17.6084017">
        <ele>24.651</ele>
        <time>2013-04-27T12:36:32Z</time>
      </trkpt>
      <trkpt lat="59.9084277" lon="17.6084299">
        <ele>25.1317</ele>
        <time>2013-04-27T12:36:33Z</time>
      </trkpt>
      <trkpt lat="59.908369" lon="17.6084576">
        <ele>25.1317</ele>
        <time>2013-04-27T12:36:34Z</time>
      </trkpt>
      <trkpt lat="59.9083104" lon="17.6084852">
        <ele>25.6123</ele>
        <time>2013-04-27T12:36:35Z</time>
      </trkpt>
      <trkpt lat="59.9082526" lon="17.6085129">
        <ele>25.6123</ele>
        <time>2013-04-27T12:36:36Z</time>
      </trkpt>
      <trkpt lat="59.9081952" lon="17.6085407">
        <ele>26.0929</ele>
        <time>2013-04-27T12:36:37Z</time>
      </trkpt>
      <trkpt lat="59.9081377" lon="17.6085701">
        <ele>26.5736</ele>
        <time>2013-04-27T12:36:38Z</time>
      </trkpt>
      <trkpt lat="59.9080806" lon="17.6085993">
        <ele>26.5736</ele>
        <time>2013-04-27T12:36:39Z</time>
      </trkpt>
      <trkpt lat="59.9080241" lon="17.6086282">
        <ele>27.0543</ele>
        <time>2013-04-27T12:36:40Z</time>
      </trkpt>
      <trkpt lat="59.9079677" lon="17.6086556">
        <ele>27.0543</ele>
        <time>2013-04-27T12:36:41Z</time>
      </trkpt>
      <trkpt lat="59.9079118" lon="17.6086811">
        <ele>27.0543</ele>
        <time>2013-04-27T12:36:42Z</time>
      </trkpt>
      <trkpt lat="59.9078557" lon="17.6087079">
        <ele>27.5349</ele>
        <time>2013-04-27T12:36:43Z</time>
      </trkpt>
      <trkpt lat="59.9077987" lon="17.6087354">
        <ele>28.0155</ele>
        <time>2013-04-27T12:36:44Z</time>
      </trkpt>
      <trkpt lat="59.9077408" lon="17.6087622">
        <ele>28.4962</ele>
        <time>2013-04-27T12:36:45Z</time>
      </trkpt>
      <trkpt lat="59.9076818" lon="17.6087915">
        <ele>28.4962</ele>
        <time>2013-04-27T12:36:46Z</time>
      </trkpt>
      <trkpt lat="59.9076221" lon="17.6088211">
        <ele>28.9769</ele>
        <time>2013-04-27T12:36:47Z</time>
      </trkpt>
      <trkpt lat="59.9075631" lon="17.6088495">
        <ele>29.4575</ele>
        <time>2013-04-27T12:36:48Z</time>
      </trkpt>
      <trkpt lat="59.9075052" lon="17.6088774">
        <ele>29.4575</ele>
        <time>2013-04-27T12:36:49Z</time>
      </trkpt>
      <trkpt lat="59.9074476" lon="17.6089053">
        <ele>29.9381</ele>
        <time>2013-04-27T12:36:50Z</time>
      </trkpt>
      <trkpt lat="59.9073901" lon="17.6089344">
        <ele>29.9381</ele>
        <time>2013-04-27T12:36:51Z</time>
      </trkpt>
      <trkpt lat="59.9073322" lon="17.6089638">
        <ele>30.4188</ele>
        <time>2013-04-27T12:36:52Z</time>
      </trkpt>
      <trkpt lat="59.9072735" lon="17.6089929">
        <ele>30.4188</ele>
        <time>2013-04-27T12:36:53Z</time>
      </trkpt>
      <trkpt lat="59.9072155" lon="17.6090225">
        <ele>30.8995</ele>
        <time>2013-04-27T12:36:54Z</time>
      </trkpt>
      <trkpt lat="59.907159" lon="17.6090494">
        <ele>30.8995</ele>
        <time>2013-04-27T12:36:55Z</time>
      </trkpt>
      <trkpt lat="59.9071027" lon="17.6090743">
        <ele>31.3801</ele>
        <time>2013-04-27T12:36:56Z</time>
      </trkpt>
      <trkpt lat="59.9070475" lon="17.6090986">
        <ele>31.3801</ele>
        <time>2013-04-27T12:36:57Z</time>
      </trkpt>
      <trkpt lat="59.9069918" lon="17.6091223">
        <ele>30.8995</ele>
        <time>2013-04-27T12:36:58Z</time>
      </trkpt>
      <trkpt lat="59.9069351" lon="17.6091462">
        <ele>30.8995</ele>
        <time>2013-04-27T12:36:59Z</time>
      </trkpt>
      <trkpt lat="59.9068784" lon="17.6091713">
        <ele>30.8995</ele>
        <time>2013-04-27T12:37:00Z</time>
      </trkpt>
      <trkpt lat="59.9068222" lon="17.6091945">
        <ele>30.8995</ele>
        <time>2013-04-27T12:37:01Z</time>
      </trkpt>
      <trkpt lat="59.9067668" lon="17.6092184">
        <ele>30.8995</ele>
        <time>2013-04-27T12:37:02Z</time>
      </trkpt>
      <trkpt lat="59.906712" lon="17.6092457">
        <ele>30.8995</ele>
        <time>2013-04-27T12:37:03Z</time>
      </trkpt>
      <trkpt lat="59.9066566" lon="17.6092718">
        <ele>30.8995</ele>
        <time>2013-04-27T12:37:04Z</time>
      </trkpt>
      <trkpt lat="59.9066007" lon="17.6092963">
        <ele>30.8995</ele>
        <time>2013-04-27T12:37:05Z</time>
      </trkpt>
      <trkpt lat="59.9065451" lon="17.6093234">
        <ele>30.8995</ele>
        <time>2013-04-27T12:37:06Z</time>
      </trkpt>
      <trkpt lat="59.9064904" lon="17.6093479">
        <ele>30.8995</ele>
        <time>2013-04-27T12:37:07Z</time>
      </trkpt>
      <trkpt lat="59.9064347" lon="17.6093737">
        <ele>30.8995</ele>
        <time>2013-04-27T12:37:08Z</time>
      </trkpt>
      <trkpt lat="59.9063784" lon="17.6094016">
        <ele>31.3801</ele>
        <time>2013-04-27T12:37:09Z</time>
      </trkpt>
      <trkpt lat="59.9063235" lon="17.609429">
        <ele>31.3801</ele>
        <time>2013-04-27T12:37:10Z</time>
      </trkpt>
      <trkpt lat="59.9062686" lon="17.6094544">
        <ele>31.3801</ele>
        <time>2013-04-27T12:37:11Z</time>
      </trkpt>
      <trkpt lat="59.906213" lon="17.6094793">
        <ele>31.3801</ele>
        <time>2013-04-27T12:37:12Z</time>
      </trkpt>
      <trkpt lat="59.9061583" lon="17.6095061">
        <ele>31.3801</ele>
        <time>2013-04-27T12:37:13Z</time>
      </trkpt>
      <trkpt lat="59.9061053" lon="17.6095332">
        <ele>31.3801</ele>
        <time>2013-04-27T12:37:14Z</time>
      </trkpt>
      <trkpt lat="59.9060531" lon="17.6095607">
        <ele>31.3801</ele>
        <time>2013-04-27T12:37:15Z</time>
      </trkpt>
      <trkpt lat="59.9060022" lon="17.6095931">
        <ele>30.8995</ele>
        <time>2013-04-27T12:37:16Z</time>
      </trkpt>
      <trkpt lat="59.9059542" lon="17.6096343">
        <ele>30.8995</ele>
        <time>2013-04-27T12:37:17Z</time>
      </trkpt>
      <trkpt lat="59.905906" lon="17.6096758">
        <ele>30.8995</ele>
        <time>2013-04-27T12:37:18Z</time>
      </trkpt>
      <trkpt lat="59.9058547" lon="17.6097088">
        <ele>30.8995</ele>
        <time>2013-04-27T12:37:19Z</time>
      </trkpt>
      <trkpt lat="59.9058003" lon="17.6097379">
        <ele>30.4188</ele>
        <time>2013-04-27T12:37:20Z</time>
      </trkpt>
      <trkpt lat="59.9057444" lon="17.6097674">
        <ele>30.4188</ele>
        <time>2013-04-27T12:37:21Z</time>
      </trkpt>
      <trkpt lat="59.9056864" lon="17.6097941">
        <ele>30.4188</ele>
        <time>2013-04-27T12:37:22Z</time>
      </trkpt>
      <trkpt lat="59.9056273" lon="17.6098191">
        <ele>30.4188</ele>
        <time>2013-04-27T12:37:23Z</time>
      </trkpt>
      <trkpt lat="59.9055682" lon="17.6098473">
        <ele>29.9381</ele>
        <time>2013-04-27T12:37:24Z</time>
      </trkpt>
      <trkpt lat="59.9055098" lon="17.6098782">
        <ele>29.9381</ele>
        <time>2013-04-27T12:37:25Z</time>
      </trkpt>
      <trkpt lat="59.9054512" lon="17.6099098">
        <ele>29.9381</ele>
        <time>2013-04-27T12:37:26Z</time>
      </trkpt>
      <trkpt lat="59.9053927" lon="17.6099429">
        <ele>29.9381</ele>
        <time>2013-04-27T12:37:27Z</time>
      </trkpt>
      <trkpt lat="59.905335" lon="17.6099749">
        <ele>29.9381</ele>
        <time>2013-04-27T12:37:28Z</time>
      </trkpt>
      <trkpt lat="59.905278" lon="17.6100049">
        <ele>29.9381</ele>
        <time>2013-04-27T12:37:29Z</time>
      </trkpt>
      <trkpt lat="59.9052217" lon="17.6100337">
        <ele>29.9381</ele>
        <time>2013-04-27T12:37:30Z</time>
      </trkpt>
      <trkpt lat="59.9051662" lon="17.610061">
        <ele>29.4575</ele>
        <time>2013-04-27T12:37:31Z</time>
      </trkpt>
      <trkpt lat="59.9051127" lon="17.6100879">
        <ele>29.4575</ele>
        <time>2013-04-27T12:37:32Z</time>
      </trkpt>
      <trkpt lat="59.9050615" lon="17.610113">
        <ele>29.4575</ele>
        <time>2013-04-27T12:37:33Z</time>
      </trkpt>
      <trkpt lat="59.9050113" lon="17.6101377">
        <ele>29.4575</ele>
        <time>2013-04-27T12:37:34Z</time>
      </trkpt>
      <trkpt lat="59.9049611" lon="17.6101614">
        <ele>28.9769</ele>
        <time>2013-04-27T12:37:35Z</time>
      </trkpt>
      <trkpt lat="59.904911" lon="17.6101847">
        <ele>28.9769</ele>
        <time>2013-04-27T12:37:36Z</time>
      </trkpt>
      <trkpt lat="59.9048612" lon="17.6102067">
        <ele>28.9769</ele>
        <time>2013-04-27T12:37:37Z</time>
      </trkpt>
      <trkpt lat="59.904812" lon="17.6102289">
        <ele>28.9769</ele>
        <time>2013-04-27T12:37:38Z</time>
      </trkpt>
      <trkpt lat="59.9047639" lon="17.610252">
        <ele>28.9769</ele>
        <time>2013-04-27T12:37:39Z</time>
      </trkpt>
      <trkpt lat="59.9047171" lon="17.6102755">
        <ele>28.4962</ele>
        <time>2013-04-27T12:37:40Z</time>
      </trkpt>
      <trkpt lat="59.9046726" lon="17.6103091">
        <ele>28.4962</ele>
        <time>2013-04-27T12:37:41Z</time>
      </trkpt>
      <trkpt lat="59.9046346" lon="17.6103596">
        <ele>28.4962</ele>
        <time>2013-04-27T12:37:42Z</time>
      </trkpt>
      <trkpt lat="59.9046057" lon="17.610431">
        <ele>28.4962</ele>
        <time>2013-04-27T12:37:43Z</time>
      </trkpt>
      <trkpt lat="59.9045866" lon="17.610519">
        <ele>28.0155</ele>
        <time>2013-04-27T12:37:44Z</time>
      </trkpt>
      <trkpt lat="59.9045737" lon="17.6106206">
        <ele>28.0155</ele>
        <time>2013-04-27T12:37:45Z</time>
      </trkpt>
      <trkpt lat="59.9045628" lon="17.6107298">
        <ele>27.5349</ele>
        <time>2013-04-27T12:37:46Z</time>
      </trkpt>
      <trkpt lat="59.9045501" lon="17.6108433">
        <ele>27.5349</ele>
        <time>2013-04-27T12:37:47Z</time>
      </trkpt>
      <trkpt lat="59.9045299" lon="17.6109571">
        <ele>27.5349</ele>
        <time>2013-04-27T12:37:48Z</time>
      </trkpt>
      <trkpt lat="59.9045007" lon="17.6110643">
        <ele>27.5349</ele>
        <time>2013-04-27T12:37:49Z</time>
      </trkpt>
      <trkpt lat="59.9044621" lon="17.6111582">
        <ele>27.5349</ele>
        <time>2013-04-27T12:37:50Z</time>
      </trkpt>
      <trkpt lat="59.9044141" lon="17.611239">
        <ele>27.5349</ele>
        <time>2013-04-27T12:37:51Z</time>
      </trkpt>
      <trkpt lat="59.9043616" lon="17.6113135">
        <ele>27.5349</ele>
        <time>2013-04-27T12:37:52Z</time>
      </trkpt>
      <trkpt lat="59.9043075" lon="17.6113844">
        <ele>27.5349</ele>
        <time>2013-04-27T12:37:53Z</time>
      </trkpt>
      <trkpt lat="59.9042533" lon="17.6114535">
        <ele>27.5349</ele>
        <time>2013-04-27T12:37:54Z</time>
      </trkpt>
      <trkpt lat="59.9041995" lon="17.6115229">
        <ele>27.5349</ele>
        <time>2013-04-27T12:37:55Z</time>
      </trkpt>
      <trkpt lat="59.9041474" lon="17.6115955">
        <ele>27.0543</ele>
        <time>2013-04-27T12:37:56Z</time>
      </trkpt>
      <trkpt lat="59.9040976" lon="17.6116731">
        <ele>27.0543</ele>
        <time>2013-04-27T12:37:57Z</time>
      </trkpt>
      <trkpt lat="59.9040493" lon="17.611757">
        <ele>27.0543</ele>
        <time>2013-04-27T12:37:58Z</time>
      </trkpt>
      <trkpt lat="59.9040037" lon="17.6118504">
        <ele>27.0543</ele>
        <time>2013-04-27T12:37:59Z</time>
      </trkpt>
      <trkpt lat="59.9039625" lon="17.6119542">
        <ele>27.0543</ele>
        <time>2013-04-27T12:38:00Z</time>
      </trkpt>
      <trkpt lat="59.9039262" lon="17.6120645">
        <ele>27.0543</ele>
        <time>2013-04-27T12:38:01Z</time>
      </trkpt>
      <trkpt lat="59.903895" lon="17.6121797">
        <ele>27.0543</ele>
        <time>2013-04-27T12:38:02Z</time>
      </trkpt>
      <trkpt lat="59.9038671" lon="17.6122989">
        <ele>27.0543</ele>
        <time>2013-04-27T12:38:03Z</time>
      </trkpt>
      <trkpt lat="59.9038407" lon="17.6124236">
        <ele>27.0543</ele>
        <time>2013-04-27T12:38:04Z</time>
      </trkpt>
      <trkpt lat="59.9038148" lon="17.6125516">
        <ele>26.5736</ele>
        <time>2013-04-27T12:38:05Z</time>
      </trkpt>
      <trkpt lat="59.9037895" lon="17.6126796">
        <ele>26.5736</ele>
        <time>2013-04-27T12:38:06Z</time>
      </trkpt>
      <trkpt lat="59.9037641" lon="17.6128067">
        <ele>26.5736</ele>
        <time>2013-04-27T12:38:07Z</time>
      </trkpt>
      <trkpt lat="59.903739" lon="17.6129335">
        <ele>26.5736</ele>
        <time>2013-04-27T12:38:08Z</time>
      </trkpt>
      <trkpt lat="59.9037137" lon="17.6130609">
        <ele>26.5736</ele>
        <time>2013-04-27T12:38:09Z</time>
      </trkpt>
      <trkpt lat="59.9036888" lon="17.61319">
        <ele>26.5736</ele>
        <time>2013-04-27T12:38:10Z</time>
      </trkpt>
      <trkpt lat="59.9036661" lon="17.6133215">
        <ele>26.5736</ele>
        <time>2013-04-27T12:38:11Z</time>
      </trkpt>
      <trkpt lat="59.9036455" lon="17.6134539">
        <ele>26.5736</ele>
        <time>2013-04-27T12:38:12Z</time>
      </trkpt>
      <trkpt lat="59.9036245" lon="17.613582">
        <ele>26.5736</ele>
        <time>2013-04-27T12:38:13Z</time>
      </trkpt>
      <trkpt lat="59.903604" lon="17.6137069">
        <ele>26.5736</ele>
        <time>2013-04-27T12:38:14Z</time>
      </trkpt>
      <trkpt lat="59.9035869" lon="17.613831">
        <ele>26.5736</ele>
        <time>2013-04-27T12:38:15Z</time>
      </trkpt>
      <trkpt lat="59.9035724" lon="17.6139564">
        <ele>26.5736</ele>
        <time>2013-04-27T12:38:16Z</time>
      </trkpt>
      <trkpt lat="59.903561" lon="17.6140846">
        <ele>27.0543</ele>
        <time>2013-04-27T12:38:17Z</time>
      </trkpt>
      <trkpt lat="59.9035536" lon="17.6142184">
        <ele>27.0543</ele>
        <time>2013-04-27T12:38:18Z</time>
      </trkpt>
      <trkpt lat="59.903549" lon="17.6143527">
        <ele>27.5349</ele>
        <time>2013-04-27T12:38:19Z</time>
      </trkpt>
      <trkpt lat="59.9035458" lon="17.614485">
        <ele>27.5349</ele>
        <time>2013-04-27T12:38:20Z</time>
      </trkpt>
      <trkpt lat="59.9035411" lon="17.614614">
        <ele>27.5349</ele>
        <time>2013-04-27T12:38:21Z</time>
      </trkpt>
      <trkpt lat="59.9035354" lon="17.6147406">
        <ele>28.0155</ele>
        <time>2013-04-27T12:38:22Z</time>
      </trkpt>
      <trkpt lat="59.90353" lon="17.6148677">
        <ele>28.0155</ele>
        <time>2013-04-27T12:38:23Z</time>
      </trkpt>
      <trkpt lat="59.903524" lon="17.6149963">
        <ele>28.0155</ele>
        <time>2013-04-27T12:38:24Z</time>
      </trkpt>
      <trkpt lat="59.903517" lon="17.6151277">
        <ele>28.0155</ele>
        <time>2013-04-27T12:38:25Z</time>
      </trkpt>
      <trkpt lat="59.9035069" lon="17.6152596">
        <ele>28.4962</ele>
        <time>2013-04-27T12:38:26Z</time>
      </trkpt>
      <trkpt lat="59.9034909" lon="17.6153869">
        <ele>28.4962</ele>
        <time>2013-04-27T12:38:27Z</time>
      </trkpt>
      <trkpt lat="59.9034706" lon="17.6155076">
        <ele>28.9769</ele>
        <time>2013-04-27T12:38:28Z</time>
      </trkpt>
      <trkpt lat="59.9034475" lon="17.6156234">
        <ele>28.9769</ele>
        <time>2013-04-27T12:38:29Z</time>
      </trkpt>
      <trkpt lat="59.9034224" lon="17.615738">
        <ele>28.9769</ele>
        <time>2013-04-27T12:38:30Z</time>
      </trkpt>
      <trkpt lat="59.9033947" lon="17.6158518">
        <ele>28.9769</ele>
        <time>2013-04-27T12:38:31Z</time>
      </trkpt>
      <trkpt lat="59.9033662" lon="17.6159632">
        <ele>29.4575</ele>
        <time>2013-04-27T12:38:32Z</time>
      </trkpt>
      <trkpt lat="59.9033378" lon="17.6160736">
        <ele>29.4575</ele>
        <time>2013-04-27T12:38:33Z</time>
      </trkpt>
      <trkpt lat="59.9033087" lon="17.6161827">
        <ele>29.4575</ele>
        <time>2013-04-27T12:38:34Z</time>
      </trkpt>
      <trkpt lat="59.9032788" lon="17.6162891">
        <ele>29.4575</ele>
        <time>2013-04-27T12:38:35Z</time>
      </trkpt>
      <trkpt lat="59.903249" lon="17.6163965">
        <ele>29.4575</ele>
        <time>2013-04-27T12:38:36Z</time>
      </trkpt>
      <trkpt lat="59.9032186" lon="17.6165063">
        <ele>29.4575</ele>
        <time>2013-04-27T12:38:37Z</time>
      </trkpt>
      <trkpt lat="59.9031876" lon="17.6166168">
        <ele>29.4575</ele>
        <time>2013-04-27T12:38:38Z</time>
      </trkpt>
      <trkpt lat="59.9031565" lon="17.6167268">
        <ele>29.4575</ele>
        <time>2013-04-27T12:38:39Z</time>
      </trkpt>
      <trkpt lat="59.9031246" lon="17.6168372">
        <ele>28.9769</ele>
        <time>2013-04-27T12:38:40Z</time>
      </trkpt>
      <trkpt lat="59.9030916" lon="17.6169504">
        <ele>28.9769</ele>
        <time>2013-04-27T12:38:41Z</time>
      </trkpt>
      <trkpt lat="59.9030585" lon="17.6170651">
        <ele>28.9769</ele>
        <time>2013-04-27T12:38:42Z</time>
      </trkpt>
      <trkpt lat="59.9030252" lon="17.6171809">
        <ele>28.9769</ele>
        <time>2013-04-27T12:38:43Z</time>
      </trkpt>
      <trkpt lat="59.9029911" lon="17.617298">
        <ele>28.9769</ele>
        <time>2013-04-27T12:38:44Z</time>
      </trkpt>
      <trkpt lat="59.902956" lon="17.6174162">
        <ele>28.4962</ele>
        <time>2013-04-27T12:38:45Z</time>
      </trkpt>
      <trkpt lat="59.9029201" lon="17.6175354">
        <ele>28.4962</ele>
        <time>2013-04-27T12:38:46Z</time>
      </trkpt>
      <trkpt lat="59.9028825" lon="17.6176567">
        <ele>28.4962</ele>
        <time>2013-04-27T12:38:47Z</time>
      </trkpt>
      <trkpt lat="59.902844" lon="17.6177805">
        <ele>28.4962</ele>
        <time>2013-04-27T12:38:48Z</time>
      </trkpt>
      <trkpt lat="59.9028046" lon="17.6179053">
        <ele>28.0155</ele>
        <time>2013-04-27T12:38:49Z</time>
      </trkpt>
      <trkpt lat="59.9027638" lon="17.6180294">
        <ele>28.0155</ele>
        <time>2013-04-27T12:38:50Z</time>
      </trkpt>
      <trkpt lat="59.9027219" lon="17.6181519">
        <ele>28.0155</ele>
        <time>2013-04-27T12:38:51Z</time>
      </trkpt>
      <trkpt lat="59.9026798" lon="17.6182741">
        <ele>28.0155</ele>
        <time>2013-04-27T12:38:52Z</time>
      </trkpt>
      <trkpt lat="59.9026373" lon="17.6183962">
        <ele>28.0155</ele>
        <time>2013-04-27T12:38:53Z</time>
      </trkpt>
      <trkpt lat="59.9025938" lon="17.6185175">
        <ele>28.0155</ele>
        <time>2013-04-27T12:38:54Z</time>
      </trkpt>
      <trkpt lat="59.9025492" lon="17.6186382">
        <ele>28.0155</ele>
        <time>2013-04-27T12:38:55Z</time>
      </trkpt>
      <trkpt lat="59.9025038" lon="17.6187591">
        <ele>28.0155</ele>
        <time>2013-04-27T12:38:56Z</time>
      </trkpt>
      <trkpt lat="59.9024589" lon="17.6188802">
        <ele>28.0155</ele>
        <time>2013-04-27T12:38:57Z</time>
      </trkpt>
      <trkpt lat="59.9024135" lon="17.6189994">
        <ele>28.0155</ele>
        <time>2013-04-27T12:38:58Z</time>
      </trkpt>
      <trkpt lat="59.9023675" lon="17.6191165">
        <ele>28.0155</ele>
        <time>2013-04-27T12:38:59Z</time>
      </trkpt>
      <trkpt lat="59.9023208" lon="17.6192323">
        <ele>28.0155</ele>
        <time>2013-04-27T12:39:00Z</time>
      </trkpt>
      <trkpt lat="59.9022737" lon="17.6193485">
        <ele>28.0155</ele>
        <time>2013-04-27T12:39:01Z</time>
      </trkpt>
      <trkpt lat="59.9022272" lon="17.6194659">
        <ele>28.0155</ele>
        <time>2013-04-27T12:39:02Z</time>
      </trkpt>
      <trkpt lat="59.9021809" lon="17.6195832">
        <ele>28.0155</ele>
        <time>2013-04-27T12:39:03Z</time>
      </trkpt>
      <trkpt lat="59.9021338" lon="17.6197007">
        <ele>28.0155</ele>
        <time>2013-04-27T12:39:04Z</time>
      </trkpt>
      <trkpt lat="59.9020858" lon="17.6198173">
        <ele>28.0155</ele>
        <time>2013-04-27T12:39:05Z</time>
      </trkpt>
      <trkpt lat="59.9020375" lon="17.6199327">
        <ele>28.0155</ele>
        <time>2013-04-27T12:39:06Z</time>
      </trkpt>
      <trkpt lat="59.9019902" lon="17.6200482">
        <ele>28.0155</ele>
        <time>2013-04-27T12:39:07Z</time>
      </trkpt>
      <trkpt lat="59.9019433" lon="17.6201637">
        <ele>28.0155</ele>
        <time>2013-04-27T12:39:08Z</time>
      </trkpt>
      <trkpt lat="59.9018967" lon="17.6202783">
        <ele>28.0155</ele>
        <time>2013-04-27T12:39:09Z</time>
      </trkpt>
      <trkpt lat="59.9018503" lon="17.6203944">
        <ele>28.0155</ele>
        <time>2013-04-27T12:39:10Z</time>
      </trkpt>
      <trkpt lat="59.9018044" lon="17.6205126">
        <ele>28.0155</ele>
        <time>2013-04-27T12:39:11Z</time>
      </trkpt>
      <trkpt lat="59.9017588" lon="17.6206319">
        <ele>28.0155</ele>
        <time>2013-04-27T12:39:12Z</time>
      </trkpt>
      <trkpt lat="59.9017144" lon="17.6207522">
        <ele>28.0155</ele>
        <time>2013-04-27T12:39:13Z</time>
      </trkpt>
      <trkpt lat="59.9016718" lon="17.620873">
        <ele>28.0155</ele>
        <time>2013-04-27T12:39:14Z</time>
      </trkpt>
      <trkpt lat="59.901631" lon="17.6209937">
        <ele>28.0155</ele>
        <time>2013-04-27T12:39:15Z</time>
      </trkpt>
      <trkpt lat="59.9015925" lon="17.6211144">
        <ele>28.0155</ele>
        <time>2013-04-27T12:39:16Z</time>
      </trkpt>
      <trkpt lat="59.9015557" lon="17.6212371">
        <ele>28.0155</ele>
        <time>2013-04-27T12:39:17Z</time>
      </trkpt>
      <trkpt lat="59.9015195" lon="17.6213631">
        <ele>28.4962</ele>
        <time>2013-04-27T12:39:18Z</time>
      </trkpt>
      <trkpt lat="59.9014841" lon="17.621492">
        <ele>28.4962</ele>
        <time>2013-04-27T12:39:19Z</time>
      </trkpt>
      <trkpt lat="59.9014511" lon="17.6216227">
        <ele>28.4962</ele>
        <time>2013-04-27T12:39:20Z</time>
      </trkpt>
      <trkpt lat="59.9014203" lon="17.6217526">
        <ele>28.4962</ele>
        <time>2013-04-27T12:39:21Z</time>
      </trkpt>
      <trkpt lat="59.9013894" lon="17.6218799">
        <ele>28.4962</ele>
        <time>2013-04-27T12:39:22Z</time>
      </trkpt>
      <trkpt lat="59.9013589" lon="17.6220046">
        <ele>28.4962</ele>
        <time>2013-04-27T12:39:23Z</time>
      </trkpt>
      <trkpt lat="59.9013299" lon="17.6221276">
        <ele>28.4962</ele>
        <time>2013-04-27T12:39:24Z</time>
      </trkpt>
      <trkpt lat="59.9013009" lon="17.6222491">
        <ele>28.9769</ele>
        <time>2013-04-27T12:39:25Z</time>
      </trkpt>
      <trkpt lat="59.9012712" lon="17.622371">
        <ele>28.9769</ele>
        <time>2013-04-27T12:39:26Z</time>
      </trkpt>
      <trkpt lat="59.9012421" lon="17.6224929">
        <ele>28.4962</ele>
        <time>2013-04-27T12:39:27Z</time>
      </trkpt>
      <trkpt lat="59.9012129" lon="17.6226156">
        <ele>28.4962</ele>
        <time>2013-04-27T12:39:28Z</time>
      </trkpt>
      <trkpt lat="59.9011838" lon="17.6227387">
        <ele>28.0155</ele>
        <time>2013-04-27T12:39:29Z</time>
      </trkpt>
      <trkpt lat="59.9011558" lon="17.6228616">
        <ele>28.0155</ele>
        <time>2013-04-27T12:39:30Z</time>
      </trkpt>
      <trkpt lat="59.9011282" lon="17.6229814">
        <ele>28.0155</ele>
        <time>2013-04-27T12:39:31Z</time>
      </trkpt>
      <trkpt lat="59.9011015" lon="17.6230983">
        <ele>28.0155</ele>
        <time>2013-04-27T12:39:32Z</time>
      </trkpt>
      <trkpt lat="59.9010779" lon="17.6232154">
        <ele>28.0155</ele>
        <time>2013-04-27T12:39:33Z</time>
      </trkpt>
      <trkpt lat="59.9010552" lon="17.6233316">
        <ele>28.0155</ele>
        <time>2013-04-27T12:39:34Z</time>
      </trkpt>
      <trkpt lat="59.9010318" lon="17.6234443">
        <ele>28.0155</ele>
        <time>2013-04-27T12:39:35Z</time>
      </trkpt>
      <trkpt lat="59.9010092" lon="17.6235558">
        <ele>28.0155</ele>
        <time>2013-04-27T12:39:36Z</time>
      </trkpt>
      <trkpt lat="59.9009883" lon="17.6236683">
        <ele>28.0155</ele>
        <time>2013-04-27T12:39:37Z</time>
      </trkpt>
      <trkpt lat="59.9009691" lon="17.6237806">
        <ele>28.0155</ele>
        <time>2013-04-27T12:39:38Z</time>
      </trkpt>
      <trkpt lat="59.9009508" lon="17.6238916">
        <ele>28.0155</ele>
        <time>2013-04-27T12:39:39Z</time>
      </trkpt>
      <trkpt lat="59.900934" lon="17.6240013">
        <ele>28.0155</ele>
        <time>2013-04-27T12:39:40Z</time>
      </trkpt>
      <trkpt lat="59.9009186" lon="17.62411">
        <ele>28.0155</ele>
        <time>2013-04-27T12:39:41Z</time>
      </trkpt>
      <trkpt lat="59.9009042" lon="17.6242168">
        <ele>28.0155</ele>
        <time>2013-04-27T12:39:42Z</time>
      </trkpt>
      <trkpt lat="59.9008912" lon="17.6243209">
        <ele>28.4962</ele>
        <time>2013-04-27T12:39:43Z</time>
      </trkpt>
      <trkpt lat="59.9008793" lon="17.6244227">
        <ele>28.4962</ele>
        <time>2013-04-27T12:39:44Z</time>
      </trkpt>
      <trkpt lat="59.9008689" lon="17.6245213">
        <ele>28.9769</ele>
        <time>2013-04-27T12:39:45Z</time>
      </trkpt>
      <trkpt lat="59.9008585" lon="17.6246146">
        <ele>28.9769</ele>
        <time>2013-04-27T12:39:46Z</time>
      </trkpt>
      <trkpt lat="59.9008469" lon="17.6247007">
        <ele>28.9769</ele>
        <time>2013-04-27T12:39:47Z</time>
      </trkpt>
      <trkpt lat="59.9008374" lon="17.6247851">
        <ele>29.4575</ele>
        <time>2013-04-27T12:39:48Z</time>
      </trkpt>
      <trkpt lat="59.9008304" lon="17.6248695">
        <ele>29.9381</ele>
        <time>2013-04-27T12:39:49Z</time>
      </trkpt>
      <trkpt lat="59.9008225" lon="17.624954">
        <ele>29.9381</ele>
        <time>2013-04-27T12:39:50Z</time>
      </trkpt>
      <trkpt lat="59.9008164" lon="17.625046">
        <ele>29.9381</ele>
        <time>2013-04-27T12:39:51Z</time>
      </trkpt>
      <trkpt lat="59.9008113" lon="17.6251444">
        <ele>29.9381</ele>
        <time>2013-04-27T12:39:52Z</time>
      </trkpt>
      <trkpt lat="59.9008072" lon="17.6252471">
        <ele>29.9381</ele>
        <time>2013-04-27T12:39:53Z</time>
      </trkpt>
      <trkpt lat="59.9008026" lon="17.6253513">
        <ele>29.4575</ele>
        <time>2013-04-27T12:39:54Z</time>
      </trkpt>
      <trkpt lat="59.9007983" lon="17.625457">
        <ele>29.4575</ele>
        <time>2013-04-27T12:39:55Z</time>
      </trkpt>
      <trkpt lat="59.9007952" lon="17.6255665">
        <ele>28.9769</ele>
        <time>2013-04-27T12:39:56Z</time>
      </trkpt>
      <trkpt lat="59.9007904" lon="17.6256737">
        <ele>28.4962</ele>
        <time>2013-04-27T12:39:57Z</time>
      </trkpt>
      <trkpt lat="59.9007839" lon="17.6257795">
        <ele>28.4962</ele>
        <time>2013-04-27T12:39:58Z</time>
      </trkpt>
      <trkpt lat="59.9007777" lon="17.6258857">
        <ele>28.0155</ele>
        <time>2013-04-27T12:39:59Z</time>
      </trkpt>
      <trkpt lat="59.9007725" lon="17.6259946">
        <ele>28.0155</ele>
        <time>2013-04-27T12:40:00Z</time>
      </trkpt>
      <trkpt lat="59.9007692" lon="17.6261044">
        <ele>27.5349</ele>
        <time>2013-04-27T12:40:01Z</time>
      </trkpt>
      <trkpt lat="59.9007682" lon="17.626211">
        <ele>27.0543</ele>
        <time>2013-04-27T12:40:02Z</time>
      </trkpt>
      <trkpt lat="59.9007704" lon="17.6263208">
        <ele>27.0543</ele>
        <time>2013-04-27T12:40:03Z</time>
      </trkpt>
      <trkpt lat="59.9007749" lon="17.6264362">
        <ele>26.5736</ele>
        <time>2013-04-27T12:40:04Z</time>
      </trkpt>
      <trkpt lat="59.9007811" lon="17.6265519">
        <ele>25.6123</ele>
        <time>2013-04-27T12:40:05Z</time>
      </trkpt>
      <trkpt lat="59.9007928" lon="17.6266706">
        <ele>25.1317</ele>
        <time>2013-04-27T12:40:06Z</time>
      </trkpt>
      <trkpt lat="59.9008097" lon="17.6267887">
        <ele>25.1317</ele>
        <time>2013-04-27T12:40:07Z</time>
      </trkpt>
      <trkpt lat="59.9008305" lon="17.626904">
        <ele>24.651</ele>
        <time>2013-04-27T12:40:08Z</time>
      </trkpt>
      <trkpt lat="59.9008547" lon="17.6270146">
        <ele>24.651</ele>
        <time>2013-04-27T12:40:09Z</time>
      </trkpt>
      <trkpt lat="59.9008809" lon="17.6271231">
        <ele>24.1703</ele>
        <time>2013-04-27T12:40:10Z</time>
      </trkpt>
      <trkpt lat="59.9009093" lon="17.6272324">
        <ele>24.1703</ele>
        <time>2013-04-27T12:40:11Z</time>
      </trkpt>
      <trkpt lat="59.9009398" lon="17.6273422">
        <ele>23.6896</ele>
        <time>2013-04-27T12:40:12Z</time>
      </trkpt>
      <trkpt lat="59.9009718" lon="17.6274531">
        <ele>23.6896</ele>
        <time>2013-04-27T12:40:13Z</time>
      </trkpt>
      <trkpt lat="59.901003" lon="17.627566">
        <ele>23.6896</ele>
        <time>2013-04-27T12:40:14Z</time>
      </trkpt>
      <trkpt lat="59.9010349" lon="17.6276821">
        <ele>23.6896</ele>
        <time>2013-04-27T12:40:15Z</time>
      </trkpt>
      <trkpt lat="59.9010689" lon="17.6277994">
        <ele>23.6896</ele>
        <time>2013-04-27T12:40:16Z</time>
      </trkpt>
      <trkpt lat="59.901103" lon="17.6279141">
        <ele>23.6896</ele>
        <time>2013-04-27T12:40:17Z</time>
      </trkpt>
      <trkpt lat="59.9011362" lon="17.6280257">
        <ele>23.6896</ele>
        <time>2013-04-27T12:40:18Z</time>
      </trkpt>
      <trkpt lat="59.9011625" lon="17.6281385">
        <ele>23.6896</ele>
        <time>2013-04-27T12:40:19Z</time>
      </trkpt>
      <trkpt lat="59.9011847" lon="17.6282539">
        <ele>23.6896</ele>
        <time>2013-04-27T12:40:20Z</time>
      </trkpt>
      <trkpt lat="59.9012079" lon="17.6283676">
        <ele>23.6896</ele>
        <time>2013-04-27T12:40:21Z</time>
      </trkpt>
      <trkpt lat="59.9012299" lon="17.6284826">
        <ele>23.209</ele>
        <time>2013-04-27T12:40:22Z</time>
      </trkpt>
      <trkpt lat="59.9012495" lon="17.6285995">
        <ele>23.209</ele>
        <time>2013-04-27T12:40:23Z</time>
      </trkpt>
      <trkpt lat="59.901267" lon="17.6287177">
        <ele>23.209</ele>
        <time>2013-04-27T12:40:24Z</time>
      </trkpt>
      <trkpt lat="59.9012807" lon="17.62884">
        <ele>23.209</ele>
        <time>2013-04-27T12:40:25Z</time>
      </trkpt>
      <trkpt lat="59.9012913" lon="17.6289657">
        <ele>23.209</ele>
        <time>2013-04-27T12:40:26Z</time>
      </trkpt>
      <trkpt lat="59.9013008" lon="17.6290918">
        <ele>23.209</ele>
        <time>2013-04-27T12:40:27Z</time>
      </trkpt>
      <trkpt lat="59.9013092" lon="17.6292196">
        <ele>22.7283</ele>
        <time>2013-04-27T12:40:28Z</time>
      </trkpt>
      <trkpt lat="59.9013173" lon="17.6293467">
        <ele>22.7283</ele>
        <time>2013-04-27T12:40:29Z</time>
      </trkpt>
      <trkpt lat="59.901325" lon="17.6294715">
        <ele>22.7283</ele>
        <time>2013-04-27T12:40:30Z</time>
      </trkpt>
      <trkpt lat="59.901333" lon="17.6295942">
        <ele>22.7283</ele>
        <time>2013-04-27T12:40:31Z</time>
      </trkpt>
      <trkpt lat="59.9013416" lon="17.629717">
        <ele>22.7283</ele>
        <time>2013-04-27T12:40:32Z</time>
      </trkpt>
      <trkpt lat="59.9013505" lon="17.6298409">
        <ele>22.7283</ele>
        <time>2013-04-27T12:40:33Z</time>
      </trkpt>
      <trkpt lat="59.9013579" lon="17.6299651">
        <ele>22.2476</ele>
        <time>2013-04-27T12:40:34Z</time>
      </trkpt>
      <trkpt lat="59.9013639" lon="17.6300884">
        <ele>22.2476</ele>
        <time>2013-04-27T12:40:35Z</time>
      </trkpt>
      <trkpt lat="59.9013702" lon="17.6302082">
        <ele>22.2476</ele>
        <time>2013-04-27T12:40:36Z</time>
      </trkpt>
      <trkpt lat="59.9013765" lon="17.6303271">
        <ele>22.2476</ele>
        <time>2013-04-27T12:40:37Z</time>
      </trkpt>
      <trkpt lat="59.9013822" lon="17.630447">
        <ele>22.2476</ele>
        <time>2013-04-27T12:40:38Z</time>
      </trkpt>
      <trkpt lat="59.9013852" lon="17.6305648">
        <ele>21.767</ele>
        <time>2013-04-27T12:40:39Z</time>
      </trkpt>
      <trkpt lat="59.9013879" lon="17.6306814">
        <ele>22.2476</ele>
        <time>2013-04-27T12:40:40Z</time>
      </trkpt>
      <trkpt lat="59.9013874" lon="17.6308">
        <ele>22.2476</ele>
        <time>2013-04-27T12:40:41Z</time>
      </trkpt>
      <trkpt lat="59.9013861" lon="17.6309206">
        <ele>22.2476</ele>
        <time>2013-04-27T12:40:42Z</time>
      </trkpt>
      <trkpt lat="59.9013805" lon="17.6310418">
        <ele>22.7283</ele>
        <time>2013-04-27T12:40:43Z</time>
      </trkpt>
      <trkpt lat="59.9013704" lon="17.6311638">
        <ele>22.2476</ele>
        <time>2013-04-27T12:40:44Z</time>
      </trkpt>
      <trkpt lat="59.9013584" lon="17.6312882">
        <ele>22.2476</ele>
        <time>2013-04-27T12:40:45Z</time>
      </trkpt>
      <trkpt lat="59.9013429" lon="17.6314151">
        <ele>22.2476</ele>
        <time>2013-04-27T12:40:46Z</time>
      </trkpt>
      <trkpt lat="59.901325" lon="17.6315383">
        <ele>22.2476</ele>
        <time>2013-04-27T12:40:47Z</time>
      </trkpt>
      <trkpt lat="59.9013046" lon="17.6316574">
        <ele>22.2476</ele>
        <time>2013-04-27T12:40:48Z</time>
      </trkpt>
      <trkpt lat="59.9012812" lon="17.6317756">
        <ele>22.7283</ele>
        <time>2013-04-27T12:40:49Z</time>
      </trkpt>
      <trkpt lat="59.9012539" lon="17.6318947">
        <ele>22.7283</ele>
        <time>2013-04-27T12:40:50Z</time>
      </trkpt>
      <trkpt lat="59.9012247" lon="17.6320128">
        <ele>22.7283</ele>
        <time>2013-04-27T12:40:51Z</time>
      </trkpt>
      <trkpt lat="59.9011921" lon="17.6321278">
        <ele>22.7283</ele>
        <time>2013-04-27T12:40:52Z</time>
      </trkpt>
      <trkpt lat="59.9011558" lon="17.6322402">
        <ele>23.209</ele>
        <time>2013-04-27T12:40:53Z</time>
      </trkpt>
      <trkpt lat="59.9011168" lon="17.632349">
        <ele>23.209</ele>
        <time>2013-04-27T12:40:54Z</time>
      </trkpt>
      <trkpt lat="59.9010761" lon="17.6324526">
        <ele>23.209</ele>
        <time>2013-04-27T12:40:55Z</time>
      </trkpt>
      <trkpt lat="59.9010331" lon="17.6325509">
        <ele>23.209</ele>
        <time>2013-04-27T12:40:56Z</time>
      </trkpt>
      <trkpt lat="59.9009869" lon="17.6326448">
        <ele>23.6896</ele>
        <time>2013-04-27T12:40:57Z</time>
      </trkpt>
      <trkpt lat="59.9009384" lon="17.6327363">
        <ele>23.6896</ele>
        <time>2013-04-27T12:40:58Z</time>
      </trkpt>
      <trkpt lat="59.90089" lon="17.6328275">
        <ele>23.6896</ele>
        <time>2013-04-27T12:40:59Z</time>
      </trkpt>
      <trkpt lat="59.9008402" lon="17.6329157">
        <ele>24.1703</ele>
        <time>2013-04-27T12:41:00Z</time>
      </trkpt>
      <trkpt lat="59.9007876" lon="17.633002">
        <ele>24.1703</ele>
        <time>2013-04-27T12:41:01Z</time>
      </trkpt>
      <trkpt lat="59.9007321" lon="17.6330846">
        <ele>24.1703</ele>
        <time>2013-04-27T12:41:02Z</time>
      </trkpt>
      <trkpt lat="59.9006736" lon="17.633161">
        <ele>24.1703</ele>
        <time>2013-04-27T12:41:03Z</time>
      </trkpt>
      <trkpt lat="59.900615" lon="17.6332374">
        <ele>24.1703</ele>
        <time>2013-04-27T12:41:04Z</time>
      </trkpt>
      <trkpt lat="59.9005569" lon="17.633314">
        <ele>24.1703</ele>
        <time>2013-04-27T12:41:05Z</time>
      </trkpt>
      <trkpt lat="59.9004989" lon="17.63339">
        <ele>24.651</ele>
        <time>2013-04-27T12:41:06Z</time>
      </trkpt>
      <trkpt lat="59.900441" lon="17.6334607">
        <ele>24.651</ele>
        <time>2013-04-27T12:41:07Z</time>
      </trkpt>
      <trkpt lat="59.9003824" lon="17.6335321">
        <ele>25.1317</ele>
        <time>2013-04-27T12:41:08Z</time>
      </trkpt>
      <trkpt lat="59.9003235" lon="17.6336003">
        <ele>25.1317</ele>
        <time>2013-04-27T12:41:09Z</time>
      </trkpt>
      <trkpt lat="59.9002649" lon="17.6336672">
        <ele>25.6123</ele>
        <time>2013-04-27T12:41:10Z</time>
      </trkpt>
      <trkpt lat="59.9002063" lon="17.6337268">
        <ele>25.6123</ele>
        <time>2013-04-27T12:41:11Z</time>
      </trkpt>
      <trkpt lat="59.9001465" lon="17.6337828">
        <ele>25.6123</ele>
        <time>2013-04-27T12:41:12Z</time>
      </trkpt>
      <trkpt lat="59.9000867" lon="17.6338362">
        <ele>25.6123</ele>
        <time>2013-04-27T12:41:13Z</time>
      </trkpt>
      <trkpt lat="59.9000272" lon="17.6338868">
        <ele>25.1317</ele>
        <time>2013-04-27T12:41:14Z</time>
      </trkpt>
      <trkpt lat="59.899968" lon="17.6339337">
        <ele>25.1317</ele>
        <time>2013-04-27T12:41:15Z</time>
      </trkpt>
      <trkpt lat="59.8999078" lon="17.6339785">
        <ele>25.1317</ele>
        <time>2013-04-27T12:41:16Z</time>
      </trkpt>
      <trkpt lat="59.8998471" lon="17.6340178">
        <ele>25.1317</ele>
        <time>2013-04-27T12:41:17Z</time>
      </trkpt>
      <trkpt lat="59.8997863" lon="17.6340473">
        <ele>24.651</ele>
        <time>2013-04-27T12:41:18Z</time>
      </trkpt>
      <trkpt lat="59.899726" lon="17.6340744">
        <ele>24.651</ele>
        <time>2013-04-27T12:41:19Z</time>
      </trkpt>
      <trkpt lat="59.899666" lon="17.6340983">
        <ele>24.1703</ele>
        <time>2013-04-27T12:41:20Z</time>
      </trkpt>
      <trkpt lat="59.8996058" lon="17.6341281">
        <ele>24.1703</ele>
        <time>2013-04-27T12:41:21Z</time>
      </trkpt>
      <trkpt lat="59.8995447" lon="17.634159">
        <ele>24.651</ele>
        <time>2013-04-27T12:41:22Z</time>
      </trkpt>
      <trkpt lat="59.8994852" lon="17.6341884">
        <ele>24.651</ele>
        <time>2013-04-27T12:41:23Z</time>
      </trkpt>
      <trkpt lat="59.8994267" lon="17.6342143">
        <ele>24.651</ele>
        <time>2013-04-27T12:41:24Z</time>
      </trkpt>
      <trkpt lat="59.8993681" lon="17.6342414">
        <ele>24.651</ele>
        <time>2013-04-27T12:41:25Z</time>
      </trkpt>
      <trkpt lat="59.8993092" lon="17.6342725">
        <ele>24.651</ele>
        <time>2013-04-27T12:41:26Z</time>
      </trkpt>
      <trkpt lat="59.8992496" lon="17.6343048">
        <ele>24.1703</ele>
        <time>2013-04-27T12:41:27Z</time>
      </trkpt>
      <trkpt lat="59.8991901" lon="17.6343371">
        <ele>24.1703</ele>
        <time>2013-04-27T12:41:28Z</time>
      </trkpt>
      <trkpt lat="59.8991318" lon="17.6343701">
        <ele>24.1703</ele>
        <time>2013-04-27T12:41:29Z</time>
      </trkpt>
      <trkpt lat="59.8990755" lon="17.634403">
        <ele>24.651</ele>
        <time>2013-04-27T12:41:30Z</time>
      </trkpt>
      <trkpt lat="59.8990185" lon="17.6344267">
        <ele>24.1703</ele>
        <time>2013-04-27T12:41:31Z</time>
      </trkpt>
      <trkpt lat="59.8989614" lon="17.6344436">
        <ele>24.1703</ele>
        <time>2013-04-27T12:41:32Z</time>
      </trkpt>
      <trkpt lat="59.8989035" lon="17.6344509">
        <ele>24.1703</ele>
        <time>2013-04-27T12:41:33Z</time>
      </trkpt>
      <trkpt lat="59.8988465" lon="17.634453">
        <ele>24.1703</ele>
        <time>2013-04-27T12:41:34Z</time>
      </trkpt>
      <trkpt lat="59.8987917" lon="17.6344531">
        <ele>24.1703</ele>
        <time>2013-04-27T12:41:35Z</time>
      </trkpt>
      <trkpt lat="59.8987373" lon="17.6344524">
        <ele>24.651</ele>
        <time>2013-04-27T12:41:36Z</time>
      </trkpt>
      <trkpt lat="59.8986843" lon="17.634449">
        <ele>25.1317</ele>
        <time>2013-04-27T12:41:37Z</time>
      </trkpt>
      <trkpt lat="59.8986327" lon="17.6344424">
        <ele>25.1317</ele>
        <time>2013-04-27T12:41:38Z</time>
      </trkpt>
      <trkpt lat="59.898582" lon="17.6344335">
        <ele>25.6123</ele>
        <time>2013-04-27T12:41:39Z</time>
      </trkpt>
      <trkpt lat="59.8985326" lon="17.6344258">
        <ele>26.0929</ele>
        <time>2013-04-27T12:41:40Z</time>
      </trkpt>
      <trkpt lat="59.8984846" lon="17.6344216">
        <ele>26.0929</ele>
        <time>2013-04-27T12:41:41Z</time>
      </trkpt>
      <trkpt lat="59.8984393" lon="17.6344172">
        <ele>26.5736</ele>
        <time>2013-04-27T12:41:42Z</time>
      </trkpt>
      <trkpt lat="59.8983985" lon="17.6344112">
        <ele>27.0543</ele>
        <time>2013-04-27T12:41:43Z</time>
      </trkpt>
      <trkpt lat="59.8983632" lon="17.6344065">
        <ele>27.5349</ele>
        <time>2013-04-27T12:41:44Z</time>
      </trkpt>
      <trkpt lat="59.8983306" lon="17.6344029">
        <ele>28.0155</ele>
        <time>2013-04-27T12:41:45Z</time>
      </trkpt>
      <trkpt lat="59.898299" lon="17.6344011">
        <ele>28.0155</ele>
        <time>2013-04-27T12:41:46Z</time>
      </trkpt>
      <trkpt lat="59.8982695" lon="17.6344032">
        <ele>28.0155</ele>
        <time>2013-04-27T12:41:47Z</time>
      </trkpt>
      <trkpt lat="59.8982444" lon="17.6344061">
        <ele>28.4962</ele>
        <time>2013-04-27T12:41:48Z</time>
      </trkpt>
      <trkpt lat="59.8982218" lon="17.63441">
        <ele>28.4962</ele>
        <time>2013-04-27T12:41:49Z</time>
      </trkpt>
      <trkpt lat="59.8982028" lon="17.6344142">
        <ele>28.4962</ele>
        <time>2013-04-27T12:41:50Z</time>
      </trkpt>
      <trkpt lat="59.8981895" lon="17.6344237">
        <ele>28.9769</ele>
        <time>2013-04-27T12:41:51Z</time>
      </trkpt>
      <trkpt lat="59.8981817" lon="17.6344319">
        <ele>28.9769</ele>
        <time>2013-04-27T12:41:52Z</time>
      </trkpt>
      <trkpt lat="59.8981783" lon="17.6344371">
        <ele>29.4575</ele>
        <time>2013-04-27T12:41:53Z</time>
      </trkpt>
      <trkpt lat="59.8981779" lon="17.6344362">
        <ele>28.9769</ele>
        <time>2013-04-27T12:41:54Z</time>
      </trkpt>
      <trkpt lat="59.8981783" lon="17.634435">
        <ele>28.9769</ele>
        <time>2013-04-27T12:41:55Z</time>
      </trkpt>
      <trkpt lat="59.8981794" lon="17.634434">
        <ele>28.9769</ele>
        <time>2013-04-27T12:41:56Z</time>
      </trkpt>
      <trkpt lat="59.898169" lon="17.6344396">
        <ele>29.4575</ele>
        <time>2013-04-27T12:42:49Z</time>
      </trkpt>
      <trkpt lat="59.8981698" lon="17.6344387">
        <ele>29.4575</ele>
        <time>2013-04-27T12:42:50Z</time>
      </trkpt>
      <trkpt lat="59.8981703" lon="17.6344382">
        <ele>29.9381</ele>
        <time>2013-04-27T12:42:51Z</time>
      </trkpt>
      <trkpt lat="59.8981705" lon="17.6344381">
        <ele>29.9381</ele>
        <time>2013-04-27T12:42:52Z</time>
      </trkpt>
      <trkpt lat="59.8981716" lon="17.6344374">
        <ele>29.9381</ele>
        <time>2013-04-27T12:42:53Z</time>
      </trkpt>
      <trkpt lat="59.8981727" lon="17.6344369">
        <ele>29.9381</ele>
        <time>2013-04-27T12:42:54Z</time>
      </trkpt>
      <trkpt lat="59.8981736" lon="17.6344369">
        <ele>29.9381</ele>
        <time>2013-04-27T12:42:55Z</time>
      </trkpt>
      <trkpt lat="59.8981742" lon="17.6344372">
        <ele>29.9381</ele>
        <time>2013-04-27T12:42:56Z</time>
      </trkpt>
      <trkpt lat="59.8981746" lon="17.6344376">
        <ele>29.9381</ele>
        <time>2013-04-27T12:42:57Z</time>
      </trkpt>
      <trkpt lat="59.898175" lon="17.634438">
        <ele>29.9381</ele>
        <time>2013-04-27T12:42:58Z</time>
      </trkpt>
      <trkpt lat="59.8981753" lon="17.6344382">
        <ele>29.9381</ele>
        <time>2013-04-27T12:42:59Z</time>
      </trkpt>
      <trkpt lat="59.8981756" lon="17.6344372">
        <ele>29.9381</ele>
        <time>2013-04-27T12:43:00Z</time>
      </trkpt>
      <trkpt lat="59.8981752" lon="17.634435">
        <ele>29.4575</ele>
        <time>2013-04-27T12:43:01Z</time>
      </trkpt>
      <trkpt lat="59.8981747" lon="17.6344338">
        <ele>29.4575</ele>
        <time>2013-04-27T12:43:02Z</time>
      </trkpt>
      <trkpt lat="59.8981716" lon="17.6344348">
        <ele>29.4575</ele>
        <time>2013-04-27T12:43:03Z</time>
      </trkpt>
      <trkpt lat="59.8981606" lon="17.6344386">
        <ele>28.9769</ele>
        <time>2013-04-27T12:43:04Z</time>
      </trkpt>
      <trkpt lat="59.8981466" lon="17.6344452">
        <ele>29.4575</ele>
        <time>2013-04-27T12:43:05Z</time>
      </trkpt>
      <trkpt lat="59.8981311" lon="17.6344548">
        <ele>28.9769</ele>
        <time>2013-04-27T12:43:06Z</time>
      </trkpt>
      <trkpt lat="59.8981163" lon="17.6344769">
        <ele>28.9769</ele>
        <time>2013-04-27T12:43:07Z</time>
      </trkpt>
      <trkpt lat="59.8981012" lon="17.6345059">
        <ele>28.4962</ele>
        <time>2013-04-27T12:43:08Z</time>
      </trkpt>
      <trkpt lat="59.8980852" lon="17.6345464">
        <ele>28.4962</ele>
        <time>2013-04-27T12:43:09Z</time>
      </trkpt>
      <trkpt lat="59.8980711" lon="17.6345977">
        <ele>28.4962</ele>
        <time>2013-04-27T12:43:10Z</time>
      </trkpt>
      <trkpt lat="59.8980574" lon="17.6346536">
        <ele>28.9769</ele>
        <time>2013-04-27T12:43:11Z</time>
      </trkpt>
      <trkpt lat="59.8980441" lon="17.6347048">
        <ele>28.9769</ele>
        <time>2013-04-27T12:43:12Z</time>
      </trkpt>
      <trkpt lat="59.898027" lon="17.6347485">
        <ele>27.5349</ele>
        <time>2013-04-27T12:43:13Z</time>
      </trkpt>
      <trkpt lat="59.8980064" lon="17.6348127">
        <ele>27.5349</ele>
        <time>2013-04-27T12:43:14Z</time>
      </trkpt>
      <trkpt lat="59.8979789" lon="17.6348805">
        <ele>27.0543</ele>
        <time>2013-04-27T12:43:15Z</time>
      </trkpt>
      <trkpt lat="59.8979456" lon="17.6349395">
        <ele>26.5736</ele>
        <time>2013-04-27T12:43:16Z</time>
      </trkpt>
      <trkpt lat="59.897911" lon="17.6349919">
        <ele>26.5736</ele>
        <time>2013-04-27T12:43:17Z</time>
      </trkpt>
      <trkpt lat="59.8978769" lon="17.6350394">
        <ele>26.5736</ele>
        <time>2013-04-27T12:43:18Z</time>
      </trkpt>
      <trkpt lat="59.8978422" lon="17.6350836">
        <ele>26.5736</ele>
        <time>2013-04-27T12:43:19Z</time>
      </trkpt>
      <trkpt lat="59.8978043" lon="17.6351119">
        <ele>27.0543</ele>
        <time>2013-04-27T12:43:20Z</time>
      </trkpt>
      <trkpt lat="59.8977645" lon="17.6351121">
        <ele>27.0543</ele>
        <time>2013-04-27T12:43:21Z</time>
      </trkpt>
      <trkpt lat="59.8977269" lon="17.6350806">
        <ele>26.0929</ele>
        <time>2013-04-27T12:43:22Z</time>
      </trkpt>
      <trkpt lat="59.8976878" lon="17.6350606">
        <ele>26.5736</ele>
        <time>2013-04-27T12:43:23Z</time>
      </trkpt>
      <trkpt lat="59.8976485" lon="17.6350551">
        <ele>26.5736</ele>
        <time>2013-04-27T12:43:24Z</time>
      </trkpt>
      <trkpt lat="59.8976071" lon="17.6350603">
        <ele>27.0543</ele>
        <time>2013-04-27T12:43:25Z</time>
      </trkpt>
      <trkpt lat="59.8975665" lon="17.6350702">
        <ele>27.0543</ele>
        <time>2013-04-27T12:43:26Z</time>
      </trkpt>
      <trkpt lat="59.897524" lon="17.635083">
        <ele>28.0155</ele>
        <time>2013-04-27T12:43:27Z</time>
      </trkpt>
      <trkpt lat="59.8974791" lon="17.6350966">
        <ele>27.5349</ele>
        <time>2013-04-27T12:43:28Z</time>
      </trkpt>
      <trkpt lat="59.8974323" lon="17.6351113">
        <ele>28.0155</ele>
        <time>2013-04-27T12:43:29Z</time>
      </trkpt>
      <trkpt lat="59.8973817" lon="17.6351292">
        <ele>28.0155</ele>
        <time>2013-04-27T12:43:30Z</time>
      </trkpt>
      <trkpt lat="59.8973302" lon="17.6351479">
        <ele>28.4962</ele>
        <time>2013-04-27T12:43:31Z</time>
      </trkpt>
      <trkpt lat="59.8972802" lon="17.6351666">
        <ele>28.4962</ele>
        <time>2013-04-27T12:43:32Z</time>
      </trkpt>
      <trkpt lat="59.8972318" lon="17.6351852">
        <ele>28.4962</ele>
        <time>2013-04-27T12:43:33Z</time>
      </trkpt>
      <trkpt lat="59.8971832" lon="17.6352022">
        <ele>28.4962</ele>
        <time>2013-04-27T12:43:34Z</time>
      </trkpt>
      <trkpt lat="59.8971338" lon="17.6352188">
        <ele>28.0155</ele>
        <time>2013-04-27T12:43:35Z</time>
      </trkpt>
      <trkpt lat="59.8970832" lon="17.6352369">
        <ele>28.4962</ele>
        <time>2013-04-27T12:43:36Z</time>
      </trkpt>
      <trkpt lat="59.897033" lon="17.6352549">
        <ele>28.4962</ele>
        <time>2013-04-27T12:43:37Z</time>
      </trkpt>
      <trkpt lat="59.8969844" lon="17.6352759">
        <ele>28.4962</ele>
        <time>2013-04-27T12:43:38Z</time>
      </trkpt>
      <trkpt lat="59.8969366" lon="17.6352994">
        <ele>28.4962</ele>
        <time>2013-04-27T12:43:39Z</time>
      </trkpt>
      <trkpt lat="59.8968883" lon="17.6353255">
        <ele>28.0155</ele>
        <time>2013-04-27T12:43:40Z</time>
      </trkpt>
      <trkpt lat="59.8968404" lon="17.6353543">
        <ele>27.5349</ele>
        <time>2013-04-27T12:43:41Z</time>
      </trkpt>
      <trkpt lat="59.8967921" lon="17.635387">
        <ele>27.0543</ele>
        <time>2013-04-27T12:43:42Z</time>
      </trkpt>
      <trkpt lat="59.8967422" lon="17.6354244">
        <ele>27.0543</ele>
        <time>2013-04-27T12:43:43Z</time>
      </trkpt>
      <trkpt lat="59.8966916" lon="17.6354706">
        <ele>26.5736</ele>
        <time>2013-04-27T12:43:44Z</time>
      </trkpt>
      <trkpt lat="59.896641" lon="17.6355265">
        <ele>26.0929</ele>
        <time>2013-04-27T12:43:45Z</time>
      </trkpt>
      <trkpt lat="59.8965901" lon="17.6355853">
        <ele>26.5736</ele>
        <time>2013-04-27T12:43:46Z</time>
      </trkpt>
      <trkpt lat="59.8965414" lon="17.6356549">
        <ele>26.5736</ele>
        <time>2013-04-27T12:43:47Z</time>
      </trkpt>
      <trkpt lat="59.8964964" lon="17.6357295">
        <ele>27.0543</ele>
        <time>2013-04-27T12:43:48Z</time>
      </trkpt>
      <trkpt lat="59.8964506" lon="17.6358063">
        <ele>27.5349</ele>
        <time>2013-04-27T12:43:49Z</time>
      </trkpt>
      <trkpt lat="59.8964009" lon="17.6358787">
        <ele>27.5349</ele>
        <time>2013-04-27T12:43:50Z</time>
      </trkpt>
      <trkpt lat="59.8963499" lon="17.6359486">
        <ele>28.0155</ele>
        <time>2013-04-27T12:43:51Z</time>
      </trkpt>
      <trkpt lat="59.8963005" lon="17.6360263">
        <ele>28.4962</ele>
        <time>2013-04-27T12:43:52Z</time>
      </trkpt>
      <trkpt lat="59.896257" lon="17.6361015">
        <ele>28.4962</ele>
        <time>2013-04-27T12:43:53Z</time>
      </trkpt>
      <trkpt lat="59.8962166" lon="17.6361772">
        <ele>28.9769</ele>
        <time>2013-04-27T12:43:54Z</time>
      </trkpt>
      <trkpt lat="59.8961755" lon="17.6362444">
        <ele>29.4575</ele>
        <time>2013-04-27T12:43:55Z</time>
      </trkpt>
      <trkpt lat="59.8961301" lon="17.6362952">
        <ele>29.4575</ele>
        <time>2013-04-27T12:43:56Z</time>
      </trkpt>
      <trkpt lat="59.8960808" lon="17.6363283">
        <ele>29.4575</ele>
        <time>2013-04-27T12:43:57Z</time>
      </trkpt>
      <trkpt lat="59.8960275" lon="17.6363518">
        <ele>29.9381</ele>
        <time>2013-04-27T12:43:58Z</time>
      </trkpt>
      <trkpt lat="59.8959737" lon="17.6363609">
        <ele>29.9381</ele>
        <time>2013-04-27T12:43:59Z</time>
      </trkpt>
      <trkpt lat="59.8959178" lon="17.6363631">
        <ele>29.9381</ele>
        <time>2013-04-27T12:44:00Z</time>
      </trkpt>
      <trkpt lat="59.8958603" lon="17.6363661">
        <ele>29.9381</ele>
        <time>2013-04-27T12:44:01Z</time>
      </trkpt>
      <trkpt lat="59.8958036" lon="17.6363725">
        <ele>29.9381</ele>
        <time>2013-04-27T12:44:02Z</time>
      </trkpt>
      <trkpt lat="59.8957483" lon="17.6363816">
        <ele>29.9381</ele>
        <time>2013-04-27T12:44:03Z</time>
      </trkpt>
      <trkpt lat="59.8956949" lon="17.636394">
        <ele>29.9381</ele>
        <time>2013-04-27T12:44:04Z</time>
      </trkpt>
      <trkpt lat="59.8956419" lon="17.6364107">
        <ele>29.9381</ele>
        <time>2013-04-27T12:44:05Z</time>
      </trkpt>
      <trkpt lat="59.8955893" lon="17.6364297">
        <ele>29.9381</ele>
        <time>2013-04-27T12:44:06Z</time>
      </trkpt>
      <trkpt lat="59.895537" lon="17.636451">
        <ele>29.9381</ele>
        <time>2013-04-27T12:44:07Z</time>
      </trkpt>
      <trkpt lat="59.8954836" lon="17.6364784">
        <ele>29.9381</ele>
        <time>2013-04-27T12:44:08Z</time>
      </trkpt>
      <trkpt lat="59.8954287" lon="17.6365117">
        <ele>29.9381</ele>
        <time>2013-04-27T12:44:09Z</time>
      </trkpt>
      <trkpt lat="59.8953728" lon="17.6365474">
        <ele>29.9381</ele>
        <time>2013-04-27T12:44:10Z</time>
      </trkpt>
      <trkpt lat="59.8953173" lon="17.6365851">
        <ele>30.4188</ele>
        <time>2013-04-27T12:44:11Z</time>
      </trkpt>
      <trkpt lat="59.8952623" lon="17.6366258">
        <ele>29.9381</ele>
        <time>2013-04-27T12:44:12Z</time>
      </trkpt>
      <trkpt lat="59.8952073" lon="17.636666">
        <ele>29.9381</ele>
        <time>2013-04-27T12:44:13Z</time>
      </trkpt>
      <trkpt lat="59.8951509" lon="17.6367037">
        <ele>29.9381</ele>
        <time>2013-04-27T12:44:14Z</time>
      </trkpt>
      <trkpt lat="59.8950935" lon="17.6367356">
        <ele>29.9381</ele>
        <time>2013-04-27T12:44:15Z</time>
      </trkpt>
      <trkpt lat="59.8950348" lon="17.6367681">
        <ele>29.4575</ele>
        <time>2013-04-27T12:44:16Z</time>
      </trkpt>
      <trkpt lat="59.8949765" lon="17.6368043">
        <ele>29.4575</ele>
        <time>2013-04-27T12:44:17Z</time>
      </trkpt>
      <trkpt lat="59.8949176" lon="17.6368405">
        <ele>29.4575</ele>
        <time>2013-04-27T12:44:18Z</time>
      </trkpt>
      <trkpt lat="59.8948567" lon="17.6368675">
        <ele>29.4575</ele>
        <time>2013-04-27T12:44:19Z</time>
      </trkpt>
      <trkpt lat="59.8947946" lon="17.6368893">
        <ele>29.4575</ele>
        <time>2013-04-27T12:44:20Z</time>
      </trkpt>
      <trkpt lat="59.8947331" lon="17.6369152">
        <ele>29.4575</ele>
        <time>2013-04-27T12:44:21Z</time>
      </trkpt>
      <trkpt lat="59.8946736" lon="17.6369503">
        <ele>29.9381</ele>
        <time>2013-04-27T12:44:22Z</time>
      </trkpt>
      <trkpt lat="59.8946159" lon="17.6369949">
        <ele>29.4575</ele>
        <time>2013-04-27T12:44:23Z</time>
      </trkpt>
      <trkpt lat="59.8945589" lon="17.6370369">
        <ele>29.4575</ele>
        <time>2013-04-27T12:44:24Z</time>
      </trkpt>
      <trkpt lat="59.8945009" lon="17.637073">
        <ele>28.9769</ele>
        <time>2013-04-27T12:44:25Z</time>
      </trkpt>
      <trkpt lat="59.8944444" lon="17.6371068">
        <ele>28.9769</ele>
        <time>2013-04-27T12:44:26Z</time>
      </trkpt>
      <trkpt lat="59.8943894" lon="17.637142">
        <ele>28.9769</ele>
        <time>2013-04-27T12:44:27Z</time>
      </trkpt>
      <trkpt lat="59.8943353" lon="17.6371754">
        <ele>28.9769</ele>
        <time>2013-04-27T12:44:28Z</time>
      </trkpt>
      <trkpt lat="59.8942829" lon="17.6372079">
        <ele>28.4962</ele>
        <time>2013-04-27T12:44:29Z</time>
      </trkpt>
      <trkpt lat="59.8942325" lon="17.6372424">
        <ele>28.9769</ele>
        <time>2013-04-27T12:44:30Z</time>
      </trkpt>
      <trkpt lat="59.894187" lon="17.6372699">
        <ele>28.9769</ele>
        <time>2013-04-27T12:44:31Z</time>
      </trkpt>
      <trkpt lat="59.8941424" lon="17.6372959">
        <ele>28.4962</ele>
        <time>2013-04-27T12:44:32Z</time>
      </trkpt>
      <trkpt lat="59.8940979" lon="17.6373235">
        <ele>28.0155</ele>
        <time>2013-04-27T12:44:33Z</time>
      </trkpt>
      <trkpt lat="59.8940534" lon="17.6373522">
        <ele>28.0155</ele>
        <time>2013-04-27T12:44:34Z</time>
      </trkpt>
      <trkpt lat="59.8940094" lon="17.6373802">
        <ele>28.0155</ele>
        <time>2013-04-27T12:44:35Z</time>
      </trkpt>
      <trkpt lat="59.8939648" lon="17.637411">
        <ele>27.5349</ele>
        <time>2013-04-27T12:44:36Z</time>
      </trkpt>
      <trkpt lat="59.8939202" lon="17.6374421">
        <ele>27.0543</ele>
        <time>2013-04-27T12:44:37Z</time>
      </trkpt>
      <trkpt lat="59.8938743" lon="17.6374755">
        <ele>27.0543</ele>
        <time>2013-04-27T12:44:38Z</time>
      </trkpt>
      <trkpt lat="59.8938285" lon="17.6375123">
        <ele>27.0543</ele>
        <time>2013-04-27T12:44:39Z</time>
      </trkpt>
      <trkpt lat="59.8937815" lon="17.6375494">
        <ele>26.5736</ele>
        <time>2013-04-27T12:44:40Z</time>
      </trkpt>
      <trkpt lat="59.8937332" lon="17.637587">
        <ele>26.5736</ele>
        <time>2013-04-27T12:44:41Z</time>
      </trkpt>
      <trkpt lat="59.8936835" lon="17.6376265">
        <ele>26.5736</ele>
        <time>2013-04-27T12:44:42Z</time>
      </trkpt>
      <trkpt lat="59.8936313" lon="17.6376664">
        <ele>26.5736</ele>
        <time>2013-04-27T12:44:43Z</time>
      </trkpt>
      <trkpt lat="59.8935783" lon="17.6377041">
        <ele>27.0543</ele>
        <time>2013-04-27T12:44:44Z</time>
      </trkpt>
      <trkpt lat="59.893524" lon="17.637741">
        <ele>26.5736</ele>
        <time>2013-04-27T12:44:45Z</time>
      </trkpt>
      <trkpt lat="59.8934702" lon="17.637776">
        <ele>26.5736</ele>
        <time>2013-04-27T12:44:46Z</time>
      </trkpt>
      <trkpt lat="59.893416" lon="17.6378124">
        <ele>26.0929</ele>
        <time>2013-04-27T12:44:47Z</time>
      </trkpt>
      <trkpt lat="59.8933611" lon="17.637847">
        <ele>25.6123</ele>
        <time>2013-04-27T12:44:48Z</time>
      </trkpt>
      <trkpt lat="59.8933063" lon="17.6378834">
        <ele>25.6123</ele>
        <time>2013-04-27T12:44:49Z</time>
      </trkpt>
      <trkpt lat="59.8932518" lon="17.6379184">
        <ele>25.6123</ele>
        <time>2013-04-27T12:44:50Z</time>
      </trkpt>
      <trkpt lat="59.893197" lon="17.6379553">
        <ele>26.0929</ele>
        <time>2013-04-27T12:44:51Z</time>
      </trkpt>
      <trkpt lat="59.8931408" lon="17.6379901">
        <ele>25.6123</ele>
        <time>2013-04-27T12:44:52Z</time>
      </trkpt>
      <trkpt lat="59.8930848" lon="17.6380179">
        <ele>25.6123</ele>
        <time>2013-04-27T12:44:53Z</time>
      </trkpt>
      <trkpt lat="59.893027" lon="17.6380451">
        <ele>25.6123</ele>
        <time>2013-04-27T12:44:54Z</time>
      </trkpt>
      <trkpt lat="59.8929672" lon="17.6380716">
        <ele>25.6123</ele>
        <time>2013-04-27T12:44:55Z</time>
      </trkpt>
      <trkpt lat="59.8929056" lon="17.6380937">
        <ele>25.1317</ele>
        <time>2013-04-27T12:44:56Z</time>
      </trkpt>
      <trkpt lat="59.8928442" lon="17.6381117">
        <ele>25.1317</ele>
        <time>2013-04-27T12:44:57Z</time>
      </trkpt>
      <trkpt lat="59.8927843" lon="17.638121">
        <ele>24.651</ele>
        <time>2013-04-27T12:44:58Z</time>
      </trkpt>
      <trkpt lat="59.8927255" lon="17.6381296">
        <ele>24.651</ele>
        <time>2013-04-27T12:44:59Z</time>
      </trkpt>
      <trkpt lat="59.8926691" lon="17.6381524">
        <ele>24.1703</ele>
        <time>2013-04-27T12:45:00Z</time>
      </trkpt>
      <trkpt lat="59.8926266" lon="17.6382142">
        <ele>24.1703</ele>
        <time>2013-04-27T12:45:01Z</time>
      </trkpt>
      <trkpt lat="59.8926155" lon="17.6382896">
        <ele>23.6896</ele>
        <time>2013-04-27T12:45:02Z</time>
      </trkpt>
      <trkpt lat="59.8926253" lon="17.6383895">
        <ele>23.6896</ele>
        <time>2013-04-27T12:45:03Z</time>
      </trkpt>
      <trkpt lat="59.8926506" lon="17.6384772">
        <ele>24.1703</ele>
        <time>2013-04-27T12:45:04Z</time>
      </trkpt>
      <trkpt lat="59.8926698" lon="17.6385882">
        <ele>24.1703</ele>
        <time>2013-04-27T12:45:05Z</time>
      </trkpt>
      <trkpt lat="59.8926873" lon="17.6386785">
        <ele>24.651</ele>
        <time>2013-04-27T12:45:06Z</time>
      </trkpt>
      <trkpt lat="59.8926932" lon="17.6387713">
        <ele>25.1317</ele>
        <time>2013-04-27T12:45:07Z</time>
      </trkpt>
      <trkpt lat="59.892691" lon="17.6388685">
        <ele>25.1317</ele>
        <time>2013-04-27T12:45:08Z</time>
      </trkpt>
      <trkpt lat="59.8926884" lon="17.638965">
        <ele>25.1317</ele>
        <time>2013-04-27T12:45:09Z</time>
      </trkpt>
      <trkpt lat="59.8926865" lon="17.6390632">
        <ele>25.1317</ele>
        <time>2013-04-27T12:45:10Z</time>
      </trkpt>
      <trkpt lat="59.8926864" lon="17.6391602">
        <ele>25.1317</ele>
        <time>2013-04-27T12:45:11Z</time>
      </trkpt>
      <trkpt lat="59.8926874" lon="17.6392603">
        <ele>25.1317</ele>
        <time>2013-04-27T12:45:12Z</time>
      </trkpt>
      <trkpt lat="59.8926874" lon="17.6393621">
        <ele>25.1317</ele>
        <time>2013-04-27T12:45:13Z</time>
      </trkpt>
      <trkpt lat="59.892686" lon="17.6394663">
        <ele>25.1317</ele>
        <time>2013-04-27T12:45:14Z</time>
      </trkpt>
      <trkpt lat="59.8926843" lon="17.6395756">
        <ele>25.6123</ele>
        <time>2013-04-27T12:45:15Z</time>
      </trkpt>
      <trkpt lat="59.8926818" lon="17.6396849">
        <ele>25.6123</ele>
        <time>2013-04-27T12:45:16Z</time>
      </trkpt>
      <trkpt lat="59.8926802" lon="17.639788">
        <ele>25.6123</ele>
        <time>2013-04-27T12:45:17Z</time>
      </trkpt>
      <trkpt lat="59.8926796" lon="17.6398871">
        <ele>25.6123</ele>
        <time>2013-04-27T12:45:18Z</time>
      </trkpt>
      <trkpt lat="59.8926806" lon="17.639987">
        <ele>25.6123</ele>
        <time>2013-04-27T12:45:19Z</time>
      </trkpt>
      <trkpt lat="59.8926816" lon="17.6400902">
        <ele>25.1317</ele>
        <time>2013-04-27T12:45:20Z</time>
      </trkpt>
      <trkpt lat="59.8926811" lon="17.6401993">
        <ele>25.1317</ele>
        <time>2013-04-27T12:45:21Z</time>
      </trkpt>
      <trkpt lat="59.8926768" lon="17.6403132">
        <ele>25.1317</ele>
        <time>2013-04-27T12:45:22Z</time>
      </trkpt>
      <trkpt lat="59.8926708" lon="17.6404243">
        <ele>25.1317</ele>
        <time>2013-04-27T12:45:23Z</time>
      </trkpt>
      <trkpt lat="59.8926649" lon="17.6405314">
        <ele>25.1317</ele>
        <time>2013-04-27T12:45:24Z</time>
      </trkpt>
      <trkpt lat="59.8926584" lon="17.6406325">
        <ele>25.1317</ele>
        <time>2013-04-27T12:45:25Z</time>
      </trkpt>
      <trkpt lat="59.8926496" lon="17.6407369">
        <ele>25.1317</ele>
        <time>2013-04-27T12:45:26Z</time>
      </trkpt>
      <trkpt lat="59.8926409" lon="17.6408411">
        <ele>25.1317</ele>
        <time>2013-04-27T12:45:27Z</time>
      </trkpt>
      <trkpt lat="59.8926361" lon="17.6409443">
        <ele>25.6123</ele>
        <time>2013-04-27T12:45:28Z</time>
      </trkpt>
      <trkpt lat="59.8926316" lon="17.6410473">
        <ele>25.6123</ele>
        <time>2013-04-27T12:45:29Z</time>
      </trkpt>
      <trkpt lat="59.8926259" lon="17.6411505">
        <ele>25.6123</ele>
        <time>2013-04-27T12:45:30Z</time>
      </trkpt>
      <trkpt lat="59.8926201" lon="17.6412542">
        <ele>25.6123</ele>
        <time>2013-04-27T12:45:31Z</time>
      </trkpt>
      <trkpt lat="59.892614" lon="17.6413616">
        <ele>25.6123</ele>
        <time>2013-04-27T12:45:32Z</time>
      </trkpt>
      <trkpt lat="59.8926076" lon="17.641473">
        <ele>25.6123</ele>
        <time>2013-04-27T12:45:33Z</time>
      </trkpt>
      <trkpt lat="59.8925995" lon="17.6415866">
        <ele>25.6123</ele>
        <time>2013-04-27T12:45:34Z</time>
      </trkpt>
      <trkpt lat="59.8925899" lon="17.6417011">
        <ele>26.0929</ele>
        <time>2013-04-27T12:45:35Z</time>
      </trkpt>
      <trkpt lat="59.8925802" lon="17.6418154">
        <ele>26.0929</ele>
        <time>2013-04-27T12:45:36Z</time>
      </trkpt>
      <trkpt lat="59.8925717" lon="17.64193">
        <ele>26.0929</ele>
        <time>2013-04-27T12:45:37Z</time>
      </trkpt>
      <trkpt lat="59.8925661" lon="17.642044">
        <ele>26.0929</ele>
        <time>2013-04-27T12:45:38Z</time>
      </trkpt>
      <trkpt lat="59.8925625" lon="17.6421585">
        <ele>26.0929</ele>
        <time>2013-04-27T12:45:39Z</time>
      </trkpt>
      <trkpt lat="59.8925568" lon="17.6422662">
        <ele>26.0929</ele>
        <time>2013-04-27T12:45:40Z</time>
      </trkpt>
      <trkpt lat="59.8925492" lon="17.6423719">
        <ele>26.0929</ele>
        <time>2013-04-27T12:45:41Z</time>
      </trkpt>
      <trkpt lat="59.8925423" lon="17.642475">
        <ele>26.0929</ele>
        <time>2013-04-27T12:45:42Z</time>
      </trkpt>
      <trkpt lat="59.8925356" lon="17.6425755">
        <ele>26.5736</ele>
        <time>2013-04-27T12:45:43Z</time>
      </trkpt>
      <trkpt lat="59.8925287" lon="17.6426753">
        <ele>26.5736</ele>
        <time>2013-04-27T12:45:44Z</time>
      </trkpt>
      <trkpt lat="59.8925197" lon="17.6427758">
        <ele>27.0543</ele>
        <time>2013-04-27T12:45:45Z</time>
      </trkpt>
      <trkpt lat="59.8925088" lon="17.6428805">
        <ele>27.0543</ele>
        <time>2013-04-27T12:45:46Z</time>
      </trkpt>
      <trkpt lat="59.8924979" lon="17.6429915">
        <ele>27.0543</ele>
        <time>2013-04-27T12:45:47Z</time>
      </trkpt>
      <trkpt lat="59.8924867" lon="17.6430986">
        <ele>27.0543</ele>
        <time>2013-04-27T12:45:48Z</time>
      </trkpt>
      <trkpt lat="59.8924724" lon="17.6432047">
        <ele>27.0543</ele>
        <time>2013-04-27T12:45:49Z</time>
      </trkpt>
      <trkpt lat="59.8924585" lon="17.6433116">
        <ele>27.5349</ele>
        <time>2013-04-27T12:45:50Z</time>
      </trkpt>
      <trkpt lat="59.8924479" lon="17.6434195">
        <ele>27.5349</ele>
        <time>2013-04-27T12:45:51Z</time>
      </trkpt>
      <trkpt lat="59.8924377" lon="17.6435266">
        <ele>28.0155</ele>
        <time>2013-04-27T12:45:52Z</time>
      </trkpt>
      <trkpt lat="59.8924272" lon="17.6436343">
        <ele>28.0155</ele>
        <time>2013-04-27T12:45:53Z</time>
      </trkpt>
      <trkpt lat="59.8924165" lon="17.6437434">
        <ele>28.0155</ele>
        <time>2013-04-27T12:45:54Z</time>
      </trkpt>
      <trkpt lat="59.8924064" lon="17.6438539">
        <ele>28.0155</ele>
        <time>2013-04-27T12:45:55Z</time>
      </trkpt>
      <trkpt lat="59.8923967" lon="17.6439612">
        <ele>28.0155</ele>
        <time>2013-04-27T12:45:56Z</time>
      </trkpt>
      <trkpt lat="59.8923864" lon="17.6440706">
        <ele>28.0155</ele>
        <time>2013-04-27T12:45:57Z</time>
      </trkpt>
      <trkpt lat="59.8923752" lon="17.6441818">
        <ele>28.0155</ele>
        <time>2013-04-27T12:45:58Z</time>
      </trkpt>
      <trkpt lat="59.8923632" lon="17.6442923">
        <ele>28.0155</ele>
        <time>2013-04-27T12:45:59Z</time>
      </trkpt>
      <trkpt lat="59.8923517" lon="17.6444024">
        <ele>28.0155</ele>
        <time>2013-04-27T12:46:00Z</time>
      </trkpt>
      <trkpt lat="59.8923423" lon="17.644508">
        <ele>28.0155</ele>
        <time>2013-04-27T12:46:01Z</time>
      </trkpt>
      <trkpt lat="59.8923329" lon="17.6446125">
        <ele>28.4962</ele>
        <time>2013-04-27T12:46:02Z</time>
      </trkpt>
      <trkpt lat="59.8923227" lon="17.6447189">
        <ele>28.4962</ele>
        <time>2013-04-27T12:46:03Z</time>
      </trkpt>
      <trkpt lat="59.8923139" lon="17.6448253">
        <ele>28.4962</ele>
        <time>2013-04-27T12:46:04Z</time>
      </trkpt>
      <trkpt lat="59.8923045" lon="17.6449305">
        <ele>28.4962</ele>
        <time>2013-04-27T12:46:05Z</time>
      </trkpt>
      <trkpt lat="59.892294" lon="17.6450365">
        <ele>28.0155</ele>
        <time>2013-04-27T12:46:06Z</time>
      </trkpt>
      <trkpt lat="59.8922835" lon="17.6451469">
        <ele>28.0155</ele>
        <time>2013-04-27T12:46:07Z</time>
      </trkpt>
      <trkpt lat="59.8922728" lon="17.6452628">
        <ele>28.0155</ele>
        <time>2013-04-27T12:46:08Z</time>
      </trkpt>
      <trkpt lat="59.8922611" lon="17.6453791">
        <ele>28.0155</ele>
        <time>2013-04-27T12:46:09Z</time>
      </trkpt>
      <trkpt lat="59.89225" lon="17.6454967">
        <ele>28.4962</ele>
        <time>2013-04-27T12:46:10Z</time>
      </trkpt>
      <trkpt lat="59.8922378" lon="17.6456193">
        <ele>28.4962</ele>
        <time>2013-04-27T12:46:11Z</time>
      </trkpt>
      <trkpt lat="59.8922246" lon="17.6457417">
        <ele>28.4962</ele>
        <time>2013-04-27T12:46:12Z</time>
      </trkpt>
      <trkpt lat="59.8922114" lon="17.6458657">
        <ele>28.4962</ele>
        <time>2013-04-27T12:46:13Z</time>
      </trkpt>
      <trkpt lat="59.8921987" lon="17.6459908">
        <ele>28.4962</ele>
        <time>2013-04-27T12:46:14Z</time>
      </trkpt>
      <trkpt lat="59.8921859" lon="17.6461151">
        <ele>28.4962</ele>
        <time>2013-04-27T12:46:15Z</time>
      </trkpt>
      <trkpt lat="59.8921731" lon="17.646238">
        <ele>28.4962</ele>
        <time>2013-04-27T12:46:16Z</time>
      </trkpt>
      <trkpt lat="59.8921606" lon="17.6463589">
        <ele>28.4962</ele>
        <time>2013-04-27T12:46:17Z</time>
      </trkpt>
      <trkpt lat="59.8921483" lon="17.646478">
        <ele>28.4962</ele>
        <time>2013-04-27T12:46:18Z</time>
      </trkpt>
      <trkpt lat="59.8921368" lon="17.6465948">
        <ele>28.4962</ele>
        <time>2013-04-27T12:46:19Z</time>
      </trkpt>
      <trkpt lat="59.8921254" lon="17.6467093">
        <ele>28.4962</ele>
        <time>2013-04-27T12:46:20Z</time>
      </trkpt>
      <trkpt lat="59.8921114" lon="17.6468228">
        <ele>28.4962</ele>
        <time>2013-04-27T12:46:21Z</time>
      </trkpt>
      <trkpt lat="59.8920953" lon="17.6469325">
        <ele>28.4962</ele>
        <time>2013-04-27T12:46:22Z</time>
      </trkpt>
      <trkpt lat="59.8920781" lon="17.6470423">
        <ele>28.4962</ele>
        <time>2013-04-27T12:46:23Z</time>
      </trkpt>
      <trkpt lat="59.8920583" lon="17.64715">
        <ele>28.9769</ele>
        <time>2013-04-27T12:46:24Z</time>
      </trkpt>
      <trkpt lat="59.8920371" lon="17.6472564">
        <ele>28.9769</ele>
        <time>2013-04-27T12:46:25Z</time>
      </trkpt>
      <trkpt lat="59.8920177" lon="17.6473634">
        <ele>28.9769</ele>
        <time>2013-04-27T12:46:26Z</time>
      </trkpt>
      <trkpt lat="59.892002" lon="17.6474708">
        <ele>28.9769</ele>
        <time>2013-04-27T12:46:27Z</time>
      </trkpt>
      <trkpt lat="59.8919897" lon="17.6475762">
        <ele>28.9769</ele>
        <time>2013-04-27T12:46:28Z</time>
      </trkpt>
      <trkpt lat="59.8919796" lon="17.6476846">
        <ele>28.9769</ele>
        <time>2013-04-27T12:46:29Z</time>
      </trkpt>
      <trkpt lat="59.8919682" lon="17.6477922">
        <ele>28.9769</ele>
        <time>2013-04-27T12:46:30Z</time>
      </trkpt>
      <trkpt lat="59.8919528" lon="17.647897">
        <ele>28.9769</ele>
        <time>2013-04-27T12:46:31Z</time>
      </trkpt>
      <trkpt lat="59.8919333" lon="17.6479991">
        <ele>28.9769</ele>
        <time>2013-04-27T12:46:32Z</time>
      </trkpt>
      <trkpt lat="59.8919118" lon="17.6481009">
        <ele>28.4962</ele>
        <time>2013-04-27T12:46:33Z</time>
      </trkpt>
      <trkpt lat="59.8918884" lon="17.6482035">
        <ele>28.4962</ele>
        <time>2013-04-27T12:46:34Z</time>
      </trkpt>
      <trkpt lat="59.891862" lon="17.6483032">
        <ele>28.4962</ele>
        <time>2013-04-27T12:46:35Z</time>
      </trkpt>
      <trkpt lat="59.8918352" lon="17.6484016">
        <ele>28.0155</ele>
        <time>2013-04-27T12:46:36Z</time>
      </trkpt>
      <trkpt lat="59.8918109" lon="17.6485012">
        <ele>28.0155</ele>
        <time>2013-04-27T12:46:37Z</time>
      </trkpt>
      <trkpt lat="59.8917887" lon="17.6486017">
        <ele>28.0155</ele>
        <time>2013-04-27T12:46:38Z</time>
      </trkpt>
      <trkpt lat="59.891766" lon="17.6487027">
        <ele>27.5349</ele>
        <time>2013-04-27T12:46:39Z</time>
      </trkpt>
      <trkpt lat="59.8917374" lon="17.6487974">
        <ele>27.5349</ele>
        <time>2013-04-27T12:46:40Z</time>
      </trkpt>
      <trkpt lat="59.891701" lon="17.6488698">
        <ele>27.5349</ele>
        <time>2013-04-27T12:46:41Z</time>
      </trkpt>
      <trkpt lat="59.8916653" lon="17.6489325">
        <ele>27.0543</ele>
        <time>2013-04-27T12:46:42Z</time>
      </trkpt>
      <trkpt lat="59.8916349" lon="17.6490057">
        <ele>26.5736</ele>
        <time>2013-04-27T12:46:43Z</time>
      </trkpt>
      <trkpt lat="59.891615" lon="17.6490925">
        <ele>27.0543</ele>
        <time>2013-04-27T12:46:44Z</time>
      </trkpt>
      <trkpt lat="59.8916134" lon="17.6491807">
        <ele>27.5349</ele>
        <time>2013-04-27T12:46:45Z</time>
      </trkpt>
      <trkpt lat="59.8916305" lon="17.6492621">
        <ele>27.5349</ele>
        <time>2013-04-27T12:46:46Z</time>
      </trkpt>
      <trkpt lat="59.8916504" lon="17.6493469">
        <ele>28.0155</ele>
        <time>2013-04-27T12:46:47Z</time>
      </trkpt>
      <trkpt lat="59.8916597" lon="17.6494335">
        <ele>28.0155</ele>
        <time>2013-04-27T12:46:48Z</time>
      </trkpt>
      <trkpt lat="59.8916534" lon="17.6495257">
        <ele>28.0155</ele>
        <time>2013-04-27T12:46:49Z</time>
      </trkpt>
      <trkpt lat="59.8916372" lon="17.6496174">
        <ele>28.0155</ele>
        <time>2013-04-27T12:46:50Z</time>
      </trkpt>
      <trkpt lat="59.891618" lon="17.6497052">
        <ele>28.4962</ele>
        <time>2013-04-27T12:46:51Z</time>
      </trkpt>
      <trkpt lat="59.8915989" lon="17.6497899">
        <ele>28.4962</ele>
        <time>2013-04-27T12:46:52Z</time>
      </trkpt>
      <trkpt lat="59.8915797" lon="17.6498725">
        <ele>28.4962</ele>
        <time>2013-04-27T12:46:53Z</time>
      </trkpt>
      <trkpt lat="59.8915595" lon="17.6499539">
        <ele>28.4962</ele>
        <time>2013-04-27T12:46:54Z</time>
      </trkpt>
      <trkpt lat="59.8915384" lon="17.650034">
        <ele>28.4962</ele>
        <time>2013-04-27T12:46:55Z</time>
      </trkpt>
      <trkpt lat="59.8915157" lon="17.6501176">
        <ele>28.0155</ele>
        <time>2013-04-27T12:46:56Z</time>
      </trkpt>
      <trkpt lat="59.8914901" lon="17.6502068">
        <ele>28.0155</ele>
        <time>2013-04-27T12:46:57Z</time>
      </trkpt>
      <trkpt lat="59.8914616" lon="17.6503038">
        <ele>28.0155</ele>
        <time>2013-04-27T12:46:58Z</time>
      </trkpt>
      <trkpt lat="59.8914316" lon="17.650411">
        <ele>28.0155</ele>
        <time>2013-04-27T12:46:59Z</time>
      </trkpt>
      <trkpt lat="59.8913984" lon="17.6505258">
        <ele>28.0155</ele>
        <time>2013-04-27T12:47:00Z</time>
      </trkpt>
      <trkpt lat="59.8913598" lon="17.6506465">
        <ele>27.5349</ele>
        <time>2013-04-27T12:47:01Z</time>
      </trkpt>
      <trkpt lat="59.8913187" lon="17.6507705">
        <ele>27.5349</ele>
        <time>2013-04-27T12:47:02Z</time>
      </trkpt>
      <trkpt lat="59.8912768" lon="17.6508952">
        <ele>28.0155</ele>
        <time>2013-04-27T12:47:03Z</time>
      </trkpt>
      <trkpt lat="59.8912344" lon="17.6510186">
        <ele>28.0155</ele>
        <time>2013-04-27T12:47:04Z</time>
      </trkpt>
      <trkpt lat="59.891193" lon="17.6511411">
        <ele>28.0155</ele>
        <time>2013-04-27T12:47:05Z</time>
      </trkpt>
      <trkpt lat="59.8911514" lon="17.6512615">
        <ele>27.5349</ele>
        <time>2013-04-27T12:47:06Z</time>
      </trkpt>
      <trkpt lat="59.8911095" lon="17.6513792">
        <ele>27.5349</ele>
        <time>2013-04-27T12:47:07Z</time>
      </trkpt>
      <trkpt lat="59.8910674" lon="17.6514953">
        <ele>27.0543</ele>
        <time>2013-04-27T12:47:08Z</time>
      </trkpt>
      <trkpt lat="59.8910249" lon="17.6516096">
        <ele>27.0543</ele>
        <time>2013-04-27T12:47:09Z</time>
      </trkpt>
      <trkpt lat="59.8909827" lon="17.6517226">
        <ele>27.0543</ele>
        <time>2013-04-27T12:47:10Z</time>
      </trkpt>
      <trkpt lat="59.8909407" lon="17.6518342">
        <ele>26.5736</ele>
        <time>2013-04-27T12:47:11Z</time>
      </trkpt>
      <trkpt lat="59.8908992" lon="17.6519451">
        <ele>26.5736</ele>
        <time>2013-04-27T12:47:12Z</time>
      </trkpt>
      <trkpt lat="59.8908587" lon="17.6520561">
        <ele>26.5736</ele>
        <time>2013-04-27T12:47:13Z</time>
      </trkpt>
      <trkpt lat="59.8908179" lon="17.6521669">
        <ele>26.5736</ele>
        <time>2013-04-27T12:47:14Z</time>
      </trkpt>
      <trkpt lat="59.8907766" lon="17.6522782">
        <ele>26.0929</ele>
        <time>2013-04-27T12:47:15Z</time>
      </trkpt>
      <trkpt lat="59.8907344" lon="17.6523907">
        <ele>26.0929</ele>
        <time>2013-04-27T12:47:16Z</time>
      </trkpt>
      <trkpt lat="59.8906914" lon="17.652504">
        <ele>26.0929</ele>
        <time>2013-04-27T12:47:17Z</time>
      </trkpt>
      <trkpt lat="59.8906485" lon="17.6526178">
        <ele>26.0929</ele>
        <time>2013-04-27T12:47:18Z</time>
      </trkpt>
      <trkpt lat="59.8906055" lon="17.6527338">
        <ele>25.6123</ele>
        <time>2013-04-27T12:47:19Z</time>
      </trkpt>
      <trkpt lat="59.8905624" lon="17.6528513">
        <ele>25.6123</ele>
        <time>2013-04-27T12:47:20Z</time>
      </trkpt>
      <trkpt lat="59.8905186" lon="17.6529687">
        <ele>25.6123</ele>
        <time>2013-04-27T12:47:21Z</time>
      </trkpt>
      <trkpt lat="59.8904748" lon="17.6530864">
        <ele>25.1317</ele>
        <time>2013-04-27T12:47:22Z</time>
      </trkpt>
      <trkpt lat="59.890431" lon="17.6532036">
        <ele>25.1317</ele>
        <time>2013-04-27T12:47:23Z</time>
      </trkpt>
      <trkpt lat="59.8903875" lon="17.6533211">
        <ele>25.1317</ele>
        <time>2013-04-27T12:47:24Z</time>
      </trkpt>
      <trkpt lat="59.8903435" lon="17.6534404">
        <ele>25.1317</ele>
        <time>2013-04-27T12:47:25Z</time>
      </trkpt>
      <trkpt lat="59.8902988" lon="17.6535623">
        <ele>24.651</ele>
        <time>2013-04-27T12:47:26Z</time>
      </trkpt>
      <trkpt lat="59.8902533" lon="17.6536854">
        <ele>24.651</ele>
        <time>2013-04-27T12:47:27Z</time>
      </trkpt>
      <trkpt lat="59.8902082" lon="17.653811">
        <ele>24.651</ele>
        <time>2013-04-27T12:47:28Z</time>
      </trkpt>
      <trkpt lat="59.890164" lon="17.6539372">
        <ele>24.1703</ele>
        <time>2013-04-27T12:47:29Z</time>
      </trkpt>
      <trkpt lat="59.8901205" lon="17.654062">
        <ele>24.651</ele>
        <time>2013-04-27T12:47:30Z</time>
      </trkpt>
      <trkpt lat="59.8900759" lon="17.654178">
        <ele>24.651</ele>
        <time>2013-04-27T12:47:31Z</time>
      </trkpt>
      <trkpt lat="59.8900331" lon="17.6542918">
        <ele>24.651</ele>
        <time>2013-04-27T12:47:32Z</time>
      </trkpt>
      <trkpt lat="59.8899927" lon="17.6544089">
        <ele>24.651</ele>
        <time>2013-04-27T12:47:33Z</time>
      </trkpt>
      <trkpt lat="59.8899512" lon="17.6545225">
        <ele>24.651</ele>
        <time>2013-04-27T12:47:34Z</time>
      </trkpt>
      <trkpt lat="59.8899093" lon="17.6546338">
        <ele>24.1703</ele>
        <time>2013-04-27T12:47:35Z</time>
      </trkpt>
      <trkpt lat="59.8898673" lon="17.6547447">
        <ele>24.1703</ele>
        <time>2013-04-27T12:47:36Z</time>
      </trkpt>
      <trkpt lat="59.8898254" lon="17.6548542">
        <ele>24.1703</ele>
        <time>2013-04-27T12:47:37Z</time>
      </trkpt>
      <trkpt lat="59.8897853" lon="17.6549643">
        <ele>24.1703</ele>
        <time>2013-04-27T12:47:38Z</time>
      </trkpt>
      <trkpt lat="59.8897461" lon="17.6550746">
        <ele>24.1703</ele>
        <time>2013-04-27T12:47:39Z</time>
      </trkpt>
      <trkpt lat="59.8897067" lon="17.6551838">
        <ele>24.1703</ele>
        <time>2013-04-27T12:47:40Z</time>
      </trkpt>
      <trkpt lat="59.8896665" lon="17.6552937">
        <ele>24.1703</ele>
        <time>2013-04-27T12:47:41Z</time>
      </trkpt>
      <trkpt lat="59.8896249" lon="17.6554047">
        <ele>23.6896</ele>
        <time>2013-04-27T12:47:42Z</time>
      </trkpt>
      <trkpt lat="59.8895822" lon="17.6555195">
        <ele>23.6896</ele>
        <time>2013-04-27T12:47:43Z</time>
      </trkpt>
      <trkpt lat="59.8895384" lon="17.6556376">
        <ele>23.6896</ele>
        <time>2013-04-27T12:47:44Z</time>
      </trkpt>
      <trkpt lat="59.8894937" lon="17.6557575">
        <ele>23.6896</ele>
        <time>2013-04-27T12:47:45Z</time>
      </trkpt>
      <trkpt lat="59.8894478" lon="17.6558754">
        <ele>23.6896</ele>
        <time>2013-04-27T12:47:46Z</time>
      </trkpt>
      <trkpt lat="59.8894022" lon="17.6559915">
        <ele>23.6896</ele>
        <time>2013-04-27T12:47:47Z</time>
      </trkpt>
      <trkpt lat="59.889358" lon="17.6561084">
        <ele>23.209</ele>
        <time>2013-04-27T12:47:48Z</time>
      </trkpt>
      <trkpt lat="59.8893144" lon="17.656225">
        <ele>23.209</ele>
        <time>2013-04-27T12:47:49Z</time>
      </trkpt>
      <trkpt lat="59.8892706" lon="17.6563409">
        <ele>23.209</ele>
        <time>2013-04-27T12:47:50Z</time>
      </trkpt>
      <trkpt lat="59.8892271" lon="17.6564564">
        <ele>23.209</ele>
        <time>2013-04-27T12:47:51Z</time>
      </trkpt>
      <trkpt lat="59.8891834" lon="17.6565732">
        <ele>23.209</ele>
        <time>2013-04-27T12:47:52Z</time>
      </trkpt>
      <trkpt lat="59.8891401" lon="17.6566933">
        <ele>23.209</ele>
        <time>2013-04-27T12:47:53Z</time>
      </trkpt>
      <trkpt lat="59.8890971" lon="17.6568156">
        <ele>23.209</ele>
        <time>2013-04-27T12:47:54Z</time>
      </trkpt>
      <trkpt lat="59.8890531" lon="17.6569369">
        <ele>23.209</ele>
        <time>2013-04-27T12:47:55Z</time>
      </trkpt>
      <trkpt lat="59.8890089" lon="17.6570566">
        <ele>23.209</ele>
        <time>2013-04-27T12:47:56Z</time>
      </trkpt>
      <trkpt lat="59.8889656" lon="17.6571752">
        <ele>22.7283</ele>
        <time>2013-04-27T12:47:57Z</time>
      </trkpt>
      <trkpt lat="59.8889231" lon="17.6572933">
        <ele>22.7283</ele>
        <time>2013-04-27T12:47:58Z</time>
      </trkpt>
      <trkpt lat="59.88888" lon="17.6574091">
        <ele>22.7283</ele>
        <time>2013-04-27T12:47:59Z</time>
      </trkpt>
      <trkpt lat="59.888837" lon="17.6575221">
        <ele>22.7283</ele>
        <time>2013-04-27T12:48:00Z</time>
      </trkpt>
      <trkpt lat="59.8887944" lon="17.6576383">
        <ele>22.7283</ele>
        <time>2013-04-27T12:48:01Z</time>
      </trkpt>
      <trkpt lat="59.888752" lon="17.6577504">
        <ele>22.7283</ele>
        <time>2013-04-27T12:48:02Z</time>
      </trkpt>
      <trkpt lat="59.8887099" lon="17.6578631">
        <ele>22.7283</ele>
        <time>2013-04-27T12:48:03Z</time>
      </trkpt>
      <trkpt lat="59.8886671" lon="17.6579786">
        <ele>22.7283</ele>
        <time>2013-04-27T12:48:04Z</time>
      </trkpt>
      <trkpt lat="59.8886236" lon="17.6580962">
        <ele>22.7283</ele>
        <time>2013-04-27T12:48:05Z</time>
      </trkpt>
      <trkpt lat="59.8885802" lon="17.6582136">
        <ele>22.7283</ele>
        <time>2013-04-27T12:48:06Z</time>
      </trkpt>
      <trkpt lat="59.8885371" lon="17.6583296">
        <ele>22.7283</ele>
        <time>2013-04-27T12:48:07Z</time>
      </trkpt>
      <trkpt lat="59.8884936" lon="17.6584508">
        <ele>22.7283</ele>
        <time>2013-04-27T12:48:08Z</time>
      </trkpt>
      <trkpt lat="59.8884509" lon="17.6585704">
        <ele>22.7283</ele>
        <time>2013-04-27T12:48:09Z</time>
      </trkpt>
      <trkpt lat="59.8884087" lon="17.6586888">
        <ele>22.7283</ele>
        <time>2013-04-27T12:48:10Z</time>
      </trkpt>
      <trkpt lat="59.888367" lon="17.6588053">
        <ele>22.7283</ele>
        <time>2013-04-27T12:48:11Z</time>
      </trkpt>
      <trkpt lat="59.8883253" lon="17.6589186">
        <ele>22.7283</ele>
        <time>2013-04-27T12:48:12Z</time>
      </trkpt>
      <trkpt lat="59.8882841" lon="17.6590312">
        <ele>23.209</ele>
        <time>2013-04-27T12:48:13Z</time>
      </trkpt>
      <trkpt lat="59.8882427" lon="17.6591467">
        <ele>23.209</ele>
        <time>2013-04-27T12:48:14Z</time>
      </trkpt>
      <trkpt lat="59.8882018" lon="17.6592597">
        <ele>23.209</ele>
        <time>2013-04-27T12:48:15Z</time>
      </trkpt>
      <trkpt lat="59.8881611" lon="17.6593721">
        <ele>23.209</ele>
        <time>2013-04-27T12:48:16Z</time>
      </trkpt>
      <trkpt lat="59.8881209" lon="17.6594823">
        <ele>22.7283</ele>
        <time>2013-04-27T12:48:17Z</time>
      </trkpt>
      <trkpt lat="59.8880805" lon="17.6595917">
        <ele>22.7283</ele>
        <time>2013-04-27T12:48:18Z</time>
      </trkpt>
      <trkpt lat="59.8880398" lon="17.6597033">
        <ele>22.7283</ele>
        <time>2013-04-27T12:48:19Z</time>
      </trkpt>
      <trkpt lat="59.8879993" lon="17.6598165">
        <ele>22.2476</ele>
        <time>2013-04-27T12:48:20Z</time>
      </trkpt>
      <trkpt lat="59.8879589" lon="17.6599304">
        <ele>22.2476</ele>
        <time>2013-04-27T12:48:21Z</time>
      </trkpt>
      <trkpt lat="59.8879174" lon="17.6600434">
        <ele>22.2476</ele>
        <time>2013-04-27T12:48:22Z</time>
      </trkpt>
      <trkpt lat="59.8878751" lon="17.6601542">
        <ele>22.7283</ele>
        <time>2013-04-27T12:48:23Z</time>
      </trkpt>
      <trkpt lat="59.8878322" lon="17.6602626">
        <ele>22.7283</ele>
        <time>2013-04-27T12:48:24Z</time>
      </trkpt>
      <trkpt lat="59.8877891" lon="17.6603679">
        <ele>22.7283</ele>
        <time>2013-04-27T12:48:25Z</time>
      </trkpt>
      <trkpt lat="59.8877449" lon="17.6604703">
        <ele>22.7283</ele>
        <time>2013-04-27T12:48:26Z</time>
      </trkpt>
      <trkpt lat="59.8876979" lon="17.6605679">
        <ele>22.7283</ele>
        <time>2013-04-27T12:48:27Z</time>
      </trkpt>
      <trkpt lat="59.8876477" lon="17.660656">
        <ele>22.7283</ele>
        <time>2013-04-27T12:48:28Z</time>
      </trkpt>
      <trkpt lat="59.8875944" lon="17.6607339">
        <ele>22.7283</ele>
        <time>2013-04-27T12:48:29Z</time>
      </trkpt>
      <trkpt lat="59.8875405" lon="17.6607989">
        <ele>22.7283</ele>
        <time>2013-04-27T12:48:30Z</time>
      </trkpt>
      <trkpt lat="59.8874893" lon="17.6608529">
        <ele>22.7283</ele>
        <time>2013-04-27T12:48:31Z</time>
      </trkpt>
      <trkpt lat="59.8874435" lon="17.6608959">
        <ele>22.7283</ele>
        <time>2013-04-27T12:48:32Z</time>
      </trkpt>
      <trkpt lat="59.8874014" lon="17.6609276">
        <ele>22.7283</ele>
        <time>2013-04-27T12:48:33Z</time>
      </trkpt>
      <trkpt lat="59.8873612" lon="17.6609495">
        <ele>22.7283</ele>
        <time>2013-04-27T12:48:34Z</time>
      </trkpt>
      <trkpt lat="59.8873224" lon="17.6609577">
        <ele>23.209</ele>
        <time>2013-04-27T12:48:35Z</time>
      </trkpt>
      <trkpt lat="59.887284" lon="17.6609504">
        <ele>23.209</ele>
        <time>2013-04-27T12:48:36Z</time>
      </trkpt>
      <trkpt lat="59.8872463" lon="17.6609297">
        <ele>23.6896</ele>
        <time>2013-04-27T12:48:37Z</time>
      </trkpt>
      <trkpt lat="59.8872074" lon="17.6609115">
        <ele>24.1703</ele>
        <time>2013-04-27T12:48:38Z</time>
      </trkpt>
      <trkpt lat="59.8871659" lon="17.6608925">
        <ele>24.1703</ele>
        <time>2013-04-27T12:48:39Z</time>
      </trkpt>
      <trkpt lat="59.8871227" lon="17.6608623">
        <ele>24.1703</ele>
        <time>2013-04-27T12:48:40Z</time>
      </trkpt>
      <trkpt lat="59.8870746" lon="17.6608489">
        <ele>23.6896</ele>
        <time>2013-04-27T12:48:41Z</time>
      </trkpt>
      <trkpt lat="59.8870255" lon="17.6608851">
        <ele>24.1703</ele>
        <time>2013-04-27T12:48:42Z</time>
      </trkpt>
      <trkpt lat="59.8869872" lon="17.6609685">
        <ele>24.1703</ele>
        <time>2013-04-27T12:48:43Z</time>
      </trkpt>
      <trkpt lat="59.8869695" lon="17.6610809">
        <ele>24.1703</ele>
        <time>2013-04-27T12:48:44Z</time>
      </trkpt>
      <trkpt lat="59.8869737" lon="17.6612063">
        <ele>24.1703</ele>
        <time>2013-04-27T12:48:45Z</time>
      </trkpt>
      <trkpt lat="59.8869924" lon="17.6613316">
        <ele>24.1703</ele>
        <time>2013-04-27T12:48:46Z</time>
      </trkpt>
      <trkpt lat="59.8870142" lon="17.6614578">
        <ele>24.1703</ele>
        <time>2013-04-27T12:48:47Z</time>
      </trkpt>
      <trkpt lat="59.8870296" lon="17.6615896">
        <ele>24.1703</ele>
        <time>2013-04-27T12:48:48Z</time>
      </trkpt>
      <trkpt lat="59.8870354" lon="17.6617247">
        <ele>24.1703</ele>
        <time>2013-04-27T12:48:49Z</time>
      </trkpt>
      <trkpt lat="59.8870323" lon="17.6618593">
        <ele>24.1703</ele>
        <time>2013-04-27T12:48:50Z</time>
      </trkpt>
      <trkpt lat="59.8870229" lon="17.6619915">
        <ele>24.1703</ele>
        <time>2013-04-27T12:48:51Z</time>
      </trkpt>
      <trkpt lat="59.8870062" lon="17.6621194">
        <ele>24.1703</ele>
        <time>2013-04-27T12:48:52Z</time>
      </trkpt>
      <trkpt lat="59.8869836" lon="17.6622445">
        <ele>24.651</ele>
        <time>2013-04-27T12:48:53Z</time>
      </trkpt>
      <trkpt lat="59.8869582" lon="17.662368">
        <ele>24.1703</ele>
        <time>2013-04-27T12:48:54Z</time>
      </trkpt>
      <trkpt lat="59.8869298" lon="17.6624874">
        <ele>24.1703</ele>
        <time>2013-04-27T12:48:55Z</time>
      </trkpt>
      <trkpt lat="59.8868987" lon="17.6626052">
        <ele>24.651</ele>
        <time>2013-04-27T12:48:56Z</time>
      </trkpt>
      <trkpt lat="59.8868639" lon="17.6627172">
        <ele>24.651</ele>
        <time>2013-04-27T12:48:57Z</time>
      </trkpt>
      <trkpt lat="59.8868272" lon="17.6628254">
        <ele>24.1703</ele>
        <time>2013-04-27T12:48:58Z</time>
      </trkpt>
      <trkpt lat="59.8867884" lon="17.6629295">
        <ele>24.1703</ele>
        <time>2013-04-27T12:48:59Z</time>
      </trkpt>
      <trkpt lat="59.8867468" lon="17.6630259">
        <ele>24.1703</ele>
        <time>2013-04-27T12:49:00Z</time>
      </trkpt>
      <trkpt lat="59.8867028" lon="17.6631172">
        <ele>23.6896</ele>
        <time>2013-04-27T12:49:01Z</time>
      </trkpt>
      <trkpt lat="59.8866578" lon="17.6632053">
        <ele>23.6896</ele>
        <time>2013-04-27T12:49:02Z</time>
      </trkpt>
      <trkpt lat="59.8866106" lon="17.6632877">
        <ele>23.209</ele>
        <time>2013-04-27T12:49:03Z</time>
      </trkpt>
      <trkpt lat="59.886561" lon="17.6633639">
        <ele>23.209</ele>
        <time>2013-04-27T12:49:04Z</time>
      </trkpt>
      <trkpt lat="59.8865095" lon="17.6634374">
        <ele>22.7283</ele>
        <time>2013-04-27T12:49:05Z</time>
      </trkpt>
      <trkpt lat="59.8864583" lon="17.6635042">
        <ele>22.7283</ele>
        <time>2013-04-27T12:49:06Z</time>
      </trkpt>
      <trkpt lat="59.8864133" lon="17.6635547">
        <ele>22.2476</ele>
        <time>2013-04-27T12:49:07Z</time>
      </trkpt>
      <trkpt lat="59.8863784" lon="17.6635884">
        <ele>22.2476</ele>
        <time>2013-04-27T12:49:08Z</time>
      </trkpt>
      <trkpt lat="59.886353" lon="17.6636109">
        <ele>22.2476</ele>
        <time>2013-04-27T12:49:09Z</time>
      </trkpt>
      <trkpt lat="59.8863321" lon="17.6636271">
        <ele>22.2476</ele>
        <time>2013-04-27T12:49:10Z</time>
      </trkpt>
      <trkpt lat="59.8863138" lon="17.6636376">
        <ele>22.2476</ele>
        <time>2013-04-27T12:49:11Z</time>
      </trkpt>
      <trkpt lat="59.8862987" lon="17.6636435">
        <ele>22.7283</ele>
        <time>2013-04-27T12:49:12Z</time>
      </trkpt>
      <trkpt lat="59.8862854" lon="17.6636495">
        <ele>22.7283</ele>
        <time>2013-04-27T12:49:13Z</time>
      </trkpt>
      <trkpt lat="59.8862703" lon="17.6636529">
        <ele>22.7283</ele>
        <time>2013-04-27T12:49:14Z</time>
      </trkpt>
      <trkpt lat="59.8862515" lon="17.6636534">
        <ele>23.209</ele>
        <time>2013-04-27T12:49:15Z</time>
      </trkpt>
      <trkpt lat="59.8862279" lon="17.6636538">
        <ele>23.209</ele>
        <time>2013-04-27T12:49:16Z</time>
      </trkpt>
      <trkpt lat="59.8861967" lon="17.6636528">
        <ele>23.209</ele>
        <time>2013-04-27T12:49:17Z</time>
      </trkpt>
      <trkpt lat="59.8861577" lon="17.663642">
        <ele>23.6896</ele>
        <time>2013-04-27T12:49:18Z</time>
      </trkpt>
      <trkpt lat="59.8861131" lon="17.6636197">
        <ele>23.6896</ele>
        <time>2013-04-27T12:49:19Z</time>
      </trkpt>
      <trkpt lat="59.8860613" lon="17.6635912">
        <ele>23.6896</ele>
        <time>2013-04-27T12:49:20Z</time>
      </trkpt>
      <trkpt lat="59.8860031" lon="17.6635582">
        <ele>23.6896</ele>
        <time>2013-04-27T12:49:21Z</time>
      </trkpt>
      <trkpt lat="59.8859375" lon="17.6635349">
        <ele>23.209</ele>
        <time>2013-04-27T12:49:22Z</time>
      </trkpt>
      <trkpt lat="59.8858679" lon="17.663531">
        <ele>22.7283</ele>
        <time>2013-04-27T12:49:23Z</time>
      </trkpt>
      <trkpt lat="59.8858001" lon="17.6635561">
        <ele>22.7283</ele>
        <time>2013-04-27T12:49:24Z</time>
      </trkpt>
      <trkpt lat="59.8857363" lon="17.6636161">
        <ele>22.7283</ele>
        <time>2013-04-27T12:49:25Z</time>
      </trkpt>
      <trkpt lat="59.8856788" lon="17.6636974">
        <ele>22.7283</ele>
        <time>2013-04-27T12:49:26Z</time>
      </trkpt>
      <trkpt lat="59.8856268" lon="17.6637923">
        <ele>22.7283</ele>
        <time>2013-04-27T12:49:27Z</time>
      </trkpt>
      <trkpt lat="59.8855815" lon="17.6639021">
        <ele>22.7283</ele>
        <time>2013-04-27T12:49:28Z</time>
      </trkpt>
      <trkpt lat="59.8855454" lon="17.6640267">
        <ele>22.7283</ele>
        <time>2013-04-27T12:49:29Z</time>
      </trkpt>
      <trkpt lat="59.8855136" lon="17.6641609">
        <ele>22.7283</ele>
        <time>2013-04-27T12:49:30Z</time>
      </trkpt>
      <trkpt lat="59.8854809" lon="17.6642988">
        <ele>22.2476</ele>
        <time>2013-04-27T12:49:31Z</time>
      </trkpt>
      <trkpt lat="59.8854451" lon="17.6644402">
        <ele>22.2476</ele>
        <time>2013-04-27T12:49:32Z</time>
      </trkpt>
      <trkpt lat="59.8854083" lon="17.6645827">
        <ele>22.2476</ele>
        <time>2013-04-27T12:49:33Z</time>
      </trkpt>
      <trkpt lat="59.8853714" lon="17.6647215">
        <ele>21.767</ele>
        <time>2013-04-27T12:49:34Z</time>
      </trkpt>
      <trkpt lat="59.8853335" lon="17.6648552">
        <ele>21.767</ele>
        <time>2013-04-27T12:49:35Z</time>
      </trkpt>
      <trkpt lat="59.8852952" lon="17.664987">
        <ele>21.767</ele>
        <time>2013-04-27T12:49:36Z</time>
      </trkpt>
      <trkpt lat="59.8852581" lon="17.6651183">
        <ele>21.2864</ele>
        <time>2013-04-27T12:49:37Z</time>
      </trkpt>
      <trkpt lat="59.8852239" lon="17.66525">
        <ele>21.2864</ele>
        <time>2013-04-27T12:49:38Z</time>
      </trkpt>
      <trkpt lat="59.8851937" lon="17.6653825">
        <ele>21.767</ele>
        <time>2013-04-27T12:49:39Z</time>
      </trkpt>
      <trkpt lat="59.8851676" lon="17.6655176">
        <ele>21.767</ele>
        <time>2013-04-27T12:49:40Z</time>
      </trkpt>
      <trkpt lat="59.8851461" lon="17.665656">
        <ele>21.767</ele>
        <time>2013-04-27T12:49:41Z</time>
      </trkpt>
      <trkpt lat="59.8851281" lon="17.6657965">
        <ele>22.2476</ele>
        <time>2013-04-27T12:49:42Z</time>
      </trkpt>
      <trkpt lat="59.8851124" lon="17.6659352">
        <ele>22.7283</ele>
        <time>2013-04-27T12:49:43Z</time>
      </trkpt>
      <trkpt lat="59.8850982" lon="17.6660714">
        <ele>23.209</ele>
        <time>2013-04-27T12:49:44Z</time>
      </trkpt>
      <trkpt lat="59.8850851" lon="17.6662046">
        <ele>23.6896</ele>
        <time>2013-04-27T12:49:45Z</time>
      </trkpt>
      <trkpt lat="59.885074" lon="17.6663346">
        <ele>24.651</ele>
        <time>2013-04-27T12:49:46Z</time>
      </trkpt>
      <trkpt lat="59.8850643" lon="17.6664618">
        <ele>25.1317</ele>
        <time>2013-04-27T12:49:47Z</time>
      </trkpt>
      <trkpt lat="59.8850543" lon="17.6665856">
        <ele>25.1317</ele>
        <time>2013-04-27T12:49:48Z</time>
      </trkpt>
      <trkpt lat="59.8850437" lon="17.6667055">
        <ele>25.6123</ele>
        <time>2013-04-27T12:49:49Z</time>
      </trkpt>
      <trkpt lat="59.8850297" lon="17.66682">
        <ele>26.0929</ele>
        <time>2013-04-27T12:49:50Z</time>
      </trkpt>
      <trkpt lat="59.8850105" lon="17.6669281">
        <ele>26.0929</ele>
        <time>2013-04-27T12:49:51Z</time>
      </trkpt>
      <trkpt lat="59.8849841" lon="17.6670267">
        <ele>26.0929</ele>
        <time>2013-04-27T12:49:52Z</time>
      </trkpt>
      <trkpt lat="59.8849489" lon="17.6671116">
        <ele>26.0929</ele>
        <time>2013-04-27T12:49:53Z</time>
      </trkpt>
      <trkpt lat="59.884909" lon="17.6671872">
        <ele>26.0929</ele>
        <time>2013-04-27T12:49:54Z</time>
      </trkpt>
      <trkpt lat="59.8848696" lon="17.6672643">
        <ele>26.0929</ele>
        <time>2013-04-27T12:49:55Z</time>
      </trkpt>
      <trkpt lat="59.8848357" lon="17.6673525">
        <ele>26.0929</ele>
        <time>2013-04-27T12:49:56Z</time>
      </trkpt>
      <trkpt lat="59.8848117" lon="17.6674522">
        <ele>26.0929</ele>
        <time>2013-04-27T12:49:57Z</time>
      </trkpt>
      <trkpt lat="59.8848" lon="17.6675618">
        <ele>26.5736</ele>
        <time>2013-04-27T12:49:58Z</time>
      </trkpt>
      <trkpt lat="59.8848001" lon="17.6676752">
        <ele>26.5736</ele>
        <time>2013-04-27T12:49:59Z</time>
      </trkpt>
      <trkpt lat="59.8848075" lon="17.6677912">
        <ele>27.0543</ele>
        <time>2013-04-27T12:50:00Z</time>
      </trkpt>
      <trkpt lat="59.8848142" lon="17.6679104">
        <ele>27.0543</ele>
        <time>2013-04-27T12:50:01Z</time>
      </trkpt>
      <trkpt lat="59.8848152" lon="17.6680312">
        <ele>27.0543</ele>
        <time>2013-04-27T12:50:02Z</time>
      </trkpt>
      <trkpt lat="59.8848063" lon="17.6681503">
        <ele>27.5349</ele>
        <time>2013-04-27T12:50:03Z</time>
      </trkpt>
      <trkpt lat="59.8847914" lon="17.6682662">
        <ele>27.5349</ele>
        <time>2013-04-27T12:50:04Z</time>
      </trkpt>
      <trkpt lat="59.8847707" lon="17.6683764">
        <ele>27.5349</ele>
        <time>2013-04-27T12:50:05Z</time>
      </trkpt>
      <trkpt lat="59.8847415" lon="17.6684769">
        <ele>27.5349</ele>
        <time>2013-04-27T12:50:06Z</time>
      </trkpt>
      <trkpt lat="59.8847101" lon="17.6685738">
        <ele>27.5349</ele>
        <time>2013-04-27T12:50:07Z</time>
      </trkpt>
      <trkpt lat="59.8846799" lon="17.6686718">
        <ele>28.0155</ele>
        <time>2013-04-27T12:50:08Z</time>
      </trkpt>
      <trkpt lat="59.8846494" lon="17.6687712">
        <ele>28.0155</ele>
        <time>2013-04-27T12:50:09Z</time>
      </trkpt>
      <trkpt lat="59.8846185" lon="17.6688712">
        <ele>28.0155</ele>
        <time>2013-04-27T12:50:10Z</time>
      </trkpt>
      <trkpt lat="59.884586" lon="17.6689692">
        <ele>28.0155</ele>
        <time>2013-04-27T12:50:11Z</time>
      </trkpt>
      <trkpt lat="59.8845516" lon="17.6690653">
        <ele>27.5349</ele>
        <time>2013-04-27T12:50:12Z</time>
      </trkpt>
      <trkpt lat="59.8845153" lon="17.6691589">
        <ele>27.5349</ele>
        <time>2013-04-27T12:50:13Z</time>
      </trkpt>
      <trkpt lat="59.884478" lon="17.669252">
        <ele>27.5349</ele>
        <time>2013-04-27T12:50:14Z</time>
      </trkpt>
      <trkpt lat="59.8844417" lon="17.6693458">
        <ele>27.5349</ele>
        <time>2013-04-27T12:50:15Z</time>
      </trkpt>
      <trkpt lat="59.884405" lon="17.6694402">
        <ele>27.0543</ele>
        <time>2013-04-27T12:50:16Z</time>
      </trkpt>
      <trkpt lat="59.8843662" lon="17.6695329">
        <ele>27.0543</ele>
        <time>2013-04-27T12:50:17Z</time>
      </trkpt>
      <trkpt lat="59.8843257" lon="17.6696246">
        <ele>26.5736</ele>
        <time>2013-04-27T12:50:18Z</time>
      </trkpt>
      <trkpt lat="59.8842848" lon="17.6697167">
        <ele>26.5736</ele>
        <time>2013-04-27T12:50:19Z</time>
      </trkpt>
      <trkpt lat="59.8842432" lon="17.6698107">
        <ele>26.0929</ele>
        <time>2013-04-27T12:50:20Z</time>
      </trkpt>
      <trkpt lat="59.8842009" lon="17.6699041">
        <ele>26.0929</ele>
        <time>2013-04-27T12:50:21Z</time>
      </trkpt>
      <trkpt lat="59.8841582" lon="17.6699936">
        <ele>25.6123</ele>
        <time>2013-04-27T12:50:22Z</time>
      </trkpt>
      <trkpt lat="59.8841154" lon="17.6700789">
        <ele>25.6123</ele>
        <time>2013-04-27T12:50:23Z</time>
      </trkpt>
      <trkpt lat="59.8840719" lon="17.6701591">
        <ele>25.1317</ele>
        <time>2013-04-27T12:50:24Z</time>
      </trkpt>
      <trkpt lat="59.8840241" lon="17.6702254">
        <ele>25.1317</ele>
        <time>2013-04-27T12:50:25Z</time>
      </trkpt>
      <trkpt lat="59.8839717" lon="17.6702689">
        <ele>24.651</ele>
        <time>2013-04-27T12:50:26Z</time>
      </trkpt>
      <trkpt lat="59.8839163" lon="17.6702926">
        <ele>24.651</ele>
        <time>2013-04-27T12:50:27Z</time>
      </trkpt>
      <trkpt lat="59.8838595" lon="17.6703091">
        <ele>24.651</ele>
        <time>2013-04-27T12:50:28Z</time>
      </trkpt>
      <trkpt lat="59.8838035" lon="17.6703378">
        <ele>24.651</ele>
        <time>2013-04-27T12:50:29Z</time>
      </trkpt>
      <trkpt lat="59.8837505" lon="17.67039">
        <ele>24.651</ele>
        <time>2013-04-27T12:50:30Z</time>
      </trkpt>
      <trkpt lat="59.8837052" lon="17.6704693">
        <ele>25.1317</ele>
        <time>2013-04-27T12:50:31Z</time>
      </trkpt>
      <trkpt lat="59.8836704" lon="17.670571">
        <ele>25.6123</ele>
        <time>2013-04-27T12:50:32Z</time>
      </trkpt>
      <trkpt lat="59.883644" lon="17.6706872">
        <ele>26.0929</ele>
        <time>2013-04-27T12:50:33Z</time>
      </trkpt>
      <trkpt lat="59.8836191" lon="17.6708056">
        <ele>26.0929</ele>
        <time>2013-04-27T12:50:34Z</time>
      </trkpt>
      <trkpt lat="59.883589" lon="17.6709195">
        <ele>26.0929</ele>
        <time>2013-04-27T12:50:35Z</time>
      </trkpt>
      <trkpt lat="59.8835505" lon="17.6710215">
        <ele>26.0929</ele>
        <time>2013-04-27T12:50:36Z</time>
      </trkpt>
      <trkpt lat="59.8835052" lon="17.671112">
        <ele>26.0929</ele>
        <time>2013-04-27T12:50:37Z</time>
      </trkpt>
      <trkpt lat="59.8834565" lon="17.6711959">
        <ele>26.0929</ele>
        <time>2013-04-27T12:50:38Z</time>
      </trkpt>
      <trkpt lat="59.8834058" lon="17.6712762">
        <ele>25.6123</ele>
        <time>2013-04-27T12:50:39Z</time>
      </trkpt>
      <trkpt lat="59.8833538" lon="17.6713523">
        <ele>25.6123</ele>
        <time>2013-04-27T12:50:40Z</time>
      </trkpt>
      <trkpt lat="59.8833007" lon="17.6714254">
        <ele>25.1317</ele>
        <time>2013-04-27T12:50:41Z</time>
      </trkpt>
      <trkpt lat="59.8832472" lon="17.6714969">
        <ele>25.1317</ele>
        <time>2013-04-27T12:50:42Z</time>
      </trkpt>
      <trkpt lat="59.8831936" lon="17.6715658">
        <ele>25.1317</ele>
        <time>2013-04-27T12:50:43Z</time>
      </trkpt>
      <trkpt lat="59.8831395" lon="17.6716328">
        <ele>25.1317</ele>
        <time>2013-04-27T12:50:44Z</time>
      </trkpt>
      <trkpt lat="59.883084" lon="17.671697">
        <ele>24.651</ele>
        <time>2013-04-27T12:50:45Z</time>
      </trkpt>
      <trkpt lat="59.8830268" lon="17.6717576">
        <ele>24.651</ele>
        <time>2013-04-27T12:50:46Z</time>
      </trkpt>
      <trkpt lat="59.8829685" lon="17.6718157">
        <ele>24.651</ele>
        <time>2013-04-27T12:50:47Z</time>
      </trkpt>
      <trkpt lat="59.8829094" lon="17.6718706">
        <ele>24.1703</ele>
        <time>2013-04-27T12:50:48Z</time>
      </trkpt>
      <trkpt lat="59.8828498" lon="17.6719225">
        <ele>24.1703</ele>
        <time>2013-04-27T12:50:49Z</time>
      </trkpt>
      <trkpt lat="59.8827899" lon="17.6719724">
        <ele>24.1703</ele>
        <time>2013-04-27T12:50:50Z</time>
      </trkpt>
      <trkpt lat="59.8827306" lon="17.6720217">
        <ele>23.6896</ele>
        <time>2013-04-27T12:50:51Z</time>
      </trkpt>
      <trkpt lat="59.882671" lon="17.6720717">
        <ele>23.6896</ele>
        <time>2013-04-27T12:50:52Z</time>
      </trkpt>
      <trkpt lat="59.8826109" lon="17.6721212">
        <ele>23.6896</ele>
        <time>2013-04-27T12:50:53Z</time>
      </trkpt>
      <trkpt lat="59.8825505" lon="17.6721706">
        <ele>23.6896</ele>
        <time>2013-04-27T12:50:54Z</time>
      </trkpt>
      <trkpt lat="59.88249" lon="17.6722213">
        <ele>23.209</ele>
        <time>2013-04-27T12:50:55Z</time>
      </trkpt>
      <trkpt lat="59.8824293" lon="17.6722723">
        <ele>23.209</ele>
        <time>2013-04-27T12:50:56Z</time>
      </trkpt>
      <trkpt lat="59.8823684" lon="17.6723228">
        <ele>23.209</ele>
        <time>2013-04-27T12:50:57Z</time>
      </trkpt>
      <trkpt lat="59.882307" lon="17.6723729">
        <ele>23.209</ele>
        <time>2013-04-27T12:50:58Z</time>
      </trkpt>
      <trkpt lat="59.8822455" lon="17.6724247">
        <ele>23.209</ele>
        <time>2013-04-27T12:50:59Z</time>
      </trkpt>
      <trkpt lat="59.882184" lon="17.672479">
        <ele>23.209</ele>
        <time>2013-04-27T12:51:00Z</time>
      </trkpt>
      <trkpt lat="59.8821216" lon="17.6725326">
        <ele>23.209</ele>
        <time>2013-04-27T12:51:01Z</time>
      </trkpt>
      <trkpt lat="59.8820583" lon="17.6725837">
        <ele>23.209</ele>
        <time>2013-04-27T12:51:02Z</time>
      </trkpt>
      <trkpt lat="59.8819945" lon="17.6726337">
        <ele>23.209</ele>
        <time>2013-04-27T12:51:03Z</time>
      </trkpt>
      <trkpt lat="59.8819315" lon="17.6726829">
        <ele>23.209</ele>
        <time>2013-04-27T12:51:04Z</time>
      </trkpt>
      <trkpt lat="59.8818702" lon="17.6727332">
        <ele>23.209</ele>
        <time>2013-04-27T12:51:05Z</time>
      </trkpt>
      <trkpt lat="59.8818105" lon="17.6727837">
        <ele>23.6896</ele>
        <time>2013-04-27T12:51:06Z</time>
      </trkpt>
      <trkpt lat="59.8817523" lon="17.6728325">
        <ele>23.6896</ele>
        <time>2013-04-27T12:51:07Z</time>
      </trkpt>
      <trkpt lat="59.8816953" lon="17.6728791">
        <ele>23.6896</ele>
        <time>2013-04-27T12:51:08Z</time>
      </trkpt>
      <trkpt lat="59.8816394" lon="17.6729259">
        <ele>23.6896</ele>
        <time>2013-04-27T12:51:09Z</time>
      </trkpt>
      <trkpt lat="59.8815837" lon="17.6729734">
        <ele>24.1703</ele>
        <time>2013-04-27T12:51:10Z</time>
      </trkpt>
      <trkpt lat="59.8815279" lon="17.6730177">
        <ele>23.6896</ele>
        <time>2013-04-27T12:51:11Z</time>
      </trkpt>
      <trkpt lat="59.8814718" lon="17.6730628">
        <ele>23.6896</ele>
        <time>2013-04-27T12:51:12Z</time>
      </trkpt>
      <trkpt lat="59.8814149" lon="17.6731074">
        <ele>23.209</ele>
        <time>2013-04-27T12:51:13Z</time>
      </trkpt>
      <trkpt lat="59.8813575" lon="17.6731526">
        <ele>23.209</ele>
        <time>2013-04-27T12:51:14Z</time>
      </trkpt>
      <trkpt lat="59.8813" lon="17.6731993">
        <ele>23.209</ele>
        <time>2013-04-27T12:51:15Z</time>
      </trkpt>
      <trkpt lat="59.8812424" lon="17.6732469">
        <ele>22.7283</ele>
        <time>2013-04-27T12:51:16Z</time>
      </trkpt>
      <trkpt lat="59.8811843" lon="17.6732951">
        <ele>22.7283</ele>
        <time>2013-04-27T12:51:17Z</time>
      </trkpt>
      <trkpt lat="59.8811259" lon="17.6733437">
        <ele>22.7283</ele>
        <time>2013-04-27T12:51:18Z</time>
      </trkpt>
      <trkpt lat="59.8810674" lon="17.6733933">
        <ele>22.7283</ele>
        <time>2013-04-27T12:51:19Z</time>
      </trkpt>
      <trkpt lat="59.881009" lon="17.6734441">
        <ele>22.2476</ele>
        <time>2013-04-27T12:51:20Z</time>
      </trkpt>
      <trkpt lat="59.8809509" lon="17.6734955">
        <ele>22.2476</ele>
        <time>2013-04-27T12:51:21Z</time>
      </trkpt>
      <trkpt lat="59.8808926" lon="17.6735469">
        <ele>22.2476</ele>
        <time>2013-04-27T12:51:22Z</time>
      </trkpt>
      <trkpt lat="59.8808338" lon="17.6735985">
        <ele>22.2476</ele>
        <time>2013-04-27T12:51:23Z</time>
      </trkpt>
      <trkpt lat="59.880774" lon="17.6736525">
        <ele>22.2476</ele>
        <time>2013-04-27T12:51:24Z</time>
      </trkpt>
      <trkpt lat="59.8807145" lon="17.6737074">
        <ele>22.2476</ele>
        <time>2013-04-27T12:51:25Z</time>
      </trkpt>
      <trkpt lat="59.8806556" lon="17.6737622">
        <ele>22.2476</ele>
        <time>2013-04-27T12:51:26Z</time>
      </trkpt>
      <trkpt lat="59.880597" lon="17.6738161">
        <ele>22.2476</ele>
        <time>2013-04-27T12:51:27Z</time>
      </trkpt>
      <trkpt lat="59.8805384" lon="17.6738706">
        <ele>22.2476</ele>
        <time>2013-04-27T12:51:28Z</time>
      </trkpt>
      <trkpt lat="59.8804803" lon="17.6739269">
        <ele>22.2476</ele>
        <time>2013-04-27T12:51:29Z</time>
      </trkpt>
      <trkpt lat="59.8804218" lon="17.673984">
        <ele>22.2476</ele>
        <time>2013-04-27T12:51:30Z</time>
      </trkpt>
      <trkpt lat="59.880362" lon="17.6740404">
        <ele>22.2476</ele>
        <time>2013-04-27T12:51:31Z</time>
      </trkpt>
      <trkpt lat="59.8803021" lon="17.6740983">
        <ele>22.2476</ele>
        <time>2013-04-27T12:51:32Z</time>
      </trkpt>
      <trkpt lat="59.880242" lon="17.6741564">
        <ele>22.2476</ele>
        <time>2013-04-27T12:51:33Z</time>
      </trkpt>
      <trkpt lat="59.8801812" lon="17.6742149">
        <ele>22.2476</ele>
        <time>2013-04-27T12:51:34Z</time>
      </trkpt>
      <trkpt lat="59.8801206" lon="17.6742746">
        <ele>22.2476</ele>
        <time>2013-04-27T12:51:35Z</time>
      </trkpt>
      <trkpt lat="59.8800612" lon="17.674334">
        <ele>22.2476</ele>
        <time>2013-04-27T12:51:36Z</time>
      </trkpt>
      <trkpt lat="59.8800032" lon="17.674392">
        <ele>22.2476</ele>
        <time>2013-04-27T12:51:37Z</time>
      </trkpt>
      <trkpt lat="59.8799465" lon="17.6744482">
        <ele>22.7283</ele>
        <time>2013-04-27T12:51:38Z</time>
      </trkpt>
      <trkpt lat="59.8798905" lon="17.6745061">
        <ele>22.7283</ele>
        <time>2013-04-27T12:51:39Z</time>
      </trkpt>
      <trkpt lat="59.879834" lon="17.6745683">
        <ele>22.7283</ele>
        <time>2013-04-27T12:51:40Z</time>
      </trkpt>
      <trkpt lat="59.879776" lon="17.6746308">
        <ele>22.7283</ele>
        <time>2013-04-27T12:51:41Z</time>
      </trkpt>
      <trkpt lat="59.8797163" lon="17.6746943">
        <ele>22.7283</ele>
        <time>2013-04-27T12:51:42Z</time>
      </trkpt>
      <trkpt lat="59.8796559" lon="17.6747578">
        <ele>22.7283</ele>
        <time>2013-04-27T12:51:43Z</time>
      </trkpt>
      <trkpt lat="59.8795959" lon="17.6748196">
        <ele>22.7283</ele>
        <time>2013-04-27T12:51:44Z</time>
      </trkpt>
      <trkpt lat="59.879536" lon="17.6748807">
        <ele>22.2476</ele>
        <time>2013-04-27T12:51:45Z</time>
      </trkpt>
      <trkpt lat="59.8794762" lon="17.6749418">
        <ele>22.2476</ele>
        <time>2013-04-27T12:51:46Z</time>
      </trkpt>
      <trkpt lat="59.8794164" lon="17.675004">
        <ele>22.2476</ele>
        <time>2013-04-27T12:51:47Z</time>
      </trkpt>
      <trkpt lat="59.879355" lon="17.6750646">
        <ele>22.2476</ele>
        <time>2013-04-27T12:51:48Z</time>
      </trkpt>
      <trkpt lat="59.8792915" lon="17.6751172">
        <ele>21.767</ele>
        <time>2013-04-27T12:51:49Z</time>
      </trkpt>
      <trkpt lat="59.879225" lon="17.6751522">
        <ele>21.767</ele>
        <time>2013-04-27T12:51:50Z</time>
      </trkpt>
      <trkpt lat="59.879157" lon="17.6751635">
        <ele>22.2476</ele>
        <time>2013-04-27T12:51:51Z</time>
      </trkpt>
      <trkpt lat="59.8790905" lon="17.6751688">
        <ele>22.2476</ele>
        <time>2013-04-27T12:51:52Z</time>
      </trkpt>
      <trkpt lat="59.879028" lon="17.6752086">
        <ele>23.209</ele>
        <time>2013-04-27T12:51:53Z</time>
      </trkpt>
      <trkpt lat="59.8789757" lon="17.675289">
        <ele>23.6896</ele>
        <time>2013-04-27T12:51:54Z</time>
      </trkpt>
      <trkpt lat="59.8789349" lon="17.6753915">
        <ele>24.1703</ele>
        <time>2013-04-27T12:51:55Z</time>
      </trkpt>
      <trkpt lat="59.8788978" lon="17.6754967">
        <ele>24.1703</ele>
        <time>2013-04-27T12:51:56Z</time>
      </trkpt>
      <trkpt lat="59.878856" lon="17.6755992">
        <ele>24.1703</ele>
        <time>2013-04-27T12:51:57Z</time>
      </trkpt>
      <trkpt lat="59.8788095" lon="17.675694">
        <ele>24.1703</ele>
        <time>2013-04-27T12:51:58Z</time>
      </trkpt>
      <trkpt lat="59.8787598" lon="17.6757795">
        <ele>23.6896</ele>
        <time>2013-04-27T12:51:59Z</time>
      </trkpt>
      <trkpt lat="59.8787073" lon="17.6758561">
        <ele>23.6896</ele>
        <time>2013-04-27T12:52:00Z</time>
      </trkpt>
      <trkpt lat="59.8786526" lon="17.675926">
        <ele>23.209</ele>
        <time>2013-04-27T12:52:01Z</time>
      </trkpt>
      <trkpt lat="59.8785974" lon="17.6759922">
        <ele>23.209</ele>
        <time>2013-04-27T12:52:02Z</time>
      </trkpt>
      <trkpt lat="59.8785416" lon="17.6760564">
        <ele>22.7283</ele>
        <time>2013-04-27T12:52:03Z</time>
      </trkpt>
      <trkpt lat="59.8784851" lon="17.6761197">
        <ele>22.7283</ele>
        <time>2013-04-27T12:52:04Z</time>
      </trkpt>
      <trkpt lat="59.8784282" lon="17.6761833">
        <ele>22.2476</ele>
        <time>2013-04-27T12:52:05Z</time>
      </trkpt>
      <trkpt lat="59.8783718" lon="17.6762456">
        <ele>22.2476</ele>
        <time>2013-04-27T12:52:06Z</time>
      </trkpt>
      <trkpt lat="59.8783156" lon="17.6763053">
        <ele>21.767</ele>
        <time>2013-04-27T12:52:07Z</time>
      </trkpt>
      <trkpt lat="59.8782588" lon="17.6763653">
        <ele>21.767</ele>
        <time>2013-04-27T12:52:08Z</time>
      </trkpt>
      <trkpt lat="59.8782013" lon="17.6764242">
        <ele>21.767</ele>
        <time>2013-04-27T12:52:09Z</time>
      </trkpt>
      <trkpt lat="59.8781438" lon="17.6764788">
        <ele>21.767</ele>
        <time>2013-04-27T12:52:10Z</time>
      </trkpt>
      <trkpt lat="59.8780857" lon="17.6765347">
        <ele>21.767</ele>
        <time>2013-04-27T12:52:11Z</time>
      </trkpt>
      <trkpt lat="59.8780275" lon="17.676591">
        <ele>21.2864</ele>
        <time>2013-04-27T12:52:12Z</time>
      </trkpt>
      <trkpt lat="59.8779686" lon="17.6766471">
        <ele>21.2864</ele>
        <time>2013-04-27T12:52:13Z</time>
      </trkpt>
      <trkpt lat="59.8779086" lon="17.6767">
        <ele>21.2864</ele>
        <time>2013-04-27T12:52:14Z</time>
      </trkpt>
      <trkpt lat="59.877848" lon="17.6767534">
        <ele>20.8057</ele>
        <time>2013-04-27T12:52:15Z</time>
      </trkpt>
      <trkpt lat="59.8777864" lon="17.6768088">
        <ele>20.8057</ele>
        <time>2013-04-27T12:52:16Z</time>
      </trkpt>
      <trkpt lat="59.877724" lon="17.6768626">
        <ele>20.8057</ele>
        <time>2013-04-27T12:52:17Z</time>
      </trkpt>
      <trkpt lat="59.8776614" lon="17.6769154">
        <ele>20.8057</ele>
        <time>2013-04-27T12:52:18Z</time>
      </trkpt>
      <trkpt lat="59.8775993" lon="17.6769684">
        <ele>20.8057</ele>
        <time>2013-04-27T12:52:19Z</time>
      </trkpt>
      <trkpt lat="59.8775373" lon="17.6770206">
        <ele>20.8057</ele>
        <time>2013-04-27T12:52:20Z</time>
      </trkpt>
      <trkpt lat="59.8774755" lon="17.6770727">
        <ele>20.8057</ele>
        <time>2013-04-27T12:52:21Z</time>
      </trkpt>
      <trkpt lat="59.8774127" lon="17.6771242">
        <ele>20.8057</ele>
        <time>2013-04-27T12:52:22Z</time>
      </trkpt>
      <trkpt lat="59.8773486" lon="17.6771734">
        <ele>21.2864</ele>
        <time>2013-04-27T12:52:23Z</time>
      </trkpt>
      <trkpt lat="59.8772838" lon="17.6772212">
        <ele>21.2864</ele>
        <time>2013-04-27T12:52:24Z</time>
      </trkpt>
      <trkpt lat="59.8772186" lon="17.677266">
        <ele>21.767</ele>
        <time>2013-04-27T12:52:25Z</time>
      </trkpt>
      <trkpt lat="59.8771523" lon="17.6773074">
        <ele>21.767</ele>
        <time>2013-04-27T12:52:26Z</time>
      </trkpt>
      <trkpt lat="59.8770858" lon="17.6773414">
        <ele>22.2476</ele>
        <time>2013-04-27T12:52:27Z</time>
      </trkpt>
      <trkpt lat="59.877019" lon="17.6773764">
        <ele>22.7283</ele>
        <time>2013-04-27T12:52:28Z</time>
      </trkpt>
      <trkpt lat="59.8769545" lon="17.6774143">
        <ele>22.7283</ele>
        <time>2013-04-27T12:52:29Z</time>
      </trkpt>
      <trkpt lat="59.8768916" lon="17.6774525">
        <ele>23.209</ele>
        <time>2013-04-27T12:52:30Z</time>
      </trkpt>
      <trkpt lat="59.8768266" lon="17.6774832">
        <ele>23.209</ele>
        <time>2013-04-27T12:52:31Z</time>
      </trkpt>
      <trkpt lat="59.8767581" lon="17.6774956">
        <ele>23.6896</ele>
        <time>2013-04-27T12:52:32Z</time>
      </trkpt>
      <trkpt lat="59.8766854" lon="17.6774864">
        <ele>23.6896</ele>
        <time>2013-04-27T12:52:33Z</time>
      </trkpt>
      <trkpt lat="59.8766125" lon="17.6774489">
        <ele>24.1703</ele>
        <time>2013-04-27T12:52:34Z</time>
      </trkpt>
      <trkpt lat="59.876541" lon="17.6773916">
        <ele>23.6896</ele>
        <time>2013-04-27T12:52:35Z</time>
      </trkpt>
      <trkpt lat="59.8764664" lon="17.6773526">
        <ele>23.6896</ele>
        <time>2013-04-27T12:52:36Z</time>
      </trkpt>
      <trkpt lat="59.8763876" lon="17.677349">
        <ele>23.6896</ele>
        <time>2013-04-27T12:52:37Z</time>
      </trkpt>
      <trkpt lat="59.8763101" lon="17.677392">
        <ele>24.1703</ele>
        <time>2013-04-27T12:52:38Z</time>
      </trkpt>
      <trkpt lat="59.8762415" lon="17.6774758">
        <ele>25.1317</ele>
        <time>2013-04-27T12:52:39Z</time>
      </trkpt>
      <trkpt lat="59.876185" lon="17.6775873">
        <ele>26.0929</ele>
        <time>2013-04-27T12:52:40Z</time>
      </trkpt>
      <trkpt lat="59.8761373" lon="17.6777091">
        <ele>26.5736</ele>
        <time>2013-04-27T12:52:41Z</time>
      </trkpt>
      <trkpt lat="59.8760883" lon="17.6778229">
        <ele>26.5736</ele>
        <time>2013-04-27T12:52:42Z</time>
      </trkpt>
      <trkpt lat="59.8760293" lon="17.6779095">
        <ele>26.5736</ele>
        <time>2013-04-27T12:52:43Z</time>
      </trkpt>
      <trkpt lat="59.8759628" lon="17.6779727">
        <ele>26.0929</ele>
        <time>2013-04-27T12:52:44Z</time>
      </trkpt>
      <trkpt lat="59.8758934" lon="17.678023">
        <ele>25.6123</ele>
        <time>2013-04-27T12:52:45Z</time>
      </trkpt>
      <trkpt lat="59.8758224" lon="17.678064">
        <ele>25.6123</ele>
        <time>2013-04-27T12:52:46Z</time>
      </trkpt>
      <trkpt lat="59.8757499" lon="17.6780961">
        <ele>25.1317</ele>
        <time>2013-04-27T12:52:47Z</time>
      </trkpt>
      <trkpt lat="59.8756756" lon="17.6781223">
        <ele>24.651</ele>
        <time>2013-04-27T12:52:48Z</time>
      </trkpt>
      <trkpt lat="59.8756012" lon="17.6781445">
        <ele>24.651</ele>
        <time>2013-04-27T12:52:49Z</time>
      </trkpt>
      <trkpt lat="59.8755269" lon="17.6781634">
        <ele>24.651</ele>
        <time>2013-04-27T12:52:50Z</time>
      </trkpt>
      <trkpt lat="59.8754531" lon="17.6781797">
        <ele>24.1703</ele>
        <time>2013-04-27T12:52:51Z</time>
      </trkpt>
      <trkpt lat="59.8753801" lon="17.6781927">
        <ele>24.1703</ele>
        <time>2013-04-27T12:52:52Z</time>
      </trkpt>
      <trkpt lat="59.8753072" lon="17.6782038">
        <ele>24.1703</ele>
        <time>2013-04-27T12:52:53Z</time>
      </trkpt>
      <trkpt lat="59.8752345" lon="17.6782129">
        <ele>24.1703</ele>
        <time>2013-04-27T12:52:54Z</time>
      </trkpt>
      <trkpt lat="59.8751622" lon="17.6782184">
        <ele>23.6896</ele>
        <time>2013-04-27T12:52:55Z</time>
      </trkpt>
      <trkpt lat="59.8750904" lon="17.6782212">
        <ele>23.6896</ele>
        <time>2013-04-27T12:52:56Z</time>
      </trkpt>
      <trkpt lat="59.8750185" lon="17.678225">
        <ele>23.6896</ele>
        <time>2013-04-27T12:52:57Z</time>
      </trkpt>
      <trkpt lat="59.874947" lon="17.6782276">
        <ele>23.6896</ele>
        <time>2013-04-27T12:52:58Z</time>
      </trkpt>
      <trkpt lat="59.8748759" lon="17.6782272">
        <ele>23.6896</ele>
        <time>2013-04-27T12:52:59Z</time>
      </trkpt>
      <trkpt lat="59.8748052" lon="17.6782302">
        <ele>23.209</ele>
        <time>2013-04-27T12:53:00Z</time>
      </trkpt>
      <trkpt lat="59.8747352" lon="17.6782331">
        <ele>23.209</ele>
        <time>2013-04-27T12:53:01Z</time>
      </trkpt>
      <trkpt lat="59.8746652" lon="17.678232">
        <ele>23.209</ele>
        <time>2013-04-27T12:53:02Z</time>
      </trkpt>
      <trkpt lat="59.874595" lon="17.678232">
        <ele>23.209</ele>
        <time>2013-04-27T12:53:03Z</time>
      </trkpt>
      <trkpt lat="59.8745249" lon="17.6782348">
        <ele>23.209</ele>
        <time>2013-04-27T12:53:04Z</time>
      </trkpt>
      <trkpt lat="59.874455" lon="17.6782381">
        <ele>23.209</ele>
        <time>2013-04-27T12:53:05Z</time>
      </trkpt>
      <trkpt lat="59.8743851" lon="17.6782424">
        <ele>23.209</ele>
        <time>2013-04-27T12:53:06Z</time>
      </trkpt>
      <trkpt lat="59.8743152" lon="17.6782477">
        <ele>23.209</ele>
        <time>2013-04-27T12:53:07Z</time>
      </trkpt>
      <trkpt lat="59.8742452" lon="17.678255">
        <ele>23.209</ele>
        <time>2013-04-27T12:53:08Z</time>
      </trkpt>
      <trkpt lat="59.8741753" lon="17.6782647">
        <ele>23.209</ele>
        <time>2013-04-27T12:53:09Z</time>
      </trkpt>
      <trkpt lat="59.8741043" lon="17.678273">
        <ele>23.209</ele>
        <time>2013-04-27T12:53:10Z</time>
      </trkpt>
      <trkpt lat="59.8740311" lon="17.6782815">
        <ele>23.209</ele>
        <time>2013-04-27T12:53:11Z</time>
      </trkpt>
      <trkpt lat="59.8739567" lon="17.6782918">
        <ele>23.209</ele>
        <time>2013-04-27T12:53:12Z</time>
      </trkpt>
      <trkpt lat="59.8738819" lon="17.6783033">
        <ele>23.209</ele>
        <time>2013-04-27T12:53:13Z</time>
      </trkpt>
      <trkpt lat="59.873807" lon="17.6783168">
        <ele>23.209</ele>
        <time>2013-04-27T12:53:14Z</time>
      </trkpt>
      <trkpt lat="59.8737324" lon="17.6783311">
        <ele>23.209</ele>
        <time>2013-04-27T12:53:15Z</time>
      </trkpt>
      <trkpt lat="59.8736581" lon="17.6783458">
        <ele>23.209</ele>
        <time>2013-04-27T12:53:16Z</time>
      </trkpt>
      <trkpt lat="59.8735842" lon="17.6783641">
        <ele>23.209</ele>
        <time>2013-04-27T12:53:17Z</time>
      </trkpt>
      <trkpt lat="59.8735106" lon="17.6783836">
        <ele>23.209</ele>
        <time>2013-04-27T12:53:18Z</time>
      </trkpt>
      <trkpt lat="59.8734367" lon="17.6784011">
        <ele>23.209</ele>
        <time>2013-04-27T12:53:19Z</time>
      </trkpt>
      <trkpt lat="59.8733628" lon="17.6784175">
        <ele>23.209</ele>
        <time>2013-04-27T12:53:20Z</time>
      </trkpt>
      <trkpt lat="59.8732885" lon="17.6784361">
        <ele>23.209</ele>
        <time>2013-04-27T12:53:21Z</time>
      </trkpt>
      <trkpt lat="59.8732144" lon="17.6784555">
        <ele>23.209</ele>
        <time>2013-04-27T12:53:22Z</time>
      </trkpt>
      <trkpt lat="59.8731404" lon="17.6784756">
        <ele>23.209</ele>
        <time>2013-04-27T12:53:23Z</time>
      </trkpt>
      <trkpt lat="59.8730661" lon="17.6784955">
        <ele>23.209</ele>
        <time>2013-04-27T12:53:24Z</time>
      </trkpt>
      <trkpt lat="59.8729916" lon="17.6785159">
        <ele>23.209</ele>
        <time>2013-04-27T12:53:25Z</time>
      </trkpt>
      <trkpt lat="59.8729169" lon="17.6785372">
        <ele>23.209</ele>
        <time>2013-04-27T12:53:26Z</time>
      </trkpt>
      <trkpt lat="59.8728422" lon="17.6785585">
        <ele>22.7283</ele>
        <time>2013-04-27T12:53:27Z</time>
      </trkpt>
      <trkpt lat="59.8727673" lon="17.6785789">
        <ele>22.7283</ele>
        <time>2013-04-27T12:53:28Z</time>
      </trkpt>
      <trkpt lat="59.8726922" lon="17.6785995">
        <ele>22.7283</ele>
        <time>2013-04-27T12:53:29Z</time>
      </trkpt>
      <trkpt lat="59.8726167" lon="17.6786195">
        <ele>22.7283</ele>
        <time>2013-04-27T12:53:30Z</time>
      </trkpt>
      <trkpt lat="59.87254" lon="17.6786414">
        <ele>22.7283</ele>
        <time>2013-04-27T12:53:31Z</time>
      </trkpt>
      <trkpt lat="59.8724629" lon="17.6786639">
        <ele>22.7283</ele>
        <time>2013-04-27T12:53:32Z</time>
      </trkpt>
      <trkpt lat="59.8723856" lon="17.6786887">
        <ele>22.7283</ele>
        <time>2013-04-27T12:53:33Z</time>
      </trkpt>
      <trkpt lat="59.8723092" lon="17.6787124">
        <ele>22.7283</ele>
        <time>2013-04-27T12:53:34Z</time>
      </trkpt>
      <trkpt lat="59.8722326" lon="17.6787338">
        <ele>22.7283</ele>
        <time>2013-04-27T12:53:35Z</time>
      </trkpt>
      <trkpt lat="59.8721559" lon="17.678753">
        <ele>22.7283</ele>
        <time>2013-04-27T12:53:36Z</time>
      </trkpt>
      <trkpt lat="59.8720785" lon="17.678773">
        <ele>22.7283</ele>
        <time>2013-04-27T12:53:37Z</time>
      </trkpt>
      <trkpt lat="59.8720007" lon="17.6787938">
        <ele>22.7283</ele>
        <time>2013-04-27T12:53:38Z</time>
      </trkpt>
      <trkpt lat="59.8719229" lon="17.6788144">
        <ele>22.7283</ele>
        <time>2013-04-27T12:53:39Z</time>
      </trkpt>
      <trkpt lat="59.8718458" lon="17.6788317">
        <ele>22.2476</ele>
        <time>2013-04-27T12:53:40Z</time>
      </trkpt>
      <trkpt lat="59.8717694" lon="17.6788495">
        <ele>22.2476</ele>
        <time>2013-04-27T12:53:41Z</time>
      </trkpt>
      <trkpt lat="59.8716934" lon="17.6788692">
        <ele>22.2476</ele>
        <time>2013-04-27T12:53:42Z</time>
      </trkpt>
      <trkpt lat="59.8716172" lon="17.678888">
        <ele>21.767</ele>
        <time>2013-04-27T12:53:43Z</time>
      </trkpt>
      <trkpt lat="59.8715385" lon="17.6788762">
        <ele>21.2864</ele>
        <time>2013-04-27T12:53:44Z</time>
      </trkpt>
      <trkpt lat="59.871466" lon="17.6788863">
        <ele>20.8057</ele>
        <time>2013-04-27T12:53:45Z</time>
      </trkpt>
      <trkpt lat="59.871393" lon="17.6789025">
        <ele>20.325</ele>
        <time>2013-04-27T12:53:46Z</time>
      </trkpt>
      <trkpt lat="59.8713172" lon="17.6789207">
        <ele>19.8444</ele>
        <time>2013-04-27T12:53:47Z</time>
      </trkpt>
      <trkpt lat="59.8712413" lon="17.6789381">
        <ele>19.3638</ele>
        <time>2013-04-27T12:53:48Z</time>
      </trkpt>
      <trkpt lat="59.8711649" lon="17.6789583">
        <ele>18.8831</ele>
        <time>2013-04-27T12:53:49Z</time>
      </trkpt>
      <trkpt lat="59.8710893" lon="17.6789791">
        <ele>18.8831</ele>
        <time>2013-04-27T12:53:50Z</time>
      </trkpt>
      <trkpt lat="59.8710122" lon="17.6789999">
        <ele>18.4023</ele>
        <time>2013-04-27T12:53:51Z</time>
      </trkpt>
      <trkpt lat="59.8709355" lon="17.6790194">
        <ele>18.4023</ele>
        <time>2013-04-27T12:53:52Z</time>
      </trkpt>
      <trkpt lat="59.8708581" lon="17.6790391">
        <ele>18.4023</ele>
        <time>2013-04-27T12:53:53Z</time>
      </trkpt>
      <trkpt lat="59.8707817" lon="17.6790601">
        <ele>18.4023</ele>
        <time>2013-04-27T12:53:54Z</time>
      </trkpt>
      <trkpt lat="59.8707051" lon="17.6790812">
        <ele>18.4023</ele>
        <time>2013-04-27T12:53:55Z</time>
      </trkpt>
      <trkpt lat="59.8706279" lon="17.6791023">
        <ele>18.4023</ele>
        <time>2013-04-27T12:53:56Z</time>
      </trkpt>
      <trkpt lat="59.8705497" lon="17.6791253">
        <ele>18.8831</ele>
        <time>2013-04-27T12:53:57Z</time>
      </trkpt>
      <trkpt lat="59.8704708" lon="17.6791481">
        <ele>18.8831</ele>
        <time>2013-04-27T12:53:58Z</time>
      </trkpt>
      <trkpt lat="59.8703927" lon="17.6791731">
        <ele>18.8831</ele>
        <time>2013-04-27T12:53:59Z</time>
      </trkpt>
      <trkpt lat="59.870315" lon="17.6791994">
        <ele>18.8831</ele>
        <time>2013-04-27T12:54:00Z</time>
      </trkpt>
      <trkpt lat="59.8702378" lon="17.6792248">
        <ele>18.8831</ele>
        <time>2013-04-27T12:54:01Z</time>
      </trkpt>
      <trkpt lat="59.8701612" lon="17.6792517">
        <ele>18.8831</ele>
        <time>2013-04-27T12:54:02Z</time>
      </trkpt>
      <trkpt lat="59.8700846" lon="17.6792786">
        <ele>18.8831</ele>
        <time>2013-04-27T12:54:03Z</time>
      </trkpt>
      <trkpt lat="59.8700078" lon="17.6793093">
        <ele>19.3638</ele>
        <time>2013-04-27T12:54:04Z</time>
      </trkpt>
      <trkpt lat="59.8699307" lon="17.6793437">
        <ele>19.3638</ele>
        <time>2013-04-27T12:54:05Z</time>
      </trkpt>
      <trkpt lat="59.8698526" lon="17.67938">
        <ele>19.3638</ele>
        <time>2013-04-27T12:54:06Z</time>
      </trkpt>
      <trkpt lat="59.8697743" lon="17.6794164">
        <ele>19.3638</ele>
        <time>2013-04-27T12:54:07Z</time>
      </trkpt>
      <trkpt lat="59.869695" lon="17.6794531">
        <ele>19.3638</ele>
        <time>2013-04-27T12:54:08Z</time>
      </trkpt>
      <trkpt lat="59.8696156" lon="17.6794901">
        <ele>19.3638</ele>
        <time>2013-04-27T12:54:09Z</time>
      </trkpt>
      <trkpt lat="59.869536" lon="17.6795287">
        <ele>19.3638</ele>
        <time>2013-04-27T12:54:10Z</time>
      </trkpt>
      <trkpt lat="59.8694565" lon="17.679564">
        <ele>19.3638</ele>
        <time>2013-04-27T12:54:11Z</time>
      </trkpt>
      <trkpt lat="59.8693766" lon="17.6795985">
        <ele>19.3638</ele>
        <time>2013-04-27T12:54:12Z</time>
      </trkpt>
      <trkpt lat="59.8692959" lon="17.679635">
        <ele>19.3638</ele>
        <time>2013-04-27T12:54:13Z</time>
      </trkpt>
      <trkpt lat="59.8692134" lon="17.6796716">
        <ele>19.3638</ele>
        <time>2013-04-27T12:54:14Z</time>
      </trkpt>
      <trkpt lat="59.8691289" lon="17.6797081">
        <ele>19.3638</ele>
        <time>2013-04-27T12:54:15Z</time>
      </trkpt>
      <trkpt lat="59.869043" lon="17.6797469">
        <ele>19.3638</ele>
        <time>2013-04-27T12:54:16Z</time>
      </trkpt>
      <trkpt lat="59.8689553" lon="17.6797857">
        <ele>18.8831</ele>
        <time>2013-04-27T12:54:17Z</time>
      </trkpt>
      <trkpt lat="59.8688646" lon="17.6798239">
        <ele>18.8831</ele>
        <time>2013-04-27T12:54:18Z</time>
      </trkpt>
      <trkpt lat="59.8687722" lon="17.6798635">
        <ele>18.8831</ele>
        <time>2013-04-27T12:54:19Z</time>
      </trkpt>
      <trkpt lat="59.8686785" lon="17.679906">
        <ele>18.8831</ele>
        <time>2013-04-27T12:54:20Z</time>
      </trkpt>
      <trkpt lat="59.8685829" lon="17.6799493">
        <ele>18.8831</ele>
        <time>2013-04-27T12:54:21Z</time>
      </trkpt>
      <trkpt lat="59.8684849" lon="17.6799961">
        <ele>18.8831</ele>
        <time>2013-04-27T12:54:22Z</time>
      </trkpt>
      <trkpt lat="59.8683855" lon="17.6800418">
        <ele>18.8831</ele>
        <time>2013-04-27T12:54:23Z</time>
      </trkpt>
      <trkpt lat="59.8682845" lon="17.6800878">
        <ele>19.3638</ele>
        <time>2013-04-27T12:54:24Z</time>
      </trkpt>
      <trkpt lat="59.868182" lon="17.6801358">
        <ele>19.3638</ele>
        <time>2013-04-27T12:54:25Z</time>
      </trkpt>
      <trkpt lat="59.8680783" lon="17.6801845">
        <ele>19.3638</ele>
        <time>2013-04-27T12:54:26Z</time>
      </trkpt>
      <trkpt lat="59.8679747" lon="17.6802347">
        <ele>19.3638</ele>
        <time>2013-04-27T12:54:27Z</time>
      </trkpt>
      <trkpt lat="59.867872" lon="17.6802845">
        <ele>19.3638</ele>
        <time>2013-04-27T12:54:28Z</time>
      </trkpt>
      <trkpt lat="59.8677704" lon="17.6803317">
        <ele>19.3638</ele>
        <time>2013-04-27T12:54:29Z</time>
      </trkpt>
      <trkpt lat="59.8676697" lon="17.6803778">
        <ele>19.3638</ele>
        <time>2013-04-27T12:54:30Z</time>
      </trkpt>
      <trkpt lat="59.8675691" lon="17.6804197">
        <ele>18.8831</ele>
        <time>2013-04-27T12:54:31Z</time>
      </trkpt>
      <trkpt lat="59.8674702" lon="17.6804624">
        <ele>18.4023</ele>
        <time>2013-04-27T12:54:32Z</time>
      </trkpt>
      <trkpt lat="59.8673727" lon="17.6805077">
        <ele>18.4023</ele>
        <time>2013-04-27T12:54:33Z</time>
      </trkpt>
      <trkpt lat="59.8672764" lon="17.6805522">
        <ele>18.4023</ele>
        <time>2013-04-27T12:54:34Z</time>
      </trkpt>
      <trkpt lat="59.8671816" lon="17.6805955">
        <ele>18.4023</ele>
        <time>2013-04-27T12:54:35Z</time>
      </trkpt>
      <trkpt lat="59.8670899" lon="17.680638">
        <ele>17.9218</ele>
        <time>2013-04-27T12:54:36Z</time>
      </trkpt>
      <trkpt lat="59.8670025" lon="17.6806784">
        <ele>18.4023</ele>
        <time>2013-04-27T12:54:37Z</time>
      </trkpt>
      <trkpt lat="59.8669191" lon="17.6807157">
        <ele>18.4023</ele>
        <time>2013-04-27T12:54:38Z</time>
      </trkpt>
      <trkpt lat="59.8668424" lon="17.6807503">
        <ele>18.4023</ele>
        <time>2013-04-27T12:54:39Z</time>
      </trkpt>
      <trkpt lat="59.8667769" lon="17.6807814">
        <ele>18.4023</ele>
        <time>2013-04-27T12:54:40Z</time>
      </trkpt>
      <trkpt lat="59.8667231" lon="17.6808062">
        <ele>17.9218</ele>
        <time>2013-04-27T12:54:41Z</time>
      </trkpt>
      <trkpt lat="59.8666776" lon="17.6808254">
        <ele>17.9218</ele>
        <time>2013-04-27T12:54:42Z</time>
      </trkpt>
      <trkpt lat="59.8666415" lon="17.6808395">
        <ele>17.4412</ele>
        <time>2013-04-27T12:54:43Z</time>
      </trkpt>
      <trkpt lat="59.8666154" lon="17.6808514">
        <ele>17.4412</ele>
        <time>2013-04-27T12:54:44Z</time>
      </trkpt>
      <trkpt lat="59.8665961" lon="17.6808612">
        <ele>17.4412</ele>
        <time>2013-04-27T12:54:45Z</time>
      </trkpt>
      <trkpt lat="59.8665788" lon="17.6808695">
        <ele>17.9218</ele>
        <time>2013-04-27T12:54:46Z</time>
      </trkpt>
      <trkpt lat="59.8665605" lon="17.6808799">
        <ele>17.9218</ele>
        <time>2013-04-27T12:54:47Z</time>
      </trkpt>
      <trkpt lat="59.8665456" lon="17.6808906">
        <ele>17.9218</ele>
        <time>2013-04-27T12:54:48Z</time>
      </trkpt>
      <trkpt lat="59.8665344" lon="17.6808985">
        <ele>18.4023</ele>
        <time>2013-04-27T12:54:49Z</time>
      </trkpt>
      <trkpt lat="59.8665243" lon="17.6809024">
        <ele>18.4023</ele>
        <time>2013-04-27T12:54:50Z</time>
      </trkpt>
      <trkpt lat="59.8665103" lon="17.6809101">
        <ele>18.4023</ele>
        <time>2013-04-27T12:54:51Z</time>
      </trkpt>
      <trkpt lat="59.8664912" lon="17.6809205">
        <ele>18.8831</ele>
        <time>2013-04-27T12:54:52Z</time>
      </trkpt>
      <trkpt lat="59.8664674" lon="17.6809333">
        <ele>18.8831</ele>
        <time>2013-04-27T12:54:53Z</time>
      </trkpt>
      <trkpt lat="59.8664368" lon="17.680946">
        <ele>18.8831</ele>
        <time>2013-04-27T12:54:54Z</time>
      </trkpt>
      <trkpt lat="59.8663968" lon="17.6809632">
        <ele>18.8831</ele>
        <time>2013-04-27T12:54:55Z</time>
      </trkpt>
      <trkpt lat="59.8663464" lon="17.6809911">
        <ele>18.8831</ele>
        <time>2013-04-27T12:54:56Z</time>
      </trkpt>
      <trkpt lat="59.8662922" lon="17.6810207">
        <ele>18.8831</ele>
        <time>2013-04-27T12:54:57Z</time>
      </trkpt>
      <trkpt lat="59.866234" lon="17.6810528">
        <ele>18.8831</ele>
        <time>2013-04-27T12:54:58Z</time>
      </trkpt>
      <trkpt lat="59.8661725" lon="17.6810856">
        <ele>18.8831</ele>
        <time>2013-04-27T12:54:59Z</time>
      </trkpt>
      <trkpt lat="59.8661073" lon="17.6811237">
        <ele>18.8831</ele>
        <time>2013-04-27T12:55:00Z</time>
      </trkpt>
      <trkpt lat="59.8660424" lon="17.681162">
        <ele>18.8831</ele>
        <time>2013-04-27T12:55:01Z</time>
      </trkpt>
      <trkpt lat="59.865975" lon="17.6812004">
        <ele>18.4023</ele>
        <time>2013-04-27T12:55:02Z</time>
      </trkpt>
      <trkpt lat="59.8659045" lon="17.6812435">
        <ele>18.4023</ele>
        <time>2013-04-27T12:55:03Z</time>
      </trkpt>
      <trkpt lat="59.8658317" lon="17.681292">
        <ele>17.9218</ele>
        <time>2013-04-27T12:55:04Z</time>
      </trkpt>
      <trkpt lat="59.8657572" lon="17.6813424">
        <ele>17.9218</ele>
        <time>2013-04-27T12:55:05Z</time>
      </trkpt>
      <trkpt lat="59.865682" lon="17.6813952">
        <ele>17.9218</ele>
        <time>2013-04-27T12:55:06Z</time>
      </trkpt>
      <trkpt lat="59.8656063" lon="17.681451">
        <ele>17.9218</ele>
        <time>2013-04-27T12:55:07Z</time>
      </trkpt>
      <trkpt lat="59.8655288" lon="17.6815075">
        <ele>17.9218</ele>
        <time>2013-04-27T12:55:08Z</time>
      </trkpt>
      <trkpt lat="59.8654494" lon="17.6815639">
        <ele>17.9218</ele>
        <time>2013-04-27T12:55:09Z</time>
      </trkpt>
      <trkpt lat="59.8653682" lon="17.6816188">
        <ele>17.4412</ele>
        <time>2013-04-27T12:55:10Z</time>
      </trkpt>
      <trkpt lat="59.8652882" lon="17.6816732">
        <ele>17.4412</ele>
        <time>2013-04-27T12:55:11Z</time>
      </trkpt>
      <trkpt lat="59.8652086" lon="17.6817303">
        <ele>17.4412</ele>
        <time>2013-04-27T12:55:12Z</time>
      </trkpt>
      <trkpt lat="59.8651293" lon="17.6817897">
        <ele>17.4412</ele>
        <time>2013-04-27T12:55:13Z</time>
      </trkpt>
      <trkpt lat="59.8650486" lon="17.6818483">
        <ele>17.4412</ele>
        <time>2013-04-27T12:55:14Z</time>
      </trkpt>
      <trkpt lat="59.8649675" lon="17.6819074">
        <ele>16.9604</ele>
        <time>2013-04-27T12:55:15Z</time>
      </trkpt>
      <trkpt lat="59.8648868" lon="17.6819661">
        <ele>16.9604</ele>
        <time>2013-04-27T12:55:16Z</time>
      </trkpt>
      <trkpt lat="59.8648066" lon="17.682023">
        <ele>16.9604</ele>
        <time>2013-04-27T12:55:17Z</time>
      </trkpt>
      <trkpt lat="59.8647274" lon="17.6820774">
        <ele>16.9604</ele>
        <time>2013-04-27T12:55:18Z</time>
      </trkpt>
      <trkpt lat="59.8646497" lon="17.6821318">
        <ele>16.9604</ele>
        <time>2013-04-27T12:55:19Z</time>
      </trkpt>
      <trkpt lat="59.8645734" lon="17.6821878">
        <ele>16.9604</ele>
        <time>2013-04-27T12:55:20Z</time>
      </trkpt>
      <trkpt lat="59.8644237" lon="17.6822936">
        <ele>16.9604</ele>
        <time>2013-04-27T12:55:21Z</time>
      </trkpt>
      <trkpt lat="59.8643486" lon="17.6823458">
        <ele>16.4797</ele>
        <time>2013-04-27T12:55:22Z</time>
      </trkpt>
      <trkpt lat="59.8642747" lon="17.6824008">
        <ele>16.9604</ele>
        <time>2013-04-27T12:55:23Z</time>
      </trkpt>
      <trkpt lat="59.8642026" lon="17.6824494">
        <ele>16.9604</ele>
        <time>2013-04-27T12:55:24Z</time>
      </trkpt>
      <trkpt lat="59.864131" lon="17.6825031">
        <ele>16.9604</ele>
        <time>2013-04-27T12:55:25Z</time>
      </trkpt>
      <trkpt lat="59.8640602" lon="17.6825554">
        <ele>17.4412</ele>
        <time>2013-04-27T12:55:26Z</time>
      </trkpt>
      <trkpt lat="59.8639916" lon="17.6826077">
        <ele>17.9218</ele>
        <time>2013-04-27T12:55:27Z</time>
      </trkpt>
      <trkpt lat="59.8639255" lon="17.6826603">
        <ele>17.9218</ele>
        <time>2013-04-27T12:55:28Z</time>
      </trkpt>
      <trkpt lat="59.8638612" lon="17.6827095">
        <ele>18.4023</ele>
        <time>2013-04-27T12:55:29Z</time>
      </trkpt>
      <trkpt lat="59.8637989" lon="17.6827575">
        <ele>18.4023</ele>
        <time>2013-04-27T12:55:30Z</time>
      </trkpt>
      <trkpt lat="59.8637384" lon="17.6828026">
        <ele>18.8831</ele>
        <time>2013-04-27T12:55:31Z</time>
      </trkpt>
      <trkpt lat="59.8636792" lon="17.6828447">
        <ele>18.8831</ele>
        <time>2013-04-27T12:55:32Z</time>
      </trkpt>
      <trkpt lat="59.8636212" lon="17.6828784">
        <ele>19.3638</ele>
        <time>2013-04-27T12:55:33Z</time>
      </trkpt>
      <trkpt lat="59.8635632" lon="17.6828871">
        <ele>19.3638</ele>
        <time>2013-04-27T12:55:34Z</time>
      </trkpt>
      <trkpt lat="59.8635122" lon="17.6828601">
        <ele>19.3638</ele>
        <time>2013-04-27T12:55:35Z</time>
      </trkpt>
      <trkpt lat="59.8634685" lon="17.6828119">
        <ele>19.3638</ele>
        <time>2013-04-27T12:55:36Z</time>
      </trkpt>
      <trkpt lat="59.8634285" lon="17.6827549">
        <ele>18.8831</ele>
        <time>2013-04-27T12:55:37Z</time>
      </trkpt>
      <trkpt lat="59.8633852" lon="17.6827152">
        <ele>18.8831</ele>
        <time>2013-04-27T12:55:38Z</time>
      </trkpt>
      <trkpt lat="59.8633389" lon="17.6827061">
        <ele>18.8831</ele>
        <time>2013-04-27T12:55:39Z</time>
      </trkpt>
      <trkpt lat="59.8632928" lon="17.6827269">
        <ele>18.4023</ele>
        <time>2013-04-27T12:55:40Z</time>
      </trkpt>
      <trkpt lat="59.8632477" lon="17.6827634">
        <ele>18.4023</ele>
        <time>2013-04-27T12:55:41Z</time>
      </trkpt>
      <trkpt lat="59.8632022" lon="17.6827985">
        <ele>18.4023</ele>
        <time>2013-04-27T12:55:42Z</time>
      </trkpt>
      <trkpt lat="59.8631536" lon="17.6828254">
        <ele>17.9218</ele>
        <time>2013-04-27T12:55:43Z</time>
      </trkpt>
      <trkpt lat="59.8631057" lon="17.6828532">
        <ele>17.4412</ele>
        <time>2013-04-27T12:55:44Z</time>
      </trkpt>
      <trkpt lat="59.8630594" lon="17.6828853">
        <ele>16.9604</ele>
        <time>2013-04-27T12:55:45Z</time>
      </trkpt>
      <trkpt lat="59.8630142" lon="17.6829149">
        <ele>16.4797</ele>
        <time>2013-04-27T12:55:46Z</time>
      </trkpt>
      <trkpt lat="59.8629682" lon="17.6829491">
        <ele>16.4797</ele>
        <time>2013-04-27T12:55:47Z</time>
      </trkpt>
      <trkpt lat="59.8629232" lon="17.682983">
        <ele>16.4797</ele>
        <time>2013-04-27T12:55:48Z</time>
      </trkpt>
      <trkpt lat="59.8628766" lon="17.683015">
        <ele>15.999</ele>
        <time>2013-04-27T12:55:49Z</time>
      </trkpt>
      <trkpt lat="59.8628282" lon="17.6830431">
        <ele>15.5184</ele>
        <time>2013-04-27T12:55:50Z</time>
      </trkpt>
      <trkpt lat="59.8627787" lon="17.6830786">
        <ele>15.5184</ele>
        <time>2013-04-27T12:55:51Z</time>
      </trkpt>
      <trkpt lat="59.8627314" lon="17.6831175">
        <ele>15.5184</ele>
        <time>2013-04-27T12:55:52Z</time>
      </trkpt>
      <trkpt lat="59.8626825" lon="17.683161">
        <ele>15.5184</ele>
        <time>2013-04-27T12:55:53Z</time>
      </trkpt>
      <trkpt lat="59.862633" lon="17.683202">
        <ele>15.5184</ele>
        <time>2013-04-27T12:55:54Z</time>
      </trkpt>
      <trkpt lat="59.8625812" lon="17.6832428">
        <ele>15.999</ele>
        <time>2013-04-27T12:55:55Z</time>
      </trkpt>
      <trkpt lat="59.8625273" lon="17.6832842">
        <ele>15.999</ele>
        <time>2013-04-27T12:55:56Z</time>
      </trkpt>
      <trkpt lat="59.8624714" lon="17.6833272">
        <ele>15.999</ele>
        <time>2013-04-27T12:55:57Z</time>
      </trkpt>
      <trkpt lat="59.8624164" lon="17.6833641">
        <ele>15.999</ele>
        <time>2013-04-27T12:55:58Z</time>
      </trkpt>
      <trkpt lat="59.8623624" lon="17.6834035">
        <ele>15.5184</ele>
        <time>2013-04-27T12:55:59Z</time>
      </trkpt>
      <trkpt lat="59.8623088" lon="17.6834437">
        <ele>15.5184</ele>
        <time>2013-04-27T12:56:00Z</time>
      </trkpt>
      <trkpt lat="59.8622554" lon="17.6834838">
        <ele>15.5184</ele>
        <time>2013-04-27T12:56:01Z</time>
      </trkpt>
      <trkpt lat="59.8622005" lon="17.6835271">
        <ele>15.999</ele>
        <time>2013-04-27T12:56:02Z</time>
      </trkpt>
      <trkpt lat="59.8621433" lon="17.683576">
        <ele>16.4797</ele>
        <time>2013-04-27T12:56:03Z</time>
      </trkpt>
      <trkpt lat="59.8620879" lon="17.6836195">
        <ele>16.9604</ele>
        <time>2013-04-27T12:56:04Z</time>
      </trkpt>
      <trkpt lat="59.8620326" lon="17.6836606">
        <ele>16.9604</ele>
        <time>2013-04-27T12:56:05Z</time>
      </trkpt>
      <trkpt lat="59.8619777" lon="17.6836998">
        <ele>16.9604</ele>
        <time>2013-04-27T12:56:06Z</time>
      </trkpt>
      <trkpt lat="59.8619229" lon="17.68374">
        <ele>17.4412</ele>
        <time>2013-04-27T12:56:07Z</time>
      </trkpt>
      <trkpt lat="59.86187" lon="17.683778">
        <ele>17.4412</ele>
        <time>2013-04-27T12:56:08Z</time>
      </trkpt>
      <trkpt lat="59.8618182" lon="17.6838151">
        <ele>17.4412</ele>
        <time>2013-04-27T12:56:09Z</time>
      </trkpt>
      <trkpt lat="59.8617677" lon="17.6838516">
        <ele>17.4412</ele>
        <time>2013-04-27T12:56:10Z</time>
      </trkpt>
      <trkpt lat="59.8617151" lon="17.6838908">
        <ele>17.4412</ele>
        <time>2013-04-27T12:56:11Z</time>
      </trkpt>
      <trkpt lat="59.8616617" lon="17.6839313">
        <ele>17.4412</ele>
        <time>2013-04-27T12:56:12Z</time>
      </trkpt>
      <trkpt lat="59.8616079" lon="17.6839739">
        <ele>17.4412</ele>
        <time>2013-04-27T12:56:13Z</time>
      </trkpt>
      <trkpt lat="59.8615555" lon="17.6840157">
        <ele>17.4412</ele>
        <time>2013-04-27T12:56:14Z</time>
      </trkpt>
      <trkpt lat="59.8615037" lon="17.6840547">
        <ele>17.4412</ele>
        <time>2013-04-27T12:56:15Z</time>
      </trkpt>
      <trkpt lat="59.8614518" lon="17.6840925">
        <ele>16.9604</ele>
        <time>2013-04-27T12:56:16Z</time>
      </trkpt>
      <trkpt lat="59.8614004" lon="17.6841374">
        <ele>17.4412</ele>
        <time>2013-04-27T12:56:17Z</time>
      </trkpt>
      <trkpt lat="59.8613478" lon="17.6841842">
        <ele>17.9218</ele>
        <time>2013-04-27T12:56:18Z</time>
      </trkpt>
      <trkpt lat="59.8612939" lon="17.6842277">
        <ele>17.9218</ele>
        <time>2013-04-27T12:56:19Z</time>
      </trkpt>
      <trkpt lat="59.8612406" lon="17.6842757">
        <ele>18.4023</ele>
        <time>2013-04-27T12:56:20Z</time>
      </trkpt>
      <trkpt lat="59.861187" lon="17.6843261">
        <ele>18.4023</ele>
        <time>2013-04-27T12:56:21Z</time>
      </trkpt>
      <trkpt lat="59.8611332" lon="17.6843777">
        <ele>18.4023</ele>
        <time>2013-04-27T12:56:22Z</time>
      </trkpt>
      <trkpt lat="59.8610789" lon="17.6844324">
        <ele>18.4023</ele>
        <time>2013-04-27T12:56:23Z</time>
      </trkpt>
      <trkpt lat="59.8610223" lon="17.6844849">
        <ele>18.4023</ele>
        <time>2013-04-27T12:56:24Z</time>
      </trkpt>
      <trkpt lat="59.8609628" lon="17.6845279">
        <ele>18.4023</ele>
        <time>2013-04-27T12:56:25Z</time>
      </trkpt>
      <trkpt lat="59.8609026" lon="17.6845701">
        <ele>18.4023</ele>
        <time>2013-04-27T12:56:26Z</time>
      </trkpt>
      <trkpt lat="59.8608464" lon="17.6846192">
        <ele>18.8831</ele>
        <time>2013-04-27T12:56:27Z</time>
      </trkpt>
      <trkpt lat="59.8607921" lon="17.6846741">
        <ele>18.8831</ele>
        <time>2013-04-27T12:56:28Z</time>
      </trkpt>
      <trkpt lat="59.8607385" lon="17.6847301">
        <ele>18.8831</ele>
        <time>2013-04-27T12:56:29Z</time>
      </trkpt>
      <trkpt lat="59.8606854" lon="17.6847836">
        <ele>18.8831</ele>
        <time>2013-04-27T12:56:30Z</time>
      </trkpt>
      <trkpt lat="59.8606345" lon="17.6848374">
        <ele>18.8831</ele>
        <time>2013-04-27T12:56:31Z</time>
      </trkpt>
      <trkpt lat="59.8605847" lon="17.6848913">
        <ele>18.4023</ele>
        <time>2013-04-27T12:56:32Z</time>
      </trkpt>
      <trkpt lat="59.8605356" lon="17.6849427">
        <ele>18.4023</ele>
        <time>2013-04-27T12:56:33Z</time>
      </trkpt>
      <trkpt lat="59.8604853" lon="17.684997">
        <ele>18.4023</ele>
        <time>2013-04-27T12:56:34Z</time>
      </trkpt>
      <trkpt lat="59.860436" lon="17.6850516">
        <ele>18.4023</ele>
        <time>2013-04-27T12:56:35Z</time>
      </trkpt>
      <trkpt lat="59.8603879" lon="17.6851027">
        <ele>18.4023</ele>
        <time>2013-04-27T12:56:36Z</time>
      </trkpt>
      <trkpt lat="59.8603406" lon="17.6851539">
        <ele>18.8831</ele>
        <time>2013-04-27T12:56:37Z</time>
      </trkpt>
      <trkpt lat="59.8602929" lon="17.6852062">
        <ele>19.3638</ele>
        <time>2013-04-27T12:56:38Z</time>
      </trkpt>
      <trkpt lat="59.860244" lon="17.685261">
        <ele>19.3638</ele>
        <time>2013-04-27T12:56:39Z</time>
      </trkpt>
      <trkpt lat="59.8601967" lon="17.6853197">
        <ele>19.3638</ele>
        <time>2013-04-27T12:56:40Z</time>
      </trkpt>
      <trkpt lat="59.8601487" lon="17.6853829">
        <ele>19.3638</ele>
        <time>2013-04-27T12:56:41Z</time>
      </trkpt>
      <trkpt lat="59.8601021" lon="17.6854419">
        <ele>20.325</ele>
        <time>2013-04-27T12:56:42Z</time>
      </trkpt>
      <trkpt lat="59.8600562" lon="17.6854942">
        <ele>20.325</ele>
        <time>2013-04-27T12:56:43Z</time>
      </trkpt>
      <trkpt lat="59.8600146" lon="17.6855441">
        <ele>20.8057</ele>
        <time>2013-04-27T12:56:44Z</time>
      </trkpt>
      <trkpt lat="59.8599762" lon="17.6855938">
        <ele>21.2864</ele>
        <time>2013-04-27T12:56:45Z</time>
      </trkpt>
      <trkpt lat="59.8599415" lon="17.6856361">
        <ele>21.2864</ele>
        <time>2013-04-27T12:56:46Z</time>
      </trkpt>
      <trkpt lat="59.8599067" lon="17.6856801">
        <ele>20.8057</ele>
        <time>2013-04-27T12:56:47Z</time>
      </trkpt>
      <trkpt lat="59.8598734" lon="17.6857159">
        <ele>20.325</ele>
        <time>2013-04-27T12:56:48Z</time>
      </trkpt>
      <trkpt lat="59.8598368" lon="17.6857569">
        <ele>19.8444</ele>
        <time>2013-04-27T12:56:49Z</time>
      </trkpt>
      <trkpt lat="59.8598003" lon="17.6857993">
        <ele>19.3638</ele>
        <time>2013-04-27T12:56:50Z</time>
      </trkpt>
      <trkpt lat="59.8597675" lon="17.6858403">
        <ele>18.8831</ele>
        <time>2013-04-27T12:56:51Z</time>
      </trkpt>
      <trkpt lat="59.8597356" lon="17.6858796">
        <ele>17.9218</ele>
        <time>2013-04-27T12:56:52Z</time>
      </trkpt>
      <trkpt lat="59.8597009" lon="17.6859206">
        <ele>16.9604</ele>
        <time>2013-04-27T12:56:53Z</time>
      </trkpt>
      <trkpt lat="59.8596643" lon="17.685968">
        <ele>15.5184</ele>
        <time>2013-04-27T12:56:54Z</time>
      </trkpt>
      <trkpt lat="59.8596345" lon="17.6860221">
        <ele>15.0377</ele>
        <time>2013-04-27T12:56:55Z</time>
      </trkpt>
      <trkpt lat="59.8596164" lon="17.6860836">
        <ele>15.5184</ele>
        <time>2013-04-27T12:56:56Z</time>
      </trkpt>
      <trkpt lat="59.8596022" lon="17.6861465">
        <ele>15.999</ele>
        <time>2013-04-27T12:56:57Z</time>
      </trkpt>
      <trkpt lat="59.8595855" lon="17.6862014">
        <ele>15.999</ele>
        <time>2013-04-27T12:56:58Z</time>
      </trkpt>
      <trkpt lat="59.8595701" lon="17.6862552">
        <ele>16.4797</ele>
        <time>2013-04-27T12:56:59Z</time>
      </trkpt>
      <trkpt lat="59.8594995" lon="17.6864557">
        <ele>17.4412</ele>
        <time>2013-04-27T12:57:19Z</time>
      </trkpt>
      <trkpt lat="59.8594804" lon="17.6864867">
        <ele>17.4412</ele>
        <time>2013-04-27T12:57:20Z</time>
      </trkpt>
      <trkpt lat="59.8594571" lon="17.6865116">
        <ele>16.4797</ele>
        <time>2013-04-27T12:57:21Z</time>
      </trkpt>
      <trkpt lat="59.8594332" lon="17.6865451">
        <ele>16.4797</ele>
        <time>2013-04-27T12:57:22Z</time>
      </trkpt>
      <trkpt lat="59.8594058" lon="17.6865793">
        <ele>16.9604</ele>
        <time>2013-04-27T12:57:23Z</time>
      </trkpt>
      <trkpt lat="59.8593768" lon="17.6865984">
        <ele>16.9604</ele>
        <time>2013-04-27T12:57:24Z</time>
      </trkpt>
      <trkpt lat="59.8593473" lon="17.6866085">
        <ele>16.9604</ele>
        <time>2013-04-27T12:57:25Z</time>
      </trkpt>
      <trkpt lat="59.8593139" lon="17.6866151">
        <ele>16.9604</ele>
        <time>2013-04-27T12:57:26Z</time>
      </trkpt>
      <trkpt lat="59.8592763" lon="17.6866188">
        <ele>16.9604</ele>
        <time>2013-04-27T12:57:27Z</time>
      </trkpt>
      <trkpt lat="59.8592354" lon="17.6866276">
        <ele>16.4797</ele>
        <time>2013-04-27T12:57:28Z</time>
      </trkpt>
      <trkpt lat="59.8591947" lon="17.68664">
        <ele>16.4797</ele>
        <time>2013-04-27T12:57:29Z</time>
      </trkpt>
      <trkpt lat="59.8591541" lon="17.6866525">
        <ele>16.4797</ele>
        <time>2013-04-27T12:57:30Z</time>
      </trkpt>
      <trkpt lat="59.8591129" lon="17.6866689">
        <ele>16.4797</ele>
        <time>2013-04-27T12:57:31Z</time>
      </trkpt>
      <trkpt lat="59.8590699" lon="17.6866888">
        <ele>16.4797</ele>
        <time>2013-04-27T12:57:32Z</time>
      </trkpt>
      <trkpt lat="59.8590244" lon="17.6867202">
        <ele>15.999</ele>
        <time>2013-04-27T12:57:33Z</time>
      </trkpt>
      <trkpt lat="59.8589778" lon="17.6867691">
        <ele>15.999</ele>
        <time>2013-04-27T12:57:34Z</time>
      </trkpt>
      <trkpt lat="59.8589334" lon="17.6868348">
        <ele>15.999</ele>
        <time>2013-04-27T12:57:35Z</time>
      </trkpt>
      <trkpt lat="59.8588985" lon="17.6869115">
        <ele>16.4797</ele>
        <time>2013-04-27T12:57:36Z</time>
      </trkpt>
      <trkpt lat="59.8588703" lon="17.686999">
        <ele>16.9604</ele>
        <time>2013-04-27T12:57:37Z</time>
      </trkpt>
      <trkpt lat="59.8588474" lon="17.6870947">
        <ele>17.4412</ele>
        <time>2013-04-27T12:57:38Z</time>
      </trkpt>
      <trkpt lat="59.8588257" lon="17.6871969">
        <ele>17.9218</ele>
        <time>2013-04-27T12:57:39Z</time>
      </trkpt>
      <trkpt lat="59.8588053" lon="17.6873">
        <ele>18.4023</ele>
        <time>2013-04-27T12:57:40Z</time>
      </trkpt>
      <trkpt lat="59.8587852" lon="17.6874063">
        <ele>18.8831</ele>
        <time>2013-04-27T12:57:41Z</time>
      </trkpt>
      <trkpt lat="59.8587609" lon="17.6874994">
        <ele>19.3638</ele>
        <time>2013-04-27T12:57:42Z</time>
      </trkpt>
      <trkpt lat="59.8587293" lon="17.6875804">
        <ele>19.3638</ele>
        <time>2013-04-27T12:57:43Z</time>
      </trkpt>
      <trkpt lat="59.858691" lon="17.6876517">
        <ele>19.3638</ele>
        <time>2013-04-27T12:57:44Z</time>
      </trkpt>
      <trkpt lat="59.8586459" lon="17.6877191">
        <ele>19.8444</ele>
        <time>2013-04-27T12:57:45Z</time>
      </trkpt>
      <trkpt lat="59.8585998" lon="17.6877843">
        <ele>20.325</ele>
        <time>2013-04-27T12:57:46Z</time>
      </trkpt>
      <trkpt lat="59.8585548" lon="17.6878475">
        <ele>20.325</ele>
        <time>2013-04-27T12:57:47Z</time>
      </trkpt>
      <trkpt lat="59.8585121" lon="17.6879092">
        <ele>20.325</ele>
        <time>2013-04-27T12:57:48Z</time>
      </trkpt>
      <trkpt lat="59.8584692" lon="17.6879743">
        <ele>20.325</ele>
        <time>2013-04-27T12:57:49Z</time>
      </trkpt>
      <trkpt lat="59.8584274" lon="17.6880408">
        <ele>19.8444</ele>
        <time>2013-04-27T12:57:50Z</time>
      </trkpt>
      <trkpt lat="59.8583857" lon="17.6880895">
        <ele>20.325</ele>
        <time>2013-04-27T12:57:51Z</time>
      </trkpt>
      <trkpt lat="59.8583417" lon="17.6881028">
        <ele>20.8057</ele>
        <time>2013-04-27T12:57:52Z</time>
      </trkpt>
      <trkpt lat="59.8582993" lon="17.6880574">
        <ele>20.325</ele>
        <time>2013-04-27T12:57:53Z</time>
      </trkpt>
      <trkpt lat="59.858261" lon="17.6880092">
        <ele>20.325</ele>
        <time>2013-04-27T12:57:54Z</time>
      </trkpt>
      <trkpt lat="59.85823" lon="17.6879797">
        <ele>20.8057</ele>
        <time>2013-04-27T12:57:55Z</time>
      </trkpt>
      <trkpt lat="59.8581993" lon="17.6879807">
        <ele>20.8057</ele>
        <time>2013-04-27T12:57:56Z</time>
      </trkpt>
      <trkpt lat="59.8581662" lon="17.6880236">
        <ele>20.8057</ele>
        <time>2013-04-27T12:57:57Z</time>
      </trkpt>
      <trkpt lat="59.8581442" lon="17.6880699">
        <ele>20.8057</ele>
        <time>2013-04-27T12:57:58Z</time>
      </trkpt>
      <trkpt lat="59.8581302" lon="17.6881335">
        <ele>21.2864</ele>
        <time>2013-04-27T12:57:59Z</time>
      </trkpt>
      <trkpt lat="59.8581268" lon="17.6882174">
        <ele>20.8057</ele>
        <time>2013-04-27T12:58:00Z</time>
      </trkpt>
      <trkpt lat="59.8581263" lon="17.6883148">
        <ele>20.8057</ele>
        <time>2013-04-27T12:58:01Z</time>
      </trkpt>
      <trkpt lat="59.8581097" lon="17.6884117">
        <ele>21.2864</ele>
        <time>2013-04-27T12:58:02Z</time>
      </trkpt>
      <trkpt lat="59.8580792" lon="17.6885019">
        <ele>21.2864</ele>
        <time>2013-04-27T12:58:03Z</time>
      </trkpt>
      <trkpt lat="59.8580366" lon="17.6885836">
        <ele>21.767</ele>
        <time>2013-04-27T12:58:04Z</time>
      </trkpt>
      <trkpt lat="59.8579869" lon="17.6886411">
        <ele>21.767</ele>
        <time>2013-04-27T12:58:05Z</time>
      </trkpt>
      <trkpt lat="59.8579191" lon="17.6886814">
        <ele>21.767</ele>
        <time>2013-04-27T12:58:06Z</time>
      </trkpt>
      <trkpt lat="59.8578574" lon="17.688742">
        <ele>22.2476</ele>
        <time>2013-04-27T12:58:07Z</time>
      </trkpt>
      <trkpt lat="59.8578099" lon="17.6888098">
        <ele>22.2476</ele>
        <time>2013-04-27T12:58:08Z</time>
      </trkpt>
      <trkpt lat="59.857757" lon="17.6888775">
        <ele>22.2476</ele>
        <time>2013-04-27T12:58:09Z</time>
      </trkpt>
      <trkpt lat="59.8577046" lon="17.6889436">
        <ele>22.7283</ele>
        <time>2013-04-27T12:58:10Z</time>
      </trkpt>
      <trkpt lat="59.857655" lon="17.6890115">
        <ele>22.7283</ele>
        <time>2013-04-27T12:58:11Z</time>
      </trkpt>
      <trkpt lat="59.8576051" lon="17.6890782">
        <ele>22.7283</ele>
        <time>2013-04-27T12:58:12Z</time>
      </trkpt>
      <trkpt lat="59.8575516" lon="17.6891354">
        <ele>22.7283</ele>
        <time>2013-04-27T12:58:13Z</time>
      </trkpt>
      <trkpt lat="59.857499" lon="17.6891882">
        <ele>22.7283</ele>
        <time>2013-04-27T12:58:14Z</time>
      </trkpt>
      <trkpt lat="59.8574477" lon="17.689241">
        <ele>22.7283</ele>
        <time>2013-04-27T12:58:15Z</time>
      </trkpt>
      <trkpt lat="59.8573968" lon="17.6892955">
        <ele>22.2476</ele>
        <time>2013-04-27T12:58:16Z</time>
      </trkpt>
      <trkpt lat="59.8573455" lon="17.6893508">
        <ele>22.2476</ele>
        <time>2013-04-27T12:58:17Z</time>
      </trkpt>
      <trkpt lat="59.8572945" lon="17.6894055">
        <ele>21.767</ele>
        <time>2013-04-27T12:58:18Z</time>
      </trkpt>
      <trkpt lat="59.8572446" lon="17.6894583">
        <ele>21.2864</ele>
        <time>2013-04-27T12:58:19Z</time>
      </trkpt>
      <trkpt lat="59.8571927" lon="17.6895">
        <ele>21.2864</ele>
        <time>2013-04-27T12:58:20Z</time>
      </trkpt>
      <trkpt lat="59.8571425" lon="17.6895445">
        <ele>20.325</ele>
        <time>2013-04-27T12:58:21Z</time>
      </trkpt>
      <trkpt lat="59.8570933" lon="17.6895921">
        <ele>19.8444</ele>
        <time>2013-04-27T12:58:22Z</time>
      </trkpt>
      <trkpt lat="59.8570451" lon="17.6896414">
        <ele>19.3638</ele>
        <time>2013-04-27T12:58:23Z</time>
      </trkpt>
      <trkpt lat="59.8569951" lon="17.6896926">
        <ele>18.8831</ele>
        <time>2013-04-27T12:58:24Z</time>
      </trkpt>
      <trkpt lat="59.8569435" lon="17.689744">
        <ele>18.4023</ele>
        <time>2013-04-27T12:58:25Z</time>
      </trkpt>
      <trkpt lat="59.8568908" lon="17.6897958">
        <ele>17.4412</ele>
        <time>2013-04-27T12:58:26Z</time>
      </trkpt>
      <trkpt lat="59.8568388" lon="17.6898486">
        <ele>16.9604</ele>
        <time>2013-04-27T12:58:27Z</time>
      </trkpt>
      <trkpt lat="59.8567871" lon="17.6899004">
        <ele>16.9604</ele>
        <time>2013-04-27T12:58:28Z</time>
      </trkpt>
      <trkpt lat="59.8567365" lon="17.6899466">
        <ele>16.4797</ele>
        <time>2013-04-27T12:58:29Z</time>
      </trkpt>
      <trkpt lat="59.8566873" lon="17.6899895">
        <ele>15.5184</ele>
        <time>2013-04-27T12:58:30Z</time>
      </trkpt>
      <trkpt lat="59.8566356" lon="17.6900236">
        <ele>15.0377</ele>
        <time>2013-04-27T12:58:31Z</time>
      </trkpt>
      <trkpt lat="59.8565878" lon="17.6900595">
        <ele>14.0764</ele>
        <time>2013-04-27T12:58:32Z</time>
      </trkpt>
      <trkpt lat="59.8565444" lon="17.6900996">
        <ele>13.5958</ele>
        <time>2013-04-27T12:58:33Z</time>
      </trkpt>
      <trkpt lat="59.8565028" lon="17.6901474">
        <ele>13.5958</ele>
        <time>2013-04-27T12:58:34Z</time>
      </trkpt>
      <trkpt lat="59.856462" lon="17.690203">
        <ele>14.557</ele>
        <time>2013-04-27T12:58:35Z</time>
      </trkpt>
      <trkpt lat="59.8564195" lon="17.6902468">
        <ele>14.557</ele>
        <time>2013-04-27T12:58:36Z</time>
      </trkpt>
      <trkpt lat="59.8563771" lon="17.6902849">
        <ele>14.0764</ele>
        <time>2013-04-27T12:58:37Z</time>
      </trkpt>
      <trkpt lat="59.8563371" lon="17.6903274">
        <ele>14.0764</ele>
        <time>2013-04-27T12:58:38Z</time>
      </trkpt>
      <trkpt lat="59.8562988" lon="17.6903649">
        <ele>14.557</ele>
        <time>2013-04-27T12:58:39Z</time>
      </trkpt>
      <trkpt lat="59.856261" lon="17.6903986">
        <ele>14.557</ele>
        <time>2013-04-27T12:58:40Z</time>
      </trkpt>
      <trkpt lat="59.8562231" lon="17.6904286">
        <ele>14.557</ele>
        <time>2013-04-27T12:58:41Z</time>
      </trkpt>
      <trkpt lat="59.8561864" lon="17.6904573">
        <ele>15.0377</ele>
        <time>2013-04-27T12:58:42Z</time>
      </trkpt>
      <trkpt lat="59.8561568" lon="17.6904775">
        <ele>15.5184</ele>
        <time>2013-04-27T12:58:43Z</time>
      </trkpt>
      <trkpt lat="59.8561392" lon="17.6904947">
        <ele>15.999</ele>
        <time>2013-04-27T12:58:44Z</time>
      </trkpt>
      <trkpt lat="59.8561336" lon="17.690507">
        <ele>15.5184</ele>
        <time>2013-04-27T12:58:45Z</time>
      </trkpt>
      <trkpt lat="59.8561323" lon="17.6905159">
        <ele>15.999</ele>
        <time>2013-04-27T12:58:46Z</time>
      </trkpt>
      <trkpt lat="59.8561304" lon="17.6905294">
        <ele>16.4797</ele>
        <time>2013-04-27T12:58:47Z</time>
      </trkpt>
      <trkpt lat="59.8561279" lon="17.6905644">
        <ele>16.4797</ele>
        <time>2013-04-27T12:58:48Z</time>
      </trkpt>
      <trkpt lat="59.8561341" lon="17.6906127">
        <ele>16.9604</ele>
        <time>2013-04-27T12:58:49Z</time>
      </trkpt>
      <trkpt lat="59.8561492" lon="17.6906675">
        <ele>16.9604</ele>
        <time>2013-04-27T12:58:50Z</time>
      </trkpt>
      <trkpt lat="59.856166" lon="17.6907295">
        <ele>16.9604</ele>
        <time>2013-04-27T12:58:51Z</time>
      </trkpt>
      <trkpt lat="59.8561805" lon="17.6908002">
        <ele>17.9218</ele>
        <time>2013-04-27T12:58:52Z</time>
      </trkpt>
      <trkpt lat="59.8561821" lon="17.6908982">
        <ele>18.4023</ele>
        <time>2013-04-27T12:58:53Z</time>
      </trkpt>
      <trkpt lat="59.8561655" lon="17.690959">
        <ele>18.4023</ele>
        <time>2013-04-27T12:58:54Z</time>
      </trkpt>
      <trkpt lat="59.8561406" lon="17.6910171">
        <ele>18.4023</ele>
        <time>2013-04-27T12:58:55Z</time>
      </trkpt>
      <trkpt lat="59.8561152" lon="17.6910628">
        <ele>18.4023</ele>
        <time>2013-04-27T12:58:56Z</time>
      </trkpt>
      <trkpt lat="59.8560937" lon="17.6911202">
        <ele>18.4023</ele>
        <time>2013-04-27T12:58:57Z</time>
      </trkpt>
      <trkpt lat="59.8560769" lon="17.6912149">
        <ele>19.8444</ele>
        <time>2013-04-27T12:58:58Z</time>
      </trkpt>
      <trkpt lat="59.85608" lon="17.6912927">
        <ele>20.325</ele>
        <time>2013-04-27T12:58:59Z</time>
      </trkpt>
      <trkpt lat="59.856077" lon="17.6913741">
        <ele>20.325</ele>
        <time>2013-04-27T12:59:00Z</time>
      </trkpt>
      <trkpt lat="59.8560667" lon="17.6914695">
        <ele>21.2864</ele>
        <time>2013-04-27T12:59:01Z</time>
      </trkpt>
      <trkpt lat="59.8560539" lon="17.6915648">
        <ele>22.2476</ele>
        <time>2013-04-27T12:59:02Z</time>
      </trkpt>
      <trkpt lat="59.8560454" lon="17.6916674">
        <ele>23.209</ele>
        <time>2013-04-27T12:59:03Z</time>
      </trkpt>
      <trkpt lat="59.8560501" lon="17.6917505">
        <ele>23.209</ele>
        <time>2013-04-27T12:59:04Z</time>
      </trkpt>
      <trkpt lat="59.8560608" lon="17.691844">
        <ele>23.6896</ele>
        <time>2013-04-27T12:59:05Z</time>
      </trkpt>
      <trkpt lat="59.8560764" lon="17.6919396">
        <ele>23.6896</ele>
        <time>2013-04-27T12:59:06Z</time>
      </trkpt>
      <trkpt lat="59.8560917" lon="17.6920329">
        <ele>24.1703</ele>
        <time>2013-04-27T12:59:07Z</time>
      </trkpt>
      <trkpt lat="59.85611" lon="17.6921254">
        <ele>24.1703</ele>
        <time>2013-04-27T12:59:08Z</time>
      </trkpt>
      <trkpt lat="59.8561281" lon="17.6922186">
        <ele>23.6896</ele>
        <time>2013-04-27T12:59:09Z</time>
      </trkpt>
      <trkpt lat="59.8561447" lon="17.6923115">
        <ele>23.6896</ele>
        <time>2013-04-27T12:59:10Z</time>
      </trkpt>
      <trkpt lat="59.85616" lon="17.6924044">
        <ele>23.209</ele>
        <time>2013-04-27T12:59:11Z</time>
      </trkpt>
      <trkpt lat="59.856177" lon="17.6924965">
        <ele>23.6896</ele>
        <time>2013-04-27T12:59:12Z</time>
      </trkpt>
      <trkpt lat="59.8561934" lon="17.6925879">
        <ele>23.6896</ele>
        <time>2013-04-27T12:59:13Z</time>
      </trkpt>
      <trkpt lat="59.8562097" lon="17.6926797">
        <ele>23.6896</ele>
        <time>2013-04-27T12:59:14Z</time>
      </trkpt>
      <trkpt lat="59.8562273" lon="17.69277">
        <ele>23.6896</ele>
        <time>2013-04-27T12:59:15Z</time>
      </trkpt>
      <trkpt lat="59.856245" lon="17.6928623">
        <ele>23.6896</ele>
        <time>2013-04-27T12:59:16Z</time>
      </trkpt>
      <trkpt lat="59.8562604" lon="17.6929556">
        <ele>23.6896</ele>
        <time>2013-04-27T12:59:17Z</time>
      </trkpt>
      <trkpt lat="59.8562755" lon="17.6930482">
        <ele>24.1703</ele>
        <time>2013-04-27T12:59:18Z</time>
      </trkpt>
      <trkpt lat="59.8562918" lon="17.6931411">
        <ele>24.1703</ele>
        <time>2013-04-27T12:59:19Z</time>
      </trkpt>
      <trkpt lat="59.8563105" lon="17.6932348">
        <ele>24.651</ele>
        <time>2013-04-27T12:59:20Z</time>
      </trkpt>
      <trkpt lat="59.8563291" lon="17.6933296">
        <ele>24.651</ele>
        <time>2013-04-27T12:59:21Z</time>
      </trkpt>
      <trkpt lat="59.8563478" lon="17.6934247">
        <ele>24.651</ele>
        <time>2013-04-27T12:59:22Z</time>
      </trkpt>
      <trkpt lat="59.8563664" lon="17.6935204">
        <ele>24.1703</ele>
        <time>2013-04-27T12:59:23Z</time>
      </trkpt>
      <trkpt lat="59.8563848" lon="17.6936193">
        <ele>24.651</ele>
        <time>2013-04-27T12:59:24Z</time>
      </trkpt>
      <trkpt lat="59.8564044" lon="17.6937253">
        <ele>24.651</ele>
        <time>2013-04-27T12:59:25Z</time>
      </trkpt>
      <trkpt lat="59.8564277" lon="17.6938382">
        <ele>24.651</ele>
        <time>2013-04-27T12:59:26Z</time>
      </trkpt>
      <trkpt lat="59.8564508" lon="17.6939564">
        <ele>24.651</ele>
        <time>2013-04-27T12:59:27Z</time>
      </trkpt>
      <trkpt lat="59.8564768" lon="17.6940828">
        <ele>24.1703</ele>
        <time>2013-04-27T12:59:28Z</time>
      </trkpt>
      <trkpt lat="59.8565023" lon="17.6942173">
        <ele>24.1703</ele>
        <time>2013-04-27T12:59:29Z</time>
      </trkpt>
      <trkpt lat="59.856526" lon="17.6943567">
        <ele>24.1703</ele>
        <time>2013-04-27T12:59:30Z</time>
      </trkpt>
      <trkpt lat="59.8565505" lon="17.6944962">
        <ele>24.1703</ele>
        <time>2013-04-27T12:59:31Z</time>
      </trkpt>
      <trkpt lat="59.8565767" lon="17.6946379">
        <ele>23.6896</ele>
        <time>2013-04-27T12:59:32Z</time>
      </trkpt>
      <trkpt lat="59.8566032" lon="17.6947788">
        <ele>23.209</ele>
        <time>2013-04-27T12:59:33Z</time>
      </trkpt>
      <trkpt lat="59.8566306" lon="17.6949282">
        <ele>23.209</ele>
        <time>2013-04-27T12:59:34Z</time>
      </trkpt>
      <trkpt lat="59.8566582" lon="17.6950795">
        <ele>23.209</ele>
        <time>2013-04-27T12:59:35Z</time>
      </trkpt>
      <trkpt lat="59.8566857" lon="17.6952301">
        <ele>23.209</ele>
        <time>2013-04-27T12:59:36Z</time>
      </trkpt>
      <trkpt lat="59.8567131" lon="17.6953816">
        <ele>23.209</ele>
        <time>2013-04-27T12:59:37Z</time>
      </trkpt>
      <trkpt lat="59.8567415" lon="17.6955358">
        <ele>23.209</ele>
        <time>2013-04-27T12:59:38Z</time>
      </trkpt>
      <trkpt lat="59.8567703" lon="17.6956917">
        <ele>23.209</ele>
        <time>2013-04-27T12:59:39Z</time>
      </trkpt>
      <trkpt lat="59.8567986" lon="17.6958482">
        <ele>23.6896</ele>
        <time>2013-04-27T12:59:40Z</time>
      </trkpt>
      <trkpt lat="59.8568251" lon="17.6960062">
        <ele>23.6896</ele>
        <time>2013-04-27T12:59:41Z</time>
      </trkpt>
      <trkpt lat="59.856855" lon="17.6961635">
        <ele>23.6896</ele>
        <time>2013-04-27T12:59:42Z</time>
      </trkpt>
      <trkpt lat="59.8568865" lon="17.6963195">
        <ele>23.6896</ele>
        <time>2013-04-27T12:59:43Z</time>
      </trkpt>
      <trkpt lat="59.8569183" lon="17.6964755">
        <ele>23.6896</ele>
        <time>2013-04-27T12:59:44Z</time>
      </trkpt>
      <trkpt lat="59.8569494" lon="17.6966319">
        <ele>24.1703</ele>
        <time>2013-04-27T12:59:45Z</time>
      </trkpt>
      <trkpt lat="59.8569795" lon="17.6967892">
        <ele>24.1703</ele>
        <time>2013-04-27T12:59:46Z</time>
      </trkpt>
      <trkpt lat="59.8570106" lon="17.6969468">
        <ele>24.651</ele>
        <time>2013-04-27T12:59:47Z</time>
      </trkpt>
      <trkpt lat="59.857041" lon="17.697106">
        <ele>24.651</ele>
        <time>2013-04-27T12:59:48Z</time>
      </trkpt>
      <trkpt lat="59.8570721" lon="17.6972644">
        <ele>24.651</ele>
        <time>2013-04-27T12:59:49Z</time>
      </trkpt>
      <trkpt lat="59.8571038" lon="17.6974189">
        <ele>24.651</ele>
        <time>2013-04-27T12:59:50Z</time>
      </trkpt>
      <trkpt lat="59.8571344" lon="17.6975702">
        <ele>24.651</ele>
        <time>2013-04-27T12:59:51Z</time>
      </trkpt>
      <trkpt lat="59.8571633" lon="17.6977198">
        <ele>24.651</ele>
        <time>2013-04-27T12:59:52Z</time>
      </trkpt>
      <trkpt lat="59.8571913" lon="17.6978695">
        <ele>24.1703</ele>
        <time>2013-04-27T12:59:53Z</time>
      </trkpt>
      <trkpt lat="59.8572183" lon="17.6980185">
        <ele>24.1703</ele>
        <time>2013-04-27T12:59:54Z</time>
      </trkpt>
      <trkpt lat="59.8572446" lon="17.6981635">
        <ele>24.1703</ele>
        <time>2013-04-27T12:59:55Z</time>
      </trkpt>
      <trkpt lat="59.85727" lon="17.6983044">
        <ele>24.1703</ele>
        <time>2013-04-27T12:59:56Z</time>
      </trkpt>
      <trkpt lat="59.8572928" lon="17.6984434">
        <ele>24.1703</ele>
        <time>2013-04-27T12:59:57Z</time>
      </trkpt>
      <trkpt lat="59.8573151" lon="17.6985807">
        <ele>23.6896</ele>
        <time>2013-04-27T12:59:58Z</time>
      </trkpt>
      <trkpt lat="59.8573384" lon="17.6987154">
        <ele>23.6896</ele>
        <time>2013-04-27T12:59:59Z</time>
      </trkpt>
      <trkpt lat="59.8573631" lon="17.6988468">
        <ele>23.209</ele>
        <time>2013-04-27T13:00:00Z</time>
      </trkpt>
      <trkpt lat="59.857388" lon="17.6989758">
        <ele>23.209</ele>
        <time>2013-04-27T13:00:01Z</time>
      </trkpt>
      <trkpt lat="59.8574156" lon="17.6991016">
        <ele>23.6896</ele>
        <time>2013-04-27T13:00:02Z</time>
      </trkpt>
      <trkpt lat="59.857444" lon="17.6992237">
        <ele>24.1703</ele>
        <time>2013-04-27T13:00:03Z</time>
      </trkpt>
      <trkpt lat="59.8574683" lon="17.6993456">
        <ele>23.6896</ele>
        <time>2013-04-27T13:00:04Z</time>
      </trkpt>
      <trkpt lat="59.8574923" lon="17.6994684">
        <ele>23.6896</ele>
        <time>2013-04-27T13:00:05Z</time>
      </trkpt>
      <trkpt lat="59.8575172" lon="17.6995908">
        <ele>23.209</ele>
        <time>2013-04-27T13:00:06Z</time>
      </trkpt>
      <trkpt lat="59.8575426" lon="17.6997105">
        <ele>23.209</ele>
        <time>2013-04-27T13:00:07Z</time>
      </trkpt>
      <trkpt lat="59.8575684" lon="17.6998286">
        <ele>22.7283</ele>
        <time>2013-04-27T13:00:08Z</time>
      </trkpt>
      <trkpt lat="59.8575934" lon="17.699945">
        <ele>22.7283</ele>
        <time>2013-04-27T13:00:09Z</time>
      </trkpt>
      <trkpt lat="59.8576167" lon="17.7000607">
        <ele>22.7283</ele>
        <time>2013-04-27T13:00:10Z</time>
      </trkpt>
      <trkpt lat="59.8576395" lon="17.7001757">
        <ele>22.7283</ele>
        <time>2013-04-27T13:00:11Z</time>
      </trkpt>
      <trkpt lat="59.8576628" lon="17.7002906">
        <ele>22.2476</ele>
        <time>2013-04-27T13:00:12Z</time>
      </trkpt>
      <trkpt lat="59.857686" lon="17.7003988">
        <ele>22.2476</ele>
        <time>2013-04-27T13:00:13Z</time>
      </trkpt>
      <trkpt lat="59.8577065" lon="17.7005046">
        <ele>21.767</ele>
        <time>2013-04-27T13:00:14Z</time>
      </trkpt>
      <trkpt lat="59.8577274" lon="17.7006097">
        <ele>21.767</ele>
        <time>2013-04-27T13:00:15Z</time>
      </trkpt>
      <trkpt lat="59.8577493" lon="17.7007092">
        <ele>22.2476</ele>
        <time>2013-04-27T13:00:16Z</time>
      </trkpt>
      <trkpt lat="59.8577697" lon="17.7008033">
        <ele>22.2476</ele>
        <time>2013-04-27T13:00:17Z</time>
      </trkpt>
      <trkpt lat="59.8577892" lon="17.700889">
        <ele>22.2476</ele>
        <time>2013-04-27T13:00:18Z</time>
      </trkpt>
      <trkpt lat="59.8578114" lon="17.7009745">
        <ele>22.2476</ele>
        <time>2013-04-27T13:00:19Z</time>
      </trkpt>
      <trkpt lat="59.8578325" lon="17.701067">
        <ele>22.2476</ele>
        <time>2013-04-27T13:00:20Z</time>
      </trkpt>
      <trkpt lat="59.8578497" lon="17.7011651">
        <ele>22.2476</ele>
        <time>2013-04-27T13:00:21Z</time>
      </trkpt>
      <trkpt lat="59.8578666" lon="17.7012653">
        <ele>22.7283</ele>
        <time>2013-04-27T13:00:22Z</time>
      </trkpt>
      <trkpt lat="59.8578848" lon="17.7013635">
        <ele>22.7283</ele>
        <time>2013-04-27T13:00:23Z</time>
      </trkpt>
      <trkpt lat="59.8579046" lon="17.701455">
        <ele>22.7283</ele>
        <time>2013-04-27T13:00:24Z</time>
      </trkpt>
      <trkpt lat="59.8579239" lon="17.7015449">
        <ele>22.7283</ele>
        <time>2013-04-27T13:00:25Z</time>
      </trkpt>
      <trkpt lat="59.8579451" lon="17.7016352">
        <ele>22.7283</ele>
        <time>2013-04-27T13:00:26Z</time>
      </trkpt>
      <trkpt lat="59.8579647" lon="17.7017272">
        <ele>22.7283</ele>
        <time>2013-04-27T13:00:27Z</time>
      </trkpt>
      <trkpt lat="59.8579849" lon="17.701827">
        <ele>22.7283</ele>
        <time>2013-04-27T13:00:28Z</time>
      </trkpt>
      <trkpt lat="59.8579994" lon="17.7019346">
        <ele>22.2476</ele>
        <time>2013-04-27T13:00:29Z</time>
      </trkpt>
      <trkpt lat="59.8580201" lon="17.7020208">
        <ele>22.2476</ele>
        <time>2013-04-27T13:00:30Z</time>
      </trkpt>
      <trkpt lat="59.8580382" lon="17.7021135">
        <ele>21.767</ele>
        <time>2013-04-27T13:00:31Z</time>
      </trkpt>
      <trkpt lat="59.8580586" lon="17.7022118">
        <ele>21.767</ele>
        <time>2013-04-27T13:00:32Z</time>
      </trkpt>
      <trkpt lat="59.8580805" lon="17.7023114">
        <ele>21.767</ele>
        <time>2013-04-27T13:00:33Z</time>
      </trkpt>
      <trkpt lat="59.8581024" lon="17.7024112">
        <ele>21.767</ele>
        <time>2013-04-27T13:00:34Z</time>
      </trkpt>
      <trkpt lat="59.8581233" lon="17.7025114">
        <ele>21.767</ele>
        <time>2013-04-27T13:00:35Z</time>
      </trkpt>
      <trkpt lat="59.8581453" lon="17.7026085">
        <ele>21.767</ele>
        <time>2013-04-27T13:00:36Z</time>
      </trkpt>
      <trkpt lat="59.8581662" lon="17.7027091">
        <ele>21.2864</ele>
        <time>2013-04-27T13:00:37Z</time>
      </trkpt>
      <trkpt lat="59.8581848" lon="17.7028029">
        <ele>21.2864</ele>
        <time>2013-04-27T13:00:38Z</time>
      </trkpt>
      <trkpt lat="59.858204" lon="17.7028978">
        <ele>20.8057</ele>
        <time>2013-04-27T13:00:39Z</time>
      </trkpt>
      <trkpt lat="59.8582292" lon="17.7029929">
        <ele>21.2864</ele>
        <time>2013-04-27T13:00:40Z</time>
      </trkpt>
      <trkpt lat="59.858268" lon="17.7030825">
        <ele>22.7283</ele>
        <time>2013-04-27T13:00:41Z</time>
      </trkpt>
      <trkpt lat="59.858293" lon="17.7031844">
        <ele>23.6896</ele>
        <time>2013-04-27T13:00:42Z</time>
      </trkpt>
      <trkpt lat="59.8583095" lon="17.7032914">
        <ele>23.209</ele>
        <time>2013-04-27T13:00:43Z</time>
      </trkpt>
      <trkpt lat="59.8583304" lon="17.7033887">
        <ele>23.6896</ele>
        <time>2013-04-27T13:00:44Z</time>
      </trkpt>
      <trkpt lat="59.8583486" lon="17.7034909">
        <ele>23.6896</ele>
        <time>2013-04-27T13:00:45Z</time>
      </trkpt>
      <trkpt lat="59.8583686" lon="17.7035917">
        <ele>23.6896</ele>
        <time>2013-04-27T13:00:46Z</time>
      </trkpt>
      <trkpt lat="59.8583913" lon="17.7036868">
        <ele>23.209</ele>
        <time>2013-04-27T13:00:47Z</time>
      </trkpt>
      <trkpt lat="59.8584134" lon="17.7037847">
        <ele>23.209</ele>
        <time>2013-04-27T13:00:48Z</time>
      </trkpt>
      <trkpt lat="59.8584354" lon="17.7038852">
        <ele>23.209</ele>
        <time>2013-04-27T13:00:49Z</time>
      </trkpt>
      <trkpt lat="59.858459" lon="17.7039867">
        <ele>23.209</ele>
        <time>2013-04-27T13:00:50Z</time>
      </trkpt>
      <trkpt lat="59.8584827" lon="17.7040886">
        <ele>23.209</ele>
        <time>2013-04-27T13:00:51Z</time>
      </trkpt>
      <trkpt lat="59.8585037" lon="17.7041928">
        <ele>23.209</ele>
        <time>2013-04-27T13:00:52Z</time>
      </trkpt>
      <trkpt lat="59.8585231" lon="17.704301">
        <ele>22.7283</ele>
        <time>2013-04-27T13:00:53Z</time>
      </trkpt>
      <trkpt lat="59.8585448" lon="17.7044056">
        <ele>22.7283</ele>
        <time>2013-04-27T13:00:54Z</time>
      </trkpt>
      <trkpt lat="59.8585682" lon="17.7045097">
        <ele>22.2476</ele>
        <time>2013-04-27T13:00:55Z</time>
      </trkpt>
      <trkpt lat="59.8585915" lon="17.7046132">
        <ele>21.767</ele>
        <time>2013-04-27T13:00:56Z</time>
      </trkpt>
      <trkpt lat="59.8586167" lon="17.7047153">
        <ele>21.767</ele>
        <time>2013-04-27T13:00:57Z</time>
      </trkpt>
      <trkpt lat="59.8586459" lon="17.7048191">
        <ele>21.767</ele>
        <time>2013-04-27T13:00:58Z</time>
      </trkpt>
      <trkpt lat="59.8586759" lon="17.7049227">
        <ele>21.2864</ele>
        <time>2013-04-27T13:00:59Z</time>
      </trkpt>
      <trkpt lat="59.858705" lon="17.7050232">
        <ele>21.2864</ele>
        <time>2013-04-27T13:01:00Z</time>
      </trkpt>
      <trkpt lat="59.8587353" lon="17.7051193">
        <ele>21.2864</ele>
        <time>2013-04-27T13:01:01Z</time>
      </trkpt>
      <trkpt lat="59.8587629" lon="17.7052172">
        <ele>21.2864</ele>
        <time>2013-04-27T13:01:02Z</time>
      </trkpt>
      <trkpt lat="59.858792" lon="17.7053177">
        <ele>22.7283</ele>
        <time>2013-04-27T13:01:03Z</time>
      </trkpt>
      <trkpt lat="59.8587974" lon="17.7054257">
        <ele>23.6896</ele>
        <time>2013-04-27T13:01:04Z</time>
      </trkpt>
      <trkpt lat="59.8587817" lon="17.705531">
        <ele>23.6896</ele>
        <time>2013-04-27T13:01:05Z</time>
      </trkpt>
      <trkpt lat="59.8587614" lon="17.7056317">
        <ele>23.6896</ele>
        <time>2013-04-27T13:01:06Z</time>
      </trkpt>
      <trkpt lat="59.8587407" lon="17.7057277">
        <ele>23.6896</ele>
        <time>2013-04-27T13:01:07Z</time>
      </trkpt>
      <trkpt lat="59.8587204" lon="17.7058181">
        <ele>24.1703</ele>
        <time>2013-04-27T13:01:08Z</time>
      </trkpt>
      <trkpt lat="59.8587035" lon="17.7059096">
        <ele>24.1703</ele>
        <time>2013-04-27T13:01:09Z</time>
      </trkpt>
      <trkpt lat="59.8586866" lon="17.7059965">
        <ele>24.651</ele>
        <time>2013-04-27T13:01:10Z</time>
      </trkpt>
      <trkpt lat="59.8586686" lon="17.706085">
        <ele>24.651</ele>
        <time>2013-04-27T13:01:11Z</time>
      </trkpt>
      <trkpt lat="59.8586483" lon="17.7061742">
        <ele>23.6896</ele>
        <time>2013-04-27T13:01:12Z</time>
      </trkpt>
      <trkpt lat="59.8586304" lon="17.7062684">
        <ele>23.6896</ele>
        <time>2013-04-27T13:01:13Z</time>
      </trkpt>
      <trkpt lat="59.8586174" lon="17.7063664">
        <ele>23.209</ele>
        <time>2013-04-27T13:01:14Z</time>
      </trkpt>
      <trkpt lat="59.8586043" lon="17.7064653">
        <ele>22.7283</ele>
        <time>2013-04-27T13:01:15Z</time>
      </trkpt>
      <trkpt lat="59.858589" lon="17.7065656">
        <ele>22.7283</ele>
        <time>2013-04-27T13:01:16Z</time>
      </trkpt>
      <trkpt lat="59.8585724" lon="17.7066685">
        <ele>22.7283</ele>
        <time>2013-04-27T13:01:17Z</time>
      </trkpt>
      <trkpt lat="59.8585588" lon="17.706776">
        <ele>22.2476</ele>
        <time>2013-04-27T13:01:18Z</time>
      </trkpt>
      <trkpt lat="59.8585469" lon="17.7068839">
        <ele>22.2476</ele>
        <time>2013-04-27T13:01:19Z</time>
      </trkpt>
      <trkpt lat="59.858537" lon="17.7069911">
        <ele>22.2476</ele>
        <time>2013-04-27T13:01:20Z</time>
      </trkpt>
      <trkpt lat="59.8585277" lon="17.7071003">
        <ele>22.2476</ele>
        <time>2013-04-27T13:01:21Z</time>
      </trkpt>
      <trkpt lat="59.8585185" lon="17.7072108">
        <ele>22.2476</ele>
        <time>2013-04-27T13:01:22Z</time>
      </trkpt>
      <trkpt lat="59.8585087" lon="17.7073194">
        <ele>22.2476</ele>
        <time>2013-04-27T13:01:23Z</time>
      </trkpt>
      <trkpt lat="59.8584977" lon="17.7074248">
        <ele>22.2476</ele>
        <time>2013-04-27T13:01:24Z</time>
      </trkpt>
      <trkpt lat="59.8584853" lon="17.7075348">
        <ele>22.7283</ele>
        <time>2013-04-27T13:01:25Z</time>
      </trkpt>
      <trkpt lat="59.8584738" lon="17.707646">
        <ele>22.7283</ele>
        <time>2013-04-27T13:01:26Z</time>
      </trkpt>
      <trkpt lat="59.8584626" lon="17.707755">
        <ele>22.7283</ele>
        <time>2013-04-27T13:01:27Z</time>
      </trkpt>
      <trkpt lat="59.8584526" lon="17.7078659">
        <ele>22.7283</ele>
        <time>2013-04-27T13:01:28Z</time>
      </trkpt>
      <trkpt lat="59.8584434" lon="17.7079697">
        <ele>22.7283</ele>
        <time>2013-04-27T13:01:29Z</time>
      </trkpt>
      <trkpt lat="59.8584317" lon="17.7080718">
        <ele>23.209</ele>
        <time>2013-04-27T13:01:30Z</time>
      </trkpt>
      <trkpt lat="59.8584198" lon="17.7081753">
        <ele>23.6896</ele>
        <time>2013-04-27T13:01:31Z</time>
      </trkpt>
      <trkpt lat="59.8584075" lon="17.7082784">
        <ele>23.6896</ele>
        <time>2013-04-27T13:01:32Z</time>
      </trkpt>
      <trkpt lat="59.8583885" lon="17.7083924">
        <ele>24.1703</ele>
        <time>2013-04-27T13:01:33Z</time>
      </trkpt>
      <trkpt lat="59.8583722" lon="17.7084949">
        <ele>24.651</ele>
        <time>2013-04-27T13:01:34Z</time>
      </trkpt>
      <trkpt lat="59.8583589" lon="17.7085954">
        <ele>24.651</ele>
        <time>2013-04-27T13:01:35Z</time>
      </trkpt>
      <trkpt lat="59.8583473" lon="17.7086967">
        <ele>25.1317</ele>
        <time>2013-04-27T13:01:36Z</time>
      </trkpt>
      <trkpt lat="59.8583381" lon="17.708798">
        <ele>25.1317</ele>
        <time>2013-04-27T13:01:37Z</time>
      </trkpt>
      <trkpt lat="59.8583324" lon="17.7089057">
        <ele>25.1317</ele>
        <time>2013-04-27T13:01:38Z</time>
      </trkpt>
      <trkpt lat="59.8583278" lon="17.7090084">
        <ele>25.1317</ele>
        <time>2013-04-27T13:01:39Z</time>
      </trkpt>
      <trkpt lat="59.8583231" lon="17.7091028">
        <ele>25.6123</ele>
        <time>2013-04-27T13:01:40Z</time>
      </trkpt>
      <trkpt lat="59.8583204" lon="17.7091968">
        <ele>25.6123</ele>
        <time>2013-04-27T13:01:41Z</time>
      </trkpt>
      <trkpt lat="59.8583232" lon="17.7092909">
        <ele>26.5736</ele>
        <time>2013-04-27T13:01:42Z</time>
      </trkpt>
      <trkpt lat="59.8583269" lon="17.7093885">
        <ele>27.5349</ele>
        <time>2013-04-27T13:01:43Z</time>
      </trkpt>
      <trkpt lat="59.8583329" lon="17.7094753">
        <ele>28.0155</ele>
        <time>2013-04-27T13:01:44Z</time>
      </trkpt>
      <trkpt lat="59.8583419" lon="17.7095656">
        <ele>28.4962</ele>
        <time>2013-04-27T13:01:45Z</time>
      </trkpt>
      <trkpt lat="59.8583528" lon="17.7096522">
        <ele>28.9769</ele>
        <time>2013-04-27T13:01:46Z</time>
      </trkpt>
      <trkpt lat="59.8583667" lon="17.709738">
        <ele>29.4575</ele>
        <time>2013-04-27T13:01:47Z</time>
      </trkpt>
      <trkpt lat="59.8583817" lon="17.709832">
        <ele>29.4575</ele>
        <time>2013-04-27T13:01:48Z</time>
      </trkpt>
      <trkpt lat="59.8583962" lon="17.7099266">
        <ele>29.9381</ele>
        <time>2013-04-27T13:01:49Z</time>
      </trkpt>
      <trkpt lat="59.8584144" lon="17.7100158">
        <ele>29.9381</ele>
        <time>2013-04-27T13:01:50Z</time>
      </trkpt>
      <trkpt lat="59.8584294" lon="17.7101048">
        <ele>30.4188</ele>
        <time>2013-04-27T13:01:51Z</time>
      </trkpt>
      <trkpt lat="59.8584449" lon="17.710196">
        <ele>31.3801</ele>
        <time>2013-04-27T13:01:52Z</time>
      </trkpt>
      <trkpt lat="59.8584626" lon="17.7102941">
        <ele>31.3801</ele>
        <time>2013-04-27T13:01:53Z</time>
      </trkpt>
      <trkpt lat="59.8584841" lon="17.7103898">
        <ele>31.8607</ele>
        <time>2013-04-27T13:01:54Z</time>
      </trkpt>
      <trkpt lat="59.8585034" lon="17.710485">
        <ele>31.8607</ele>
        <time>2013-04-27T13:01:55Z</time>
      </trkpt>
      <trkpt lat="59.8585224" lon="17.7105878">
        <ele>32.8223</ele>
        <time>2013-04-27T13:01:56Z</time>
      </trkpt>
      <trkpt lat="59.8585371" lon="17.7107072">
        <ele>32.8223</ele>
        <time>2013-04-27T13:01:57Z</time>
      </trkpt>
      <trkpt lat="59.8585483" lon="17.7108125">
        <ele>32.3416</ele>
        <time>2013-04-27T13:01:58Z</time>
      </trkpt>
      <trkpt lat="59.8585555" lon="17.7109149">
        <ele>32.8223</ele>
        <time>2013-04-27T13:01:59Z</time>
      </trkpt>
      <trkpt lat="59.8585594" lon="17.7110175">
        <ele>33.3029</ele>
        <time>2013-04-27T13:02:00Z</time>
      </trkpt>
      <trkpt lat="59.8585628" lon="17.711127">
        <ele>32.8223</ele>
        <time>2013-04-27T13:02:01Z</time>
      </trkpt>
      <trkpt lat="59.8585607" lon="17.7112397">
        <ele>31.8607</ele>
        <time>2013-04-27T13:02:02Z</time>
      </trkpt>
      <trkpt lat="59.8585574" lon="17.7113505">
        <ele>31.8607</ele>
        <time>2013-04-27T13:02:03Z</time>
      </trkpt>
      <trkpt lat="59.8585481" lon="17.7114647">
        <ele>31.3801</ele>
        <time>2013-04-27T13:02:04Z</time>
      </trkpt>
      <trkpt lat="59.8585333" lon="17.7115878">
        <ele>31.3801</ele>
        <time>2013-04-27T13:02:05Z</time>
      </trkpt>
      <trkpt lat="59.8585144" lon="17.7117084">
        <ele>30.8995</ele>
        <time>2013-04-27T13:02:06Z</time>
      </trkpt>
      <trkpt lat="59.8584932" lon="17.7118195">
        <ele>30.8995</ele>
        <time>2013-04-27T13:02:07Z</time>
      </trkpt>
      <trkpt lat="59.8584692" lon="17.7119279">
        <ele>29.9381</ele>
        <time>2013-04-27T13:02:08Z</time>
      </trkpt>
      <trkpt lat="59.8584433" lon="17.7120392">
        <ele>29.4575</ele>
        <time>2013-04-27T13:02:09Z</time>
      </trkpt>
      <trkpt lat="59.8584175" lon="17.712151">
        <ele>28.9769</ele>
        <time>2013-04-27T13:02:10Z</time>
      </trkpt>
      <trkpt lat="59.8583936" lon="17.7122623">
        <ele>28.9769</ele>
        <time>2013-04-27T13:02:11Z</time>
      </trkpt>
      <trkpt lat="59.8583708" lon="17.7123748">
        <ele>28.4962</ele>
        <time>2013-04-27T13:02:12Z</time>
      </trkpt>
      <trkpt lat="59.858349" lon="17.7124881">
        <ele>28.0155</ele>
        <time>2013-04-27T13:02:13Z</time>
      </trkpt>
      <trkpt lat="59.8583299" lon="17.7126041">
        <ele>27.5349</ele>
        <time>2013-04-27T13:02:14Z</time>
      </trkpt>
      <trkpt lat="59.8583133" lon="17.712726">
        <ele>27.5349</ele>
        <time>2013-04-27T13:02:15Z</time>
      </trkpt>
      <trkpt lat="59.8582991" lon="17.7128535">
        <ele>27.0543</ele>
        <time>2013-04-27T13:02:16Z</time>
      </trkpt>
      <trkpt lat="59.858286" lon="17.712983">
        <ele>26.5736</ele>
        <time>2013-04-27T13:02:17Z</time>
      </trkpt>
      <trkpt lat="59.8582734" lon="17.7131123">
        <ele>26.5736</ele>
        <time>2013-04-27T13:02:18Z</time>
      </trkpt>
      <trkpt lat="59.8582626" lon="17.71324">
        <ele>26.0929</ele>
        <time>2013-04-27T13:02:19Z</time>
      </trkpt>
      <trkpt lat="59.8582513" lon="17.7133656">
        <ele>26.0929</ele>
        <time>2013-04-27T13:02:20Z</time>
      </trkpt>
      <trkpt lat="59.8582369" lon="17.7134873">
        <ele>25.6123</ele>
        <time>2013-04-27T13:02:21Z</time>
      </trkpt>
      <trkpt lat="59.8582189" lon="17.7136051">
        <ele>25.6123</ele>
        <time>2013-04-27T13:02:22Z</time>
      </trkpt>
      <trkpt lat="59.8581973" lon="17.7137194">
        <ele>25.6123</ele>
        <time>2013-04-27T13:02:23Z</time>
      </trkpt>
      <trkpt lat="59.8581724" lon="17.7138325">
        <ele>25.6123</ele>
        <time>2013-04-27T13:02:24Z</time>
      </trkpt>
      <trkpt lat="59.8581444" lon="17.7139433">
        <ele>25.6123</ele>
        <time>2013-04-27T13:02:25Z</time>
      </trkpt>
      <trkpt lat="59.8581123" lon="17.7140493">
        <ele>25.1317</ele>
        <time>2013-04-27T13:02:26Z</time>
      </trkpt>
      <trkpt lat="59.8580767" lon="17.7141527">
        <ele>25.1317</ele>
        <time>2013-04-27T13:02:27Z</time>
      </trkpt>
      <trkpt lat="59.8580393" lon="17.7142539">
        <ele>25.1317</ele>
        <time>2013-04-27T13:02:28Z</time>
      </trkpt>
      <trkpt lat="59.8580009" lon="17.7143567">
        <ele>24.651</ele>
        <time>2013-04-27T13:02:29Z</time>
      </trkpt>
      <trkpt lat="59.8579632" lon="17.7144603">
        <ele>24.651</ele>
        <time>2013-04-27T13:02:30Z</time>
      </trkpt>
      <trkpt lat="59.8579282" lon="17.714567">
        <ele>24.651</ele>
        <time>2013-04-27T13:02:31Z</time>
      </trkpt>
      <trkpt lat="59.8578958" lon="17.7146754">
        <ele>24.651</ele>
        <time>2013-04-27T13:02:32Z</time>
      </trkpt>
      <trkpt lat="59.8578659" lon="17.7147844">
        <ele>24.651</ele>
        <time>2013-04-27T13:02:33Z</time>
      </trkpt>
      <trkpt lat="59.857837" lon="17.7148939">
        <ele>24.651</ele>
        <time>2013-04-27T13:02:34Z</time>
      </trkpt>
      <trkpt lat="59.8578083" lon="17.7150035">
        <ele>24.651</ele>
        <time>2013-04-27T13:02:35Z</time>
      </trkpt>
      <trkpt lat="59.8577813" lon="17.7151183">
        <ele>24.651</ele>
        <time>2013-04-27T13:02:36Z</time>
      </trkpt>
      <trkpt lat="59.8577563" lon="17.7152367">
        <ele>24.651</ele>
        <time>2013-04-27T13:02:37Z</time>
      </trkpt>
      <trkpt lat="59.8577325" lon="17.7153583">
        <ele>24.651</ele>
        <time>2013-04-27T13:02:38Z</time>
      </trkpt>
      <trkpt lat="59.8577104" lon="17.7154823">
        <ele>25.1317</ele>
        <time>2013-04-27T13:02:39Z</time>
      </trkpt>
      <trkpt lat="59.8576908" lon="17.7156083">
        <ele>25.1317</ele>
        <time>2013-04-27T13:02:40Z</time>
      </trkpt>
      <trkpt lat="59.8576741" lon="17.7157355">
        <ele>25.1317</ele>
        <time>2013-04-27T13:02:41Z</time>
      </trkpt>
      <trkpt lat="59.8576601" lon="17.7158622">
        <ele>25.1317</ele>
        <time>2013-04-27T13:02:42Z</time>
      </trkpt>
      <trkpt lat="59.8576503" lon="17.7159896">
        <ele>25.1317</ele>
        <time>2013-04-27T13:02:43Z</time>
      </trkpt>
      <trkpt lat="59.8576449" lon="17.7161193">
        <ele>25.6123</ele>
        <time>2013-04-27T13:02:44Z</time>
      </trkpt>
      <trkpt lat="59.8576431" lon="17.7162537">
        <ele>25.6123</ele>
        <time>2013-04-27T13:02:45Z</time>
      </trkpt>
      <trkpt lat="59.8576461" lon="17.7163924">
        <ele>25.6123</ele>
        <time>2013-04-27T13:02:46Z</time>
      </trkpt>
      <trkpt lat="59.8576506" lon="17.7165345">
        <ele>25.6123</ele>
        <time>2013-04-27T13:02:47Z</time>
      </trkpt>
      <trkpt lat="59.8576575" lon="17.7166788">
        <ele>25.6123</ele>
        <time>2013-04-27T13:02:48Z</time>
      </trkpt>
      <trkpt lat="59.8576667" lon="17.7168248">
        <ele>25.6123</ele>
        <time>2013-04-27T13:02:49Z</time>
      </trkpt>
      <trkpt lat="59.8576747" lon="17.7169706">
        <ele>25.6123</ele>
        <time>2013-04-27T13:02:50Z</time>
      </trkpt>
      <trkpt lat="59.8576808" lon="17.7171155">
        <ele>25.6123</ele>
        <time>2013-04-27T13:02:51Z</time>
      </trkpt>
      <trkpt lat="59.857686" lon="17.7172601">
        <ele>25.6123</ele>
        <time>2013-04-27T13:02:52Z</time>
      </trkpt>
      <trkpt lat="59.8576894" lon="17.7174055">
        <ele>26.0929</ele>
        <time>2013-04-27T13:02:53Z</time>
      </trkpt>
      <trkpt lat="59.8576917" lon="17.7175522">
        <ele>26.0929</ele>
        <time>2013-04-27T13:02:54Z</time>
      </trkpt>
      <trkpt lat="59.8576938" lon="17.7176994">
        <ele>26.0929</ele>
        <time>2013-04-27T13:02:55Z</time>
      </trkpt>
      <trkpt lat="59.8576932" lon="17.7178485">
        <ele>26.0929</ele>
        <time>2013-04-27T13:02:56Z</time>
      </trkpt>
      <trkpt lat="59.8576915" lon="17.7179994">
        <ele>26.5736</ele>
        <time>2013-04-27T13:02:57Z</time>
      </trkpt>
      <trkpt lat="59.8576894" lon="17.7181516">
        <ele>26.5736</ele>
        <time>2013-04-27T13:02:58Z</time>
      </trkpt>
      <trkpt lat="59.8576896" lon="17.7183024">
        <ele>26.5736</ele>
        <time>2013-04-27T13:02:59Z</time>
      </trkpt>
      <trkpt lat="59.8576902" lon="17.7184508">
        <ele>26.5736</ele>
        <time>2013-04-27T13:03:00Z</time>
      </trkpt>
      <trkpt lat="59.85769" lon="17.7185969">
        <ele>26.5736</ele>
        <time>2013-04-27T13:03:01Z</time>
      </trkpt>
      <trkpt lat="59.8576907" lon="17.7187426">
        <ele>26.0929</ele>
        <time>2013-04-27T13:03:02Z</time>
      </trkpt>
      <trkpt lat="59.8576917" lon="17.7188893">
        <ele>26.0929</ele>
        <time>2013-04-27T13:03:03Z</time>
      </trkpt>
      <trkpt lat="59.8576932" lon="17.7190346">
        <ele>26.0929</ele>
        <time>2013-04-27T13:03:04Z</time>
      </trkpt>
      <trkpt lat="59.8576963" lon="17.7191778">
        <ele>26.0929</ele>
        <time>2013-04-27T13:03:05Z</time>
      </trkpt>
      <trkpt lat="59.8576996" lon="17.7193203">
        <ele>26.0929</ele>
        <time>2013-04-27T13:03:06Z</time>
      </trkpt>
      <trkpt lat="59.8577039" lon="17.7194623">
        <ele>26.0929</ele>
        <time>2013-04-27T13:03:07Z</time>
      </trkpt>
      <trkpt lat="59.8577091" lon="17.7196036">
        <ele>26.0929</ele>
        <time>2013-04-27T13:03:08Z</time>
      </trkpt>
      <trkpt lat="59.8577156" lon="17.7197431">
        <ele>26.0929</ele>
        <time>2013-04-27T13:03:09Z</time>
      </trkpt>
      <trkpt lat="59.8577224" lon="17.7198819">
        <ele>26.5736</ele>
        <time>2013-04-27T13:03:10Z</time>
      </trkpt>
      <trkpt lat="59.857729" lon="17.7200204">
        <ele>26.5736</ele>
        <time>2013-04-27T13:03:11Z</time>
      </trkpt>
      <trkpt lat="59.8577348" lon="17.7201569">
        <ele>27.0543</ele>
        <time>2013-04-27T13:03:12Z</time>
      </trkpt>
      <trkpt lat="59.8577391" lon="17.7202927">
        <ele>27.0543</ele>
        <time>2013-04-27T13:03:13Z</time>
      </trkpt>
      <trkpt lat="59.8577431" lon="17.720423">
        <ele>27.5349</ele>
        <time>2013-04-27T13:03:14Z</time>
      </trkpt>
      <trkpt lat="59.8577467" lon="17.7205472">
        <ele>27.5349</ele>
        <time>2013-04-27T13:03:15Z</time>
      </trkpt>
      <trkpt lat="59.8577475" lon="17.720668">
        <ele>28.0155</ele>
        <time>2013-04-27T13:03:16Z</time>
      </trkpt>
      <trkpt lat="59.8577454" lon="17.720785">
        <ele>28.0155</ele>
        <time>2013-04-27T13:03:17Z</time>
      </trkpt>
      <trkpt lat="59.8577415" lon="17.720894">
        <ele>28.4962</ele>
        <time>2013-04-27T13:03:18Z</time>
      </trkpt>
      <trkpt lat="59.8577414" lon="17.7209938">
        <ele>28.0155</ele>
        <time>2013-04-27T13:03:19Z</time>
      </trkpt>
      <trkpt lat="59.8577414" lon="17.721101">
        <ele>28.0155</ele>
        <time>2013-04-27T13:03:20Z</time>
      </trkpt>
      <trkpt lat="59.8577399" lon="17.721212">
        <ele>28.4962</ele>
        <time>2013-04-27T13:03:21Z</time>
      </trkpt>
      <trkpt lat="59.8577379" lon="17.7213219">
        <ele>28.4962</ele>
        <time>2013-04-27T13:03:22Z</time>
      </trkpt>
      <trkpt lat="59.857735" lon="17.7214363">
        <ele>28.4962</ele>
        <time>2013-04-27T13:03:23Z</time>
      </trkpt>
      <trkpt lat="59.857729" lon="17.7215524">
        <ele>28.4962</ele>
        <time>2013-04-27T13:03:24Z</time>
      </trkpt>
      <trkpt lat="59.8577176" lon="17.7216688">
        <ele>28.4962</ele>
        <time>2013-04-27T13:03:25Z</time>
      </trkpt>
      <trkpt lat="59.8577019" lon="17.7217864">
        <ele>28.4962</ele>
        <time>2013-04-27T13:03:26Z</time>
      </trkpt>
      <trkpt lat="59.8576824" lon="17.7219037">
        <ele>28.4962</ele>
        <time>2013-04-27T13:03:27Z</time>
      </trkpt>
      <trkpt lat="59.8576561" lon="17.7220098">
        <ele>28.0155</ele>
        <time>2013-04-27T13:03:28Z</time>
      </trkpt>
      <trkpt lat="59.8576221" lon="17.7221129">
        <ele>27.5349</ele>
        <time>2013-04-27T13:03:29Z</time>
      </trkpt>
      <trkpt lat="59.8575813" lon="17.7222101">
        <ele>27.0543</ele>
        <time>2013-04-27T13:03:30Z</time>
      </trkpt>
      <trkpt lat="59.8575373" lon="17.7223034">
        <ele>26.5736</ele>
        <time>2013-04-27T13:03:31Z</time>
      </trkpt>
      <trkpt lat="59.8574897" lon="17.7223906">
        <ele>26.0929</ele>
        <time>2013-04-27T13:03:32Z</time>
      </trkpt>
      <trkpt lat="59.857439" lon="17.7224739">
        <ele>25.6123</ele>
        <time>2013-04-27T13:03:33Z</time>
      </trkpt>
      <trkpt lat="59.857388" lon="17.72255">
        <ele>25.1317</ele>
        <time>2013-04-27T13:03:34Z</time>
      </trkpt>
      <trkpt lat="59.8573349" lon="17.7226365">
        <ele>24.651</ele>
        <time>2013-04-27T13:03:35Z</time>
      </trkpt>
      <trkpt lat="59.8572814" lon="17.722724">
        <ele>24.1703</ele>
        <time>2013-04-27T13:03:36Z</time>
      </trkpt>
      <trkpt lat="59.8572281" lon="17.7228123">
        <ele>23.6896</ele>
        <time>2013-04-27T13:03:37Z</time>
      </trkpt>
      <trkpt lat="59.8571745" lon="17.7229021">
        <ele>23.209</ele>
        <time>2013-04-27T13:03:38Z</time>
      </trkpt>
      <trkpt lat="59.8571196" lon="17.723005">
        <ele>22.7283</ele>
        <time>2013-04-27T13:03:39Z</time>
      </trkpt>
      <trkpt lat="59.8570633" lon="17.7230992">
        <ele>22.7283</ele>
        <time>2013-04-27T13:03:40Z</time>
      </trkpt>
      <trkpt lat="59.8570078" lon="17.7231958">
        <ele>21.767</ele>
        <time>2013-04-27T13:03:41Z</time>
      </trkpt>
      <trkpt lat="59.8569536" lon="17.7232958">
        <ele>21.2864</ele>
        <time>2013-04-27T13:03:42Z</time>
      </trkpt>
      <trkpt lat="59.8569003" lon="17.7234036">
        <ele>20.8057</ele>
        <time>2013-04-27T13:03:43Z</time>
      </trkpt>
      <trkpt lat="59.8568463" lon="17.7235161">
        <ele>20.325</ele>
        <time>2013-04-27T13:03:44Z</time>
      </trkpt>
      <trkpt lat="59.8567902" lon="17.7236295">
        <ele>19.8444</ele>
        <time>2013-04-27T13:03:45Z</time>
      </trkpt>
      <trkpt lat="59.8567326" lon="17.7237431">
        <ele>19.3638</ele>
        <time>2013-04-27T13:03:46Z</time>
      </trkpt>
      <trkpt lat="59.8566747" lon="17.7238586">
        <ele>18.8831</ele>
        <time>2013-04-27T13:03:47Z</time>
      </trkpt>
      <trkpt lat="59.8566182" lon="17.7239761">
        <ele>18.4023</ele>
        <time>2013-04-27T13:03:48Z</time>
      </trkpt>
      <trkpt lat="59.8565624" lon="17.7240932">
        <ele>18.4023</ele>
        <time>2013-04-27T13:03:49Z</time>
      </trkpt>
      <trkpt lat="59.8565063" lon="17.7242117">
        <ele>17.9218</ele>
        <time>2013-04-27T13:03:50Z</time>
      </trkpt>
      <trkpt lat="59.8564503" lon="17.7243336">
        <ele>17.9218</ele>
        <time>2013-04-27T13:03:51Z</time>
      </trkpt>
      <trkpt lat="59.8563952" lon="17.7244605">
        <ele>17.4412</ele>
        <time>2013-04-27T13:03:52Z</time>
      </trkpt>
      <trkpt lat="59.8563421" lon="17.7245904">
        <ele>17.4412</ele>
        <time>2013-04-27T13:03:53Z</time>
      </trkpt>
      <trkpt lat="59.8562885" lon="17.7247239">
        <ele>17.4412</ele>
        <time>2013-04-27T13:03:54Z</time>
      </trkpt>
      <trkpt lat="59.8562339" lon="17.7248568">
        <ele>16.9604</ele>
        <time>2013-04-27T13:03:55Z</time>
      </trkpt>
      <trkpt lat="59.856178" lon="17.7249883">
        <ele>16.9604</ele>
        <time>2013-04-27T13:03:56Z</time>
      </trkpt>
      <trkpt lat="59.856122" lon="17.7251183">
        <ele>16.9604</ele>
        <time>2013-04-27T13:03:57Z</time>
      </trkpt>
      <trkpt lat="59.8560672" lon="17.7252459">
        <ele>16.9604</ele>
        <time>2013-04-27T13:03:58Z</time>
      </trkpt>
      <trkpt lat="59.8560144" lon="17.7253738">
        <ele>16.9604</ele>
        <time>2013-04-27T13:03:59Z</time>
      </trkpt>
      <trkpt lat="59.8559636" lon="17.7255026">
        <ele>16.9604</ele>
        <time>2013-04-27T13:04:00Z</time>
      </trkpt>
      <trkpt lat="59.8559139" lon="17.7256321">
        <ele>16.4797</ele>
        <time>2013-04-27T13:04:01Z</time>
      </trkpt>
      <trkpt lat="59.8558651" lon="17.72576">
        <ele>16.4797</ele>
        <time>2013-04-27T13:04:02Z</time>
      </trkpt>
      <trkpt lat="59.855817" lon="17.7258859">
        <ele>16.4797</ele>
        <time>2013-04-27T13:04:03Z</time>
      </trkpt>
      <trkpt lat="59.8557698" lon="17.7260123">
        <ele>16.4797</ele>
        <time>2013-04-27T13:04:04Z</time>
      </trkpt>
      <trkpt lat="59.8557242" lon="17.7261434">
        <ele>16.9604</ele>
        <time>2013-04-27T13:04:05Z</time>
      </trkpt>
      <trkpt lat="59.8556801" lon="17.7262729">
        <ele>16.9604</ele>
        <time>2013-04-27T13:04:06Z</time>
      </trkpt>
      <trkpt lat="59.8556368" lon="17.7264">
        <ele>17.4412</ele>
        <time>2013-04-27T13:04:07Z</time>
      </trkpt>
      <trkpt lat="59.8555942" lon="17.7265258">
        <ele>17.4412</ele>
        <time>2013-04-27T13:04:08Z</time>
      </trkpt>
      <trkpt lat="59.8555516" lon="17.7266512">
        <ele>17.9218</ele>
        <time>2013-04-27T13:04:09Z</time>
      </trkpt>
      <trkpt lat="59.8555084" lon="17.7267773">
        <ele>17.9218</ele>
        <time>2013-04-27T13:04:10Z</time>
      </trkpt>
      <trkpt lat="59.8554648" lon="17.7269039">
        <ele>18.4023</ele>
        <time>2013-04-27T13:04:11Z</time>
      </trkpt>
      <trkpt lat="59.8554213" lon="17.7270296">
        <ele>18.4023</ele>
        <time>2013-04-27T13:04:12Z</time>
      </trkpt>
      <trkpt lat="59.8553777" lon="17.7271534">
        <ele>18.4023</ele>
        <time>2013-04-27T13:04:13Z</time>
      </trkpt>
      <trkpt lat="59.8553337" lon="17.7272759">
        <ele>18.4023</ele>
        <time>2013-04-27T13:04:14Z</time>
      </trkpt>
      <trkpt lat="59.8552887" lon="17.7273962">
        <ele>18.8831</ele>
        <time>2013-04-27T13:04:15Z</time>
      </trkpt>
      <trkpt lat="59.8552436" lon="17.7275152">
        <ele>18.8831</ele>
        <time>2013-04-27T13:04:16Z</time>
      </trkpt>
      <trkpt lat="59.8551993" lon="17.7276353">
        <ele>18.8831</ele>
        <time>2013-04-27T13:04:17Z</time>
      </trkpt>
      <trkpt lat="59.8551549" lon="17.7277545">
        <ele>18.8831</ele>
        <time>2013-04-27T13:04:18Z</time>
      </trkpt>
      <trkpt lat="59.8551098" lon="17.7278731">
        <ele>18.8831</ele>
        <time>2013-04-27T13:04:19Z</time>
      </trkpt>
      <trkpt lat="59.8550638" lon="17.7279912">
        <ele>18.8831</ele>
        <time>2013-04-27T13:04:20Z</time>
      </trkpt>
      <trkpt lat="59.8550181" lon="17.7281079">
        <ele>18.8831</ele>
        <time>2013-04-27T13:04:21Z</time>
      </trkpt>
      <trkpt lat="59.854973" lon="17.7282231">
        <ele>18.8831</ele>
        <time>2013-04-27T13:04:22Z</time>
      </trkpt>
      <trkpt lat="59.8549285" lon="17.7283373">
        <ele>18.8831</ele>
        <time>2013-04-27T13:04:23Z</time>
      </trkpt>
      <trkpt lat="59.8548839" lon="17.7284523">
        <ele>18.8831</ele>
        <time>2013-04-27T13:04:24Z</time>
      </trkpt>
      <trkpt lat="59.854839" lon="17.7285674">
        <ele>18.8831</ele>
        <time>2013-04-27T13:04:25Z</time>
      </trkpt>
      <trkpt lat="59.8547934" lon="17.7286823">
        <ele>18.8831</ele>
        <time>2013-04-27T13:04:26Z</time>
      </trkpt>
      <trkpt lat="59.8547478" lon="17.7287979">
        <ele>18.4023</ele>
        <time>2013-04-27T13:04:27Z</time>
      </trkpt>
      <trkpt lat="59.8547024" lon="17.7289141">
        <ele>18.4023</ele>
        <time>2013-04-27T13:04:28Z</time>
      </trkpt>
      <trkpt lat="59.8546576" lon="17.7290293">
        <ele>18.4023</ele>
        <time>2013-04-27T13:04:29Z</time>
      </trkpt>
      <trkpt lat="59.8546126" lon="17.7291434">
        <ele>18.4023</ele>
        <time>2013-04-27T13:04:30Z</time>
      </trkpt>
      <trkpt lat="59.8545669" lon="17.7292588">
        <ele>18.4023</ele>
        <time>2013-04-27T13:04:31Z</time>
      </trkpt>
      <trkpt lat="59.8545219" lon="17.7293757">
        <ele>18.4023</ele>
        <time>2013-04-27T13:04:32Z</time>
      </trkpt>
      <trkpt lat="59.8544777" lon="17.7294909">
        <ele>17.9218</ele>
        <time>2013-04-27T13:04:33Z</time>
      </trkpt>
      <trkpt lat="59.8544334" lon="17.7296053">
        <ele>17.9218</ele>
        <time>2013-04-27T13:04:34Z</time>
      </trkpt>
      <trkpt lat="59.8543887" lon="17.7297194">
        <ele>17.4412</ele>
        <time>2013-04-27T13:04:35Z</time>
      </trkpt>
      <trkpt lat="59.8543438" lon="17.7298347">
        <ele>17.4412</ele>
        <time>2013-04-27T13:04:36Z</time>
      </trkpt>
      <trkpt lat="59.8542992" lon="17.729954">
        <ele>16.9604</ele>
        <time>2013-04-27T13:04:37Z</time>
      </trkpt>
      <trkpt lat="59.8542548" lon="17.7300776">
        <ele>16.4797</ele>
        <time>2013-04-27T13:04:38Z</time>
      </trkpt>
      <trkpt lat="59.8542102" lon="17.7302072">
        <ele>16.4797</ele>
        <time>2013-04-27T13:04:39Z</time>
      </trkpt>
      <trkpt lat="59.8541661" lon="17.7303442">
        <ele>15.999</ele>
        <time>2013-04-27T13:04:40Z</time>
      </trkpt>
      <trkpt lat="59.8541236" lon="17.7304904">
        <ele>15.5184</ele>
        <time>2013-04-27T13:04:41Z</time>
      </trkpt>
      <trkpt lat="59.8540839" lon="17.7306472">
        <ele>15.0377</ele>
        <time>2013-04-27T13:04:42Z</time>
      </trkpt>
      <trkpt lat="59.8540473" lon="17.7308134">
        <ele>14.0764</ele>
        <time>2013-04-27T13:04:43Z</time>
      </trkpt>
      <trkpt lat="59.8540146" lon="17.7309874">
        <ele>13.5958</ele>
        <time>2013-04-27T13:04:44Z</time>
      </trkpt>
      <trkpt lat="59.8539856" lon="17.7311685">
        <ele>13.1151</ele>
        <time>2013-04-27T13:04:45Z</time>
      </trkpt>
      <trkpt lat="59.8539589" lon="17.7313542">
        <ele>13.1151</ele>
        <time>2013-04-27T13:04:46Z</time>
      </trkpt>
      <trkpt lat="59.8539347" lon="17.7315428">
        <ele>12.6344</ele>
        <time>2013-04-27T13:04:47Z</time>
      </trkpt>
      <trkpt lat="59.8539138" lon="17.7317349">
        <ele>12.6344</ele>
        <time>2013-04-27T13:04:48Z</time>
      </trkpt>
      <trkpt lat="59.8538946" lon="17.7319284">
        <ele>12.6344</ele>
        <time>2013-04-27T13:04:49Z</time>
      </trkpt>
      <trkpt lat="59.853875" lon="17.7321219">
        <ele>12.6344</ele>
        <time>2013-04-27T13:04:50Z</time>
      </trkpt>
      <trkpt lat="59.853857" lon="17.7323109">
        <ele>12.1538</ele>
        <time>2013-04-27T13:04:51Z</time>
      </trkpt>
      <trkpt lat="59.8538399" lon="17.7324862">
        <ele>12.1538</ele>
        <time>2013-04-27T13:04:52Z</time>
      </trkpt>
      <trkpt lat="59.8538254" lon="17.7326792">
        <ele>11.6732</ele>
        <time>2013-04-27T13:04:53Z</time>
      </trkpt>
      <trkpt lat="59.8538088" lon="17.732863">
        <ele>11.1925</ele>
        <time>2013-04-27T13:04:54Z</time>
      </trkpt>
      <trkpt lat="59.8537894" lon="17.7330388">
        <ele>11.6732</ele>
        <time>2013-04-27T13:04:55Z</time>
      </trkpt>
      <trkpt lat="59.8537626" lon="17.7332127">
        <ele>11.6732</ele>
        <time>2013-04-27T13:04:56Z</time>
      </trkpt>
      <trkpt lat="59.8537279" lon="17.7333878">
        <ele>12.1538</ele>
        <time>2013-04-27T13:04:57Z</time>
      </trkpt>
      <trkpt lat="59.8536878" lon="17.7335617">
        <ele>12.6344</ele>
        <time>2013-04-27T13:04:58Z</time>
      </trkpt>
      <trkpt lat="59.8536402" lon="17.7337277">
        <ele>13.1151</ele>
        <time>2013-04-27T13:04:59Z</time>
      </trkpt>
      <trkpt lat="59.853587" lon="17.7338727">
        <ele>13.5958</ele>
        <time>2013-04-27T13:05:00Z</time>
      </trkpt>
      <trkpt lat="59.8535279" lon="17.7340119">
        <ele>14.0764</ele>
        <time>2013-04-27T13:05:01Z</time>
      </trkpt>
      <trkpt lat="59.8534641" lon="17.7341436">
        <ele>15.0377</ele>
        <time>2013-04-27T13:05:02Z</time>
      </trkpt>
      <trkpt lat="59.8533961" lon="17.7342624">
        <ele>15.5184</ele>
        <time>2013-04-27T13:05:03Z</time>
      </trkpt>
      <trkpt lat="59.8533232" lon="17.7343714">
        <ele>15.999</ele>
        <time>2013-04-27T13:05:04Z</time>
      </trkpt>
      <trkpt lat="59.8532468" lon="17.7344716">
        <ele>16.4797</ele>
        <time>2013-04-27T13:05:05Z</time>
      </trkpt>
      <trkpt lat="59.8531678" lon="17.7345663">
        <ele>16.9604</ele>
        <time>2013-04-27T13:05:06Z</time>
      </trkpt>
      <trkpt lat="59.8530881" lon="17.7346617">
        <ele>16.9604</ele>
        <time>2013-04-27T13:05:07Z</time>
      </trkpt>
      <trkpt lat="59.8530066" lon="17.7347562">
        <ele>16.9604</ele>
        <time>2013-04-27T13:05:08Z</time>
      </trkpt>
      <trkpt lat="59.852926" lon="17.7348493">
        <ele>17.4412</ele>
        <time>2013-04-27T13:05:09Z</time>
      </trkpt>
      <trkpt lat="59.8528476" lon="17.7349396">
        <ele>17.4412</ele>
        <time>2013-04-27T13:05:10Z</time>
      </trkpt>
      <trkpt lat="59.8527694" lon="17.7350284">
        <ele>17.4412</ele>
        <time>2013-04-27T13:05:11Z</time>
      </trkpt>
      <trkpt lat="59.8526922" lon="17.735117">
        <ele>17.4412</ele>
        <time>2013-04-27T13:05:12Z</time>
      </trkpt>
      <trkpt lat="59.8526158" lon="17.7352056">
        <ele>17.4412</ele>
        <time>2013-04-27T13:05:13Z</time>
      </trkpt>
      <trkpt lat="59.8525401" lon="17.7352932">
        <ele>16.9604</ele>
        <time>2013-04-27T13:05:14Z</time>
      </trkpt>
      <trkpt lat="59.852465" lon="17.7353801">
        <ele>16.9604</ele>
        <time>2013-04-27T13:05:15Z</time>
      </trkpt>
      <trkpt lat="59.8523913" lon="17.7354661">
        <ele>16.9604</ele>
        <time>2013-04-27T13:05:16Z</time>
      </trkpt>
      <trkpt lat="59.8523188" lon="17.7355507">
        <ele>16.9604</ele>
        <time>2013-04-27T13:05:17Z</time>
      </trkpt>
      <trkpt lat="59.8522474" lon="17.735634">
        <ele>16.9604</ele>
        <time>2013-04-27T13:05:18Z</time>
      </trkpt>
      <trkpt lat="59.8521776" lon="17.7357168">
        <ele>16.9604</ele>
        <time>2013-04-27T13:05:19Z</time>
      </trkpt>
      <trkpt lat="59.8521101" lon="17.7358013">
        <ele>16.9604</ele>
        <time>2013-04-27T13:05:20Z</time>
      </trkpt>
      <trkpt lat="59.8520455" lon="17.7358905">
        <ele>16.9604</ele>
        <time>2013-04-27T13:05:21Z</time>
      </trkpt>
      <trkpt lat="59.8519843" lon="17.7359852">
        <ele>16.9604</ele>
        <time>2013-04-27T13:05:22Z</time>
      </trkpt>
      <trkpt lat="59.8519256" lon="17.7360811">
        <ele>16.9604</ele>
        <time>2013-04-27T13:05:23Z</time>
      </trkpt>
      <trkpt lat="59.8518692" lon="17.7361784">
        <ele>17.4412</ele>
        <time>2013-04-27T13:05:24Z</time>
      </trkpt>
      <trkpt lat="59.8518128" lon="17.7362731">
        <ele>17.4412</ele>
        <time>2013-04-27T13:05:25Z</time>
      </trkpt>
      <trkpt lat="59.8517569" lon="17.7363653">
        <ele>17.4412</ele>
        <time>2013-04-27T13:05:26Z</time>
      </trkpt>
      <trkpt lat="59.8517019" lon="17.7364561">
        <ele>17.4412</ele>
        <time>2013-04-27T13:05:27Z</time>
      </trkpt>
      <trkpt lat="59.8516465" lon="17.736542">
        <ele>17.4412</ele>
        <time>2013-04-27T13:05:28Z</time>
      </trkpt>
      <trkpt lat="59.8515904" lon="17.7366217">
        <ele>17.4412</ele>
        <time>2013-04-27T13:05:29Z</time>
      </trkpt>
      <trkpt lat="59.851534" lon="17.7366967">
        <ele>17.4412</ele>
        <time>2013-04-27T13:05:30Z</time>
      </trkpt>
      <trkpt lat="59.8514764" lon="17.7367658">
        <ele>17.4412</ele>
        <time>2013-04-27T13:05:31Z</time>
      </trkpt>
      <trkpt lat="59.8514161" lon="17.7368311">
        <ele>17.4412</ele>
        <time>2013-04-27T13:05:32Z</time>
      </trkpt>
      <trkpt lat="59.8513528" lon="17.7368943">
        <ele>17.4412</ele>
        <time>2013-04-27T13:05:33Z</time>
      </trkpt>
      <trkpt lat="59.8512864" lon="17.7369547">
        <ele>16.9604</ele>
        <time>2013-04-27T13:05:34Z</time>
      </trkpt>
      <trkpt lat="59.8512176" lon="17.7370145">
        <ele>16.9604</ele>
        <time>2013-04-27T13:05:35Z</time>
      </trkpt>
      <trkpt lat="59.8511475" lon="17.737076">
        <ele>16.9604</ele>
        <time>2013-04-27T13:05:36Z</time>
      </trkpt>
      <trkpt lat="59.851077" lon="17.7371383">
        <ele>16.9604</ele>
        <time>2013-04-27T13:05:37Z</time>
      </trkpt>
      <trkpt lat="59.8510068" lon="17.7371984">
        <ele>16.9604</ele>
        <time>2013-04-27T13:05:38Z</time>
      </trkpt>
      <trkpt lat="59.8509364" lon="17.7372547">
        <ele>16.9604</ele>
        <time>2013-04-27T13:05:39Z</time>
      </trkpt>
      <trkpt lat="59.8508652" lon="17.7373082">
        <ele>16.4797</ele>
        <time>2013-04-27T13:05:40Z</time>
      </trkpt>
      <trkpt lat="59.8507923" lon="17.737362">
        <ele>16.4797</ele>
        <time>2013-04-27T13:05:41Z</time>
      </trkpt>
      <trkpt lat="59.8507172" lon="17.7374152">
        <ele>16.4797</ele>
        <time>2013-04-27T13:05:42Z</time>
      </trkpt>
      <trkpt lat="59.850642" lon="17.7374686">
        <ele>16.4797</ele>
        <time>2013-04-27T13:05:43Z</time>
      </trkpt>
      <trkpt lat="59.8505674" lon="17.7375211">
        <ele>16.4797</ele>
        <time>2013-04-27T13:05:44Z</time>
      </trkpt>
      <trkpt lat="59.8504933" lon="17.7375711">
        <ele>16.4797</ele>
        <time>2013-04-27T13:05:45Z</time>
      </trkpt>
      <trkpt lat="59.8504202" lon="17.7376185">
        <ele>16.4797</ele>
        <time>2013-04-27T13:05:46Z</time>
      </trkpt>
      <trkpt lat="59.8503479" lon="17.7376635">
        <ele>16.4797</ele>
        <time>2013-04-27T13:05:47Z</time>
      </trkpt>
      <trkpt lat="59.8502769" lon="17.7377054">
        <ele>16.4797</ele>
        <time>2013-04-27T13:05:48Z</time>
      </trkpt>
      <trkpt lat="59.8502064" lon="17.7377433">
        <ele>16.4797</ele>
        <time>2013-04-27T13:05:49Z</time>
      </trkpt>
      <trkpt lat="59.8501366" lon="17.7377783">
        <ele>16.4797</ele>
        <time>2013-04-27T13:05:50Z</time>
      </trkpt>
      <trkpt lat="59.8500679" lon="17.7378108">
        <ele>16.9604</ele>
        <time>2013-04-27T13:05:51Z</time>
      </trkpt>
      <trkpt lat="59.8499997" lon="17.7378398">
        <ele>16.9604</ele>
        <time>2013-04-27T13:05:52Z</time>
      </trkpt>
      <trkpt lat="59.8499325" lon="17.7378665">
        <ele>16.9604</ele>
        <time>2013-04-27T13:05:53Z</time>
      </trkpt>
      <trkpt lat="59.8498664" lon="17.7378947">
        <ele>16.9604</ele>
        <time>2013-04-27T13:05:54Z</time>
      </trkpt>
      <trkpt lat="59.8498001" lon="17.7379241">
        <ele>16.9604</ele>
        <time>2013-04-27T13:05:55Z</time>
      </trkpt>
      <trkpt lat="59.8497338" lon="17.7379515">
        <ele>16.9604</ele>
        <time>2013-04-27T13:05:56Z</time>
      </trkpt>
      <trkpt lat="59.8496677" lon="17.7379764">
        <ele>16.9604</ele>
        <time>2013-04-27T13:05:57Z</time>
      </trkpt>
      <trkpt lat="59.849602" lon="17.7380035">
        <ele>16.9604</ele>
        <time>2013-04-27T13:05:58Z</time>
      </trkpt>
      <trkpt lat="59.849538" lon="17.7380332">
        <ele>16.9604</ele>
        <time>2013-04-27T13:05:59Z</time>
      </trkpt>
      <trkpt lat="59.8494748" lon="17.7380614">
        <ele>17.4412</ele>
        <time>2013-04-27T13:06:00Z</time>
      </trkpt>
      <trkpt lat="59.8494118" lon="17.7380877">
        <ele>17.4412</ele>
        <time>2013-04-27T13:06:01Z</time>
      </trkpt>
      <trkpt lat="59.8493484" lon="17.7381121">
        <ele>17.4412</ele>
        <time>2013-04-27T13:06:02Z</time>
      </trkpt>
      <trkpt lat="59.8492847" lon="17.7381371">
        <ele>17.4412</ele>
        <time>2013-04-27T13:06:03Z</time>
      </trkpt>
      <trkpt lat="59.8492206" lon="17.7381654">
        <ele>17.4412</ele>
        <time>2013-04-27T13:06:04Z</time>
      </trkpt>
      <trkpt lat="59.8491558" lon="17.7381965">
        <ele>17.4412</ele>
        <time>2013-04-27T13:06:05Z</time>
      </trkpt>
      <trkpt lat="59.8490902" lon="17.7382287">
        <ele>17.4412</ele>
        <time>2013-04-27T13:06:06Z</time>
      </trkpt>
      <trkpt lat="59.8490258" lon="17.7382613">
        <ele>17.4412</ele>
        <time>2013-04-27T13:06:07Z</time>
      </trkpt>
      <trkpt lat="59.8489622" lon="17.7382925">
        <ele>17.4412</ele>
        <time>2013-04-27T13:06:08Z</time>
      </trkpt>
      <trkpt lat="59.8488986" lon="17.7383228">
        <ele>17.4412</ele>
        <time>2013-04-27T13:06:09Z</time>
      </trkpt>
      <trkpt lat="59.8488346" lon="17.738354">
        <ele>17.4412</ele>
        <time>2013-04-27T13:06:10Z</time>
      </trkpt>
      <trkpt lat="59.8487694" lon="17.7383863">
        <ele>17.4412</ele>
        <time>2013-04-27T13:06:11Z</time>
      </trkpt>
      <trkpt lat="59.8487043" lon="17.7384199">
        <ele>17.4412</ele>
        <time>2013-04-27T13:06:12Z</time>
      </trkpt>
      <trkpt lat="59.8486391" lon="17.7384539">
        <ele>17.4412</ele>
        <time>2013-04-27T13:06:13Z</time>
      </trkpt>
      <trkpt lat="59.8485737" lon="17.7384872">
        <ele>17.4412</ele>
        <time>2013-04-27T13:06:14Z</time>
      </trkpt>
      <trkpt lat="59.848509" lon="17.7385192">
        <ele>17.4412</ele>
        <time>2013-04-27T13:06:15Z</time>
      </trkpt>
      <trkpt lat="59.8484447" lon="17.7385505">
        <ele>17.4412</ele>
        <time>2013-04-27T13:06:16Z</time>
      </trkpt>
      <trkpt lat="59.848381" lon="17.7385834">
        <ele>17.4412</ele>
        <time>2013-04-27T13:06:17Z</time>
      </trkpt>
      <trkpt lat="59.8483186" lon="17.7386167">
        <ele>17.4412</ele>
        <time>2013-04-27T13:06:18Z</time>
      </trkpt>
      <trkpt lat="59.8482562" lon="17.7386484">
        <ele>17.9218</ele>
        <time>2013-04-27T13:06:19Z</time>
      </trkpt>
      <trkpt lat="59.848194" lon="17.7386779">
        <ele>17.9218</ele>
        <time>2013-04-27T13:06:20Z</time>
      </trkpt>
      <trkpt lat="59.8481332" lon="17.7387071">
        <ele>17.9218</ele>
        <time>2013-04-27T13:06:21Z</time>
      </trkpt>
      <trkpt lat="59.8480744" lon="17.7387335">
        <ele>17.9218</ele>
        <time>2013-04-27T13:06:22Z</time>
      </trkpt>
      <trkpt lat="59.848018" lon="17.7387591">
        <ele>17.9218</ele>
        <time>2013-04-27T13:06:23Z</time>
      </trkpt>
      <trkpt lat="59.847964" lon="17.7387855">
        <ele>17.9218</ele>
        <time>2013-04-27T13:06:24Z</time>
      </trkpt>
      <trkpt lat="59.8479142" lon="17.7388202">
        <ele>18.4023</ele>
        <time>2013-04-27T13:06:25Z</time>
      </trkpt>
      <trkpt lat="59.8478744" lon="17.7388818">
        <ele>18.4023</ele>
        <time>2013-04-27T13:06:26Z</time>
      </trkpt>
      <trkpt lat="59.8478504" lon="17.7389673">
        <ele>18.4023</ele>
        <time>2013-04-27T13:06:27Z</time>
      </trkpt>
      <trkpt lat="59.8478395" lon="17.7390637">
        <ele>18.8831</ele>
        <time>2013-04-27T13:06:28Z</time>
      </trkpt>
      <trkpt lat="59.8478384" lon="17.7391645">
        <ele>19.3638</ele>
        <time>2013-04-27T13:06:29Z</time>
      </trkpt>
      <trkpt lat="59.8478428" lon="17.7392686">
        <ele>19.3638</ele>
        <time>2013-04-27T13:06:30Z</time>
      </trkpt>
      <trkpt lat="59.8478459" lon="17.7393777">
        <ele>19.8444</ele>
        <time>2013-04-27T13:06:31Z</time>
      </trkpt>
      <trkpt lat="59.8478462" lon="17.7394916">
        <ele>19.8444</ele>
        <time>2013-04-27T13:06:32Z</time>
      </trkpt>
      <trkpt lat="59.8478448" lon="17.7396084">
        <ele>20.325</ele>
        <time>2013-04-27T13:06:33Z</time>
      </trkpt>
      <trkpt lat="59.8478427" lon="17.7397288">
        <ele>20.325</ele>
        <time>2013-04-27T13:06:34Z</time>
      </trkpt>
      <trkpt lat="59.8478407" lon="17.7398519">
        <ele>20.8057</ele>
        <time>2013-04-27T13:06:35Z</time>
      </trkpt>
      <trkpt lat="59.8478391" lon="17.7399759">
        <ele>20.8057</ele>
        <time>2013-04-27T13:06:36Z</time>
      </trkpt>
      <trkpt lat="59.8478381" lon="17.7401032">
        <ele>20.8057</ele>
        <time>2013-04-27T13:06:37Z</time>
      </trkpt>
      <trkpt lat="59.8478391" lon="17.740233">
        <ele>21.2864</ele>
        <time>2013-04-27T13:06:38Z</time>
      </trkpt>
      <trkpt lat="59.8478402" lon="17.7403649">
        <ele>21.2864</ele>
        <time>2013-04-27T13:06:39Z</time>
      </trkpt>
      <trkpt lat="59.847839" lon="17.7404982">
        <ele>21.767</ele>
        <time>2013-04-27T13:06:40Z</time>
      </trkpt>
      <trkpt lat="59.8478372" lon="17.7406326">
        <ele>21.767</ele>
        <time>2013-04-27T13:06:41Z</time>
      </trkpt>
      <trkpt lat="59.8478356" lon="17.7407659">
        <ele>21.767</ele>
        <time>2013-04-27T13:06:42Z</time>
      </trkpt>
      <trkpt lat="59.847834" lon="17.7408979">
        <ele>22.2476</ele>
        <time>2013-04-27T13:06:43Z</time>
      </trkpt>
      <trkpt lat="59.847833" lon="17.7410305">
        <ele>22.2476</ele>
        <time>2013-04-27T13:06:44Z</time>
      </trkpt>
      <trkpt lat="59.8478322" lon="17.7411663">
        <ele>22.2476</ele>
        <time>2013-04-27T13:06:45Z</time>
      </trkpt>
      <trkpt lat="59.8478309" lon="17.7413041">
        <ele>22.7283</ele>
        <time>2013-04-27T13:06:46Z</time>
      </trkpt>
      <trkpt lat="59.8478293" lon="17.7414419">
        <ele>22.7283</ele>
        <time>2013-04-27T13:06:47Z</time>
      </trkpt>
      <trkpt lat="59.8478273" lon="17.7415785">
        <ele>23.209</ele>
        <time>2013-04-27T13:06:48Z</time>
      </trkpt>
      <trkpt lat="59.8478263" lon="17.741715">
        <ele>23.6896</ele>
        <time>2013-04-27T13:06:49Z</time>
      </trkpt>
      <trkpt lat="59.8478253" lon="17.7418533">
        <ele>23.6896</ele>
        <time>2013-04-27T13:06:50Z</time>
      </trkpt>
      <trkpt lat="59.8478237" lon="17.7419924">
        <ele>24.1703</ele>
        <time>2013-04-27T13:06:51Z</time>
      </trkpt>
      <trkpt lat="59.8478226" lon="17.7421314">
        <ele>24.1703</ele>
        <time>2013-04-27T13:06:52Z</time>
      </trkpt>
      <trkpt lat="59.8478214" lon="17.7422705">
        <ele>24.651</ele>
        <time>2013-04-27T13:06:53Z</time>
      </trkpt>
      <trkpt lat="59.84782" lon="17.7424106">
        <ele>24.651</ele>
        <time>2013-04-27T13:06:54Z</time>
      </trkpt>
      <trkpt lat="59.847818" lon="17.7425516">
        <ele>24.651</ele>
        <time>2013-04-27T13:06:55Z</time>
      </trkpt>
      <trkpt lat="59.8478165" lon="17.7426918">
        <ele>25.1317</ele>
        <time>2013-04-27T13:06:56Z</time>
      </trkpt>
      <trkpt lat="59.8478153" lon="17.7428308">
        <ele>25.1317</ele>
        <time>2013-04-27T13:06:57Z</time>
      </trkpt>
      <trkpt lat="59.8478132" lon="17.7429704">
        <ele>25.6123</ele>
        <time>2013-04-27T13:06:58Z</time>
      </trkpt>
      <trkpt lat="59.8478116" lon="17.7431109">
        <ele>25.6123</ele>
        <time>2013-04-27T13:06:59Z</time>
      </trkpt>
      <trkpt lat="59.8478095" lon="17.7432526">
        <ele>25.6123</ele>
        <time>2013-04-27T13:07:00Z</time>
      </trkpt>
      <trkpt lat="59.8478065" lon="17.7433943">
        <ele>26.0929</ele>
        <time>2013-04-27T13:07:01Z</time>
      </trkpt>
      <trkpt lat="59.8478056" lon="17.7435347">
        <ele>26.0929</ele>
        <time>2013-04-27T13:07:02Z</time>
      </trkpt>
      <trkpt lat="59.8478056" lon="17.7436722">
        <ele>26.0929</ele>
        <time>2013-04-27T13:07:03Z</time>
      </trkpt>
      <trkpt lat="59.8478042" lon="17.7438081">
        <ele>26.5736</ele>
        <time>2013-04-27T13:07:04Z</time>
      </trkpt>
      <trkpt lat="59.8478014" lon="17.7439447">
        <ele>26.5736</ele>
        <time>2013-04-27T13:07:05Z</time>
      </trkpt>
      <trkpt lat="59.847799" lon="17.7440822">
        <ele>26.5736</ele>
        <time>2013-04-27T13:07:06Z</time>
      </trkpt>
      <trkpt lat="59.847797" lon="17.7442211">
        <ele>26.5736</ele>
        <time>2013-04-27T13:07:07Z</time>
      </trkpt>
      <trkpt lat="59.8477951" lon="17.7443609">
        <ele>26.5736</ele>
        <time>2013-04-27T13:07:08Z</time>
      </trkpt>
      <trkpt lat="59.8477934" lon="17.7444976">
        <ele>26.5736</ele>
        <time>2013-04-27T13:07:09Z</time>
      </trkpt>
      <trkpt lat="59.8477911" lon="17.744634">
        <ele>26.5736</ele>
        <time>2013-04-27T13:07:10Z</time>
      </trkpt>
      <trkpt lat="59.8477879" lon="17.7447717">
        <ele>26.5736</ele>
        <time>2013-04-27T13:07:11Z</time>
      </trkpt>
      <trkpt lat="59.8477856" lon="17.7449098">
        <ele>26.5736</ele>
        <time>2013-04-27T13:07:12Z</time>
      </trkpt>
      <trkpt lat="59.8477842" lon="17.7450498">
        <ele>26.5736</ele>
        <time>2013-04-27T13:07:13Z</time>
      </trkpt>
      <trkpt lat="59.8477826" lon="17.7451913">
        <ele>26.5736</ele>
        <time>2013-04-27T13:07:14Z</time>
      </trkpt>
      <trkpt lat="59.8477806" lon="17.7453335">
        <ele>26.5736</ele>
        <time>2013-04-27T13:07:15Z</time>
      </trkpt>
      <trkpt lat="59.8477797" lon="17.7454734">
        <ele>26.5736</ele>
        <time>2013-04-27T13:07:16Z</time>
      </trkpt>
      <trkpt lat="59.8477796" lon="17.7456104">
        <ele>26.5736</ele>
        <time>2013-04-27T13:07:17Z</time>
      </trkpt>
      <trkpt lat="59.8477773" lon="17.745744">
        <ele>26.5736</ele>
        <time>2013-04-27T13:07:18Z</time>
      </trkpt>
      <trkpt lat="59.8477738" lon="17.7458735">
        <ele>26.5736</ele>
        <time>2013-04-27T13:07:19Z</time>
      </trkpt>
      <trkpt lat="59.8477716" lon="17.7460023">
        <ele>26.5736</ele>
        <time>2013-04-27T13:07:20Z</time>
      </trkpt>
      <trkpt lat="59.8477702" lon="17.7461309">
        <ele>26.5736</ele>
        <time>2013-04-27T13:07:21Z</time>
      </trkpt>
      <trkpt lat="59.8477687" lon="17.7462592">
        <ele>27.0543</ele>
        <time>2013-04-27T13:07:22Z</time>
      </trkpt>
      <trkpt lat="59.8477669" lon="17.7463873">
        <ele>27.0543</ele>
        <time>2013-04-27T13:07:23Z</time>
      </trkpt>
      <trkpt lat="59.847765" lon="17.7465158">
        <ele>27.0543</ele>
        <time>2013-04-27T13:07:24Z</time>
      </trkpt>
      <trkpt lat="59.8477633" lon="17.7466432">
        <ele>27.5349</ele>
        <time>2013-04-27T13:07:25Z</time>
      </trkpt>
      <trkpt lat="59.8477615" lon="17.74677">
        <ele>27.5349</ele>
        <time>2013-04-27T13:07:26Z</time>
      </trkpt>
      <trkpt lat="59.8477599" lon="17.7468958">
        <ele>27.5349</ele>
        <time>2013-04-27T13:07:27Z</time>
      </trkpt>
      <trkpt lat="59.8477589" lon="17.7470198">
        <ele>27.5349</ele>
        <time>2013-04-27T13:07:28Z</time>
      </trkpt>
      <trkpt lat="59.8477594" lon="17.7471411">
        <ele>28.0155</ele>
        <time>2013-04-27T13:07:29Z</time>
      </trkpt>
      <trkpt lat="59.8477603" lon="17.7472607">
        <ele>28.0155</ele>
        <time>2013-04-27T13:07:30Z</time>
      </trkpt>
      <trkpt lat="59.8477593" lon="17.7473797">
        <ele>28.0155</ele>
        <time>2013-04-27T13:07:31Z</time>
      </trkpt>
      <trkpt lat="59.8477579" lon="17.7474979">
        <ele>28.4962</ele>
        <time>2013-04-27T13:07:32Z</time>
      </trkpt>
      <trkpt lat="59.8477576" lon="17.747615">
        <ele>28.4962</ele>
        <time>2013-04-27T13:07:33Z</time>
      </trkpt>
      <trkpt lat="59.8477567" lon="17.747732">
        <ele>28.4962</ele>
        <time>2013-04-27T13:07:34Z</time>
      </trkpt>
      <trkpt lat="59.8477552" lon="17.7478488">
        <ele>28.9769</ele>
        <time>2013-04-27T13:07:35Z</time>
      </trkpt>
      <trkpt lat="59.8477556" lon="17.7479671">
        <ele>28.9769</ele>
        <time>2013-04-27T13:07:36Z</time>
      </trkpt>
      <trkpt lat="59.8477568" lon="17.7480869">
        <ele>29.4575</ele>
        <time>2013-04-27T13:07:37Z</time>
      </trkpt>
      <trkpt lat="59.8477573" lon="17.7482071">
        <ele>29.4575</ele>
        <time>2013-04-27T13:07:38Z</time>
      </trkpt>
      <trkpt lat="59.8477583" lon="17.7483273">
        <ele>29.4575</ele>
        <time>2013-04-27T13:07:39Z</time>
      </trkpt>
      <trkpt lat="59.8477612" lon="17.7484494">
        <ele>29.9381</ele>
        <time>2013-04-27T13:07:40Z</time>
      </trkpt>
      <trkpt lat="59.8477647" lon="17.7485717">
        <ele>29.9381</ele>
        <time>2013-04-27T13:07:41Z</time>
      </trkpt>
      <trkpt lat="59.847769" lon="17.7486919">
        <ele>29.9381</ele>
        <time>2013-04-27T13:07:42Z</time>
      </trkpt>
      <trkpt lat="59.8477737" lon="17.7488115">
        <ele>30.4188</ele>
        <time>2013-04-27T13:07:43Z</time>
      </trkpt>
      <trkpt lat="59.8477775" lon="17.7489292">
        <ele>30.4188</ele>
        <time>2013-04-27T13:07:44Z</time>
      </trkpt>
      <trkpt lat="59.8477804" lon="17.7490437">
        <ele>30.4188</ele>
        <time>2013-04-27T13:07:45Z</time>
      </trkpt>
      <trkpt lat="59.8477848" lon="17.7491581">
        <ele>30.8995</ele>
        <time>2013-04-27T13:07:46Z</time>
      </trkpt>
      <trkpt lat="59.8477892" lon="17.7492738">
        <ele>30.8995</ele>
        <time>2013-04-27T13:07:47Z</time>
      </trkpt>
      <trkpt lat="59.8477939" lon="17.7493891">
        <ele>30.8995</ele>
        <time>2013-04-27T13:07:48Z</time>
      </trkpt>
      <trkpt lat="59.8478003" lon="17.7495037">
        <ele>30.8995</ele>
        <time>2013-04-27T13:07:49Z</time>
      </trkpt>
      <trkpt lat="59.8478066" lon="17.7496193">
        <ele>31.3801</ele>
        <time>2013-04-27T13:07:50Z</time>
      </trkpt>
      <trkpt lat="59.8478131" lon="17.7497353">
        <ele>31.3801</ele>
        <time>2013-04-27T13:07:51Z</time>
      </trkpt>
      <trkpt lat="59.8478198" lon="17.7498516">
        <ele>31.3801</ele>
        <time>2013-04-27T13:07:52Z</time>
      </trkpt>
      <trkpt lat="59.8478283" lon="17.7499686">
        <ele>31.8607</ele>
        <time>2013-04-27T13:07:53Z</time>
      </trkpt>
      <trkpt lat="59.8478336" lon="17.7500883">
        <ele>31.3801</ele>
        <time>2013-04-27T13:07:54Z</time>
      </trkpt>
      <trkpt lat="59.8478393" lon="17.7502086">
        <ele>30.8995</ele>
        <time>2013-04-27T13:07:55Z</time>
      </trkpt>
      <trkpt lat="59.8478451" lon="17.7503292">
        <ele>30.4188</ele>
        <time>2013-04-27T13:07:56Z</time>
      </trkpt>
      <trkpt lat="59.8478555" lon="17.7504481">
        <ele>30.4188</ele>
        <time>2013-04-27T13:07:57Z</time>
      </trkpt>
      <trkpt lat="59.8478628" lon="17.7505695">
        <ele>30.4188</ele>
        <time>2013-04-27T13:07:58Z</time>
      </trkpt>
      <trkpt lat="59.8478706" lon="17.7506915">
        <ele>29.9381</ele>
        <time>2013-04-27T13:07:59Z</time>
      </trkpt>
      <trkpt lat="59.8478759" lon="17.750814">
        <ele>29.4575</ele>
        <time>2013-04-27T13:08:00Z</time>
      </trkpt>
      <trkpt lat="59.8478828" lon="17.7509349">
        <ele>28.4962</ele>
        <time>2013-04-27T13:08:01Z</time>
      </trkpt>
      <trkpt lat="59.8478916" lon="17.7510552">
        <ele>28.0155</ele>
        <time>2013-04-27T13:08:02Z</time>
      </trkpt>
      <trkpt lat="59.8479026" lon="17.7511766">
        <ele>27.5349</ele>
        <time>2013-04-27T13:08:03Z</time>
      </trkpt>
      <trkpt lat="59.8479128" lon="17.7513008">
        <ele>27.5349</ele>
        <time>2013-04-27T13:08:04Z</time>
      </trkpt>
      <trkpt lat="59.8479245" lon="17.7514289">
        <ele>27.0543</ele>
        <time>2013-04-27T13:08:05Z</time>
      </trkpt>
      <trkpt lat="59.8479379" lon="17.7515597">
        <ele>26.5736</ele>
        <time>2013-04-27T13:08:06Z</time>
      </trkpt>
      <trkpt lat="59.8479537" lon="17.7516926">
        <ele>26.5736</ele>
        <time>2013-04-27T13:08:07Z</time>
      </trkpt>
      <trkpt lat="59.8479722" lon="17.7518281">
        <ele>26.0929</ele>
        <time>2013-04-27T13:08:08Z</time>
      </trkpt>
      <trkpt lat="59.8479899" lon="17.7519638">
        <ele>25.6123</ele>
        <time>2013-04-27T13:08:09Z</time>
      </trkpt>
      <trkpt lat="59.8480126" lon="17.752099">
        <ele>26.0929</ele>
        <time>2013-04-27T13:08:10Z</time>
      </trkpt>
      <trkpt lat="59.8480365" lon="17.7522341">
        <ele>25.6123</ele>
        <time>2013-04-27T13:08:11Z</time>
      </trkpt>
      <trkpt lat="59.8480593" lon="17.7523693">
        <ele>25.6123</ele>
        <time>2013-04-27T13:08:12Z</time>
      </trkpt>
      <trkpt lat="59.8480816" lon="17.7525036">
        <ele>25.6123</ele>
        <time>2013-04-27T13:08:13Z</time>
      </trkpt>
      <trkpt lat="59.8481048" lon="17.7526378">
        <ele>25.6123</ele>
        <time>2013-04-27T13:08:14Z</time>
      </trkpt>
      <trkpt lat="59.8481265" lon="17.7527724">
        <ele>25.6123</ele>
        <time>2013-04-27T13:08:15Z</time>
      </trkpt>
      <trkpt lat="59.8481485" lon="17.7529095">
        <ele>25.1317</ele>
        <time>2013-04-27T13:08:16Z</time>
      </trkpt>
      <trkpt lat="59.8481686" lon="17.7530501">
        <ele>25.1317</ele>
        <time>2013-04-27T13:08:17Z</time>
      </trkpt>
      <trkpt lat="59.8481867" lon="17.7531934">
        <ele>24.651</ele>
        <time>2013-04-27T13:08:18Z</time>
      </trkpt>
      <trkpt lat="59.8482049" lon="17.7533363">
        <ele>24.1703</ele>
        <time>2013-04-27T13:08:19Z</time>
      </trkpt>
      <trkpt lat="59.8482229" lon="17.7534792">
        <ele>24.1703</ele>
        <time>2013-04-27T13:08:20Z</time>
      </trkpt>
      <trkpt lat="59.8482402" lon="17.7536239">
        <ele>23.6896</ele>
        <time>2013-04-27T13:08:21Z</time>
      </trkpt>
      <trkpt lat="59.8482588" lon="17.7537691">
        <ele>23.6896</ele>
        <time>2013-04-27T13:08:22Z</time>
      </trkpt>
      <trkpt lat="59.8482774" lon="17.7539165">
        <ele>23.6896</ele>
        <time>2013-04-27T13:08:23Z</time>
      </trkpt>
      <trkpt lat="59.8482981" lon="17.7540643">
        <ele>23.209</ele>
        <time>2013-04-27T13:08:24Z</time>
      </trkpt>
      <trkpt lat="59.8483178" lon="17.7542129">
        <ele>23.209</ele>
        <time>2013-04-27T13:08:25Z</time>
      </trkpt>
      <trkpt lat="59.8483371" lon="17.7543615">
        <ele>23.209</ele>
        <time>2013-04-27T13:08:26Z</time>
      </trkpt>
      <trkpt lat="59.8483561" lon="17.7545097">
        <ele>23.209</ele>
        <time>2013-04-27T13:08:27Z</time>
      </trkpt>
      <trkpt lat="59.8483751" lon="17.7546579">
        <ele>23.209</ele>
        <time>2013-04-27T13:08:28Z</time>
      </trkpt>
      <trkpt lat="59.848394" lon="17.7548059">
        <ele>23.209</ele>
        <time>2013-04-27T13:08:29Z</time>
      </trkpt>
      <trkpt lat="59.8484125" lon="17.7549552">
        <ele>23.209</ele>
        <time>2013-04-27T13:08:30Z</time>
      </trkpt>
      <trkpt lat="59.8484297" lon="17.7551049">
        <ele>23.209</ele>
        <time>2013-04-27T13:08:31Z</time>
      </trkpt>
      <trkpt lat="59.848446" lon="17.7552532">
        <ele>23.209</ele>
        <time>2013-04-27T13:08:32Z</time>
      </trkpt>
      <trkpt lat="59.8484613" lon="17.7554001">
        <ele>23.209</ele>
        <time>2013-04-27T13:08:33Z</time>
      </trkpt>
      <trkpt lat="59.8484757" lon="17.7555457">
        <ele>23.209</ele>
        <time>2013-04-27T13:08:34Z</time>
      </trkpt>
      <trkpt lat="59.8484882" lon="17.7556913">
        <ele>22.7283</ele>
        <time>2013-04-27T13:08:35Z</time>
      </trkpt>
      <trkpt lat="59.8485001" lon="17.7558377">
        <ele>22.7283</ele>
        <time>2013-04-27T13:08:36Z</time>
      </trkpt>
      <trkpt lat="59.8485093" lon="17.7559857">
        <ele>22.7283</ele>
        <time>2013-04-27T13:08:37Z</time>
      </trkpt>
      <trkpt lat="59.8485172" lon="17.7561342">
        <ele>22.2476</ele>
        <time>2013-04-27T13:08:38Z</time>
      </trkpt>
      <trkpt lat="59.8485245" lon="17.7562812">
        <ele>22.2476</ele>
        <time>2013-04-27T13:08:39Z</time>
      </trkpt>
      <trkpt lat="59.848531" lon="17.7564262">
        <ele>22.2476</ele>
        <time>2013-04-27T13:08:40Z</time>
      </trkpt>
      <trkpt lat="59.8485363" lon="17.7565709">
        <ele>22.2476</ele>
        <time>2013-04-27T13:08:41Z</time>
      </trkpt>
      <trkpt lat="59.8485417" lon="17.7567158">
        <ele>21.767</ele>
        <time>2013-04-27T13:08:42Z</time>
      </trkpt>
      <trkpt lat="59.8485466" lon="17.7568608">
        <ele>21.767</ele>
        <time>2013-04-27T13:08:43Z</time>
      </trkpt>
      <trkpt lat="59.8485499" lon="17.7570059">
        <ele>21.767</ele>
        <time>2013-04-27T13:08:44Z</time>
      </trkpt>
      <trkpt lat="59.8485519" lon="17.7571506">
        <ele>21.767</ele>
        <time>2013-04-27T13:08:45Z</time>
      </trkpt>
      <trkpt lat="59.8485525" lon="17.7572946">
        <ele>21.767</ele>
        <time>2013-04-27T13:08:46Z</time>
      </trkpt>
      <trkpt lat="59.8485518" lon="17.7574359">
        <ele>21.767</ele>
        <time>2013-04-27T13:08:47Z</time>
      </trkpt>
      <trkpt lat="59.8485499" lon="17.7575748">
        <ele>21.767</ele>
        <time>2013-04-27T13:08:48Z</time>
      </trkpt>
      <trkpt lat="59.8485469" lon="17.7577145">
        <ele>21.767</ele>
        <time>2013-04-27T13:08:49Z</time>
      </trkpt>
      <trkpt lat="59.848543" lon="17.7578561">
        <ele>21.767</ele>
        <time>2013-04-27T13:08:50Z</time>
      </trkpt>
      <trkpt lat="59.8485395" lon="17.7579992">
        <ele>21.767</ele>
        <time>2013-04-27T13:08:51Z</time>
      </trkpt>
      <trkpt lat="59.8485358" lon="17.7581415">
        <ele>21.767</ele>
        <time>2013-04-27T13:08:52Z</time>
      </trkpt>
      <trkpt lat="59.8485327" lon="17.7582837">
        <ele>21.2864</ele>
        <time>2013-04-27T13:08:53Z</time>
      </trkpt>
      <trkpt lat="59.8485294" lon="17.7584259">
        <ele>21.2864</ele>
        <time>2013-04-27T13:08:54Z</time>
      </trkpt>
      <trkpt lat="59.8485258" lon="17.7585668">
        <ele>21.2864</ele>
        <time>2013-04-27T13:08:55Z</time>
      </trkpt>
      <trkpt lat="59.848522" lon="17.7587066">
        <ele>21.2864</ele>
        <time>2013-04-27T13:08:56Z</time>
      </trkpt>
      <trkpt lat="59.8485178" lon="17.7588464">
        <ele>20.8057</ele>
        <time>2013-04-27T13:08:57Z</time>
      </trkpt>
      <trkpt lat="59.8485146" lon="17.7589872">
        <ele>20.8057</ele>
        <time>2013-04-27T13:08:58Z</time>
      </trkpt>
      <trkpt lat="59.8485116" lon="17.7591295">
        <ele>20.8057</ele>
        <time>2013-04-27T13:08:59Z</time>
      </trkpt>
      <trkpt lat="59.8485084" lon="17.7592719">
        <ele>20.8057</ele>
        <time>2013-04-27T13:09:00Z</time>
      </trkpt>
      <trkpt lat="59.8485044" lon="17.7594125">
        <ele>20.8057</ele>
        <time>2013-04-27T13:09:01Z</time>
      </trkpt>
      <trkpt lat="59.8485" lon="17.7595515">
        <ele>20.8057</ele>
        <time>2013-04-27T13:09:02Z</time>
      </trkpt>
      <trkpt lat="59.8484959" lon="17.7596903">
        <ele>20.8057</ele>
        <time>2013-04-27T13:09:03Z</time>
      </trkpt>
      <trkpt lat="59.8484928" lon="17.7598285">
        <ele>20.8057</ele>
        <time>2013-04-27T13:09:04Z</time>
      </trkpt>
      <trkpt lat="59.8484898" lon="17.7599663">
        <ele>20.8057</ele>
        <time>2013-04-27T13:09:05Z</time>
      </trkpt>
      <trkpt lat="59.8484871" lon="17.7601058">
        <ele>20.8057</ele>
        <time>2013-04-27T13:09:06Z</time>
      </trkpt>
      <trkpt lat="59.848484" lon="17.7602467">
        <ele>20.8057</ele>
        <time>2013-04-27T13:09:07Z</time>
      </trkpt>
      <trkpt lat="59.8484799" lon="17.7603865">
        <ele>20.8057</ele>
        <time>2013-04-27T13:09:08Z</time>
      </trkpt>
      <trkpt lat="59.8484762" lon="17.760525">
        <ele>20.325</ele>
        <time>2013-04-27T13:09:09Z</time>
      </trkpt>
      <trkpt lat="59.8484722" lon="17.7606642">
        <ele>20.325</ele>
        <time>2013-04-27T13:09:10Z</time>
      </trkpt>
      <trkpt lat="59.8484679" lon="17.760804">
        <ele>20.325</ele>
        <time>2013-04-27T13:09:11Z</time>
      </trkpt>
      <trkpt lat="59.8484638" lon="17.7609428">
        <ele>20.325</ele>
        <time>2013-04-27T13:09:12Z</time>
      </trkpt>
      <trkpt lat="59.8484596" lon="17.7610798">
        <ele>19.8444</ele>
        <time>2013-04-27T13:09:13Z</time>
      </trkpt>
      <trkpt lat="59.8484556" lon="17.7612183">
        <ele>19.8444</ele>
        <time>2013-04-27T13:09:14Z</time>
      </trkpt>
      <trkpt lat="59.8484526" lon="17.7613573">
        <ele>19.8444</ele>
        <time>2013-04-27T13:09:15Z</time>
      </trkpt>
      <trkpt lat="59.8484493" lon="17.7614957">
        <ele>19.8444</ele>
        <time>2013-04-27T13:09:16Z</time>
      </trkpt>
      <trkpt lat="59.8484453" lon="17.7616348">
        <ele>19.3638</ele>
        <time>2013-04-27T13:09:17Z</time>
      </trkpt>
      <trkpt lat="59.8484414" lon="17.7617736">
        <ele>19.3638</ele>
        <time>2013-04-27T13:09:18Z</time>
      </trkpt>
      <trkpt lat="59.8484369" lon="17.7619106">
        <ele>19.3638</ele>
        <time>2013-04-27T13:09:19Z</time>
      </trkpt>
      <trkpt lat="59.8484323" lon="17.7620476">
        <ele>19.3638</ele>
        <time>2013-04-27T13:09:20Z</time>
      </trkpt>
      <trkpt lat="59.8484287" lon="17.762184">
        <ele>19.3638</ele>
        <time>2013-04-27T13:09:21Z</time>
      </trkpt>
      <trkpt lat="59.848426" lon="17.7623206">
        <ele>19.3638</ele>
        <time>2013-04-27T13:09:22Z</time>
      </trkpt>
      <trkpt lat="59.8484232" lon="17.7624602">
        <ele>19.3638</ele>
        <time>2013-04-27T13:09:23Z</time>
      </trkpt>
      <trkpt lat="59.8484193" lon="17.7626015">
        <ele>19.3638</ele>
        <time>2013-04-27T13:09:24Z</time>
      </trkpt>
      <trkpt lat="59.8484136" lon="17.7627414">
        <ele>19.3638</ele>
        <time>2013-04-27T13:09:25Z</time>
      </trkpt>
      <trkpt lat="59.8483996" lon="17.7628767">
        <ele>19.3638</ele>
        <time>2013-04-27T13:09:26Z</time>
      </trkpt>
      <trkpt lat="59.8483722" lon="17.7630025">
        <ele>18.8831</ele>
        <time>2013-04-27T13:09:27Z</time>
      </trkpt>
      <trkpt lat="59.8483319" lon="17.7631123">
        <ele>18.8831</ele>
        <time>2013-04-27T13:09:28Z</time>
      </trkpt>
      <trkpt lat="59.8482845" lon="17.7632098">
        <ele>18.4023</ele>
        <time>2013-04-27T13:09:29Z</time>
      </trkpt>
      <trkpt lat="59.8482334" lon="17.7633009">
        <ele>18.4023</ele>
        <time>2013-04-27T13:09:30Z</time>
      </trkpt>
      <trkpt lat="59.8481815" lon="17.7633931">
        <ele>17.9218</ele>
        <time>2013-04-27T13:09:31Z</time>
      </trkpt>
      <trkpt lat="59.8481293" lon="17.7634915">
        <ele>17.9218</ele>
        <time>2013-04-27T13:09:32Z</time>
      </trkpt>
      <trkpt lat="59.8480774" lon="17.763595">
        <ele>17.4412</ele>
        <time>2013-04-27T13:09:33Z</time>
      </trkpt>
      <trkpt lat="59.8480256" lon="17.7636997">
        <ele>17.4412</ele>
        <time>2013-04-27T13:09:34Z</time>
      </trkpt>
      <trkpt lat="59.8479738" lon="17.7638049">
        <ele>16.9604</ele>
        <time>2013-04-27T13:09:35Z</time>
      </trkpt>
      <trkpt lat="59.8479219" lon="17.7639099">
        <ele>16.9604</ele>
        <time>2013-04-27T13:09:36Z</time>
      </trkpt>
      <trkpt lat="59.8478691" lon="17.7640151">
        <ele>16.4797</ele>
        <time>2013-04-27T13:09:37Z</time>
      </trkpt>
      <trkpt lat="59.8478163" lon="17.7641231">
        <ele>15.999</ele>
        <time>2013-04-27T13:09:38Z</time>
      </trkpt>
      <trkpt lat="59.8477661" lon="17.7642364">
        <ele>15.999</ele>
        <time>2013-04-27T13:09:39Z</time>
      </trkpt>
      <trkpt lat="59.8477174" lon="17.7643503">
        <ele>15.999</ele>
        <time>2013-04-27T13:09:40Z</time>
      </trkpt>
      <trkpt lat="59.8476672" lon="17.7644591">
        <ele>15.5184</ele>
        <time>2013-04-27T13:09:41Z</time>
      </trkpt>
      <trkpt lat="59.8476169" lon="17.7645648">
        <ele>15.5184</ele>
        <time>2013-04-27T13:09:42Z</time>
      </trkpt>
      <trkpt lat="59.8475682" lon="17.7646675">
        <ele>15.0377</ele>
        <time>2013-04-27T13:09:43Z</time>
      </trkpt>
      <trkpt lat="59.8475199" lon="17.7647632">
        <ele>15.0377</ele>
        <time>2013-04-27T13:09:44Z</time>
      </trkpt>
      <trkpt lat="59.8474722" lon="17.7648542">
        <ele>14.557</ele>
        <time>2013-04-27T13:09:45Z</time>
      </trkpt>
      <trkpt lat="59.8474263" lon="17.7649465">
        <ele>14.557</ele>
        <time>2013-04-27T13:09:46Z</time>
      </trkpt>
      <trkpt lat="59.8473812" lon="17.7650397">
        <ele>14.557</ele>
        <time>2013-04-27T13:09:47Z</time>
      </trkpt>
      <trkpt lat="59.8473362" lon="17.7651324">
        <ele>14.0764</ele>
        <time>2013-04-27T13:09:48Z</time>
      </trkpt>
      <trkpt lat="59.847295" lon="17.7652305">
        <ele>14.0764</ele>
        <time>2013-04-27T13:09:49Z</time>
      </trkpt>
      <trkpt lat="59.8472632" lon="17.7653398">
        <ele>14.0764</ele>
        <time>2013-04-27T13:09:50Z</time>
      </trkpt>
      <trkpt lat="59.847248" lon="17.7654616">
        <ele>14.0764</ele>
        <time>2013-04-27T13:09:51Z</time>
      </trkpt>
      <trkpt lat="59.8472527" lon="17.7655848">
        <ele>14.0764</ele>
        <time>2013-04-27T13:09:52Z</time>
      </trkpt>
      <trkpt lat="59.8472686" lon="17.7657035">
        <ele>14.0764</ele>
        <time>2013-04-27T13:09:53Z</time>
      </trkpt>
      <trkpt lat="59.8472859" lon="17.7658187">
        <ele>14.0764</ele>
        <time>2013-04-27T13:09:54Z</time>
      </trkpt>
      <trkpt lat="59.8473033" lon="17.7659306">
        <ele>14.0764</ele>
        <time>2013-04-27T13:09:55Z</time>
      </trkpt>
      <trkpt lat="59.8473211" lon="17.7660402">
        <ele>14.557</ele>
        <time>2013-04-27T13:09:56Z</time>
      </trkpt>
      <trkpt lat="59.8473389" lon="17.7661503">
        <ele>14.557</ele>
        <time>2013-04-27T13:09:57Z</time>
      </trkpt>
      <trkpt lat="59.8473574" lon="17.7662629">
        <ele>14.557</ele>
        <time>2013-04-27T13:09:58Z</time>
      </trkpt>
      <trkpt lat="59.847377" lon="17.7663788">
        <ele>15.0377</ele>
        <time>2013-04-27T13:09:59Z</time>
      </trkpt>
      <trkpt lat="59.8473964" lon="17.7664954">
        <ele>15.0377</ele>
        <time>2013-04-27T13:10:00Z</time>
      </trkpt>
      <trkpt lat="59.847415" lon="17.7666125">
        <ele>15.0377</ele>
        <time>2013-04-27T13:10:01Z</time>
      </trkpt>
      <trkpt lat="59.8474342" lon="17.7667317">
        <ele>15.5184</ele>
        <time>2013-04-27T13:10:02Z</time>
      </trkpt>
      <trkpt lat="59.8474542" lon="17.766853">
        <ele>15.5184</ele>
        <time>2013-04-27T13:10:03Z</time>
      </trkpt>
      <trkpt lat="59.8474748" lon="17.7669763">
        <ele>15.5184</ele>
        <time>2013-04-27T13:10:04Z</time>
      </trkpt>
      <trkpt lat="59.847496" lon="17.7671005">
        <ele>15.5184</ele>
        <time>2013-04-27T13:10:05Z</time>
      </trkpt>
      <trkpt lat="59.8475173" lon="17.7672253">
        <ele>15.5184</ele>
        <time>2013-04-27T13:10:06Z</time>
      </trkpt>
      <trkpt lat="59.8475387" lon="17.7673506">
        <ele>15.5184</ele>
        <time>2013-04-27T13:10:07Z</time>
      </trkpt>
      <trkpt lat="59.8475599" lon="17.7674749">
        <ele>15.999</ele>
        <time>2013-04-27T13:10:08Z</time>
      </trkpt>
      <trkpt lat="59.8475815" lon="17.7675993">
        <ele>15.999</ele>
        <time>2013-04-27T13:10:09Z</time>
      </trkpt>
      <trkpt lat="59.8476034" lon="17.767724">
        <ele>15.999</ele>
        <time>2013-04-27T13:10:10Z</time>
      </trkpt>
      <trkpt lat="59.8476253" lon="17.7678493">
        <ele>15.999</ele>
        <time>2013-04-27T13:10:11Z</time>
      </trkpt>
      <trkpt lat="59.8476462" lon="17.7679753">
        <ele>15.999</ele>
        <time>2013-04-27T13:10:12Z</time>
      </trkpt>
      <trkpt lat="59.8476676" lon="17.7681009">
        <ele>15.999</ele>
        <time>2013-04-27T13:10:13Z</time>
      </trkpt>
      <trkpt lat="59.847689" lon="17.7682262">
        <ele>16.4797</ele>
        <time>2013-04-27T13:10:14Z</time>
      </trkpt>
      <trkpt lat="59.847709" lon="17.768351">
        <ele>16.4797</ele>
        <time>2013-04-27T13:10:15Z</time>
      </trkpt>
      <trkpt lat="59.8477289" lon="17.7684748">
        <ele>16.4797</ele>
        <time>2013-04-27T13:10:16Z</time>
      </trkpt>
      <trkpt lat="59.8477494" lon="17.768598">
        <ele>16.4797</ele>
        <time>2013-04-27T13:10:17Z</time>
      </trkpt>
      <trkpt lat="59.8477692" lon="17.7687214">
        <ele>16.4797</ele>
        <time>2013-04-27T13:10:18Z</time>
      </trkpt>
      <trkpt lat="59.8477884" lon="17.7688468">
        <ele>16.4797</ele>
        <time>2013-04-27T13:10:19Z</time>
      </trkpt>
      <trkpt lat="59.8478075" lon="17.7689734">
        <ele>16.4797</ele>
        <time>2013-04-27T13:10:20Z</time>
      </trkpt>
      <trkpt lat="59.8478261" lon="17.769099">
        <ele>16.9604</ele>
        <time>2013-04-27T13:10:21Z</time>
      </trkpt>
      <trkpt lat="59.8478443" lon="17.7692253">
        <ele>16.9604</ele>
        <time>2013-04-27T13:10:22Z</time>
      </trkpt>
      <trkpt lat="59.8478634" lon="17.7693541">
        <ele>16.9604</ele>
        <time>2013-04-27T13:10:23Z</time>
      </trkpt>
      <trkpt lat="59.8478827" lon="17.7694818">
        <ele>16.9604</ele>
        <time>2013-04-27T13:10:24Z</time>
      </trkpt>
      <trkpt lat="59.8479042" lon="17.7696028">
        <ele>17.4412</ele>
        <time>2013-04-27T13:10:25Z</time>
      </trkpt>
      <trkpt lat="59.8479298" lon="17.7697191">
        <ele>17.4412</ele>
        <time>2013-04-27T13:10:26Z</time>
      </trkpt>
      <trkpt lat="59.8479598" lon="17.7698333">
        <ele>17.4412</ele>
        <time>2013-04-27T13:10:27Z</time>
      </trkpt>
      <trkpt lat="59.8479925" lon="17.7699433">
        <ele>17.4412</ele>
        <time>2013-04-27T13:10:28Z</time>
      </trkpt>
      <trkpt lat="59.8480249" lon="17.7700495">
        <ele>17.4412</ele>
        <time>2013-04-27T13:10:29Z</time>
      </trkpt>
      <trkpt lat="59.8480614" lon="17.7701517">
        <ele>17.4412</ele>
        <time>2013-04-27T13:10:30Z</time>
      </trkpt>
      <trkpt lat="59.8480938" lon="17.7702548">
        <ele>17.9218</ele>
        <time>2013-04-27T13:10:31Z</time>
      </trkpt>
      <trkpt lat="59.8481182" lon="17.7703632">
        <ele>17.9218</ele>
        <time>2013-04-27T13:10:32Z</time>
      </trkpt>
      <trkpt lat="59.8481352" lon="17.7704789">
        <ele>17.9218</ele>
        <time>2013-04-27T13:10:33Z</time>
      </trkpt>
      <trkpt lat="59.8481489" lon="17.7705996">
        <ele>17.9218</ele>
        <time>2013-04-27T13:10:34Z</time>
      </trkpt>
      <trkpt lat="59.8481578" lon="17.7707248">
        <ele>17.9218</ele>
        <time>2013-04-27T13:10:35Z</time>
      </trkpt>
      <trkpt lat="59.8481634" lon="17.7708519">
        <ele>17.9218</ele>
        <time>2013-04-27T13:10:36Z</time>
      </trkpt>
      <trkpt lat="59.8481707" lon="17.7709794">
        <ele>17.9218</ele>
        <time>2013-04-27T13:10:37Z</time>
      </trkpt>
      <trkpt lat="59.8481832" lon="17.7711067">
        <ele>17.9218</ele>
        <time>2013-04-27T13:10:38Z</time>
      </trkpt>
      <trkpt lat="59.8482023" lon="17.7712326">
        <ele>17.9218</ele>
        <time>2013-04-27T13:10:39Z</time>
      </trkpt>
      <trkpt lat="59.8482243" lon="17.771359">
        <ele>17.9218</ele>
        <time>2013-04-27T13:10:40Z</time>
      </trkpt>
      <trkpt lat="59.8482458" lon="17.771487">
        <ele>18.4023</ele>
        <time>2013-04-27T13:10:41Z</time>
      </trkpt>
      <trkpt lat="59.8482678" lon="17.7716134">
        <ele>18.4023</ele>
        <time>2013-04-27T13:10:42Z</time>
      </trkpt>
      <trkpt lat="59.8482896" lon="17.7717356">
        <ele>18.4023</ele>
        <time>2013-04-27T13:10:43Z</time>
      </trkpt>
      <trkpt lat="59.8483112" lon="17.7718542">
        <ele>18.4023</ele>
        <time>2013-04-27T13:10:44Z</time>
      </trkpt>
      <trkpt lat="59.8483314" lon="17.7719717">
        <ele>18.4023</ele>
        <time>2013-04-27T13:10:45Z</time>
      </trkpt>
      <trkpt lat="59.8483509" lon="17.772088">
        <ele>18.8831</ele>
        <time>2013-04-27T13:10:46Z</time>
      </trkpt>
      <trkpt lat="59.8483715" lon="17.7722029">
        <ele>18.8831</ele>
        <time>2013-04-27T13:10:47Z</time>
      </trkpt>
      <trkpt lat="59.8483934" lon="17.7723218">
        <ele>18.8831</ele>
        <time>2013-04-27T13:10:48Z</time>
      </trkpt>
      <trkpt lat="59.8484158" lon="17.7724478">
        <ele>18.8831</ele>
        <time>2013-04-27T13:10:49Z</time>
      </trkpt>
      <trkpt lat="59.8484374" lon="17.7725795">
        <ele>19.3638</ele>
        <time>2013-04-27T13:10:50Z</time>
      </trkpt>
      <trkpt lat="59.8484572" lon="17.7727167">
        <ele>19.8444</ele>
        <time>2013-04-27T13:10:51Z</time>
      </trkpt>
      <trkpt lat="59.8484758" lon="17.772857">
        <ele>20.325</ele>
        <time>2013-04-27T13:10:52Z</time>
      </trkpt>
      <trkpt lat="59.8484929" lon="17.772995">
        <ele>20.8057</ele>
        <time>2013-04-27T13:10:53Z</time>
      </trkpt>
      <trkpt lat="59.8485058" lon="17.7731348">
        <ele>21.2864</ele>
        <time>2013-04-27T13:10:54Z</time>
      </trkpt>
      <trkpt lat="59.8485181" lon="17.7732734">
        <ele>21.2864</ele>
        <time>2013-04-27T13:10:55Z</time>
      </trkpt>
      <trkpt lat="59.8485302" lon="17.7734122">
        <ele>21.767</ele>
        <time>2013-04-27T13:10:56Z</time>
      </trkpt>
      <trkpt lat="59.848543" lon="17.7735524">
        <ele>21.767</ele>
        <time>2013-04-27T13:10:57Z</time>
      </trkpt>
      <trkpt lat="59.8485566" lon="17.7736912">
        <ele>22.2476</ele>
        <time>2013-04-27T13:10:58Z</time>
      </trkpt>
      <trkpt lat="59.8485716" lon="17.773829">
        <ele>22.2476</ele>
        <time>2013-04-27T13:10:59Z</time>
      </trkpt>
      <trkpt lat="59.848588" lon="17.7739672">
        <ele>22.7283</ele>
        <time>2013-04-27T13:11:00Z</time>
      </trkpt>
      <trkpt lat="59.8486043" lon="17.7741059">
        <ele>23.209</ele>
        <time>2013-04-27T13:11:01Z</time>
      </trkpt>
      <trkpt lat="59.8486203" lon="17.7742454">
        <ele>23.209</ele>
        <time>2013-04-27T13:11:02Z</time>
      </trkpt>
      <trkpt lat="59.8486358" lon="17.7743843">
        <ele>23.6896</ele>
        <time>2013-04-27T13:11:03Z</time>
      </trkpt>
      <trkpt lat="59.8486514" lon="17.7745229">
        <ele>24.1703</ele>
        <time>2013-04-27T13:11:04Z</time>
      </trkpt>
      <trkpt lat="59.8486643" lon="17.7746615">
        <ele>24.1703</ele>
        <time>2013-04-27T13:11:05Z</time>
      </trkpt>
      <trkpt lat="59.8486792" lon="17.7747987">
        <ele>24.651</ele>
        <time>2013-04-27T13:11:06Z</time>
      </trkpt>
      <trkpt lat="59.8486929" lon="17.7749345">
        <ele>25.1317</ele>
        <time>2013-04-27T13:11:07Z</time>
      </trkpt>
      <trkpt lat="59.8487058" lon="17.7750697">
        <ele>25.1317</ele>
        <time>2013-04-27T13:11:08Z</time>
      </trkpt>
      <trkpt lat="59.8487186" lon="17.7752017">
        <ele>25.6123</ele>
        <time>2013-04-27T13:11:09Z</time>
      </trkpt>
      <trkpt lat="59.8487313" lon="17.775328">
        <ele>25.6123</ele>
        <time>2013-04-27T13:11:10Z</time>
      </trkpt>
      <trkpt lat="59.8487435" lon="17.7754508">
        <ele>25.6123</ele>
        <time>2013-04-27T13:11:11Z</time>
      </trkpt>
      <trkpt lat="59.8487537" lon="17.7755744">
        <ele>25.6123</ele>
        <time>2013-04-27T13:11:12Z</time>
      </trkpt>
      <trkpt lat="59.8487625" lon="17.7756958">
        <ele>25.6123</ele>
        <time>2013-04-27T13:11:13Z</time>
      </trkpt>
      <trkpt lat="59.8487705" lon="17.7758165">
        <ele>26.0929</ele>
        <time>2013-04-27T13:11:14Z</time>
      </trkpt>
      <trkpt lat="59.8487783" lon="17.7759352">
        <ele>27.0543</ele>
        <time>2013-04-27T13:11:15Z</time>
      </trkpt>
      <trkpt lat="59.8487856" lon="17.776051">
        <ele>27.5349</ele>
        <time>2013-04-27T13:11:16Z</time>
      </trkpt>
      <trkpt lat="59.8487938" lon="17.7761634">
        <ele>28.0155</ele>
        <time>2013-04-27T13:11:17Z</time>
      </trkpt>
      <trkpt lat="59.8488016" lon="17.7762744">
        <ele>28.4962</ele>
        <time>2013-04-27T13:11:18Z</time>
      </trkpt>
      <trkpt lat="59.8488083" lon="17.7763801">
        <ele>29.4575</ele>
        <time>2013-04-27T13:11:19Z</time>
      </trkpt>
      <trkpt lat="59.8488072" lon="17.7764743">
        <ele>30.4188</ele>
        <time>2013-04-27T13:11:20Z</time>
      </trkpt>
      <trkpt lat="59.8488082" lon="17.7765698">
        <ele>31.3801</ele>
        <time>2013-04-27T13:11:21Z</time>
      </trkpt>
      <trkpt lat="59.8488144" lon="17.7766666">
        <ele>32.3416</ele>
        <time>2013-04-27T13:11:22Z</time>
      </trkpt>
      <trkpt lat="59.8488224" lon="17.7767598">
        <ele>33.3029</ele>
        <time>2013-04-27T13:11:23Z</time>
      </trkpt>
      <trkpt lat="59.8488276" lon="17.7768743">
        <ele>33.3029</ele>
        <time>2013-04-27T13:11:24Z</time>
      </trkpt>
      <trkpt lat="59.8488321" lon="17.7770028">
        <ele>33.7834</ele>
        <time>2013-04-27T13:11:25Z</time>
      </trkpt>
      <trkpt lat="59.8488383" lon="17.7771262">
        <ele>33.7834</ele>
        <time>2013-04-27T13:11:26Z</time>
      </trkpt>
      <trkpt lat="59.848846" lon="17.7772461">
        <ele>33.7834</ele>
        <time>2013-04-27T13:11:27Z</time>
      </trkpt>
      <trkpt lat="59.8488554" lon="17.7773632">
        <ele>33.7834</ele>
        <time>2013-04-27T13:11:28Z</time>
      </trkpt>
      <trkpt lat="59.8488648" lon="17.7774787">
        <ele>33.7834</ele>
        <time>2013-04-27T13:11:29Z</time>
      </trkpt>
      <trkpt lat="59.8488746" lon="17.7775863">
        <ele>34.2642</ele>
        <time>2013-04-27T13:11:30Z</time>
      </trkpt>
      <trkpt lat="59.8488817" lon="17.7777036">
        <ele>34.2642</ele>
        <time>2013-04-27T13:11:31Z</time>
      </trkpt>
      <trkpt lat="59.8488876" lon="17.7778201">
        <ele>34.2642</ele>
        <time>2013-04-27T13:11:32Z</time>
      </trkpt>
      <trkpt lat="59.8488905" lon="17.7779409">
        <ele>33.3029</ele>
        <time>2013-04-27T13:11:33Z</time>
      </trkpt>
      <trkpt lat="59.8488905" lon="17.7780593">
        <ele>33.7834</ele>
        <time>2013-04-27T13:11:34Z</time>
      </trkpt>
      <trkpt lat="59.8488886" lon="17.7781693">
        <ele>34.2642</ele>
        <time>2013-04-27T13:11:35Z</time>
      </trkpt>
      <trkpt lat="59.8488903" lon="17.7782748">
        <ele>34.7449</ele>
        <time>2013-04-27T13:11:36Z</time>
      </trkpt>
      <trkpt lat="59.8488983" lon="17.7783765">
        <ele>34.7449</ele>
        <time>2013-04-27T13:11:37Z</time>
      </trkpt>
      <trkpt lat="59.8489061" lon="17.7784875">
        <ele>34.7449</ele>
        <time>2013-04-27T13:11:38Z</time>
      </trkpt>
      <trkpt lat="59.8489131" lon="17.7786084">
        <ele>34.7449</ele>
        <time>2013-04-27T13:11:39Z</time>
      </trkpt>
      <trkpt lat="59.8489224" lon="17.7787272">
        <ele>34.7449</ele>
        <time>2013-04-27T13:11:40Z</time>
      </trkpt>
      <trkpt lat="59.8489304" lon="17.7788536">
        <ele>34.2642</ele>
        <time>2013-04-27T13:11:41Z</time>
      </trkpt>
      <trkpt lat="59.8489367" lon="17.7789826">
        <ele>34.2642</ele>
        <time>2013-04-27T13:11:42Z</time>
      </trkpt>
      <trkpt lat="59.8489434" lon="17.7791078">
        <ele>33.7834</ele>
        <time>2013-04-27T13:11:43Z</time>
      </trkpt>
      <trkpt lat="59.8489529" lon="17.7792266">
        <ele>33.7834</ele>
        <time>2013-04-27T13:11:44Z</time>
      </trkpt>
      <trkpt lat="59.8489611" lon="17.7793514">
        <ele>33.3029</ele>
        <time>2013-04-27T13:11:45Z</time>
      </trkpt>
      <trkpt lat="59.8489708" lon="17.7794764">
        <ele>32.8223</ele>
        <time>2013-04-27T13:11:46Z</time>
      </trkpt>
      <trkpt lat="59.848984" lon="17.779597">
        <ele>32.8223</ele>
        <time>2013-04-27T13:11:47Z</time>
      </trkpt>
      <trkpt lat="59.8490021" lon="17.7797166">
        <ele>32.3416</ele>
        <time>2013-04-27T13:11:48Z</time>
      </trkpt>
      <trkpt lat="59.8490263" lon="17.7798291">
        <ele>32.3416</ele>
        <time>2013-04-27T13:11:49Z</time>
      </trkpt>
      <trkpt lat="59.8490528" lon="17.7799407">
        <ele>31.8607</ele>
        <time>2013-04-27T13:11:50Z</time>
      </trkpt>
      <trkpt lat="59.8490761" lon="17.7800579">
        <ele>31.3801</ele>
        <time>2013-04-27T13:11:51Z</time>
      </trkpt>
      <trkpt lat="59.8490948" lon="17.7801793">
        <ele>31.3801</ele>
        <time>2013-04-27T13:11:52Z</time>
      </trkpt>
      <trkpt lat="59.8491113" lon="17.780302">
        <ele>30.8995</ele>
        <time>2013-04-27T13:11:53Z</time>
      </trkpt>
      <trkpt lat="59.8491269" lon="17.7804222">
        <ele>30.8995</ele>
        <time>2013-04-27T13:11:54Z</time>
      </trkpt>
      <trkpt lat="59.8491426" lon="17.7805398">
        <ele>30.4188</ele>
        <time>2013-04-27T13:11:55Z</time>
      </trkpt>
      <trkpt lat="59.8491578" lon="17.7806573">
        <ele>29.9381</ele>
        <time>2013-04-27T13:11:56Z</time>
      </trkpt>
      <trkpt lat="59.8491744" lon="17.7807734">
        <ele>29.9381</ele>
        <time>2013-04-27T13:11:57Z</time>
      </trkpt>
      <trkpt lat="59.8491917" lon="17.7808867">
        <ele>29.4575</ele>
        <time>2013-04-27T13:11:58Z</time>
      </trkpt>
      <trkpt lat="59.8492107" lon="17.7809977">
        <ele>29.4575</ele>
        <time>2013-04-27T13:11:59Z</time>
      </trkpt>
      <trkpt lat="59.8492309" lon="17.7811088">
        <ele>28.9769</ele>
        <time>2013-04-27T13:12:00Z</time>
      </trkpt>
      <trkpt lat="59.8492511" lon="17.7812203">
        <ele>28.9769</ele>
        <time>2013-04-27T13:12:01Z</time>
      </trkpt>
      <trkpt lat="59.8492718" lon="17.7813329">
        <ele>28.9769</ele>
        <time>2013-04-27T13:12:02Z</time>
      </trkpt>
      <trkpt lat="59.8492949" lon="17.7814451">
        <ele>28.9769</ele>
        <time>2013-04-27T13:12:03Z</time>
      </trkpt>
      <trkpt lat="59.8493196" lon="17.781558">
        <ele>28.4962</ele>
        <time>2013-04-27T13:12:04Z</time>
      </trkpt>
      <trkpt lat="59.8493444" lon="17.7816735">
        <ele>28.4962</ele>
        <time>2013-04-27T13:12:05Z</time>
      </trkpt>
      <trkpt lat="59.8493699" lon="17.7817902">
        <ele>28.4962</ele>
        <time>2013-04-27T13:12:06Z</time>
      </trkpt>
      <trkpt lat="59.8493958" lon="17.7819077">
        <ele>28.4962</ele>
        <time>2013-04-27T13:12:07Z</time>
      </trkpt>
      <trkpt lat="59.8494199" lon="17.7820281">
        <ele>28.4962</ele>
        <time>2013-04-27T13:12:08Z</time>
      </trkpt>
      <trkpt lat="59.8494445" lon="17.7821485">
        <ele>28.4962</ele>
        <time>2013-04-27T13:12:09Z</time>
      </trkpt>
      <trkpt lat="59.8494697" lon="17.7822673">
        <ele>28.4962</ele>
        <time>2013-04-27T13:12:10Z</time>
      </trkpt>
      <trkpt lat="59.8494941" lon="17.7823852">
        <ele>28.4962</ele>
        <time>2013-04-27T13:12:11Z</time>
      </trkpt>
      <trkpt lat="59.8495175" lon="17.7825009">
        <ele>28.9769</ele>
        <time>2013-04-27T13:12:12Z</time>
      </trkpt>
      <trkpt lat="59.8495393" lon="17.7826154">
        <ele>28.9769</ele>
        <time>2013-04-27T13:12:13Z</time>
      </trkpt>
      <trkpt lat="59.8495616" lon="17.7827283">
        <ele>28.9769</ele>
        <time>2013-04-27T13:12:14Z</time>
      </trkpt>
      <trkpt lat="59.8495848" lon="17.7828403">
        <ele>28.9769</ele>
        <time>2013-04-27T13:12:15Z</time>
      </trkpt>
      <trkpt lat="59.8496091" lon="17.7829512">
        <ele>28.9769</ele>
        <time>2013-04-27T13:12:16Z</time>
      </trkpt>
      <trkpt lat="59.8496342" lon="17.7830605">
        <ele>28.9769</ele>
        <time>2013-04-27T13:12:17Z</time>
      </trkpt>
      <trkpt lat="59.8496582" lon="17.7831716">
        <ele>28.9769</ele>
        <time>2013-04-27T13:12:18Z</time>
      </trkpt>
      <trkpt lat="59.8496817" lon="17.7832851">
        <ele>28.9769</ele>
        <time>2013-04-27T13:12:19Z</time>
      </trkpt>
      <trkpt lat="59.8497074" lon="17.7833986">
        <ele>28.9769</ele>
        <time>2013-04-27T13:12:20Z</time>
      </trkpt>
      <trkpt lat="59.849734" lon="17.7835141">
        <ele>28.9769</ele>
        <time>2013-04-27T13:12:21Z</time>
      </trkpt>
      <trkpt lat="59.8497608" lon="17.7836322">
        <ele>28.9769</ele>
        <time>2013-04-27T13:12:22Z</time>
      </trkpt>
      <trkpt lat="59.8497869" lon="17.7837524">
        <ele>28.9769</ele>
        <time>2013-04-27T13:12:23Z</time>
      </trkpt>
      <trkpt lat="59.8498091" lon="17.7838762">
        <ele>28.9769</ele>
        <time>2013-04-27T13:12:24Z</time>
      </trkpt>
      <trkpt lat="59.8498289" lon="17.7840026">
        <ele>29.4575</ele>
        <time>2013-04-27T13:12:25Z</time>
      </trkpt>
      <trkpt lat="59.849848" lon="17.7841264">
        <ele>29.4575</ele>
        <time>2013-04-27T13:12:26Z</time>
      </trkpt>
      <trkpt lat="59.849869" lon="17.7842461">
        <ele>29.4575</ele>
        <time>2013-04-27T13:12:27Z</time>
      </trkpt>
      <trkpt lat="59.8498931" lon="17.7843643">
        <ele>29.9381</ele>
        <time>2013-04-27T13:12:28Z</time>
      </trkpt>
      <trkpt lat="59.84992" lon="17.7844837">
        <ele>29.9381</ele>
        <time>2013-04-27T13:12:29Z</time>
      </trkpt>
      <trkpt lat="59.8499506" lon="17.7846038">
        <ele>29.9381</ele>
        <time>2013-04-27T13:12:30Z</time>
      </trkpt>
      <trkpt lat="59.8499841" lon="17.784724">
        <ele>29.9381</ele>
        <time>2013-04-27T13:12:31Z</time>
      </trkpt>
      <trkpt lat="59.8500192" lon="17.7848453">
        <ele>30.4188</ele>
        <time>2013-04-27T13:12:32Z</time>
      </trkpt>
      <trkpt lat="59.8500546" lon="17.7849687">
        <ele>30.4188</ele>
        <time>2013-04-27T13:12:33Z</time>
      </trkpt>
      <trkpt lat="59.850091" lon="17.7850926">
        <ele>30.8995</ele>
        <time>2013-04-27T13:12:34Z</time>
      </trkpt>
      <trkpt lat="59.8501262" lon="17.785219">
        <ele>30.4188</ele>
        <time>2013-04-27T13:12:35Z</time>
      </trkpt>
      <trkpt lat="59.850163" lon="17.7853407">
        <ele>30.4188</ele>
        <time>2013-04-27T13:12:36Z</time>
      </trkpt>
      <trkpt lat="59.8502032" lon="17.785457">
        <ele>30.4188</ele>
        <time>2013-04-27T13:12:37Z</time>
      </trkpt>
      <trkpt lat="59.8502467" lon="17.7855665">
        <ele>30.8995</ele>
        <time>2013-04-27T13:12:38Z</time>
      </trkpt>
      <trkpt lat="59.85029" lon="17.7856731">
        <ele>30.8995</ele>
        <time>2013-04-27T13:12:39Z</time>
      </trkpt>
      <trkpt lat="59.8503334" lon="17.7857761">
        <ele>31.3801</ele>
        <time>2013-04-27T13:12:40Z</time>
      </trkpt>
      <trkpt lat="59.8503743" lon="17.7858802">
        <ele>31.3801</ele>
        <time>2013-04-27T13:12:41Z</time>
      </trkpt>
      <trkpt lat="59.8504138" lon="17.785985">
        <ele>31.8607</ele>
        <time>2013-04-27T13:12:42Z</time>
      </trkpt>
      <trkpt lat="59.8504538" lon="17.7860864">
        <ele>32.3416</ele>
        <time>2013-04-27T13:12:43Z</time>
      </trkpt>
      <trkpt lat="59.8504927" lon="17.7861895">
        <ele>32.3416</ele>
        <time>2013-04-27T13:12:44Z</time>
      </trkpt>
      <trkpt lat="59.8505328" lon="17.7862916">
        <ele>32.8223</ele>
        <time>2013-04-27T13:12:45Z</time>
      </trkpt>
      <trkpt lat="59.8505737" lon="17.7864008">
        <ele>32.8223</ele>
        <time>2013-04-27T13:12:46Z</time>
      </trkpt>
      <trkpt lat="59.8506152" lon="17.7865127">
        <ele>32.8223</ele>
        <time>2013-04-27T13:12:47Z</time>
      </trkpt>
      <trkpt lat="59.8506574" lon="17.7866212">
        <ele>32.8223</ele>
        <time>2013-04-27T13:12:48Z</time>
      </trkpt>
      <trkpt lat="59.8506984" lon="17.7867237">
        <ele>33.3029</ele>
        <time>2013-04-27T13:12:49Z</time>
      </trkpt>
      <trkpt lat="59.8507367" lon="17.7868219">
        <ele>33.3029</ele>
        <time>2013-04-27T13:12:50Z</time>
      </trkpt>
      <trkpt lat="59.8507746" lon="17.7869127">
        <ele>33.7834</ele>
        <time>2013-04-27T13:12:51Z</time>
      </trkpt>
      <trkpt lat="59.8508114" lon="17.787002">
        <ele>33.7834</ele>
        <time>2013-04-27T13:12:52Z</time>
      </trkpt>
      <trkpt lat="59.8508472" lon="17.78709">
        <ele>34.2642</ele>
        <time>2013-04-27T13:12:53Z</time>
      </trkpt>
      <trkpt lat="59.8508825" lon="17.7871776">
        <ele>34.2642</ele>
        <time>2013-04-27T13:12:54Z</time>
      </trkpt>
      <trkpt lat="59.8509172" lon="17.7872662">
        <ele>34.7449</ele>
        <time>2013-04-27T13:12:55Z</time>
      </trkpt>
      <trkpt lat="59.8509523" lon="17.7873546">
        <ele>34.7449</ele>
        <time>2013-04-27T13:12:56Z</time>
      </trkpt>
      <trkpt lat="59.8509887" lon="17.7874408">
        <ele>34.7449</ele>
        <time>2013-04-27T13:12:57Z</time>
      </trkpt>
      <trkpt lat="59.8510262" lon="17.7875276">
        <ele>35.2255</ele>
        <time>2013-04-27T13:12:58Z</time>
      </trkpt>
      <trkpt lat="59.8510638" lon="17.7876152">
        <ele>35.2255</ele>
        <time>2013-04-27T13:12:59Z</time>
      </trkpt>
      <trkpt lat="59.8511021" lon="17.7877012">
        <ele>35.2255</ele>
        <time>2013-04-27T13:13:00Z</time>
      </trkpt>
      <trkpt lat="59.8511413" lon="17.7877852">
        <ele>35.7061</ele>
        <time>2013-04-27T13:13:01Z</time>
      </trkpt>
      <trkpt lat="59.8511802" lon="17.7878712">
        <ele>35.7061</ele>
        <time>2013-04-27T13:13:02Z</time>
      </trkpt>
      <trkpt lat="59.8512174" lon="17.7879628">
        <ele>36.1868</ele>
        <time>2013-04-27T13:13:03Z</time>
      </trkpt>
      <trkpt lat="59.8512553" lon="17.7880543">
        <ele>36.1868</ele>
        <time>2013-04-27T13:13:04Z</time>
      </trkpt>
      <trkpt lat="59.8512939" lon="17.7881446">
        <ele>36.1868</ele>
        <time>2013-04-27T13:13:05Z</time>
      </trkpt>
      <trkpt lat="59.8513322" lon="17.7882351">
        <ele>36.6675</ele>
        <time>2013-04-27T13:13:06Z</time>
      </trkpt>
      <trkpt lat="59.8513689" lon="17.7883275">
        <ele>36.6675</ele>
        <time>2013-04-27T13:13:07Z</time>
      </trkpt>
      <trkpt lat="59.8514051" lon="17.7884188">
        <ele>36.6675</ele>
        <time>2013-04-27T13:13:08Z</time>
      </trkpt>
      <trkpt lat="59.8514412" lon="17.7885094">
        <ele>36.6675</ele>
        <time>2013-04-27T13:13:09Z</time>
      </trkpt>
      <trkpt lat="59.851477" lon="17.7886011">
        <ele>36.6675</ele>
        <time>2013-04-27T13:13:10Z</time>
      </trkpt>
      <trkpt lat="59.8515123" lon="17.7886927">
        <ele>36.6675</ele>
        <time>2013-04-27T13:13:11Z</time>
      </trkpt>
      <trkpt lat="59.8515484" lon="17.7887823">
        <ele>36.6675</ele>
        <time>2013-04-27T13:13:12Z</time>
      </trkpt>
      <trkpt lat="59.8515858" lon="17.7888714">
        <ele>36.6675</ele>
        <time>2013-04-27T13:13:13Z</time>
      </trkpt>
      <trkpt lat="59.8516237" lon="17.7889618">
        <ele>36.6675</ele>
        <time>2013-04-27T13:13:14Z</time>
      </trkpt>
      <trkpt lat="59.8516611" lon="17.7890547">
        <ele>36.6675</ele>
        <time>2013-04-27T13:13:15Z</time>
      </trkpt>
      <trkpt lat="59.8516978" lon="17.7891475">
        <ele>36.6675</ele>
        <time>2013-04-27T13:13:16Z</time>
      </trkpt>
      <trkpt lat="59.8517342" lon="17.7892382">
        <ele>36.1868</ele>
        <time>2013-04-27T13:13:17Z</time>
      </trkpt>
      <trkpt lat="59.8517701" lon="17.7893273">
        <ele>36.1868</ele>
        <time>2013-04-27T13:13:18Z</time>
      </trkpt>
      <trkpt lat="59.8518051" lon="17.789417">
        <ele>36.1868</ele>
        <time>2013-04-27T13:13:19Z</time>
      </trkpt>
      <trkpt lat="59.8518402" lon="17.7895078">
        <ele>36.1868</ele>
        <time>2013-04-27T13:13:20Z</time>
      </trkpt>
      <trkpt lat="59.8518758" lon="17.7895987">
        <ele>36.1868</ele>
        <time>2013-04-27T13:13:21Z</time>
      </trkpt>
      <trkpt lat="59.8519123" lon="17.7896979">
        <ele>35.7061</ele>
        <time>2013-04-27T13:13:22Z</time>
      </trkpt>
      <trkpt lat="59.8519507" lon="17.7897961">
        <ele>35.7061</ele>
        <time>2013-04-27T13:13:23Z</time>
      </trkpt>
      <trkpt lat="59.8519898" lon="17.7898912">
        <ele>36.1868</ele>
        <time>2013-04-27T13:13:24Z</time>
      </trkpt>
      <trkpt lat="59.8520278" lon="17.7899856">
        <ele>36.6675</ele>
        <time>2013-04-27T13:13:25Z</time>
      </trkpt>
      <trkpt lat="59.8520647" lon="17.7900788">
        <ele>36.6675</ele>
        <time>2013-04-27T13:13:26Z</time>
      </trkpt>
      <trkpt lat="59.8521016" lon="17.7901711">
        <ele>37.1481</ele>
        <time>2013-04-27T13:13:27Z</time>
      </trkpt>
      <trkpt lat="59.8521387" lon="17.7902629">
        <ele>37.6287</ele>
        <time>2013-04-27T13:13:28Z</time>
      </trkpt>
      <trkpt lat="59.8521768" lon="17.7903555">
        <ele>37.6287</ele>
        <time>2013-04-27T13:13:29Z</time>
      </trkpt>
      <trkpt lat="59.8522154" lon="17.7904477">
        <ele>37.6287</ele>
        <time>2013-04-27T13:13:30Z</time>
      </trkpt>
      <trkpt lat="59.8522547" lon="17.7905388">
        <ele>38.1094</ele>
        <time>2013-04-27T13:13:31Z</time>
      </trkpt>
      <trkpt lat="59.8522954" lon="17.7906285">
        <ele>38.1094</ele>
        <time>2013-04-27T13:13:32Z</time>
      </trkpt>
      <trkpt lat="59.852336" lon="17.7907206">
        <ele>38.1094</ele>
        <time>2013-04-27T13:13:33Z</time>
      </trkpt>
      <trkpt lat="59.8523765" lon="17.7908149">
        <ele>38.5901</ele>
        <time>2013-04-27T13:13:34Z</time>
      </trkpt>
      <trkpt lat="59.8524174" lon="17.7909116">
        <ele>38.5901</ele>
        <time>2013-04-27T13:13:35Z</time>
      </trkpt>
      <trkpt lat="59.8524578" lon="17.7910106">
        <ele>38.5901</ele>
        <time>2013-04-27T13:13:36Z</time>
      </trkpt>
      <trkpt lat="59.8524981" lon="17.79111">
        <ele>39.0707</ele>
        <time>2013-04-27T13:13:37Z</time>
      </trkpt>
      <trkpt lat="59.8525371" lon="17.7912108">
        <ele>38.5901</ele>
        <time>2013-04-27T13:13:38Z</time>
      </trkpt>
      <trkpt lat="59.8525756" lon="17.7913122">
        <ele>38.5901</ele>
        <time>2013-04-27T13:13:39Z</time>
      </trkpt>
      <trkpt lat="59.852614" lon="17.7914121">
        <ele>38.5901</ele>
        <time>2013-04-27T13:13:40Z</time>
      </trkpt>
      <trkpt lat="59.852653" lon="17.791512">
        <ele>38.5901</ele>
        <time>2013-04-27T13:13:41Z</time>
      </trkpt>
      <trkpt lat="59.8526924" lon="17.7916118">
        <ele>38.5901</ele>
        <time>2013-04-27T13:13:42Z</time>
      </trkpt>
      <trkpt lat="59.8527322" lon="17.7917122">
        <ele>38.1094</ele>
        <time>2013-04-27T13:13:43Z</time>
      </trkpt>
      <trkpt lat="59.8527719" lon="17.7918157">
        <ele>38.1094</ele>
        <time>2013-04-27T13:13:44Z</time>
      </trkpt>
      <trkpt lat="59.852812" lon="17.7919223">
        <ele>38.1094</ele>
        <time>2013-04-27T13:13:45Z</time>
      </trkpt>
      <trkpt lat="59.8528526" lon="17.7920296">
        <ele>38.1094</ele>
        <time>2013-04-27T13:13:46Z</time>
      </trkpt>
      <trkpt lat="59.8528938" lon="17.7921354">
        <ele>38.1094</ele>
        <time>2013-04-27T13:13:47Z</time>
      </trkpt>
      <trkpt lat="59.8529352" lon="17.7922396">
        <ele>38.1094</ele>
        <time>2013-04-27T13:13:48Z</time>
      </trkpt>
      <trkpt lat="59.8529757" lon="17.7923415">
        <ele>38.5901</ele>
        <time>2013-04-27T13:13:49Z</time>
      </trkpt>
      <trkpt lat="59.8530144" lon="17.7924437">
        <ele>38.5901</ele>
        <time>2013-04-27T13:13:50Z</time>
      </trkpt>
      <trkpt lat="59.853053" lon="17.7925441">
        <ele>38.5901</ele>
        <time>2013-04-27T13:13:51Z</time>
      </trkpt>
      <trkpt lat="59.8530913" lon="17.7926431">
        <ele>38.5901</ele>
        <time>2013-04-27T13:13:52Z</time>
      </trkpt>
      <trkpt lat="59.8531315" lon="17.7927359">
        <ele>38.5901</ele>
        <time>2013-04-27T13:13:53Z</time>
      </trkpt>
      <trkpt lat="59.8531703" lon="17.7928346">
        <ele>39.0707</ele>
        <time>2013-04-27T13:13:54Z</time>
      </trkpt>
      <trkpt lat="59.8532064" lon="17.7929384">
        <ele>39.0707</ele>
        <time>2013-04-27T13:13:55Z</time>
      </trkpt>
      <trkpt lat="59.8532413" lon="17.7930459">
        <ele>39.0707</ele>
        <time>2013-04-27T13:13:56Z</time>
      </trkpt>
      <trkpt lat="59.8532682" lon="17.7932119">
        <ele>38.5901</ele>
        <time>2013-04-27T13:13:57Z</time>
      </trkpt>
      <trkpt lat="59.8533022" lon="17.793295">
        <ele>38.1094</ele>
        <time>2013-04-27T13:13:58Z</time>
      </trkpt>
      <trkpt lat="59.8533414" lon="17.7933789">
        <ele>38.1094</ele>
        <time>2013-04-27T13:13:59Z</time>
      </trkpt>
      <trkpt lat="59.8533808" lon="17.7934852">
        <ele>38.1094</ele>
        <time>2013-04-27T13:14:00Z</time>
      </trkpt>
      <trkpt lat="59.8534202" lon="17.7935807">
        <ele>38.5901</ele>
        <time>2013-04-27T13:14:01Z</time>
      </trkpt>
      <trkpt lat="59.8534569" lon="17.793684">
        <ele>39.0707</ele>
        <time>2013-04-27T13:14:02Z</time>
      </trkpt>
      <trkpt lat="59.8534913" lon="17.7937946">
        <ele>39.5513</ele>
        <time>2013-04-27T13:14:03Z</time>
      </trkpt>
      <trkpt lat="59.8535294" lon="17.7938923">
        <ele>39.5513</ele>
        <time>2013-04-27T13:14:04Z</time>
      </trkpt>
      <trkpt lat="59.8535657" lon="17.7939857">
        <ele>40.0321</ele>
        <time>2013-04-27T13:14:05Z</time>
      </trkpt>
      <trkpt lat="59.8535973" lon="17.7941028">
        <ele>40.0321</ele>
        <time>2013-04-27T13:14:06Z</time>
      </trkpt>
      <trkpt lat="59.8536289" lon="17.7942199">
        <ele>40.5128</ele>
        <time>2013-04-27T13:14:07Z</time>
      </trkpt>
      <trkpt lat="59.8536614" lon="17.7943303">
        <ele>40.5128</ele>
        <time>2013-04-27T13:14:08Z</time>
      </trkpt>
      <trkpt lat="59.8536952" lon="17.7944338">
        <ele>40.5128</ele>
        <time>2013-04-27T13:14:09Z</time>
      </trkpt>
      <trkpt lat="59.8537292" lon="17.7945389">
        <ele>40.9934</ele>
        <time>2013-04-27T13:14:10Z</time>
      </trkpt>
      <trkpt lat="59.8537632" lon="17.7946457">
        <ele>40.9934</ele>
        <time>2013-04-27T13:14:11Z</time>
      </trkpt>
      <trkpt lat="59.8537972" lon="17.7947563">
        <ele>41.474</ele>
        <time>2013-04-27T13:14:12Z</time>
      </trkpt>
      <trkpt lat="59.8538308" lon="17.7948656">
        <ele>41.474</ele>
        <time>2013-04-27T13:14:13Z</time>
      </trkpt>
      <trkpt lat="59.8538666" lon="17.7949596">
        <ele>41.474</ele>
        <time>2013-04-27T13:14:14Z</time>
      </trkpt>
      <trkpt lat="59.8539013" lon="17.7950709">
        <ele>41.474</ele>
        <time>2013-04-27T13:14:15Z</time>
      </trkpt>
      <trkpt lat="59.8539354" lon="17.7951852">
        <ele>41.9547</ele>
        <time>2013-04-27T13:14:16Z</time>
      </trkpt>
      <trkpt lat="59.8539683" lon="17.7953004">
        <ele>41.9547</ele>
        <time>2013-04-27T13:14:17Z</time>
      </trkpt>
      <trkpt lat="59.8540019" lon="17.7954144">
        <ele>41.9547</ele>
        <time>2013-04-27T13:14:18Z</time>
      </trkpt>
      <trkpt lat="59.8540366" lon="17.7955292">
        <ele>42.4354</ele>
        <time>2013-04-27T13:14:19Z</time>
      </trkpt>
      <trkpt lat="59.8540716" lon="17.7956408">
        <ele>42.916</ele>
        <time>2013-04-27T13:14:20Z</time>
      </trkpt>
      <trkpt lat="59.8541043" lon="17.795759">
        <ele>42.916</ele>
        <time>2013-04-27T13:14:21Z</time>
      </trkpt>
      <trkpt lat="59.8541376" lon="17.7958779">
        <ele>43.3966</ele>
        <time>2013-04-27T13:14:22Z</time>
      </trkpt>
      <trkpt lat="59.8541673" lon="17.7959903">
        <ele>42.916</ele>
        <time>2013-04-27T13:14:23Z</time>
      </trkpt>
      <trkpt lat="59.8541987" lon="17.7960974">
        <ele>42.4354</ele>
        <time>2013-04-27T13:14:24Z</time>
      </trkpt>
      <trkpt lat="59.8542293" lon="17.7962127">
        <ele>42.916</ele>
        <time>2013-04-27T13:14:25Z</time>
      </trkpt>
      <trkpt lat="59.8542584" lon="17.7963313">
        <ele>42.916</ele>
        <time>2013-04-27T13:14:26Z</time>
      </trkpt>
      <trkpt lat="59.8542883" lon="17.7964437">
        <ele>42.916</ele>
        <time>2013-04-27T13:14:27Z</time>
      </trkpt>
      <trkpt lat="59.8543183" lon="17.7965567">
        <ele>42.916</ele>
        <time>2013-04-27T13:14:28Z</time>
      </trkpt>
      <trkpt lat="59.8543498" lon="17.7966672">
        <ele>42.4354</ele>
        <time>2013-04-27T13:14:29Z</time>
      </trkpt>
      <trkpt lat="59.8543847" lon="17.7967741">
        <ele>41.9547</ele>
        <time>2013-04-27T13:14:30Z</time>
      </trkpt>
      <trkpt lat="59.8544228" lon="17.7968855">
        <ele>41.474</ele>
        <time>2013-04-27T13:14:31Z</time>
      </trkpt>
      <trkpt lat="59.8544612" lon="17.7969995">
        <ele>41.474</ele>
        <time>2013-04-27T13:14:32Z</time>
      </trkpt>
      <trkpt lat="59.8544964" lon="17.7971195">
        <ele>40.9934</ele>
        <time>2013-04-27T13:14:33Z</time>
      </trkpt>
      <trkpt lat="59.8545266" lon="17.7972424">
        <ele>40.5128</ele>
        <time>2013-04-27T13:14:34Z</time>
      </trkpt>
      <trkpt lat="59.8545539" lon="17.7973656">
        <ele>40.5128</ele>
        <time>2013-04-27T13:14:35Z</time>
      </trkpt>
      <trkpt lat="59.8545824" lon="17.7974885">
        <ele>40.5128</ele>
        <time>2013-04-27T13:14:36Z</time>
      </trkpt>
      <trkpt lat="59.8546112" lon="17.797616">
        <ele>40.0321</ele>
        <time>2013-04-27T13:14:37Z</time>
      </trkpt>
      <trkpt lat="59.8546416" lon="17.7977443">
        <ele>40.0321</ele>
        <time>2013-04-27T13:14:38Z</time>
      </trkpt>
      <trkpt lat="59.8546737" lon="17.7978719">
        <ele>39.5513</ele>
        <time>2013-04-27T13:14:39Z</time>
      </trkpt>
      <trkpt lat="59.8547058" lon="17.7979992">
        <ele>39.5513</ele>
        <time>2013-04-27T13:14:40Z</time>
      </trkpt>
      <trkpt lat="59.8547383" lon="17.7981263">
        <ele>39.0707</ele>
        <time>2013-04-27T13:14:41Z</time>
      </trkpt>
      <trkpt lat="59.8547732" lon="17.7982443">
        <ele>39.0707</ele>
        <time>2013-04-27T13:14:42Z</time>
      </trkpt>
      <trkpt lat="59.8548085" lon="17.7983763">
        <ele>39.5513</ele>
        <time>2013-04-27T13:14:43Z</time>
      </trkpt>
      <trkpt lat="59.8548362" lon="17.7984902">
        <ele>38.1094</ele>
        <time>2013-04-27T13:14:44Z</time>
      </trkpt>
      <trkpt lat="59.8548679" lon="17.7986157">
        <ele>37.6287</ele>
        <time>2013-04-27T13:14:45Z</time>
      </trkpt>
      <trkpt lat="59.8549038" lon="17.7987264">
        <ele>37.6287</ele>
        <time>2013-04-27T13:14:46Z</time>
      </trkpt>
      <trkpt lat="59.85494" lon="17.7988384">
        <ele>37.6287</ele>
        <time>2013-04-27T13:14:47Z</time>
      </trkpt>
      <trkpt lat="59.8549716" lon="17.7989631">
        <ele>38.1094</ele>
        <time>2013-04-27T13:14:48Z</time>
      </trkpt>
      <trkpt lat="59.8550037" lon="17.7990736">
        <ele>38.1094</ele>
        <time>2013-04-27T13:14:49Z</time>
      </trkpt>
      <trkpt lat="59.8550405" lon="17.7991792">
        <ele>38.1094</ele>
        <time>2013-04-27T13:14:50Z</time>
      </trkpt>
      <trkpt lat="59.8550751" lon="17.7992984">
        <ele>38.1094</ele>
        <time>2013-04-27T13:14:51Z</time>
      </trkpt>
      <trkpt lat="59.8551123" lon="17.7994155">
        <ele>38.1094</ele>
        <time>2013-04-27T13:14:52Z</time>
      </trkpt>
      <trkpt lat="59.8551446" lon="17.7995298">
        <ele>38.1094</ele>
        <time>2013-04-27T13:14:53Z</time>
      </trkpt>
      <trkpt lat="59.8551731" lon="17.7996569">
        <ele>37.6287</ele>
        <time>2013-04-27T13:14:54Z</time>
      </trkpt>
      <trkpt lat="59.8552032" lon="17.7997815">
        <ele>37.1481</ele>
        <time>2013-04-27T13:14:55Z</time>
      </trkpt>
      <trkpt lat="59.8552351" lon="17.7998986">
        <ele>36.6675</ele>
        <time>2013-04-27T13:14:56Z</time>
      </trkpt>
      <trkpt lat="59.8552679" lon="17.8000126">
        <ele>36.6675</ele>
        <time>2013-04-27T13:14:57Z</time>
      </trkpt>
      <trkpt lat="59.8553004" lon="17.8001236">
        <ele>36.1868</ele>
        <time>2013-04-27T13:14:58Z</time>
      </trkpt>
      <trkpt lat="59.8553314" lon="17.8002329">
        <ele>36.6675</ele>
        <time>2013-04-27T13:14:59Z</time>
      </trkpt>
      <trkpt lat="59.8553606" lon="17.8003451">
        <ele>36.1868</ele>
        <time>2013-04-27T13:15:00Z</time>
      </trkpt>
      <trkpt lat="59.8553906" lon="17.8004561">
        <ele>36.1868</ele>
        <time>2013-04-27T13:15:01Z</time>
      </trkpt>
      <trkpt lat="59.8554211" lon="17.8005648">
        <ele>35.7061</ele>
        <time>2013-04-27T13:15:02Z</time>
      </trkpt>
      <trkpt lat="59.8554529" lon="17.8006774">
        <ele>35.7061</ele>
        <time>2013-04-27T13:15:03Z</time>
      </trkpt>
      <trkpt lat="59.8554855" lon="17.8007898">
        <ele>35.7061</ele>
        <time>2013-04-27T13:15:04Z</time>
      </trkpt>
      <trkpt lat="59.8555161" lon="17.800907">
        <ele>35.2255</ele>
        <time>2013-04-27T13:15:05Z</time>
      </trkpt>
      <trkpt lat="59.8555507" lon="17.8010193">
        <ele>35.7061</ele>
        <time>2013-04-27T13:15:06Z</time>
      </trkpt>
      <trkpt lat="59.8555824" lon="17.8011432">
        <ele>35.2255</ele>
        <time>2013-04-27T13:15:07Z</time>
      </trkpt>
      <trkpt lat="59.8556134" lon="17.8012649">
        <ele>35.7061</ele>
        <time>2013-04-27T13:15:08Z</time>
      </trkpt>
      <trkpt lat="59.8556441" lon="17.8013848">
        <ele>35.7061</ele>
        <time>2013-04-27T13:15:09Z</time>
      </trkpt>
      <trkpt lat="59.8556754" lon="17.8014968">
        <ele>36.1868</ele>
        <time>2013-04-27T13:15:10Z</time>
      </trkpt>
      <trkpt lat="59.8557058" lon="17.8016019">
        <ele>35.7061</ele>
        <time>2013-04-27T13:15:11Z</time>
      </trkpt>
      <trkpt lat="59.8557327" lon="17.8017156">
        <ele>35.7061</ele>
        <time>2013-04-27T13:15:12Z</time>
      </trkpt>
      <trkpt lat="59.8557554" lon="17.8018413">
        <ele>35.2255</ele>
        <time>2013-04-27T13:15:13Z</time>
      </trkpt>
      <trkpt lat="59.8557805" lon="17.8019687">
        <ele>35.7061</ele>
        <time>2013-04-27T13:15:14Z</time>
      </trkpt>
      <trkpt lat="59.8558076" lon="17.8021101">
        <ele>36.1868</ele>
        <time>2013-04-27T13:15:15Z</time>
      </trkpt>
      <trkpt lat="59.8558406" lon="17.8022494">
        <ele>36.1868</ele>
        <time>2013-04-27T13:15:16Z</time>
      </trkpt>
      <trkpt lat="59.8558787" lon="17.8023815">
        <ele>35.7061</ele>
        <time>2013-04-27T13:15:17Z</time>
      </trkpt>
      <trkpt lat="59.8559165" lon="17.8025091">
        <ele>35.7061</ele>
        <time>2013-04-27T13:15:18Z</time>
      </trkpt>
      <trkpt lat="59.8559465" lon="17.8026463">
        <ele>36.6675</ele>
        <time>2013-04-27T13:15:19Z</time>
      </trkpt>
      <trkpt lat="59.8559811" lon="17.8027808">
        <ele>35.7061</ele>
        <time>2013-04-27T13:15:20Z</time>
      </trkpt>
      <trkpt lat="59.8560142" lon="17.8029048">
        <ele>35.7061</ele>
        <time>2013-04-27T13:15:21Z</time>
      </trkpt>
      <trkpt lat="59.8560489" lon="17.8030087">
        <ele>35.7061</ele>
        <time>2013-04-27T13:15:22Z</time>
      </trkpt>
      <trkpt lat="59.8560872" lon="17.8031142">
        <ele>35.2255</ele>
        <time>2013-04-27T13:15:23Z</time>
      </trkpt>
      <trkpt lat="59.8561316" lon="17.8032032">
        <ele>34.7449</ele>
        <time>2013-04-27T13:15:24Z</time>
      </trkpt>
      <trkpt lat="59.8561765" lon="17.8032952">
        <ele>33.3029</ele>
        <time>2013-04-27T13:15:25Z</time>
      </trkpt>
      <trkpt lat="59.8562143" lon="17.8033928">
        <ele>32.8223</ele>
        <time>2013-04-27T13:15:26Z</time>
      </trkpt>
      <trkpt lat="59.8562452" lon="17.8034922">
        <ele>32.3416</ele>
        <time>2013-04-27T13:15:27Z</time>
      </trkpt>
      <trkpt lat="59.8562739" lon="17.8035918">
        <ele>31.8607</ele>
        <time>2013-04-27T13:15:28Z</time>
      </trkpt>
      <trkpt lat="59.8563044" lon="17.8036904">
        <ele>31.3801</ele>
        <time>2013-04-27T13:15:29Z</time>
      </trkpt>
      <trkpt lat="59.8563351" lon="17.8037845">
        <ele>30.8995</ele>
        <time>2013-04-27T13:15:30Z</time>
      </trkpt>
      <trkpt lat="59.8563651" lon="17.8038745">
        <ele>30.8995</ele>
        <time>2013-04-27T13:15:31Z</time>
      </trkpt>
      <trkpt lat="59.856393" lon="17.8039699">
        <ele>29.9381</ele>
        <time>2013-04-27T13:15:32Z</time>
      </trkpt>
      <trkpt lat="59.8564218" lon="17.8040679">
        <ele>29.4575</ele>
        <time>2013-04-27T13:15:33Z</time>
      </trkpt>
      <trkpt lat="59.8564508" lon="17.8041698">
        <ele>28.9769</ele>
        <time>2013-04-27T13:15:34Z</time>
      </trkpt>
      <trkpt lat="59.8564796" lon="17.804275">
        <ele>28.4962</ele>
        <time>2013-04-27T13:15:35Z</time>
      </trkpt>
      <trkpt lat="59.8565101" lon="17.8043812">
        <ele>28.0155</ele>
        <time>2013-04-27T13:15:36Z</time>
      </trkpt>
      <trkpt lat="59.8565422" lon="17.8044893">
        <ele>28.0155</ele>
        <time>2013-04-27T13:15:37Z</time>
      </trkpt>
      <trkpt lat="59.8565764" lon="17.8046009">
        <ele>27.5349</ele>
        <time>2013-04-27T13:15:38Z</time>
      </trkpt>
      <trkpt lat="59.8566127" lon="17.8047149">
        <ele>27.0543</ele>
        <time>2013-04-27T13:15:39Z</time>
      </trkpt>
      <trkpt lat="59.8566489" lon="17.8048242">
        <ele>26.5736</ele>
        <time>2013-04-27T13:15:40Z</time>
      </trkpt>
      <trkpt lat="59.856684" lon="17.8049261">
        <ele>26.5736</ele>
        <time>2013-04-27T13:15:41Z</time>
      </trkpt>
      <trkpt lat="59.8567211" lon="17.8050184">
        <ele>26.0929</ele>
        <time>2013-04-27T13:15:42Z</time>
      </trkpt>
      <trkpt lat="59.856765" lon="17.805096">
        <ele>26.0929</ele>
        <time>2013-04-27T13:15:43Z</time>
      </trkpt>
      <trkpt lat="59.8568106" lon="17.8051613">
        <ele>25.6123</ele>
        <time>2013-04-27T13:15:44Z</time>
      </trkpt>
      <trkpt lat="59.8568515" lon="17.8052198">
        <ele>25.6123</ele>
        <time>2013-04-27T13:15:45Z</time>
      </trkpt>
      <trkpt lat="59.8568862" lon="17.8052802">
        <ele>25.1317</ele>
        <time>2013-04-27T13:15:46Z</time>
      </trkpt>
      <trkpt lat="59.8569083" lon="17.8053509">
        <ele>24.651</ele>
        <time>2013-04-27T13:15:47Z</time>
      </trkpt>
      <trkpt lat="59.856914" lon="17.805425">
        <ele>24.1703</ele>
        <time>2013-04-27T13:15:48Z</time>
      </trkpt>
      <trkpt lat="59.8569059" lon="17.8055047">
        <ele>23.6896</ele>
        <time>2013-04-27T13:15:49Z</time>
      </trkpt>
      <trkpt lat="59.8568829" lon="17.805587">
        <ele>23.209</ele>
        <time>2013-04-27T13:15:50Z</time>
      </trkpt>
      <trkpt lat="59.8568508" lon="17.8056657">
        <ele>22.7283</ele>
        <time>2013-04-27T13:15:51Z</time>
      </trkpt>
      <trkpt lat="59.8567964" lon="17.8057306">
        <ele>22.7283</ele>
        <time>2013-04-27T13:15:52Z</time>
      </trkpt>
      <trkpt lat="59.8567276" lon="17.8058026">
        <ele>21.767</ele>
        <time>2013-04-27T13:15:53Z</time>
      </trkpt>
      <trkpt lat="59.8566458" lon="17.8059191">
        <ele>20.8057</ele>
        <time>2013-04-27T13:15:54Z</time>
      </trkpt>
      <trkpt lat="59.8566028" lon="17.8060228">
        <ele>19.8444</ele>
        <time>2013-04-27T13:15:55Z</time>
      </trkpt>
      <trkpt lat="59.8565765" lon="17.8061304">
        <ele>19.3638</ele>
        <time>2013-04-27T13:15:56Z</time>
      </trkpt>
      <trkpt lat="59.8565759" lon="17.8062232">
        <ele>19.8444</ele>
        <time>2013-04-27T13:15:57Z</time>
      </trkpt>
      <trkpt lat="59.8565814" lon="17.80632">
        <ele>19.8444</ele>
        <time>2013-04-27T13:15:58Z</time>
      </trkpt>
      <trkpt lat="59.856595" lon="17.8064174">
        <ele>19.3638</ele>
        <time>2013-04-27T13:15:59Z</time>
      </trkpt>
      <trkpt lat="59.8566136" lon="17.8065222">
        <ele>18.8831</ele>
        <time>2013-04-27T13:16:00Z</time>
      </trkpt>
      <trkpt lat="59.8566382" lon="17.806623">
        <ele>18.8831</ele>
        <time>2013-04-27T13:16:01Z</time>
      </trkpt>
      <trkpt lat="59.8566687" lon="17.8067213">
        <ele>19.3638</ele>
        <time>2013-04-27T13:16:02Z</time>
      </trkpt>
      <trkpt lat="59.8566908" lon="17.8068259">
        <ele>19.8444</ele>
        <time>2013-04-27T13:16:03Z</time>
      </trkpt>
      <trkpt lat="59.8566945" lon="17.8069349">
        <ele>20.325</ele>
        <time>2013-04-27T13:16:04Z</time>
      </trkpt>
      <trkpt lat="59.8566861" lon="17.8070483">
        <ele>20.325</ele>
        <time>2013-04-27T13:16:05Z</time>
      </trkpt>
      <trkpt lat="59.8566701" lon="17.8071649">
        <ele>20.8057</ele>
        <time>2013-04-27T13:16:06Z</time>
      </trkpt>
      <trkpt lat="59.8566474" lon="17.807288">
        <ele>20.8057</ele>
        <time>2013-04-27T13:16:07Z</time>
      </trkpt>
      <trkpt lat="59.8566198" lon="17.8074121">
        <ele>21.2864</ele>
        <time>2013-04-27T13:16:08Z</time>
      </trkpt>
      <trkpt lat="59.8565883" lon="17.8075414">
        <ele>21.2864</ele>
        <time>2013-04-27T13:16:09Z</time>
      </trkpt>
      <trkpt lat="59.8565552" lon="17.8076762">
        <ele>21.2864</ele>
        <time>2013-04-27T13:16:10Z</time>
      </trkpt>
      <trkpt lat="59.856522" lon="17.8078125">
        <ele>21.2864</ele>
        <time>2013-04-27T13:16:11Z</time>
      </trkpt>
      <trkpt lat="59.8564898" lon="17.8079477">
        <ele>21.2864</ele>
        <time>2013-04-27T13:16:12Z</time>
      </trkpt>
      <trkpt lat="59.8564588" lon="17.8080803">
        <ele>21.2864</ele>
        <time>2013-04-27T13:16:13Z</time>
      </trkpt>
      <trkpt lat="59.8564277" lon="17.8082088">
        <ele>20.8057</ele>
        <time>2013-04-27T13:16:14Z</time>
      </trkpt>
      <trkpt lat="59.8564029" lon="17.8083342">
        <ele>21.2864</ele>
        <time>2013-04-27T13:16:15Z</time>
      </trkpt>
      <trkpt lat="59.8563874" lon="17.8084693">
        <ele>21.2864</ele>
        <time>2013-04-27T13:16:16Z</time>
      </trkpt>
      <trkpt lat="59.8563774" lon="17.8085999">
        <ele>21.2864</ele>
        <time>2013-04-27T13:16:17Z</time>
      </trkpt>
      <trkpt lat="59.8563695" lon="17.8087256">
        <ele>21.2864</ele>
        <time>2013-04-27T13:16:18Z</time>
      </trkpt>
      <trkpt lat="59.8563683" lon="17.8088446">
        <ele>21.767</ele>
        <time>2013-04-27T13:16:19Z</time>
      </trkpt>
      <trkpt lat="59.8563785" lon="17.8089593">
        <ele>22.2476</ele>
        <time>2013-04-27T13:16:20Z</time>
      </trkpt>
      <trkpt lat="59.8564024" lon="17.809069">
        <ele>22.2476</ele>
        <time>2013-04-27T13:16:21Z</time>
      </trkpt>
      <trkpt lat="59.8564411" lon="17.8091734">
        <ele>22.2476</ele>
        <time>2013-04-27T13:16:22Z</time>
      </trkpt>
      <trkpt lat="59.8564907" lon="17.8092658">
        <ele>22.7283</ele>
        <time>2013-04-27T13:16:23Z</time>
      </trkpt>
      <trkpt lat="59.8565438" lon="17.8093569">
        <ele>22.7283</ele>
        <time>2013-04-27T13:16:24Z</time>
      </trkpt>
      <trkpt lat="59.8565962" lon="17.8094504">
        <ele>23.209</ele>
        <time>2013-04-27T13:16:25Z</time>
      </trkpt>
      <trkpt lat="59.8566474" lon="17.8095435">
        <ele>23.209</ele>
        <time>2013-04-27T13:16:26Z</time>
      </trkpt>
      <trkpt lat="59.856699" lon="17.809633">
        <ele>23.6896</ele>
        <time>2013-04-27T13:16:27Z</time>
      </trkpt>
      <trkpt lat="59.8567472" lon="17.8097255">
        <ele>23.6896</ele>
        <time>2013-04-27T13:16:28Z</time>
      </trkpt>
      <trkpt lat="59.8567909" lon="17.8098222">
        <ele>24.1703</ele>
        <time>2013-04-27T13:16:29Z</time>
      </trkpt>
      <trkpt lat="59.8568319" lon="17.8099193">
        <ele>24.1703</ele>
        <time>2013-04-27T13:16:30Z</time>
      </trkpt>
      <trkpt lat="59.8568684" lon="17.810019">
        <ele>24.1703</ele>
        <time>2013-04-27T13:16:31Z</time>
      </trkpt>
      <trkpt lat="59.8568997" lon="17.8101216">
        <ele>24.1703</ele>
        <time>2013-04-27T13:16:32Z</time>
      </trkpt>
      <trkpt lat="59.8569251" lon="17.8102262">
        <ele>24.1703</ele>
        <time>2013-04-27T13:16:33Z</time>
      </trkpt>
      <trkpt lat="59.8569431" lon="17.8103324">
        <ele>24.1703</ele>
        <time>2013-04-27T13:16:34Z</time>
      </trkpt>
      <trkpt lat="59.8569539" lon="17.8104391">
        <ele>24.651</ele>
        <time>2013-04-27T13:16:35Z</time>
      </trkpt>
      <trkpt lat="59.8569604" lon="17.8105443">
        <ele>24.651</ele>
        <time>2013-04-27T13:16:36Z</time>
      </trkpt>
      <trkpt lat="59.8569659" lon="17.8106485">
        <ele>25.1317</ele>
        <time>2013-04-27T13:16:37Z</time>
      </trkpt>
      <trkpt lat="59.8569678" lon="17.8107526">
        <ele>25.1317</ele>
        <time>2013-04-27T13:16:38Z</time>
      </trkpt>
      <trkpt lat="59.8569649" lon="17.8108538">
        <ele>25.1317</ele>
        <time>2013-04-27T13:16:39Z</time>
      </trkpt>
      <trkpt lat="59.8569604" lon="17.8109552">
        <ele>25.1317</ele>
        <time>2013-04-27T13:16:40Z</time>
      </trkpt>
      <trkpt lat="59.856956" lon="17.8110553">
        <ele>25.6123</ele>
        <time>2013-04-27T13:16:41Z</time>
      </trkpt>
      <trkpt lat="59.8569529" lon="17.8111593">
        <ele>25.1317</ele>
        <time>2013-04-27T13:16:42Z</time>
      </trkpt>
      <trkpt lat="59.8569516" lon="17.8112736">
        <ele>24.651</ele>
        <time>2013-04-27T13:16:43Z</time>
      </trkpt>
      <trkpt lat="59.8569513" lon="17.8113892">
        <ele>24.1703</ele>
        <time>2013-04-27T13:16:44Z</time>
      </trkpt>
      <trkpt lat="59.8569525" lon="17.8115075">
        <ele>24.1703</ele>
        <time>2013-04-27T13:16:45Z</time>
      </trkpt>
      <trkpt lat="59.8569598" lon="17.8116244">
        <ele>24.1703</ele>
        <time>2013-04-27T13:16:46Z</time>
      </trkpt>
      <trkpt lat="59.8569741" lon="17.8117399">
        <ele>24.1703</ele>
        <time>2013-04-27T13:16:47Z</time>
      </trkpt>
      <trkpt lat="59.8569932" lon="17.811854">
        <ele>25.1317</ele>
        <time>2013-04-27T13:16:48Z</time>
      </trkpt>
      <trkpt lat="59.8570172" lon="17.8119643">
        <ele>26.0929</ele>
        <time>2013-04-27T13:16:49Z</time>
      </trkpt>
      <trkpt lat="59.8570396" lon="17.8120726">
        <ele>26.0929</ele>
        <time>2013-04-27T13:16:50Z</time>
      </trkpt>
      <trkpt lat="59.8570662" lon="17.8121778">
        <ele>26.0929</ele>
        <time>2013-04-27T13:16:51Z</time>
      </trkpt>
      <trkpt lat="59.8570934" lon="17.8122838">
        <ele>26.0929</ele>
        <time>2013-04-27T13:16:52Z</time>
      </trkpt>
      <trkpt lat="59.8571189" lon="17.8123907">
        <ele>26.5736</ele>
        <time>2013-04-27T13:16:53Z</time>
      </trkpt>
      <trkpt lat="59.8571462" lon="17.8124959">
        <ele>27.0543</ele>
        <time>2013-04-27T13:16:54Z</time>
      </trkpt>
      <trkpt lat="59.8571721" lon="17.8125969">
        <ele>27.0543</ele>
        <time>2013-04-27T13:16:55Z</time>
      </trkpt>
      <trkpt lat="59.8571987" lon="17.8126903">
        <ele>27.5349</ele>
        <time>2013-04-27T13:16:56Z</time>
      </trkpt>
      <trkpt lat="59.8572264" lon="17.8127733">
        <ele>27.5349</ele>
        <time>2013-04-27T13:16:57Z</time>
      </trkpt>
      <trkpt lat="59.8572572" lon="17.8128543">
        <ele>27.5349</ele>
        <time>2013-04-27T13:16:58Z</time>
      </trkpt>
      <trkpt lat="59.8572927" lon="17.8129361">
        <ele>27.5349</ele>
        <time>2013-04-27T13:16:59Z</time>
      </trkpt>
      <trkpt lat="59.8573256" lon="17.8130182">
        <ele>27.5349</ele>
        <time>2013-04-27T13:17:00Z</time>
      </trkpt>
      <trkpt lat="59.8573622" lon="17.8131006">
        <ele>28.0155</ele>
        <time>2013-04-27T13:17:01Z</time>
      </trkpt>
      <trkpt lat="59.857399" lon="17.8131863">
        <ele>27.5349</ele>
        <time>2013-04-27T13:17:02Z</time>
      </trkpt>
      <trkpt lat="59.8574358" lon="17.8132774">
        <ele>27.0543</ele>
        <time>2013-04-27T13:17:03Z</time>
      </trkpt>
      <trkpt lat="59.8574729" lon="17.8133748">
        <ele>27.0543</ele>
        <time>2013-04-27T13:17:04Z</time>
      </trkpt>
      <trkpt lat="59.8575095" lon="17.8134741">
        <ele>26.5736</ele>
        <time>2013-04-27T13:17:05Z</time>
      </trkpt>
      <trkpt lat="59.8575414" lon="17.8135727">
        <ele>26.0929</ele>
        <time>2013-04-27T13:17:06Z</time>
      </trkpt>
      <trkpt lat="59.8575653" lon="17.8136701">
        <ele>26.0929</ele>
        <time>2013-04-27T13:17:07Z</time>
      </trkpt>
      <trkpt lat="59.8575771" lon="17.8137697">
        <ele>25.6123</ele>
        <time>2013-04-27T13:17:08Z</time>
      </trkpt>
      <trkpt lat="59.8575777" lon="17.8138681">
        <ele>25.1317</ele>
        <time>2013-04-27T13:17:09Z</time>
      </trkpt>
      <trkpt lat="59.8575698" lon="17.8139633">
        <ele>24.651</ele>
        <time>2013-04-27T13:17:10Z</time>
      </trkpt>
      <trkpt lat="59.8575578" lon="17.8140539">
        <ele>24.1703</ele>
        <time>2013-04-27T13:17:11Z</time>
      </trkpt>
      <trkpt lat="59.8575472" lon="17.8141411">
        <ele>24.1703</ele>
        <time>2013-04-27T13:17:12Z</time>
      </trkpt>
      <trkpt lat="59.8575388" lon="17.8142252">
        <ele>23.6896</ele>
        <time>2013-04-27T13:17:13Z</time>
      </trkpt>
      <trkpt lat="59.8575311" lon="17.8143048">
        <ele>23.209</ele>
        <time>2013-04-27T13:17:14Z</time>
      </trkpt>
      <trkpt lat="59.8575269" lon="17.814382">
        <ele>23.209</ele>
        <time>2013-04-27T13:17:15Z</time>
      </trkpt>
      <trkpt lat="59.8575306" lon="17.8144571">
        <ele>23.209</ele>
        <time>2013-04-27T13:17:16Z</time>
      </trkpt>
      <trkpt lat="59.8575394" lon="17.81453">
        <ele>23.209</ele>
        <time>2013-04-27T13:17:17Z</time>
      </trkpt>
      <trkpt lat="59.8575486" lon="17.8145962">
        <ele>23.209</ele>
        <time>2013-04-27T13:17:18Z</time>
      </trkpt>
      <trkpt lat="59.8575605" lon="17.8146533">
        <ele>22.7283</ele>
        <time>2013-04-27T13:17:19Z</time>
      </trkpt>
      <trkpt lat="59.8575761" lon="17.814695">
        <ele>22.7283</ele>
        <time>2013-04-27T13:17:20Z</time>
      </trkpt>
      <trkpt lat="59.8575929" lon="17.8147251">
        <ele>22.7283</ele>
        <time>2013-04-27T13:17:21Z</time>
      </trkpt>
      <trkpt lat="59.8576119" lon="17.8147463">
        <ele>22.2476</ele>
        <time>2013-04-27T13:17:22Z</time>
      </trkpt>
      <trkpt lat="59.8576342" lon="17.8147635">
        <ele>22.2476</ele>
        <time>2013-04-27T13:17:23Z</time>
      </trkpt>
      <trkpt lat="59.857657" lon="17.814788">
        <ele>22.2476</ele>
        <time>2013-04-27T13:17:24Z</time>
      </trkpt>
      <trkpt lat="59.8576793" lon="17.8148253">
        <ele>22.2476</ele>
        <time>2013-04-27T13:17:25Z</time>
      </trkpt>
      <trkpt lat="59.8577071" lon="17.8148619">
        <ele>22.2476</ele>
        <time>2013-04-27T13:17:26Z</time>
      </trkpt>
      <trkpt lat="59.8577409" lon="17.8148951">
        <ele>22.2476</ele>
        <time>2013-04-27T13:17:27Z</time>
      </trkpt>
      <trkpt lat="59.8577796" lon="17.8149335">
        <ele>21.767</ele>
        <time>2013-04-27T13:17:28Z</time>
      </trkpt>
      <trkpt lat="59.8578232" lon="17.8149734">
        <ele>21.767</ele>
        <time>2013-04-27T13:17:29Z</time>
      </trkpt>
      <trkpt lat="59.8578683" lon="17.8150103">
        <ele>21.767</ele>
        <time>2013-04-27T13:17:30Z</time>
      </trkpt>
      <trkpt lat="59.8579147" lon="17.8150391">
        <ele>22.2476</ele>
        <time>2013-04-27T13:17:31Z</time>
      </trkpt>
      <trkpt lat="59.8579601" lon="17.8150696">
        <ele>21.767</ele>
        <time>2013-04-27T13:17:32Z</time>
      </trkpt>
      <trkpt lat="59.858005" lon="17.815105">
        <ele>21.767</ele>
        <time>2013-04-27T13:17:33Z</time>
      </trkpt>
      <trkpt lat="59.8580522" lon="17.815135">
        <ele>21.767</ele>
        <time>2013-04-27T13:17:34Z</time>
      </trkpt>
      <trkpt lat="59.8581002" lon="17.815161">
        <ele>22.2476</ele>
        <time>2013-04-27T13:17:35Z</time>
      </trkpt>
      <trkpt lat="59.8581485" lon="17.8151859">
        <ele>22.2476</ele>
        <time>2013-04-27T13:17:36Z</time>
      </trkpt>
      <trkpt lat="59.8581961" lon="17.815213">
        <ele>22.7283</ele>
        <time>2013-04-27T13:17:37Z</time>
      </trkpt>
      <trkpt lat="59.8582408" lon="17.8152475">
        <ele>22.7283</ele>
        <time>2013-04-27T13:17:38Z</time>
      </trkpt>
      <trkpt lat="59.8582864" lon="17.8152858">
        <ele>22.7283</ele>
        <time>2013-04-27T13:17:39Z</time>
      </trkpt>
      <trkpt lat="59.858332" lon="17.815322">
        <ele>22.7283</ele>
        <time>2013-04-27T13:17:40Z</time>
      </trkpt>
      <trkpt lat="59.8583816" lon="17.8153604">
        <ele>22.7283</ele>
        <time>2013-04-27T13:17:41Z</time>
      </trkpt>
      <trkpt lat="59.8584348" lon="17.8153998">
        <ele>22.2476</ele>
        <time>2013-04-27T13:17:42Z</time>
      </trkpt>
      <trkpt lat="59.8584929" lon="17.8154422">
        <ele>21.2864</ele>
        <time>2013-04-27T13:17:43Z</time>
      </trkpt>
      <trkpt lat="59.8585567" lon="17.8154899">
        <ele>21.2864</ele>
        <time>2013-04-27T13:17:44Z</time>
      </trkpt>
      <trkpt lat="59.8586216" lon="17.8155427">
        <ele>20.325</ele>
        <time>2013-04-27T13:17:45Z</time>
      </trkpt>
      <trkpt lat="59.8586882" lon="17.8155984">
        <ele>19.8444</ele>
        <time>2013-04-27T13:17:46Z</time>
      </trkpt>
      <trkpt lat="59.8587573" lon="17.8156561">
        <ele>19.3638</ele>
        <time>2013-04-27T13:17:47Z</time>
      </trkpt>
      <trkpt lat="59.8588286" lon="17.8157156">
        <ele>19.3638</ele>
        <time>2013-04-27T13:17:48Z</time>
      </trkpt>
      <trkpt lat="59.8589014" lon="17.8157741">
        <ele>18.8831</ele>
        <time>2013-04-27T13:17:49Z</time>
      </trkpt>
      <trkpt lat="59.8589758" lon="17.8158286">
        <ele>18.8831</ele>
        <time>2013-04-27T13:17:50Z</time>
      </trkpt>
      <trkpt lat="59.8590499" lon="17.815886">
        <ele>18.8831</ele>
        <time>2013-04-27T13:17:51Z</time>
      </trkpt>
      <trkpt lat="59.8591234" lon="17.8159466">
        <ele>18.4023</ele>
        <time>2013-04-27T13:17:52Z</time>
      </trkpt>
      <trkpt lat="59.8591956" lon="17.8160093">
        <ele>18.4023</ele>
        <time>2013-04-27T13:17:53Z</time>
      </trkpt>
      <trkpt lat="59.8592685" lon="17.8160763">
        <ele>17.9218</ele>
        <time>2013-04-27T13:17:54Z</time>
      </trkpt>
      <trkpt lat="59.8593415" lon="17.8161451">
        <ele>17.9218</ele>
        <time>2013-04-27T13:17:55Z</time>
      </trkpt>
      <trkpt lat="59.859414" lon="17.8162151">
        <ele>17.9218</ele>
        <time>2013-04-27T13:17:56Z</time>
      </trkpt>
      <trkpt lat="59.8594866" lon="17.8162845">
        <ele>17.9218</ele>
        <time>2013-04-27T13:17:57Z</time>
      </trkpt>
      <trkpt lat="59.8595576" lon="17.8163496">
        <ele>17.9218</ele>
        <time>2013-04-27T13:17:58Z</time>
      </trkpt>
      <trkpt lat="59.859627" lon="17.8164141">
        <ele>17.4412</ele>
        <time>2013-04-27T13:17:59Z</time>
      </trkpt>
      <trkpt lat="59.8596977" lon="17.8164782">
        <ele>17.4412</ele>
        <time>2013-04-27T13:18:00Z</time>
      </trkpt>
      <trkpt lat="59.8597671" lon="17.81654">
        <ele>17.4412</ele>
        <time>2013-04-27T13:18:01Z</time>
      </trkpt>
      <trkpt lat="59.8598368" lon="17.8166024">
        <ele>17.4412</ele>
        <time>2013-04-27T13:18:02Z</time>
      </trkpt>
      <trkpt lat="59.8599051" lon="17.8166669">
        <ele>17.4412</ele>
        <time>2013-04-27T13:18:03Z</time>
      </trkpt>
      <trkpt lat="59.8599708" lon="17.8167366">
        <ele>17.4412</ele>
        <time>2013-04-27T13:18:04Z</time>
      </trkpt>
      <trkpt lat="59.8600342" lon="17.8168104">
        <ele>17.4412</ele>
        <time>2013-04-27T13:18:05Z</time>
      </trkpt>
      <trkpt lat="59.8600963" lon="17.8168849">
        <ele>17.4412</ele>
        <time>2013-04-27T13:18:06Z</time>
      </trkpt>
      <trkpt lat="59.8601574" lon="17.816961">
        <ele>17.4412</ele>
        <time>2013-04-27T13:18:07Z</time>
      </trkpt>
      <trkpt lat="59.8602175" lon="17.8170402">
        <ele>17.4412</ele>
        <time>2013-04-27T13:18:08Z</time>
      </trkpt>
      <trkpt lat="59.8602801" lon="17.817118">
        <ele>17.9218</ele>
        <time>2013-04-27T13:18:09Z</time>
      </trkpt>
      <trkpt lat="59.8603416" lon="17.8171931">
        <ele>17.9218</ele>
        <time>2013-04-27T13:18:10Z</time>
      </trkpt>
      <trkpt lat="59.8604029" lon="17.8172675">
        <ele>18.4023</ele>
        <time>2013-04-27T13:18:11Z</time>
      </trkpt>
      <trkpt lat="59.8604629" lon="17.8173419">
        <ele>18.8831</ele>
        <time>2013-04-27T13:18:12Z</time>
      </trkpt>
      <trkpt lat="59.8605216" lon="17.8174175">
        <ele>19.3638</ele>
        <time>2013-04-27T13:18:13Z</time>
      </trkpt>
      <trkpt lat="59.8605776" lon="17.8174915">
        <ele>19.8444</ele>
        <time>2013-04-27T13:18:14Z</time>
      </trkpt>
      <trkpt lat="59.8606336" lon="17.8175654">
        <ele>20.325</ele>
        <time>2013-04-27T13:18:15Z</time>
      </trkpt>
      <trkpt lat="59.860689" lon="17.817634">
        <ele>20.8057</ele>
        <time>2013-04-27T13:18:16Z</time>
      </trkpt>
      <trkpt lat="59.8607429" lon="17.8176997">
        <ele>20.8057</ele>
        <time>2013-04-27T13:18:17Z</time>
      </trkpt>
      <trkpt lat="59.8607951" lon="17.8177697">
        <ele>20.8057</ele>
        <time>2013-04-27T13:18:18Z</time>
      </trkpt>
      <trkpt lat="59.8608448" lon="17.817841">
        <ele>21.2864</ele>
        <time>2013-04-27T13:18:19Z</time>
      </trkpt>
      <trkpt lat="59.8608951" lon="17.81791">
        <ele>21.767</ele>
        <time>2013-04-27T13:18:20Z</time>
      </trkpt>
      <trkpt lat="59.8609472" lon="17.8179754">
        <ele>22.2476</ele>
        <time>2013-04-27T13:18:21Z</time>
      </trkpt>
      <trkpt lat="59.8610022" lon="17.8180389">
        <ele>22.7283</ele>
        <time>2013-04-27T13:18:22Z</time>
      </trkpt>
      <trkpt lat="59.8610577" lon="17.8181004">
        <ele>22.7283</ele>
        <time>2013-04-27T13:18:23Z</time>
      </trkpt>
      <trkpt lat="59.8611135" lon="17.818159">
        <ele>22.7283</ele>
        <time>2013-04-27T13:18:24Z</time>
      </trkpt>
      <trkpt lat="59.8611697" lon="17.8182182">
        <ele>23.209</ele>
        <time>2013-04-27T13:18:25Z</time>
      </trkpt>
      <trkpt lat="59.8612261" lon="17.8182778">
        <ele>23.209</ele>
        <time>2013-04-27T13:18:26Z</time>
      </trkpt>
      <trkpt lat="59.8612836" lon="17.8183313">
        <ele>23.209</ele>
        <time>2013-04-27T13:18:27Z</time>
      </trkpt>
      <trkpt lat="59.8613417" lon="17.8183824">
        <ele>23.6896</ele>
        <time>2013-04-27T13:18:28Z</time>
      </trkpt>
      <trkpt lat="59.8613991" lon="17.8184264">
        <ele>23.6896</ele>
        <time>2013-04-27T13:18:29Z</time>
      </trkpt>
      <trkpt lat="59.861456" lon="17.8184685">
        <ele>24.1703</ele>
        <time>2013-04-27T13:18:30Z</time>
      </trkpt>
      <trkpt lat="59.8615089" lon="17.8185077">
        <ele>24.1703</ele>
        <time>2013-04-27T13:18:31Z</time>
      </trkpt>
      <trkpt lat="59.8615602" lon="17.8185408">
        <ele>24.1703</ele>
        <time>2013-04-27T13:18:32Z</time>
      </trkpt>
      <trkpt lat="59.8616111" lon="17.8185714">
        <ele>24.1703</ele>
        <time>2013-04-27T13:18:33Z</time>
      </trkpt>
      <trkpt lat="59.8616633" lon="17.8186013">
        <ele>24.1703</ele>
        <time>2013-04-27T13:18:34Z</time>
      </trkpt>
      <trkpt lat="59.8617207" lon="17.8186274">
        <ele>24.1703</ele>
        <time>2013-04-27T13:18:35Z</time>
      </trkpt>
      <trkpt lat="59.8617803" lon="17.8186573">
        <ele>24.1703</ele>
        <time>2013-04-27T13:18:36Z</time>
      </trkpt>
      <trkpt lat="59.8618404" lon="17.8186959">
        <ele>23.6896</ele>
        <time>2013-04-27T13:18:37Z</time>
      </trkpt>
      <trkpt lat="59.8619036" lon="17.8187391">
        <ele>23.6896</ele>
        <time>2013-04-27T13:18:38Z</time>
      </trkpt>
      <trkpt lat="59.8619698" lon="17.8187821">
        <ele>23.6896</ele>
        <time>2013-04-27T13:18:39Z</time>
      </trkpt>
      <trkpt lat="59.8620381" lon="17.8188301">
        <ele>23.209</ele>
        <time>2013-04-27T13:18:40Z</time>
      </trkpt>
      <trkpt lat="59.8621073" lon="17.8188868">
        <ele>23.209</ele>
        <time>2013-04-27T13:18:41Z</time>
      </trkpt>
      <trkpt lat="59.8621757" lon="17.8189507">
        <ele>23.209</ele>
        <time>2013-04-27T13:18:42Z</time>
      </trkpt>
      <trkpt lat="59.8622414" lon="17.8190236">
        <ele>22.7283</ele>
        <time>2013-04-27T13:18:43Z</time>
      </trkpt>
      <trkpt lat="59.8623026" lon="17.8191135">
        <ele>23.209</ele>
        <time>2013-04-27T13:18:44Z</time>
      </trkpt>
      <trkpt lat="59.862358" lon="17.8192201">
        <ele>23.209</ele>
        <time>2013-04-27T13:18:45Z</time>
      </trkpt>
      <trkpt lat="59.8624061" lon="17.819344">
        <ele>23.6896</ele>
        <time>2013-04-27T13:18:46Z</time>
      </trkpt>
      <trkpt lat="59.862442" lon="17.8194837">
        <ele>23.6896</ele>
        <time>2013-04-27T13:18:47Z</time>
      </trkpt>
      <trkpt lat="59.8624697" lon="17.8196329">
        <ele>23.209</ele>
        <time>2013-04-27T13:18:48Z</time>
      </trkpt>
      <trkpt lat="59.8625017" lon="17.8197837">
        <ele>23.209</ele>
        <time>2013-04-27T13:18:49Z</time>
      </trkpt>
      <trkpt lat="59.8625335" lon="17.8199378">
        <ele>23.209</ele>
        <time>2013-04-27T13:18:50Z</time>
      </trkpt>
      <trkpt lat="59.8625729" lon="17.8201105">
        <ele>23.209</ele>
        <time>2013-04-27T13:18:51Z</time>
      </trkpt>
      <trkpt lat="59.8626009" lon="17.8202757">
        <ele>23.6896</ele>
        <time>2013-04-27T13:18:52Z</time>
      </trkpt>
      <trkpt lat="59.8626302" lon="17.8204503">
        <ele>23.6896</ele>
        <time>2013-04-27T13:18:53Z</time>
      </trkpt>
      <trkpt lat="59.8626672" lon="17.8206171">
        <ele>23.6896</ele>
        <time>2013-04-27T13:18:54Z</time>
      </trkpt>
      <trkpt lat="59.8627128" lon="17.8207834">
        <ele>23.209</ele>
        <time>2013-04-27T13:18:55Z</time>
      </trkpt>
      <trkpt lat="59.8627615" lon="17.8209567">
        <ele>22.2476</ele>
        <time>2013-04-27T13:18:56Z</time>
      </trkpt>
      <trkpt lat="59.8628245" lon="17.8211278">
        <ele>22.2476</ele>
        <time>2013-04-27T13:18:57Z</time>
      </trkpt>
      <trkpt lat="59.8628845" lon="17.8213025">
        <ele>22.2476</ele>
        <time>2013-04-27T13:18:58Z</time>
      </trkpt>
      <trkpt lat="59.86294" lon="17.8214841">
        <ele>21.767</ele>
        <time>2013-04-27T13:18:59Z</time>
      </trkpt>
      <trkpt lat="59.8629951" lon="17.8216645">
        <ele>20.8057</ele>
        <time>2013-04-27T13:19:00Z</time>
      </trkpt>
      <trkpt lat="59.8630503" lon="17.8218425">
        <ele>20.325</ele>
        <time>2013-04-27T13:19:01Z</time>
      </trkpt>
      <trkpt lat="59.8631076" lon="17.8220177">
        <ele>19.3638</ele>
        <time>2013-04-27T13:19:02Z</time>
      </trkpt>
      <trkpt lat="59.8631684" lon="17.8221939">
        <ele>18.8831</ele>
        <time>2013-04-27T13:19:03Z</time>
      </trkpt>
      <trkpt lat="59.8632292" lon="17.8223709">
        <ele>18.4023</ele>
        <time>2013-04-27T13:19:04Z</time>
      </trkpt>
      <trkpt lat="59.8632914" lon="17.8225467">
        <ele>17.9218</ele>
        <time>2013-04-27T13:19:05Z</time>
      </trkpt>
      <trkpt lat="59.8633556" lon="17.8227192">
        <ele>17.4412</ele>
        <time>2013-04-27T13:19:06Z</time>
      </trkpt>
      <trkpt lat="59.863421" lon="17.8228868">
        <ele>16.9604</ele>
        <time>2013-04-27T13:19:07Z</time>
      </trkpt>
      <trkpt lat="59.8634873" lon="17.8230476">
        <ele>16.4797</ele>
        <time>2013-04-27T13:19:08Z</time>
      </trkpt>
      <trkpt lat="59.8635528" lon="17.8232037">
        <ele>16.4797</ele>
        <time>2013-04-27T13:19:09Z</time>
      </trkpt>
      <trkpt lat="59.8636177" lon="17.8233565">
        <ele>15.999</ele>
        <time>2013-04-27T13:19:10Z</time>
      </trkpt>
      <trkpt lat="59.8636823" lon="17.8235059">
        <ele>15.5184</ele>
        <time>2013-04-27T13:19:11Z</time>
      </trkpt>
      <trkpt lat="59.8637462" lon="17.8236528">
        <ele>15.5184</ele>
        <time>2013-04-27T13:19:12Z</time>
      </trkpt>
      <trkpt lat="59.8638084" lon="17.8237947">
        <ele>15.5184</ele>
        <time>2013-04-27T13:19:13Z</time>
      </trkpt>
      <trkpt lat="59.8638686" lon="17.8239319">
        <ele>15.5184</ele>
        <time>2013-04-27T13:19:14Z</time>
      </trkpt>
      <trkpt lat="59.8639281" lon="17.8240661">
        <ele>15.5184</ele>
        <time>2013-04-27T13:19:15Z</time>
      </trkpt>
      <trkpt lat="59.8639874" lon="17.8241974">
        <ele>15.5184</ele>
        <time>2013-04-27T13:19:16Z</time>
      </trkpt>
      <trkpt lat="59.8640462" lon="17.8243257">
        <ele>15.999</ele>
        <time>2013-04-27T13:19:17Z</time>
      </trkpt>
      <trkpt lat="59.864104" lon="17.8244517">
        <ele>15.999</ele>
        <time>2013-04-27T13:19:18Z</time>
      </trkpt>
      <trkpt lat="59.8641602" lon="17.8245758">
        <ele>16.4797</ele>
        <time>2013-04-27T13:19:19Z</time>
      </trkpt>
      <trkpt lat="59.8642165" lon="17.824698">
        <ele>16.4797</ele>
        <time>2013-04-27T13:19:20Z</time>
      </trkpt>
      <trkpt lat="59.8642725" lon="17.8248172">
        <ele>16.9604</ele>
        <time>2013-04-27T13:19:21Z</time>
      </trkpt>
      <trkpt lat="59.8643264" lon="17.8249335">
        <ele>17.4412</ele>
        <time>2013-04-27T13:19:22Z</time>
      </trkpt>
      <trkpt lat="59.8643787" lon="17.8250456">
        <ele>17.9218</ele>
        <time>2013-04-27T13:19:23Z</time>
      </trkpt>
      <trkpt lat="59.8644295" lon="17.8251538">
        <ele>18.4023</ele>
        <time>2013-04-27T13:19:24Z</time>
      </trkpt>
      <trkpt lat="59.8644785" lon="17.825258">
        <ele>18.4023</ele>
        <time>2013-04-27T13:19:25Z</time>
      </trkpt>
      <trkpt lat="59.8645263" lon="17.8253604">
        <ele>18.8831</ele>
        <time>2013-04-27T13:19:26Z</time>
      </trkpt>
      <trkpt lat="59.8645734" lon="17.8254626">
        <ele>18.8831</ele>
        <time>2013-04-27T13:19:27Z</time>
      </trkpt>
      <trkpt lat="59.8646185" lon="17.825563">
        <ele>18.8831</ele>
        <time>2013-04-27T13:19:28Z</time>
      </trkpt>
      <trkpt lat="59.8646636" lon="17.8256563">
        <ele>19.3638</ele>
        <time>2013-04-27T13:19:29Z</time>
      </trkpt>
      <trkpt lat="59.8647071" lon="17.8257471">
        <ele>19.3638</ele>
        <time>2013-04-27T13:19:30Z</time>
      </trkpt>
      <trkpt lat="59.8647504" lon="17.825837">
        <ele>20.325</ele>
        <time>2013-04-27T13:19:31Z</time>
      </trkpt>
      <trkpt lat="59.864791" lon="17.825926">
        <ele>20.325</ele>
        <time>2013-04-27T13:19:32Z</time>
      </trkpt>
      <trkpt lat="59.8648312" lon="17.8260104">
        <ele>21.2864</ele>
        <time>2013-04-27T13:19:33Z</time>
      </trkpt>
      <trkpt lat="59.8648704" lon="17.8260903">
        <ele>21.2864</ele>
        <time>2013-04-27T13:19:34Z</time>
      </trkpt>
      <trkpt lat="59.8649086" lon="17.8261666">
        <ele>21.767</ele>
        <time>2013-04-27T13:19:35Z</time>
      </trkpt>
      <trkpt lat="59.8649439" lon="17.8262416">
        <ele>21.767</ele>
        <time>2013-04-27T13:19:36Z</time>
      </trkpt>
      <trkpt lat="59.864981" lon="17.8263159">
        <ele>22.2476</ele>
        <time>2013-04-27T13:19:37Z</time>
      </trkpt>
      <trkpt lat="59.8650189" lon="17.8263882">
        <ele>22.2476</ele>
        <time>2013-04-27T13:19:38Z</time>
      </trkpt>
      <trkpt lat="59.8650572" lon="17.826455">
        <ele>22.7283</ele>
        <time>2013-04-27T13:19:39Z</time>
      </trkpt>
      <trkpt lat="59.8650965" lon="17.8265199">
        <ele>21.767</ele>
        <time>2013-04-27T13:19:40Z</time>
      </trkpt>
      <trkpt lat="59.8651365" lon="17.826581">
        <ele>20.8057</ele>
        <time>2013-04-27T13:19:41Z</time>
      </trkpt>
      <trkpt lat="59.8651811" lon="17.8266249">
        <ele>20.325</ele>
        <time>2013-04-27T13:19:42Z</time>
      </trkpt>
      <trkpt lat="59.8652308" lon="17.8266494">
        <ele>20.325</ele>
        <time>2013-04-27T13:19:43Z</time>
      </trkpt>
      <trkpt lat="59.8652795" lon="17.8266712">
        <ele>20.325</ele>
        <time>2013-04-27T13:19:44Z</time>
      </trkpt>
      <trkpt lat="59.8653308" lon="17.8266921">
        <ele>20.325</ele>
        <time>2013-04-27T13:19:45Z</time>
      </trkpt>
      <trkpt lat="59.8653826" lon="17.8267108">
        <ele>19.8444</ele>
        <time>2013-04-27T13:19:46Z</time>
      </trkpt>
      <trkpt lat="59.865439" lon="17.8267251">
        <ele>19.8444</ele>
        <time>2013-04-27T13:19:47Z</time>
      </trkpt>
      <trkpt lat="59.8654965" lon="17.8267379">
        <ele>19.3638</ele>
        <time>2013-04-27T13:19:48Z</time>
      </trkpt>
      <trkpt lat="59.8655556" lon="17.8267483">
        <ele>19.3638</ele>
        <time>2013-04-27T13:19:49Z</time>
      </trkpt>
      <trkpt lat="59.8656156" lon="17.8267555">
        <ele>18.8831</ele>
        <time>2013-04-27T13:19:50Z</time>
      </trkpt>
      <trkpt lat="59.8656758" lon="17.8267637">
        <ele>18.4023</ele>
        <time>2013-04-27T13:19:51Z</time>
      </trkpt>
      <trkpt lat="59.8657359" lon="17.8267726">
        <ele>18.4023</ele>
        <time>2013-04-27T13:19:52Z</time>
      </trkpt>
      <trkpt lat="59.8657937" lon="17.826783">
        <ele>18.4023</ele>
        <time>2013-04-27T13:19:53Z</time>
      </trkpt>
      <trkpt lat="59.8658477" lon="17.8267939">
        <ele>18.4023</ele>
        <time>2013-04-27T13:19:54Z</time>
      </trkpt>
      <trkpt lat="59.865897" lon="17.8268043">
        <ele>17.4412</ele>
        <time>2013-04-27T13:19:55Z</time>
      </trkpt>
      <trkpt lat="59.8659446" lon="17.8268048">
        <ele>16.4797</ele>
        <time>2013-04-27T13:19:56Z</time>
      </trkpt>
      <trkpt lat="59.8659957" lon="17.8268062">
        <ele>16.4797</ele>
        <time>2013-04-27T13:19:57Z</time>
      </trkpt>
      <trkpt lat="59.8660462" lon="17.8268128">
        <ele>15.999</ele>
        <time>2013-04-27T13:19:58Z</time>
      </trkpt>
      <trkpt lat="59.8660954" lon="17.8268192">
        <ele>15.5184</ele>
        <time>2013-04-27T13:19:59Z</time>
      </trkpt>
      <trkpt lat="59.8661454" lon="17.8268251">
        <ele>15.0377</ele>
        <time>2013-04-27T13:20:00Z</time>
      </trkpt>
      <trkpt lat="59.8661936" lon="17.8268307">
        <ele>14.557</ele>
        <time>2013-04-27T13:20:01Z</time>
      </trkpt>
      <trkpt lat="59.8662399" lon="17.8268303">
        <ele>13.1151</ele>
        <time>2013-04-27T13:20:02Z</time>
      </trkpt>
      <trkpt lat="59.8663415" lon="17.8268161">
        <ele>12.6344</ele>
        <time>2013-04-27T13:20:03Z</time>
      </trkpt>
      <trkpt lat="59.8663967" lon="17.8268006">
        <ele>12.6344</ele>
        <time>2013-04-27T13:20:04Z</time>
      </trkpt>
      <trkpt lat="59.8664564" lon="17.8267893">
        <ele>13.5958</ele>
        <time>2013-04-27T13:20:05Z</time>
      </trkpt>
      <trkpt lat="59.8665127" lon="17.8267709">
        <ele>13.5958</ele>
        <time>2013-04-27T13:20:06Z</time>
      </trkpt>
      <trkpt lat="59.8665709" lon="17.8267478">
        <ele>13.5958</ele>
        <time>2013-04-27T13:20:07Z</time>
      </trkpt>
      <trkpt lat="59.8666279" lon="17.8267228">
        <ele>13.1151</ele>
        <time>2013-04-27T13:20:08Z</time>
      </trkpt>
      <trkpt lat="59.8666827" lon="17.8266947">
        <ele>13.1151</ele>
        <time>2013-04-27T13:20:09Z</time>
      </trkpt>
      <trkpt lat="59.8667373" lon="17.8266685">
        <ele>13.1151</ele>
        <time>2013-04-27T13:20:10Z</time>
      </trkpt>
      <trkpt lat="59.8667911" lon="17.8266437">
        <ele>12.6344</ele>
        <time>2013-04-27T13:20:11Z</time>
      </trkpt>
      <trkpt lat="59.866843" lon="17.8266157">
        <ele>12.6344</ele>
        <time>2013-04-27T13:20:12Z</time>
      </trkpt>
      <trkpt lat="59.8668929" lon="17.8265837">
        <ele>12.6344</ele>
        <time>2013-04-27T13:20:13Z</time>
      </trkpt>
      <trkpt lat="59.8669431" lon="17.8265509">
        <ele>12.6344</ele>
        <time>2013-04-27T13:20:14Z</time>
      </trkpt>
      <trkpt lat="59.8669929" lon="17.8265173">
        <ele>13.1151</ele>
        <time>2013-04-27T13:20:15Z</time>
      </trkpt>
      <trkpt lat="59.8670459" lon="17.8264832">
        <ele>13.5958</ele>
        <time>2013-04-27T13:20:16Z</time>
      </trkpt>
      <trkpt lat="59.8670961" lon="17.8264528">
        <ele>13.5958</ele>
        <time>2013-04-27T13:20:17Z</time>
      </trkpt>
      <trkpt lat="59.8671454" lon="17.8264207">
        <ele>13.5958</ele>
        <time>2013-04-27T13:20:18Z</time>
      </trkpt>
      <trkpt lat="59.8671952" lon="17.8263867">
        <ele>13.5958</ele>
        <time>2013-04-27T13:20:19Z</time>
      </trkpt>
      <trkpt lat="59.8672439" lon="17.8263534">
        <ele>13.5958</ele>
        <time>2013-04-27T13:20:20Z</time>
      </trkpt>
      <trkpt lat="59.8672925" lon="17.8263198">
        <ele>13.5958</ele>
        <time>2013-04-27T13:20:21Z</time>
      </trkpt>
      <trkpt lat="59.8673381" lon="17.826284">
        <ele>13.5958</ele>
        <time>2013-04-27T13:20:22Z</time>
      </trkpt>
      <trkpt lat="59.8673899" lon="17.8262473">
        <ele>14.557</ele>
        <time>2013-04-27T13:20:23Z</time>
      </trkpt>
      <trkpt lat="59.8674351" lon="17.826213">
        <ele>14.557</ele>
        <time>2013-04-27T13:20:24Z</time>
      </trkpt>
      <trkpt lat="59.867479" lon="17.8261781">
        <ele>14.557</ele>
        <time>2013-04-27T13:20:25Z</time>
      </trkpt>
      <trkpt lat="59.8675226" lon="17.8261427">
        <ele>14.557</ele>
        <time>2013-04-27T13:20:26Z</time>
      </trkpt>
      <trkpt lat="59.8675669" lon="17.8261087">
        <ele>14.557</ele>
        <time>2013-04-27T13:20:27Z</time>
      </trkpt>
      <trkpt lat="59.8676111" lon="17.8260745">
        <ele>14.557</ele>
        <time>2013-04-27T13:20:28Z</time>
      </trkpt>
      <trkpt lat="59.8676576" lon="17.826038">
        <ele>14.557</ele>
        <time>2013-04-27T13:20:29Z</time>
      </trkpt>
      <trkpt lat="59.8677022" lon="17.8260037">
        <ele>14.557</ele>
        <time>2013-04-27T13:20:30Z</time>
      </trkpt>
      <trkpt lat="59.8677482" lon="17.825969">
        <ele>14.557</ele>
        <time>2013-04-27T13:20:31Z</time>
      </trkpt>
      <trkpt lat="59.8677951" lon="17.8259335">
        <ele>14.557</ele>
        <time>2013-04-27T13:20:32Z</time>
      </trkpt>
      <trkpt lat="59.8678431" lon="17.8258991">
        <ele>15.0377</ele>
        <time>2013-04-27T13:20:33Z</time>
      </trkpt>
      <trkpt lat="59.8678939" lon="17.8258642">
        <ele>15.5184</ele>
        <time>2013-04-27T13:20:34Z</time>
      </trkpt>
      <trkpt lat="59.867943" lon="17.8258304">
        <ele>15.999</ele>
        <time>2013-04-27T13:20:35Z</time>
      </trkpt>
      <trkpt lat="59.8679938" lon="17.8257946">
        <ele>16.9604</ele>
        <time>2013-04-27T13:20:36Z</time>
      </trkpt>
      <trkpt lat="59.8680449" lon="17.8257614">
        <ele>17.4412</ele>
        <time>2013-04-27T13:20:37Z</time>
      </trkpt>
      <trkpt lat="59.8680964" lon="17.825732">
        <ele>17.4412</ele>
        <time>2013-04-27T13:20:38Z</time>
      </trkpt>
      <trkpt lat="59.8681493" lon="17.8257076">
        <ele>17.4412</ele>
        <time>2013-04-27T13:20:39Z</time>
      </trkpt>
      <trkpt lat="59.8682048" lon="17.8256893">
        <ele>17.9218</ele>
        <time>2013-04-27T13:20:40Z</time>
      </trkpt>
      <trkpt lat="59.8682591" lon="17.8256833">
        <ele>17.9218</ele>
        <time>2013-04-27T13:20:41Z</time>
      </trkpt>
      <trkpt lat="59.868313" lon="17.8256874">
        <ele>18.4023</ele>
        <time>2013-04-27T13:20:42Z</time>
      </trkpt>
      <trkpt lat="59.8683651" lon="17.825704">
        <ele>18.4023</ele>
        <time>2013-04-27T13:20:43Z</time>
      </trkpt>
      <trkpt lat="59.8684169" lon="17.8257335">
        <ele>18.4023</ele>
        <time>2013-04-27T13:20:44Z</time>
      </trkpt>
      <trkpt lat="59.8684673" lon="17.8257712">
        <ele>18.4023</ele>
        <time>2013-04-27T13:20:45Z</time>
      </trkpt>
      <trkpt lat="59.8685181" lon="17.82582">
        <ele>18.4023</ele>
        <time>2013-04-27T13:20:46Z</time>
      </trkpt>
      <trkpt lat="59.8685721" lon="17.8258761">
        <ele>19.3638</ele>
        <time>2013-04-27T13:20:47Z</time>
      </trkpt>
      <trkpt lat="59.8686227" lon="17.8259395">
        <ele>19.8444</ele>
        <time>2013-04-27T13:20:48Z</time>
      </trkpt>
      <trkpt lat="59.8686704" lon="17.826008">
        <ele>19.8444</ele>
        <time>2013-04-27T13:20:49Z</time>
      </trkpt>
      <trkpt lat="59.8687179" lon="17.8260805">
        <ele>20.325</ele>
        <time>2013-04-27T13:20:50Z</time>
      </trkpt>
      <trkpt lat="59.8687656" lon="17.8261577">
        <ele>20.8057</ele>
        <time>2013-04-27T13:20:51Z</time>
      </trkpt>
      <trkpt lat="59.8688144" lon="17.8262368">
        <ele>21.2864</ele>
        <time>2013-04-27T13:20:52Z</time>
      </trkpt>
      <trkpt lat="59.8688626" lon="17.8263188">
        <ele>21.2864</ele>
        <time>2013-04-27T13:20:53Z</time>
      </trkpt>
      <trkpt lat="59.8689101" lon="17.8264038">
        <ele>21.2864</ele>
        <time>2013-04-27T13:20:54Z</time>
      </trkpt>
      <trkpt lat="59.8689572" lon="17.8264889">
        <ele>21.767</ele>
        <time>2013-04-27T13:20:55Z</time>
      </trkpt>
      <trkpt lat="59.869004" lon="17.8265747">
        <ele>22.2476</ele>
        <time>2013-04-27T13:20:56Z</time>
      </trkpt>
      <trkpt lat="59.8690507" lon="17.8266603">
        <ele>22.2476</ele>
        <time>2013-04-27T13:20:57Z</time>
      </trkpt>
      <trkpt lat="59.8690967" lon="17.8267456">
        <ele>22.7283</ele>
        <time>2013-04-27T13:20:58Z</time>
      </trkpt>
      <trkpt lat="59.8691434" lon="17.8268281">
        <ele>22.7283</ele>
        <time>2013-04-27T13:20:59Z</time>
      </trkpt>
      <trkpt lat="59.8691923" lon="17.8269064">
        <ele>23.209</ele>
        <time>2013-04-27T13:21:00Z</time>
      </trkpt>
      <trkpt lat="59.8692414" lon="17.8269814">
        <ele>23.6896</ele>
        <time>2013-04-27T13:21:01Z</time>
      </trkpt>
      <trkpt lat="59.8692904" lon="17.8270539">
        <ele>24.1703</ele>
        <time>2013-04-27T13:21:02Z</time>
      </trkpt>
      <trkpt lat="59.8693391" lon="17.8271268">
        <ele>24.651</ele>
        <time>2013-04-27T13:21:03Z</time>
      </trkpt>
      <trkpt lat="59.8693874" lon="17.8272029">
        <ele>25.1317</ele>
        <time>2013-04-27T13:21:04Z</time>
      </trkpt>
      <trkpt lat="59.8694338" lon="17.8272808">
        <ele>25.6123</ele>
        <time>2013-04-27T13:21:05Z</time>
      </trkpt>
      <trkpt lat="59.8694785" lon="17.8273605">
        <ele>25.6123</ele>
        <time>2013-04-27T13:21:06Z</time>
      </trkpt>
      <trkpt lat="59.8695231" lon="17.8274398">
        <ele>25.6123</ele>
        <time>2013-04-27T13:21:07Z</time>
      </trkpt>
      <trkpt lat="59.8695686" lon="17.8275182">
        <ele>25.6123</ele>
        <time>2013-04-27T13:21:08Z</time>
      </trkpt>
      <trkpt lat="59.8696137" lon="17.8276004">
        <ele>25.1317</ele>
        <time>2013-04-27T13:21:09Z</time>
      </trkpt>
      <trkpt lat="59.8696603" lon="17.8276838">
        <ele>25.1317</ele>
        <time>2013-04-27T13:21:10Z</time>
      </trkpt>
      <trkpt lat="59.8697101" lon="17.8277635">
        <ele>24.651</ele>
        <time>2013-04-27T13:21:11Z</time>
      </trkpt>
      <trkpt lat="59.8697617" lon="17.8278434">
        <ele>24.651</ele>
        <time>2013-04-27T13:21:12Z</time>
      </trkpt>
      <trkpt lat="59.8698148" lon="17.8279215">
        <ele>24.651</ele>
        <time>2013-04-27T13:21:13Z</time>
      </trkpt>
      <trkpt lat="59.86987" lon="17.8279956">
        <ele>24.1703</ele>
        <time>2013-04-27T13:21:14Z</time>
      </trkpt>
      <trkpt lat="59.8699269" lon="17.8280661">
        <ele>24.1703</ele>
        <time>2013-04-27T13:21:15Z</time>
      </trkpt>
      <trkpt lat="59.869985" lon="17.8281338">
        <ele>23.6896</ele>
        <time>2013-04-27T13:21:16Z</time>
      </trkpt>
      <trkpt lat="59.8700439" lon="17.8281987">
        <ele>23.6896</ele>
        <time>2013-04-27T13:21:17Z</time>
      </trkpt>
      <trkpt lat="59.8701032" lon="17.8282619">
        <ele>23.209</ele>
        <time>2013-04-27T13:21:18Z</time>
      </trkpt>
      <trkpt lat="59.8701631" lon="17.8283244">
        <ele>23.209</ele>
        <time>2013-04-27T13:21:19Z</time>
      </trkpt>
      <trkpt lat="59.8702234" lon="17.8283852">
        <ele>22.7283</ele>
        <time>2013-04-27T13:21:20Z</time>
      </trkpt>
      <trkpt lat="59.8702848" lon="17.8284433">
        <ele>22.7283</ele>
        <time>2013-04-27T13:21:21Z</time>
      </trkpt>
      <trkpt lat="59.8703461" lon="17.8285016">
        <ele>22.7283</ele>
        <time>2013-04-27T13:21:22Z</time>
      </trkpt>
      <trkpt lat="59.8704076" lon="17.8285603">
        <ele>22.7283</ele>
        <time>2013-04-27T13:21:23Z</time>
      </trkpt>
      <trkpt lat="59.87047" lon="17.8286191">
        <ele>22.7283</ele>
        <time>2013-04-27T13:21:24Z</time>
      </trkpt>
      <trkpt lat="59.8705336" lon="17.8286778">
        <ele>22.2476</ele>
        <time>2013-04-27T13:21:25Z</time>
      </trkpt>
      <trkpt lat="59.8705982" lon="17.828737">
        <ele>22.2476</ele>
        <time>2013-04-27T13:21:26Z</time>
      </trkpt>
      <trkpt lat="59.8706635" lon="17.8288007">
        <ele>22.2476</ele>
        <time>2013-04-27T13:21:27Z</time>
      </trkpt>
      <trkpt lat="59.8707296" lon="17.8288667">
        <ele>22.2476</ele>
        <time>2013-04-27T13:21:28Z</time>
      </trkpt>
      <trkpt lat="59.8707968" lon="17.8289317">
        <ele>22.2476</ele>
        <time>2013-04-27T13:21:29Z</time>
      </trkpt>
      <trkpt lat="59.8708642" lon="17.8289959">
        <ele>22.2476</ele>
        <time>2013-04-27T13:21:30Z</time>
      </trkpt>
      <trkpt lat="59.8709318" lon="17.8290591">
        <ele>22.2476</ele>
        <time>2013-04-27T13:21:31Z</time>
      </trkpt>
      <trkpt lat="59.8709979" lon="17.8291203">
        <ele>22.2476</ele>
        <time>2013-04-27T13:21:32Z</time>
      </trkpt>
      <trkpt lat="59.8710622" lon="17.8291802">
        <ele>22.2476</ele>
        <time>2013-04-27T13:21:33Z</time>
      </trkpt>
      <trkpt lat="59.8711242" lon="17.8292374">
        <ele>21.767</ele>
        <time>2013-04-27T13:21:34Z</time>
      </trkpt>
      <trkpt lat="59.8711842" lon="17.8292922">
        <ele>21.767</ele>
        <time>2013-04-27T13:21:35Z</time>
      </trkpt>
      <trkpt lat="59.8712421" lon="17.8293446">
        <ele>21.767</ele>
        <time>2013-04-27T13:21:36Z</time>
      </trkpt>
      <trkpt lat="59.8712965" lon="17.829398">
        <ele>21.767</ele>
        <time>2013-04-27T13:21:37Z</time>
      </trkpt>
      <trkpt lat="59.8713486" lon="17.8294508">
        <ele>22.2476</ele>
        <time>2013-04-27T13:21:38Z</time>
      </trkpt>
      <trkpt lat="59.8713998" lon="17.8294994">
        <ele>22.2476</ele>
        <time>2013-04-27T13:21:39Z</time>
      </trkpt>
      <trkpt lat="59.8714509" lon="17.8295446">
        <ele>22.2476</ele>
        <time>2013-04-27T13:21:40Z</time>
      </trkpt>
      <trkpt lat="59.8715003" lon="17.829592">
        <ele>22.2476</ele>
        <time>2013-04-27T13:21:41Z</time>
      </trkpt>
      <trkpt lat="59.8715485" lon="17.8296389">
        <ele>22.7283</ele>
        <time>2013-04-27T13:21:42Z</time>
      </trkpt>
      <trkpt lat="59.8715969" lon="17.8296828">
        <ele>22.7283</ele>
        <time>2013-04-27T13:21:43Z</time>
      </trkpt>
      <trkpt lat="59.8716462" lon="17.8297261">
        <ele>23.209</ele>
        <time>2013-04-27T13:21:44Z</time>
      </trkpt>
      <trkpt lat="59.8716943" lon="17.829772">
        <ele>23.6896</ele>
        <time>2013-04-27T13:21:45Z</time>
      </trkpt>
      <trkpt lat="59.871743" lon="17.8298175">
        <ele>23.6896</ele>
        <time>2013-04-27T13:21:46Z</time>
      </trkpt>
      <trkpt lat="59.8717914" lon="17.8298625">
        <ele>23.6896</ele>
        <time>2013-04-27T13:21:47Z</time>
      </trkpt>
      <trkpt lat="59.8718396" lon="17.8299087">
        <ele>23.6896</ele>
        <time>2013-04-27T13:21:48Z</time>
      </trkpt>
      <trkpt lat="59.8718862" lon="17.8299551">
        <ele>24.1703</ele>
        <time>2013-04-27T13:21:49Z</time>
      </trkpt>
      <trkpt lat="59.8719321" lon="17.8299994">
        <ele>24.1703</ele>
        <time>2013-04-27T13:21:50Z</time>
      </trkpt>
      <trkpt lat="59.8719758" lon="17.830045">
        <ele>23.6896</ele>
        <time>2013-04-27T13:21:51Z</time>
      </trkpt>
      <trkpt lat="59.8720205" lon="17.8300901">
        <ele>23.6896</ele>
        <time>2013-04-27T13:21:52Z</time>
      </trkpt>
      <trkpt lat="59.872066" lon="17.8301356">
        <ele>23.209</ele>
        <time>2013-04-27T13:21:53Z</time>
      </trkpt>
      <trkpt lat="59.8721131" lon="17.830182">
        <ele>23.209</ele>
        <time>2013-04-27T13:21:54Z</time>
      </trkpt>
      <trkpt lat="59.8721602" lon="17.8302298">
        <ele>23.209</ele>
        <time>2013-04-27T13:21:55Z</time>
      </trkpt>
      <trkpt lat="59.8722089" lon="17.8302752">
        <ele>22.7283</ele>
        <time>2013-04-27T13:21:56Z</time>
      </trkpt>
      <trkpt lat="59.872259" lon="17.8303189">
        <ele>22.7283</ele>
        <time>2013-04-27T13:21:57Z</time>
      </trkpt>
      <trkpt lat="59.872309" lon="17.830365">
        <ele>22.7283</ele>
        <time>2013-04-27T13:21:58Z</time>
      </trkpt>
      <trkpt lat="59.8723581" lon="17.8304094">
        <ele>22.7283</ele>
        <time>2013-04-27T13:21:59Z</time>
      </trkpt>
      <trkpt lat="59.8724063" lon="17.8304508">
        <ele>22.7283</ele>
        <time>2013-04-27T13:22:00Z</time>
      </trkpt>
      <trkpt lat="59.8724537" lon="17.8304899">
        <ele>22.7283</ele>
        <time>2013-04-27T13:22:01Z</time>
      </trkpt>
      <trkpt lat="59.8724995" lon="17.8305263">
        <ele>22.7283</ele>
        <time>2013-04-27T13:22:02Z</time>
      </trkpt>
      <trkpt lat="59.8725436" lon="17.8305582">
        <ele>22.7283</ele>
        <time>2013-04-27T13:22:03Z</time>
      </trkpt>
      <trkpt lat="59.8725879" lon="17.8305856">
        <ele>22.7283</ele>
        <time>2013-04-27T13:22:04Z</time>
      </trkpt>
      <trkpt lat="59.8726319" lon="17.8306137">
        <ele>23.209</ele>
        <time>2013-04-27T13:22:05Z</time>
      </trkpt>
      <trkpt lat="59.8726728" lon="17.8306436">
        <ele>23.209</ele>
        <time>2013-04-27T13:22:06Z</time>
      </trkpt>
      <trkpt lat="59.8727114" lon="17.8306691">
        <ele>23.209</ele>
        <time>2013-04-27T13:22:07Z</time>
      </trkpt>
      <trkpt lat="59.8727513" lon="17.8306882">
        <ele>23.209</ele>
        <time>2013-04-27T13:22:08Z</time>
      </trkpt>
      <trkpt lat="59.8727921" lon="17.8307028">
        <ele>22.7283</ele>
        <time>2013-04-27T13:22:09Z</time>
      </trkpt>
      <trkpt lat="59.8728356" lon="17.8307168">
        <ele>22.7283</ele>
        <time>2013-04-27T13:22:10Z</time>
      </trkpt>
      <trkpt lat="59.8728802" lon="17.8307327">
        <ele>22.7283</ele>
        <time>2013-04-27T13:22:11Z</time>
      </trkpt>
      <trkpt lat="59.8729259" lon="17.8307508">
        <ele>23.209</ele>
        <time>2013-04-27T13:22:12Z</time>
      </trkpt>
      <trkpt lat="59.8729725" lon="17.8307706">
        <ele>23.209</ele>
        <time>2013-04-27T13:22:13Z</time>
      </trkpt>
      <trkpt lat="59.8730156" lon="17.8307951">
        <ele>23.209</ele>
        <time>2013-04-27T13:22:14Z</time>
      </trkpt>
      <trkpt lat="59.8730562" lon="17.8308261">
        <ele>23.209</ele>
        <time>2013-04-27T13:22:15Z</time>
      </trkpt>
      <trkpt lat="59.8730951" lon="17.8308575">
        <ele>23.209</ele>
        <time>2013-04-27T13:22:16Z</time>
      </trkpt>
      <trkpt lat="59.8731339" lon="17.8308894">
        <ele>23.6896</ele>
        <time>2013-04-27T13:22:17Z</time>
      </trkpt>
      <trkpt lat="59.8731729" lon="17.830921">
        <ele>23.6896</ele>
        <time>2013-04-27T13:22:18Z</time>
      </trkpt>
      <trkpt lat="59.8732119" lon="17.8309519">
        <ele>23.6896</ele>
        <time>2013-04-27T13:22:19Z</time>
      </trkpt>
      <trkpt lat="59.8732509" lon="17.8309833">
        <ele>24.1703</ele>
        <time>2013-04-27T13:22:20Z</time>
      </trkpt>
      <trkpt lat="59.873289" lon="17.8310136">
        <ele>24.1703</ele>
        <time>2013-04-27T13:22:21Z</time>
      </trkpt>
      <trkpt lat="59.8733268" lon="17.8310424">
        <ele>24.651</ele>
        <time>2013-04-27T13:22:22Z</time>
      </trkpt>
      <trkpt lat="59.873364" lon="17.8310738">
        <ele>24.651</ele>
        <time>2013-04-27T13:22:23Z</time>
      </trkpt>
      <trkpt lat="59.8734012" lon="17.8311074">
        <ele>24.651</ele>
        <time>2013-04-27T13:22:24Z</time>
      </trkpt>
      <trkpt lat="59.8734392" lon="17.8311414">
        <ele>25.1317</ele>
        <time>2013-04-27T13:22:25Z</time>
      </trkpt>
      <trkpt lat="59.873477" lon="17.8311752">
        <ele>25.1317</ele>
        <time>2013-04-27T13:22:26Z</time>
      </trkpt>
      <trkpt lat="59.8735148" lon="17.8312094">
        <ele>25.6123</ele>
        <time>2013-04-27T13:22:27Z</time>
      </trkpt>
      <trkpt lat="59.873551" lon="17.8312467">
        <ele>25.6123</ele>
        <time>2013-04-27T13:22:28Z</time>
      </trkpt>
      <trkpt lat="59.8735857" lon="17.8312867">
        <ele>26.0929</ele>
        <time>2013-04-27T13:22:29Z</time>
      </trkpt>
      <trkpt lat="59.8736191" lon="17.8313269">
        <ele>26.0929</ele>
        <time>2013-04-27T13:22:30Z</time>
      </trkpt>
      <trkpt lat="59.873652" lon="17.8313674">
        <ele>26.0929</ele>
        <time>2013-04-27T13:22:31Z</time>
      </trkpt>
      <trkpt lat="59.8736838" lon="17.8314091">
        <ele>26.5736</ele>
        <time>2013-04-27T13:22:32Z</time>
      </trkpt>
      <trkpt lat="59.8737161" lon="17.8314516">
        <ele>26.5736</ele>
        <time>2013-04-27T13:22:33Z</time>
      </trkpt>
      <trkpt lat="59.8737482" lon="17.8314943">
        <ele>27.0543</ele>
        <time>2013-04-27T13:22:34Z</time>
      </trkpt>
      <trkpt lat="59.8737824" lon="17.8315355">
        <ele>27.5349</ele>
        <time>2013-04-27T13:22:35Z</time>
      </trkpt>
      <trkpt lat="59.8738183" lon="17.8315755">
        <ele>28.4962</ele>
        <time>2013-04-27T13:22:36Z</time>
      </trkpt>
      <trkpt lat="59.8738556" lon="17.8316166">
        <ele>28.9769</ele>
        <time>2013-04-27T13:22:37Z</time>
      </trkpt>
      <trkpt lat="59.8738933" lon="17.831658">
        <ele>29.9381</ele>
        <time>2013-04-27T13:22:38Z</time>
      </trkpt>
      <trkpt lat="59.873933" lon="17.831702">
        <ele>30.4188</ele>
        <time>2013-04-27T13:22:39Z</time>
      </trkpt>
      <trkpt lat="59.8739739" lon="17.8317479">
        <ele>31.3801</ele>
        <time>2013-04-27T13:22:40Z</time>
      </trkpt>
      <trkpt lat="59.8740147" lon="17.8317932">
        <ele>32.3416</ele>
        <time>2013-04-27T13:22:41Z</time>
      </trkpt>
      <trkpt lat="59.8740529" lon="17.8318388">
        <ele>32.8223</ele>
        <time>2013-04-27T13:22:42Z</time>
      </trkpt>
      <trkpt lat="59.8740928" lon="17.8318854">
        <ele>33.3029</ele>
        <time>2013-04-27T13:22:43Z</time>
      </trkpt>
      <trkpt lat="59.8741303" lon="17.8319319">
        <ele>33.7834</ele>
        <time>2013-04-27T13:22:44Z</time>
      </trkpt>
      <trkpt lat="59.8741691" lon="17.8319753">
        <ele>33.7834</ele>
        <time>2013-04-27T13:22:45Z</time>
      </trkpt>
      <trkpt lat="59.8742096" lon="17.8320183">
        <ele>34.2642</ele>
        <time>2013-04-27T13:22:46Z</time>
      </trkpt>
      <trkpt lat="59.8742512" lon="17.8320625">
        <ele>34.2642</ele>
        <time>2013-04-27T13:22:47Z</time>
      </trkpt>
      <trkpt lat="59.8742921" lon="17.8321087">
        <ele>34.2642</ele>
        <time>2013-04-27T13:22:48Z</time>
      </trkpt>
      <trkpt lat="59.8743346" lon="17.8321532">
        <ele>34.2642</ele>
        <time>2013-04-27T13:22:49Z</time>
      </trkpt>
      <trkpt lat="59.8743772" lon="17.8321916">
        <ele>34.2642</ele>
        <time>2013-04-27T13:22:50Z</time>
      </trkpt>
      <trkpt lat="59.8744259" lon="17.8322283">
        <ele>34.7449</ele>
        <time>2013-04-27T13:22:51Z</time>
      </trkpt>
      <trkpt lat="59.874479" lon="17.8322616">
        <ele>35.2255</ele>
        <time>2013-04-27T13:22:52Z</time>
      </trkpt>
      <trkpt lat="59.8745343" lon="17.8322918">
        <ele>35.2255</ele>
        <time>2013-04-27T13:22:53Z</time>
      </trkpt>
      <trkpt lat="59.8745911" lon="17.8323193">
        <ele>34.7449</ele>
        <time>2013-04-27T13:22:54Z</time>
      </trkpt>
      <trkpt lat="59.8746524" lon="17.8323454">
        <ele>34.2642</ele>
        <time>2013-04-27T13:22:55Z</time>
      </trkpt>
      <trkpt lat="59.8747156" lon="17.8323661">
        <ele>34.7449</ele>
        <time>2013-04-27T13:22:56Z</time>
      </trkpt>
      <trkpt lat="59.8747775" lon="17.8323823">
        <ele>34.2642</ele>
        <time>2013-04-27T13:22:57Z</time>
      </trkpt>
      <trkpt lat="59.8748416" lon="17.8324008">
        <ele>33.7834</ele>
        <time>2013-04-27T13:22:58Z</time>
      </trkpt>
      <trkpt lat="59.8749031" lon="17.8324224">
        <ele>33.3029</ele>
        <time>2013-04-27T13:22:59Z</time>
      </trkpt>
      <trkpt lat="59.8749652" lon="17.8324418">
        <ele>32.8223</ele>
        <time>2013-04-27T13:23:00Z</time>
      </trkpt>
      <trkpt lat="59.8750253" lon="17.8324594">
        <ele>32.3416</ele>
        <time>2013-04-27T13:23:01Z</time>
      </trkpt>
      <trkpt lat="59.8750878" lon="17.8324763">
        <ele>32.3416</ele>
        <time>2013-04-27T13:23:02Z</time>
      </trkpt>
      <trkpt lat="59.8751507" lon="17.832494">
        <ele>31.8607</ele>
        <time>2013-04-27T13:23:03Z</time>
      </trkpt>
      <trkpt lat="59.8752123" lon="17.8325142">
        <ele>31.8607</ele>
        <time>2013-04-27T13:23:04Z</time>
      </trkpt>
      <trkpt lat="59.8752735" lon="17.8325379">
        <ele>31.3801</ele>
        <time>2013-04-27T13:23:05Z</time>
      </trkpt>
      <trkpt lat="59.8753342" lon="17.8325628">
        <ele>30.8995</ele>
        <time>2013-04-27T13:23:06Z</time>
      </trkpt>
      <trkpt lat="59.8753936" lon="17.83259">
        <ele>30.4188</ele>
        <time>2013-04-27T13:23:07Z</time>
      </trkpt>
      <trkpt lat="59.8754478" lon="17.8326234">
        <ele>29.4575</ele>
        <time>2013-04-27T13:23:08Z</time>
      </trkpt>
      <trkpt lat="59.8755072" lon="17.8326629">
        <ele>29.4575</ele>
        <time>2013-04-27T13:23:09Z</time>
      </trkpt>
      <trkpt lat="59.8755668" lon="17.8327101">
        <ele>29.4575</ele>
        <time>2013-04-27T13:23:10Z</time>
      </trkpt>
      <trkpt lat="59.8756251" lon="17.832763">
        <ele>29.4575</ele>
        <time>2013-04-27T13:23:11Z</time>
      </trkpt>
      <trkpt lat="59.8756812" lon="17.8328183">
        <ele>28.9769</ele>
        <time>2013-04-27T13:23:12Z</time>
      </trkpt>
      <trkpt lat="59.8757367" lon="17.8328737">
        <ele>28.9769</ele>
        <time>2013-04-27T13:23:13Z</time>
      </trkpt>
      <trkpt lat="59.8757992" lon="17.832928">
        <ele>29.9381</ele>
        <time>2013-04-27T13:23:14Z</time>
      </trkpt>
      <trkpt lat="59.8758545" lon="17.8329854">
        <ele>29.9381</ele>
        <time>2013-04-27T13:23:15Z</time>
      </trkpt>
      <trkpt lat="59.8759104" lon="17.8330431">
        <ele>29.4575</ele>
        <time>2013-04-27T13:23:16Z</time>
      </trkpt>
      <trkpt lat="59.8759677" lon="17.8330991">
        <ele>28.9769</ele>
        <time>2013-04-27T13:23:17Z</time>
      </trkpt>
      <trkpt lat="59.8760301" lon="17.8331489">
        <ele>28.9769</ele>
        <time>2013-04-27T13:23:18Z</time>
      </trkpt>
      <trkpt lat="59.8760884" lon="17.8331954">
        <ele>28.4962</ele>
        <time>2013-04-27T13:23:19Z</time>
      </trkpt>
      <trkpt lat="59.8761489" lon="17.8332365">
        <ele>28.9769</ele>
        <time>2013-04-27T13:23:20Z</time>
      </trkpt>
      <trkpt lat="59.8762036" lon="17.8333063">
        <ele>28.4962</ele>
        <time>2013-04-27T13:23:21Z</time>
      </trkpt>
      <trkpt lat="59.8762682" lon="17.8333592">
        <ele>28.4962</ele>
        <time>2013-04-27T13:23:22Z</time>
      </trkpt>
      <trkpt lat="59.8763163" lon="17.8333869">
        <ele>28.0155</ele>
        <time>2013-04-27T13:23:23Z</time>
      </trkpt>
      <trkpt lat="59.8763661" lon="17.8334265">
        <ele>27.0543</ele>
        <time>2013-04-27T13:23:24Z</time>
      </trkpt>
      <trkpt lat="59.8764127" lon="17.8334623">
        <ele>26.5736</ele>
        <time>2013-04-27T13:23:25Z</time>
      </trkpt>
      <trkpt lat="59.8764621" lon="17.833499">
        <ele>26.5736</ele>
        <time>2013-04-27T13:23:26Z</time>
      </trkpt>
      <trkpt lat="59.8765186" lon="17.8335378">
        <ele>26.0929</ele>
        <time>2013-04-27T13:23:27Z</time>
      </trkpt>
      <trkpt lat="59.8765742" lon="17.8335746">
        <ele>26.0929</ele>
        <time>2013-04-27T13:23:28Z</time>
      </trkpt>
      <trkpt lat="59.8766328" lon="17.8336089">
        <ele>25.6123</ele>
        <time>2013-04-27T13:23:29Z</time>
      </trkpt>
      <trkpt lat="59.8766947" lon="17.8336466">
        <ele>25.1317</ele>
        <time>2013-04-27T13:23:30Z</time>
      </trkpt>
      <trkpt lat="59.8767586" lon="17.833686">
        <ele>24.1703</ele>
        <time>2013-04-27T13:23:31Z</time>
      </trkpt>
      <trkpt lat="59.8768232" lon="17.8337369">
        <ele>23.209</ele>
        <time>2013-04-27T13:23:32Z</time>
      </trkpt>
      <trkpt lat="59.8768959" lon="17.8338006">
        <ele>22.7283</ele>
        <time>2013-04-27T13:23:33Z</time>
      </trkpt>
      <trkpt lat="59.8769656" lon="17.8338585">
        <ele>22.2476</ele>
        <time>2013-04-27T13:23:34Z</time>
      </trkpt>
      <trkpt lat="59.8770372" lon="17.8339233">
        <ele>22.2476</ele>
        <time>2013-04-27T13:23:35Z</time>
      </trkpt>
      <trkpt lat="59.8771153" lon="17.8339874">
        <ele>23.209</ele>
        <time>2013-04-27T13:23:36Z</time>
      </trkpt>
      <trkpt lat="59.8771911" lon="17.8340605">
        <ele>23.209</ele>
        <time>2013-04-27T13:23:37Z</time>
      </trkpt>
      <trkpt lat="59.8772655" lon="17.8341412">
        <ele>24.1703</ele>
        <time>2013-04-27T13:23:38Z</time>
      </trkpt>
      <trkpt lat="59.8773367" lon="17.8342254">
        <ele>24.1703</ele>
        <time>2013-04-27T13:23:39Z</time>
      </trkpt>
      <trkpt lat="59.8774065" lon="17.8343118">
        <ele>24.651</ele>
        <time>2013-04-27T13:23:40Z</time>
      </trkpt>
      <trkpt lat="59.8774754" lon="17.8343965">
        <ele>24.651</ele>
        <time>2013-04-27T13:23:41Z</time>
      </trkpt>
      <trkpt lat="59.8775475" lon="17.8344784">
        <ele>25.6123</ele>
        <time>2013-04-27T13:23:42Z</time>
      </trkpt>
      <trkpt lat="59.8776114" lon="17.834559">
        <ele>26.0929</ele>
        <time>2013-04-27T13:23:43Z</time>
      </trkpt>
      <trkpt lat="59.8776794" lon="17.8346364">
        <ele>27.0543</ele>
        <time>2013-04-27T13:23:44Z</time>
      </trkpt>
      <trkpt lat="59.8777457" lon="17.8347127">
        <ele>27.5349</ele>
        <time>2013-04-27T13:23:45Z</time>
      </trkpt>
      <trkpt lat="59.8778098" lon="17.8347867">
        <ele>28.0155</ele>
        <time>2013-04-27T13:23:46Z</time>
      </trkpt>
      <trkpt lat="59.8778718" lon="17.8348592">
        <ele>28.4962</ele>
        <time>2013-04-27T13:23:47Z</time>
      </trkpt>
      <trkpt lat="59.8779697" lon="17.8349244">
        <ele>28.9769</ele>
        <time>2013-04-27T13:23:48Z</time>
      </trkpt>
      <trkpt lat="59.8780363" lon="17.8349956">
        <ele>29.4575</ele>
        <time>2013-04-27T13:23:49Z</time>
      </trkpt>
      <trkpt lat="59.8781008" lon="17.8350612">
        <ele>29.9381</ele>
        <time>2013-04-27T13:23:50Z</time>
      </trkpt>
      <trkpt lat="59.8781653" lon="17.8351257">
        <ele>30.4188</ele>
        <time>2013-04-27T13:23:51Z</time>
      </trkpt>
      <trkpt lat="59.8782062" lon="17.835192">
        <ele>30.4188</ele>
        <time>2013-04-27T13:23:52Z</time>
      </trkpt>
      <trkpt lat="59.8782863" lon="17.8352524">
        <ele>31.3801</ele>
        <time>2013-04-27T13:23:53Z</time>
      </trkpt>
      <trkpt lat="59.8783618" lon="17.8353171">
        <ele>31.8607</ele>
        <time>2013-04-27T13:23:54Z</time>
      </trkpt>
      <trkpt lat="59.8784197" lon="17.8353774">
        <ele>31.8607</ele>
        <time>2013-04-27T13:23:55Z</time>
      </trkpt>
      <trkpt lat="59.8784932" lon="17.8354359">
        <ele>32.8223</ele>
        <time>2013-04-27T13:23:56Z</time>
      </trkpt>
      <trkpt lat="59.8785649" lon="17.8354891">
        <ele>33.3029</ele>
        <time>2013-04-27T13:23:57Z</time>
      </trkpt>
      <trkpt lat="59.8786318" lon="17.8355426">
        <ele>33.3029</ele>
        <time>2013-04-27T13:23:58Z</time>
      </trkpt>
      <trkpt lat="59.8786981" lon="17.8355916">
        <ele>33.7834</ele>
        <time>2013-04-27T13:23:59Z</time>
      </trkpt>
      <trkpt lat="59.8787664" lon="17.8356437">
        <ele>33.3029</ele>
        <time>2013-04-27T13:24:00Z</time>
      </trkpt>
      <trkpt lat="59.8788306" lon="17.835698">
        <ele>31.8607</ele>
        <time>2013-04-27T13:24:01Z</time>
      </trkpt>
      <trkpt lat="59.8788941" lon="17.8357407">
        <ele>30.8995</ele>
        <time>2013-04-27T13:24:02Z</time>
      </trkpt>
      <trkpt lat="59.8789565" lon="17.8357746">
        <ele>29.9381</ele>
        <time>2013-04-27T13:24:03Z</time>
      </trkpt>
      <trkpt lat="59.8790206" lon="17.8358029">
        <ele>28.9769</ele>
        <time>2013-04-27T13:24:04Z</time>
      </trkpt>
      <trkpt lat="59.8790877" lon="17.8358207">
        <ele>28.9769</ele>
        <time>2013-04-27T13:24:05Z</time>
      </trkpt>
      <trkpt lat="59.8791575" lon="17.8358337">
        <ele>29.4575</ele>
        <time>2013-04-27T13:24:06Z</time>
      </trkpt>
      <trkpt lat="59.8792299" lon="17.8358466">
        <ele>29.4575</ele>
        <time>2013-04-27T13:24:07Z</time>
      </trkpt>
      <trkpt lat="59.8793052" lon="17.8358576">
        <ele>29.4575</ele>
        <time>2013-04-27T13:24:08Z</time>
      </trkpt>
      <trkpt lat="59.8793803" lon="17.8358631">
        <ele>29.4575</ele>
        <time>2013-04-27T13:24:09Z</time>
      </trkpt>
      <trkpt lat="59.8794578" lon="17.8358705">
        <ele>29.4575</ele>
        <time>2013-04-27T13:24:10Z</time>
      </trkpt>
      <trkpt lat="59.87953" lon="17.8358751">
        <ele>28.9769</ele>
        <time>2013-04-27T13:24:11Z</time>
      </trkpt>
      <trkpt lat="59.8795938" lon="17.8358787">
        <ele>28.0155</ele>
        <time>2013-04-27T13:24:12Z</time>
      </trkpt>
      <trkpt lat="59.8796562" lon="17.8358761">
        <ele>27.0543</ele>
        <time>2013-04-27T13:24:13Z</time>
      </trkpt>
      <trkpt lat="59.8797152" lon="17.8358814">
        <ele>27.0543</ele>
        <time>2013-04-27T13:24:14Z</time>
      </trkpt>
      <trkpt lat="59.8797699" lon="17.8358921">
        <ele>26.5736</ele>
        <time>2013-04-27T13:24:15Z</time>
      </trkpt>
      <trkpt lat="59.879823" lon="17.8359024">
        <ele>26.5736</ele>
        <time>2013-04-27T13:24:16Z</time>
      </trkpt>
      <trkpt lat="59.8798744" lon="17.8359187">
        <ele>26.5736</ele>
        <time>2013-04-27T13:24:17Z</time>
      </trkpt>
      <trkpt lat="59.8799273" lon="17.8359391">
        <ele>26.0929</ele>
        <time>2013-04-27T13:24:18Z</time>
      </trkpt>
      <trkpt lat="59.8799813" lon="17.835969">
        <ele>26.0929</ele>
        <time>2013-04-27T13:24:19Z</time>
      </trkpt>
      <trkpt lat="59.8800371" lon="17.8360101">
        <ele>26.0929</ele>
        <time>2013-04-27T13:24:20Z</time>
      </trkpt>
      <trkpt lat="59.880096" lon="17.8360588">
        <ele>25.6123</ele>
        <time>2013-04-27T13:24:21Z</time>
      </trkpt>
      <trkpt lat="59.8801553" lon="17.8361159">
        <ele>24.651</ele>
        <time>2013-04-27T13:24:22Z</time>
      </trkpt>
      <trkpt lat="59.8802303" lon="17.8361782">
        <ele>26.5736</ele>
        <time>2013-04-27T13:24:23Z</time>
      </trkpt>
      <trkpt lat="59.8803002" lon="17.8362463">
        <ele>28.0155</ele>
        <time>2013-04-27T13:24:24Z</time>
      </trkpt>
      <trkpt lat="59.8803682" lon="17.8363171">
        <ele>28.4962</ele>
        <time>2013-04-27T13:24:25Z</time>
      </trkpt>
      <trkpt lat="59.8804308" lon="17.8363935">
        <ele>28.4962</ele>
        <time>2013-04-27T13:24:26Z</time>
      </trkpt>
      <trkpt lat="59.8804923" lon="17.8364738">
        <ele>28.0155</ele>
        <time>2013-04-27T13:24:27Z</time>
      </trkpt>
      <trkpt lat="59.8805541" lon="17.8365547">
        <ele>28.4962</ele>
        <time>2013-04-27T13:24:28Z</time>
      </trkpt>
      <trkpt lat="59.8806142" lon="17.8366371">
        <ele>28.4962</ele>
        <time>2013-04-27T13:24:29Z</time>
      </trkpt>
      <trkpt lat="59.8806701" lon="17.836722">
        <ele>28.0155</ele>
        <time>2013-04-27T13:24:30Z</time>
      </trkpt>
      <trkpt lat="59.880724" lon="17.8368069">
        <ele>28.0155</ele>
        <time>2013-04-27T13:24:31Z</time>
      </trkpt>
      <trkpt lat="59.8807758" lon="17.8368931">
        <ele>28.4962</ele>
        <time>2013-04-27T13:24:32Z</time>
      </trkpt>
      <trkpt lat="59.8808198" lon="17.8369799">
        <ele>28.4962</ele>
        <time>2013-04-27T13:24:33Z</time>
      </trkpt>
      <trkpt lat="59.8808705" lon="17.837066">
        <ele>28.9769</ele>
        <time>2013-04-27T13:24:34Z</time>
      </trkpt>
      <trkpt lat="59.8809265" lon="17.83715">
        <ele>29.4575</ele>
        <time>2013-04-27T13:24:35Z</time>
      </trkpt>
      <trkpt lat="59.880986" lon="17.8372423">
        <ele>29.9381</ele>
        <time>2013-04-27T13:24:36Z</time>
      </trkpt>
      <trkpt lat="59.8810451" lon="17.8373329">
        <ele>29.9381</ele>
        <time>2013-04-27T13:24:37Z</time>
      </trkpt>
      <trkpt lat="59.8811024" lon="17.8373995">
        <ele>30.8995</ele>
        <time>2013-04-27T13:24:38Z</time>
      </trkpt>
      <trkpt lat="59.88116" lon="17.8374814">
        <ele>30.8995</ele>
        <time>2013-04-27T13:24:39Z</time>
      </trkpt>
      <trkpt lat="59.8812187" lon="17.8375634">
        <ele>31.3801</ele>
        <time>2013-04-27T13:24:40Z</time>
      </trkpt>
      <trkpt lat="59.8812777" lon="17.8376472">
        <ele>31.8607</ele>
        <time>2013-04-27T13:24:41Z</time>
      </trkpt>
      <trkpt lat="59.8813367" lon="17.837724">
        <ele>32.3416</ele>
        <time>2013-04-27T13:24:42Z</time>
      </trkpt>
      <trkpt lat="59.8813963" lon="17.8378082">
        <ele>33.3029</ele>
        <time>2013-04-27T13:24:43Z</time>
      </trkpt>
      <trkpt lat="59.8814554" lon="17.8378896">
        <ele>33.7834</ele>
        <time>2013-04-27T13:24:44Z</time>
      </trkpt>
      <trkpt lat="59.8815149" lon="17.8379699">
        <ele>33.7834</ele>
        <time>2013-04-27T13:24:45Z</time>
      </trkpt>
      <trkpt lat="59.8815743" lon="17.8380467">
        <ele>34.2642</ele>
        <time>2013-04-27T13:24:46Z</time>
      </trkpt>
      <trkpt lat="59.8816318" lon="17.8381288">
        <ele>34.7449</ele>
        <time>2013-04-27T13:24:47Z</time>
      </trkpt>
      <trkpt lat="59.8816874" lon="17.8382189">
        <ele>35.2255</ele>
        <time>2013-04-27T13:24:48Z</time>
      </trkpt>
      <trkpt lat="59.8817422" lon="17.8383139">
        <ele>35.7061</ele>
        <time>2013-04-27T13:24:49Z</time>
      </trkpt>
      <trkpt lat="59.8817966" lon="17.8384056">
        <ele>35.7061</ele>
        <time>2013-04-27T13:24:50Z</time>
      </trkpt>
      <trkpt lat="59.8818546" lon="17.8384926">
        <ele>36.1868</ele>
        <time>2013-04-27T13:24:51Z</time>
      </trkpt>
      <trkpt lat="59.8819102" lon="17.8385746">
        <ele>36.1868</ele>
        <time>2013-04-27T13:24:52Z</time>
      </trkpt>
      <trkpt lat="59.8819636" lon="17.8386537">
        <ele>36.6675</ele>
        <time>2013-04-27T13:24:53Z</time>
      </trkpt>
      <trkpt lat="59.882018" lon="17.8387274">
        <ele>36.6675</ele>
        <time>2013-04-27T13:24:54Z</time>
      </trkpt>
      <trkpt lat="59.8820729" lon="17.8387957">
        <ele>37.1481</ele>
        <time>2013-04-27T13:24:55Z</time>
      </trkpt>
      <trkpt lat="59.8821292" lon="17.8388557">
        <ele>37.1481</ele>
        <time>2013-04-27T13:24:56Z</time>
      </trkpt>
      <trkpt lat="59.8821871" lon="17.8389081">
        <ele>37.1481</ele>
        <time>2013-04-27T13:24:57Z</time>
      </trkpt>
      <trkpt lat="59.8822473" lon="17.8389526">
        <ele>37.6287</ele>
        <time>2013-04-27T13:24:58Z</time>
      </trkpt>
      <trkpt lat="59.882308" lon="17.8389868">
        <ele>37.6287</ele>
        <time>2013-04-27T13:24:59Z</time>
      </trkpt>
      <trkpt lat="59.882366" lon="17.8390184">
        <ele>37.1481</ele>
        <time>2013-04-27T13:25:00Z</time>
      </trkpt>
      <trkpt lat="59.8824256" lon="17.8390415">
        <ele>37.6287</ele>
        <time>2013-04-27T13:25:01Z</time>
      </trkpt>
      <trkpt lat="59.8824837" lon="17.8390619">
        <ele>38.1094</ele>
        <time>2013-04-27T13:25:02Z</time>
      </trkpt>
      <trkpt lat="59.8825391" lon="17.839085">
        <ele>38.1094</ele>
        <time>2013-04-27T13:25:03Z</time>
      </trkpt>
      <trkpt lat="59.8825905" lon="17.8391074">
        <ele>38.1094</ele>
        <time>2013-04-27T13:25:04Z</time>
      </trkpt>
      <trkpt lat="59.8826416" lon="17.8391302">
        <ele>38.1094</ele>
        <time>2013-04-27T13:25:05Z</time>
      </trkpt>
      <trkpt lat="59.8826904" lon="17.8391511">
        <ele>38.1094</ele>
        <time>2013-04-27T13:25:06Z</time>
      </trkpt>
      <trkpt lat="59.8827374" lon="17.8391741">
        <ele>38.1094</ele>
        <time>2013-04-27T13:25:07Z</time>
      </trkpt>
      <trkpt lat="59.8827831" lon="17.8392028">
        <ele>37.6287</ele>
        <time>2013-04-27T13:25:08Z</time>
      </trkpt>
      <trkpt lat="59.8828275" lon="17.8392374">
        <ele>37.6287</ele>
        <time>2013-04-27T13:25:09Z</time>
      </trkpt>
      <trkpt lat="59.8828692" lon="17.8392757">
        <ele>36.6675</ele>
        <time>2013-04-27T13:25:10Z</time>
      </trkpt>
      <trkpt lat="59.8829118" lon="17.8393179">
        <ele>36.1868</ele>
        <time>2013-04-27T13:25:11Z</time>
      </trkpt>
      <trkpt lat="59.8829618" lon="17.8393676">
        <ele>36.1868</ele>
        <time>2013-04-27T13:25:12Z</time>
      </trkpt>
      <trkpt lat="59.8830151" lon="17.8394254">
        <ele>36.6675</ele>
        <time>2013-04-27T13:25:13Z</time>
      </trkpt>
      <trkpt lat="59.8830636" lon="17.8394915">
        <ele>35.7061</ele>
        <time>2013-04-27T13:25:14Z</time>
      </trkpt>
      <trkpt lat="59.8831191" lon="17.8395628">
        <ele>35.2255</ele>
        <time>2013-04-27T13:25:15Z</time>
      </trkpt>
      <trkpt lat="59.88318" lon="17.8396369">
        <ele>34.7449</ele>
        <time>2013-04-27T13:25:16Z</time>
      </trkpt>
      <trkpt lat="59.8832445" lon="17.8397163">
        <ele>34.7449</ele>
        <time>2013-04-27T13:25:17Z</time>
      </trkpt>
      <trkpt lat="59.8833102" lon="17.8398016">
        <ele>34.7449</ele>
        <time>2013-04-27T13:25:18Z</time>
      </trkpt>
      <trkpt lat="59.8833771" lon="17.8398902">
        <ele>34.2642</ele>
        <time>2013-04-27T13:25:19Z</time>
      </trkpt>
      <trkpt lat="59.8834446" lon="17.8399836">
        <ele>34.2642</ele>
        <time>2013-04-27T13:25:20Z</time>
      </trkpt>
      <trkpt lat="59.8835129" lon="17.8400776">
        <ele>33.7834</ele>
        <time>2013-04-27T13:25:21Z</time>
      </trkpt>
      <trkpt lat="59.8835813" lon="17.8401724">
        <ele>33.7834</ele>
        <time>2013-04-27T13:25:22Z</time>
      </trkpt>
      <trkpt lat="59.8836493" lon="17.8402687">
        <ele>33.3029</ele>
        <time>2013-04-27T13:25:23Z</time>
      </trkpt>
      <trkpt lat="59.8837176" lon="17.8403632">
        <ele>32.8223</ele>
        <time>2013-04-27T13:25:24Z</time>
      </trkpt>
      <trkpt lat="59.8837865" lon="17.8404547">
        <ele>32.3416</ele>
        <time>2013-04-27T13:25:25Z</time>
      </trkpt>
      <trkpt lat="59.8838557" lon="17.8405464">
        <ele>31.8607</ele>
        <time>2013-04-27T13:25:26Z</time>
      </trkpt>
      <trkpt lat="59.8839243" lon="17.8406381">
        <ele>31.3801</ele>
        <time>2013-04-27T13:25:27Z</time>
      </trkpt>
      <trkpt lat="59.8839927" lon="17.8407278">
        <ele>30.8995</ele>
        <time>2013-04-27T13:25:28Z</time>
      </trkpt>
      <trkpt lat="59.884061" lon="17.8408164">
        <ele>30.4188</ele>
        <time>2013-04-27T13:25:29Z</time>
      </trkpt>
      <trkpt lat="59.8841282" lon="17.8409034">
        <ele>29.9381</ele>
        <time>2013-04-27T13:25:30Z</time>
      </trkpt>
      <trkpt lat="59.8841942" lon="17.8409874">
        <ele>29.4575</ele>
        <time>2013-04-27T13:25:31Z</time>
      </trkpt>
      <trkpt lat="59.8842585" lon="17.8410697">
        <ele>28.9769</ele>
        <time>2013-04-27T13:25:32Z</time>
      </trkpt>
      <trkpt lat="59.8843221" lon="17.8411493">
        <ele>28.0155</ele>
        <time>2013-04-27T13:25:33Z</time>
      </trkpt>
      <trkpt lat="59.8843879" lon="17.8412215">
        <ele>27.5349</ele>
        <time>2013-04-27T13:25:34Z</time>
      </trkpt>
      <trkpt lat="59.8844542" lon="17.8412869">
        <ele>27.0543</ele>
        <time>2013-04-27T13:25:35Z</time>
      </trkpt>
      <trkpt lat="59.8845223" lon="17.8413466">
        <ele>26.5736</ele>
        <time>2013-04-27T13:25:36Z</time>
      </trkpt>
      <trkpt lat="59.8845912" lon="17.8414013">
        <ele>26.0929</ele>
        <time>2013-04-27T13:25:37Z</time>
      </trkpt>
      <trkpt lat="59.8846619" lon="17.8414484">
        <ele>25.1317</ele>
        <time>2013-04-27T13:25:38Z</time>
      </trkpt>
      <trkpt lat="59.8847355" lon="17.8414868">
        <ele>24.651</ele>
        <time>2013-04-27T13:25:39Z</time>
      </trkpt>
      <trkpt lat="59.884809" lon="17.8415174">
        <ele>24.1703</ele>
        <time>2013-04-27T13:25:40Z</time>
      </trkpt>
      <trkpt lat="59.8848821" lon="17.841542">
        <ele>23.6896</ele>
        <time>2013-04-27T13:25:41Z</time>
      </trkpt>
      <trkpt lat="59.8849556" lon="17.8415578">
        <ele>23.6896</ele>
        <time>2013-04-27T13:25:42Z</time>
      </trkpt>
      <trkpt lat="59.8850279" lon="17.8415642">
        <ele>23.209</ele>
        <time>2013-04-27T13:25:43Z</time>
      </trkpt>
      <trkpt lat="59.8850981" lon="17.8415624">
        <ele>22.7283</ele>
        <time>2013-04-27T13:25:44Z</time>
      </trkpt>
      <trkpt lat="59.8851626" lon="17.8415571">
        <ele>22.2476</ele>
        <time>2013-04-27T13:25:45Z</time>
      </trkpt>
      <trkpt lat="59.8852254" lon="17.8415534">
        <ele>21.2864</ele>
        <time>2013-04-27T13:25:46Z</time>
      </trkpt>
      <trkpt lat="59.8852885" lon="17.8415493">
        <ele>21.2864</ele>
        <time>2013-04-27T13:25:47Z</time>
      </trkpt>
      <trkpt lat="59.8853508" lon="17.8415448">
        <ele>20.8057</ele>
        <time>2013-04-27T13:25:48Z</time>
      </trkpt>
      <trkpt lat="59.8854156" lon="17.8415395">
        <ele>21.2864</ele>
        <time>2013-04-27T13:25:49Z</time>
      </trkpt>
      <trkpt lat="59.8854807" lon="17.8415333">
        <ele>21.2864</ele>
        <time>2013-04-27T13:25:50Z</time>
      </trkpt>
      <trkpt lat="59.8855407" lon="17.8415252">
        <ele>20.8057</ele>
        <time>2013-04-27T13:25:51Z</time>
      </trkpt>
      <trkpt lat="59.8856019" lon="17.84152">
        <ele>20.8057</ele>
        <time>2013-04-27T13:25:52Z</time>
      </trkpt>
      <trkpt lat="59.8856647" lon="17.8415114">
        <ele>20.325</ele>
        <time>2013-04-27T13:25:53Z</time>
      </trkpt>
      <trkpt lat="59.8857321" lon="17.8415053">
        <ele>20.325</ele>
        <time>2013-04-27T13:25:54Z</time>
      </trkpt>
      <trkpt lat="59.8858003" lon="17.8415012">
        <ele>20.325</ele>
        <time>2013-04-27T13:25:55Z</time>
      </trkpt>
      <trkpt lat="59.8858678" lon="17.8414935">
        <ele>20.325</ele>
        <time>2013-04-27T13:25:56Z</time>
      </trkpt>
      <trkpt lat="59.8859367" lon="17.8414836">
        <ele>20.325</ele>
        <time>2013-04-27T13:25:57Z</time>
      </trkpt>
      <trkpt lat="59.8860045" lon="17.8414733">
        <ele>20.8057</ele>
        <time>2013-04-27T13:25:58Z</time>
      </trkpt>
      <trkpt lat="59.8860676" lon="17.8414572">
        <ele>20.8057</ele>
        <time>2013-04-27T13:25:59Z</time>
      </trkpt>
      <trkpt lat="59.8861284" lon="17.8414407">
        <ele>19.8444</ele>
        <time>2013-04-27T13:26:00Z</time>
      </trkpt>
      <trkpt lat="59.8861905" lon="17.8414225">
        <ele>19.8444</ele>
        <time>2013-04-27T13:26:01Z</time>
      </trkpt>
      <trkpt lat="59.8862541" lon="17.8414007">
        <ele>19.8444</ele>
        <time>2013-04-27T13:26:02Z</time>
      </trkpt>
      <trkpt lat="59.8863146" lon="17.8413754">
        <ele>19.3638</ele>
        <time>2013-04-27T13:26:03Z</time>
      </trkpt>
      <trkpt lat="59.8863782" lon="17.8413468">
        <ele>19.3638</ele>
        <time>2013-04-27T13:26:04Z</time>
      </trkpt>
      <trkpt lat="59.8864388" lon="17.8413158">
        <ele>19.3638</ele>
        <time>2013-04-27T13:26:05Z</time>
      </trkpt>
      <trkpt lat="59.8865009" lon="17.8412826">
        <ele>19.8444</ele>
        <time>2013-04-27T13:26:06Z</time>
      </trkpt>
      <trkpt lat="59.8865625" lon="17.8412453">
        <ele>19.3638</ele>
        <time>2013-04-27T13:26:07Z</time>
      </trkpt>
      <trkpt lat="59.8866251" lon="17.8412131">
        <ele>19.3638</ele>
        <time>2013-04-27T13:26:08Z</time>
      </trkpt>
      <trkpt lat="59.8866904" lon="17.8411893">
        <ele>19.3638</ele>
        <time>2013-04-27T13:26:09Z</time>
      </trkpt>
      <trkpt lat="59.8867575" lon="17.8411665">
        <ele>19.3638</ele>
        <time>2013-04-27T13:26:10Z</time>
      </trkpt>
      <trkpt lat="59.8868275" lon="17.8411568">
        <ele>19.8444</ele>
        <time>2013-04-27T13:26:11Z</time>
      </trkpt>
      <trkpt lat="59.8868967" lon="17.841171">
        <ele>19.3638</ele>
        <time>2013-04-27T13:26:12Z</time>
      </trkpt>
      <trkpt lat="59.8869617" lon="17.8412034">
        <ele>19.3638</ele>
        <time>2013-04-27T13:26:13Z</time>
      </trkpt>
      <trkpt lat="59.8870231" lon="17.8412475">
        <ele>19.3638</ele>
        <time>2013-04-27T13:26:14Z</time>
      </trkpt>
      <trkpt lat="59.8870818" lon="17.8413036">
        <ele>19.3638</ele>
        <time>2013-04-27T13:26:15Z</time>
      </trkpt>
      <trkpt lat="59.8871389" lon="17.8413741">
        <ele>19.3638</ele>
        <time>2013-04-27T13:26:16Z</time>
      </trkpt>
      <trkpt lat="59.8871908" lon="17.8414546">
        <ele>19.3638</ele>
        <time>2013-04-27T13:26:17Z</time>
      </trkpt>
      <trkpt lat="59.8872362" lon="17.8415416">
        <ele>19.8444</ele>
        <time>2013-04-27T13:26:18Z</time>
      </trkpt>
      <trkpt lat="59.8872747" lon="17.8416334">
        <ele>19.8444</ele>
        <time>2013-04-27T13:26:19Z</time>
      </trkpt>
      <trkpt lat="59.887309" lon="17.8417277">
        <ele>20.325</ele>
        <time>2013-04-27T13:26:20Z</time>
      </trkpt>
      <trkpt lat="59.8873461" lon="17.8418203">
        <ele>20.8057</ele>
        <time>2013-04-27T13:26:21Z</time>
      </trkpt>
      <trkpt lat="59.8873857" lon="17.8419115">
        <ele>21.2864</ele>
        <time>2013-04-27T13:26:22Z</time>
      </trkpt>
      <trkpt lat="59.8874261" lon="17.8420037">
        <ele>21.767</ele>
        <time>2013-04-27T13:26:23Z</time>
      </trkpt>
      <trkpt lat="59.8874704" lon="17.8420972">
        <ele>21.767</ele>
        <time>2013-04-27T13:26:24Z</time>
      </trkpt>
      <trkpt lat="59.8875196" lon="17.8421892">
        <ele>22.2476</ele>
        <time>2013-04-27T13:26:25Z</time>
      </trkpt>
      <trkpt lat="59.8875736" lon="17.8422757">
        <ele>22.7283</ele>
        <time>2013-04-27T13:26:26Z</time>
      </trkpt>
      <trkpt lat="59.8876312" lon="17.8423564">
        <ele>23.209</ele>
        <time>2013-04-27T13:26:27Z</time>
      </trkpt>
      <trkpt lat="59.8876896" lon="17.8424355">
        <ele>23.209</ele>
        <time>2013-04-27T13:26:28Z</time>
      </trkpt>
      <trkpt lat="59.8877481" lon="17.8425145">
        <ele>23.6896</ele>
        <time>2013-04-27T13:26:29Z</time>
      </trkpt>
      <trkpt lat="59.8878079" lon="17.8425904">
        <ele>24.1703</ele>
        <time>2013-04-27T13:26:30Z</time>
      </trkpt>
      <trkpt lat="59.8878663" lon="17.8426641">
        <ele>24.1703</ele>
        <time>2013-04-27T13:26:31Z</time>
      </trkpt>
      <trkpt lat="59.8879253" lon="17.8427321">
        <ele>23.209</ele>
        <time>2013-04-27T13:26:32Z</time>
      </trkpt>
      <trkpt lat="59.8879858" lon="17.8427962">
        <ele>22.7283</ele>
        <time>2013-04-27T13:26:33Z</time>
      </trkpt>
      <trkpt lat="59.8880471" lon="17.8428584">
        <ele>22.7283</ele>
        <time>2013-04-27T13:26:34Z</time>
      </trkpt>
      <trkpt lat="59.8881098" lon="17.842917">
        <ele>22.7283</ele>
        <time>2013-04-27T13:26:35Z</time>
      </trkpt>
      <trkpt lat="59.8881739" lon="17.8429719">
        <ele>22.7283</ele>
        <time>2013-04-27T13:26:36Z</time>
      </trkpt>
      <trkpt lat="59.8882408" lon="17.8430241">
        <ele>23.209</ele>
        <time>2013-04-27T13:26:37Z</time>
      </trkpt>
      <trkpt lat="59.8883059" lon="17.8430698">
        <ele>23.209</ele>
        <time>2013-04-27T13:26:38Z</time>
      </trkpt>
      <trkpt lat="59.8883699" lon="17.8431049">
        <ele>22.7283</ele>
        <time>2013-04-27T13:26:39Z</time>
      </trkpt>
      <trkpt lat="59.8884346" lon="17.8431335">
        <ele>22.7283</ele>
        <time>2013-04-27T13:26:40Z</time>
      </trkpt>
      <trkpt lat="59.8884965" lon="17.8431616">
        <ele>23.209</ele>
        <time>2013-04-27T13:26:41Z</time>
      </trkpt>
      <trkpt lat="59.888559" lon="17.8431858">
        <ele>23.6896</ele>
        <time>2013-04-27T13:26:42Z</time>
      </trkpt>
      <trkpt lat="59.8886231" lon="17.8432027">
        <ele>24.1703</ele>
        <time>2013-04-27T13:26:43Z</time>
      </trkpt>
      <trkpt lat="59.8886874" lon="17.8432164">
        <ele>24.1703</ele>
        <time>2013-04-27T13:26:44Z</time>
      </trkpt>
      <trkpt lat="59.8887536" lon="17.8432276">
        <ele>24.651</ele>
        <time>2013-04-27T13:26:45Z</time>
      </trkpt>
      <trkpt lat="59.8888232" lon="17.8432374">
        <ele>25.6123</ele>
        <time>2013-04-27T13:26:46Z</time>
      </trkpt>
      <trkpt lat="59.8888914" lon="17.843247">
        <ele>26.0929</ele>
        <time>2013-04-27T13:26:47Z</time>
      </trkpt>
      <trkpt lat="59.8889619" lon="17.8432716">
        <ele>27.5349</ele>
        <time>2013-04-27T13:26:48Z</time>
      </trkpt>
      <trkpt lat="59.8890301" lon="17.8433054">
        <ele>28.4962</ele>
        <time>2013-04-27T13:26:49Z</time>
      </trkpt>
      <trkpt lat="59.8890907" lon="17.843342">
        <ele>28.4962</ele>
        <time>2013-04-27T13:26:50Z</time>
      </trkpt>
      <trkpt lat="59.8891494" lon="17.8433833">
        <ele>28.4962</ele>
        <time>2013-04-27T13:26:51Z</time>
      </trkpt>
      <trkpt lat="59.8892084" lon="17.8434275">
        <ele>28.0155</ele>
        <time>2013-04-27T13:26:52Z</time>
      </trkpt>
      <trkpt lat="59.8892736" lon="17.8434658">
        <ele>28.4962</ele>
        <time>2013-04-27T13:26:53Z</time>
      </trkpt>
      <trkpt lat="59.8893404" lon="17.8434909">
        <ele>28.9769</ele>
        <time>2013-04-27T13:26:54Z</time>
      </trkpt>
      <trkpt lat="59.889403" lon="17.8434926">
        <ele>28.9769</ele>
        <time>2013-04-27T13:26:55Z</time>
      </trkpt>
      <trkpt lat="59.8894632" lon="17.8434804">
        <ele>28.0155</ele>
        <time>2013-04-27T13:26:56Z</time>
      </trkpt>
      <trkpt lat="59.8895185" lon="17.8434531">
        <ele>27.0543</ele>
        <time>2013-04-27T13:26:57Z</time>
      </trkpt>
      <trkpt lat="59.889568" lon="17.8433998">
        <ele>26.5736</ele>
        <time>2013-04-27T13:26:58Z</time>
      </trkpt>
      <trkpt lat="59.8896208" lon="17.843327">
        <ele>27.0543</ele>
        <time>2013-04-27T13:26:59Z</time>
      </trkpt>
      <trkpt lat="59.8896628" lon="17.8432397">
        <ele>27.5349</ele>
        <time>2013-04-27T13:27:00Z</time>
      </trkpt>
      <trkpt lat="59.8897052" lon="17.8431355">
        <ele>28.9769</ele>
        <time>2013-04-27T13:27:01Z</time>
      </trkpt>
      <trkpt lat="59.8897368" lon="17.8430295">
        <ele>29.4575</ele>
        <time>2013-04-27T13:27:02Z</time>
      </trkpt>
      <trkpt lat="59.8897651" lon="17.842932">
        <ele>29.9381</ele>
        <time>2013-04-27T13:27:03Z</time>
      </trkpt>
      <trkpt lat="59.8897802" lon="17.8428387">
        <ele>29.4575</ele>
        <time>2013-04-27T13:27:04Z</time>
      </trkpt>
      <trkpt lat="59.8897886" lon="17.8427408">
        <ele>28.4962</ele>
        <time>2013-04-27T13:27:05Z</time>
      </trkpt>
      <trkpt lat="59.8897995" lon="17.8426428">
        <ele>28.0155</ele>
        <time>2013-04-27T13:27:06Z</time>
      </trkpt>
      <trkpt lat="59.8898063" lon="17.8425444">
        <ele>27.5349</ele>
        <time>2013-04-27T13:27:07Z</time>
      </trkpt>
      <trkpt lat="59.8898125" lon="17.8424438">
        <ele>27.0543</ele>
        <time>2013-04-27T13:27:08Z</time>
      </trkpt>
      <trkpt lat="59.8898206" lon="17.842344">
        <ele>27.0543</ele>
        <time>2013-04-27T13:27:09Z</time>
      </trkpt>
      <trkpt lat="59.8898237" lon="17.8422497">
        <ele>26.5736</ele>
        <time>2013-04-27T13:27:10Z</time>
      </trkpt>
      <trkpt lat="59.8898326" lon="17.8421511">
        <ele>26.5736</ele>
        <time>2013-04-27T13:27:11Z</time>
      </trkpt>
      <trkpt lat="59.8898429" lon="17.8420481">
        <ele>27.0543</ele>
        <time>2013-04-27T13:27:12Z</time>
      </trkpt>
      <trkpt lat="59.8898529" lon="17.8419411">
        <ele>27.5349</ele>
        <time>2013-04-27T13:27:13Z</time>
      </trkpt>
      <trkpt lat="59.8898552" lon="17.8418421">
        <ele>27.0543</ele>
        <time>2013-04-27T13:27:14Z</time>
      </trkpt>
      <trkpt lat="59.8898627" lon="17.8417395">
        <ele>26.5736</ele>
        <time>2013-04-27T13:27:15Z</time>
      </trkpt>
      <trkpt lat="59.8898751" lon="17.8416359">
        <ele>27.0543</ele>
        <time>2013-04-27T13:27:16Z</time>
      </trkpt>
      <trkpt lat="59.8898899" lon="17.8415333">
        <ele>26.5736</ele>
        <time>2013-04-27T13:27:17Z</time>
      </trkpt>
      <trkpt lat="59.8899073" lon="17.8414323">
        <ele>26.0929</ele>
        <time>2013-04-27T13:27:18Z</time>
      </trkpt>
      <trkpt lat="59.8899275" lon="17.8413322">
        <ele>25.6123</ele>
        <time>2013-04-27T13:27:19Z</time>
      </trkpt>
      <trkpt lat="59.8899534" lon="17.8412339">
        <ele>25.1317</ele>
        <time>2013-04-27T13:27:20Z</time>
      </trkpt>
      <trkpt lat="59.889987" lon="17.8411365">
        <ele>25.1317</ele>
        <time>2013-04-27T13:27:21Z</time>
      </trkpt>
      <trkpt lat="59.8900285" lon="17.8410491">
        <ele>25.6123</ele>
        <time>2013-04-27T13:27:22Z</time>
      </trkpt>
      <trkpt lat="59.8900777" lon="17.840982">
        <ele>25.6123</ele>
        <time>2013-04-27T13:27:23Z</time>
      </trkpt>
      <trkpt lat="59.8901326" lon="17.8409442">
        <ele>25.6123</ele>
        <time>2013-04-27T13:27:24Z</time>
      </trkpt>
      <trkpt lat="59.8901931" lon="17.84094">
        <ele>26.0929</ele>
        <time>2013-04-27T13:27:25Z</time>
      </trkpt>
      <trkpt lat="59.8902531" lon="17.8409687">
        <ele>25.6123</ele>
        <time>2013-04-27T13:27:26Z</time>
      </trkpt>
      <trkpt lat="59.8903066" lon="17.8410201">
        <ele>25.6123</ele>
        <time>2013-04-27T13:27:27Z</time>
      </trkpt>
      <trkpt lat="59.8903595" lon="17.8410864">
        <ele>25.6123</ele>
        <time>2013-04-27T13:27:28Z</time>
      </trkpt>
      <trkpt lat="59.8904131" lon="17.841154">
        <ele>26.0929</ele>
        <time>2013-04-27T13:27:29Z</time>
      </trkpt>
      <trkpt lat="59.8904636" lon="17.8412266">
        <ele>26.0929</ele>
        <time>2013-04-27T13:27:30Z</time>
      </trkpt>
      <trkpt lat="59.8905143" lon="17.8413032">
        <ele>26.0929</ele>
        <time>2013-04-27T13:27:31Z</time>
      </trkpt>
      <trkpt lat="59.8905645" lon="17.8413752">
        <ele>26.5736</ele>
        <time>2013-04-27T13:27:32Z</time>
      </trkpt>
      <trkpt lat="59.8906128" lon="17.8414448">
        <ele>26.5736</ele>
        <time>2013-04-27T13:27:33Z</time>
      </trkpt>
      <trkpt lat="59.8906634" lon="17.8415158">
        <ele>27.0543</ele>
        <time>2013-04-27T13:27:34Z</time>
      </trkpt>
      <trkpt lat="59.8907117" lon="17.8415855">
        <ele>27.0543</ele>
        <time>2013-04-27T13:27:35Z</time>
      </trkpt>
      <trkpt lat="59.8907592" lon="17.8416562">
        <ele>27.0543</ele>
        <time>2013-04-27T13:27:36Z</time>
      </trkpt>
      <trkpt lat="59.8908074" lon="17.8417254">
        <ele>26.5736</ele>
        <time>2013-04-27T13:27:37Z</time>
      </trkpt>
      <trkpt lat="59.8908598" lon="17.8417808">
        <ele>27.0543</ele>
        <time>2013-04-27T13:27:38Z</time>
      </trkpt>
      <trkpt lat="59.8909116" lon="17.8418299">
        <ele>27.0543</ele>
        <time>2013-04-27T13:27:39Z</time>
      </trkpt>
      <trkpt lat="59.8909643" lon="17.8418798">
        <ele>27.0543</ele>
        <time>2013-04-27T13:27:40Z</time>
      </trkpt>
      <trkpt lat="59.8910215" lon="17.8419328">
        <ele>27.5349</ele>
        <time>2013-04-27T13:27:41Z</time>
      </trkpt>
      <trkpt lat="59.8910778" lon="17.841985">
        <ele>27.5349</ele>
        <time>2013-04-27T13:27:42Z</time>
      </trkpt>
      <trkpt lat="59.8911344" lon="17.8420367">
        <ele>27.5349</ele>
        <time>2013-04-27T13:27:43Z</time>
      </trkpt>
      <trkpt lat="59.8911904" lon="17.8420814">
        <ele>27.5349</ele>
        <time>2013-04-27T13:27:44Z</time>
      </trkpt>
      <trkpt lat="59.891249" lon="17.8421255">
        <ele>27.5349</ele>
        <time>2013-04-27T13:27:45Z</time>
      </trkpt>
      <trkpt lat="59.891307" lon="17.8421658">
        <ele>27.5349</ele>
        <time>2013-04-27T13:27:46Z</time>
      </trkpt>
      <trkpt lat="59.8913671" lon="17.8422034">
        <ele>27.5349</ele>
        <time>2013-04-27T13:27:47Z</time>
      </trkpt>
      <trkpt lat="59.8914302" lon="17.8422347">
        <ele>27.5349</ele>
        <time>2013-04-27T13:27:48Z</time>
      </trkpt>
      <trkpt lat="59.8914956" lon="17.8422652">
        <ele>28.0155</ele>
        <time>2013-04-27T13:27:49Z</time>
      </trkpt>
      <trkpt lat="59.8915585" lon="17.8422868">
        <ele>27.5349</ele>
        <time>2013-04-27T13:27:50Z</time>
      </trkpt>
      <trkpt lat="59.8916245" lon="17.8423013">
        <ele>27.5349</ele>
        <time>2013-04-27T13:27:51Z</time>
      </trkpt>
      <trkpt lat="59.8916892" lon="17.8423164">
        <ele>26.5736</ele>
        <time>2013-04-27T13:27:52Z</time>
      </trkpt>
      <trkpt lat="59.8917534" lon="17.8423348">
        <ele>25.6123</ele>
        <time>2013-04-27T13:27:53Z</time>
      </trkpt>
      <trkpt lat="59.8918192" lon="17.8423588">
        <ele>25.1317</ele>
        <time>2013-04-27T13:27:54Z</time>
      </trkpt>
      <trkpt lat="59.8918854" lon="17.8423834">
        <ele>24.1703</ele>
        <time>2013-04-27T13:27:55Z</time>
      </trkpt>
      <trkpt lat="59.8919528" lon="17.8424046">
        <ele>23.6896</ele>
        <time>2013-04-27T13:27:56Z</time>
      </trkpt>
      <trkpt lat="59.8920207" lon="17.8424274">
        <ele>23.209</ele>
        <time>2013-04-27T13:27:57Z</time>
      </trkpt>
      <trkpt lat="59.8920948" lon="17.8424564">
        <ele>23.6896</ele>
        <time>2013-04-27T13:27:58Z</time>
      </trkpt>
      <trkpt lat="59.8921673" lon="17.842488">
        <ele>24.1703</ele>
        <time>2013-04-27T13:27:59Z</time>
      </trkpt>
      <trkpt lat="59.8922383" lon="17.8425196">
        <ele>23.6896</ele>
        <time>2013-04-27T13:28:00Z</time>
      </trkpt>
      <trkpt lat="59.8923112" lon="17.8425528">
        <ele>23.6896</ele>
        <time>2013-04-27T13:28:01Z</time>
      </trkpt>
      <trkpt lat="59.8923859" lon="17.842589">
        <ele>23.6896</ele>
        <time>2013-04-27T13:28:02Z</time>
      </trkpt>
      <trkpt lat="59.8924621" lon="17.8426251">
        <ele>23.6896</ele>
        <time>2013-04-27T13:28:03Z</time>
      </trkpt>
      <trkpt lat="59.8925408" lon="17.8426606">
        <ele>24.651</ele>
        <time>2013-04-27T13:28:04Z</time>
      </trkpt>
      <trkpt lat="59.8926116" lon="17.8427016">
        <ele>24.1703</ele>
        <time>2013-04-27T13:28:05Z</time>
      </trkpt>
      <trkpt lat="59.8926811" lon="17.8427434">
        <ele>23.6896</ele>
        <time>2013-04-27T13:28:06Z</time>
      </trkpt>
      <trkpt lat="59.892751" lon="17.8427808">
        <ele>22.7283</ele>
        <time>2013-04-27T13:28:07Z</time>
      </trkpt>
      <trkpt lat="59.8928257" lon="17.8428176">
        <ele>22.2476</ele>
        <time>2013-04-27T13:28:08Z</time>
      </trkpt>
      <trkpt lat="59.8929008" lon="17.8428543">
        <ele>21.767</ele>
        <time>2013-04-27T13:28:09Z</time>
      </trkpt>
      <trkpt lat="59.8929753" lon="17.8428931">
        <ele>20.8057</ele>
        <time>2013-04-27T13:28:10Z</time>
      </trkpt>
      <trkpt lat="59.8930536" lon="17.8429293">
        <ele>20.8057</ele>
        <time>2013-04-27T13:28:11Z</time>
      </trkpt>
      <trkpt lat="59.8931308" lon="17.8429631">
        <ele>20.8057</ele>
        <time>2013-04-27T13:28:12Z</time>
      </trkpt>
      <trkpt lat="59.8932091" lon="17.8429953">
        <ele>20.8057</ele>
        <time>2013-04-27T13:28:13Z</time>
      </trkpt>
      <trkpt lat="59.8932831" lon="17.8430232">
        <ele>21.2864</ele>
        <time>2013-04-27T13:28:14Z</time>
      </trkpt>
      <trkpt lat="59.8933608" lon="17.8430448">
        <ele>22.2476</ele>
        <time>2013-04-27T13:28:15Z</time>
      </trkpt>
      <trkpt lat="59.8934573" lon="17.843102">
        <ele>22.7283</ele>
        <time>2013-04-27T13:28:16Z</time>
      </trkpt>
      <trkpt lat="59.8935458" lon="17.8431283">
        <ele>22.2476</ele>
        <time>2013-04-27T13:28:17Z</time>
      </trkpt>
      <trkpt lat="59.8936266" lon="17.8431519">
        <ele>21.2864</ele>
        <time>2013-04-27T13:28:18Z</time>
      </trkpt>
      <trkpt lat="59.8937151" lon="17.8431577">
        <ele>21.2864</ele>
        <time>2013-04-27T13:28:19Z</time>
      </trkpt>
      <trkpt lat="59.8938002" lon="17.8431603">
        <ele>21.2864</ele>
        <time>2013-04-27T13:28:20Z</time>
      </trkpt>
      <trkpt lat="59.8938727" lon="17.8431553">
        <ele>20.8057</ele>
        <time>2013-04-27T13:28:21Z</time>
      </trkpt>
      <trkpt lat="59.8939556" lon="17.8431559">
        <ele>22.2476</ele>
        <time>2013-04-27T13:28:22Z</time>
      </trkpt>
      <trkpt lat="59.8940311" lon="17.843155">
        <ele>21.2864</ele>
        <time>2013-04-27T13:28:23Z</time>
      </trkpt>
      <trkpt lat="59.894114" lon="17.8431626">
        <ele>21.767</ele>
        <time>2013-04-27T13:28:24Z</time>
      </trkpt>
      <trkpt lat="59.8941973" lon="17.8431572">
        <ele>22.2476</ele>
        <time>2013-04-27T13:28:25Z</time>
      </trkpt>
      <trkpt lat="59.8942684" lon="17.8431714">
        <ele>22.2476</ele>
        <time>2013-04-27T13:28:26Z</time>
      </trkpt>
      <trkpt lat="59.8943374" lon="17.8431888">
        <ele>21.2864</ele>
        <time>2013-04-27T13:28:27Z</time>
      </trkpt>
      <trkpt lat="59.8944192" lon="17.8432044">
        <ele>22.2476</ele>
        <time>2013-04-27T13:28:28Z</time>
      </trkpt>
      <trkpt lat="59.8945057" lon="17.8432167">
        <ele>23.6896</ele>
        <time>2013-04-27T13:28:29Z</time>
      </trkpt>
      <trkpt lat="59.894591" lon="17.8432231">
        <ele>24.651</ele>
        <time>2013-04-27T13:28:30Z</time>
      </trkpt>
      <trkpt lat="59.8946658" lon="17.8432402">
        <ele>24.651</ele>
        <time>2013-04-27T13:28:31Z</time>
      </trkpt>
      <trkpt lat="59.8947408" lon="17.8432583">
        <ele>25.1317</ele>
        <time>2013-04-27T13:28:32Z</time>
      </trkpt>
      <trkpt lat="59.8948243" lon="17.8432659">
        <ele>26.0929</ele>
        <time>2013-04-27T13:28:33Z</time>
      </trkpt>
      <trkpt lat="59.8949074" lon="17.8432638">
        <ele>26.0929</ele>
        <time>2013-04-27T13:28:34Z</time>
      </trkpt>
      <trkpt lat="59.8949838" lon="17.8432541">
        <ele>25.6123</ele>
        <time>2013-04-27T13:28:35Z</time>
      </trkpt>
      <trkpt lat="59.8950676" lon="17.8432291">
        <ele>26.0929</ele>
        <time>2013-04-27T13:28:36Z</time>
      </trkpt>
      <trkpt lat="59.8951458" lon="17.8431986">
        <ele>25.6123</ele>
        <time>2013-04-27T13:28:37Z</time>
      </trkpt>
      <trkpt lat="59.8952241" lon="17.8431681">
        <ele>25.1317</ele>
        <time>2013-04-27T13:28:38Z</time>
      </trkpt>
      <trkpt lat="59.8953045" lon="17.8431169">
        <ele>24.1703</ele>
        <time>2013-04-27T13:28:39Z</time>
      </trkpt>
      <trkpt lat="59.895379" lon="17.8430673">
        <ele>23.209</ele>
        <time>2013-04-27T13:28:40Z</time>
      </trkpt>
      <trkpt lat="59.8954494" lon="17.8430211">
        <ele>21.767</ele>
        <time>2013-04-27T13:28:41Z</time>
      </trkpt>
      <trkpt lat="59.8955379" lon="17.8429478">
        <ele>21.2864</ele>
        <time>2013-04-27T13:28:42Z</time>
      </trkpt>
      <trkpt lat="59.8956095" lon="17.8429025">
        <ele>19.8444</ele>
        <time>2013-04-27T13:28:43Z</time>
      </trkpt>
      <trkpt lat="59.8956902" lon="17.8428712">
        <ele>21.2864</ele>
        <time>2013-04-27T13:28:44Z</time>
      </trkpt>
      <trkpt lat="59.8957686" lon="17.8428486">
        <ele>21.2864</ele>
        <time>2013-04-27T13:28:45Z</time>
      </trkpt>
      <trkpt lat="59.8958473" lon="17.842832">
        <ele>21.2864</ele>
        <time>2013-04-27T13:28:46Z</time>
      </trkpt>
      <trkpt lat="59.8959228" lon="17.8428304">
        <ele>21.2864</ele>
        <time>2013-04-27T13:28:47Z</time>
      </trkpt>
      <trkpt lat="59.8959959" lon="17.8428319">
        <ele>21.2864</ele>
        <time>2013-04-27T13:28:48Z</time>
      </trkpt>
      <trkpt lat="59.8960659" lon="17.842843">
        <ele>21.2864</ele>
        <time>2013-04-27T13:28:49Z</time>
      </trkpt>
      <trkpt lat="59.8961372" lon="17.8428578">
        <ele>21.2864</ele>
        <time>2013-04-27T13:28:50Z</time>
      </trkpt>
      <trkpt lat="59.8962069" lon="17.8428807">
        <ele>20.8057</ele>
        <time>2013-04-27T13:28:51Z</time>
      </trkpt>
      <trkpt lat="59.896277" lon="17.8429075">
        <ele>21.2864</ele>
        <time>2013-04-27T13:28:52Z</time>
      </trkpt>
      <trkpt lat="59.896341" lon="17.8429351">
        <ele>21.2864</ele>
        <time>2013-04-27T13:28:53Z</time>
      </trkpt>
      <trkpt lat="59.896396" lon="17.8429615">
        <ele>20.8057</ele>
        <time>2013-04-27T13:28:54Z</time>
      </trkpt>
      <trkpt lat="59.8964483" lon="17.8429853">
        <ele>20.8057</ele>
        <time>2013-04-27T13:28:55Z</time>
      </trkpt>
      <trkpt lat="59.8965013" lon="17.8430113">
        <ele>21.767</ele>
        <time>2013-04-27T13:28:56Z</time>
      </trkpt>
      <trkpt lat="59.8965642" lon="17.8430304">
        <ele>23.6896</ele>
        <time>2013-04-27T13:28:57Z</time>
      </trkpt>
      <trkpt lat="59.8966196" lon="17.8430392">
        <ele>25.6123</ele>
        <time>2013-04-27T13:28:58Z</time>
      </trkpt>
      <trkpt lat="59.8966642" lon="17.8430335">
        <ele>26.0929</ele>
        <time>2013-04-27T13:28:59Z</time>
      </trkpt>
      <trkpt lat="59.8967092" lon="17.8430185">
        <ele>25.1317</ele>
        <time>2013-04-27T13:29:00Z</time>
      </trkpt>
      <trkpt lat="59.8967619" lon="17.8429864">
        <ele>23.6896</ele>
        <time>2013-04-27T13:29:01Z</time>
      </trkpt>
      <trkpt lat="59.8968227" lon="17.8429552">
        <ele>23.6896</ele>
        <time>2013-04-27T13:29:02Z</time>
      </trkpt>
      <trkpt lat="59.8968717" lon="17.8429221">
        <ele>23.209</ele>
        <time>2013-04-27T13:29:03Z</time>
      </trkpt>
      <trkpt lat="59.8969196" lon="17.8428851">
        <ele>22.7283</ele>
        <time>2013-04-27T13:29:04Z</time>
      </trkpt>
      <trkpt lat="59.8969699" lon="17.8428449">
        <ele>23.209</ele>
        <time>2013-04-27T13:29:05Z</time>
      </trkpt>
      <trkpt lat="59.8970264" lon="17.8428044">
        <ele>24.651</ele>
        <time>2013-04-27T13:29:06Z</time>
      </trkpt>
      <trkpt lat="59.8970861" lon="17.8427639">
        <ele>25.6123</ele>
        <time>2013-04-27T13:29:07Z</time>
      </trkpt>
      <trkpt lat="59.8971411" lon="17.8427228">
        <ele>26.5736</ele>
        <time>2013-04-27T13:29:08Z</time>
      </trkpt>
      <trkpt lat="59.8971946" lon="17.842679">
        <ele>27.0543</ele>
        <time>2013-04-27T13:29:09Z</time>
      </trkpt>
      <trkpt lat="59.8972437" lon="17.842631">
        <ele>27.0543</ele>
        <time>2013-04-27T13:29:10Z</time>
      </trkpt>
      <trkpt lat="59.8972993" lon="17.8425806">
        <ele>26.5736</ele>
        <time>2013-04-27T13:29:11Z</time>
      </trkpt>
      <trkpt lat="59.897356" lon="17.8425414">
        <ele>27.0543</ele>
        <time>2013-04-27T13:29:12Z</time>
      </trkpt>
      <trkpt lat="59.8974146" lon="17.8425067">
        <ele>27.5349</ele>
        <time>2013-04-27T13:29:13Z</time>
      </trkpt>
      <trkpt lat="59.8974739" lon="17.842476">
        <ele>28.4962</ele>
        <time>2013-04-27T13:29:14Z</time>
      </trkpt>
      <trkpt lat="59.8975317" lon="17.8424528">
        <ele>28.9769</ele>
        <time>2013-04-27T13:29:15Z</time>
      </trkpt>
      <trkpt lat="59.8975946" lon="17.8424396">
        <ele>29.9381</ele>
        <time>2013-04-27T13:29:16Z</time>
      </trkpt>
      <trkpt lat="59.8976613" lon="17.842432">
        <ele>30.4188</ele>
        <time>2013-04-27T13:29:17Z</time>
      </trkpt>
      <trkpt lat="59.8977345" lon="17.8424257">
        <ele>32.8223</ele>
        <time>2013-04-27T13:29:18Z</time>
      </trkpt>
      <trkpt lat="59.897795" lon="17.8424233">
        <ele>33.3029</ele>
        <time>2013-04-27T13:29:19Z</time>
      </trkpt>
      <trkpt lat="59.8978518" lon="17.8424264">
        <ele>33.3029</ele>
        <time>2013-04-27T13:29:20Z</time>
      </trkpt>
      <trkpt lat="59.8979095" lon="17.8424295">
        <ele>33.3029</ele>
        <time>2013-04-27T13:29:21Z</time>
      </trkpt>
      <trkpt lat="59.8979693" lon="17.8424316">
        <ele>33.7834</ele>
        <time>2013-04-27T13:29:22Z</time>
      </trkpt>
      <trkpt lat="59.8980253" lon="17.842436">
        <ele>33.3029</ele>
        <time>2013-04-27T13:29:23Z</time>
      </trkpt>
      <trkpt lat="59.8980831" lon="17.8424377">
        <ele>33.3029</ele>
        <time>2013-04-27T13:29:24Z</time>
      </trkpt>
      <trkpt lat="59.8981471" lon="17.8424347">
        <ele>34.7449</ele>
        <time>2013-04-27T13:29:25Z</time>
      </trkpt>
      <trkpt lat="59.898208" lon="17.8424248">
        <ele>35.7061</ele>
        <time>2013-04-27T13:29:26Z</time>
      </trkpt>
      <trkpt lat="59.8982643" lon="17.8424088">
        <ele>35.7061</ele>
        <time>2013-04-27T13:29:27Z</time>
      </trkpt>
      <trkpt lat="59.8983187" lon="17.8423917">
        <ele>35.7061</ele>
        <time>2013-04-27T13:29:28Z</time>
      </trkpt>
      <trkpt lat="59.8983761" lon="17.8423709">
        <ele>35.2255</ele>
        <time>2013-04-27T13:29:29Z</time>
      </trkpt>
      <trkpt lat="59.8984337" lon="17.8423507">
        <ele>36.1868</ele>
        <time>2013-04-27T13:29:30Z</time>
      </trkpt>
      <trkpt lat="59.898484" lon="17.8423289">
        <ele>35.2255</ele>
        <time>2013-04-27T13:29:31Z</time>
      </trkpt>
      <trkpt lat="59.8985326" lon="17.8423078">
        <ele>34.2642</ele>
        <time>2013-04-27T13:29:32Z</time>
      </trkpt>
      <trkpt lat="59.8985911" lon="17.8422842">
        <ele>35.2255</ele>
        <time>2013-04-27T13:29:33Z</time>
      </trkpt>
      <trkpt lat="59.8986405" lon="17.8422573">
        <ele>35.7061</ele>
        <time>2013-04-27T13:29:34Z</time>
      </trkpt>
      <trkpt lat="59.8986921" lon="17.8422264">
        <ele>36.1868</ele>
        <time>2013-04-27T13:29:35Z</time>
      </trkpt>
      <trkpt lat="59.8987398" lon="17.8421939">
        <ele>36.1868</ele>
        <time>2013-04-27T13:29:36Z</time>
      </trkpt>
      <trkpt lat="59.8987896" lon="17.8421663">
        <ele>37.1481</ele>
        <time>2013-04-27T13:29:37Z</time>
      </trkpt>
      <trkpt lat="59.898831" lon="17.8421449">
        <ele>37.1481</ele>
        <time>2013-04-27T13:29:38Z</time>
      </trkpt>
      <trkpt lat="59.8988776" lon="17.8421202">
        <ele>37.6287</ele>
        <time>2013-04-27T13:29:39Z</time>
      </trkpt>
      <trkpt lat="59.8989207" lon="17.8420918">
        <ele>37.6287</ele>
        <time>2013-04-27T13:29:40Z</time>
      </trkpt>
      <trkpt lat="59.8989595" lon="17.8420592">
        <ele>37.1481</ele>
        <time>2013-04-27T13:29:41Z</time>
      </trkpt>
      <trkpt lat="59.8990066" lon="17.8420229">
        <ele>37.1481</ele>
        <time>2013-04-27T13:29:42Z</time>
      </trkpt>
      <trkpt lat="59.89905" lon="17.8419861">
        <ele>36.6675</ele>
        <time>2013-04-27T13:29:43Z</time>
      </trkpt>
      <trkpt lat="59.8990963" lon="17.841944">
        <ele>36.6675</ele>
        <time>2013-04-27T13:29:44Z</time>
      </trkpt>
      <trkpt lat="59.8991416" lon="17.8418963">
        <ele>36.6675</ele>
        <time>2013-04-27T13:29:45Z</time>
      </trkpt>
      <trkpt lat="59.899186" lon="17.8418436">
        <ele>36.6675</ele>
        <time>2013-04-27T13:29:46Z</time>
      </trkpt>
      <trkpt lat="59.8992309" lon="17.8417882">
        <ele>36.1868</ele>
        <time>2013-04-27T13:29:47Z</time>
      </trkpt>
      <trkpt lat="59.8992795" lon="17.8417328">
        <ele>35.7061</ele>
        <time>2013-04-27T13:29:48Z</time>
      </trkpt>
      <trkpt lat="59.899334" lon="17.8416753">
        <ele>36.1868</ele>
        <time>2013-04-27T13:29:49Z</time>
      </trkpt>
      <trkpt lat="59.8993867" lon="17.8416262">
        <ele>35.7061</ele>
        <time>2013-04-27T13:29:50Z</time>
      </trkpt>
      <trkpt lat="59.8994459" lon="17.8415794">
        <ele>35.7061</ele>
        <time>2013-04-27T13:29:51Z</time>
      </trkpt>
      <trkpt lat="59.8995034" lon="17.8415457">
        <ele>34.7449</ele>
        <time>2013-04-27T13:29:52Z</time>
      </trkpt>
      <trkpt lat="59.8995688" lon="17.8415339">
        <ele>34.7449</ele>
        <time>2013-04-27T13:29:53Z</time>
      </trkpt>
      <trkpt lat="59.8996401" lon="17.8415199">
        <ele>34.2642</ele>
        <time>2013-04-27T13:29:54Z</time>
      </trkpt>
      <trkpt lat="59.8997166" lon="17.8415042">
        <ele>34.2642</ele>
        <time>2013-04-27T13:29:55Z</time>
      </trkpt>
      <trkpt lat="59.8997971" lon="17.841494">
        <ele>34.7449</ele>
        <time>2013-04-27T13:29:56Z</time>
      </trkpt>
      <trkpt lat="59.8998798" lon="17.8414808">
        <ele>35.2255</ele>
        <time>2013-04-27T13:29:57Z</time>
      </trkpt>
      <trkpt lat="59.8999622" lon="17.8414644">
        <ele>34.7449</ele>
        <time>2013-04-27T13:29:58Z</time>
      </trkpt>
      <trkpt lat="59.9000493" lon="17.8414504">
        <ele>34.2642</ele>
        <time>2013-04-27T13:29:59Z</time>
      </trkpt>
      <trkpt lat="59.9001351" lon="17.8414426">
        <ele>33.7834</ele>
        <time>2013-04-27T13:30:00Z</time>
      </trkpt>
      <trkpt lat="59.9002214" lon="17.8414396">
        <ele>33.3029</ele>
        <time>2013-04-27T13:30:01Z</time>
      </trkpt>
      <trkpt lat="59.9003136" lon="17.8414437">
        <ele>33.3029</ele>
        <time>2013-04-27T13:30:02Z</time>
      </trkpt>
      <trkpt lat="59.9004016" lon="17.841451">
        <ele>32.3416</ele>
        <time>2013-04-27T13:30:03Z</time>
      </trkpt>
      <trkpt lat="59.9004919" lon="17.8414616">
        <ele>31.8607</ele>
        <time>2013-04-27T13:30:04Z</time>
      </trkpt>
      <trkpt lat="59.9005798" lon="17.8414758">
        <ele>29.9381</ele>
        <time>2013-04-27T13:30:05Z</time>
      </trkpt>
      <trkpt lat="59.9006678" lon="17.8414903">
        <ele>28.9769</ele>
        <time>2013-04-27T13:30:06Z</time>
      </trkpt>
      <trkpt lat="59.9007545" lon="17.8415054">
        <ele>27.5349</ele>
        <time>2013-04-27T13:30:07Z</time>
      </trkpt>
      <trkpt lat="59.9008398" lon="17.8415166">
        <ele>27.0543</ele>
        <time>2013-04-27T13:30:08Z</time>
      </trkpt>
      <trkpt lat="59.900918" lon="17.8415302">
        <ele>25.1317</ele>
        <time>2013-04-27T13:30:09Z</time>
      </trkpt>
      <trkpt lat="59.9009956" lon="17.8415448">
        <ele>23.209</ele>
        <time>2013-04-27T13:30:10Z</time>
      </trkpt>
      <trkpt lat="59.9010749" lon="17.8415597">
        <ele>22.2476</ele>
        <time>2013-04-27T13:30:11Z</time>
      </trkpt>
      <trkpt lat="59.9011538" lon="17.8415727">
        <ele>21.2864</ele>
        <time>2013-04-27T13:30:12Z</time>
      </trkpt>
      <trkpt lat="59.9012329" lon="17.8415878">
        <ele>20.325</ele>
        <time>2013-04-27T13:30:13Z</time>
      </trkpt>
      <trkpt lat="59.901311" lon="17.8416052">
        <ele>19.8444</ele>
        <time>2013-04-27T13:30:14Z</time>
      </trkpt>
      <trkpt lat="59.901392" lon="17.8416229">
        <ele>19.8444</ele>
        <time>2013-04-27T13:30:15Z</time>
      </trkpt>
      <trkpt lat="59.9014712" lon="17.84164">
        <ele>19.8444</ele>
        <time>2013-04-27T13:30:16Z</time>
      </trkpt>
      <trkpt lat="59.9015443" lon="17.8416512">
        <ele>19.3638</ele>
        <time>2013-04-27T13:30:17Z</time>
      </trkpt>
      <trkpt lat="59.901621" lon="17.8416652">
        <ele>19.3638</ele>
        <time>2013-04-27T13:30:18Z</time>
      </trkpt>
      <trkpt lat="59.9016945" lon="17.8416818">
        <ele>18.8831</ele>
        <time>2013-04-27T13:30:19Z</time>
      </trkpt>
      <trkpt lat="59.9017783" lon="17.841696">
        <ele>21.2864</ele>
        <time>2013-04-27T13:30:20Z</time>
      </trkpt>
      <trkpt lat="59.901855" lon="17.8417155">
        <ele>22.7283</ele>
        <time>2013-04-27T13:30:21Z</time>
      </trkpt>
      <trkpt lat="59.9019256" lon="17.8417315">
        <ele>23.6896</ele>
        <time>2013-04-27T13:30:22Z</time>
      </trkpt>
      <trkpt lat="59.9019936" lon="17.8417375">
        <ele>23.6896</ele>
        <time>2013-04-27T13:30:23Z</time>
      </trkpt>
      <trkpt lat="59.9020668" lon="17.8417374">
        <ele>24.1703</ele>
        <time>2013-04-27T13:30:24Z</time>
      </trkpt>
      <trkpt lat="59.9021407" lon="17.8417281">
        <ele>24.651</ele>
        <time>2013-04-27T13:30:25Z</time>
      </trkpt>
      <trkpt lat="59.9022179" lon="17.8417152">
        <ele>25.1317</ele>
        <time>2013-04-27T13:30:26Z</time>
      </trkpt>
      <trkpt lat="59.9022945" lon="17.841695">
        <ele>25.6123</ele>
        <time>2013-04-27T13:30:27Z</time>
      </trkpt>
      <trkpt lat="59.9023688" lon="17.8416802">
        <ele>25.6123</ele>
        <time>2013-04-27T13:30:28Z</time>
      </trkpt>
      <trkpt lat="59.9024457" lon="17.8416742">
        <ele>26.5736</ele>
        <time>2013-04-27T13:30:29Z</time>
      </trkpt>
      <trkpt lat="59.902527" lon="17.8416611">
        <ele>28.0155</ele>
        <time>2013-04-27T13:30:30Z</time>
      </trkpt>
      <trkpt lat="59.9026151" lon="17.8416191">
        <ele>27.0543</ele>
        <time>2013-04-27T13:30:31Z</time>
      </trkpt>
      <trkpt lat="59.902727" lon="17.8415126">
        <ele>27.0543</ele>
        <time>2013-04-27T13:30:32Z</time>
      </trkpt>
      <trkpt lat="59.9028378" lon="17.841436">
        <ele>26.5736</ele>
        <time>2013-04-27T13:30:33Z</time>
      </trkpt>
      <trkpt lat="59.9029358" lon="17.8413744">
        <ele>26.5736</ele>
        <time>2013-04-27T13:30:34Z</time>
      </trkpt>
      <trkpt lat="59.9030201" lon="17.8413448">
        <ele>27.0543</ele>
        <time>2013-04-27T13:30:35Z</time>
      </trkpt>
      <trkpt lat="59.9031081" lon="17.8413339">
        <ele>27.5349</ele>
        <time>2013-04-27T13:30:36Z</time>
      </trkpt>
      <trkpt lat="59.9032081" lon="17.8413909">
        <ele>28.0155</ele>
        <time>2013-04-27T13:30:37Z</time>
      </trkpt>
      <trkpt lat="59.9032826" lon="17.8414229">
        <ele>28.4962</ele>
        <time>2013-04-27T13:30:38Z</time>
      </trkpt>
      <trkpt lat="59.9033556" lon="17.8414547">
        <ele>28.9769</ele>
        <time>2013-04-27T13:30:39Z</time>
      </trkpt>
      <trkpt lat="59.9034426" lon="17.8415248">
        <ele>29.4575</ele>
        <time>2013-04-27T13:30:40Z</time>
      </trkpt>
      <trkpt lat="59.9035137" lon="17.8416082">
        <ele>29.9381</ele>
        <time>2013-04-27T13:30:41Z</time>
      </trkpt>
      <trkpt lat="59.903566" lon="17.8417073">
        <ele>29.9381</ele>
        <time>2013-04-27T13:30:42Z</time>
      </trkpt>
      <trkpt lat="59.9036328" lon="17.8417979">
        <ele>30.8995</ele>
        <time>2013-04-27T13:30:43Z</time>
      </trkpt>
      <trkpt lat="59.9037024" lon="17.841882">
        <ele>31.3801</ele>
        <time>2013-04-27T13:30:44Z</time>
      </trkpt>
      <trkpt lat="59.9037733" lon="17.8419576">
        <ele>30.4188</ele>
        <time>2013-04-27T13:30:45Z</time>
      </trkpt>
      <trkpt lat="59.9038389" lon="17.8420166">
        <ele>29.9381</ele>
        <time>2013-04-27T13:30:46Z</time>
      </trkpt>
      <trkpt lat="59.9039009" lon="17.842086">
        <ele>27.5349</ele>
        <time>2013-04-27T13:30:47Z</time>
      </trkpt>
      <trkpt lat="59.9039547" lon="17.8421534">
        <ele>23.209</ele>
        <time>2013-04-27T13:30:48Z</time>
      </trkpt>
      <trkpt lat="59.9040178" lon="17.8421973">
        <ele>21.2864</ele>
        <time>2013-04-27T13:30:49Z</time>
      </trkpt>
      <trkpt lat="59.9040857" lon="17.8422076">
        <ele>19.8444</ele>
        <time>2013-04-27T13:30:50Z</time>
      </trkpt>
      <trkpt lat="59.904165" lon="17.84217">
        <ele>18.8831</ele>
        <time>2013-04-27T13:30:51Z</time>
      </trkpt>
      <trkpt lat="59.9042493" lon="17.8421138">
        <ele>18.8831</ele>
        <time>2013-04-27T13:30:52Z</time>
      </trkpt>
      <trkpt lat="59.9043266" lon="17.8420668">
        <ele>17.9218</ele>
        <time>2013-04-27T13:30:53Z</time>
      </trkpt>
      <trkpt lat="59.9044022" lon="17.8420097">
        <ele>16.4797</ele>
        <time>2013-04-27T13:30:54Z</time>
      </trkpt>
      <trkpt lat="59.9044719" lon="17.8419478">
        <ele>14.0764</ele>
        <time>2013-04-27T13:30:55Z</time>
      </trkpt>
      <trkpt lat="59.9045519" lon="17.8418862">
        <ele>12.6344</ele>
        <time>2013-04-27T13:30:56Z</time>
      </trkpt>
      <trkpt lat="59.9046322" lon="17.841814">
        <ele>11.1925</ele>
        <time>2013-04-27T13:30:57Z</time>
      </trkpt>
      <trkpt lat="59.904714" lon="17.8417462">
        <ele>9.2699</ele>
        <time>2013-04-27T13:30:58Z</time>
      </trkpt>
      <trkpt lat="59.9047995" lon="17.8416901">
        <ele>8.30859</ele>
        <time>2013-04-27T13:30:59Z</time>
      </trkpt>
      <trkpt lat="59.9048869" lon="17.8416421">
        <ele>7.82788</ele>
        <time>2013-04-27T13:31:00Z</time>
      </trkpt>
      <trkpt lat="59.9049719" lon="17.8416026">
        <ele>5.42456</ele>
        <time>2013-04-27T13:31:01Z</time>
      </trkpt>
      <trkpt lat="59.9050678" lon="17.8415566">
        <ele>4.94385</ele>
        <time>2013-04-27T13:31:02Z</time>
      </trkpt>
      <trkpt lat="59.9051733" lon="17.8415233">
        <ele>4.94385</ele>
        <time>2013-04-27T13:31:03Z</time>
      </trkpt>
      <trkpt lat="59.9052777" lon="17.8414918">
        <ele>4.94385</ele>
        <time>2013-04-27T13:31:04Z</time>
      </trkpt>
      <trkpt lat="59.9053876" lon="17.8414549">
        <ele>5.42456</ele>
        <time>2013-04-27T13:31:05Z</time>
      </trkpt>
      <trkpt lat="59.9054942" lon="17.8414125">
        <ele>5.90527</ele>
        <time>2013-04-27T13:31:06Z</time>
      </trkpt>
      <trkpt lat="59.9055977" lon="17.8413628">
        <ele>5.42456</ele>
        <time>2013-04-27T13:31:07Z</time>
      </trkpt>
      <trkpt lat="59.9057009" lon="17.8412969">
        <ele>5.90527</ele>
        <time>2013-04-27T13:31:08Z</time>
      </trkpt>
      <trkpt lat="59.9058059" lon="17.8411806">
        <ele>6.38586</ele>
        <time>2013-04-27T13:31:09Z</time>
      </trkpt>
      <trkpt lat="59.9059024" lon="17.8410333">
        <ele>6.38586</ele>
        <time>2013-04-27T13:31:10Z</time>
      </trkpt>
      <trkpt lat="59.9059889" lon="17.8409146">
        <ele>6.38586</ele>
        <time>2013-04-27T13:31:11Z</time>
      </trkpt>
      <trkpt lat="59.9060667" lon="17.8407942">
        <ele>6.38586</ele>
        <time>2013-04-27T13:31:12Z</time>
      </trkpt>
      <trkpt lat="59.9061454" lon="17.8406657">
        <ele>8.30859</ele>
        <time>2013-04-27T13:31:13Z</time>
      </trkpt>
      <trkpt lat="59.9062181" lon="17.8405448">
        <ele>8.78918</ele>
        <time>2013-04-27T13:31:14Z</time>
      </trkpt>
      <trkpt lat="59.9062894" lon="17.8404425">
        <ele>9.2699</ele>
        <time>2013-04-27T13:31:15Z</time>
      </trkpt>
      <trkpt lat="59.9063623" lon="17.8403585">
        <ele>10.2312</ele>
        <time>2013-04-27T13:31:16Z</time>
      </trkpt>
      <trkpt lat="59.9064285" lon="17.8402873">
        <ele>10.2312</ele>
        <time>2013-04-27T13:31:17Z</time>
      </trkpt>
      <trkpt lat="59.9065051" lon="17.8402124">
        <ele>11.6732</ele>
        <time>2013-04-27T13:31:18Z</time>
      </trkpt>
      <trkpt lat="59.9065759" lon="17.8401473">
        <ele>12.1538</ele>
        <time>2013-04-27T13:31:19Z</time>
      </trkpt>
      <trkpt lat="59.9066469" lon="17.8400908">
        <ele>13.1151</ele>
        <time>2013-04-27T13:31:20Z</time>
      </trkpt>
      <trkpt lat="59.9067227" lon="17.8400342">
        <ele>13.1151</ele>
        <time>2013-04-27T13:31:21Z</time>
      </trkpt>
      <trkpt lat="59.9067916" lon="17.8399851">
        <ele>13.1151</ele>
        <time>2013-04-27T13:31:22Z</time>
      </trkpt>
      <trkpt lat="59.9068648" lon="17.8399369">
        <ele>14.0764</ele>
        <time>2013-04-27T13:31:23Z</time>
      </trkpt>
      <trkpt lat="59.9069362" lon="17.8398857">
        <ele>14.0764</ele>
        <time>2013-04-27T13:31:24Z</time>
      </trkpt>
      <trkpt lat="59.9070019" lon="17.8398366">
        <ele>14.0764</ele>
        <time>2013-04-27T13:31:25Z</time>
      </trkpt>
      <trkpt lat="59.9070683" lon="17.8397835">
        <ele>14.557</ele>
        <time>2013-04-27T13:31:26Z</time>
      </trkpt>
      <trkpt lat="59.9071343" lon="17.8397421">
        <ele>15.0377</ele>
        <time>2013-04-27T13:31:27Z</time>
      </trkpt>
      <trkpt lat="59.9071982" lon="17.8396965">
        <ele>15.0377</ele>
        <time>2013-04-27T13:31:28Z</time>
      </trkpt>
      <trkpt lat="59.9072601" lon="17.8396429">
        <ele>15.5184</ele>
        <time>2013-04-27T13:31:29Z</time>
      </trkpt>
      <trkpt lat="59.907319" lon="17.8395971">
        <ele>15.5184</ele>
        <time>2013-04-27T13:31:30Z</time>
      </trkpt>
      <trkpt lat="59.9073726" lon="17.839557">
        <ele>15.5184</ele>
        <time>2013-04-27T13:31:31Z</time>
      </trkpt>
      <trkpt lat="59.9074216" lon="17.8395124">
        <ele>15.5184</ele>
        <time>2013-04-27T13:31:32Z</time>
      </trkpt>
      <trkpt lat="59.9074676" lon="17.8394603">
        <ele>14.557</ele>
        <time>2013-04-27T13:31:33Z</time>
      </trkpt>
      <trkpt lat="59.9075101" lon="17.8394111">
        <ele>13.5958</ele>
        <time>2013-04-27T13:31:34Z</time>
      </trkpt>
      <trkpt lat="59.9075538" lon="17.8393681">
        <ele>13.5958</ele>
        <time>2013-04-27T13:31:35Z</time>
      </trkpt>
      <trkpt lat="59.9075906" lon="17.8393249">
        <ele>11.6732</ele>
        <time>2013-04-27T13:31:36Z</time>
      </trkpt>
      <trkpt lat="59.9076346" lon="17.8392732">
        <ele>11.6732</ele>
        <time>2013-04-27T13:31:37Z</time>
      </trkpt>
      <trkpt lat="59.9076769" lon="17.839221">
        <ele>11.6732</ele>
        <time>2013-04-27T13:31:38Z</time>
      </trkpt>
      <trkpt lat="59.9077206" lon="17.8391655">
        <ele>11.1925</ele>
        <time>2013-04-27T13:31:39Z</time>
      </trkpt>
      <trkpt lat="59.9077697" lon="17.8391063">
        <ele>10.7118</ele>
        <time>2013-04-27T13:31:40Z</time>
      </trkpt>
      <trkpt lat="59.907825" lon="17.8390418">
        <ele>11.1925</ele>
        <time>2013-04-27T13:31:41Z</time>
      </trkpt>
      <trkpt lat="59.9078846" lon="17.8389739">
        <ele>12.6344</ele>
        <time>2013-04-27T13:31:42Z</time>
      </trkpt>
      <trkpt lat="59.9079463" lon="17.8389086">
        <ele>12.6344</ele>
        <time>2013-04-27T13:31:43Z</time>
      </trkpt>
      <trkpt lat="59.9080096" lon="17.8388506">
        <ele>13.1151</ele>
        <time>2013-04-27T13:31:44Z</time>
      </trkpt>
      <trkpt lat="59.9080733" lon="17.838797">
        <ele>12.6344</ele>
        <time>2013-04-27T13:31:45Z</time>
      </trkpt>
      <trkpt lat="59.9081371" lon="17.8387569">
        <ele>12.6344</ele>
        <time>2013-04-27T13:31:46Z</time>
      </trkpt>
      <trkpt lat="59.9082065" lon="17.8387268">
        <ele>13.5958</ele>
        <time>2013-04-27T13:31:47Z</time>
      </trkpt>
      <trkpt lat="59.908276" lon="17.8387113">
        <ele>14.557</ele>
        <time>2013-04-27T13:31:48Z</time>
      </trkpt>
      <trkpt lat="59.9083446" lon="17.8387034">
        <ele>15.0377</ele>
        <time>2013-04-27T13:31:49Z</time>
      </trkpt>
      <trkpt lat="59.9084126" lon="17.8387133">
        <ele>15.5184</ele>
        <time>2013-04-27T13:31:50Z</time>
      </trkpt>
      <trkpt lat="59.9084798" lon="17.8387356">
        <ele>15.0377</ele>
        <time>2013-04-27T13:31:51Z</time>
      </trkpt>
      <trkpt lat="59.9085479" lon="17.8387707">
        <ele>15.0377</ele>
        <time>2013-04-27T13:31:52Z</time>
      </trkpt>
      <trkpt lat="59.9086196" lon="17.8388255">
        <ele>14.557</ele>
        <time>2013-04-27T13:31:53Z</time>
      </trkpt>
      <trkpt lat="59.9086912" lon="17.8388961">
        <ele>14.557</ele>
        <time>2013-04-27T13:31:54Z</time>
      </trkpt>
      <trkpt lat="59.9087582" lon="17.8389796">
        <ele>14.557</ele>
        <time>2013-04-27T13:31:55Z</time>
      </trkpt>
      <trkpt lat="59.9088232" lon="17.839084">
        <ele>14.0764</ele>
        <time>2013-04-27T13:31:56Z</time>
      </trkpt>
      <trkpt lat="59.908884" lon="17.8392059">
        <ele>13.1151</ele>
        <time>2013-04-27T13:31:57Z</time>
      </trkpt>
      <trkpt lat="59.9089401" lon="17.8393428">
        <ele>12.1538</ele>
        <time>2013-04-27T13:31:58Z</time>
      </trkpt>
      <trkpt lat="59.9089944" lon="17.839488">
        <ele>11.6732</ele>
        <time>2013-04-27T13:31:59Z</time>
      </trkpt>
      <trkpt lat="59.9090473" lon="17.839637">
        <ele>10.7118</ele>
        <time>2013-04-27T13:32:00Z</time>
      </trkpt>
      <trkpt lat="59.9091007" lon="17.8397892">
        <ele>10.2312</ele>
        <time>2013-04-27T13:32:01Z</time>
      </trkpt>
      <trkpt lat="59.9091607" lon="17.8399392">
        <ele>10.2312</ele>
        <time>2013-04-27T13:32:02Z</time>
      </trkpt>
      <trkpt lat="59.9092203" lon="17.8400892">
        <ele>10.7118</ele>
        <time>2013-04-27T13:32:03Z</time>
      </trkpt>
      <trkpt lat="59.9092785" lon="17.8402393">
        <ele>11.1925</ele>
        <time>2013-04-27T13:32:04Z</time>
      </trkpt>
      <trkpt lat="59.9093355" lon="17.8403861">
        <ele>11.6732</ele>
        <time>2013-04-27T13:32:05Z</time>
      </trkpt>
      <trkpt lat="59.9093938" lon="17.8405292">
        <ele>12.6344</ele>
        <time>2013-04-27T13:32:06Z</time>
      </trkpt>
      <trkpt lat="59.9094474" lon="17.8406724">
        <ele>12.6344</ele>
        <time>2013-04-27T13:32:07Z</time>
      </trkpt>
      <trkpt lat="59.9094985" lon="17.8408205">
        <ele>12.6344</ele>
        <time>2013-04-27T13:32:08Z</time>
      </trkpt>
      <trkpt lat="59.909545" lon="17.8409766">
        <ele>13.1151</ele>
        <time>2013-04-27T13:32:09Z</time>
      </trkpt>
      <trkpt lat="59.9095854" lon="17.8411411">
        <ele>14.0764</ele>
        <time>2013-04-27T13:32:10Z</time>
      </trkpt>
      <trkpt lat="59.909614" lon="17.8413114">
        <ele>14.557</ele>
        <time>2013-04-27T13:32:11Z</time>
      </trkpt>
      <trkpt lat="59.9096305" lon="17.8414815">
        <ele>14.557</ele>
        <time>2013-04-27T13:32:12Z</time>
      </trkpt>
      <trkpt lat="59.9096396" lon="17.8416464">
        <ele>14.557</ele>
        <time>2013-04-27T13:32:13Z</time>
      </trkpt>
      <trkpt lat="59.9096403" lon="17.8418075">
        <ele>14.557</ele>
        <time>2013-04-27T13:32:14Z</time>
      </trkpt>
      <trkpt lat="59.9096342" lon="17.8419633">
        <ele>15.0377</ele>
        <time>2013-04-27T13:32:15Z</time>
      </trkpt>
      <trkpt lat="59.9096246" lon="17.8421098">
        <ele>15.5184</ele>
        <time>2013-04-27T13:32:16Z</time>
      </trkpt>
      <trkpt lat="59.909616" lon="17.8422485">
        <ele>15.999</ele>
        <time>2013-04-27T13:32:17Z</time>
      </trkpt>
      <trkpt lat="59.9096066" lon="17.8423783">
        <ele>15.999</ele>
        <time>2013-04-27T13:32:18Z</time>
      </trkpt>
      <trkpt lat="59.9095967" lon="17.842502">
        <ele>16.4797</ele>
        <time>2013-04-27T13:32:19Z</time>
      </trkpt>
      <trkpt lat="59.9095895" lon="17.8426242">
        <ele>16.4797</ele>
        <time>2013-04-27T13:32:20Z</time>
      </trkpt>
      <trkpt lat="59.9095904" lon="17.8427469">
        <ele>16.9604</ele>
        <time>2013-04-27T13:32:21Z</time>
      </trkpt>
      <trkpt lat="59.9096055" lon="17.8428667">
        <ele>16.9604</ele>
        <time>2013-04-27T13:32:22Z</time>
      </trkpt>
      <trkpt lat="59.9096845" lon="17.8430743">
        <ele>17.4412</ele>
        <time>2013-04-27T13:32:24Z</time>
      </trkpt>
      <trkpt lat="59.9097394" lon="17.8431537">
        <ele>17.9218</ele>
        <time>2013-04-27T13:32:25Z</time>
      </trkpt>
      <trkpt lat="59.9097962" lon="17.843222">
        <ele>17.9218</ele>
        <time>2013-04-27T13:32:26Z</time>
      </trkpt>
      <trkpt lat="59.9098564" lon="17.8432851">
        <ele>18.4023</ele>
        <time>2013-04-27T13:32:27Z</time>
      </trkpt>
      <trkpt lat="59.909918" lon="17.8433441">
        <ele>18.8831</ele>
        <time>2013-04-27T13:32:28Z</time>
      </trkpt>
      <trkpt lat="59.9099777" lon="17.8434039">
        <ele>18.8831</ele>
        <time>2013-04-27T13:32:29Z</time>
      </trkpt>
      <trkpt lat="59.9100391" lon="17.8434603">
        <ele>18.8831</ele>
        <time>2013-04-27T13:32:30Z</time>
      </trkpt>
      <trkpt lat="59.9101025" lon="17.8435158">
        <ele>18.4023</ele>
        <time>2013-04-27T13:32:31Z</time>
      </trkpt>
      <trkpt lat="59.9101638" lon="17.8435758">
        <ele>17.9218</ele>
        <time>2013-04-27T13:32:32Z</time>
      </trkpt>
      <trkpt lat="59.9102314" lon="17.8436409">
        <ele>16.9604</ele>
        <time>2013-04-27T13:32:33Z</time>
      </trkpt>
      <trkpt lat="59.9103002" lon="17.8437016">
        <ele>15.999</ele>
        <time>2013-04-27T13:32:34Z</time>
      </trkpt>
      <trkpt lat="59.9103775" lon="17.8437573">
        <ele>16.4797</ele>
        <time>2013-04-27T13:32:35Z</time>
      </trkpt>
      <trkpt lat="59.9104527" lon="17.8438203">
        <ele>15.5184</ele>
        <time>2013-04-27T13:32:36Z</time>
      </trkpt>
      <trkpt lat="59.9105322" lon="17.8438835">
        <ele>15.0377</ele>
        <time>2013-04-27T13:32:37Z</time>
      </trkpt>
      <trkpt lat="59.9106142" lon="17.8439474">
        <ele>15.0377</ele>
        <time>2013-04-27T13:32:38Z</time>
      </trkpt>
      <trkpt lat="59.9106956" lon="17.844016">
        <ele>15.0377</ele>
        <time>2013-04-27T13:32:39Z</time>
      </trkpt>
      <trkpt lat="59.9107795" lon="17.8440861">
        <ele>15.0377</ele>
        <time>2013-04-27T13:32:40Z</time>
      </trkpt>
      <trkpt lat="59.9108642" lon="17.8441528">
        <ele>15.0377</ele>
        <time>2013-04-27T13:32:41Z</time>
      </trkpt>
      <trkpt lat="59.9109479" lon="17.8442092">
        <ele>14.0764</ele>
        <time>2013-04-27T13:32:42Z</time>
      </trkpt>
      <trkpt lat="59.9110317" lon="17.8442525">
        <ele>13.5958</ele>
        <time>2013-04-27T13:32:43Z</time>
      </trkpt>
      <trkpt lat="59.9111123" lon="17.8442815">
        <ele>12.1538</ele>
        <time>2013-04-27T13:32:44Z</time>
      </trkpt>
      <trkpt lat="59.9111948" lon="17.8442995">
        <ele>10.7118</ele>
        <time>2013-04-27T13:32:45Z</time>
      </trkpt>
      <trkpt lat="59.9112753" lon="17.8443102">
        <ele>9.75061</ele>
        <time>2013-04-27T13:32:46Z</time>
      </trkpt>
      <trkpt lat="59.9113521" lon="17.8443134">
        <ele>8.78918</ele>
        <time>2013-04-27T13:32:47Z</time>
      </trkpt>
      <trkpt lat="59.9114254" lon="17.8443125">
        <ele>6.86646</ele>
        <time>2013-04-27T13:32:48Z</time>
      </trkpt>
      <trkpt lat="59.9114994" lon="17.844306">
        <ele>5.90527</ele>
        <time>2013-04-27T13:32:49Z</time>
      </trkpt>
      <trkpt lat="59.9115735" lon="17.8442965">
        <ele>5.42456</ele>
        <time>2013-04-27T13:32:50Z</time>
      </trkpt>
      <trkpt lat="59.9116472" lon="17.8442855">
        <ele>4.94385</ele>
        <time>2013-04-27T13:32:51Z</time>
      </trkpt>
      <trkpt lat="59.9117185" lon="17.8442656">
        <ele>4.46326</ele>
        <time>2013-04-27T13:32:52Z</time>
      </trkpt>
      <trkpt lat="59.9117891" lon="17.8442388">
        <ele>3.98267</ele>
        <time>2013-04-27T13:32:53Z</time>
      </trkpt>
      <trkpt lat="59.9118606" lon="17.8442052">
        <ele>3.98267</ele>
        <time>2013-04-27T13:32:54Z</time>
      </trkpt>
      <trkpt lat="59.9119276" lon="17.8441623">
        <ele>3.98267</ele>
        <time>2013-04-27T13:32:55Z</time>
      </trkpt>
      <trkpt lat="59.9119906" lon="17.8441212">
        <ele>3.50195</ele>
        <time>2013-04-27T13:32:56Z</time>
      </trkpt>
      <trkpt lat="59.9120506" lon="17.8440721">
        <ele>3.02124</ele>
        <time>2013-04-27T13:32:57Z</time>
      </trkpt>
      <trkpt lat="59.912106" lon="17.844022">
        <ele>2.54065</ele>
        <time>2013-04-27T13:32:58Z</time>
      </trkpt>
      <trkpt lat="59.9121593" lon="17.8439683">
        <ele>2.54065</ele>
        <time>2013-04-27T13:32:59Z</time>
      </trkpt>
      <trkpt lat="59.9122117" lon="17.8439126">
        <ele>2.06006</ele>
        <time>2013-04-27T13:33:00Z</time>
      </trkpt>
      <trkpt lat="59.9122615" lon="17.8438555">
        <ele>1.57935</ele>
        <time>2013-04-27T13:33:01Z</time>
      </trkpt>
      <trkpt lat="59.912311" lon="17.8438015">
        <ele>1.57935</ele>
        <time>2013-04-27T13:33:02Z</time>
      </trkpt>
      <trkpt lat="59.9123608" lon="17.8437507">
        <ele>1.09863</ele>
        <time>2013-04-27T13:33:03Z</time>
      </trkpt>
      <trkpt lat="59.9124096" lon="17.8436991">
        <ele>0.618042</ele>
        <time>2013-04-27T13:33:04Z</time>
      </trkpt>
      <trkpt lat="59.9124588" lon="17.8436457">
        <ele>0.137451</ele>
        <time>2013-04-27T13:33:05Z</time>
      </trkpt>
      <trkpt lat="59.9125189" lon="17.8435944">
        <ele>1.09863</ele>
        <time>2013-04-27T13:33:06Z</time>
      </trkpt>
      <trkpt lat="59.9125795" lon="17.8435443">
        <ele>2.06006</ele>
        <time>2013-04-27T13:33:07Z</time>
      </trkpt>
      <trkpt lat="59.9126446" lon="17.8434966">
        <ele>3.50195</ele>
        <time>2013-04-27T13:33:08Z</time>
      </trkpt>
      <trkpt lat="59.912711" lon="17.8434575">
        <ele>4.46326</ele>
        <time>2013-04-27T13:33:09Z</time>
      </trkpt>
      <trkpt lat="59.9127835" lon="17.843426">
        <ele>5.42456</ele>
        <time>2013-04-27T13:33:10Z</time>
      </trkpt>
      <trkpt lat="59.9128581" lon="17.8433974">
        <ele>6.38586</ele>
        <time>2013-04-27T13:33:11Z</time>
      </trkpt>
      <trkpt lat="59.9129344" lon="17.8433705">
        <ele>7.34717</ele>
        <time>2013-04-27T13:33:12Z</time>
      </trkpt>
      <trkpt lat="59.913011" lon="17.8433464">
        <ele>7.34717</ele>
        <time>2013-04-27T13:33:13Z</time>
      </trkpt>
      <trkpt lat="59.913089" lon="17.8433257">
        <ele>7.82788</ele>
        <time>2013-04-27T13:33:14Z</time>
      </trkpt>
      <trkpt lat="59.9131683" lon="17.8433074">
        <ele>7.82788</ele>
        <time>2013-04-27T13:33:15Z</time>
      </trkpt>
      <trkpt lat="59.9132468" lon="17.8432878">
        <ele>7.82788</ele>
        <time>2013-04-27T13:33:16Z</time>
      </trkpt>
      <trkpt lat="59.9133249" lon="17.8432648">
        <ele>7.82788</ele>
        <time>2013-04-27T13:33:17Z</time>
      </trkpt>
      <trkpt lat="59.9134015" lon="17.8432355">
        <ele>7.82788</ele>
        <time>2013-04-27T13:33:18Z</time>
      </trkpt>
      <trkpt lat="59.913477" lon="17.8432004">
        <ele>7.82788</ele>
        <time>2013-04-27T13:33:19Z</time>
      </trkpt>
      <trkpt lat="59.9135492" lon="17.843162">
        <ele>7.82788</ele>
        <time>2013-04-27T13:33:20Z</time>
      </trkpt>
      <trkpt lat="59.9136176" lon="17.8431211">
        <ele>8.30859</ele>
        <time>2013-04-27T13:33:21Z</time>
      </trkpt>
      <trkpt lat="59.9136816" lon="17.8430775">
        <ele>8.78918</ele>
        <time>2013-04-27T13:33:22Z</time>
      </trkpt>
      <trkpt lat="59.91374" lon="17.8430325">
        <ele>8.78918</ele>
        <time>2013-04-27T13:33:23Z</time>
      </trkpt>
      <trkpt lat="59.9137961" lon="17.8429859">
        <ele>8.78918</ele>
        <time>2013-04-27T13:33:24Z</time>
      </trkpt>
      <trkpt lat="59.9138517" lon="17.8429372">
        <ele>8.78918</ele>
        <time>2013-04-27T13:33:25Z</time>
      </trkpt>
      <trkpt lat="59.9139041" lon="17.8428784">
        <ele>8.30859</ele>
        <time>2013-04-27T13:33:26Z</time>
      </trkpt>
      <trkpt lat="59.913959" lon="17.8428201">
        <ele>8.30859</ele>
        <time>2013-04-27T13:33:27Z</time>
      </trkpt>
      <trkpt lat="59.9140127" lon="17.8427641">
        <ele>7.82788</ele>
        <time>2013-04-27T13:33:28Z</time>
      </trkpt>
      <trkpt lat="59.9140658" lon="17.8427077">
        <ele>7.34717</ele>
        <time>2013-04-27T13:33:29Z</time>
      </trkpt>
      <trkpt lat="59.9141184" lon="17.8426507">
        <ele>7.34717</ele>
        <time>2013-04-27T13:33:30Z</time>
      </trkpt>
      <trkpt lat="59.9141697" lon="17.8425906">
        <ele>6.86646</ele>
        <time>2013-04-27T13:33:31Z</time>
      </trkpt>
      <trkpt lat="59.9142212" lon="17.842528">
        <ele>7.34717</ele>
        <time>2013-04-27T13:33:32Z</time>
      </trkpt>
      <trkpt lat="59.9142708" lon="17.8424669">
        <ele>6.86646</ele>
        <time>2013-04-27T13:33:33Z</time>
      </trkpt>
      <trkpt lat="59.9143189" lon="17.8424083">
        <ele>5.90527</ele>
        <time>2013-04-27T13:33:34Z</time>
      </trkpt>
      <trkpt lat="59.9143692" lon="17.8423475">
        <ele>5.90527</ele>
        <time>2013-04-27T13:33:35Z</time>
      </trkpt>
      <trkpt lat="59.9144189" lon="17.842285">
        <ele>6.38586</ele>
        <time>2013-04-27T13:33:36Z</time>
      </trkpt>
      <trkpt lat="59.9144676" lon="17.8422228">
        <ele>6.38586</ele>
        <time>2013-04-27T13:33:37Z</time>
      </trkpt>
      <trkpt lat="59.9145187" lon="17.8421632">
        <ele>6.38586</ele>
        <time>2013-04-27T13:33:38Z</time>
      </trkpt>
      <trkpt lat="59.9145705" lon="17.8421033">
        <ele>7.34717</ele>
        <time>2013-04-27T13:33:39Z</time>
      </trkpt>
      <trkpt lat="59.91462" lon="17.8420456">
        <ele>8.30859</ele>
        <time>2013-04-27T13:33:40Z</time>
      </trkpt>
      <trkpt lat="59.9146717" lon="17.8420011">
        <ele>8.78918</ele>
        <time>2013-04-27T13:33:41Z</time>
      </trkpt>
      <trkpt lat="59.9147256" lon="17.8419678">
        <ele>9.2699</ele>
        <time>2013-04-27T13:33:42Z</time>
      </trkpt>
      <trkpt lat="59.9147816" lon="17.8419368">
        <ele>10.2312</ele>
        <time>2013-04-27T13:33:43Z</time>
      </trkpt>
      <trkpt lat="59.9148378" lon="17.8419076">
        <ele>11.1925</ele>
        <time>2013-04-27T13:33:44Z</time>
      </trkpt>
      <trkpt lat="59.9148958" lon="17.8418864">
        <ele>12.1538</ele>
        <time>2013-04-27T13:33:45Z</time>
      </trkpt>
      <trkpt lat="59.9149544" lon="17.8418681">
        <ele>13.1151</ele>
        <time>2013-04-27T13:33:46Z</time>
      </trkpt>
      <trkpt lat="59.9150116" lon="17.841852">
        <ele>14.0764</ele>
        <time>2013-04-27T13:33:47Z</time>
      </trkpt>
      <trkpt lat="59.9150686" lon="17.8418379">
        <ele>14.557</ele>
        <time>2013-04-27T13:33:48Z</time>
      </trkpt>
      <trkpt lat="59.9151245" lon="17.8418321">
        <ele>14.557</ele>
        <time>2013-04-27T13:33:49Z</time>
      </trkpt>
      <trkpt lat="59.9151773" lon="17.8418238">
        <ele>14.0764</ele>
        <time>2013-04-27T13:33:50Z</time>
      </trkpt>
      <trkpt lat="59.9152328" lon="17.8418163">
        <ele>14.0764</ele>
        <time>2013-04-27T13:33:51Z</time>
      </trkpt>
      <trkpt lat="59.9152872" lon="17.8418145">
        <ele>14.557</ele>
        <time>2013-04-27T13:33:52Z</time>
      </trkpt>
      <trkpt lat="59.9153415" lon="17.8418167">
        <ele>14.557</ele>
        <time>2013-04-27T13:33:53Z</time>
      </trkpt>
      <trkpt lat="59.9153958" lon="17.8418163">
        <ele>15.0377</ele>
        <time>2013-04-27T13:33:54Z</time>
      </trkpt>
      <trkpt lat="59.9154499" lon="17.841818">
        <ele>15.0377</ele>
        <time>2013-04-27T13:33:55Z</time>
      </trkpt>
      <trkpt lat="59.9155055" lon="17.8418229">
        <ele>15.5184</ele>
        <time>2013-04-27T13:33:56Z</time>
      </trkpt>
      <trkpt lat="59.9155599" lon="17.8418311">
        <ele>15.5184</ele>
        <time>2013-04-27T13:33:57Z</time>
      </trkpt>
      <trkpt lat="59.9156146" lon="17.8418374">
        <ele>15.999</ele>
        <time>2013-04-27T13:33:58Z</time>
      </trkpt>
      <trkpt lat="59.9156692" lon="17.8418432">
        <ele>16.4797</ele>
        <time>2013-04-27T13:33:59Z</time>
      </trkpt>
      <trkpt lat="59.9157216" lon="17.8418473">
        <ele>16.4797</ele>
        <time>2013-04-27T13:34:00Z</time>
      </trkpt>
      <trkpt lat="59.9157729" lon="17.8418509">
        <ele>16.4797</ele>
        <time>2013-04-27T13:34:01Z</time>
      </trkpt>
      <trkpt lat="59.9158248" lon="17.8418523">
        <ele>16.4797</ele>
        <time>2013-04-27T13:34:02Z</time>
      </trkpt>
      <trkpt lat="59.9158761" lon="17.8418503">
        <ele>16.4797</ele>
        <time>2013-04-27T13:34:03Z</time>
      </trkpt>
      <trkpt lat="59.915929" lon="17.8418551">
        <ele>16.4797</ele>
        <time>2013-04-27T13:34:04Z</time>
      </trkpt>
      <trkpt lat="59.9159827" lon="17.8418695">
        <ele>16.9604</ele>
        <time>2013-04-27T13:34:05Z</time>
      </trkpt>
      <trkpt lat="59.9160349" lon="17.8418929">
        <ele>16.9604</ele>
        <time>2013-04-27T13:34:06Z</time>
      </trkpt>
      <trkpt lat="59.9160864" lon="17.8419245">
        <ele>16.9604</ele>
        <time>2013-04-27T13:34:07Z</time>
      </trkpt>
      <trkpt lat="59.9161358" lon="17.8419659">
        <ele>16.9604</ele>
        <time>2013-04-27T13:34:08Z</time>
      </trkpt>
      <trkpt lat="59.9161827" lon="17.842018">
        <ele>17.4412</ele>
        <time>2013-04-27T13:34:09Z</time>
      </trkpt>
      <trkpt lat="59.9162271" lon="17.8420765">
        <ele>17.9218</ele>
        <time>2013-04-27T13:34:10Z</time>
      </trkpt>
      <trkpt lat="59.9162696" lon="17.8421371">
        <ele>17.9218</ele>
        <time>2013-04-27T13:34:11Z</time>
      </trkpt>
      <trkpt lat="59.9163107" lon="17.8421981">
        <ele>18.4023</ele>
        <time>2013-04-27T13:34:12Z</time>
      </trkpt>
      <trkpt lat="59.9163523" lon="17.8422559">
        <ele>18.8831</ele>
        <time>2013-04-27T13:34:13Z</time>
      </trkpt>
      <trkpt lat="59.9163921" lon="17.8423196">
        <ele>19.3638</ele>
        <time>2013-04-27T13:34:14Z</time>
      </trkpt>
      <trkpt lat="59.9164303" lon="17.8423858">
        <ele>19.3638</ele>
        <time>2013-04-27T13:34:15Z</time>
      </trkpt>
      <trkpt lat="59.9164677" lon="17.8424517">
        <ele>19.3638</ele>
        <time>2013-04-27T13:34:16Z</time>
      </trkpt>
      <trkpt lat="59.916506" lon="17.8425153">
        <ele>19.3638</ele>
        <time>2013-04-27T13:34:17Z</time>
      </trkpt>
      <trkpt lat="59.9165458" lon="17.8425782">
        <ele>19.3638</ele>
        <time>2013-04-27T13:34:18Z</time>
      </trkpt>
      <trkpt lat="59.9165882" lon="17.8426398">
        <ele>19.8444</ele>
        <time>2013-04-27T13:34:19Z</time>
      </trkpt>
      <trkpt lat="59.9166302" lon="17.8426988">
        <ele>20.325</ele>
        <time>2013-04-27T13:34:20Z</time>
      </trkpt>
      <trkpt lat="59.9166723" lon="17.8427548">
        <ele>20.325</ele>
        <time>2013-04-27T13:34:21Z</time>
      </trkpt>
      <trkpt lat="59.9167132" lon="17.8428122">
        <ele>20.325</ele>
        <time>2013-04-27T13:34:22Z</time>
      </trkpt>
      <trkpt lat="59.916754" lon="17.842867">
        <ele>20.8057</ele>
        <time>2013-04-27T13:34:23Z</time>
      </trkpt>
      <trkpt lat="59.9167941" lon="17.842919">
        <ele>20.8057</ele>
        <time>2013-04-27T13:34:24Z</time>
      </trkpt>
      <trkpt lat="59.9168346" lon="17.8429672">
        <ele>21.2864</ele>
        <time>2013-04-27T13:34:25Z</time>
      </trkpt>
      <trkpt lat="59.9168764" lon="17.8430086">
        <ele>21.2864</ele>
        <time>2013-04-27T13:34:26Z</time>
      </trkpt>
      <trkpt lat="59.9169203" lon="17.8430396">
        <ele>21.2864</ele>
        <time>2013-04-27T13:34:27Z</time>
      </trkpt>
      <trkpt lat="59.9169659" lon="17.8430509">
        <ele>21.2864</ele>
        <time>2013-04-27T13:34:28Z</time>
      </trkpt>
      <trkpt lat="59.9170152" lon="17.8430413">
        <ele>21.2864</ele>
        <time>2013-04-27T13:34:29Z</time>
      </trkpt>
      <trkpt lat="59.9170666" lon="17.8430174">
        <ele>21.2864</ele>
        <time>2013-04-27T13:34:30Z</time>
      </trkpt>
      <trkpt lat="59.9171187" lon="17.8429858">
        <ele>21.2864</ele>
        <time>2013-04-27T13:34:31Z</time>
      </trkpt>
      <trkpt lat="59.9171715" lon="17.8429485">
        <ele>21.767</ele>
        <time>2013-04-27T13:34:32Z</time>
      </trkpt>
      <trkpt lat="59.9172248" lon="17.842904">
        <ele>21.2864</ele>
        <time>2013-04-27T13:34:33Z</time>
      </trkpt>
      <trkpt lat="59.9172779" lon="17.8428582">
        <ele>21.2864</ele>
        <time>2013-04-27T13:34:34Z</time>
      </trkpt>
      <trkpt lat="59.917331" lon="17.8428137">
        <ele>21.2864</ele>
        <time>2013-04-27T13:34:35Z</time>
      </trkpt>
      <trkpt lat="59.9173844" lon="17.8427697">
        <ele>20.8057</ele>
        <time>2013-04-27T13:34:36Z</time>
      </trkpt>
      <trkpt lat="59.9174386" lon="17.8427251">
        <ele>20.8057</ele>
        <time>2013-04-27T13:34:37Z</time>
      </trkpt>
      <trkpt lat="59.9174914" lon="17.842679">
        <ele>20.325</ele>
        <time>2013-04-27T13:34:38Z</time>
      </trkpt>
      <trkpt lat="59.9175419" lon="17.8426304">
        <ele>19.8444</ele>
        <time>2013-04-27T13:34:39Z</time>
      </trkpt>
      <trkpt lat="59.91759" lon="17.8425809">
        <ele>19.3638</ele>
        <time>2013-04-27T13:34:40Z</time>
      </trkpt>
      <trkpt lat="59.9176403" lon="17.8425324">
        <ele>19.3638</ele>
        <time>2013-04-27T13:34:41Z</time>
      </trkpt>
      <trkpt lat="59.9176908" lon="17.8424853">
        <ele>18.8831</ele>
        <time>2013-04-27T13:34:42Z</time>
      </trkpt>
      <trkpt lat="59.9177415" lon="17.8424353">
        <ele>18.4023</ele>
        <time>2013-04-27T13:34:43Z</time>
      </trkpt>
      <trkpt lat="59.9177902" lon="17.8423772">
        <ele>17.4412</ele>
        <time>2013-04-27T13:34:44Z</time>
      </trkpt>
      <trkpt lat="59.9178415" lon="17.8423161">
        <ele>16.4797</ele>
        <time>2013-04-27T13:34:45Z</time>
      </trkpt>
      <trkpt lat="59.9178974" lon="17.8422529">
        <ele>16.4797</ele>
        <time>2013-04-27T13:34:46Z</time>
      </trkpt>
      <trkpt lat="59.9179533" lon="17.8421892">
        <ele>15.5184</ele>
        <time>2013-04-27T13:34:47Z</time>
      </trkpt>
      <trkpt lat="59.9180089" lon="17.842126">
        <ele>15.0377</ele>
        <time>2013-04-27T13:34:48Z</time>
      </trkpt>
      <trkpt lat="59.9180653" lon="17.8420617">
        <ele>14.557</ele>
        <time>2013-04-27T13:34:49Z</time>
      </trkpt>
      <trkpt lat="59.9181241" lon="17.8419978">
        <ele>14.557</ele>
        <time>2013-04-27T13:34:50Z</time>
      </trkpt>
      <trkpt lat="59.9181845" lon="17.8419348">
        <ele>14.0764</ele>
        <time>2013-04-27T13:34:51Z</time>
      </trkpt>
      <trkpt lat="59.9182454" lon="17.8418737">
        <ele>13.5958</ele>
        <time>2013-04-27T13:34:52Z</time>
      </trkpt>
      <trkpt lat="59.9183071" lon="17.8418134">
        <ele>12.6344</ele>
        <time>2013-04-27T13:34:53Z</time>
      </trkpt>
      <trkpt lat="59.9183709" lon="17.8417523">
        <ele>12.6344</ele>
        <time>2013-04-27T13:34:54Z</time>
      </trkpt>
      <trkpt lat="59.9184359" lon="17.8416913">
        <ele>12.1538</ele>
        <time>2013-04-27T13:34:55Z</time>
      </trkpt>
      <trkpt lat="59.9185014" lon="17.841631">
        <ele>12.1538</ele>
        <time>2013-04-27T13:34:56Z</time>
      </trkpt>
      <trkpt lat="59.9185676" lon="17.841572">
        <ele>11.6732</ele>
        <time>2013-04-27T13:34:57Z</time>
      </trkpt>
      <trkpt lat="59.9186356" lon="17.8415157">
        <ele>11.6732</ele>
        <time>2013-04-27T13:34:58Z</time>
      </trkpt>
      <trkpt lat="59.9187028" lon="17.8414612">
        <ele>11.6732</ele>
        <time>2013-04-27T13:34:59Z</time>
      </trkpt>
      <trkpt lat="59.9187697" lon="17.8414068">
        <ele>11.6732</ele>
        <time>2013-04-27T13:35:00Z</time>
      </trkpt>
      <trkpt lat="59.9188365" lon="17.8413529">
        <ele>11.6732</ele>
        <time>2013-04-27T13:35:01Z</time>
      </trkpt>
      <trkpt lat="59.9189022" lon="17.8413013">
        <ele>11.6732</ele>
        <time>2013-04-27T13:35:02Z</time>
      </trkpt>
      <trkpt lat="59.9189661" lon="17.8412526">
        <ele>11.1925</ele>
        <time>2013-04-27T13:35:03Z</time>
      </trkpt>
      <trkpt lat="59.9190287" lon="17.8412091">
        <ele>10.7118</ele>
        <time>2013-04-27T13:35:04Z</time>
      </trkpt>
      <trkpt lat="59.9190883" lon="17.8411661">
        <ele>10.7118</ele>
        <time>2013-04-27T13:35:05Z</time>
      </trkpt>
      <trkpt lat="59.9191463" lon="17.8411265">
        <ele>10.2312</ele>
        <time>2013-04-27T13:35:06Z</time>
      </trkpt>
      <trkpt lat="59.9192033" lon="17.8410874">
        <ele>10.2312</ele>
        <time>2013-04-27T13:35:07Z</time>
      </trkpt>
      <trkpt lat="59.9192593" lon="17.8410485">
        <ele>10.2312</ele>
        <time>2013-04-27T13:35:08Z</time>
      </trkpt>
      <trkpt lat="59.9193183" lon="17.8410102">
        <ele>10.7118</ele>
        <time>2013-04-27T13:35:09Z</time>
      </trkpt>
      <trkpt lat="59.9193766" lon="17.8409728">
        <ele>10.7118</ele>
        <time>2013-04-27T13:35:10Z</time>
      </trkpt>
      <trkpt lat="59.9194359" lon="17.8409354">
        <ele>11.1925</ele>
        <time>2013-04-27T13:35:11Z</time>
      </trkpt>
      <trkpt lat="59.9194958" lon="17.8408951">
        <ele>11.1925</ele>
        <time>2013-04-27T13:35:12Z</time>
      </trkpt>
      <trkpt lat="59.9195544" lon="17.8408549">
        <ele>11.1925</ele>
        <time>2013-04-27T13:35:13Z</time>
      </trkpt>
      <trkpt lat="59.9196151" lon="17.84082">
        <ele>11.6732</ele>
        <time>2013-04-27T13:35:14Z</time>
      </trkpt>
      <trkpt lat="59.919676" lon="17.8407925">
        <ele>12.1538</ele>
        <time>2013-04-27T13:35:15Z</time>
      </trkpt>
      <trkpt lat="59.9197382" lon="17.8407693">
        <ele>12.1538</ele>
        <time>2013-04-27T13:35:16Z</time>
      </trkpt>
      <trkpt lat="59.9197976" lon="17.8407497">
        <ele>12.6344</ele>
        <time>2013-04-27T13:35:17Z</time>
      </trkpt>
      <trkpt lat="59.9198581" lon="17.8407346">
        <ele>12.6344</ele>
        <time>2013-04-27T13:35:18Z</time>
      </trkpt>
      <trkpt lat="59.9199186" lon="17.8407245">
        <ele>13.1151</ele>
        <time>2013-04-27T13:35:19Z</time>
      </trkpt>
      <trkpt lat="59.9199788" lon="17.8407179">
        <ele>13.1151</ele>
        <time>2013-04-27T13:35:20Z</time>
      </trkpt>
      <trkpt lat="59.9200379" lon="17.8407133">
        <ele>12.6344</ele>
        <time>2013-04-27T13:35:21Z</time>
      </trkpt>
      <trkpt lat="59.920097" lon="17.8407123">
        <ele>12.6344</ele>
        <time>2013-04-27T13:35:22Z</time>
      </trkpt>
      <trkpt lat="59.9201585" lon="17.8407138">
        <ele>13.1151</ele>
        <time>2013-04-27T13:35:23Z</time>
      </trkpt>
      <trkpt lat="59.9202196" lon="17.8407133">
        <ele>13.1151</ele>
        <time>2013-04-27T13:35:24Z</time>
      </trkpt>
      <trkpt lat="59.9202774" lon="17.8407136">
        <ele>13.1151</ele>
        <time>2013-04-27T13:35:25Z</time>
      </trkpt>
      <trkpt lat="59.9203357" lon="17.8407183">
        <ele>12.6344</ele>
        <time>2013-04-27T13:35:26Z</time>
      </trkpt>
      <trkpt lat="59.9203957" lon="17.8407215">
        <ele>12.1538</ele>
        <time>2013-04-27T13:35:27Z</time>
      </trkpt>
      <trkpt lat="59.9204582" lon="17.8407217">
        <ele>11.6732</ele>
        <time>2013-04-27T13:35:28Z</time>
      </trkpt>
      <trkpt lat="59.920523" lon="17.8407184">
        <ele>11.1925</ele>
        <time>2013-04-27T13:35:29Z</time>
      </trkpt>
      <trkpt lat="59.9205886" lon="17.840719">
        <ele>11.1925</ele>
        <time>2013-04-27T13:35:30Z</time>
      </trkpt>
      <trkpt lat="59.9206547" lon="17.8407145">
        <ele>10.7118</ele>
        <time>2013-04-27T13:35:31Z</time>
      </trkpt>
      <trkpt lat="59.9207203" lon="17.8407097">
        <ele>10.7118</ele>
        <time>2013-04-27T13:35:32Z</time>
      </trkpt>
      <trkpt lat="59.9207851" lon="17.8407086">
        <ele>10.7118</ele>
        <time>2013-04-27T13:35:33Z</time>
      </trkpt>
      <trkpt lat="59.920848" lon="17.8407086">
        <ele>10.7118</ele>
        <time>2013-04-27T13:35:34Z</time>
      </trkpt>
      <trkpt lat="59.9209112" lon="17.8407066">
        <ele>10.7118</ele>
        <time>2013-04-27T13:35:35Z</time>
      </trkpt>
      <trkpt lat="59.9209757" lon="17.8407057">
        <ele>10.2312</ele>
        <time>2013-04-27T13:35:36Z</time>
      </trkpt>
      <trkpt lat="59.921041" lon="17.8407069">
        <ele>10.2312</ele>
        <time>2013-04-27T13:35:37Z</time>
      </trkpt>
      <trkpt lat="59.921107" lon="17.8407066">
        <ele>10.2312</ele>
        <time>2013-04-27T13:35:38Z</time>
      </trkpt>
      <trkpt lat="59.9211739" lon="17.8407035">
        <ele>10.2312</ele>
        <time>2013-04-27T13:35:39Z</time>
      </trkpt>
      <trkpt lat="59.9212415" lon="17.8406978">
        <ele>10.2312</ele>
        <time>2013-04-27T13:35:40Z</time>
      </trkpt>
      <trkpt lat="59.9213091" lon="17.8406879">
        <ele>9.75061</ele>
        <time>2013-04-27T13:35:41Z</time>
      </trkpt>
      <trkpt lat="59.9213761" lon="17.8406759">
        <ele>9.75061</ele>
        <time>2013-04-27T13:35:42Z</time>
      </trkpt>
      <trkpt lat="59.921445" lon="17.8406631">
        <ele>10.2312</ele>
        <time>2013-04-27T13:35:43Z</time>
      </trkpt>
      <trkpt lat="59.921512" lon="17.8406511">
        <ele>9.75061</ele>
        <time>2013-04-27T13:35:44Z</time>
      </trkpt>
      <trkpt lat="59.9215797" lon="17.8406387">
        <ele>9.75061</ele>
        <time>2013-04-27T13:35:45Z</time>
      </trkpt>
      <trkpt lat="59.9216467" lon="17.8406247">
        <ele>9.75061</ele>
        <time>2013-04-27T13:35:46Z</time>
      </trkpt>
      <trkpt lat="59.9217125" lon="17.8406075">
        <ele>9.75061</ele>
        <time>2013-04-27T13:35:47Z</time>
      </trkpt>
      <trkpt lat="59.9217773" lon="17.8405895">
        <ele>9.75061</ele>
        <time>2013-04-27T13:35:48Z</time>
      </trkpt>
      <trkpt lat="59.9218422" lon="17.8405724">
        <ele>9.75061</ele>
        <time>2013-04-27T13:35:49Z</time>
      </trkpt>
      <trkpt lat="59.9219068" lon="17.8405558">
        <ele>9.75061</ele>
        <time>2013-04-27T13:35:50Z</time>
      </trkpt>
      <trkpt lat="59.921971" lon="17.8405372">
        <ele>9.75061</ele>
        <time>2013-04-27T13:35:51Z</time>
      </trkpt>
      <trkpt lat="59.9220343" lon="17.8405178">
        <ele>9.75061</ele>
        <time>2013-04-27T13:35:52Z</time>
      </trkpt>
      <trkpt lat="59.922098" lon="17.8404989">
        <ele>9.75061</ele>
        <time>2013-04-27T13:35:53Z</time>
      </trkpt>
      <trkpt lat="59.9221616" lon="17.8404802">
        <ele>9.75061</ele>
        <time>2013-04-27T13:35:54Z</time>
      </trkpt>
      <trkpt lat="59.9222254" lon="17.8404601">
        <ele>10.2312</ele>
        <time>2013-04-27T13:35:55Z</time>
      </trkpt>
      <trkpt lat="59.9222887" lon="17.8404372">
        <ele>10.2312</ele>
        <time>2013-04-27T13:35:56Z</time>
      </trkpt>
      <trkpt lat="59.9223518" lon="17.8404123">
        <ele>10.2312</ele>
        <time>2013-04-27T13:35:57Z</time>
      </trkpt>
      <trkpt lat="59.922414" lon="17.8403864">
        <ele>10.2312</ele>
        <time>2013-04-27T13:35:58Z</time>
      </trkpt>
      <trkpt lat="59.9224762" lon="17.8403589">
        <ele>9.75061</ele>
        <time>2013-04-27T13:35:59Z</time>
      </trkpt>
      <trkpt lat="59.9225383" lon="17.8403308">
        <ele>10.2312</ele>
        <time>2013-04-27T13:36:00Z</time>
      </trkpt>
      <trkpt lat="59.9225994" lon="17.8403025">
        <ele>10.2312</ele>
        <time>2013-04-27T13:36:01Z</time>
      </trkpt>
      <trkpt lat="59.9226601" lon="17.8402705">
        <ele>9.75061</ele>
        <time>2013-04-27T13:36:02Z</time>
      </trkpt>
      <trkpt lat="59.9227206" lon="17.8402352">
        <ele>9.75061</ele>
        <time>2013-04-27T13:36:03Z</time>
      </trkpt>
      <trkpt lat="59.9227815" lon="17.8402008">
        <ele>9.75061</ele>
        <time>2013-04-27T13:36:04Z</time>
      </trkpt>
      <trkpt lat="59.9228428" lon="17.8401684">
        <ele>9.75061</ele>
        <time>2013-04-27T13:36:05Z</time>
      </trkpt>
      <trkpt lat="59.9229038" lon="17.8401362">
        <ele>9.75061</ele>
        <time>2013-04-27T13:36:06Z</time>
      </trkpt>
      <trkpt lat="59.922965" lon="17.8401026">
        <ele>9.2699</ele>
        <time>2013-04-27T13:36:07Z</time>
      </trkpt>
      <trkpt lat="59.923027" lon="17.8400677">
        <ele>9.2699</ele>
        <time>2013-04-27T13:36:08Z</time>
      </trkpt>
      <trkpt lat="59.9230888" lon="17.8400286">
        <ele>9.2699</ele>
        <time>2013-04-27T13:36:09Z</time>
      </trkpt>
      <trkpt lat="59.92315" lon="17.8399903">
        <ele>8.78918</ele>
        <time>2013-04-27T13:36:10Z</time>
      </trkpt>
      <trkpt lat="59.9232137" lon="17.8399546">
        <ele>8.30859</ele>
        <time>2013-04-27T13:36:11Z</time>
      </trkpt>
      <trkpt lat="59.9232784" lon="17.83992">
        <ele>8.30859</ele>
        <time>2013-04-27T13:36:12Z</time>
      </trkpt>
      <trkpt lat="59.9233437" lon="17.8398849">
        <ele>8.30859</ele>
        <time>2013-04-27T13:36:13Z</time>
      </trkpt>
      <trkpt lat="59.923409" lon="17.8398484">
        <ele>8.30859</ele>
        <time>2013-04-27T13:36:14Z</time>
      </trkpt>
      <trkpt lat="59.9234737" lon="17.839814">
        <ele>8.30859</ele>
        <time>2013-04-27T13:36:15Z</time>
      </trkpt>
      <trkpt lat="59.9235391" lon="17.8397818">
        <ele>8.78918</ele>
        <time>2013-04-27T13:36:16Z</time>
      </trkpt>
      <trkpt lat="59.9236048" lon="17.8397486">
        <ele>8.78918</ele>
        <time>2013-04-27T13:36:17Z</time>
      </trkpt>
      <trkpt lat="59.923669" lon="17.8397182">
        <ele>8.78918</ele>
        <time>2013-04-27T13:36:18Z</time>
      </trkpt>
      <trkpt lat="59.923731" lon="17.8396903">
        <ele>8.30859</ele>
        <time>2013-04-27T13:36:19Z</time>
      </trkpt>
      <trkpt lat="59.9237934" lon="17.8396628">
        <ele>8.30859</ele>
        <time>2013-04-27T13:36:20Z</time>
      </trkpt>
      <trkpt lat="59.9238566" lon="17.8396349">
        <ele>7.82788</ele>
        <time>2013-04-27T13:36:21Z</time>
      </trkpt>
      <trkpt lat="59.9239196" lon="17.839607">
        <ele>7.82788</ele>
        <time>2013-04-27T13:36:22Z</time>
      </trkpt>
      <trkpt lat="59.9239836" lon="17.8395813">
        <ele>7.34717</ele>
        <time>2013-04-27T13:36:23Z</time>
      </trkpt>
      <trkpt lat="59.9240477" lon="17.8395592">
        <ele>6.86646</ele>
        <time>2013-04-27T13:36:24Z</time>
      </trkpt>
      <trkpt lat="59.9241134" lon="17.8395363">
        <ele>7.34717</ele>
        <time>2013-04-27T13:36:25Z</time>
      </trkpt>
      <trkpt lat="59.9241777" lon="17.8395126">
        <ele>7.34717</ele>
        <time>2013-04-27T13:36:26Z</time>
      </trkpt>
      <trkpt lat="59.9242414" lon="17.8394906">
        <ele>7.34717</ele>
        <time>2013-04-27T13:36:27Z</time>
      </trkpt>
      <trkpt lat="59.9243046" lon="17.8394697">
        <ele>7.34717</ele>
        <time>2013-04-27T13:36:28Z</time>
      </trkpt>
      <trkpt lat="59.9243673" lon="17.8394515">
        <ele>7.34717</ele>
        <time>2013-04-27T13:36:29Z</time>
      </trkpt>
      <trkpt lat="59.92443" lon="17.839437">
        <ele>7.34717</ele>
        <time>2013-04-27T13:36:30Z</time>
      </trkpt>
      <trkpt lat="59.9244922" lon="17.839423">
        <ele>7.34717</ele>
        <time>2013-04-27T13:36:31Z</time>
      </trkpt>
      <trkpt lat="59.9245531" lon="17.8394101">
        <ele>7.34717</ele>
        <time>2013-04-27T13:36:32Z</time>
      </trkpt>
      <trkpt lat="59.924615" lon="17.8393996">
        <ele>7.82788</ele>
        <time>2013-04-27T13:36:33Z</time>
      </trkpt>
      <trkpt lat="59.9246771" lon="17.8393913">
        <ele>8.30859</ele>
        <time>2013-04-27T13:36:34Z</time>
      </trkpt>
      <trkpt lat="59.9247389" lon="17.8393836">
        <ele>8.78918</ele>
        <time>2013-04-27T13:36:35Z</time>
      </trkpt>
      <trkpt lat="59.9247988" lon="17.8393775">
        <ele>8.78918</ele>
        <time>2013-04-27T13:36:36Z</time>
      </trkpt>
      <trkpt lat="59.9248583" lon="17.8393723">
        <ele>8.78918</ele>
        <time>2013-04-27T13:36:37Z</time>
      </trkpt>
      <trkpt lat="59.9249175" lon="17.8393671">
        <ele>8.78918</ele>
        <time>2013-04-27T13:36:38Z</time>
      </trkpt>
      <trkpt lat="59.924976" lon="17.8393623">
        <ele>8.78918</ele>
        <time>2013-04-27T13:36:39Z</time>
      </trkpt>
      <trkpt lat="59.9250344" lon="17.8393592">
        <ele>8.78918</ele>
        <time>2013-04-27T13:36:40Z</time>
      </trkpt>
      <trkpt lat="59.9250932" lon="17.8393586">
        <ele>8.78918</ele>
        <time>2013-04-27T13:36:41Z</time>
      </trkpt>
      <trkpt lat="59.9251541" lon="17.8393587">
        <ele>9.2699</ele>
        <time>2013-04-27T13:36:42Z</time>
      </trkpt>
      <trkpt lat="59.9252179" lon="17.8393597">
        <ele>9.75061</ele>
        <time>2013-04-27T13:36:43Z</time>
      </trkpt>
      <trkpt lat="59.9252836" lon="17.8393625">
        <ele>10.2312</ele>
        <time>2013-04-27T13:36:44Z</time>
      </trkpt>
      <trkpt lat="59.925349" lon="17.839368">
        <ele>10.7118</ele>
        <time>2013-04-27T13:36:45Z</time>
      </trkpt>
      <trkpt lat="59.9254164" lon="17.8393758">
        <ele>11.1925</ele>
        <time>2013-04-27T13:36:46Z</time>
      </trkpt>
      <trkpt lat="59.9254826" lon="17.8393863">
        <ele>11.1925</ele>
        <time>2013-04-27T13:36:47Z</time>
      </trkpt>
      <trkpt lat="59.9255489" lon="17.8393945">
        <ele>11.1925</ele>
        <time>2013-04-27T13:36:48Z</time>
      </trkpt>
      <trkpt lat="59.9256155" lon="17.8393989">
        <ele>11.1925</ele>
        <time>2013-04-27T13:36:49Z</time>
      </trkpt>
      <trkpt lat="59.9256815" lon="17.8393924">
        <ele>11.1925</ele>
        <time>2013-04-27T13:36:50Z</time>
      </trkpt>
      <trkpt lat="59.9257463" lon="17.8393649">
        <ele>11.1925</ele>
        <time>2013-04-27T13:36:51Z</time>
      </trkpt>
      <trkpt lat="59.9258077" lon="17.8393146">
        <ele>10.7118</ele>
        <time>2013-04-27T13:36:52Z</time>
      </trkpt>
      <trkpt lat="59.9258658" lon="17.8392499">
        <ele>10.7118</ele>
        <time>2013-04-27T13:36:53Z</time>
      </trkpt>
      <trkpt lat="59.9259214" lon="17.8391739">
        <ele>10.7118</ele>
        <time>2013-04-27T13:36:54Z</time>
      </trkpt>
      <trkpt lat="59.9259721" lon="17.8390888">
        <ele>10.2312</ele>
        <time>2013-04-27T13:36:55Z</time>
      </trkpt>
      <trkpt lat="59.9260214" lon="17.8389987">
        <ele>10.7118</ele>
        <time>2013-04-27T13:36:56Z</time>
      </trkpt>
      <trkpt lat="59.9260685" lon="17.8389045">
        <ele>10.7118</ele>
        <time>2013-04-27T13:36:57Z</time>
      </trkpt>
      <trkpt lat="59.926114" lon="17.8388085">
        <ele>10.7118</ele>
        <time>2013-04-27T13:36:58Z</time>
      </trkpt>
      <trkpt lat="59.9261576" lon="17.8387122">
        <ele>10.7118</ele>
        <time>2013-04-27T13:36:59Z</time>
      </trkpt>
      <trkpt lat="59.9262005" lon="17.838616">
        <ele>11.1925</ele>
        <time>2013-04-27T13:37:00Z</time>
      </trkpt>
      <trkpt lat="59.926243" lon="17.8385202">
        <ele>11.1925</ele>
        <time>2013-04-27T13:37:01Z</time>
      </trkpt>
      <trkpt lat="59.9262879" lon="17.8384251">
        <ele>12.1538</ele>
        <time>2013-04-27T13:37:02Z</time>
      </trkpt>
      <trkpt lat="59.9263321" lon="17.8383323">
        <ele>13.1151</ele>
        <time>2013-04-27T13:37:03Z</time>
      </trkpt>
      <trkpt lat="59.9263736" lon="17.8382462">
        <ele>14.0764</ele>
        <time>2013-04-27T13:37:04Z</time>
      </trkpt>
      <trkpt lat="59.9264154" lon="17.8381632">
        <ele>15.5184</ele>
        <time>2013-04-27T13:37:05Z</time>
      </trkpt>
      <trkpt lat="59.9264554" lon="17.8380824">
        <ele>16.4797</ele>
        <time>2013-04-27T13:37:06Z</time>
      </trkpt>
      <trkpt lat="59.9264987" lon="17.8380072">
        <ele>17.4412</ele>
        <time>2013-04-27T13:37:07Z</time>
      </trkpt>
      <trkpt lat="59.9265451" lon="17.8379423">
        <ele>18.4023</ele>
        <time>2013-04-27T13:37:08Z</time>
      </trkpt>
      <trkpt lat="59.9265928" lon="17.837886">
        <ele>18.4023</ele>
        <time>2013-04-27T13:37:09Z</time>
      </trkpt>
      <trkpt lat="59.9266399" lon="17.8378368">
        <ele>18.8831</ele>
        <time>2013-04-27T13:37:10Z</time>
      </trkpt>
      <trkpt lat="59.9266907" lon="17.83779">
        <ele>19.3638</ele>
        <time>2013-04-27T13:37:11Z</time>
      </trkpt>
      <trkpt lat="59.9267462" lon="17.8377582">
        <ele>20.325</ele>
        <time>2013-04-27T13:37:12Z</time>
      </trkpt>
      <trkpt lat="59.9267927" lon="17.8377157">
        <ele>20.8057</ele>
        <time>2013-04-27T13:37:13Z</time>
      </trkpt>
      <trkpt lat="59.9268389" lon="17.8376776">
        <ele>21.2864</ele>
        <time>2013-04-27T13:37:14Z</time>
      </trkpt>
      <trkpt lat="59.92689" lon="17.8376427">
        <ele>21.2864</ele>
        <time>2013-04-27T13:37:15Z</time>
      </trkpt>
      <trkpt lat="59.9269289" lon="17.8376058">
        <ele>21.2864</ele>
        <time>2013-04-27T13:37:16Z</time>
      </trkpt>
      <trkpt lat="59.926971" lon="17.8375612">
        <ele>21.767</ele>
        <time>2013-04-27T13:37:17Z</time>
      </trkpt>
      <trkpt lat="59.9270178" lon="17.8375118">
        <ele>21.2864</ele>
        <time>2013-04-27T13:37:18Z</time>
      </trkpt>
      <trkpt lat="59.9270662" lon="17.837452">
        <ele>20.8057</ele>
        <time>2013-04-27T13:37:19Z</time>
      </trkpt>
      <trkpt lat="59.9271076" lon="17.8373932">
        <ele>20.325</ele>
        <time>2013-04-27T13:37:20Z</time>
      </trkpt>
      <trkpt lat="59.9271532" lon="17.8373254">
        <ele>19.3638</ele>
        <time>2013-04-27T13:37:21Z</time>
      </trkpt>
      <trkpt lat="59.9272012" lon="17.8372568">
        <ele>19.3638</ele>
        <time>2013-04-27T13:37:22Z</time>
      </trkpt>
      <trkpt lat="59.9272542" lon="17.8371941">
        <ele>18.8831</ele>
        <time>2013-04-27T13:37:23Z</time>
      </trkpt>
      <trkpt lat="59.9273039" lon="17.8371375">
        <ele>18.8831</ele>
        <time>2013-04-27T13:37:24Z</time>
      </trkpt>
      <trkpt lat="59.9273522" lon="17.8370793">
        <ele>18.8831</ele>
        <time>2013-04-27T13:37:25Z</time>
      </trkpt>
      <trkpt lat="59.927397" lon="17.8370192">
        <ele>18.4023</ele>
        <time>2013-04-27T13:37:26Z</time>
      </trkpt>
      <trkpt lat="59.9274397" lon="17.8369576">
        <ele>17.9218</ele>
        <time>2013-04-27T13:37:27Z</time>
      </trkpt>
      <trkpt lat="59.9274837" lon="17.8368966">
        <ele>17.9218</ele>
        <time>2013-04-27T13:37:28Z</time>
      </trkpt>
      <trkpt lat="59.9275216" lon="17.8368329">
        <ele>16.9604</ele>
        <time>2013-04-27T13:37:29Z</time>
      </trkpt>
      <trkpt lat="59.92756" lon="17.8367718">
        <ele>15.0377</ele>
        <time>2013-04-27T13:37:30Z</time>
      </trkpt>
      <trkpt lat="59.9276012" lon="17.8367133">
        <ele>14.557</ele>
        <time>2013-04-27T13:37:31Z</time>
      </trkpt>
      <trkpt lat="59.9276468" lon="17.8366515">
        <ele>15.0377</ele>
        <time>2013-04-27T13:37:32Z</time>
      </trkpt>
      <trkpt lat="59.9276926" lon="17.8365859">
        <ele>14.557</ele>
        <time>2013-04-27T13:37:33Z</time>
      </trkpt>
      <trkpt lat="59.9277386" lon="17.836516">
        <ele>14.557</ele>
        <time>2013-04-27T13:37:34Z</time>
      </trkpt>
      <trkpt lat="59.9277855" lon="17.8364427">
        <ele>14.557</ele>
        <time>2013-04-27T13:37:35Z</time>
      </trkpt>
      <trkpt lat="59.927834" lon="17.8363653">
        <ele>14.557</ele>
        <time>2013-04-27T13:37:36Z</time>
      </trkpt>
      <trkpt lat="59.927882" lon="17.836286">
        <ele>14.557</ele>
        <time>2013-04-27T13:37:37Z</time>
      </trkpt>
      <trkpt lat="59.9279302" lon="17.8362077">
        <ele>14.0764</ele>
        <time>2013-04-27T13:37:38Z</time>
      </trkpt>
      <trkpt lat="59.9279788" lon="17.8361293">
        <ele>14.0764</ele>
        <time>2013-04-27T13:37:39Z</time>
      </trkpt>
      <trkpt lat="59.9280271" lon="17.8360523">
        <ele>13.5958</ele>
        <time>2013-04-27T13:37:40Z</time>
      </trkpt>
      <trkpt lat="59.9280762" lon="17.8359766">
        <ele>13.5958</ele>
        <time>2013-04-27T13:37:41Z</time>
      </trkpt>
      <trkpt lat="59.9281245" lon="17.8359011">
        <ele>13.5958</ele>
        <time>2013-04-27T13:37:42Z</time>
      </trkpt>
      <trkpt lat="59.9281747" lon="17.8358263">
        <ele>13.5958</ele>
        <time>2013-04-27T13:37:43Z</time>
      </trkpt>
      <trkpt lat="59.9282253" lon="17.8357539">
        <ele>13.5958</ele>
        <time>2013-04-27T13:37:44Z</time>
      </trkpt>
      <trkpt lat="59.9282767" lon="17.835681">
        <ele>14.0764</ele>
        <time>2013-04-27T13:37:45Z</time>
      </trkpt>
      <trkpt lat="59.9283268" lon="17.8356038">
        <ele>14.0764</ele>
        <time>2013-04-27T13:37:46Z</time>
      </trkpt>
      <trkpt lat="59.9283758" lon="17.8355273">
        <ele>13.5958</ele>
        <time>2013-04-27T13:37:47Z</time>
      </trkpt>
      <trkpt lat="59.9284263" lon="17.8354509">
        <ele>13.5958</ele>
        <time>2013-04-27T13:37:48Z</time>
      </trkpt>
      <trkpt lat="59.9284762" lon="17.8353745">
        <ele>13.1151</ele>
        <time>2013-04-27T13:37:49Z</time>
      </trkpt>
      <trkpt lat="59.9285293" lon="17.8352975">
        <ele>13.1151</ele>
        <time>2013-04-27T13:37:50Z</time>
      </trkpt>
      <trkpt lat="59.9285829" lon="17.8352194">
        <ele>13.1151</ele>
        <time>2013-04-27T13:37:51Z</time>
      </trkpt>
      <trkpt lat="59.9286367" lon="17.8351407">
        <ele>13.1151</ele>
        <time>2013-04-27T13:37:52Z</time>
      </trkpt>
      <trkpt lat="59.9286901" lon="17.8350629">
        <ele>13.5958</ele>
        <time>2013-04-27T13:37:53Z</time>
      </trkpt>
      <trkpt lat="59.9287434" lon="17.8349866">
        <ele>13.5958</ele>
        <time>2013-04-27T13:37:54Z</time>
      </trkpt>
      <trkpt lat="59.9287963" lon="17.8349137">
        <ele>13.5958</ele>
        <time>2013-04-27T13:37:55Z</time>
      </trkpt>
      <trkpt lat="59.9288496" lon="17.8348439">
        <ele>13.5958</ele>
        <time>2013-04-27T13:37:56Z</time>
      </trkpt>
      <trkpt lat="59.9289028" lon="17.8347769">
        <ele>13.1151</ele>
        <time>2013-04-27T13:37:57Z</time>
      </trkpt>
      <trkpt lat="59.9289552" lon="17.8347111">
        <ele>13.1151</ele>
        <time>2013-04-27T13:37:58Z</time>
      </trkpt>
      <trkpt lat="59.9290073" lon="17.8346485">
        <ele>13.5958</ele>
        <time>2013-04-27T13:37:59Z</time>
      </trkpt>
      <trkpt lat="59.9290593" lon="17.8345894">
        <ele>13.5958</ele>
        <time>2013-04-27T13:38:00Z</time>
      </trkpt>
      <trkpt lat="59.9291103" lon="17.8345284">
        <ele>13.5958</ele>
        <time>2013-04-27T13:38:01Z</time>
      </trkpt>
      <trkpt lat="59.9291605" lon="17.8344646">
        <ele>13.5958</ele>
        <time>2013-04-27T13:38:02Z</time>
      </trkpt>
      <trkpt lat="59.9292095" lon="17.8344008">
        <ele>13.5958</ele>
        <time>2013-04-27T13:38:03Z</time>
      </trkpt>
      <trkpt lat="59.9292574" lon="17.8343359">
        <ele>13.1151</ele>
        <time>2013-04-27T13:38:04Z</time>
      </trkpt>
      <trkpt lat="59.9293044" lon="17.8342672">
        <ele>13.1151</ele>
        <time>2013-04-27T13:38:05Z</time>
      </trkpt>
      <trkpt lat="59.9293507" lon="17.8341978">
        <ele>13.1151</ele>
        <time>2013-04-27T13:38:06Z</time>
      </trkpt>
      <trkpt lat="59.9293973" lon="17.83413">
        <ele>13.1151</ele>
        <time>2013-04-27T13:38:07Z</time>
      </trkpt>
      <trkpt lat="59.9294432" lon="17.834062">
        <ele>12.6344</ele>
        <time>2013-04-27T13:38:08Z</time>
      </trkpt>
      <trkpt lat="59.9294871" lon="17.8339914">
        <ele>12.6344</ele>
        <time>2013-04-27T13:38:09Z</time>
      </trkpt>
      <trkpt lat="59.9295309" lon="17.833918">
        <ele>12.1538</ele>
        <time>2013-04-27T13:38:10Z</time>
      </trkpt>
      <trkpt lat="59.9295769" lon="17.8338419">
        <ele>12.1538</ele>
        <time>2013-04-27T13:38:11Z</time>
      </trkpt>
      <trkpt lat="59.9296215" lon="17.8337637">
        <ele>11.6732</ele>
        <time>2013-04-27T13:38:12Z</time>
      </trkpt>
      <trkpt lat="59.929668" lon="17.8336835">
        <ele>11.1925</ele>
        <time>2013-04-27T13:38:13Z</time>
      </trkpt>
      <trkpt lat="59.9297161" lon="17.8336031">
        <ele>10.7118</ele>
        <time>2013-04-27T13:38:14Z</time>
      </trkpt>
      <trkpt lat="59.9297655" lon="17.83352">
        <ele>10.2312</ele>
        <time>2013-04-27T13:38:15Z</time>
      </trkpt>
      <trkpt lat="59.9298161" lon="17.833432">
        <ele>9.75061</ele>
        <time>2013-04-27T13:38:16Z</time>
      </trkpt>
      <trkpt lat="59.9298676" lon="17.8333431">
        <ele>9.75061</ele>
        <time>2013-04-27T13:38:17Z</time>
      </trkpt>
      <trkpt lat="59.9299202" lon="17.8332565">
        <ele>9.2699</ele>
        <time>2013-04-27T13:38:18Z</time>
      </trkpt>
      <trkpt lat="59.9299728" lon="17.8331702">
        <ele>8.78918</ele>
        <time>2013-04-27T13:38:19Z</time>
      </trkpt>
      <trkpt lat="59.9300275" lon="17.8330823">
        <ele>8.78918</ele>
        <time>2013-04-27T13:38:20Z</time>
      </trkpt>
      <trkpt lat="59.930082" lon="17.8329945">
        <ele>8.78918</ele>
        <time>2013-04-27T13:38:21Z</time>
      </trkpt>
      <trkpt lat="59.930138" lon="17.832908">
        <ele>8.78918</ele>
        <time>2013-04-27T13:38:22Z</time>
      </trkpt>
      <trkpt lat="59.9301934" lon="17.8328219">
        <ele>8.78918</ele>
        <time>2013-04-27T13:38:23Z</time>
      </trkpt>
      <trkpt lat="59.9302468" lon="17.8327355">
        <ele>8.30859</ele>
        <time>2013-04-27T13:38:24Z</time>
      </trkpt>
      <trkpt lat="59.930301" lon="17.8326498">
        <ele>8.30859</ele>
        <time>2013-04-27T13:38:25Z</time>
      </trkpt>
      <trkpt lat="59.9303545" lon="17.8325659">
        <ele>8.78918</ele>
        <time>2013-04-27T13:38:26Z</time>
      </trkpt>
      <trkpt lat="59.9304069" lon="17.8324843">
        <ele>8.78918</ele>
        <time>2013-04-27T13:38:27Z</time>
      </trkpt>
      <trkpt lat="59.9304597" lon="17.8324056">
        <ele>9.2699</ele>
        <time>2013-04-27T13:38:28Z</time>
      </trkpt>
      <trkpt lat="59.9305119" lon="17.8323282">
        <ele>9.2699</ele>
        <time>2013-04-27T13:38:29Z</time>
      </trkpt>
      <trkpt lat="59.9305648" lon="17.8322509">
        <ele>9.75061</ele>
        <time>2013-04-27T13:38:30Z</time>
      </trkpt>
      <trkpt lat="59.9306187" lon="17.8321728">
        <ele>9.75061</ele>
        <time>2013-04-27T13:38:31Z</time>
      </trkpt>
      <trkpt lat="59.9306724" lon="17.8320942">
        <ele>9.75061</ele>
        <time>2013-04-27T13:38:32Z</time>
      </trkpt>
      <trkpt lat="59.930726" lon="17.8320148">
        <ele>9.75061</ele>
        <time>2013-04-27T13:38:33Z</time>
      </trkpt>
      <trkpt lat="59.9307809" lon="17.8319345">
        <ele>10.2312</ele>
        <time>2013-04-27T13:38:34Z</time>
      </trkpt>
      <trkpt lat="59.9308337" lon="17.8318526">
        <ele>10.2312</ele>
        <time>2013-04-27T13:38:35Z</time>
      </trkpt>
      <trkpt lat="59.930886" lon="17.8317694">
        <ele>10.2312</ele>
        <time>2013-04-27T13:38:36Z</time>
      </trkpt>
      <trkpt lat="59.9309391" lon="17.8316849">
        <ele>10.7118</ele>
        <time>2013-04-27T13:38:37Z</time>
      </trkpt>
      <trkpt lat="59.9309916" lon="17.8315984">
        <ele>10.7118</ele>
        <time>2013-04-27T13:38:38Z</time>
      </trkpt>
      <trkpt lat="59.9310433" lon="17.8315105">
        <ele>10.2312</ele>
        <time>2013-04-27T13:38:39Z</time>
      </trkpt>
      <trkpt lat="59.9310954" lon="17.8314201">
        <ele>10.7118</ele>
        <time>2013-04-27T13:38:40Z</time>
      </trkpt>
      <trkpt lat="59.931146" lon="17.8313269">
        <ele>10.7118</ele>
        <time>2013-04-27T13:38:41Z</time>
      </trkpt>
      <trkpt lat="59.9311958" lon="17.8312316">
        <ele>10.7118</ele>
        <time>2013-04-27T13:38:42Z</time>
      </trkpt>
      <trkpt lat="59.9312437" lon="17.8311347">
        <ele>10.2312</ele>
        <time>2013-04-27T13:38:43Z</time>
      </trkpt>
      <trkpt lat="59.9312884" lon="17.8310374">
        <ele>9.75061</ele>
        <time>2013-04-27T13:38:44Z</time>
      </trkpt>
      <trkpt lat="59.9313318" lon="17.8309414">
        <ele>9.75061</ele>
        <time>2013-04-27T13:38:45Z</time>
      </trkpt>
      <trkpt lat="59.931374" lon="17.8308438">
        <ele>9.2699</ele>
        <time>2013-04-27T13:38:46Z</time>
      </trkpt>
      <trkpt lat="59.9314128" lon="17.8307441">
        <ele>9.2699</ele>
        <time>2013-04-27T13:38:47Z</time>
      </trkpt>
      <trkpt lat="59.9314522" lon="17.8306447">
        <ele>9.75061</ele>
        <time>2013-04-27T13:38:48Z</time>
      </trkpt>
      <trkpt lat="59.9314859" lon="17.8305463">
        <ele>9.2699</ele>
        <time>2013-04-27T13:38:49Z</time>
      </trkpt>
      <trkpt lat="59.9315203" lon="17.8304482">
        <ele>9.2699</ele>
        <time>2013-04-27T13:38:50Z</time>
      </trkpt>
      <trkpt lat="59.9315535" lon="17.8303495">
        <ele>9.2699</ele>
        <time>2013-04-27T13:38:51Z</time>
      </trkpt>
      <trkpt lat="59.9315838" lon="17.8302479">
        <ele>8.78918</ele>
        <time>2013-04-27T13:38:52Z</time>
      </trkpt>
      <trkpt lat="59.9316155" lon="17.8301387">
        <ele>9.75061</ele>
        <time>2013-04-27T13:38:53Z</time>
      </trkpt>
      <trkpt lat="59.9316502" lon="17.8300257">
        <ele>9.75061</ele>
        <time>2013-04-27T13:38:54Z</time>
      </trkpt>
      <trkpt lat="59.93169" lon="17.8299118">
        <ele>10.7118</ele>
        <time>2013-04-27T13:38:55Z</time>
      </trkpt>
      <trkpt lat="59.9317293" lon="17.8297928">
        <ele>11.1925</ele>
        <time>2013-04-27T13:38:56Z</time>
      </trkpt>
      <trkpt lat="59.9317671" lon="17.8296713">
        <ele>11.1925</ele>
        <time>2013-04-27T13:38:57Z</time>
      </trkpt>
      <trkpt lat="59.9318023" lon="17.8295433">
        <ele>10.7118</ele>
        <time>2013-04-27T13:38:58Z</time>
      </trkpt>
      <trkpt lat="59.9318379" lon="17.8294093">
        <ele>10.7118</ele>
        <time>2013-04-27T13:38:59Z</time>
      </trkpt>
      <trkpt lat="59.9318718" lon="17.8292726">
        <ele>10.7118</ele>
        <time>2013-04-27T13:39:00Z</time>
      </trkpt>
      <trkpt lat="59.9319059" lon="17.8291337">
        <ele>10.7118</ele>
        <time>2013-04-27T13:39:01Z</time>
      </trkpt>
      <trkpt lat="59.9319472" lon="17.8289945">
        <ele>12.1538</ele>
        <time>2013-04-27T13:39:02Z</time>
      </trkpt>
      <trkpt lat="59.9319877" lon="17.8288574">
        <ele>13.1151</ele>
        <time>2013-04-27T13:39:03Z</time>
      </trkpt>
      <trkpt lat="59.9320293" lon="17.8287224">
        <ele>14.0764</ele>
        <time>2013-04-27T13:39:04Z</time>
      </trkpt>
      <trkpt lat="59.9320722" lon="17.8285913">
        <ele>14.557</ele>
        <time>2013-04-27T13:39:05Z</time>
      </trkpt>
      <trkpt lat="59.9321189" lon="17.8284663">
        <ele>14.557</ele>
        <time>2013-04-27T13:39:06Z</time>
      </trkpt>
      <trkpt lat="59.9321699" lon="17.828342">
        <ele>15.0377</ele>
        <time>2013-04-27T13:39:07Z</time>
      </trkpt>
      <trkpt lat="59.9322204" lon="17.82822">
        <ele>15.0377</ele>
        <time>2013-04-27T13:39:08Z</time>
      </trkpt>
      <trkpt lat="59.9322727" lon="17.8281006">
        <ele>15.0377</ele>
        <time>2013-04-27T13:39:09Z</time>
      </trkpt>
      <trkpt lat="59.9323276" lon="17.8279848">
        <ele>15.5184</ele>
        <time>2013-04-27T13:39:10Z</time>
      </trkpt>
      <trkpt lat="59.9323837" lon="17.8278723">
        <ele>15.5184</ele>
        <time>2013-04-27T13:39:11Z</time>
      </trkpt>
      <trkpt lat="59.9324415" lon="17.8277621">
        <ele>15.999</ele>
        <time>2013-04-27T13:39:12Z</time>
      </trkpt>
      <trkpt lat="59.9325009" lon="17.8276536">
        <ele>15.999</ele>
        <time>2013-04-27T13:39:13Z</time>
      </trkpt>
      <trkpt lat="59.9325617" lon="17.8275456">
        <ele>16.4797</ele>
        <time>2013-04-27T13:39:14Z</time>
      </trkpt>
      <trkpt lat="59.9326238" lon="17.8274383">
        <ele>16.4797</ele>
        <time>2013-04-27T13:39:15Z</time>
      </trkpt>
      <trkpt lat="59.932684" lon="17.827333">
        <ele>15.999</ele>
        <time>2013-04-27T13:39:16Z</time>
      </trkpt>
      <trkpt lat="59.9327462" lon="17.8272281">
        <ele>15.999</ele>
        <time>2013-04-27T13:39:17Z</time>
      </trkpt>
      <trkpt lat="59.9328067" lon="17.8271228">
        <ele>15.999</ele>
        <time>2013-04-27T13:39:18Z</time>
      </trkpt>
      <trkpt lat="59.9328643" lon="17.8270182">
        <ele>15.0377</ele>
        <time>2013-04-27T13:39:19Z</time>
      </trkpt>
      <trkpt lat="59.9329268" lon="17.8269151">
        <ele>15.999</ele>
        <time>2013-04-27T13:39:20Z</time>
      </trkpt>
      <trkpt lat="59.932987" lon="17.8268151">
        <ele>15.999</ele>
        <time>2013-04-27T13:39:21Z</time>
      </trkpt>
      <trkpt lat="59.9330477" lon="17.8267187">
        <ele>15.999</ele>
        <time>2013-04-27T13:39:22Z</time>
      </trkpt>
      <trkpt lat="59.9331089" lon="17.826626">
        <ele>15.999</ele>
        <time>2013-04-27T13:39:23Z</time>
      </trkpt>
      <trkpt lat="59.9331721" lon="17.8265374">
        <ele>15.999</ele>
        <time>2013-04-27T13:39:24Z</time>
      </trkpt>
      <trkpt lat="59.9332365" lon="17.8264535">
        <ele>16.4797</ele>
        <time>2013-04-27T13:39:25Z</time>
      </trkpt>
      <trkpt lat="59.9333016" lon="17.8263762">
        <ele>16.4797</ele>
        <time>2013-04-27T13:39:26Z</time>
      </trkpt>
      <trkpt lat="59.9333683" lon="17.8263065">
        <ele>16.9604</ele>
        <time>2013-04-27T13:39:27Z</time>
      </trkpt>
      <trkpt lat="59.9334354" lon="17.8262444">
        <ele>16.9604</ele>
        <time>2013-04-27T13:39:28Z</time>
      </trkpt>
      <trkpt lat="59.9335025" lon="17.826186">
        <ele>17.4412</ele>
        <time>2013-04-27T13:39:29Z</time>
      </trkpt>
      <trkpt lat="59.9335703" lon="17.8261289">
        <ele>17.4412</ele>
        <time>2013-04-27T13:39:30Z</time>
      </trkpt>
      <trkpt lat="59.9336395" lon="17.8260754">
        <ele>17.9218</ele>
        <time>2013-04-27T13:39:31Z</time>
      </trkpt>
      <trkpt lat="59.9337089" lon="17.8260279">
        <ele>18.4023</ele>
        <time>2013-04-27T13:39:32Z</time>
      </trkpt>
      <trkpt lat="59.9337792" lon="17.8259847">
        <ele>18.4023</ele>
        <time>2013-04-27T13:39:33Z</time>
      </trkpt>
      <trkpt lat="59.9338494" lon="17.8259447">
        <ele>18.4023</ele>
        <time>2013-04-27T13:39:34Z</time>
      </trkpt>
      <trkpt lat="59.9339204" lon="17.8259056">
        <ele>18.4023</ele>
        <time>2013-04-27T13:39:35Z</time>
      </trkpt>
      <trkpt lat="59.9339923" lon="17.8258678">
        <ele>18.4023</ele>
        <time>2013-04-27T13:39:36Z</time>
      </trkpt>
      <trkpt lat="59.934066" lon="17.8258325">
        <ele>18.8831</ele>
        <time>2013-04-27T13:39:37Z</time>
      </trkpt>
      <trkpt lat="59.9341406" lon="17.8257984">
        <ele>18.8831</ele>
        <time>2013-04-27T13:39:38Z</time>
      </trkpt>
      <trkpt lat="59.9342151" lon="17.8257632">
        <ele>18.8831</ele>
        <time>2013-04-27T13:39:39Z</time>
      </trkpt>
      <trkpt lat="59.9342891" lon="17.8257267">
        <ele>18.8831</ele>
        <time>2013-04-27T13:39:40Z</time>
      </trkpt>
      <trkpt lat="59.9343634" lon="17.825691">
        <ele>18.8831</ele>
        <time>2013-04-27T13:39:41Z</time>
      </trkpt>
      <trkpt lat="59.9344384" lon="17.8256583">
        <ele>19.3638</ele>
        <time>2013-04-27T13:39:42Z</time>
      </trkpt>
      <trkpt lat="59.9345134" lon="17.8256258">
        <ele>19.3638</ele>
        <time>2013-04-27T13:39:43Z</time>
      </trkpt>
      <trkpt lat="59.9345886" lon="17.825593">
        <ele>19.8444</ele>
        <time>2013-04-27T13:39:44Z</time>
      </trkpt>
      <trkpt lat="59.9346638" lon="17.82556">
        <ele>19.8444</ele>
        <time>2013-04-27T13:39:45Z</time>
      </trkpt>
      <trkpt lat="59.9347388" lon="17.8255259">
        <ele>20.325</ele>
        <time>2013-04-27T13:39:46Z</time>
      </trkpt>
      <trkpt lat="59.9348151" lon="17.8254919">
        <ele>20.8057</ele>
        <time>2013-04-27T13:39:47Z</time>
      </trkpt>
      <trkpt lat="59.9348906" lon="17.8254614">
        <ele>20.8057</ele>
        <time>2013-04-27T13:39:48Z</time>
      </trkpt>
      <trkpt lat="59.9349657" lon="17.8254296">
        <ele>21.2864</ele>
        <time>2013-04-27T13:39:49Z</time>
      </trkpt>
      <trkpt lat="59.9350393" lon="17.8253964">
        <ele>21.2864</ele>
        <time>2013-04-27T13:39:50Z</time>
      </trkpt>
      <trkpt lat="59.9351124" lon="17.8253635">
        <ele>21.767</ele>
        <time>2013-04-27T13:39:51Z</time>
      </trkpt>
      <trkpt lat="59.935185" lon="17.8253301">
        <ele>21.767</ele>
        <time>2013-04-27T13:39:52Z</time>
      </trkpt>
      <trkpt lat="59.9352573" lon="17.8252975">
        <ele>21.767</ele>
        <time>2013-04-27T13:39:53Z</time>
      </trkpt>
      <trkpt lat="59.9353293" lon="17.8252638">
        <ele>22.2476</ele>
        <time>2013-04-27T13:39:54Z</time>
      </trkpt>
      <trkpt lat="59.9354014" lon="17.8252291">
        <ele>22.2476</ele>
        <time>2013-04-27T13:39:55Z</time>
      </trkpt>
      <trkpt lat="59.9354724" lon="17.8251961">
        <ele>22.7283</ele>
        <time>2013-04-27T13:39:56Z</time>
      </trkpt>
      <trkpt lat="59.9355434" lon="17.8251632">
        <ele>22.7283</ele>
        <time>2013-04-27T13:39:57Z</time>
      </trkpt>
      <trkpt lat="59.9356137" lon="17.8251312">
        <ele>22.7283</ele>
        <time>2013-04-27T13:39:58Z</time>
      </trkpt>
      <trkpt lat="59.9356827" lon="17.8251026">
        <ele>23.209</ele>
        <time>2013-04-27T13:39:59Z</time>
      </trkpt>
      <trkpt lat="59.9357514" lon="17.8250741">
        <ele>23.209</ele>
        <time>2013-04-27T13:40:00Z</time>
      </trkpt>
      <trkpt lat="59.9358201" lon="17.8250433">
        <ele>23.6896</ele>
        <time>2013-04-27T13:40:01Z</time>
      </trkpt>
      <trkpt lat="59.9358885" lon="17.8250108">
        <ele>23.6896</ele>
        <time>2013-04-27T13:40:02Z</time>
      </trkpt>
      <trkpt lat="59.9359573" lon="17.8249812">
        <ele>23.6896</ele>
        <time>2013-04-27T13:40:03Z</time>
      </trkpt>
      <trkpt lat="59.9360255" lon="17.8249544">
        <ele>23.6896</ele>
        <time>2013-04-27T13:40:04Z</time>
      </trkpt>
      <trkpt lat="59.9360935" lon="17.8249259">
        <ele>24.1703</ele>
        <time>2013-04-27T13:40:05Z</time>
      </trkpt>
      <trkpt lat="59.936161" lon="17.824899">
        <ele>24.1703</ele>
        <time>2013-04-27T13:40:06Z</time>
      </trkpt>
      <trkpt lat="59.936227" lon="17.8248696">
        <ele>24.651</ele>
        <time>2013-04-27T13:40:07Z</time>
      </trkpt>
      <trkpt lat="59.936291" lon="17.8248421">
        <ele>24.651</ele>
        <time>2013-04-27T13:40:08Z</time>
      </trkpt>
      <trkpt lat="59.9363545" lon="17.824817">
        <ele>24.651</ele>
        <time>2013-04-27T13:40:09Z</time>
      </trkpt>
      <trkpt lat="59.9364158" lon="17.8247898">
        <ele>24.651</ele>
        <time>2013-04-27T13:40:10Z</time>
      </trkpt>
      <trkpt lat="59.9364704" lon="17.8247627">
        <ele>23.6896</ele>
        <time>2013-04-27T13:40:11Z</time>
      </trkpt>
      <trkpt lat="59.9365244" lon="17.8247284">
        <ele>22.2476</ele>
        <time>2013-04-27T13:40:12Z</time>
      </trkpt>
      <trkpt lat="59.9365779" lon="17.8246869">
        <ele>21.2864</ele>
        <time>2013-04-27T13:40:13Z</time>
      </trkpt>
      <trkpt lat="59.9366295" lon="17.824638">
        <ele>19.8444</ele>
        <time>2013-04-27T13:40:14Z</time>
      </trkpt>
      <trkpt lat="59.9366814" lon="17.8245808">
        <ele>18.8831</ele>
        <time>2013-04-27T13:40:15Z</time>
      </trkpt>
      <trkpt lat="59.9367315" lon="17.8245134">
        <ele>17.9218</ele>
        <time>2013-04-27T13:40:16Z</time>
      </trkpt>
      <trkpt lat="59.9367792" lon="17.8244426">
        <ele>16.9604</ele>
        <time>2013-04-27T13:40:17Z</time>
      </trkpt>
      <trkpt lat="59.9368248" lon="17.8243668">
        <ele>15.999</ele>
        <time>2013-04-27T13:40:18Z</time>
      </trkpt>
      <trkpt lat="59.9368683" lon="17.8242866">
        <ele>15.0377</ele>
        <time>2013-04-27T13:40:19Z</time>
      </trkpt>
      <trkpt lat="59.9369092" lon="17.8242029">
        <ele>14.0764</ele>
        <time>2013-04-27T13:40:20Z</time>
      </trkpt>
      <trkpt lat="59.936948" lon="17.8241157">
        <ele>13.5958</ele>
        <time>2013-04-27T13:40:21Z</time>
      </trkpt>
      <trkpt lat="59.9369839" lon="17.8240261">
        <ele>12.6344</ele>
        <time>2013-04-27T13:40:22Z</time>
      </trkpt>
      <trkpt lat="59.9370195" lon="17.8239346">
        <ele>12.1538</ele>
        <time>2013-04-27T13:40:23Z</time>
      </trkpt>
      <trkpt lat="59.9370529" lon="17.8238412">
        <ele>11.6732</ele>
        <time>2013-04-27T13:40:24Z</time>
      </trkpt>
      <trkpt lat="59.9370881" lon="17.8237464">
        <ele>11.6732</ele>
        <time>2013-04-27T13:40:25Z</time>
      </trkpt>
      <trkpt lat="59.9371232" lon="17.823649">
        <ele>11.1925</ele>
        <time>2013-04-27T13:40:26Z</time>
      </trkpt>
      <trkpt lat="59.9371592" lon="17.8235494">
        <ele>11.1925</ele>
        <time>2013-04-27T13:40:27Z</time>
      </trkpt>
      <trkpt lat="59.9371969" lon="17.8234499">
        <ele>11.1925</ele>
        <time>2013-04-27T13:40:28Z</time>
      </trkpt>
      <trkpt lat="59.9372357" lon="17.8233496">
        <ele>11.6732</ele>
        <time>2013-04-27T13:40:29Z</time>
      </trkpt>
      <trkpt lat="59.9372741" lon="17.8232489">
        <ele>11.6732</ele>
        <time>2013-04-27T13:40:30Z</time>
      </trkpt>
      <trkpt lat="59.9373122" lon="17.8231474">
        <ele>11.6732</ele>
        <time>2013-04-27T13:40:31Z</time>
      </trkpt>
      <trkpt lat="59.9373509" lon="17.8230445">
        <ele>12.1538</ele>
        <time>2013-04-27T13:40:32Z</time>
      </trkpt>
      <trkpt lat="59.9373895" lon="17.8229425">
        <ele>12.6344</ele>
        <time>2013-04-27T13:40:33Z</time>
      </trkpt>
      <trkpt lat="59.9374275" lon="17.8228404">
        <ele>12.6344</ele>
        <time>2013-04-27T13:40:34Z</time>
      </trkpt>
      <trkpt lat="59.9374647" lon="17.822738">
        <ele>12.6344</ele>
        <time>2013-04-27T13:40:35Z</time>
      </trkpt>
      <trkpt lat="59.9375024" lon="17.8226369">
        <ele>12.6344</ele>
        <time>2013-04-27T13:40:36Z</time>
      </trkpt>
      <trkpt lat="59.9375397" lon="17.8225359">
        <ele>12.6344</ele>
        <time>2013-04-27T13:40:37Z</time>
      </trkpt>
      <trkpt lat="59.9375807" lon="17.8224326">
        <ele>13.5958</ele>
        <time>2013-04-27T13:40:38Z</time>
      </trkpt>
      <trkpt lat="59.9376235" lon="17.8223303">
        <ele>14.557</ele>
        <time>2013-04-27T13:40:39Z</time>
      </trkpt>
      <trkpt lat="59.9376667" lon="17.8222292">
        <ele>15.5184</ele>
        <time>2013-04-27T13:40:40Z</time>
      </trkpt>
      <trkpt lat="59.937707" lon="17.822128">
        <ele>15.999</ele>
        <time>2013-04-27T13:40:41Z</time>
      </trkpt>
      <trkpt lat="59.9377464" lon="17.8220265">
        <ele>16.4797</ele>
        <time>2013-04-27T13:40:42Z</time>
      </trkpt>
      <trkpt lat="59.9377853" lon="17.8219265">
        <ele>16.9604</ele>
        <time>2013-04-27T13:40:43Z</time>
      </trkpt>
      <trkpt lat="59.9378243" lon="17.8218272">
        <ele>16.9604</ele>
        <time>2013-04-27T13:40:44Z</time>
      </trkpt>
      <trkpt lat="59.937864" lon="17.8217266">
        <ele>17.4412</ele>
        <time>2013-04-27T13:40:45Z</time>
      </trkpt>
      <trkpt lat="59.9379035" lon="17.8216248">
        <ele>17.9218</ele>
        <time>2013-04-27T13:40:46Z</time>
      </trkpt>
      <trkpt lat="59.9379418" lon="17.8215222">
        <ele>17.9218</ele>
        <time>2013-04-27T13:40:47Z</time>
      </trkpt>
      <trkpt lat="59.9379802" lon="17.8214206">
        <ele>18.4023</ele>
        <time>2013-04-27T13:40:48Z</time>
      </trkpt>
      <trkpt lat="59.9380216" lon="17.8213245">
        <ele>18.8831</ele>
        <time>2013-04-27T13:40:49Z</time>
      </trkpt>
      <trkpt lat="59.9380631" lon="17.8212336">
        <ele>19.3638</ele>
        <time>2013-04-27T13:40:50Z</time>
      </trkpt>
      <trkpt lat="59.9381046" lon="17.8211453">
        <ele>19.8444</ele>
        <time>2013-04-27T13:40:51Z</time>
      </trkpt>
      <trkpt lat="59.9381444" lon="17.8210589">
        <ele>19.8444</ele>
        <time>2013-04-27T13:40:52Z</time>
      </trkpt>
      <trkpt lat="59.9381837" lon="17.8209734">
        <ele>20.325</ele>
        <time>2013-04-27T13:40:53Z</time>
      </trkpt>
      <trkpt lat="59.9382235" lon="17.8208892">
        <ele>20.8057</ele>
        <time>2013-04-27T13:40:54Z</time>
      </trkpt>
      <trkpt lat="59.9382645" lon="17.8208057">
        <ele>21.767</ele>
        <time>2013-04-27T13:40:55Z</time>
      </trkpt>
      <trkpt lat="59.9383022" lon="17.8207219">
        <ele>22.2476</ele>
        <time>2013-04-27T13:40:56Z</time>
      </trkpt>
      <trkpt lat="59.9383401" lon="17.8206379">
        <ele>22.2476</ele>
        <time>2013-04-27T13:40:57Z</time>
      </trkpt>
      <trkpt lat="59.9383788" lon="17.820554">
        <ele>22.7283</ele>
        <time>2013-04-27T13:40:58Z</time>
      </trkpt>
      <trkpt lat="59.9384158" lon="17.82047">
        <ele>23.209</ele>
        <time>2013-04-27T13:40:59Z</time>
      </trkpt>
      <trkpt lat="59.9384501" lon="17.8203959">
        <ele>23.209</ele>
        <time>2013-04-27T13:41:00Z</time>
      </trkpt>
      <trkpt lat="59.9384839" lon="17.8203223">
        <ele>22.7283</ele>
        <time>2013-04-27T13:41:01Z</time>
      </trkpt>
      <trkpt lat="59.9385208" lon="17.8202431">
        <ele>22.7283</ele>
        <time>2013-04-27T13:41:02Z</time>
      </trkpt>
      <trkpt lat="59.9385588" lon="17.8201647">
        <ele>23.209</ele>
        <time>2013-04-27T13:41:03Z</time>
      </trkpt>
      <trkpt lat="59.9385955" lon="17.8200865">
        <ele>23.209</ele>
        <time>2013-04-27T13:41:04Z</time>
      </trkpt>
      <trkpt lat="59.9386305" lon="17.8200119">
        <ele>22.7283</ele>
        <time>2013-04-27T13:41:05Z</time>
      </trkpt>
      <trkpt lat="59.9386673" lon="17.8199371">
        <ele>22.7283</ele>
        <time>2013-04-27T13:41:06Z</time>
      </trkpt>
      <trkpt lat="59.9387048" lon="17.8198632">
        <ele>23.209</ele>
        <time>2013-04-27T13:41:07Z</time>
      </trkpt>
      <trkpt lat="59.9387427" lon="17.8197858">
        <ele>23.209</ele>
        <time>2013-04-27T13:41:08Z</time>
      </trkpt>
      <trkpt lat="59.9387785" lon="17.819713">
        <ele>22.7283</ele>
        <time>2013-04-27T13:41:09Z</time>
      </trkpt>
      <trkpt lat="59.9388147" lon="17.8196384">
        <ele>22.7283</ele>
        <time>2013-04-27T13:41:10Z</time>
      </trkpt>
      <trkpt lat="59.9388488" lon="17.8195591">
        <ele>22.2476</ele>
        <time>2013-04-27T13:41:11Z</time>
      </trkpt>
      <trkpt lat="59.9388882" lon="17.819477">
        <ele>22.7283</ele>
        <time>2013-04-27T13:41:12Z</time>
      </trkpt>
      <trkpt lat="59.9389265" lon="17.819391">
        <ele>22.7283</ele>
        <time>2013-04-27T13:41:13Z</time>
      </trkpt>
      <trkpt lat="59.9389673" lon="17.819302">
        <ele>23.209</ele>
        <time>2013-04-27T13:41:14Z</time>
      </trkpt>
      <trkpt lat="59.9390087" lon="17.8192119">
        <ele>23.209</ele>
        <time>2013-04-27T13:41:15Z</time>
      </trkpt>
      <trkpt lat="59.9390514" lon="17.819122">
        <ele>23.209</ele>
        <time>2013-04-27T13:41:16Z</time>
      </trkpt>
      <trkpt lat="59.9390962" lon="17.819032">
        <ele>23.209</ele>
        <time>2013-04-27T13:41:17Z</time>
      </trkpt>
      <trkpt lat="59.9391432" lon="17.8189424">
        <ele>23.6896</ele>
        <time>2013-04-27T13:41:18Z</time>
      </trkpt>
      <trkpt lat="59.9391921" lon="17.8188576">
        <ele>23.209</ele>
        <time>2013-04-27T13:41:19Z</time>
      </trkpt>
      <trkpt lat="59.9392437" lon="17.8187761">
        <ele>23.209</ele>
        <time>2013-04-27T13:41:20Z</time>
      </trkpt>
      <trkpt lat="59.9392995" lon="17.8187022">
        <ele>23.6896</ele>
        <time>2013-04-27T13:41:21Z</time>
      </trkpt>
      <trkpt lat="59.939359" lon="17.8186404">
        <ele>23.6896</ele>
        <time>2013-04-27T13:41:22Z</time>
      </trkpt>
      <trkpt lat="59.9394202" lon="17.8185894">
        <ele>23.209</ele>
        <time>2013-04-27T13:41:23Z</time>
      </trkpt>
      <trkpt lat="59.939483" lon="17.8185477">
        <ele>23.209</ele>
        <time>2013-04-27T13:41:24Z</time>
      </trkpt>
      <trkpt lat="59.9395476" lon="17.8185166">
        <ele>23.209</ele>
        <time>2013-04-27T13:41:25Z</time>
      </trkpt>
      <trkpt lat="59.9396142" lon="17.8184931">
        <ele>23.209</ele>
        <time>2013-04-27T13:41:26Z</time>
      </trkpt>
      <trkpt lat="59.9396823" lon="17.8184793">
        <ele>23.209</ele>
        <time>2013-04-27T13:41:27Z</time>
      </trkpt>
      <trkpt lat="59.9397508" lon="17.8184767">
        <ele>22.7283</ele>
        <time>2013-04-27T13:41:28Z</time>
      </trkpt>
      <trkpt lat="59.9398199" lon="17.8184844">
        <ele>22.7283</ele>
        <time>2013-04-27T13:41:29Z</time>
      </trkpt>
      <trkpt lat="59.9398894" lon="17.8185045">
        <ele>22.7283</ele>
        <time>2013-04-27T13:41:30Z</time>
      </trkpt>
      <trkpt lat="59.9399593" lon="17.8185405">
        <ele>22.2476</ele>
        <time>2013-04-27T13:41:31Z</time>
      </trkpt>
      <trkpt lat="59.9400274" lon="17.8185956">
        <ele>22.2476</ele>
        <time>2013-04-27T13:41:32Z</time>
      </trkpt>
      <trkpt lat="59.9400947" lon="17.8186616">
        <ele>22.7283</ele>
        <time>2013-04-27T13:41:33Z</time>
      </trkpt>
      <trkpt lat="59.940161" lon="17.8187335">
        <ele>22.7283</ele>
        <time>2013-04-27T13:41:34Z</time>
      </trkpt>
      <trkpt lat="59.9402263" lon="17.8188101">
        <ele>22.7283</ele>
        <time>2013-04-27T13:41:35Z</time>
      </trkpt>
      <trkpt lat="59.9402919" lon="17.8188916">
        <ele>22.7283</ele>
        <time>2013-04-27T13:41:36Z</time>
      </trkpt>
      <trkpt lat="59.9403592" lon="17.8189748">
        <ele>22.7283</ele>
        <time>2013-04-27T13:41:37Z</time>
      </trkpt>
      <trkpt lat="59.9404262" lon="17.8190603">
        <ele>22.7283</ele>
        <time>2013-04-27T13:41:38Z</time>
      </trkpt>
      <trkpt lat="59.9404961" lon="17.8191468">
        <ele>23.209</ele>
        <time>2013-04-27T13:41:39Z</time>
      </trkpt>
      <trkpt lat="59.940565" lon="17.8192354">
        <ele>23.209</ele>
        <time>2013-04-27T13:41:40Z</time>
      </trkpt>
      <trkpt lat="59.9406352" lon="17.8193241">
        <ele>24.1703</ele>
        <time>2013-04-27T13:41:41Z</time>
      </trkpt>
      <trkpt lat="59.9407043" lon="17.8194091">
        <ele>24.1703</ele>
        <time>2013-04-27T13:41:42Z</time>
      </trkpt>
      <trkpt lat="59.9407732" lon="17.8194956">
        <ele>23.6896</ele>
        <time>2013-04-27T13:41:43Z</time>
      </trkpt>
      <trkpt lat="59.9408436" lon="17.8195851">
        <ele>24.1703</ele>
        <time>2013-04-27T13:41:44Z</time>
      </trkpt>
      <trkpt lat="59.9409162" lon="17.8196758">
        <ele>24.1703</ele>
        <time>2013-04-27T13:41:45Z</time>
      </trkpt>
      <trkpt lat="59.9409897" lon="17.8197663">
        <ele>24.1703</ele>
        <time>2013-04-27T13:41:46Z</time>
      </trkpt>
      <trkpt lat="59.9410637" lon="17.8198578">
        <ele>24.651</ele>
        <time>2013-04-27T13:41:47Z</time>
      </trkpt>
      <trkpt lat="59.9411383" lon="17.819951">
        <ele>24.651</ele>
        <time>2013-04-27T13:41:48Z</time>
      </trkpt>
      <trkpt lat="59.9412133" lon="17.8200443">
        <ele>24.651</ele>
        <time>2013-04-27T13:41:49Z</time>
      </trkpt>
      <trkpt lat="59.9412882" lon="17.8201368">
        <ele>24.651</ele>
        <time>2013-04-27T13:41:50Z</time>
      </trkpt>
      <trkpt lat="59.9413633" lon="17.8202291">
        <ele>24.651</ele>
        <time>2013-04-27T13:41:51Z</time>
      </trkpt>
      <trkpt lat="59.9414373" lon="17.8203197">
        <ele>25.1317</ele>
        <time>2013-04-27T13:41:52Z</time>
      </trkpt>
      <trkpt lat="59.9415094" lon="17.8204073">
        <ele>25.1317</ele>
        <time>2013-04-27T13:41:53Z</time>
      </trkpt>
      <trkpt lat="59.9415824" lon="17.8204944">
        <ele>25.6123</ele>
        <time>2013-04-27T13:41:54Z</time>
      </trkpt>
      <trkpt lat="59.9416543" lon="17.8205814">
        <ele>25.6123</ele>
        <time>2013-04-27T13:41:55Z</time>
      </trkpt>
      <trkpt lat="59.9417251" lon="17.8206689">
        <ele>26.0929</ele>
        <time>2013-04-27T13:41:56Z</time>
      </trkpt>
      <trkpt lat="59.9417951" lon="17.8207571">
        <ele>26.0929</ele>
        <time>2013-04-27T13:41:57Z</time>
      </trkpt>
      <trkpt lat="59.9418637" lon="17.8208443">
        <ele>26.0929</ele>
        <time>2013-04-27T13:41:58Z</time>
      </trkpt>
      <trkpt lat="59.9419321" lon="17.8209279">
        <ele>26.0929</ele>
        <time>2013-04-27T13:41:59Z</time>
      </trkpt>
      <trkpt lat="59.9419995" lon="17.8210111">
        <ele>26.5736</ele>
        <time>2013-04-27T13:42:00Z</time>
      </trkpt>
      <trkpt lat="59.9420656" lon="17.8210946">
        <ele>26.5736</ele>
        <time>2013-04-27T13:42:01Z</time>
      </trkpt>
      <trkpt lat="59.9421308" lon="17.8211764">
        <ele>27.0543</ele>
        <time>2013-04-27T13:42:02Z</time>
      </trkpt>
      <trkpt lat="59.9421952" lon="17.8212588">
        <ele>27.0543</ele>
        <time>2013-04-27T13:42:03Z</time>
      </trkpt>
      <trkpt lat="59.9422594" lon="17.8213381">
        <ele>27.5349</ele>
        <time>2013-04-27T13:42:04Z</time>
      </trkpt>
      <trkpt lat="59.9423231" lon="17.8214162">
        <ele>27.5349</ele>
        <time>2013-04-27T13:42:05Z</time>
      </trkpt>
      <trkpt lat="59.9423858" lon="17.8214941">
        <ele>28.0155</ele>
        <time>2013-04-27T13:42:06Z</time>
      </trkpt>
      <trkpt lat="59.9424478" lon="17.8215713">
        <ele>28.0155</ele>
        <time>2013-04-27T13:42:07Z</time>
      </trkpt>
      <trkpt lat="59.9425082" lon="17.8216469">
        <ele>28.4962</ele>
        <time>2013-04-27T13:42:08Z</time>
      </trkpt>
      <trkpt lat="59.9425672" lon="17.821722">
        <ele>28.4962</ele>
        <time>2013-04-27T13:42:09Z</time>
      </trkpt>
      <trkpt lat="59.9426257" lon="17.8217954">
        <ele>28.4962</ele>
        <time>2013-04-27T13:42:10Z</time>
      </trkpt>
      <trkpt lat="59.9426831" lon="17.8218664">
        <ele>28.9769</ele>
        <time>2013-04-27T13:42:11Z</time>
      </trkpt>
      <trkpt lat="59.9427395" lon="17.8219363">
        <ele>28.9769</ele>
        <time>2013-04-27T13:42:12Z</time>
      </trkpt>
      <trkpt lat="59.9427945" lon="17.822005">
        <ele>28.9769</ele>
        <time>2013-04-27T13:42:13Z</time>
      </trkpt>
      <trkpt lat="59.942849" lon="17.8220723">
        <ele>29.4575</ele>
        <time>2013-04-27T13:42:14Z</time>
      </trkpt>
      <trkpt lat="59.9429033" lon="17.8221388">
        <ele>29.4575</ele>
        <time>2013-04-27T13:42:15Z</time>
      </trkpt>
      <trkpt lat="59.9429556" lon="17.8222037">
        <ele>29.9381</ele>
        <time>2013-04-27T13:42:16Z</time>
      </trkpt>
      <trkpt lat="59.9430059" lon="17.8222685">
        <ele>29.9381</ele>
        <time>2013-04-27T13:42:17Z</time>
      </trkpt>
      <trkpt lat="59.9430576" lon="17.8223336">
        <ele>29.9381</ele>
        <time>2013-04-27T13:42:18Z</time>
      </trkpt>
      <trkpt lat="59.9431109" lon="17.8223987">
        <ele>30.4188</ele>
        <time>2013-04-27T13:42:19Z</time>
      </trkpt>
      <trkpt lat="59.9431647" lon="17.8224652">
        <ele>30.4188</ele>
        <time>2013-04-27T13:42:20Z</time>
      </trkpt>
      <trkpt lat="59.9432189" lon="17.8225334">
        <ele>30.4188</ele>
        <time>2013-04-27T13:42:21Z</time>
      </trkpt>
      <trkpt lat="59.9432743" lon="17.8226033">
        <ele>30.4188</ele>
        <time>2013-04-27T13:42:22Z</time>
      </trkpt>
      <trkpt lat="59.9433312" lon="17.8226737">
        <ele>30.4188</ele>
        <time>2013-04-27T13:42:23Z</time>
      </trkpt>
      <trkpt lat="59.9433877" lon="17.822744">
        <ele>30.8995</ele>
        <time>2013-04-27T13:42:24Z</time>
      </trkpt>
      <trkpt lat="59.9434442" lon="17.822814">
        <ele>30.8995</ele>
        <time>2013-04-27T13:42:25Z</time>
      </trkpt>
      <trkpt lat="59.9435006" lon="17.8228824">
        <ele>30.8995</ele>
        <time>2013-04-27T13:42:26Z</time>
      </trkpt>
      <trkpt lat="59.9435555" lon="17.8229523">
        <ele>30.8995</ele>
        <time>2013-04-27T13:42:27Z</time>
      </trkpt>
      <trkpt lat="59.9436131" lon="17.8230246">
        <ele>31.3801</ele>
        <time>2013-04-27T13:42:28Z</time>
      </trkpt>
      <trkpt lat="59.943668" lon="17.8230982">
        <ele>30.8995</ele>
        <time>2013-04-27T13:42:29Z</time>
      </trkpt>
      <trkpt lat="59.9437238" lon="17.8231705">
        <ele>30.8995</ele>
        <time>2013-04-27T13:42:30Z</time>
      </trkpt>
      <trkpt lat="59.9437785" lon="17.8232418">
        <ele>30.8995</ele>
        <time>2013-04-27T13:42:31Z</time>
      </trkpt>
      <trkpt lat="59.9438316" lon="17.8233088">
        <ele>30.8995</ele>
        <time>2013-04-27T13:42:32Z</time>
      </trkpt>
      <trkpt lat="59.943885" lon="17.823373">
        <ele>31.3801</ele>
        <time>2013-04-27T13:42:33Z</time>
      </trkpt>
      <trkpt lat="59.9439361" lon="17.8234366">
        <ele>31.3801</ele>
        <time>2013-04-27T13:42:34Z</time>
      </trkpt>
      <trkpt lat="59.9439833" lon="17.8234998">
        <ele>30.8995</ele>
        <time>2013-04-27T13:42:35Z</time>
      </trkpt>
      <trkpt lat="59.944032" lon="17.8235611">
        <ele>30.8995</ele>
        <time>2013-04-27T13:42:36Z</time>
      </trkpt>
      <trkpt lat="59.9440817" lon="17.8236217">
        <ele>31.3801</ele>
        <time>2013-04-27T13:42:37Z</time>
      </trkpt>
      <trkpt lat="59.9441293" lon="17.8236823">
        <ele>31.3801</ele>
        <time>2013-04-27T13:42:38Z</time>
      </trkpt>
      <trkpt lat="59.9441758" lon="17.8237438">
        <ele>31.3801</ele>
        <time>2013-04-27T13:42:39Z</time>
      </trkpt>
      <trkpt lat="59.9442228" lon="17.8238004">
        <ele>31.3801</ele>
        <time>2013-04-27T13:42:40Z</time>
      </trkpt>
      <trkpt lat="59.9442616" lon="17.8238604">
        <ele>29.4575</ele>
        <time>2013-04-27T13:42:41Z</time>
      </trkpt>
      <trkpt lat="59.9443116" lon="17.8239159">
        <ele>29.9381</ele>
        <time>2013-04-27T13:42:42Z</time>
      </trkpt>
      <trkpt lat="59.9443559" lon="17.8239728">
        <ele>28.9769</ele>
        <time>2013-04-27T13:42:43Z</time>
      </trkpt>
      <trkpt lat="59.9444014" lon="17.8240286">
        <ele>28.4962</ele>
        <time>2013-04-27T13:42:44Z</time>
      </trkpt>
      <trkpt lat="59.9444473" lon="17.8240855">
        <ele>27.5349</ele>
        <time>2013-04-27T13:42:45Z</time>
      </trkpt>
      <trkpt lat="59.9444909" lon="17.8241451">
        <ele>26.0929</ele>
        <time>2013-04-27T13:42:46Z</time>
      </trkpt>
      <trkpt lat="59.9445386" lon="17.8241988">
        <ele>26.0929</ele>
        <time>2013-04-27T13:42:47Z</time>
      </trkpt>
      <trkpt lat="59.9445848" lon="17.8242499">
        <ele>25.6123</ele>
        <time>2013-04-27T13:42:48Z</time>
      </trkpt>
      <trkpt lat="59.9446318" lon="17.8242993">
        <ele>25.1317</ele>
        <time>2013-04-27T13:42:49Z</time>
      </trkpt>
      <trkpt lat="59.9446817" lon="17.8243498">
        <ele>24.651</ele>
        <time>2013-04-27T13:42:50Z</time>
      </trkpt>
      <trkpt lat="59.944732" lon="17.8244016">
        <ele>24.651</ele>
        <time>2013-04-27T13:42:51Z</time>
      </trkpt>
      <trkpt lat="59.9447835" lon="17.8244531">
        <ele>24.651</ele>
        <time>2013-04-27T13:42:52Z</time>
      </trkpt>
      <trkpt lat="59.9448351" lon="17.8245047">
        <ele>24.651</ele>
        <time>2013-04-27T13:42:53Z</time>
      </trkpt>
      <trkpt lat="59.9448893" lon="17.8245612">
        <ele>24.651</ele>
        <time>2013-04-27T13:42:54Z</time>
      </trkpt>
      <trkpt lat="59.9449459" lon="17.8246219">
        <ele>24.651</ele>
        <time>2013-04-27T13:42:55Z</time>
      </trkpt>
      <trkpt lat="59.9450073" lon="17.8246786">
        <ele>25.6123</ele>
        <time>2013-04-27T13:42:56Z</time>
      </trkpt>
      <trkpt lat="59.945065" lon="17.8247356">
        <ele>25.6123</ele>
        <time>2013-04-27T13:42:57Z</time>
      </trkpt>
      <trkpt lat="59.9451271" lon="17.8247949">
        <ele>26.0929</ele>
        <time>2013-04-27T13:42:58Z</time>
      </trkpt>
      <trkpt lat="59.9451862" lon="17.8248565">
        <ele>26.0929</ele>
        <time>2013-04-27T13:42:59Z</time>
      </trkpt>
      <trkpt lat="59.9452467" lon="17.8249166">
        <ele>26.5736</ele>
        <time>2013-04-27T13:43:00Z</time>
      </trkpt>
      <trkpt lat="59.9453067" lon="17.8249794">
        <ele>26.5736</ele>
        <time>2013-04-27T13:43:01Z</time>
      </trkpt>
      <trkpt lat="59.945366" lon="17.8250407">
        <ele>26.5736</ele>
        <time>2013-04-27T13:43:02Z</time>
      </trkpt>
      <trkpt lat="59.9454264" lon="17.825104">
        <ele>26.5736</ele>
        <time>2013-04-27T13:43:03Z</time>
      </trkpt>
      <trkpt lat="59.9454849" lon="17.8251666">
        <ele>26.0929</ele>
        <time>2013-04-27T13:43:04Z</time>
      </trkpt>
      <trkpt lat="59.9455449" lon="17.8252274">
        <ele>26.0929</ele>
        <time>2013-04-27T13:43:05Z</time>
      </trkpt>
      <trkpt lat="59.9456047" lon="17.825289">
        <ele>26.0929</ele>
        <time>2013-04-27T13:43:06Z</time>
      </trkpt>
      <trkpt lat="59.9456653" lon="17.8253527">
        <ele>26.0929</ele>
        <time>2013-04-27T13:43:07Z</time>
      </trkpt>
      <trkpt lat="59.9457252" lon="17.8254176">
        <ele>25.6123</ele>
        <time>2013-04-27T13:43:08Z</time>
      </trkpt>
      <trkpt lat="59.9457859" lon="17.8254822">
        <ele>25.6123</ele>
        <time>2013-04-27T13:43:09Z</time>
      </trkpt>
      <trkpt lat="59.9458462" lon="17.8255471">
        <ele>25.1317</ele>
        <time>2013-04-27T13:43:10Z</time>
      </trkpt>
      <trkpt lat="59.9459078" lon="17.8256117">
        <ele>25.1317</ele>
        <time>2013-04-27T13:43:11Z</time>
      </trkpt>
      <trkpt lat="59.9459689" lon="17.8256765">
        <ele>24.651</ele>
        <time>2013-04-27T13:43:12Z</time>
      </trkpt>
      <trkpt lat="59.9460316" lon="17.8257439">
        <ele>24.651</ele>
        <time>2013-04-27T13:43:13Z</time>
      </trkpt>
      <trkpt lat="59.9460962" lon="17.8258127">
        <ele>24.1703</ele>
        <time>2013-04-27T13:43:14Z</time>
      </trkpt>
      <trkpt lat="59.946161" lon="17.8258811">
        <ele>24.1703</ele>
        <time>2013-04-27T13:43:15Z</time>
      </trkpt>
      <trkpt lat="59.9462264" lon="17.8259502">
        <ele>24.1703</ele>
        <time>2013-04-27T13:43:16Z</time>
      </trkpt>
      <trkpt lat="59.9462922" lon="17.8260193">
        <ele>23.6896</ele>
        <time>2013-04-27T13:43:17Z</time>
      </trkpt>
      <trkpt lat="59.9463582" lon="17.8260884">
        <ele>23.6896</ele>
        <time>2013-04-27T13:43:18Z</time>
      </trkpt>
      <trkpt lat="59.9464247" lon="17.8261579">
        <ele>24.1703</ele>
        <time>2013-04-27T13:43:19Z</time>
      </trkpt>
      <trkpt lat="59.9464908" lon="17.8262261">
        <ele>23.6896</ele>
        <time>2013-04-27T13:43:20Z</time>
      </trkpt>
      <trkpt lat="59.9465564" lon="17.8262931">
        <ele>23.6896</ele>
        <time>2013-04-27T13:43:21Z</time>
      </trkpt>
      <trkpt lat="59.9466212" lon="17.8263609">
        <ele>23.6896</ele>
        <time>2013-04-27T13:43:22Z</time>
      </trkpt>
      <trkpt lat="59.9466863" lon="17.8264287">
        <ele>23.6896</ele>
        <time>2013-04-27T13:43:23Z</time>
      </trkpt>
      <trkpt lat="59.9467517" lon="17.826496">
        <ele>23.209</ele>
        <time>2013-04-27T13:43:24Z</time>
      </trkpt>
      <trkpt lat="59.9468163" lon="17.8265638">
        <ele>23.209</ele>
        <time>2013-04-27T13:43:25Z</time>
      </trkpt>
      <trkpt lat="59.9468802" lon="17.8266316">
        <ele>22.7283</ele>
        <time>2013-04-27T13:43:26Z</time>
      </trkpt>
      <trkpt lat="59.9469439" lon="17.8266986">
        <ele>22.2476</ele>
        <time>2013-04-27T13:43:27Z</time>
      </trkpt>
      <trkpt lat="59.9470068" lon="17.8267648">
        <ele>22.2476</ele>
        <time>2013-04-27T13:43:28Z</time>
      </trkpt>
      <trkpt lat="59.9470717" lon="17.8268302">
        <ele>22.2476</ele>
        <time>2013-04-27T13:43:29Z</time>
      </trkpt>
      <trkpt lat="59.9471364" lon="17.826897">
        <ele>22.2476</ele>
        <time>2013-04-27T13:43:30Z</time>
      </trkpt>
      <trkpt lat="59.9472011" lon="17.8269643">
        <ele>21.767</ele>
        <time>2013-04-27T13:43:31Z</time>
      </trkpt>
      <trkpt lat="59.9472645" lon="17.8270311">
        <ele>21.767</ele>
        <time>2013-04-27T13:43:32Z</time>
      </trkpt>
      <trkpt lat="59.9473287" lon="17.8270977">
        <ele>21.2864</ele>
        <time>2013-04-27T13:43:33Z</time>
      </trkpt>
      <trkpt lat="59.9473924" lon="17.8271644">
        <ele>21.2864</ele>
        <time>2013-04-27T13:43:34Z</time>
      </trkpt>
      <trkpt lat="59.9474559" lon="17.8272304">
        <ele>21.2864</ele>
        <time>2013-04-27T13:43:35Z</time>
      </trkpt>
      <trkpt lat="59.9475183" lon="17.8272951">
        <ele>20.8057</ele>
        <time>2013-04-27T13:43:36Z</time>
      </trkpt>
      <trkpt lat="59.9475815" lon="17.8273595">
        <ele>20.8057</ele>
        <time>2013-04-27T13:43:37Z</time>
      </trkpt>
      <trkpt lat="59.9476424" lon="17.8274239">
        <ele>20.8057</ele>
        <time>2013-04-27T13:43:38Z</time>
      </trkpt>
      <trkpt lat="59.9477021" lon="17.8274885">
        <ele>20.8057</ele>
        <time>2013-04-27T13:43:39Z</time>
      </trkpt>
      <trkpt lat="59.9477613" lon="17.8275524">
        <ele>20.8057</ele>
        <time>2013-04-27T13:43:40Z</time>
      </trkpt>
      <trkpt lat="59.9478202" lon="17.8276144">
        <ele>20.325</ele>
        <time>2013-04-27T13:43:41Z</time>
      </trkpt>
      <trkpt lat="59.9478781" lon="17.827675">
        <ele>20.325</ele>
        <time>2013-04-27T13:43:42Z</time>
      </trkpt>
      <trkpt lat="59.9479304" lon="17.8277232">
        <ele>20.325</ele>
        <time>2013-04-27T13:43:43Z</time>
      </trkpt>
      <trkpt lat="59.9479802" lon="17.8277777">
        <ele>20.325</ele>
        <time>2013-04-27T13:43:44Z</time>
      </trkpt>
      <trkpt lat="59.9480317" lon="17.8278334">
        <ele>20.325</ele>
        <time>2013-04-27T13:43:45Z</time>
      </trkpt>
      <trkpt lat="59.9480839" lon="17.8278894">
        <ele>20.325</ele>
        <time>2013-04-27T13:43:46Z</time>
      </trkpt>
      <trkpt lat="59.9481368" lon="17.8279449">
        <ele>18.8831</ele>
        <time>2013-04-27T13:43:47Z</time>
      </trkpt>
      <trkpt lat="59.9481933" lon="17.8280044">
        <ele>19.3638</ele>
        <time>2013-04-27T13:43:48Z</time>
      </trkpt>
      <trkpt lat="59.9482543" lon="17.8280673">
        <ele>19.3638</ele>
        <time>2013-04-27T13:43:49Z</time>
      </trkpt>
      <trkpt lat="59.9483306" lon="17.8281268">
        <ele>21.2864</ele>
        <time>2013-04-27T13:43:50Z</time>
      </trkpt>
      <trkpt lat="59.9484015" lon="17.8281877">
        <ele>22.7283</ele>
        <time>2013-04-27T13:43:51Z</time>
      </trkpt>
      <trkpt lat="59.9484678" lon="17.8282485">
        <ele>23.6896</ele>
        <time>2013-04-27T13:43:52Z</time>
      </trkpt>
      <trkpt lat="59.9485289" lon="17.8283106">
        <ele>24.1703</ele>
        <time>2013-04-27T13:43:53Z</time>
      </trkpt>
      <trkpt lat="59.9485973" lon="17.8283644">
        <ele>24.651</ele>
        <time>2013-04-27T13:43:54Z</time>
      </trkpt>
      <trkpt lat="59.9486592" lon="17.8284033">
        <ele>24.651</ele>
        <time>2013-04-27T13:43:55Z</time>
      </trkpt>
      <trkpt lat="59.9487237" lon="17.8284322">
        <ele>24.651</ele>
        <time>2013-04-27T13:43:56Z</time>
      </trkpt>
      <trkpt lat="59.948788" lon="17.8284671">
        <ele>24.651</ele>
        <time>2013-04-27T13:43:57Z</time>
      </trkpt>
      <trkpt lat="59.948851" lon="17.8285142">
        <ele>24.651</ele>
        <time>2013-04-27T13:43:58Z</time>
      </trkpt>
      <trkpt lat="59.9489132" lon="17.8285712">
        <ele>24.651</ele>
        <time>2013-04-27T13:43:59Z</time>
      </trkpt>
      <trkpt lat="59.9489749" lon="17.8286353">
        <ele>24.1703</ele>
        <time>2013-04-27T13:44:00Z</time>
      </trkpt>
      <trkpt lat="59.9490368" lon="17.8287033">
        <ele>24.1703</ele>
        <time>2013-04-27T13:44:01Z</time>
      </trkpt>
      <trkpt lat="59.9490981" lon="17.8287727">
        <ele>24.1703</ele>
        <time>2013-04-27T13:44:02Z</time>
      </trkpt>
      <trkpt lat="59.9491584" lon="17.8288437">
        <ele>24.651</ele>
        <time>2013-04-27T13:44:03Z</time>
      </trkpt>
      <trkpt lat="59.9492189" lon="17.8289101">
        <ele>24.1703</ele>
        <time>2013-04-27T13:44:04Z</time>
      </trkpt>
      <trkpt lat="59.9492814" lon="17.8289691">
        <ele>24.1703</ele>
        <time>2013-04-27T13:44:05Z</time>
      </trkpt>
      <trkpt lat="59.9493442" lon="17.8290301">
        <ele>24.651</ele>
        <time>2013-04-27T13:44:06Z</time>
      </trkpt>
      <trkpt lat="59.9494033" lon="17.8290984">
        <ele>24.651</ele>
        <time>2013-04-27T13:44:07Z</time>
      </trkpt>
      <trkpt lat="59.9494598" lon="17.8291713">
        <ele>24.651</ele>
        <time>2013-04-27T13:44:08Z</time>
      </trkpt>
      <trkpt lat="59.949514" lon="17.8292486">
        <ele>25.1317</ele>
        <time>2013-04-27T13:44:09Z</time>
      </trkpt>
      <trkpt lat="59.9495654" lon="17.8293293">
        <ele>25.1317</ele>
        <time>2013-04-27T13:44:10Z</time>
      </trkpt>
      <trkpt lat="59.9496155" lon="17.8294108">
        <ele>25.1317</ele>
        <time>2013-04-27T13:44:11Z</time>
      </trkpt>
      <trkpt lat="59.9496638" lon="17.8294911">
        <ele>25.6123</ele>
        <time>2013-04-27T13:44:12Z</time>
      </trkpt>
      <trkpt lat="59.9497098" lon="17.8295673">
        <ele>25.6123</ele>
        <time>2013-04-27T13:44:13Z</time>
      </trkpt>
      <trkpt lat="59.9497541" lon="17.8296393">
        <ele>26.0929</ele>
        <time>2013-04-27T13:44:14Z</time>
      </trkpt>
      <trkpt lat="59.9497969" lon="17.8297067">
        <ele>26.5736</ele>
        <time>2013-04-27T13:44:15Z</time>
      </trkpt>
      <trkpt lat="59.949843" lon="17.8297595">
        <ele>26.5736</ele>
        <time>2013-04-27T13:44:16Z</time>
      </trkpt>
      <trkpt lat="59.9498937" lon="17.8297755">
        <ele>27.0543</ele>
        <time>2013-04-27T13:44:17Z</time>
      </trkpt>
      <trkpt lat="59.9499405" lon="17.8297471">
        <ele>26.0929</ele>
        <time>2013-04-27T13:44:18Z</time>
      </trkpt>
      <trkpt lat="59.9499814" lon="17.8296832">
        <ele>25.6123</ele>
        <time>2013-04-27T13:44:19Z</time>
      </trkpt>
      <trkpt lat="59.9500107" lon="17.8295952">
        <ele>23.6896</ele>
        <time>2013-04-27T13:44:20Z</time>
      </trkpt>
      <trkpt lat="59.950031" lon="17.8294885">
        <ele>22.7283</ele>
        <time>2013-04-27T13:44:21Z</time>
      </trkpt>
      <trkpt lat="59.9500433" lon="17.8293697">
        <ele>21.2864</ele>
        <time>2013-04-27T13:44:22Z</time>
      </trkpt>
      <trkpt lat="59.9500481" lon="17.8292441">
        <ele>20.325</ele>
        <time>2013-04-27T13:44:23Z</time>
      </trkpt>
      <trkpt lat="59.9500487" lon="17.829116">
        <ele>19.3638</ele>
        <time>2013-04-27T13:44:24Z</time>
      </trkpt>
      <trkpt lat="59.9500459" lon="17.8289882">
        <ele>18.8831</ele>
        <time>2013-04-27T13:44:25Z</time>
      </trkpt>
      <trkpt lat="59.9500429" lon="17.8288613">
        <ele>18.4023</ele>
        <time>2013-04-27T13:44:26Z</time>
      </trkpt>
      <trkpt lat="59.9500408" lon="17.8287333">
        <ele>17.9218</ele>
        <time>2013-04-27T13:44:27Z</time>
      </trkpt>
      <trkpt lat="59.9500389" lon="17.8286032">
        <ele>17.4412</ele>
        <time>2013-04-27T13:44:28Z</time>
      </trkpt>
      <trkpt lat="59.9500358" lon="17.8284677">
        <ele>16.9604</ele>
        <time>2013-04-27T13:44:29Z</time>
      </trkpt>
      <trkpt lat="59.9500328" lon="17.8283272">
        <ele>16.4797</ele>
        <time>2013-04-27T13:44:30Z</time>
      </trkpt>
      <trkpt lat="59.9500295" lon="17.8281848">
        <ele>16.4797</ele>
        <time>2013-04-27T13:44:31Z</time>
      </trkpt>
      <trkpt lat="59.9500265" lon="17.8280411">
        <ele>15.999</ele>
        <time>2013-04-27T13:44:32Z</time>
      </trkpt>
      <trkpt lat="59.9500244" lon="17.8278957">
        <ele>15.999</ele>
        <time>2013-04-27T13:44:33Z</time>
      </trkpt>
      <trkpt lat="59.9500218" lon="17.8277491">
        <ele>15.5184</ele>
        <time>2013-04-27T13:44:34Z</time>
      </trkpt>
      <trkpt lat="59.9500208" lon="17.8276014">
        <ele>15.5184</ele>
        <time>2013-04-27T13:44:35Z</time>
      </trkpt>
      <trkpt lat="59.9500203" lon="17.8274543">
        <ele>15.5184</ele>
        <time>2013-04-27T13:44:36Z</time>
      </trkpt>
      <trkpt lat="59.9500197" lon="17.8273078">
        <ele>15.0377</ele>
        <time>2013-04-27T13:44:37Z</time>
      </trkpt>
      <trkpt lat="59.9500212" lon="17.8271621">
        <ele>15.0377</ele>
        <time>2013-04-27T13:44:38Z</time>
      </trkpt>
      <trkpt lat="59.9500258" lon="17.8270172">
        <ele>15.0377</ele>
        <time>2013-04-27T13:44:39Z</time>
      </trkpt>
      <trkpt lat="59.950032" lon="17.8268735">
        <ele>15.0377</ele>
        <time>2013-04-27T13:44:40Z</time>
      </trkpt>
      <trkpt lat="59.9500408" lon="17.8267302">
        <ele>14.557</ele>
        <time>2013-04-27T13:44:41Z</time>
      </trkpt>
      <trkpt lat="59.9500517" lon="17.8265871">
        <ele>14.557</ele>
        <time>2013-04-27T13:44:42Z</time>
      </trkpt>
      <trkpt lat="59.9500708" lon="17.8264447">
        <ele>15.0377</ele>
        <time>2013-04-27T13:44:43Z</time>
      </trkpt>
      <trkpt lat="59.9501224" lon="17.8261635">
        <ele>16.9604</ele>
        <time>2013-04-27T13:44:45Z</time>
      </trkpt>
      <trkpt lat="59.9501524" lon="17.8260281">
        <ele>17.4412</ele>
        <time>2013-04-27T13:44:46Z</time>
      </trkpt>
      <trkpt lat="59.9501848" lon="17.8258967">
        <ele>17.4412</ele>
        <time>2013-04-27T13:44:47Z</time>
      </trkpt>
      <trkpt lat="59.9502181" lon="17.8257682">
        <ele>17.9218</ele>
        <time>2013-04-27T13:44:48Z</time>
      </trkpt>
      <trkpt lat="59.9502501" lon="17.8256409">
        <ele>18.8831</ele>
        <time>2013-04-27T13:44:49Z</time>
      </trkpt>
      <trkpt lat="59.9502802" lon="17.825515">
        <ele>19.3638</ele>
        <time>2013-04-27T13:44:50Z</time>
      </trkpt>
      <trkpt lat="59.9503097" lon="17.8253906">
        <ele>19.3638</ele>
        <time>2013-04-27T13:44:51Z</time>
      </trkpt>
      <trkpt lat="59.9503393" lon="17.8252658">
        <ele>19.8444</ele>
        <time>2013-04-27T13:44:52Z</time>
      </trkpt>
      <trkpt lat="59.9503686" lon="17.8251407">
        <ele>19.8444</ele>
        <time>2013-04-27T13:44:53Z</time>
      </trkpt>
      <trkpt lat="59.9503978" lon="17.8250169">
        <ele>20.325</ele>
        <time>2013-04-27T13:44:54Z</time>
      </trkpt>
      <trkpt lat="59.9504257" lon="17.8248928">
        <ele>20.325</ele>
        <time>2013-04-27T13:44:55Z</time>
      </trkpt>
      <trkpt lat="59.9504521" lon="17.824767">
        <ele>20.8057</ele>
        <time>2013-04-27T13:44:56Z</time>
      </trkpt>
      <trkpt lat="59.9504786" lon="17.8246427">
        <ele>20.8057</ele>
        <time>2013-04-27T13:44:57Z</time>
      </trkpt>
      <trkpt lat="59.9505059" lon="17.8245208">
        <ele>20.8057</ele>
        <time>2013-04-27T13:44:58Z</time>
      </trkpt>
      <trkpt lat="59.9505352" lon="17.8244002">
        <ele>21.2864</ele>
        <time>2013-04-27T13:44:59Z</time>
      </trkpt>
      <trkpt lat="59.9505662" lon="17.8242819">
        <ele>21.767</ele>
        <time>2013-04-27T13:45:00Z</time>
      </trkpt>
      <trkpt lat="59.9505977" lon="17.8241655">
        <ele>22.2476</ele>
        <time>2013-04-27T13:45:01Z</time>
      </trkpt>
      <trkpt lat="59.9506273" lon="17.8240469">
        <ele>23.209</ele>
        <time>2013-04-27T13:45:02Z</time>
      </trkpt>
      <trkpt lat="59.9506518" lon="17.8239231">
        <ele>23.6896</ele>
        <time>2013-04-27T13:45:03Z</time>
      </trkpt>
      <trkpt lat="59.9506787" lon="17.8237983">
        <ele>24.651</ele>
        <time>2013-04-27T13:45:04Z</time>
      </trkpt>
      <trkpt lat="59.950705" lon="17.8236776">
        <ele>25.1317</ele>
        <time>2013-04-27T13:45:05Z</time>
      </trkpt>
      <trkpt lat="59.9507262" lon="17.8235518">
        <ele>25.6123</ele>
        <time>2013-04-27T13:45:06Z</time>
      </trkpt>
      <trkpt lat="59.9507496" lon="17.823424">
        <ele>27.0543</ele>
        <time>2013-04-27T13:45:07Z</time>
      </trkpt>
      <trkpt lat="59.950772" lon="17.8232982">
        <ele>27.5349</ele>
        <time>2013-04-27T13:45:08Z</time>
      </trkpt>
      <trkpt lat="59.9507957" lon="17.8231728">
        <ele>28.9769</ele>
        <time>2013-04-27T13:45:09Z</time>
      </trkpt>
      <trkpt lat="59.9508153" lon="17.8230419">
        <ele>29.4575</ele>
        <time>2013-04-27T13:45:10Z</time>
      </trkpt>
      <trkpt lat="59.9508542" lon="17.822886">
        <ele>30.4188</ele>
        <time>2013-04-27T13:45:11Z</time>
      </trkpt>
      <trkpt lat="59.9508733" lon="17.8227825">
        <ele>30.8995</ele>
        <time>2013-04-27T13:45:12Z</time>
      </trkpt>
      <trkpt lat="59.9508843" lon="17.8226665">
        <ele>30.8995</ele>
        <time>2013-04-27T13:45:13Z</time>
      </trkpt>
      <trkpt lat="59.9509097" lon="17.8225409">
        <ele>31.3801</ele>
        <time>2013-04-27T13:45:14Z</time>
      </trkpt>
      <trkpt lat="59.9509226" lon="17.8224047">
        <ele>31.8607</ele>
        <time>2013-04-27T13:45:15Z</time>
      </trkpt>
      <trkpt lat="59.9509317" lon="17.8222573">
        <ele>31.8607</ele>
        <time>2013-04-27T13:45:16Z</time>
      </trkpt>
      <trkpt lat="59.9509278" lon="17.8220661">
        <ele>32.3416</ele>
        <time>2013-04-27T13:45:17Z</time>
      </trkpt>
      <trkpt lat="59.9509339" lon="17.8219022">
        <ele>32.3416</ele>
        <time>2013-04-27T13:45:18Z</time>
      </trkpt>
      <trkpt lat="59.9509308" lon="17.8217712">
        <ele>31.3801</ele>
        <time>2013-04-27T13:45:19Z</time>
      </trkpt>
      <trkpt lat="59.9509349" lon="17.8216354">
        <ele>30.8995</ele>
        <time>2013-04-27T13:45:20Z</time>
      </trkpt>
      <trkpt lat="59.9509414" lon="17.8214962">
        <ele>30.4188</ele>
        <time>2013-04-27T13:45:21Z</time>
      </trkpt>
      <trkpt lat="59.950947" lon="17.821357">
        <ele>29.9381</ele>
        <time>2013-04-27T13:45:22Z</time>
      </trkpt>
      <trkpt lat="59.9509543" lon="17.8212201">
        <ele>29.4575</ele>
        <time>2013-04-27T13:45:23Z</time>
      </trkpt>
      <trkpt lat="59.9509614" lon="17.8210808">
        <ele>28.9769</ele>
        <time>2013-04-27T13:45:24Z</time>
      </trkpt>
      <trkpt lat="59.9509698" lon="17.820943">
        <ele>28.4962</ele>
        <time>2013-04-27T13:45:25Z</time>
      </trkpt>
      <trkpt lat="59.9509775" lon="17.8208067">
        <ele>28.0155</ele>
        <time>2013-04-27T13:45:26Z</time>
      </trkpt>
      <trkpt lat="59.9509799" lon="17.8206797">
        <ele>27.5349</ele>
        <time>2013-04-27T13:45:27Z</time>
      </trkpt>
      <trkpt lat="59.9509853" lon="17.8205565">
        <ele>27.0543</ele>
        <time>2013-04-27T13:45:28Z</time>
      </trkpt>
      <trkpt lat="59.9509911" lon="17.82044">
        <ele>26.5736</ele>
        <time>2013-04-27T13:45:29Z</time>
      </trkpt>
      <trkpt lat="59.9509972" lon="17.8203235">
        <ele>26.0929</ele>
        <time>2013-04-27T13:45:30Z</time>
      </trkpt>
      <trkpt lat="59.9510027" lon="17.8202063">
        <ele>25.6123</ele>
        <time>2013-04-27T13:45:31Z</time>
      </trkpt>
      <trkpt lat="59.9510065" lon="17.8200876">
        <ele>25.6123</ele>
        <time>2013-04-27T13:45:32Z</time>
      </trkpt>
      <trkpt lat="59.9510102" lon="17.8199686">
        <ele>25.1317</ele>
        <time>2013-04-27T13:45:33Z</time>
      </trkpt>
      <trkpt lat="59.9510127" lon="17.8198511">
        <ele>25.1317</ele>
        <time>2013-04-27T13:45:34Z</time>
      </trkpt>
      <trkpt lat="59.9510142" lon="17.8197366">
        <ele>24.1703</ele>
        <time>2013-04-27T13:45:35Z</time>
      </trkpt>
      <trkpt lat="59.9510157" lon="17.8196225">
        <ele>24.1703</ele>
        <time>2013-04-27T13:45:36Z</time>
      </trkpt>
      <trkpt lat="59.951017" lon="17.8195051">
        <ele>24.1703</ele>
        <time>2013-04-27T13:45:37Z</time>
      </trkpt>
      <trkpt lat="59.9510164" lon="17.8193893">
        <ele>24.1703</ele>
        <time>2013-04-27T13:45:38Z</time>
      </trkpt>
      <trkpt lat="59.9510151" lon="17.8192729">
        <ele>24.1703</ele>
        <time>2013-04-27T13:45:39Z</time>
      </trkpt>
      <trkpt lat="59.9510151" lon="17.8191551">
        <ele>23.6896</ele>
        <time>2013-04-27T13:45:40Z</time>
      </trkpt>
      <trkpt lat="59.9510173" lon="17.8190363">
        <ele>23.6896</ele>
        <time>2013-04-27T13:45:41Z</time>
      </trkpt>
      <trkpt lat="59.9510221" lon="17.818917">
        <ele>23.6896</ele>
        <time>2013-04-27T13:45:42Z</time>
      </trkpt>
      <trkpt lat="59.9510319" lon="17.8187946">
        <ele>24.1703</ele>
        <time>2013-04-27T13:45:43Z</time>
      </trkpt>
      <trkpt lat="59.9510481" lon="17.8186706">
        <ele>25.1317</ele>
        <time>2013-04-27T13:45:44Z</time>
      </trkpt>
      <trkpt lat="59.9510638" lon="17.8185519">
        <ele>25.6123</ele>
        <time>2013-04-27T13:45:45Z</time>
      </trkpt>
      <trkpt lat="59.9510764" lon="17.8184353">
        <ele>25.6123</ele>
        <time>2013-04-27T13:45:46Z</time>
      </trkpt>
      <trkpt lat="59.9510884" lon="17.8183147">
        <ele>25.6123</ele>
        <time>2013-04-27T13:45:47Z</time>
      </trkpt>
      <trkpt lat="59.9511135" lon="17.8181952">
        <ele>27.5349</ele>
        <time>2013-04-27T13:45:48Z</time>
      </trkpt>
      <trkpt lat="59.9511343" lon="17.8180714">
        <ele>28.4962</ele>
        <time>2013-04-27T13:45:49Z</time>
      </trkpt>
      <trkpt lat="59.9511531" lon="17.8179442">
        <ele>28.9769</ele>
        <time>2013-04-27T13:45:50Z</time>
      </trkpt>
      <trkpt lat="59.9511692" lon="17.8178131">
        <ele>29.4575</ele>
        <time>2013-04-27T13:45:51Z</time>
      </trkpt>
      <trkpt lat="59.9511852" lon="17.817681">
        <ele>29.4575</ele>
        <time>2013-04-27T13:45:52Z</time>
      </trkpt>
      <trkpt lat="59.9512014" lon="17.8175465">
        <ele>29.9381</ele>
        <time>2013-04-27T13:45:53Z</time>
      </trkpt>
      <trkpt lat="59.9512221" lon="17.8174102">
        <ele>30.8995</ele>
        <time>2013-04-27T13:45:54Z</time>
      </trkpt>
      <trkpt lat="59.9512382" lon="17.8172752">
        <ele>31.3801</ele>
        <time>2013-04-27T13:45:55Z</time>
      </trkpt>
      <trkpt lat="59.9512531" lon="17.8171423">
        <ele>31.3801</ele>
        <time>2013-04-27T13:45:56Z</time>
      </trkpt>
      <trkpt lat="59.951268" lon="17.8170091">
        <ele>31.8607</ele>
        <time>2013-04-27T13:45:57Z</time>
      </trkpt>
      <trkpt lat="59.9512836" lon="17.8168745">
        <ele>31.8607</ele>
        <time>2013-04-27T13:45:58Z</time>
      </trkpt>
      <trkpt lat="59.9512992" lon="17.8167393">
        <ele>31.8607</ele>
        <time>2013-04-27T13:45:59Z</time>
      </trkpt>
      <trkpt lat="59.9513147" lon="17.8166026">
        <ele>31.8607</ele>
        <time>2013-04-27T13:46:00Z</time>
      </trkpt>
      <trkpt lat="59.9513308" lon="17.8164648">
        <ele>32.3416</ele>
        <time>2013-04-27T13:46:01Z</time>
      </trkpt>
      <trkpt lat="59.9513446" lon="17.8163257">
        <ele>32.3416</ele>
        <time>2013-04-27T13:46:02Z</time>
      </trkpt>
      <trkpt lat="59.9513578" lon="17.8161866">
        <ele>32.3416</ele>
        <time>2013-04-27T13:46:03Z</time>
      </trkpt>
      <trkpt lat="59.9513712" lon="17.8160466">
        <ele>32.8223</ele>
        <time>2013-04-27T13:46:04Z</time>
      </trkpt>
      <trkpt lat="59.9513837" lon="17.8159062">
        <ele>32.8223</ele>
        <time>2013-04-27T13:46:05Z</time>
      </trkpt>
      <trkpt lat="59.9513939" lon="17.815765">
        <ele>32.8223</ele>
        <time>2013-04-27T13:46:06Z</time>
      </trkpt>
      <trkpt lat="59.9514" lon="17.815624">
        <ele>32.8223</ele>
        <time>2013-04-27T13:46:07Z</time>
      </trkpt>
      <trkpt lat="59.9514059" lon="17.815482">
        <ele>32.8223</ele>
        <time>2013-04-27T13:46:08Z</time>
      </trkpt>
      <trkpt lat="59.951409" lon="17.8153439">
        <ele>31.8607</ele>
        <time>2013-04-27T13:46:09Z</time>
      </trkpt>
      <trkpt lat="59.9514117" lon="17.815209">
        <ele>31.3801</ele>
        <time>2013-04-27T13:46:10Z</time>
      </trkpt>
      <trkpt lat="59.9514128" lon="17.8150786">
        <ele>30.4188</ele>
        <time>2013-04-27T13:46:11Z</time>
      </trkpt>
      <trkpt lat="59.9514132" lon="17.8149473">
        <ele>29.4575</ele>
        <time>2013-04-27T13:46:12Z</time>
      </trkpt>
      <trkpt lat="59.9514126" lon="17.8148147">
        <ele>28.4962</ele>
        <time>2013-04-27T13:46:13Z</time>
      </trkpt>
      <trkpt lat="59.9514112" lon="17.8146771">
        <ele>28.0155</ele>
        <time>2013-04-27T13:46:14Z</time>
      </trkpt>
      <trkpt lat="59.9514116" lon="17.8145413">
        <ele>27.5349</ele>
        <time>2013-04-27T13:46:15Z</time>
      </trkpt>
      <trkpt lat="59.9514112" lon="17.8144041">
        <ele>27.0543</ele>
        <time>2013-04-27T13:46:16Z</time>
      </trkpt>
      <trkpt lat="59.9514116" lon="17.8142649">
        <ele>27.5349</ele>
        <time>2013-04-27T13:46:17Z</time>
      </trkpt>
      <trkpt lat="59.951411" lon="17.8141265">
        <ele>27.5349</ele>
        <time>2013-04-27T13:46:18Z</time>
      </trkpt>
      <trkpt lat="59.9514105" lon="17.8139891">
        <ele>27.5349</ele>
        <time>2013-04-27T13:46:19Z</time>
      </trkpt>
      <trkpt lat="59.9514102" lon="17.8138534">
        <ele>28.0155</ele>
        <time>2013-04-27T13:46:20Z</time>
      </trkpt>
      <trkpt lat="59.9514114" lon="17.8137192">
        <ele>28.0155</ele>
        <time>2013-04-27T13:46:21Z</time>
      </trkpt>
      <trkpt lat="59.9514133" lon="17.8135865">
        <ele>28.0155</ele>
        <time>2013-04-27T13:46:22Z</time>
      </trkpt>
      <trkpt lat="59.9514153" lon="17.8134541">
        <ele>28.4962</ele>
        <time>2013-04-27T13:46:23Z</time>
      </trkpt>
      <trkpt lat="59.9514158" lon="17.8133221">
        <ele>28.4962</ele>
        <time>2013-04-27T13:46:24Z</time>
      </trkpt>
      <trkpt lat="59.9514143" lon="17.8131912">
        <ele>28.9769</ele>
        <time>2013-04-27T13:46:25Z</time>
      </trkpt>
      <trkpt lat="59.951414" lon="17.8130594">
        <ele>28.9769</ele>
        <time>2013-04-27T13:46:26Z</time>
      </trkpt>
      <trkpt lat="59.9514136" lon="17.8129283">
        <ele>29.4575</ele>
        <time>2013-04-27T13:46:27Z</time>
      </trkpt>
      <trkpt lat="59.9514135" lon="17.8127983">
        <ele>29.4575</ele>
        <time>2013-04-27T13:46:28Z</time>
      </trkpt>
      <trkpt lat="59.9514141" lon="17.8126713">
        <ele>29.4575</ele>
        <time>2013-04-27T13:46:29Z</time>
      </trkpt>
      <trkpt lat="59.9514142" lon="17.8125444">
        <ele>29.4575</ele>
        <time>2013-04-27T13:46:30Z</time>
      </trkpt>
      <trkpt lat="59.9514155" lon="17.812417">
        <ele>29.9381</ele>
        <time>2013-04-27T13:46:31Z</time>
      </trkpt>
      <trkpt lat="59.9514183" lon="17.8122889">
        <ele>29.9381</ele>
        <time>2013-04-27T13:46:32Z</time>
      </trkpt>
      <trkpt lat="59.9514215" lon="17.8121664">
        <ele>29.9381</ele>
        <time>2013-04-27T13:46:33Z</time>
      </trkpt>
      <trkpt lat="59.9514262" lon="17.8120426">
        <ele>29.9381</ele>
        <time>2013-04-27T13:46:34Z</time>
      </trkpt>
      <trkpt lat="59.9514318" lon="17.8119181">
        <ele>29.9381</ele>
        <time>2013-04-27T13:46:35Z</time>
      </trkpt>
      <trkpt lat="59.9514391" lon="17.8117932">
        <ele>29.4575</ele>
        <time>2013-04-27T13:46:36Z</time>
      </trkpt>
      <trkpt lat="59.9514499" lon="17.8116715">
        <ele>28.9769</ele>
        <time>2013-04-27T13:46:37Z</time>
      </trkpt>
      <trkpt lat="59.9514617" lon="17.8115507">
        <ele>28.4962</ele>
        <time>2013-04-27T13:46:38Z</time>
      </trkpt>
      <trkpt lat="59.9514733" lon="17.8114302">
        <ele>28.0155</ele>
        <time>2013-04-27T13:46:39Z</time>
      </trkpt>
      <trkpt lat="59.9514863" lon="17.8113122">
        <ele>28.0155</ele>
        <time>2013-04-27T13:46:40Z</time>
      </trkpt>
      <trkpt lat="59.9515011" lon="17.8111959">
        <ele>27.5349</ele>
        <time>2013-04-27T13:46:41Z</time>
      </trkpt>
      <trkpt lat="59.9515173" lon="17.81108">
        <ele>27.5349</ele>
        <time>2013-04-27T13:46:42Z</time>
      </trkpt>
      <trkpt lat="59.951535" lon="17.810964">
        <ele>27.0543</ele>
        <time>2013-04-27T13:46:43Z</time>
      </trkpt>
      <trkpt lat="59.9515536" lon="17.8108476">
        <ele>27.0543</ele>
        <time>2013-04-27T13:46:44Z</time>
      </trkpt>
      <trkpt lat="59.9515741" lon="17.8107299">
        <ele>27.0543</ele>
        <time>2013-04-27T13:46:45Z</time>
      </trkpt>
      <trkpt lat="59.9515961" lon="17.8106134">
        <ele>26.5736</ele>
        <time>2013-04-27T13:46:46Z</time>
      </trkpt>
      <trkpt lat="59.9516187" lon="17.8105003">
        <ele>26.5736</ele>
        <time>2013-04-27T13:46:47Z</time>
      </trkpt>
      <trkpt lat="59.9516424" lon="17.8103893">
        <ele>26.5736</ele>
        <time>2013-04-27T13:46:48Z</time>
      </trkpt>
      <trkpt lat="59.9516679" lon="17.8102813">
        <ele>26.5736</ele>
        <time>2013-04-27T13:46:49Z</time>
      </trkpt>
      <trkpt lat="59.9516942" lon="17.8101751">
        <ele>26.5736</ele>
        <time>2013-04-27T13:46:50Z</time>
      </trkpt>
      <trkpt lat="59.9517197" lon="17.8100688">
        <ele>26.5736</ele>
        <time>2013-04-27T13:46:51Z</time>
      </trkpt>
      <trkpt lat="59.9517453" lon="17.8099657">
        <ele>26.0929</ele>
        <time>2013-04-27T13:46:52Z</time>
      </trkpt>
      <trkpt lat="59.9517715" lon="17.8098648">
        <ele>26.0929</ele>
        <time>2013-04-27T13:46:53Z</time>
      </trkpt>
      <trkpt lat="59.9517975" lon="17.8097649">
        <ele>26.0929</ele>
        <time>2013-04-27T13:46:54Z</time>
      </trkpt>
      <trkpt lat="59.951824" lon="17.809667">
        <ele>26.0929</ele>
        <time>2013-04-27T13:46:55Z</time>
      </trkpt>
      <trkpt lat="59.9518507" lon="17.80957">
        <ele>26.0929</ele>
        <time>2013-04-27T13:46:56Z</time>
      </trkpt>
      <trkpt lat="59.9518773" lon="17.8094731">
        <ele>26.0929</ele>
        <time>2013-04-27T13:46:57Z</time>
      </trkpt>
      <trkpt lat="59.9519031" lon="17.8093759">
        <ele>26.0929</ele>
        <time>2013-04-27T13:46:58Z</time>
      </trkpt>
      <trkpt lat="59.9519286" lon="17.8092788">
        <ele>26.0929</ele>
        <time>2013-04-27T13:46:59Z</time>
      </trkpt>
      <trkpt lat="59.9519535" lon="17.809182">
        <ele>25.6123</ele>
        <time>2013-04-27T13:47:00Z</time>
      </trkpt>
      <trkpt lat="59.9519779" lon="17.8090852">
        <ele>25.6123</ele>
        <time>2013-04-27T13:47:01Z</time>
      </trkpt>
      <trkpt lat="59.952002" lon="17.8089883">
        <ele>25.6123</ele>
        <time>2013-04-27T13:47:02Z</time>
      </trkpt>
      <trkpt lat="59.9520261" lon="17.8088925">
        <ele>25.6123</ele>
        <time>2013-04-27T13:47:03Z</time>
      </trkpt>
      <trkpt lat="59.9520508" lon="17.8087978">
        <ele>25.6123</ele>
        <time>2013-04-27T13:47:04Z</time>
      </trkpt>
      <trkpt lat="59.9520757" lon="17.8087037">
        <ele>25.6123</ele>
        <time>2013-04-27T13:47:05Z</time>
      </trkpt>
      <trkpt lat="59.9521004" lon="17.8086094">
        <ele>25.6123</ele>
        <time>2013-04-27T13:47:06Z</time>
      </trkpt>
      <trkpt lat="59.9521245" lon="17.8085149">
        <ele>25.6123</ele>
        <time>2013-04-27T13:47:07Z</time>
      </trkpt>
      <trkpt lat="59.9521489" lon="17.8084214">
        <ele>25.6123</ele>
        <time>2013-04-27T13:47:08Z</time>
      </trkpt>
      <trkpt lat="59.9521736" lon="17.8083298">
        <ele>25.6123</ele>
        <time>2013-04-27T13:47:09Z</time>
      </trkpt>
      <trkpt lat="59.9521978" lon="17.8082392">
        <ele>25.6123</ele>
        <time>2013-04-27T13:47:10Z</time>
      </trkpt>
      <trkpt lat="59.9522209" lon="17.808149">
        <ele>25.6123</ele>
        <time>2013-04-27T13:47:11Z</time>
      </trkpt>
      <trkpt lat="59.9522441" lon="17.8080586">
        <ele>25.6123</ele>
        <time>2013-04-27T13:47:12Z</time>
      </trkpt>
      <trkpt lat="59.9522675" lon="17.807969">
        <ele>25.1317</ele>
        <time>2013-04-27T13:47:13Z</time>
      </trkpt>
      <trkpt lat="59.9522922" lon="17.807882">
        <ele>25.6123</ele>
        <time>2013-04-27T13:47:14Z</time>
      </trkpt>
      <trkpt lat="59.9523161" lon="17.8077962">
        <ele>25.6123</ele>
        <time>2013-04-27T13:47:15Z</time>
      </trkpt>
      <trkpt lat="59.9523389" lon="17.8077104">
        <ele>25.6123</ele>
        <time>2013-04-27T13:47:16Z</time>
      </trkpt>
      <trkpt lat="59.9523606" lon="17.8076234">
        <ele>25.6123</ele>
        <time>2013-04-27T13:47:17Z</time>
      </trkpt>
      <trkpt lat="59.9523824" lon="17.8075363">
        <ele>26.0929</ele>
        <time>2013-04-27T13:47:18Z</time>
      </trkpt>
      <trkpt lat="59.9524046" lon="17.8074512">
        <ele>26.0929</ele>
        <time>2013-04-27T13:47:19Z</time>
      </trkpt>
      <trkpt lat="59.9524258" lon="17.8073701">
        <ele>26.0929</ele>
        <time>2013-04-27T13:47:20Z</time>
      </trkpt>
      <trkpt lat="59.9524471" lon="17.8072912">
        <ele>26.0929</ele>
        <time>2013-04-27T13:47:21Z</time>
      </trkpt>
      <trkpt lat="59.9524678" lon="17.8072079">
        <ele>26.5736</ele>
        <time>2013-04-27T13:47:22Z</time>
      </trkpt>
      <trkpt lat="59.9524886" lon="17.8071225">
        <ele>26.5736</ele>
        <time>2013-04-27T13:47:23Z</time>
      </trkpt>
      <trkpt lat="59.9525085" lon="17.8070374">
        <ele>26.5736</ele>
        <time>2013-04-27T13:47:24Z</time>
      </trkpt>
      <trkpt lat="59.9525264" lon="17.8069524">
        <ele>26.5736</ele>
        <time>2013-04-27T13:47:25Z</time>
      </trkpt>
      <trkpt lat="59.9525455" lon="17.8068679">
        <ele>26.5736</ele>
        <time>2013-04-27T13:47:26Z</time>
      </trkpt>
      <trkpt lat="59.9525635" lon="17.8067859">
        <ele>26.5736</ele>
        <time>2013-04-27T13:47:27Z</time>
      </trkpt>
      <trkpt lat="59.9525793" lon="17.8067021">
        <ele>26.0929</ele>
        <time>2013-04-27T13:47:28Z</time>
      </trkpt>
      <trkpt lat="59.9525937" lon="17.8066153">
        <ele>25.6123</ele>
        <time>2013-04-27T13:47:29Z</time>
      </trkpt>
      <trkpt lat="59.9526091" lon="17.8065281">
        <ele>25.6123</ele>
        <time>2013-04-27T13:47:30Z</time>
      </trkpt>
      <trkpt lat="59.9526272" lon="17.806439">
        <ele>25.1317</ele>
        <time>2013-04-27T13:47:31Z</time>
      </trkpt>
      <trkpt lat="59.9526456" lon="17.8063491">
        <ele>25.1317</ele>
        <time>2013-04-27T13:47:32Z</time>
      </trkpt>
      <trkpt lat="59.952666" lon="17.8062572">
        <ele>24.651</ele>
        <time>2013-04-27T13:47:33Z</time>
      </trkpt>
      <trkpt lat="59.9526854" lon="17.8061567">
        <ele>24.651</ele>
        <time>2013-04-27T13:47:34Z</time>
      </trkpt>
      <trkpt lat="59.9527015" lon="17.8060511">
        <ele>24.1703</ele>
        <time>2013-04-27T13:47:35Z</time>
      </trkpt>
      <trkpt lat="59.9527155" lon="17.8059469">
        <ele>24.1703</ele>
        <time>2013-04-27T13:47:36Z</time>
      </trkpt>
      <trkpt lat="59.9527279" lon="17.8058408">
        <ele>23.6896</ele>
        <time>2013-04-27T13:47:37Z</time>
      </trkpt>
      <trkpt lat="59.9527429" lon="17.8057368">
        <ele>24.1703</ele>
        <time>2013-04-27T13:47:38Z</time>
      </trkpt>
      <trkpt lat="59.9527548" lon="17.8056311">
        <ele>24.1703</ele>
        <time>2013-04-27T13:47:39Z</time>
      </trkpt>
      <trkpt lat="59.952764" lon="17.8055238">
        <ele>24.1703</ele>
        <time>2013-04-27T13:47:40Z</time>
      </trkpt>
      <trkpt lat="59.9527744" lon="17.805418">
        <ele>24.651</ele>
        <time>2013-04-27T13:47:41Z</time>
      </trkpt>
      <trkpt lat="59.9527864" lon="17.8053146">
        <ele>24.651</ele>
        <time>2013-04-27T13:47:42Z</time>
      </trkpt>
      <trkpt lat="59.9527971" lon="17.8052094">
        <ele>24.1703</ele>
        <time>2013-04-27T13:47:43Z</time>
      </trkpt>
      <trkpt lat="59.9528078" lon="17.8051048">
        <ele>24.1703</ele>
        <time>2013-04-27T13:47:44Z</time>
      </trkpt>
      <trkpt lat="59.9528185" lon="17.804999">
        <ele>24.1703</ele>
        <time>2013-04-27T13:47:45Z</time>
      </trkpt>
      <trkpt lat="59.9528294" lon="17.8048929">
        <ele>24.1703</ele>
        <time>2013-04-27T13:47:46Z</time>
      </trkpt>
      <trkpt lat="59.9528391" lon="17.804786">
        <ele>24.1703</ele>
        <time>2013-04-27T13:47:47Z</time>
      </trkpt>
      <trkpt lat="59.9528556" lon="17.8046827">
        <ele>24.1703</ele>
        <time>2013-04-27T13:47:48Z</time>
      </trkpt>
      <trkpt lat="59.9528755" lon="17.804579">
        <ele>24.651</ele>
        <time>2013-04-27T13:47:49Z</time>
      </trkpt>
      <trkpt lat="59.9529003" lon="17.8044817">
        <ele>24.651</ele>
        <time>2013-04-27T13:47:50Z</time>
      </trkpt>
      <trkpt lat="59.9529292" lon="17.8043931">
        <ele>24.651</ele>
        <time>2013-04-27T13:47:51Z</time>
      </trkpt>
      <trkpt lat="59.9529615" lon="17.80431">
        <ele>25.1317</ele>
        <time>2013-04-27T13:47:52Z</time>
      </trkpt>
      <trkpt lat="59.9529936" lon="17.804232">
        <ele>25.1317</ele>
        <time>2013-04-27T13:47:53Z</time>
      </trkpt>
      <trkpt lat="59.9530283" lon="17.8041604">
        <ele>25.1317</ele>
        <time>2013-04-27T13:47:54Z</time>
      </trkpt>
      <trkpt lat="59.9530651" lon="17.8040909">
        <ele>25.6123</ele>
        <time>2013-04-27T13:47:55Z</time>
      </trkpt>
      <trkpt lat="59.953102" lon="17.8040206">
        <ele>26.0929</ele>
        <time>2013-04-27T13:47:56Z</time>
      </trkpt>
      <trkpt lat="59.9531371" lon="17.8039543">
        <ele>27.0543</ele>
        <time>2013-04-27T13:47:57Z</time>
      </trkpt>
      <trkpt lat="59.9531709" lon="17.8038881">
        <ele>27.5349</ele>
        <time>2013-04-27T13:47:58Z</time>
      </trkpt>
      <trkpt lat="59.9532074" lon="17.8038237">
        <ele>28.0155</ele>
        <time>2013-04-27T13:47:59Z</time>
      </trkpt>
      <trkpt lat="59.9532416" lon="17.8037533">
        <ele>28.4962</ele>
        <time>2013-04-27T13:48:00Z</time>
      </trkpt>
      <trkpt lat="59.9532743" lon="17.8036777">
        <ele>28.4962</ele>
        <time>2013-04-27T13:48:01Z</time>
      </trkpt>
      <trkpt lat="59.9533034" lon="17.8035953">
        <ele>28.9769</ele>
        <time>2013-04-27T13:48:02Z</time>
      </trkpt>
      <trkpt lat="59.9533324" lon="17.803515">
        <ele>29.4575</ele>
        <time>2013-04-27T13:48:03Z</time>
      </trkpt>
      <trkpt lat="59.9533605" lon="17.803431">
        <ele>29.4575</ele>
        <time>2013-04-27T13:48:04Z</time>
      </trkpt>
      <trkpt lat="59.9533909" lon="17.803348">
        <ele>28.9769</ele>
        <time>2013-04-27T13:48:05Z</time>
      </trkpt>
      <trkpt lat="59.9534223" lon="17.8032622">
        <ele>29.4575</ele>
        <time>2013-04-27T13:48:06Z</time>
      </trkpt>
      <trkpt lat="59.953454" lon="17.8031729">
        <ele>30.4188</ele>
        <time>2013-04-27T13:48:07Z</time>
      </trkpt>
      <trkpt lat="59.9534832" lon="17.8030824">
        <ele>30.8995</ele>
        <time>2013-04-27T13:48:08Z</time>
      </trkpt>
      <trkpt lat="59.9535085" lon="17.8029877">
        <ele>30.8995</ele>
        <time>2013-04-27T13:48:09Z</time>
      </trkpt>
      <trkpt lat="59.9535332" lon="17.8028896">
        <ele>30.8995</ele>
        <time>2013-04-27T13:48:10Z</time>
      </trkpt>
      <trkpt lat="59.9535578" lon="17.8027867">
        <ele>30.8995</ele>
        <time>2013-04-27T13:48:11Z</time>
      </trkpt>
      <trkpt lat="59.9535801" lon="17.8026803">
        <ele>30.8995</ele>
        <time>2013-04-27T13:48:12Z</time>
      </trkpt>
      <trkpt lat="59.9536007" lon="17.8025718">
        <ele>30.4188</ele>
        <time>2013-04-27T13:48:13Z</time>
      </trkpt>
      <trkpt lat="59.953622" lon="17.8024607">
        <ele>30.4188</ele>
        <time>2013-04-27T13:48:14Z</time>
      </trkpt>
      <trkpt lat="59.9536458" lon="17.8023506">
        <ele>29.9381</ele>
        <time>2013-04-27T13:48:15Z</time>
      </trkpt>
      <trkpt lat="59.9536701" lon="17.8022414">
        <ele>29.4575</ele>
        <time>2013-04-27T13:48:16Z</time>
      </trkpt>
      <trkpt lat="59.9536924" lon="17.8021335">
        <ele>28.9769</ele>
        <time>2013-04-27T13:48:17Z</time>
      </trkpt>
      <trkpt lat="59.9537188" lon="17.802024">
        <ele>28.4962</ele>
        <time>2013-04-27T13:48:18Z</time>
      </trkpt>
      <trkpt lat="59.9537498" lon="17.8019102">
        <ele>28.0155</ele>
        <time>2013-04-27T13:48:19Z</time>
      </trkpt>
      <trkpt lat="59.9537851" lon="17.8018009">
        <ele>27.5349</ele>
        <time>2013-04-27T13:48:20Z</time>
      </trkpt>
      <trkpt lat="59.9538234" lon="17.8016947">
        <ele>27.0543</ele>
        <time>2013-04-27T13:48:21Z</time>
      </trkpt>
      <trkpt lat="59.9538649" lon="17.8015892">
        <ele>27.5349</ele>
        <time>2013-04-27T13:48:22Z</time>
      </trkpt>
      <trkpt lat="59.953908" lon="17.8014839">
        <ele>27.0543</ele>
        <time>2013-04-27T13:48:23Z</time>
      </trkpt>
      <trkpt lat="59.9539515" lon="17.8013761">
        <ele>27.0543</ele>
        <time>2013-04-27T13:48:24Z</time>
      </trkpt>
      <trkpt lat="59.9539954" lon="17.8012651">
        <ele>26.5736</ele>
        <time>2013-04-27T13:48:25Z</time>
      </trkpt>
      <trkpt lat="59.954039" lon="17.8011493">
        <ele>26.0929</ele>
        <time>2013-04-27T13:48:26Z</time>
      </trkpt>
      <trkpt lat="59.9540828" lon="17.8010327">
        <ele>26.0929</ele>
        <time>2013-04-27T13:48:27Z</time>
      </trkpt>
      <trkpt lat="59.9541279" lon="17.8009171">
        <ele>26.0929</ele>
        <time>2013-04-27T13:48:28Z</time>
      </trkpt>
      <trkpt lat="59.9541758" lon="17.8008053">
        <ele>26.0929</ele>
        <time>2013-04-27T13:48:29Z</time>
      </trkpt>
      <trkpt lat="59.9542242" lon="17.800695">
        <ele>25.6123</ele>
        <time>2013-04-27T13:48:30Z</time>
      </trkpt>
      <trkpt lat="59.9542742" lon="17.8005862">
        <ele>25.6123</ele>
        <time>2013-04-27T13:48:31Z</time>
      </trkpt>
      <trkpt lat="59.9543226" lon="17.8004757">
        <ele>25.6123</ele>
        <time>2013-04-27T13:48:32Z</time>
      </trkpt>
      <trkpt lat="59.9543679" lon="17.8003618">
        <ele>25.1317</ele>
        <time>2013-04-27T13:48:33Z</time>
      </trkpt>
      <trkpt lat="59.9544159" lon="17.8002521">
        <ele>25.1317</ele>
        <time>2013-04-27T13:48:34Z</time>
      </trkpt>
      <trkpt lat="59.9544622" lon="17.8001418">
        <ele>25.1317</ele>
        <time>2013-04-27T13:48:35Z</time>
      </trkpt>
      <trkpt lat="59.9545052" lon="17.8000226">
        <ele>24.651</ele>
        <time>2013-04-27T13:48:36Z</time>
      </trkpt>
      <trkpt lat="59.9545497" lon="17.7999059">
        <ele>24.651</ele>
        <time>2013-04-27T13:48:37Z</time>
      </trkpt>
      <trkpt lat="59.9545973" lon="17.799794">
        <ele>24.651</ele>
        <time>2013-04-27T13:48:38Z</time>
      </trkpt>
      <trkpt lat="59.9546444" lon="17.7996832">
        <ele>24.651</ele>
        <time>2013-04-27T13:48:39Z</time>
      </trkpt>
      <trkpt lat="59.9546941" lon="17.7995764">
        <ele>25.6123</ele>
        <time>2013-04-27T13:48:40Z</time>
      </trkpt>
      <trkpt lat="59.9547398" lon="17.799473">
        <ele>26.0929</ele>
        <time>2013-04-27T13:48:41Z</time>
      </trkpt>
      <trkpt lat="59.9547865" lon="17.7993786">
        <ele>26.5736</ele>
        <time>2013-04-27T13:48:42Z</time>
      </trkpt>
      <trkpt lat="59.9548305" lon="17.7992885">
        <ele>26.0929</ele>
        <time>2013-04-27T13:48:43Z</time>
      </trkpt>
      <trkpt lat="59.9548736" lon="17.7992039">
        <ele>25.6123</ele>
        <time>2013-04-27T13:48:44Z</time>
      </trkpt>
      <trkpt lat="59.9549165" lon="17.7991227">
        <ele>25.1317</ele>
        <time>2013-04-27T13:48:45Z</time>
      </trkpt>
      <trkpt lat="59.9549583" lon="17.799041">
        <ele>25.1317</ele>
        <time>2013-04-27T13:48:46Z</time>
      </trkpt>
      <trkpt lat="59.9549994" lon="17.7989591">
        <ele>25.1317</ele>
        <time>2013-04-27T13:48:47Z</time>
      </trkpt>
      <trkpt lat="59.9550403" lon="17.798876">
        <ele>24.651</ele>
        <time>2013-04-27T13:48:48Z</time>
      </trkpt>
      <trkpt lat="59.9550801" lon="17.7987906">
        <ele>24.1703</ele>
        <time>2013-04-27T13:48:49Z</time>
      </trkpt>
      <trkpt lat="59.9551195" lon="17.798702">
        <ele>23.6896</ele>
        <time>2013-04-27T13:48:50Z</time>
      </trkpt>
      <trkpt lat="59.9551592" lon="17.7986095">
        <ele>23.6896</ele>
        <time>2013-04-27T13:48:51Z</time>
      </trkpt>
      <trkpt lat="59.9551983" lon="17.7985129">
        <ele>23.209</ele>
        <time>2013-04-27T13:48:52Z</time>
      </trkpt>
      <trkpt lat="59.9552366" lon="17.7984125">
        <ele>22.7283</ele>
        <time>2013-04-27T13:48:53Z</time>
      </trkpt>
      <trkpt lat="59.9552739" lon="17.798307">
        <ele>22.7283</ele>
        <time>2013-04-27T13:48:54Z</time>
      </trkpt>
      <trkpt lat="59.9553105" lon="17.7981981">
        <ele>22.2476</ele>
        <time>2013-04-27T13:48:55Z</time>
      </trkpt>
      <trkpt lat="59.9553457" lon="17.7980859">
        <ele>22.2476</ele>
        <time>2013-04-27T13:48:56Z</time>
      </trkpt>
      <trkpt lat="59.9553791" lon="17.7979717">
        <ele>21.767</ele>
        <time>2013-04-27T13:48:57Z</time>
      </trkpt>
      <trkpt lat="59.9554121" lon="17.7978558">
        <ele>21.767</ele>
        <time>2013-04-27T13:48:58Z</time>
      </trkpt>
      <trkpt lat="59.9554457" lon="17.79774">
        <ele>21.767</ele>
        <time>2013-04-27T13:48:59Z</time>
      </trkpt>
      <trkpt lat="59.9554802" lon="17.7976251">
        <ele>21.2864</ele>
        <time>2013-04-27T13:49:00Z</time>
      </trkpt>
      <trkpt lat="59.9555151" lon="17.79751">
        <ele>21.2864</ele>
        <time>2013-04-27T13:49:01Z</time>
      </trkpt>
      <trkpt lat="59.9555494" lon="17.7973927">
        <ele>20.8057</ele>
        <time>2013-04-27T13:49:02Z</time>
      </trkpt>
      <trkpt lat="59.9555831" lon="17.7972749">
        <ele>20.8057</ele>
        <time>2013-04-27T13:49:03Z</time>
      </trkpt>
      <trkpt lat="59.9556169" lon="17.7971575">
        <ele>20.8057</ele>
        <time>2013-04-27T13:49:04Z</time>
      </trkpt>
      <trkpt lat="59.9556493" lon="17.7970382">
        <ele>20.8057</ele>
        <time>2013-04-27T13:49:05Z</time>
      </trkpt>
      <trkpt lat="59.9556786" lon="17.7969151">
        <ele>20.325</ele>
        <time>2013-04-27T13:49:06Z</time>
      </trkpt>
      <trkpt lat="59.9557064" lon="17.7967909">
        <ele>20.325</ele>
        <time>2013-04-27T13:49:07Z</time>
      </trkpt>
      <trkpt lat="59.9557326" lon="17.7966648">
        <ele>20.325</ele>
        <time>2013-04-27T13:49:08Z</time>
      </trkpt>
      <trkpt lat="59.9557568" lon="17.7965385">
        <ele>20.325</ele>
        <time>2013-04-27T13:49:09Z</time>
      </trkpt>
      <trkpt lat="59.9557799" lon="17.7964129">
        <ele>20.8057</ele>
        <time>2013-04-27T13:49:10Z</time>
      </trkpt>
      <trkpt lat="59.9558016" lon="17.7962881">
        <ele>20.8057</ele>
        <time>2013-04-27T13:49:11Z</time>
      </trkpt>
      <trkpt lat="59.9558213" lon="17.796163">
        <ele>20.8057</ele>
        <time>2013-04-27T13:49:12Z</time>
      </trkpt>
      <trkpt lat="59.9558394" lon="17.7960387">
        <ele>20.8057</ele>
        <time>2013-04-27T13:49:13Z</time>
      </trkpt>
      <trkpt lat="59.9558598" lon="17.7959162">
        <ele>21.2864</ele>
        <time>2013-04-27T13:49:14Z</time>
      </trkpt>
      <trkpt lat="59.9558805" lon="17.7957923">
        <ele>21.2864</ele>
        <time>2013-04-27T13:49:15Z</time>
      </trkpt>
      <trkpt lat="59.9559034" lon="17.7956699">
        <ele>21.767</ele>
        <time>2013-04-27T13:49:16Z</time>
      </trkpt>
      <trkpt lat="59.955927" lon="17.7955491">
        <ele>21.767</ele>
        <time>2013-04-27T13:49:17Z</time>
      </trkpt>
      <trkpt lat="59.9559503" lon="17.7954276">
        <ele>21.767</ele>
        <time>2013-04-27T13:49:18Z</time>
      </trkpt>
      <trkpt lat="59.9559759" lon="17.7953076">
        <ele>22.2476</ele>
        <time>2013-04-27T13:49:19Z</time>
      </trkpt>
      <trkpt lat="59.9560038" lon="17.7951902">
        <ele>22.2476</ele>
        <time>2013-04-27T13:49:20Z</time>
      </trkpt>
      <trkpt lat="59.9560324" lon="17.795073">
        <ele>22.2476</ele>
        <time>2013-04-27T13:49:21Z</time>
      </trkpt>
      <trkpt lat="59.9560616" lon="17.7949564">
        <ele>22.2476</ele>
        <time>2013-04-27T13:49:22Z</time>
      </trkpt>
      <trkpt lat="59.9560914" lon="17.7948421">
        <ele>22.2476</ele>
        <time>2013-04-27T13:49:23Z</time>
      </trkpt>
      <trkpt lat="59.9561213" lon="17.7947281">
        <ele>22.7283</ele>
        <time>2013-04-27T13:49:24Z</time>
      </trkpt>
      <trkpt lat="59.9561477" lon="17.7946105">
        <ele>22.7283</ele>
        <time>2013-04-27T13:49:25Z</time>
      </trkpt>
      <trkpt lat="59.9561738" lon="17.7944958">
        <ele>22.2476</ele>
        <time>2013-04-27T13:49:26Z</time>
      </trkpt>
      <trkpt lat="59.9562004" lon="17.7943845">
        <ele>22.7283</ele>
        <time>2013-04-27T13:49:27Z</time>
      </trkpt>
      <trkpt lat="59.9562248" lon="17.7942763">
        <ele>22.7283</ele>
        <time>2013-04-27T13:49:28Z</time>
      </trkpt>
      <trkpt lat="59.9562477" lon="17.7941716">
        <ele>22.7283</ele>
        <time>2013-04-27T13:49:29Z</time>
      </trkpt>
      <trkpt lat="59.9562698" lon="17.7940685">
        <ele>22.7283</ele>
        <time>2013-04-27T13:49:30Z</time>
      </trkpt>
      <trkpt lat="59.9562907" lon="17.7939658">
        <ele>22.7283</ele>
        <time>2013-04-27T13:49:31Z</time>
      </trkpt>
      <trkpt lat="59.956311" lon="17.7938639">
        <ele>22.7283</ele>
        <time>2013-04-27T13:49:32Z</time>
      </trkpt>
      <trkpt lat="59.9563312" lon="17.7937633">
        <ele>22.7283</ele>
        <time>2013-04-27T13:49:33Z</time>
      </trkpt>
      <trkpt lat="59.9563517" lon="17.7936639">
        <ele>22.7283</ele>
        <time>2013-04-27T13:49:34Z</time>
      </trkpt>
      <trkpt lat="59.9563724" lon="17.7935651">
        <ele>22.7283</ele>
        <time>2013-04-27T13:49:35Z</time>
      </trkpt>
      <trkpt lat="59.9563926" lon="17.7934662">
        <ele>22.7283</ele>
        <time>2013-04-27T13:49:36Z</time>
      </trkpt>
      <trkpt lat="59.9564121" lon="17.7933672">
        <ele>22.7283</ele>
        <time>2013-04-27T13:49:37Z</time>
      </trkpt>
      <trkpt lat="59.956431" lon="17.7932679">
        <ele>23.209</ele>
        <time>2013-04-27T13:49:38Z</time>
      </trkpt>
      <trkpt lat="59.9564504" lon="17.7931683">
        <ele>23.209</ele>
        <time>2013-04-27T13:49:39Z</time>
      </trkpt>
      <trkpt lat="59.9564715" lon="17.7930664">
        <ele>23.209</ele>
        <time>2013-04-27T13:49:40Z</time>
      </trkpt>
      <trkpt lat="59.9564938" lon="17.7929617">
        <ele>23.6896</ele>
        <time>2013-04-27T13:49:41Z</time>
      </trkpt>
      <trkpt lat="59.956515" lon="17.7928557">
        <ele>24.1703</ele>
        <time>2013-04-27T13:49:42Z</time>
      </trkpt>
      <trkpt lat="59.9565368" lon="17.7927473">
        <ele>24.651</ele>
        <time>2013-04-27T13:49:43Z</time>
      </trkpt>
      <trkpt lat="59.9565563" lon="17.7926353">
        <ele>25.1317</ele>
        <time>2013-04-27T13:49:44Z</time>
      </trkpt>
      <trkpt lat="59.9565756" lon="17.7925218">
        <ele>25.1317</ele>
        <time>2013-04-27T13:49:45Z</time>
      </trkpt>
      <trkpt lat="59.9565963" lon="17.7924077">
        <ele>25.6123</ele>
        <time>2013-04-27T13:49:46Z</time>
      </trkpt>
      <trkpt lat="59.9566171" lon="17.7922922">
        <ele>26.0929</ele>
        <time>2013-04-27T13:49:47Z</time>
      </trkpt>
      <trkpt lat="59.9566388" lon="17.7921761">
        <ele>26.5736</ele>
        <time>2013-04-27T13:49:48Z</time>
      </trkpt>
      <trkpt lat="59.9566596" lon="17.7920578">
        <ele>27.0543</ele>
        <time>2013-04-27T13:49:49Z</time>
      </trkpt>
      <trkpt lat="59.9566802" lon="17.7919378">
        <ele>27.0543</ele>
        <time>2013-04-27T13:49:50Z</time>
      </trkpt>
      <trkpt lat="59.9567009" lon="17.7918166">
        <ele>27.5349</ele>
        <time>2013-04-27T13:49:51Z</time>
      </trkpt>
      <trkpt lat="59.9567207" lon="17.7916934">
        <ele>27.5349</ele>
        <time>2013-04-27T13:49:52Z</time>
      </trkpt>
      <trkpt lat="59.9567398" lon="17.7915702">
        <ele>27.5349</ele>
        <time>2013-04-27T13:49:53Z</time>
      </trkpt>
      <trkpt lat="59.9567575" lon="17.7914484">
        <ele>28.4962</ele>
        <time>2013-04-27T13:49:54Z</time>
      </trkpt>
      <trkpt lat="59.9567673" lon="17.7913274">
        <ele>28.9769</ele>
        <time>2013-04-27T13:49:55Z</time>
      </trkpt>
      <trkpt lat="59.9567666" lon="17.791208">
        <ele>28.9769</ele>
        <time>2013-04-27T13:49:56Z</time>
      </trkpt>
      <trkpt lat="59.9567548" lon="17.7910859">
        <ele>29.4575</ele>
        <time>2013-04-27T13:49:57Z</time>
      </trkpt>
      <trkpt lat="59.9567373" lon="17.7909637">
        <ele>28.9769</ele>
        <time>2013-04-27T13:49:58Z</time>
      </trkpt>
      <trkpt lat="59.9567179" lon="17.7908431">
        <ele>28.9769</ele>
        <time>2013-04-27T13:49:59Z</time>
      </trkpt>
      <trkpt lat="59.9566952" lon="17.7907161">
        <ele>28.9769</ele>
        <time>2013-04-27T13:50:00Z</time>
      </trkpt>
      <trkpt lat="59.9566737" lon="17.7905881">
        <ele>28.9769</ele>
        <time>2013-04-27T13:50:01Z</time>
      </trkpt>
      <trkpt lat="59.9566487" lon="17.7904559">
        <ele>28.9769</ele>
        <time>2013-04-27T13:50:02Z</time>
      </trkpt>
      <trkpt lat="59.9566184" lon="17.7903124">
        <ele>29.4575</ele>
        <time>2013-04-27T13:50:03Z</time>
      </trkpt>
      <trkpt lat="59.956587" lon="17.7901624">
        <ele>28.9769</ele>
        <time>2013-04-27T13:50:04Z</time>
      </trkpt>
      <trkpt lat="59.9565756" lon="17.790009">
        <ele>28.9769</ele>
        <time>2013-04-27T13:50:05Z</time>
      </trkpt>
      <trkpt lat="59.9565789" lon="17.7898602">
        <ele>28.4962</ele>
        <time>2013-04-27T13:50:06Z</time>
      </trkpt>
      <trkpt lat="59.9566" lon="17.7897297">
        <ele>28.0155</ele>
        <time>2013-04-27T13:50:07Z</time>
      </trkpt>
      <trkpt lat="59.9566337" lon="17.789613">
        <ele>27.5349</ele>
        <time>2013-04-27T13:50:08Z</time>
      </trkpt>
      <trkpt lat="59.956683" lon="17.7895292">
        <ele>27.0543</ele>
        <time>2013-04-27T13:50:09Z</time>
      </trkpt>
      <trkpt lat="59.9567404" lon="17.789461">
        <ele>26.5736</ele>
        <time>2013-04-27T13:50:10Z</time>
      </trkpt>
      <trkpt lat="59.9567994" lon="17.7894034">
        <ele>26.5736</ele>
        <time>2013-04-27T13:50:11Z</time>
      </trkpt>
      <trkpt lat="59.9568497" lon="17.789335">
        <ele>26.0929</ele>
        <time>2013-04-27T13:50:12Z</time>
      </trkpt>
      <trkpt lat="59.9569015" lon="17.7892692">
        <ele>26.0929</ele>
        <time>2013-04-27T13:50:13Z</time>
      </trkpt>
      <trkpt lat="59.9569538" lon="17.789211">
        <ele>26.0929</ele>
        <time>2013-04-27T13:50:14Z</time>
      </trkpt>
      <trkpt lat="59.9570056" lon="17.7891516">
        <ele>25.6123</ele>
        <time>2013-04-27T13:50:15Z</time>
      </trkpt>
      <trkpt lat="59.9570539" lon="17.7890821">
        <ele>25.6123</ele>
        <time>2013-04-27T13:50:16Z</time>
      </trkpt>
      <trkpt lat="59.9570997" lon="17.7890062">
        <ele>25.6123</ele>
        <time>2013-04-27T13:50:17Z</time>
      </trkpt>
      <trkpt lat="59.9571416" lon="17.7889238">
        <ele>25.6123</ele>
        <time>2013-04-27T13:50:18Z</time>
      </trkpt>
      <trkpt lat="59.9571789" lon="17.7888314">
        <ele>25.6123</ele>
        <time>2013-04-27T13:50:19Z</time>
      </trkpt>
      <trkpt lat="59.957214" lon="17.7887373">
        <ele>25.6123</ele>
        <time>2013-04-27T13:50:20Z</time>
      </trkpt>
      <trkpt lat="59.957249" lon="17.7886456">
        <ele>25.6123</ele>
        <time>2013-04-27T13:50:21Z</time>
      </trkpt>
      <trkpt lat="59.9572822" lon="17.7885538">
        <ele>25.6123</ele>
        <time>2013-04-27T13:50:22Z</time>
      </trkpt>
      <trkpt lat="59.9573132" lon="17.7884595">
        <ele>25.6123</ele>
        <time>2013-04-27T13:50:23Z</time>
      </trkpt>
      <trkpt lat="59.9573426" lon="17.7883643">
        <ele>25.6123</ele>
        <time>2013-04-27T13:50:24Z</time>
      </trkpt>
      <trkpt lat="59.9573724" lon="17.788269">
        <ele>25.6123</ele>
        <time>2013-04-27T13:50:25Z</time>
      </trkpt>
      <trkpt lat="59.9574014" lon="17.7881688">
        <ele>25.1317</ele>
        <time>2013-04-27T13:50:26Z</time>
      </trkpt>
      <trkpt lat="59.9574302" lon="17.7880641">
        <ele>25.1317</ele>
        <time>2013-04-27T13:50:27Z</time>
      </trkpt>
      <trkpt lat="59.9574609" lon="17.7879587">
        <ele>25.1317</ele>
        <time>2013-04-27T13:50:28Z</time>
      </trkpt>
      <trkpt lat="59.9574919" lon="17.7878503">
        <ele>25.1317</ele>
        <time>2013-04-27T13:50:29Z</time>
      </trkpt>
      <trkpt lat="59.9575226" lon="17.787739">
        <ele>25.1317</ele>
        <time>2013-04-27T13:50:30Z</time>
      </trkpt>
      <trkpt lat="59.9575521" lon="17.7876261">
        <ele>25.1317</ele>
        <time>2013-04-27T13:50:31Z</time>
      </trkpt>
      <trkpt lat="59.9575784" lon="17.7875106">
        <ele>25.1317</ele>
        <time>2013-04-27T13:50:32Z</time>
      </trkpt>
      <trkpt lat="59.9576003" lon="17.787392">
        <ele>25.1317</ele>
        <time>2013-04-27T13:50:33Z</time>
      </trkpt>
      <trkpt lat="59.9576229" lon="17.7872821">
        <ele>25.1317</ele>
        <time>2013-04-27T13:50:34Z</time>
      </trkpt>
      <trkpt lat="59.9576444" lon="17.7871768">
        <ele>25.1317</ele>
        <time>2013-04-27T13:50:35Z</time>
      </trkpt>
      <trkpt lat="59.9576659" lon="17.7870727">
        <ele>25.1317</ele>
        <time>2013-04-27T13:50:36Z</time>
      </trkpt>
      <trkpt lat="59.9576894" lon="17.7869682">
        <ele>25.1317</ele>
        <time>2013-04-27T13:50:37Z</time>
      </trkpt>
      <trkpt lat="59.9577183" lon="17.7868667">
        <ele>25.1317</ele>
        <time>2013-04-27T13:50:38Z</time>
      </trkpt>
      <trkpt lat="59.957751" lon="17.7867671">
        <ele>24.651</ele>
        <time>2013-04-27T13:50:39Z</time>
      </trkpt>
      <trkpt lat="59.9577917" lon="17.7866725">
        <ele>25.1317</ele>
        <time>2013-04-27T13:50:40Z</time>
      </trkpt>
      <trkpt lat="59.957838" lon="17.7865865">
        <ele>25.1317</ele>
        <time>2013-04-27T13:50:41Z</time>
      </trkpt>
      <trkpt lat="59.9578879" lon="17.7865081">
        <ele>24.651</ele>
        <time>2013-04-27T13:50:42Z</time>
      </trkpt>
      <trkpt lat="59.9579425" lon="17.7864351">
        <ele>25.1317</ele>
        <time>2013-04-27T13:50:43Z</time>
      </trkpt>
      <trkpt lat="59.9579986" lon="17.7863684">
        <ele>25.1317</ele>
        <time>2013-04-27T13:50:44Z</time>
      </trkpt>
      <trkpt lat="59.9580559" lon="17.786303">
        <ele>25.6123</ele>
        <time>2013-04-27T13:50:45Z</time>
      </trkpt>
      <trkpt lat="59.9581125" lon="17.7862384">
        <ele>25.6123</ele>
        <time>2013-04-27T13:50:46Z</time>
      </trkpt>
      <trkpt lat="59.9581679" lon="17.7861768">
        <ele>25.6123</ele>
        <time>2013-04-27T13:50:47Z</time>
      </trkpt>
      <trkpt lat="59.9582224" lon="17.7861175">
        <ele>25.6123</ele>
        <time>2013-04-27T13:50:48Z</time>
      </trkpt>
      <trkpt lat="59.9582777" lon="17.7860612">
        <ele>25.6123</ele>
        <time>2013-04-27T13:50:49Z</time>
      </trkpt>
      <trkpt lat="59.9583326" lon="17.7860047">
        <ele>25.6123</ele>
        <time>2013-04-27T13:50:50Z</time>
      </trkpt>
      <trkpt lat="59.9583862" lon="17.7859517">
        <ele>26.0929</ele>
        <time>2013-04-27T13:50:51Z</time>
      </trkpt>
      <trkpt lat="59.9584384" lon="17.785896">
        <ele>26.0929</ele>
        <time>2013-04-27T13:50:52Z</time>
      </trkpt>
      <trkpt lat="59.9584901" lon="17.7858364">
        <ele>26.5736</ele>
        <time>2013-04-27T13:50:53Z</time>
      </trkpt>
      <trkpt lat="59.9585408" lon="17.7857797">
        <ele>26.5736</ele>
        <time>2013-04-27T13:50:54Z</time>
      </trkpt>
      <trkpt lat="59.9585903" lon="17.7857297">
        <ele>27.0543</ele>
        <time>2013-04-27T13:50:55Z</time>
      </trkpt>
      <trkpt lat="59.9586389" lon="17.7856829">
        <ele>27.0543</ele>
        <time>2013-04-27T13:50:56Z</time>
      </trkpt>
      <trkpt lat="59.9586867" lon="17.7856355">
        <ele>27.0543</ele>
        <time>2013-04-27T13:50:57Z</time>
      </trkpt>
      <trkpt lat="59.9587338" lon="17.7855949">
        <ele>27.0543</ele>
        <time>2013-04-27T13:50:58Z</time>
      </trkpt>
      <trkpt lat="59.9587825" lon="17.785556">
        <ele>27.0543</ele>
        <time>2013-04-27T13:50:59Z</time>
      </trkpt>
      <trkpt lat="59.9588346" lon="17.7855142">
        <ele>27.5349</ele>
        <time>2013-04-27T13:51:00Z</time>
      </trkpt>
      <trkpt lat="59.958887" lon="17.7854741">
        <ele>28.0155</ele>
        <time>2013-04-27T13:51:01Z</time>
      </trkpt>
      <trkpt lat="59.9589407" lon="17.7854309">
        <ele>27.5349</ele>
        <time>2013-04-27T13:51:02Z</time>
      </trkpt>
      <trkpt lat="59.9589957" lon="17.7853846">
        <ele>27.5349</ele>
        <time>2013-04-27T13:51:03Z</time>
      </trkpt>
      <trkpt lat="59.9590507" lon="17.7853371">
        <ele>27.5349</ele>
        <time>2013-04-27T13:51:04Z</time>
      </trkpt>
      <trkpt lat="59.9591051" lon="17.7852894">
        <ele>27.5349</ele>
        <time>2013-04-27T13:51:05Z</time>
      </trkpt>
      <trkpt lat="59.9591585" lon="17.7852428">
        <ele>27.5349</ele>
        <time>2013-04-27T13:51:06Z</time>
      </trkpt>
      <trkpt lat="59.9592095" lon="17.7851944">
        <ele>28.0155</ele>
        <time>2013-04-27T13:51:07Z</time>
      </trkpt>
      <trkpt lat="59.9592577" lon="17.7851438">
        <ele>28.0155</ele>
        <time>2013-04-27T13:51:08Z</time>
      </trkpt>
      <trkpt lat="59.9593025" lon="17.785092">
        <ele>28.4962</ele>
        <time>2013-04-27T13:51:09Z</time>
      </trkpt>
      <trkpt lat="59.9593465" lon="17.7850343">
        <ele>28.0155</ele>
        <time>2013-04-27T13:51:10Z</time>
      </trkpt>
      <trkpt lat="59.9593893" lon="17.7849818">
        <ele>28.0155</ele>
        <time>2013-04-27T13:51:11Z</time>
      </trkpt>
      <trkpt lat="59.9594298" lon="17.7849268">
        <ele>28.0155</ele>
        <time>2013-04-27T13:51:12Z</time>
      </trkpt>
      <trkpt lat="59.9594688" lon="17.7848667">
        <ele>28.0155</ele>
        <time>2013-04-27T13:51:13Z</time>
      </trkpt>
      <trkpt lat="59.9595076" lon="17.7848057">
        <ele>28.0155</ele>
        <time>2013-04-27T13:51:14Z</time>
      </trkpt>
      <trkpt lat="59.9595459" lon="17.7847468">
        <ele>28.0155</ele>
        <time>2013-04-27T13:51:15Z</time>
      </trkpt>
      <trkpt lat="59.9595849" lon="17.7846828">
        <ele>28.0155</ele>
        <time>2013-04-27T13:51:16Z</time>
      </trkpt>
      <trkpt lat="59.9596231" lon="17.784617">
        <ele>28.0155</ele>
        <time>2013-04-27T13:51:17Z</time>
      </trkpt>
      <trkpt lat="59.9596628" lon="17.7845541">
        <ele>28.0155</ele>
        <time>2013-04-27T13:51:18Z</time>
      </trkpt>
      <trkpt lat="59.9597029" lon="17.7844896">
        <ele>28.4962</ele>
        <time>2013-04-27T13:51:19Z</time>
      </trkpt>
      <trkpt lat="59.9597428" lon="17.7844217">
        <ele>28.4962</ele>
        <time>2013-04-27T13:51:20Z</time>
      </trkpt>
      <trkpt lat="59.9597822" lon="17.7843502">
        <ele>28.4962</ele>
        <time>2013-04-27T13:51:21Z</time>
      </trkpt>
      <trkpt lat="59.9598205" lon="17.7842755">
        <ele>28.4962</ele>
        <time>2013-04-27T13:51:22Z</time>
      </trkpt>
      <trkpt lat="59.9598581" lon="17.7841978">
        <ele>28.4962</ele>
        <time>2013-04-27T13:51:23Z</time>
      </trkpt>
      <trkpt lat="59.9598945" lon="17.7841182">
        <ele>28.4962</ele>
        <time>2013-04-27T13:51:24Z</time>
      </trkpt>
      <trkpt lat="59.9599296" lon="17.7840389">
        <ele>28.4962</ele>
        <time>2013-04-27T13:51:25Z</time>
      </trkpt>
      <trkpt lat="59.9599641" lon="17.7839577">
        <ele>28.0155</ele>
        <time>2013-04-27T13:51:26Z</time>
      </trkpt>
      <trkpt lat="59.9599983" lon="17.7838743">
        <ele>28.0155</ele>
        <time>2013-04-27T13:51:27Z</time>
      </trkpt>
      <trkpt lat="59.9600309" lon="17.7837877">
        <ele>28.0155</ele>
        <time>2013-04-27T13:51:28Z</time>
      </trkpt>
      <trkpt lat="59.9600629" lon="17.7836985">
        <ele>28.0155</ele>
        <time>2013-04-27T13:51:29Z</time>
      </trkpt>
      <trkpt lat="59.9600946" lon="17.783608">
        <ele>28.0155</ele>
        <time>2013-04-27T13:51:30Z</time>
      </trkpt>
      <trkpt lat="59.960127" lon="17.7835171">
        <ele>28.0155</ele>
        <time>2013-04-27T13:51:31Z</time>
      </trkpt>
      <trkpt lat="59.9601614" lon="17.7834274">
        <ele>28.4962</ele>
        <time>2013-04-27T13:51:32Z</time>
      </trkpt>
      <trkpt lat="59.9601953" lon="17.7833373">
        <ele>28.9769</ele>
        <time>2013-04-27T13:51:33Z</time>
      </trkpt>
      <trkpt lat="59.9602292" lon="17.7832479">
        <ele>29.4575</ele>
        <time>2013-04-27T13:51:34Z</time>
      </trkpt>
      <trkpt lat="59.9602599" lon="17.7831567">
        <ele>29.4575</ele>
        <time>2013-04-27T13:51:35Z</time>
      </trkpt>
      <trkpt lat="59.9602882" lon="17.7830609">
        <ele>29.4575</ele>
        <time>2013-04-27T13:51:36Z</time>
      </trkpt>
      <trkpt lat="59.9603166" lon="17.782964">
        <ele>29.4575</ele>
        <time>2013-04-27T13:51:37Z</time>
      </trkpt>
      <trkpt lat="59.9603448" lon="17.7828677">
        <ele>29.9381</ele>
        <time>2013-04-27T13:51:38Z</time>
      </trkpt>
      <trkpt lat="59.9604013" lon="17.7826755">
        <ele>29.4575</ele>
        <time>2013-04-27T13:51:40Z</time>
      </trkpt>
      <trkpt lat="59.960432" lon="17.7825826">
        <ele>29.9381</ele>
        <time>2013-04-27T13:51:41Z</time>
      </trkpt>
      <trkpt lat="59.9604628" lon="17.7824904">
        <ele>29.9381</ele>
        <time>2013-04-27T13:51:42Z</time>
      </trkpt>
      <trkpt lat="59.9604926" lon="17.7823962">
        <ele>29.9381</ele>
        <time>2013-04-27T13:51:43Z</time>
      </trkpt>
      <trkpt lat="59.960523" lon="17.7823025">
        <ele>30.8995</ele>
        <time>2013-04-27T13:51:44Z</time>
      </trkpt>
      <trkpt lat="59.9605566" lon="17.7822125">
        <ele>31.3801</ele>
        <time>2013-04-27T13:51:45Z</time>
      </trkpt>
      <trkpt lat="59.9605964" lon="17.7821273">
        <ele>32.3416</ele>
        <time>2013-04-27T13:51:46Z</time>
      </trkpt>
      <trkpt lat="59.9606388" lon="17.782044">
        <ele>32.8223</ele>
        <time>2013-04-27T13:51:47Z</time>
      </trkpt>
      <trkpt lat="59.9606835" lon="17.781962">
        <ele>32.8223</ele>
        <time>2013-04-27T13:51:48Z</time>
      </trkpt>
      <trkpt lat="59.9607264" lon="17.7818768">
        <ele>32.8223</ele>
        <time>2013-04-27T13:51:49Z</time>
      </trkpt>
      <trkpt lat="59.960768" lon="17.7817912">
        <ele>31.8607</ele>
        <time>2013-04-27T13:51:50Z</time>
      </trkpt>
      <trkpt lat="59.960812" lon="17.7817095">
        <ele>31.8607</ele>
        <time>2013-04-27T13:51:51Z</time>
      </trkpt>
      <trkpt lat="59.9608552" lon="17.7816254">
        <ele>30.8995</ele>
        <time>2013-04-27T13:51:52Z</time>
      </trkpt>
      <trkpt lat="59.9609005" lon="17.7815373">
        <ele>30.4188</ele>
        <time>2013-04-27T13:51:53Z</time>
      </trkpt>
      <trkpt lat="59.9609478" lon="17.7814525">
        <ele>29.9381</ele>
        <time>2013-04-27T13:51:54Z</time>
      </trkpt>
      <trkpt lat="59.9609932" lon="17.7813619">
        <ele>28.9769</ele>
        <time>2013-04-27T13:51:55Z</time>
      </trkpt>
      <trkpt lat="59.9610399" lon="17.7812712">
        <ele>28.4962</ele>
        <time>2013-04-27T13:51:56Z</time>
      </trkpt>
      <trkpt lat="59.961087" lon="17.7811803">
        <ele>28.0155</ele>
        <time>2013-04-27T13:51:57Z</time>
      </trkpt>
      <trkpt lat="59.961133" lon="17.7810904">
        <ele>27.5349</ele>
        <time>2013-04-27T13:51:58Z</time>
      </trkpt>
      <trkpt lat="59.9611771" lon="17.7810053">
        <ele>27.0543</ele>
        <time>2013-04-27T13:51:59Z</time>
      </trkpt>
      <trkpt lat="59.9612207" lon="17.780924">
        <ele>27.0543</ele>
        <time>2013-04-27T13:52:00Z</time>
      </trkpt>
      <trkpt lat="59.9612621" lon="17.7808449">
        <ele>26.5736</ele>
        <time>2013-04-27T13:52:01Z</time>
      </trkpt>
      <trkpt lat="59.961302" lon="17.780769">
        <ele>26.0929</ele>
        <time>2013-04-27T13:52:02Z</time>
      </trkpt>
      <trkpt lat="59.9613391" lon="17.7806965">
        <ele>25.6123</ele>
        <time>2013-04-27T13:52:03Z</time>
      </trkpt>
      <trkpt lat="59.9613753" lon="17.7806287">
        <ele>25.6123</ele>
        <time>2013-04-27T13:52:04Z</time>
      </trkpt>
      <trkpt lat="59.9614109" lon="17.7805646">
        <ele>25.6123</ele>
        <time>2013-04-27T13:52:05Z</time>
      </trkpt>
      <trkpt lat="59.9614497" lon="17.7805002">
        <ele>26.0929</ele>
        <time>2013-04-27T13:52:06Z</time>
      </trkpt>
      <trkpt lat="59.9614879" lon="17.7804318">
        <ele>26.0929</ele>
        <time>2013-04-27T13:52:07Z</time>
      </trkpt>
      <trkpt lat="59.9615262" lon="17.7803584">
        <ele>26.0929</ele>
        <time>2013-04-27T13:52:08Z</time>
      </trkpt>
      <trkpt lat="59.9615642" lon="17.7802833">
        <ele>26.0929</ele>
        <time>2013-04-27T13:52:09Z</time>
      </trkpt>
      <trkpt lat="59.9616028" lon="17.7802031">
        <ele>25.6123</ele>
        <time>2013-04-27T13:52:10Z</time>
      </trkpt>
      <trkpt lat="59.9616413" lon="17.7801189">
        <ele>25.6123</ele>
        <time>2013-04-27T13:52:11Z</time>
      </trkpt>
      <trkpt lat="59.9616796" lon="17.7800324">
        <ele>25.6123</ele>
        <time>2013-04-27T13:52:12Z</time>
      </trkpt>
      <trkpt lat="59.9617177" lon="17.7799434">
        <ele>25.6123</ele>
        <time>2013-04-27T13:52:13Z</time>
      </trkpt>
      <trkpt lat="59.9617568" lon="17.7798538">
        <ele>25.6123</ele>
        <time>2013-04-27T13:52:14Z</time>
      </trkpt>
      <trkpt lat="59.9617957" lon="17.7797622">
        <ele>26.0929</ele>
        <time>2013-04-27T13:52:15Z</time>
      </trkpt>
      <trkpt lat="59.961836" lon="17.7796694">
        <ele>26.0929</ele>
        <time>2013-04-27T13:52:16Z</time>
      </trkpt>
      <trkpt lat="59.9618773" lon="17.7795755">
        <ele>26.0929</ele>
        <time>2013-04-27T13:52:17Z</time>
      </trkpt>
      <trkpt lat="59.9619225" lon="17.7794838">
        <ele>26.5736</ele>
        <time>2013-04-27T13:52:18Z</time>
      </trkpt>
      <trkpt lat="59.9619655" lon="17.7793914">
        <ele>26.5736</ele>
        <time>2013-04-27T13:52:19Z</time>
      </trkpt>
      <trkpt lat="59.9620104" lon="17.779299">
        <ele>26.5736</ele>
        <time>2013-04-27T13:52:20Z</time>
      </trkpt>
      <trkpt lat="59.9620562" lon="17.7792053">
        <ele>27.0543</ele>
        <time>2013-04-27T13:52:21Z</time>
      </trkpt>
      <trkpt lat="59.9621011" lon="17.7791095">
        <ele>27.0543</ele>
        <time>2013-04-27T13:52:22Z</time>
      </trkpt>
      <trkpt lat="59.9621457" lon="17.7790119">
        <ele>27.0543</ele>
        <time>2013-04-27T13:52:23Z</time>
      </trkpt>
      <trkpt lat="59.9621896" lon="17.7789116">
        <ele>27.0543</ele>
        <time>2013-04-27T13:52:24Z</time>
      </trkpt>
      <trkpt lat="59.9622357" lon="17.7788087">
        <ele>27.0543</ele>
        <time>2013-04-27T13:52:25Z</time>
      </trkpt>
      <trkpt lat="59.9622809" lon="17.7787029">
        <ele>27.0543</ele>
        <time>2013-04-27T13:52:26Z</time>
      </trkpt>
      <trkpt lat="59.962325" lon="17.7785954">
        <ele>27.5349</ele>
        <time>2013-04-27T13:52:27Z</time>
      </trkpt>
      <trkpt lat="59.96237" lon="17.7784879">
        <ele>27.5349</ele>
        <time>2013-04-27T13:52:28Z</time>
      </trkpt>
      <trkpt lat="59.9624147" lon="17.7783822">
        <ele>27.5349</ele>
        <time>2013-04-27T13:52:29Z</time>
      </trkpt>
      <trkpt lat="59.9624586" lon="17.7782767">
        <ele>27.5349</ele>
        <time>2013-04-27T13:52:30Z</time>
      </trkpt>
      <trkpt lat="59.9625036" lon="17.7781744">
        <ele>27.5349</ele>
        <time>2013-04-27T13:52:31Z</time>
      </trkpt>
      <trkpt lat="59.9625518" lon="17.7780754">
        <ele>28.0155</ele>
        <time>2013-04-27T13:52:32Z</time>
      </trkpt>
      <trkpt lat="59.9625994" lon="17.7779782">
        <ele>28.0155</ele>
        <time>2013-04-27T13:52:33Z</time>
      </trkpt>
      <trkpt lat="59.9626457" lon="17.7778825">
        <ele>28.4962</ele>
        <time>2013-04-27T13:52:34Z</time>
      </trkpt>
      <trkpt lat="59.9626912" lon="17.7777884">
        <ele>28.4962</ele>
        <time>2013-04-27T13:52:35Z</time>
      </trkpt>
      <trkpt lat="59.9627365" lon="17.7776995">
        <ele>28.9769</ele>
        <time>2013-04-27T13:52:36Z</time>
      </trkpt>
      <trkpt lat="59.9627804" lon="17.7776128">
        <ele>28.9769</ele>
        <time>2013-04-27T13:52:37Z</time>
      </trkpt>
      <trkpt lat="59.9628214" lon="17.777526">
        <ele>28.4962</ele>
        <time>2013-04-27T13:52:38Z</time>
      </trkpt>
      <trkpt lat="59.9628615" lon="17.7774392">
        <ele>28.0155</ele>
        <time>2013-04-27T13:52:39Z</time>
      </trkpt>
      <trkpt lat="59.9629011" lon="17.7773519">
        <ele>27.5349</ele>
        <time>2013-04-27T13:52:40Z</time>
      </trkpt>
      <trkpt lat="59.9629389" lon="17.7772628">
        <ele>27.5349</ele>
        <time>2013-04-27T13:52:41Z</time>
      </trkpt>
      <trkpt lat="59.9629757" lon="17.7771701">
        <ele>27.0543</ele>
        <time>2013-04-27T13:52:42Z</time>
      </trkpt>
      <trkpt lat="59.9630134" lon="17.7770815">
        <ele>27.5349</ele>
        <time>2013-04-27T13:52:43Z</time>
      </trkpt>
      <trkpt lat="59.9630469" lon="17.7769875">
        <ele>27.5349</ele>
        <time>2013-04-27T13:52:44Z</time>
      </trkpt>
      <trkpt lat="59.9630766" lon="17.7768897">
        <ele>27.5349</ele>
        <time>2013-04-27T13:52:45Z</time>
      </trkpt>
      <trkpt lat="59.9631053" lon="17.7767935">
        <ele>27.5349</ele>
        <time>2013-04-27T13:52:46Z</time>
      </trkpt>
      <trkpt lat="59.963133" lon="17.7766998">
        <ele>27.5349</ele>
        <time>2013-04-27T13:52:47Z</time>
      </trkpt>
      <trkpt lat="59.9631612" lon="17.7766094">
        <ele>27.0543</ele>
        <time>2013-04-27T13:52:48Z</time>
      </trkpt>
      <trkpt lat="59.9631896" lon="17.7765214">
        <ele>27.0543</ele>
        <time>2013-04-27T13:52:49Z</time>
      </trkpt>
      <trkpt lat="59.9632145" lon="17.7764312">
        <ele>26.5736</ele>
        <time>2013-04-27T13:52:50Z</time>
      </trkpt>
      <trkpt lat="59.9632393" lon="17.7763401">
        <ele>26.0929</ele>
        <time>2013-04-27T13:52:51Z</time>
      </trkpt>
      <trkpt lat="59.9632668" lon="17.7762483">
        <ele>26.0929</ele>
        <time>2013-04-27T13:52:52Z</time>
      </trkpt>
      <trkpt lat="59.9632937" lon="17.7761527">
        <ele>25.6123</ele>
        <time>2013-04-27T13:52:53Z</time>
      </trkpt>
      <trkpt lat="59.963321" lon="17.7760541">
        <ele>25.6123</ele>
        <time>2013-04-27T13:52:54Z</time>
      </trkpt>
      <trkpt lat="59.9633501" lon="17.7759533">
        <ele>25.6123</ele>
        <time>2013-04-27T13:52:55Z</time>
      </trkpt>
      <trkpt lat="59.9633802" lon="17.7758501">
        <ele>25.1317</ele>
        <time>2013-04-27T13:52:56Z</time>
      </trkpt>
      <trkpt lat="59.9634128" lon="17.7757456">
        <ele>25.1317</ele>
        <time>2013-04-27T13:52:57Z</time>
      </trkpt>
      <trkpt lat="59.9634464" lon="17.77564">
        <ele>24.651</ele>
        <time>2013-04-27T13:52:58Z</time>
      </trkpt>
      <trkpt lat="59.9634797" lon="17.775533">
        <ele>24.651</ele>
        <time>2013-04-27T13:52:59Z</time>
      </trkpt>
      <trkpt lat="59.9635129" lon="17.7754247">
        <ele>24.651</ele>
        <time>2013-04-27T13:53:00Z</time>
      </trkpt>
      <trkpt lat="59.9635451" lon="17.7753149">
        <ele>24.651</ele>
        <time>2013-04-27T13:53:01Z</time>
      </trkpt>
      <trkpt lat="59.9635744" lon="17.7752032">
        <ele>24.651</ele>
        <time>2013-04-27T13:53:02Z</time>
      </trkpt>
      <trkpt lat="59.9636008" lon="17.7750903">
        <ele>24.1703</ele>
        <time>2013-04-27T13:53:03Z</time>
      </trkpt>
      <trkpt lat="59.9636247" lon="17.7749769">
        <ele>24.1703</ele>
        <time>2013-04-27T13:53:04Z</time>
      </trkpt>
      <trkpt lat="59.963646" lon="17.7748628">
        <ele>24.1703</ele>
        <time>2013-04-27T13:53:05Z</time>
      </trkpt>
      <trkpt lat="59.963665" lon="17.7747472">
        <ele>23.6896</ele>
        <time>2013-04-27T13:53:06Z</time>
      </trkpt>
      <trkpt lat="59.9636833" lon="17.7746324">
        <ele>23.6896</ele>
        <time>2013-04-27T13:53:07Z</time>
      </trkpt>
      <trkpt lat="59.9637004" lon="17.7745185">
        <ele>23.6896</ele>
        <time>2013-04-27T13:53:08Z</time>
      </trkpt>
      <trkpt lat="59.9637174" lon="17.7744059">
        <ele>23.209</ele>
        <time>2013-04-27T13:53:09Z</time>
      </trkpt>
      <trkpt lat="59.9637351" lon="17.7742945">
        <ele>23.209</ele>
        <time>2013-04-27T13:53:10Z</time>
      </trkpt>
      <trkpt lat="59.9637537" lon="17.7741843">
        <ele>22.7283</ele>
        <time>2013-04-27T13:53:11Z</time>
      </trkpt>
      <trkpt lat="59.9637729" lon="17.7740738">
        <ele>22.2476</ele>
        <time>2013-04-27T13:53:12Z</time>
      </trkpt>
      <trkpt lat="59.9637926" lon="17.7739605">
        <ele>22.2476</ele>
        <time>2013-04-27T13:53:13Z</time>
      </trkpt>
      <trkpt lat="59.963812" lon="17.7738446">
        <ele>21.767</ele>
        <time>2013-04-27T13:53:14Z</time>
      </trkpt>
      <trkpt lat="59.963831" lon="17.7737267">
        <ele>21.767</ele>
        <time>2013-04-27T13:53:15Z</time>
      </trkpt>
      <trkpt lat="59.963849" lon="17.7736072">
        <ele>21.2864</ele>
        <time>2013-04-27T13:53:16Z</time>
      </trkpt>
      <trkpt lat="59.9638656" lon="17.7734859">
        <ele>20.8057</ele>
        <time>2013-04-27T13:53:17Z</time>
      </trkpt>
      <trkpt lat="59.9638806" lon="17.7733639">
        <ele>20.8057</ele>
        <time>2013-04-27T13:53:18Z</time>
      </trkpt>
      <trkpt lat="59.9638927" lon="17.7732434">
        <ele>20.325</ele>
        <time>2013-04-27T13:53:19Z</time>
      </trkpt>
      <trkpt lat="59.9639004" lon="17.7731229">
        <ele>20.325</ele>
        <time>2013-04-27T13:53:20Z</time>
      </trkpt>
      <trkpt lat="59.9639014" lon="17.7730002">
        <ele>20.325</ele>
        <time>2013-04-27T13:53:21Z</time>
      </trkpt>
      <trkpt lat="59.9638973" lon="17.7728761">
        <ele>19.3638</ele>
        <time>2013-04-27T13:53:22Z</time>
      </trkpt>
      <trkpt lat="59.9638906" lon="17.7727512">
        <ele>19.3638</ele>
        <time>2013-04-27T13:53:23Z</time>
      </trkpt>
      <trkpt lat="59.9638811" lon="17.7726233">
        <ele>18.8831</ele>
        <time>2013-04-27T13:53:24Z</time>
      </trkpt>
      <trkpt lat="59.9638675" lon="17.7724959">
        <ele>18.8831</ele>
        <time>2013-04-27T13:53:25Z</time>
      </trkpt>
      <trkpt lat="59.9638511" lon="17.7723713">
        <ele>18.8831</ele>
        <time>2013-04-27T13:53:26Z</time>
      </trkpt>
      <trkpt lat="59.9638324" lon="17.7722509">
        <ele>19.8444</ele>
        <time>2013-04-27T13:53:27Z</time>
      </trkpt>
      <trkpt lat="59.9638091" lon="17.7721336">
        <ele>20.325</ele>
        <time>2013-04-27T13:53:28Z</time>
      </trkpt>
      <trkpt lat="59.9637839" lon="17.7720226">
        <ele>20.8057</ele>
        <time>2013-04-27T13:53:29Z</time>
      </trkpt>
      <trkpt lat="59.9637608" lon="17.7719172">
        <ele>21.2864</ele>
        <time>2013-04-27T13:53:30Z</time>
      </trkpt>
      <trkpt lat="59.9637407" lon="17.7718158">
        <ele>21.767</ele>
        <time>2013-04-27T13:53:31Z</time>
      </trkpt>
      <trkpt lat="59.9637225" lon="17.771716">
        <ele>23.209</ele>
        <time>2013-04-27T13:53:32Z</time>
      </trkpt>
      <trkpt lat="59.9637005" lon="17.7716148">
        <ele>23.209</ele>
        <time>2013-04-27T13:53:33Z</time>
      </trkpt>
      <trkpt lat="59.9636796" lon="17.7715145">
        <ele>23.6896</ele>
        <time>2013-04-27T13:53:34Z</time>
      </trkpt>
      <trkpt lat="59.9636564" lon="17.771413">
        <ele>24.1703</ele>
        <time>2013-04-27T13:53:35Z</time>
      </trkpt>
      <trkpt lat="59.9636323" lon="17.7713063">
        <ele>24.1703</ele>
        <time>2013-04-27T13:53:36Z</time>
      </trkpt>
      <trkpt lat="59.9636079" lon="17.7711993">
        <ele>23.6896</ele>
        <time>2013-04-27T13:53:37Z</time>
      </trkpt>
      <trkpt lat="59.9635864" lon="17.7710922">
        <ele>23.6896</ele>
        <time>2013-04-27T13:53:38Z</time>
      </trkpt>
      <trkpt lat="59.9635688" lon="17.7709876">
        <ele>24.651</ele>
        <time>2013-04-27T13:53:39Z</time>
      </trkpt>
      <trkpt lat="59.9635521" lon="17.7708841">
        <ele>25.1317</ele>
        <time>2013-04-27T13:53:40Z</time>
      </trkpt>
      <trkpt lat="59.9635383" lon="17.7707805">
        <ele>26.0929</ele>
        <time>2013-04-27T13:53:41Z</time>
      </trkpt>
      <trkpt lat="59.9635253" lon="17.7706735">
        <ele>26.5736</ele>
        <time>2013-04-27T13:53:42Z</time>
      </trkpt>
      <trkpt lat="59.9635187" lon="17.7705686">
        <ele>27.0543</ele>
        <time>2013-04-27T13:53:43Z</time>
      </trkpt>
      <trkpt lat="59.9635154" lon="17.7704685">
        <ele>27.5349</ele>
        <time>2013-04-27T13:53:44Z</time>
      </trkpt>
      <trkpt lat="59.9635123" lon="17.7703674">
        <ele>28.0155</ele>
        <time>2013-04-27T13:53:45Z</time>
      </trkpt>
      <trkpt lat="59.9635045" lon="17.7702634">
        <ele>28.0155</ele>
        <time>2013-04-27T13:53:46Z</time>
      </trkpt>
      <trkpt lat="59.963499" lon="17.7701574">
        <ele>27.5349</ele>
        <time>2013-04-27T13:53:47Z</time>
      </trkpt>
      <trkpt lat="59.9634968" lon="17.770051">
        <ele>27.5349</ele>
        <time>2013-04-27T13:53:48Z</time>
      </trkpt>
      <trkpt lat="59.9634933" lon="17.7699418">
        <ele>27.0543</ele>
        <time>2013-04-27T13:53:49Z</time>
      </trkpt>
      <trkpt lat="59.963491" lon="17.7698364">
        <ele>25.1317</ele>
        <time>2013-04-27T13:53:50Z</time>
      </trkpt>
      <trkpt lat="59.963494" lon="17.7697287">
        <ele>24.1703</ele>
        <time>2013-04-27T13:53:51Z</time>
      </trkpt>
      <trkpt lat="59.9635056" lon="17.7696247">
        <ele>23.6896</ele>
        <time>2013-04-27T13:53:52Z</time>
      </trkpt>
      <trkpt lat="59.9635227" lon="17.7695228">
        <ele>23.209</ele>
        <time>2013-04-27T13:53:53Z</time>
      </trkpt>
      <trkpt lat="59.9635448" lon="17.769421">
        <ele>22.7283</ele>
        <time>2013-04-27T13:53:54Z</time>
      </trkpt>
      <trkpt lat="59.9635715" lon="17.7693201">
        <ele>22.2476</ele>
        <time>2013-04-27T13:53:55Z</time>
      </trkpt>
      <trkpt lat="59.9635999" lon="17.7692176">
        <ele>21.767</ele>
        <time>2013-04-27T13:53:56Z</time>
      </trkpt>
      <trkpt lat="59.9636278" lon="17.769113">
        <ele>21.2864</ele>
        <time>2013-04-27T13:53:57Z</time>
      </trkpt>
      <trkpt lat="59.9636551" lon="17.769005">
        <ele>21.2864</ele>
        <time>2013-04-27T13:53:58Z</time>
      </trkpt>
      <trkpt lat="59.9636829" lon="17.7688969">
        <ele>20.8057</ele>
        <time>2013-04-27T13:53:59Z</time>
      </trkpt>
      <trkpt lat="59.9637113" lon="17.7687875">
        <ele>20.8057</ele>
        <time>2013-04-27T13:54:00Z</time>
      </trkpt>
      <trkpt lat="59.9637413" lon="17.76868">
        <ele>20.325</ele>
        <time>2013-04-27T13:54:01Z</time>
      </trkpt>
      <trkpt lat="59.9637703" lon="17.7685716">
        <ele>20.325</ele>
        <time>2013-04-27T13:54:02Z</time>
      </trkpt>
      <trkpt lat="59.9637982" lon="17.7684633">
        <ele>19.8444</ele>
        <time>2013-04-27T13:54:03Z</time>
      </trkpt>
      <trkpt lat="59.963826" lon="17.7683571">
        <ele>19.8444</ele>
        <time>2013-04-27T13:54:04Z</time>
      </trkpt>
      <trkpt lat="59.9638525" lon="17.7682529">
        <ele>19.8444</ele>
        <time>2013-04-27T13:54:05Z</time>
      </trkpt>
      <trkpt lat="59.9638764" lon="17.76815">
        <ele>19.8444</ele>
        <time>2013-04-27T13:54:06Z</time>
      </trkpt>
      <trkpt lat="59.9638987" lon="17.768049">
        <ele>19.8444</ele>
        <time>2013-04-27T13:54:07Z</time>
      </trkpt>
      <trkpt lat="59.9639188" lon="17.7679479">
        <ele>19.3638</ele>
        <time>2013-04-27T13:54:08Z</time>
      </trkpt>
      <trkpt lat="59.9639361" lon="17.767846">
        <ele>19.3638</ele>
        <time>2013-04-27T13:54:09Z</time>
      </trkpt>
      <trkpt lat="59.9639532" lon="17.7677467">
        <ele>19.3638</ele>
        <time>2013-04-27T13:54:10Z</time>
      </trkpt>
      <trkpt lat="59.9639712" lon="17.7676479">
        <ele>18.8831</ele>
        <time>2013-04-27T13:54:11Z</time>
      </trkpt>
      <trkpt lat="59.9639885" lon="17.7675496">
        <ele>18.8831</ele>
        <time>2013-04-27T13:54:12Z</time>
      </trkpt>
      <trkpt lat="59.9640043" lon="17.7674504">
        <ele>18.4023</ele>
        <time>2013-04-27T13:54:13Z</time>
      </trkpt>
      <trkpt lat="59.9640199" lon="17.7673496">
        <ele>17.9218</ele>
        <time>2013-04-27T13:54:14Z</time>
      </trkpt>
      <trkpt lat="59.9640348" lon="17.767246">
        <ele>17.9218</ele>
        <time>2013-04-27T13:54:15Z</time>
      </trkpt>
      <trkpt lat="59.9640463" lon="17.7671357">
        <ele>17.4412</ele>
        <time>2013-04-27T13:54:16Z</time>
      </trkpt>
      <trkpt lat="59.9640567" lon="17.7670253">
        <ele>17.4412</ele>
        <time>2013-04-27T13:54:17Z</time>
      </trkpt>
      <trkpt lat="59.9640624" lon="17.7669134">
        <ele>17.4412</ele>
        <time>2013-04-27T13:54:18Z</time>
      </trkpt>
      <trkpt lat="59.964065" lon="17.766803">
        <ele>16.9604</ele>
        <time>2013-04-27T13:54:19Z</time>
      </trkpt>
      <trkpt lat="59.964068" lon="17.7666971">
        <ele>17.4412</ele>
        <time>2013-04-27T13:54:20Z</time>
      </trkpt>
      <trkpt lat="59.9640681" lon="17.7665947">
        <ele>17.4412</ele>
        <time>2013-04-27T13:54:21Z</time>
      </trkpt>
      <trkpt lat="59.9640695" lon="17.7664929">
        <ele>17.9218</ele>
        <time>2013-04-27T13:54:22Z</time>
      </trkpt>
      <trkpt lat="59.9640703" lon="17.7663917">
        <ele>16.4797</ele>
        <time>2013-04-27T13:54:23Z</time>
      </trkpt>
      <trkpt lat="59.9640737" lon="17.7662901">
        <ele>15.999</ele>
        <time>2013-04-27T13:54:24Z</time>
      </trkpt>
      <trkpt lat="59.9640775" lon="17.7661909">
        <ele>14.557</ele>
        <time>2013-04-27T13:54:25Z</time>
      </trkpt>
      <trkpt lat="59.9640827" lon="17.7660953">
        <ele>13.5958</ele>
        <time>2013-04-27T13:54:26Z</time>
      </trkpt>
      <trkpt lat="59.9640905" lon="17.7659982">
        <ele>12.6344</ele>
        <time>2013-04-27T13:54:27Z</time>
      </trkpt>
      <trkpt lat="59.9641032" lon="17.765892">
        <ele>12.6344</ele>
        <time>2013-04-27T13:54:28Z</time>
      </trkpt>
      <trkpt lat="59.9641133" lon="17.7657662">
        <ele>13.1151</ele>
        <time>2013-04-27T13:54:29Z</time>
      </trkpt>
      <trkpt lat="59.964124" lon="17.7656276">
        <ele>13.5958</ele>
        <time>2013-04-27T13:54:30Z</time>
      </trkpt>
      <trkpt lat="59.9641339" lon="17.7654758">
        <ele>14.557</ele>
        <time>2013-04-27T13:54:31Z</time>
      </trkpt>
      <trkpt lat="59.964153" lon="17.7653222">
        <ele>15.999</ele>
        <time>2013-04-27T13:54:32Z</time>
      </trkpt>
      <trkpt lat="59.9641811" lon="17.765165">
        <ele>17.4412</ele>
        <time>2013-04-27T13:54:33Z</time>
      </trkpt>
      <trkpt lat="59.9642125" lon="17.7650041">
        <ele>17.9218</ele>
        <time>2013-04-27T13:54:34Z</time>
      </trkpt>
      <trkpt lat="59.9642458" lon="17.7648451">
        <ele>17.9218</ele>
        <time>2013-04-27T13:54:35Z</time>
      </trkpt>
      <trkpt lat="59.9642812" lon="17.7646944">
        <ele>17.9218</ele>
        <time>2013-04-27T13:54:36Z</time>
      </trkpt>
      <trkpt lat="59.9643169" lon="17.7645484">
        <ele>18.4023</ele>
        <time>2013-04-27T13:54:37Z</time>
      </trkpt>
      <trkpt lat="59.9643467" lon="17.7643976">
        <ele>18.8831</ele>
        <time>2013-04-27T13:54:38Z</time>
      </trkpt>
      <trkpt lat="59.9643772" lon="17.7642586">
        <ele>17.9218</ele>
        <time>2013-04-27T13:54:39Z</time>
      </trkpt>
      <trkpt lat="59.964408" lon="17.7641153">
        <ele>17.4412</ele>
        <time>2013-04-27T13:54:40Z</time>
      </trkpt>
      <trkpt lat="59.9644402" lon="17.7639784">
        <ele>16.9604</ele>
        <time>2013-04-27T13:54:41Z</time>
      </trkpt>
      <trkpt lat="59.9644748" lon="17.7638468">
        <ele>16.4797</ele>
        <time>2013-04-27T13:54:42Z</time>
      </trkpt>
      <trkpt lat="59.9645083" lon="17.7637195">
        <ele>15.999</ele>
        <time>2013-04-27T13:54:43Z</time>
      </trkpt>
      <trkpt lat="59.9645381" lon="17.7635921">
        <ele>15.0377</ele>
        <time>2013-04-27T13:54:44Z</time>
      </trkpt>
      <trkpt lat="59.9645671" lon="17.7634745">
        <ele>14.0764</ele>
        <time>2013-04-27T13:54:45Z</time>
      </trkpt>
      <trkpt lat="59.9645959" lon="17.7633552">
        <ele>13.1151</ele>
        <time>2013-04-27T13:54:46Z</time>
      </trkpt>
      <trkpt lat="59.9646296" lon="17.7632385">
        <ele>12.6344</ele>
        <time>2013-04-27T13:54:47Z</time>
      </trkpt>
      <trkpt lat="59.9646652" lon="17.7631209">
        <ele>12.6344</ele>
        <time>2013-04-27T13:54:48Z</time>
      </trkpt>
      <trkpt lat="59.9646979" lon="17.7629932">
        <ele>13.1151</ele>
        <time>2013-04-27T13:54:49Z</time>
      </trkpt>
      <trkpt lat="59.9647327" lon="17.7628735">
        <ele>13.5958</ele>
        <time>2013-04-27T13:54:50Z</time>
      </trkpt>
      <trkpt lat="59.96477" lon="17.7627593">
        <ele>13.5958</ele>
        <time>2013-04-27T13:54:51Z</time>
      </trkpt>
      <trkpt lat="59.9648099" lon="17.7626487">
        <ele>13.5958</ele>
        <time>2013-04-27T13:54:52Z</time>
      </trkpt>
      <trkpt lat="59.9648493" lon="17.7625343">
        <ele>14.0764</ele>
        <time>2013-04-27T13:54:53Z</time>
      </trkpt>
      <trkpt lat="59.96489" lon="17.7624284">
        <ele>14.0764</ele>
        <time>2013-04-27T13:54:54Z</time>
      </trkpt>
      <trkpt lat="59.9649296" lon="17.7623254">
        <ele>14.0764</ele>
        <time>2013-04-27T13:54:55Z</time>
      </trkpt>
      <trkpt lat="59.9649686" lon="17.7622238">
        <ele>14.0764</ele>
        <time>2013-04-27T13:54:56Z</time>
      </trkpt>
      <trkpt lat="59.9650076" lon="17.7621224">
        <ele>14.0764</ele>
        <time>2013-04-27T13:54:57Z</time>
      </trkpt>
      <trkpt lat="59.9650463" lon="17.7620255">
        <ele>14.557</ele>
        <time>2013-04-27T13:54:58Z</time>
      </trkpt>
      <trkpt lat="59.965085" lon="17.7619327">
        <ele>14.0764</ele>
        <time>2013-04-27T13:54:59Z</time>
      </trkpt>
      <trkpt lat="59.9651219" lon="17.7618386">
        <ele>14.0764</ele>
        <time>2013-04-27T13:55:00Z</time>
      </trkpt>
      <trkpt lat="59.9651575" lon="17.7617426">
        <ele>14.0764</ele>
        <time>2013-04-27T13:55:01Z</time>
      </trkpt>
      <trkpt lat="59.9651916" lon="17.7616425">
        <ele>13.5958</ele>
        <time>2013-04-27T13:55:02Z</time>
      </trkpt>
      <trkpt lat="59.9652238" lon="17.7615375">
        <ele>13.5958</ele>
        <time>2013-04-27T13:55:03Z</time>
      </trkpt>
      <trkpt lat="59.9652609" lon="17.7614401">
        <ele>13.1151</ele>
        <time>2013-04-27T13:55:04Z</time>
      </trkpt>
      <trkpt lat="59.9652994" lon="17.7613413">
        <ele>12.6344</ele>
        <time>2013-04-27T13:55:05Z</time>
      </trkpt>
      <trkpt lat="59.9653399" lon="17.7612421">
        <ele>12.6344</ele>
        <time>2013-04-27T13:55:06Z</time>
      </trkpt>
      <trkpt lat="59.9653817" lon="17.7611418">
        <ele>12.6344</ele>
        <time>2013-04-27T13:55:07Z</time>
      </trkpt>
      <trkpt lat="59.9654244" lon="17.7610404">
        <ele>13.1151</ele>
        <time>2013-04-27T13:55:08Z</time>
      </trkpt>
      <trkpt lat="59.9654698" lon="17.7609446">
        <ele>13.1151</ele>
        <time>2013-04-27T13:55:09Z</time>
      </trkpt>
      <trkpt lat="59.9655174" lon="17.7608569">
        <ele>13.5958</ele>
        <time>2013-04-27T13:55:10Z</time>
      </trkpt>
      <trkpt lat="59.9655662" lon="17.7607771">
        <ele>13.5958</ele>
        <time>2013-04-27T13:55:11Z</time>
      </trkpt>
      <trkpt lat="59.9656153" lon="17.7607075">
        <ele>13.5958</ele>
        <time>2013-04-27T13:55:12Z</time>
      </trkpt>
      <trkpt lat="59.9656621" lon="17.7606404">
        <ele>13.5958</ele>
        <time>2013-04-27T13:55:13Z</time>
      </trkpt>
      <trkpt lat="59.9657092" lon="17.7605729">
        <ele>13.1151</ele>
        <time>2013-04-27T13:55:14Z</time>
      </trkpt>
      <trkpt lat="59.9657551" lon="17.7604957">
        <ele>13.1151</ele>
        <time>2013-04-27T13:55:15Z</time>
      </trkpt>
      <trkpt lat="59.9658024" lon="17.7604166">
        <ele>12.6344</ele>
        <time>2013-04-27T13:55:16Z</time>
      </trkpt>
      <trkpt lat="59.965852" lon="17.7603368">
        <ele>12.1538</ele>
        <time>2013-04-27T13:55:17Z</time>
      </trkpt>
      <trkpt lat="59.9659022" lon="17.7602534">
        <ele>12.1538</ele>
        <time>2013-04-27T13:55:18Z</time>
      </trkpt>
      <trkpt lat="59.965952" lon="17.7601636">
        <ele>12.1538</ele>
        <time>2013-04-27T13:55:19Z</time>
      </trkpt>
      <trkpt lat="59.9659997" lon="17.7600873">
        <ele>12.1538</ele>
        <time>2013-04-27T13:55:20Z</time>
      </trkpt>
      <trkpt lat="59.9660463" lon="17.7600101">
        <ele>12.6344</ele>
        <time>2013-04-27T13:55:21Z</time>
      </trkpt>
      <trkpt lat="59.9660924" lon="17.7599343">
        <ele>12.6344</ele>
        <time>2013-04-27T13:55:22Z</time>
      </trkpt>
      <trkpt lat="59.9661375" lon="17.7598595">
        <ele>13.1151</ele>
        <time>2013-04-27T13:55:23Z</time>
      </trkpt>
      <trkpt lat="59.966183" lon="17.7597852">
        <ele>13.1151</ele>
        <time>2013-04-27T13:55:24Z</time>
      </trkpt>
      <trkpt lat="59.9662282" lon="17.7597117">
        <ele>13.1151</ele>
        <time>2013-04-27T13:55:25Z</time>
      </trkpt>
      <trkpt lat="59.9662734" lon="17.7596409">
        <ele>13.5958</ele>
        <time>2013-04-27T13:55:26Z</time>
      </trkpt>
      <trkpt lat="59.9663184" lon="17.7595728">
        <ele>13.5958</ele>
        <time>2013-04-27T13:55:27Z</time>
      </trkpt>
      <trkpt lat="59.9663628" lon="17.7595057">
        <ele>14.0764</ele>
        <time>2013-04-27T13:55:28Z</time>
      </trkpt>
      <trkpt lat="59.9664064" lon="17.759438">
        <ele>14.557</ele>
        <time>2013-04-27T13:55:29Z</time>
      </trkpt>
      <trkpt lat="59.966451" lon="17.7593707">
        <ele>14.557</ele>
        <time>2013-04-27T13:55:30Z</time>
      </trkpt>
      <trkpt lat="59.9664955" lon="17.7592997">
        <ele>15.5184</ele>
        <time>2013-04-27T13:55:31Z</time>
      </trkpt>
      <trkpt lat="59.9665426" lon="17.7592325">
        <ele>15.5184</ele>
        <time>2013-04-27T13:55:32Z</time>
      </trkpt>
      <trkpt lat="59.9665924" lon="17.7591682">
        <ele>15.999</ele>
        <time>2013-04-27T13:55:33Z</time>
      </trkpt>
      <trkpt lat="59.9666442" lon="17.7591113">
        <ele>15.999</ele>
        <time>2013-04-27T13:55:34Z</time>
      </trkpt>
      <trkpt lat="59.9666971" lon="17.7590517">
        <ele>16.4797</ele>
        <time>2013-04-27T13:55:35Z</time>
      </trkpt>
      <trkpt lat="59.9667515" lon="17.7590049">
        <ele>15.999</ele>
        <time>2013-04-27T13:55:36Z</time>
      </trkpt>
      <trkpt lat="59.9668062" lon="17.7589538">
        <ele>15.999</ele>
        <time>2013-04-27T13:55:37Z</time>
      </trkpt>
      <trkpt lat="59.9668608" lon="17.7589066">
        <ele>15.999</ele>
        <time>2013-04-27T13:55:38Z</time>
      </trkpt>
      <trkpt lat="59.9669173" lon="17.7588689">
        <ele>15.999</ele>
        <time>2013-04-27T13:55:39Z</time>
      </trkpt>
      <trkpt lat="59.9669737" lon="17.7588272">
        <ele>15.999</ele>
        <time>2013-04-27T13:55:40Z</time>
      </trkpt>
      <trkpt lat="59.9670281" lon="17.7587813">
        <ele>15.999</ele>
        <time>2013-04-27T13:55:41Z</time>
      </trkpt>
      <trkpt lat="59.9670835" lon="17.7587517">
        <ele>15.999</ele>
        <time>2013-04-27T13:55:42Z</time>
      </trkpt>
      <trkpt lat="59.9671364" lon="17.7587129">
        <ele>15.5184</ele>
        <time>2013-04-27T13:55:43Z</time>
      </trkpt>
      <trkpt lat="59.9671869" lon="17.7586635">
        <ele>15.0377</ele>
        <time>2013-04-27T13:55:44Z</time>
      </trkpt>
      <trkpt lat="59.9672389" lon="17.7586261">
        <ele>14.557</ele>
        <time>2013-04-27T13:55:45Z</time>
      </trkpt>
      <trkpt lat="59.9672907" lon="17.7585865">
        <ele>14.0764</ele>
        <time>2013-04-27T13:55:46Z</time>
      </trkpt>
      <trkpt lat="59.9673429" lon="17.7585408">
        <ele>13.5958</ele>
        <time>2013-04-27T13:55:47Z</time>
      </trkpt>
      <trkpt lat="59.9673938" lon="17.7584881">
        <ele>14.0764</ele>
        <time>2013-04-27T13:55:48Z</time>
      </trkpt>
      <trkpt lat="59.9674448" lon="17.7584363">
        <ele>13.5958</ele>
        <time>2013-04-27T13:55:49Z</time>
      </trkpt>
      <trkpt lat="59.9674958" lon="17.7583844">
        <ele>14.0764</ele>
        <time>2013-04-27T13:55:50Z</time>
      </trkpt>
      <trkpt lat="59.967548" lon="17.7583439">
        <ele>13.5958</ele>
        <time>2013-04-27T13:55:51Z</time>
      </trkpt>
      <trkpt lat="59.9675968" lon="17.7582783">
        <ele>14.0764</ele>
        <time>2013-04-27T13:55:52Z</time>
      </trkpt>
      <trkpt lat="59.9676461" lon="17.7582402">
        <ele>13.5958</ele>
        <time>2013-04-27T13:55:53Z</time>
      </trkpt>
      <trkpt lat="59.9676952" lon="17.7581867">
        <ele>13.5958</ele>
        <time>2013-04-27T13:55:54Z</time>
      </trkpt>
      <trkpt lat="59.9677425" lon="17.7581413">
        <ele>13.5958</ele>
        <time>2013-04-27T13:55:55Z</time>
      </trkpt>
      <trkpt lat="59.9677902" lon="17.7580916">
        <ele>13.5958</ele>
        <time>2013-04-27T13:55:56Z</time>
      </trkpt>
      <trkpt lat="59.9678328" lon="17.7580276">
        <ele>14.557</ele>
        <time>2013-04-27T13:55:57Z</time>
      </trkpt>
      <trkpt lat="59.9678746" lon="17.7579596">
        <ele>15.5184</ele>
        <time>2013-04-27T13:55:58Z</time>
      </trkpt>
      <trkpt lat="59.9679181" lon="17.7578968">
        <ele>15.999</ele>
        <time>2013-04-27T13:55:59Z</time>
      </trkpt>
      <trkpt lat="59.9679626" lon="17.7578318">
        <ele>16.9604</ele>
        <time>2013-04-27T13:56:00Z</time>
      </trkpt>
      <trkpt lat="59.9680066" lon="17.7577632">
        <ele>17.4412</ele>
        <time>2013-04-27T13:56:01Z</time>
      </trkpt>
      <trkpt lat="59.9680502" lon="17.7576982">
        <ele>18.4023</ele>
        <time>2013-04-27T13:56:02Z</time>
      </trkpt>
      <trkpt lat="59.9680931" lon="17.7576337">
        <ele>18.8831</ele>
        <time>2013-04-27T13:56:03Z</time>
      </trkpt>
      <trkpt lat="59.9681348" lon="17.7575722">
        <ele>19.3638</ele>
        <time>2013-04-27T13:56:04Z</time>
      </trkpt>
      <trkpt lat="59.9681739" lon="17.757511">
        <ele>19.8444</ele>
        <time>2013-04-27T13:56:05Z</time>
      </trkpt>
      <trkpt lat="59.9682106" lon="17.7574515">
        <ele>20.325</ele>
        <time>2013-04-27T13:56:06Z</time>
      </trkpt>
      <trkpt lat="59.9682467" lon="17.7573944">
        <ele>20.8057</ele>
        <time>2013-04-27T13:56:07Z</time>
      </trkpt>
      <trkpt lat="59.9682831" lon="17.7573374">
        <ele>20.8057</ele>
        <time>2013-04-27T13:56:08Z</time>
      </trkpt>
      <trkpt lat="59.9683203" lon="17.7572824">
        <ele>21.2864</ele>
        <time>2013-04-27T13:56:09Z</time>
      </trkpt>
      <trkpt lat="59.9683582" lon="17.7572215">
        <ele>21.2864</ele>
        <time>2013-04-27T13:56:10Z</time>
      </trkpt>
      <trkpt lat="59.9683957" lon="17.7571572">
        <ele>21.767</ele>
        <time>2013-04-27T13:56:11Z</time>
      </trkpt>
      <trkpt lat="59.9684313" lon="17.757091">
        <ele>21.767</ele>
        <time>2013-04-27T13:56:12Z</time>
      </trkpt>
      <trkpt lat="59.9684705" lon="17.757041">
        <ele>21.767</ele>
        <time>2013-04-27T13:56:13Z</time>
      </trkpt>
      <trkpt lat="59.9685107" lon="17.756989">
        <ele>21.767</ele>
        <time>2013-04-27T13:56:14Z</time>
      </trkpt>
      <trkpt lat="59.9685487" lon="17.7569335">
        <ele>21.767</ele>
        <time>2013-04-27T13:56:15Z</time>
      </trkpt>
      <trkpt lat="59.9685831" lon="17.7568636">
        <ele>21.767</ele>
        <time>2013-04-27T13:56:16Z</time>
      </trkpt>
      <trkpt lat="59.9686187" lon="17.7567939">
        <ele>22.2476</ele>
        <time>2013-04-27T13:56:17Z</time>
      </trkpt>
      <trkpt lat="59.968655" lon="17.7567263">
        <ele>22.7283</ele>
        <time>2013-04-27T13:56:18Z</time>
      </trkpt>
      <trkpt lat="59.9686909" lon="17.7566595">
        <ele>22.7283</ele>
        <time>2013-04-27T13:56:19Z</time>
      </trkpt>
      <trkpt lat="59.9687261" lon="17.756592">
        <ele>22.7283</ele>
        <time>2013-04-27T13:56:20Z</time>
      </trkpt>
      <trkpt lat="59.9687607" lon="17.7565294">
        <ele>22.7283</ele>
        <time>2013-04-27T13:56:21Z</time>
      </trkpt>
      <trkpt lat="59.9687969" lon="17.7564648">
        <ele>22.2476</ele>
        <time>2013-04-27T13:56:22Z</time>
      </trkpt>
      <trkpt lat="59.9688354" lon="17.7564015">
        <ele>22.2476</ele>
        <time>2013-04-27T13:56:23Z</time>
      </trkpt>
      <trkpt lat="59.9688707" lon="17.756332">
        <ele>22.2476</ele>
        <time>2013-04-27T13:56:24Z</time>
      </trkpt>
      <trkpt lat="59.9689073" lon="17.7562642">
        <ele>21.767</ele>
        <time>2013-04-27T13:56:25Z</time>
      </trkpt>
      <trkpt lat="59.968944" lon="17.7561934">
        <ele>21.767</ele>
        <time>2013-04-27T13:56:26Z</time>
      </trkpt>
      <trkpt lat="59.96898" lon="17.7561193">
        <ele>21.2864</ele>
        <time>2013-04-27T13:56:27Z</time>
      </trkpt>
      <trkpt lat="59.9690163" lon="17.7560428">
        <ele>20.8057</ele>
        <time>2013-04-27T13:56:28Z</time>
      </trkpt>
      <trkpt lat="59.9690545" lon="17.7559648">
        <ele>20.8057</ele>
        <time>2013-04-27T13:56:29Z</time>
      </trkpt>
      <trkpt lat="59.9690924" lon="17.7558822">
        <ele>20.8057</ele>
        <time>2013-04-27T13:56:30Z</time>
      </trkpt>
      <trkpt lat="59.9691323" lon="17.7557991">
        <ele>20.8057</ele>
        <time>2013-04-27T13:56:31Z</time>
      </trkpt>
      <trkpt lat="59.9691717" lon="17.7557173">
        <ele>21.2864</ele>
        <time>2013-04-27T13:56:32Z</time>
      </trkpt>
      <trkpt lat="59.9692125" lon="17.7556341">
        <ele>21.2864</ele>
        <time>2013-04-27T13:56:33Z</time>
      </trkpt>
      <trkpt lat="59.9692554" lon="17.7555504">
        <ele>21.767</ele>
        <time>2013-04-27T13:56:34Z</time>
      </trkpt>
      <trkpt lat="59.9693011" lon="17.755464">
        <ele>22.7283</ele>
        <time>2013-04-27T13:56:35Z</time>
      </trkpt>
      <trkpt lat="59.9693424" lon="17.7553744">
        <ele>23.209</ele>
        <time>2013-04-27T13:56:36Z</time>
      </trkpt>
      <trkpt lat="59.9693793" lon="17.7552842">
        <ele>22.7283</ele>
        <time>2013-04-27T13:56:37Z</time>
      </trkpt>
      <trkpt lat="59.9694182" lon="17.7551978">
        <ele>22.2476</ele>
        <time>2013-04-27T13:56:38Z</time>
      </trkpt>
      <trkpt lat="59.9694571" lon="17.755112">
        <ele>21.767</ele>
        <time>2013-04-27T13:56:39Z</time>
      </trkpt>
      <trkpt lat="59.969496" lon="17.7550261">
        <ele>21.767</ele>
        <time>2013-04-27T13:56:40Z</time>
      </trkpt>
      <trkpt lat="59.9695368" lon="17.7549417">
        <ele>21.2864</ele>
        <time>2013-04-27T13:56:41Z</time>
      </trkpt>
      <trkpt lat="59.9695782" lon="17.7548564">
        <ele>21.767</ele>
        <time>2013-04-27T13:56:42Z</time>
      </trkpt>
      <trkpt lat="59.9696241" lon="17.7547748">
        <ele>22.2476</ele>
        <time>2013-04-27T13:56:43Z</time>
      </trkpt>
      <trkpt lat="59.9696693" lon="17.7546952">
        <ele>22.7283</ele>
        <time>2013-04-27T13:56:44Z</time>
      </trkpt>
      <trkpt lat="59.9697108" lon="17.7546044">
        <ele>23.209</ele>
        <time>2013-04-27T13:56:45Z</time>
      </trkpt>
      <trkpt lat="59.9697506" lon="17.7545175">
        <ele>23.209</ele>
        <time>2013-04-27T13:56:46Z</time>
      </trkpt>
      <trkpt lat="59.9697883" lon="17.7544299">
        <ele>22.2476</ele>
        <time>2013-04-27T13:56:47Z</time>
      </trkpt>
      <trkpt lat="59.9698284" lon="17.7543451">
        <ele>21.767</ele>
        <time>2013-04-27T13:56:48Z</time>
      </trkpt>
      <trkpt lat="59.9698692" lon="17.7542552">
        <ele>21.767</ele>
        <time>2013-04-27T13:56:49Z</time>
      </trkpt>
      <trkpt lat="59.969913" lon="17.7541651">
        <ele>21.767</ele>
        <time>2013-04-27T13:56:50Z</time>
      </trkpt>
      <trkpt lat="59.9699522" lon="17.7540679">
        <ele>21.2864</ele>
        <time>2013-04-27T13:56:51Z</time>
      </trkpt>
      <trkpt lat="59.9699893" lon="17.7539695">
        <ele>21.2864</ele>
        <time>2013-04-27T13:56:52Z</time>
      </trkpt>
      <trkpt lat="59.9700262" lon="17.753872">
        <ele>20.8057</ele>
        <time>2013-04-27T13:56:53Z</time>
      </trkpt>
      <trkpt lat="59.9700619" lon="17.7537716">
        <ele>20.325</ele>
        <time>2013-04-27T13:56:54Z</time>
      </trkpt>
      <trkpt lat="59.9701057" lon="17.7536727">
        <ele>21.2864</ele>
        <time>2013-04-27T13:56:55Z</time>
      </trkpt>
      <trkpt lat="59.9701463" lon="17.7535695">
        <ele>21.767</ele>
        <time>2013-04-27T13:56:56Z</time>
      </trkpt>
      <trkpt lat="59.9701823" lon="17.7534655">
        <ele>21.767</ele>
        <time>2013-04-27T13:56:57Z</time>
      </trkpt>
      <trkpt lat="59.9702191" lon="17.7533612">
        <ele>21.767</ele>
        <time>2013-04-27T13:56:58Z</time>
      </trkpt>
      <trkpt lat="59.9702616" lon="17.7532551">
        <ele>22.7283</ele>
        <time>2013-04-27T13:56:59Z</time>
      </trkpt>
      <trkpt lat="59.9702972" lon="17.7531494">
        <ele>22.7283</ele>
        <time>2013-04-27T13:57:00Z</time>
      </trkpt>
      <trkpt lat="59.9703329" lon="17.7530436">
        <ele>22.7283</ele>
        <time>2013-04-27T13:57:01Z</time>
      </trkpt>
      <trkpt lat="59.9703664" lon="17.7529379">
        <ele>22.2476</ele>
        <time>2013-04-27T13:57:02Z</time>
      </trkpt>
      <trkpt lat="59.9704019" lon="17.7528364">
        <ele>21.767</ele>
        <time>2013-04-27T13:57:03Z</time>
      </trkpt>
      <trkpt lat="59.9704402" lon="17.7527355">
        <ele>21.767</ele>
        <time>2013-04-27T13:57:04Z</time>
      </trkpt>
      <trkpt lat="59.9704807" lon="17.7526381">
        <ele>21.2864</ele>
        <time>2013-04-27T13:57:05Z</time>
      </trkpt>
      <trkpt lat="59.9705209" lon="17.7525463">
        <ele>20.8057</ele>
        <time>2013-04-27T13:57:06Z</time>
      </trkpt>
      <trkpt lat="59.9705614" lon="17.7524577">
        <ele>19.8444</ele>
        <time>2013-04-27T13:57:07Z</time>
      </trkpt>
      <trkpt lat="59.9706048" lon="17.7523686">
        <ele>19.8444</ele>
        <time>2013-04-27T13:57:08Z</time>
      </trkpt>
      <trkpt lat="59.9706488" lon="17.7522824">
        <ele>19.3638</ele>
        <time>2013-04-27T13:57:09Z</time>
      </trkpt>
      <trkpt lat="59.970694" lon="17.7521925">
        <ele>19.8444</ele>
        <time>2013-04-27T13:57:10Z</time>
      </trkpt>
      <trkpt lat="59.9707422" lon="17.7521099">
        <ele>19.3638</ele>
        <time>2013-04-27T13:57:11Z</time>
      </trkpt>
      <trkpt lat="59.9707896" lon="17.7520273">
        <ele>18.8831</ele>
        <time>2013-04-27T13:57:12Z</time>
      </trkpt>
      <trkpt lat="59.9708396" lon="17.7519524">
        <ele>18.4023</ele>
        <time>2013-04-27T13:57:13Z</time>
      </trkpt>
      <trkpt lat="59.9708903" lon="17.7518755">
        <ele>17.9218</ele>
        <time>2013-04-27T13:57:14Z</time>
      </trkpt>
      <trkpt lat="59.9709417" lon="17.7518012">
        <ele>17.4412</ele>
        <time>2013-04-27T13:57:15Z</time>
      </trkpt>
      <trkpt lat="59.9709958" lon="17.7517302">
        <ele>16.9604</ele>
        <time>2013-04-27T13:57:16Z</time>
      </trkpt>
      <trkpt lat="59.9710508" lon="17.7516587">
        <ele>16.9604</ele>
        <time>2013-04-27T13:57:17Z</time>
      </trkpt>
      <trkpt lat="59.9711059" lon="17.7515906">
        <ele>16.9604</ele>
        <time>2013-04-27T13:57:18Z</time>
      </trkpt>
      <trkpt lat="59.9711612" lon="17.7515261">
        <ele>16.4797</ele>
        <time>2013-04-27T13:57:19Z</time>
      </trkpt>
      <trkpt lat="59.9712187" lon="17.751466">
        <ele>16.4797</ele>
        <time>2013-04-27T13:57:20Z</time>
      </trkpt>
      <trkpt lat="59.9712778" lon="17.7514096">
        <ele>15.999</ele>
        <time>2013-04-27T13:57:21Z</time>
      </trkpt>
      <trkpt lat="59.9713367" lon="17.7513504">
        <ele>15.999</ele>
        <time>2013-04-27T13:57:22Z</time>
      </trkpt>
      <trkpt lat="59.9713947" lon="17.7512877">
        <ele>15.999</ele>
        <time>2013-04-27T13:57:23Z</time>
      </trkpt>
      <trkpt lat="59.9714514" lon="17.751224">
        <ele>15.999</ele>
        <time>2013-04-27T13:57:24Z</time>
      </trkpt>
      <trkpt lat="59.9715051" lon="17.7511629">
        <ele>15.999</ele>
        <time>2013-04-27T13:57:25Z</time>
      </trkpt>
      <trkpt lat="59.9715574" lon="17.7511037">
        <ele>15.5184</ele>
        <time>2013-04-27T13:57:26Z</time>
      </trkpt>
      <trkpt lat="59.9716099" lon="17.751039">
        <ele>15.5184</ele>
        <time>2013-04-27T13:57:27Z</time>
      </trkpt>
      <trkpt lat="59.9716601" lon="17.7509608">
        <ele>15.0377</ele>
        <time>2013-04-27T13:57:28Z</time>
      </trkpt>
      <trkpt lat="59.9717098" lon="17.7508798">
        <ele>15.0377</ele>
        <time>2013-04-27T13:57:29Z</time>
      </trkpt>
      <trkpt lat="59.9717588" lon="17.7507936">
        <ele>15.5184</ele>
        <time>2013-04-27T13:57:30Z</time>
      </trkpt>
      <trkpt lat="59.9718083" lon="17.7507033">
        <ele>15.999</ele>
        <time>2013-04-27T13:57:31Z</time>
      </trkpt>
      <trkpt lat="59.9718586" lon="17.7506105">
        <ele>16.4797</ele>
        <time>2013-04-27T13:57:32Z</time>
      </trkpt>
      <trkpt lat="59.9719039" lon="17.7505147">
        <ele>16.9604</ele>
        <time>2013-04-27T13:57:33Z</time>
      </trkpt>
      <trkpt lat="59.9719476" lon="17.7504195">
        <ele>16.9604</ele>
        <time>2013-04-27T13:57:34Z</time>
      </trkpt>
      <trkpt lat="59.9719889" lon="17.7503269">
        <ele>16.9604</ele>
        <time>2013-04-27T13:57:35Z</time>
      </trkpt>
      <trkpt lat="59.9720325" lon="17.750234">
        <ele>17.4412</ele>
        <time>2013-04-27T13:57:36Z</time>
      </trkpt>
      <trkpt lat="59.972074" lon="17.7500577">
        <ele>18.4023</ele>
        <time>2013-04-27T13:57:37Z</time>
      </trkpt>
      <trkpt lat="59.9721406" lon="17.7499376">
        <ele>19.3638</ele>
        <time>2013-04-27T13:57:38Z</time>
      </trkpt>
      <trkpt lat="59.9721937" lon="17.7498269">
        <ele>20.325</ele>
        <time>2013-04-27T13:57:39Z</time>
      </trkpt>
      <trkpt lat="59.9722331" lon="17.7497226">
        <ele>21.2864</ele>
        <time>2013-04-27T13:57:40Z</time>
      </trkpt>
      <trkpt lat="59.9722732" lon="17.7496244">
        <ele>21.767</ele>
        <time>2013-04-27T13:57:41Z</time>
      </trkpt>
      <trkpt lat="59.9723107" lon="17.7495204">
        <ele>21.2864</ele>
        <time>2013-04-27T13:57:42Z</time>
      </trkpt>
      <trkpt lat="59.9723496" lon="17.7494222">
        <ele>21.2864</ele>
        <time>2013-04-27T13:57:43Z</time>
      </trkpt>
      <trkpt lat="59.9723905" lon="17.7493275">
        <ele>21.2864</ele>
        <time>2013-04-27T13:57:44Z</time>
      </trkpt>
      <trkpt lat="59.9724315" lon="17.749232">
        <ele>21.2864</ele>
        <time>2013-04-27T13:57:45Z</time>
      </trkpt>
      <trkpt lat="59.9724782" lon="17.7491396">
        <ele>21.2864</ele>
        <time>2013-04-27T13:57:46Z</time>
      </trkpt>
      <trkpt lat="59.972524" lon="17.7490468">
        <ele>21.2864</ele>
        <time>2013-04-27T13:57:47Z</time>
      </trkpt>
      <trkpt lat="59.9725686" lon="17.7489551">
        <ele>20.8057</ele>
        <time>2013-04-27T13:57:48Z</time>
      </trkpt>
      <trkpt lat="59.9726073" lon="17.7488602">
        <ele>20.8057</ele>
        <time>2013-04-27T13:57:49Z</time>
      </trkpt>
      <trkpt lat="59.9726442" lon="17.7487676">
        <ele>20.8057</ele>
        <time>2013-04-27T13:57:50Z</time>
      </trkpt>
      <trkpt lat="59.9726848" lon="17.7486772">
        <ele>20.8057</ele>
        <time>2013-04-27T13:57:51Z</time>
      </trkpt>
      <trkpt lat="59.9727277" lon="17.7485835">
        <ele>20.8057</ele>
        <time>2013-04-27T13:57:52Z</time>
      </trkpt>
      <trkpt lat="59.9727629" lon="17.7484868">
        <ele>19.8444</ele>
        <time>2013-04-27T13:57:53Z</time>
      </trkpt>
      <trkpt lat="59.9728073" lon="17.7483923">
        <ele>19.8444</ele>
        <time>2013-04-27T13:57:54Z</time>
      </trkpt>
      <trkpt lat="59.9728499" lon="17.7482983">
        <ele>19.8444</ele>
        <time>2013-04-27T13:57:55Z</time>
      </trkpt>
      <trkpt lat="59.9728974" lon="17.7482071">
        <ele>19.3638</ele>
        <time>2013-04-27T13:57:56Z</time>
      </trkpt>
      <trkpt lat="59.9729443" lon="17.7481201">
        <ele>19.3638</ele>
        <time>2013-04-27T13:57:57Z</time>
      </trkpt>
      <trkpt lat="59.9729953" lon="17.748044">
        <ele>18.8831</ele>
        <time>2013-04-27T13:57:58Z</time>
      </trkpt>
      <trkpt lat="59.9730513" lon="17.7479764">
        <ele>18.8831</ele>
        <time>2013-04-27T13:57:59Z</time>
      </trkpt>
      <trkpt lat="59.9731062" lon="17.7479094">
        <ele>18.4023</ele>
        <time>2013-04-27T13:58:00Z</time>
      </trkpt>
      <trkpt lat="59.9731626" lon="17.7478471">
        <ele>18.8831</ele>
        <time>2013-04-27T13:58:01Z</time>
      </trkpt>
      <trkpt lat="59.9732173" lon="17.7477856">
        <ele>18.8831</ele>
        <time>2013-04-27T13:58:02Z</time>
      </trkpt>
      <trkpt lat="59.9732715" lon="17.7477241">
        <ele>19.3638</ele>
        <time>2013-04-27T13:58:03Z</time>
      </trkpt>
      <trkpt lat="59.9733267" lon="17.7476676">
        <ele>19.3638</ele>
        <time>2013-04-27T13:58:04Z</time>
      </trkpt>
      <trkpt lat="59.9733809" lon="17.7476099">
        <ele>19.8444</ele>
        <time>2013-04-27T13:58:05Z</time>
      </trkpt>
      <trkpt lat="59.9734343" lon="17.7475549">
        <ele>20.325</ele>
        <time>2013-04-27T13:58:06Z</time>
      </trkpt>
      <trkpt lat="59.9734867" lon="17.7474999">
        <ele>20.325</ele>
        <time>2013-04-27T13:58:07Z</time>
      </trkpt>
      <trkpt lat="59.9735388" lon="17.7474473">
        <ele>20.8057</ele>
        <time>2013-04-27T13:58:08Z</time>
      </trkpt>
      <trkpt lat="59.9735881" lon="17.7473969">
        <ele>20.8057</ele>
        <time>2013-04-27T13:58:09Z</time>
      </trkpt>
      <trkpt lat="59.9736363" lon="17.7473436">
        <ele>20.8057</ele>
        <time>2013-04-27T13:58:10Z</time>
      </trkpt>
      <trkpt lat="59.9736849" lon="17.7472918">
        <ele>21.2864</ele>
        <time>2013-04-27T13:58:11Z</time>
      </trkpt>
      <trkpt lat="59.9737314" lon="17.7472374">
        <ele>21.2864</ele>
        <time>2013-04-27T13:58:12Z</time>
      </trkpt>
      <trkpt lat="59.9737782" lon="17.7471852">
        <ele>21.767</ele>
        <time>2013-04-27T13:58:13Z</time>
      </trkpt>
      <trkpt lat="59.9738228" lon="17.7471338">
        <ele>21.2864</ele>
        <time>2013-04-27T13:58:14Z</time>
      </trkpt>
      <trkpt lat="59.9738694" lon="17.7470815">
        <ele>21.2864</ele>
        <time>2013-04-27T13:58:15Z</time>
      </trkpt>
      <trkpt lat="59.9739161" lon="17.7470258">
        <ele>21.2864</ele>
        <time>2013-04-27T13:58:16Z</time>
      </trkpt>
      <trkpt lat="59.9739632" lon="17.746971">
        <ele>21.2864</ele>
        <time>2013-04-27T13:58:17Z</time>
      </trkpt>
      <trkpt lat="59.9740123" lon="17.7469191">
        <ele>20.8057</ele>
        <time>2013-04-27T13:58:18Z</time>
      </trkpt>
      <trkpt lat="59.9740611" lon="17.7468619">
        <ele>20.8057</ele>
        <time>2013-04-27T13:58:19Z</time>
      </trkpt>
      <trkpt lat="59.9741093" lon="17.7468007">
        <ele>20.8057</ele>
        <time>2013-04-27T13:58:20Z</time>
      </trkpt>
      <trkpt lat="59.9741581" lon="17.7467381">
        <ele>20.8057</ele>
        <time>2013-04-27T13:58:21Z</time>
      </trkpt>
      <trkpt lat="59.9742067" lon="17.7466739">
        <ele>20.8057</ele>
        <time>2013-04-27T13:58:22Z</time>
      </trkpt>
      <trkpt lat="59.9742559" lon="17.7466074">
        <ele>20.8057</ele>
        <time>2013-04-27T13:58:23Z</time>
      </trkpt>
      <trkpt lat="59.9743083" lon="17.7465405">
        <ele>21.2864</ele>
        <time>2013-04-27T13:58:24Z</time>
      </trkpt>
      <trkpt lat="59.9743572" lon="17.7464732">
        <ele>21.767</ele>
        <time>2013-04-27T13:58:25Z</time>
      </trkpt>
      <trkpt lat="59.9744056" lon="17.746408">
        <ele>22.2476</ele>
        <time>2013-04-27T13:58:26Z</time>
      </trkpt>
      <trkpt lat="59.9744543" lon="17.7463422">
        <ele>22.7283</ele>
        <time>2013-04-27T13:58:27Z</time>
      </trkpt>
      <trkpt lat="59.9744963" lon="17.7462765">
        <ele>22.2476</ele>
        <time>2013-04-27T13:58:28Z</time>
      </trkpt>
      <trkpt lat="59.9745371" lon="17.7462081">
        <ele>22.2476</ele>
        <time>2013-04-27T13:58:29Z</time>
      </trkpt>
      <trkpt lat="59.974578" lon="17.7461346">
        <ele>22.2476</ele>
        <time>2013-04-27T13:58:30Z</time>
      </trkpt>
      <trkpt lat="59.9746172" lon="17.7460604">
        <ele>22.2476</ele>
        <time>2013-04-27T13:58:31Z</time>
      </trkpt>
      <trkpt lat="59.9746558" lon="17.7459869">
        <ele>22.2476</ele>
        <time>2013-04-27T13:58:32Z</time>
      </trkpt>
      <trkpt lat="59.9746956" lon="17.7459131">
        <ele>22.2476</ele>
        <time>2013-04-27T13:58:33Z</time>
      </trkpt>
      <trkpt lat="59.974739" lon="17.7458376">
        <ele>22.2476</ele>
        <time>2013-04-27T13:58:34Z</time>
      </trkpt>
      <trkpt lat="59.9747828" lon="17.7457557">
        <ele>22.7283</ele>
        <time>2013-04-27T13:58:35Z</time>
      </trkpt>
      <trkpt lat="59.9748298" lon="17.7456693">
        <ele>23.209</ele>
        <time>2013-04-27T13:58:36Z</time>
      </trkpt>
      <trkpt lat="59.9748697" lon="17.7455736">
        <ele>23.209</ele>
        <time>2013-04-27T13:58:37Z</time>
      </trkpt>
      <trkpt lat="59.9749054" lon="17.7454694">
        <ele>23.209</ele>
        <time>2013-04-27T13:58:38Z</time>
      </trkpt>
      <trkpt lat="59.9749422" lon="17.7453623">
        <ele>23.209</ele>
        <time>2013-04-27T13:58:39Z</time>
      </trkpt>
      <trkpt lat="59.9749773" lon="17.7452508">
        <ele>22.7283</ele>
        <time>2013-04-27T13:58:40Z</time>
      </trkpt>
      <trkpt lat="59.9750148" lon="17.7451378">
        <ele>22.7283</ele>
        <time>2013-04-27T13:58:41Z</time>
      </trkpt>
      <trkpt lat="59.975056" lon="17.7450194">
        <ele>23.209</ele>
        <time>2013-04-27T13:58:42Z</time>
      </trkpt>
      <trkpt lat="59.9750943" lon="17.7449007">
        <ele>23.209</ele>
        <time>2013-04-27T13:58:43Z</time>
      </trkpt>
      <trkpt lat="59.975127" lon="17.744781">
        <ele>22.7283</ele>
        <time>2013-04-27T13:58:44Z</time>
      </trkpt>
      <trkpt lat="59.9751582" lon="17.7446618">
        <ele>22.7283</ele>
        <time>2013-04-27T13:58:45Z</time>
      </trkpt>
      <trkpt lat="59.9751857" lon="17.7445417">
        <ele>22.2476</ele>
        <time>2013-04-27T13:58:46Z</time>
      </trkpt>
      <trkpt lat="59.9752119" lon="17.7444215">
        <ele>22.2476</ele>
        <time>2013-04-27T13:58:47Z</time>
      </trkpt>
      <trkpt lat="59.9752359" lon="17.7443013">
        <ele>21.767</ele>
        <time>2013-04-27T13:58:48Z</time>
      </trkpt>
      <trkpt lat="59.9752587" lon="17.744181">
        <ele>21.767</ele>
        <time>2013-04-27T13:58:49Z</time>
      </trkpt>
      <trkpt lat="59.9752816" lon="17.74406">
        <ele>21.767</ele>
        <time>2013-04-27T13:58:50Z</time>
      </trkpt>
      <trkpt lat="59.9753018" lon="17.7439347">
        <ele>21.767</ele>
        <time>2013-04-27T13:58:51Z</time>
      </trkpt>
      <trkpt lat="59.9753212" lon="17.7438085">
        <ele>21.767</ele>
        <time>2013-04-27T13:58:52Z</time>
      </trkpt>
      <trkpt lat="59.9753406" lon="17.7436818">
        <ele>21.767</ele>
        <time>2013-04-27T13:58:53Z</time>
      </trkpt>
      <trkpt lat="59.9753618" lon="17.7435558">
        <ele>21.767</ele>
        <time>2013-04-27T13:58:54Z</time>
      </trkpt>
      <trkpt lat="59.9753862" lon="17.74343">
        <ele>21.767</ele>
        <time>2013-04-27T13:58:55Z</time>
      </trkpt>
      <trkpt lat="59.9754139" lon="17.7433055">
        <ele>21.767</ele>
        <time>2013-04-27T13:58:56Z</time>
      </trkpt>
      <trkpt lat="59.9754442" lon="17.7431823">
        <ele>21.767</ele>
        <time>2013-04-27T13:58:57Z</time>
      </trkpt>
      <trkpt lat="59.9754761" lon="17.7430596">
        <ele>21.767</ele>
        <time>2013-04-27T13:58:58Z</time>
      </trkpt>
      <trkpt lat="59.9755089" lon="17.7429358">
        <ele>21.767</ele>
        <time>2013-04-27T13:58:59Z</time>
      </trkpt>
      <trkpt lat="59.9755414" lon="17.742814">
        <ele>21.767</ele>
        <time>2013-04-27T13:59:00Z</time>
      </trkpt>
      <trkpt lat="59.9755714" lon="17.742652">
        <ele>21.767</ele>
        <time>2013-04-27T13:59:01Z</time>
      </trkpt>
      <trkpt lat="59.9755988" lon="17.7425105">
        <ele>21.767</ele>
        <time>2013-04-27T13:59:02Z</time>
      </trkpt>
      <trkpt lat="59.9756248" lon="17.7423648">
        <ele>21.767</ele>
        <time>2013-04-27T13:59:03Z</time>
      </trkpt>
      <trkpt lat="59.9756576" lon="17.7422375">
        <ele>21.767</ele>
        <time>2013-04-27T13:59:04Z</time>
      </trkpt>
      <trkpt lat="59.9756929" lon="17.7421146">
        <ele>21.2864</ele>
        <time>2013-04-27T13:59:05Z</time>
      </trkpt>
      <trkpt lat="59.9757226" lon="17.7419864">
        <ele>21.2864</ele>
        <time>2013-04-27T13:59:06Z</time>
      </trkpt>
      <trkpt lat="59.9757615" lon="17.7418608">
        <ele>21.2864</ele>
        <time>2013-04-27T13:59:07Z</time>
      </trkpt>
      <trkpt lat="59.9757901" lon="17.7417303">
        <ele>20.8057</ele>
        <time>2013-04-27T13:59:08Z</time>
      </trkpt>
      <trkpt lat="59.9758188" lon="17.7415979">
        <ele>20.8057</ele>
        <time>2013-04-27T13:59:09Z</time>
      </trkpt>
      <trkpt lat="59.9758477" lon="17.741465">
        <ele>20.325</ele>
        <time>2013-04-27T13:59:10Z</time>
      </trkpt>
      <trkpt lat="59.9758802" lon="17.7413314">
        <ele>20.325</ele>
        <time>2013-04-27T13:59:11Z</time>
      </trkpt>
      <trkpt lat="59.9759161" lon="17.7411951">
        <ele>20.325</ele>
        <time>2013-04-27T13:59:12Z</time>
      </trkpt>
      <trkpt lat="59.9759507" lon="17.74106">
        <ele>19.8444</ele>
        <time>2013-04-27T13:59:13Z</time>
      </trkpt>
      <trkpt lat="59.9759864" lon="17.7409259">
        <ele>19.8444</ele>
        <time>2013-04-27T13:59:14Z</time>
      </trkpt>
      <trkpt lat="59.9760233" lon="17.7407932">
        <ele>19.8444</ele>
        <time>2013-04-27T13:59:15Z</time>
      </trkpt>
      <trkpt lat="59.976061" lon="17.7406618">
        <ele>19.8444</ele>
        <time>2013-04-27T13:59:16Z</time>
      </trkpt>
      <trkpt lat="59.9761005" lon="17.7405341">
        <ele>19.8444</ele>
        <time>2013-04-27T13:59:17Z</time>
      </trkpt>
      <trkpt lat="59.9761419" lon="17.7404103">
        <ele>19.8444</ele>
        <time>2013-04-27T13:59:18Z</time>
      </trkpt>
      <trkpt lat="59.9761839" lon="17.7402893">
        <ele>19.8444</ele>
        <time>2013-04-27T13:59:19Z</time>
      </trkpt>
      <trkpt lat="59.9762249" lon="17.7401679">
        <ele>19.8444</ele>
        <time>2013-04-27T13:59:20Z</time>
      </trkpt>
      <trkpt lat="59.9762664" lon="17.7400436">
        <ele>19.8444</ele>
        <time>2013-04-27T13:59:21Z</time>
      </trkpt>
      <trkpt lat="59.9763081" lon="17.7399172">
        <ele>19.3638</ele>
        <time>2013-04-27T13:59:22Z</time>
      </trkpt>
      <trkpt lat="59.9763548" lon="17.739794">
        <ele>18.8831</ele>
        <time>2013-04-27T13:59:23Z</time>
      </trkpt>
      <trkpt lat="59.9764097" lon="17.7396828">
        <ele>18.8831</ele>
        <time>2013-04-27T13:59:24Z</time>
      </trkpt>
      <trkpt lat="59.9764761" lon="17.7396005">
        <ele>19.3638</ele>
        <time>2013-04-27T13:59:25Z</time>
      </trkpt>
      <trkpt lat="59.976547" lon="17.7395278">
        <ele>19.3638</ele>
        <time>2013-04-27T13:59:26Z</time>
      </trkpt>
      <trkpt lat="59.9766155" lon="17.7394653">
        <ele>19.8444</ele>
        <time>2013-04-27T13:59:27Z</time>
      </trkpt>
      <trkpt lat="59.9766853" lon="17.7394242">
        <ele>20.325</ele>
        <time>2013-04-27T13:59:28Z</time>
      </trkpt>
      <trkpt lat="59.9767542" lon="17.7393989">
        <ele>20.8057</ele>
        <time>2013-04-27T13:59:29Z</time>
      </trkpt>
      <trkpt lat="59.9768191" lon="17.7393761">
        <ele>20.8057</ele>
        <time>2013-04-27T13:59:30Z</time>
      </trkpt>
      <trkpt lat="59.9768818" lon="17.7393595">
        <ele>21.2864</ele>
        <time>2013-04-27T13:59:31Z</time>
      </trkpt>
      <trkpt lat="59.9769402" lon="17.7393491">
        <ele>21.2864</ele>
        <time>2013-04-27T13:59:32Z</time>
      </trkpt>
      <trkpt lat="59.9770003" lon="17.739331">
        <ele>21.2864</ele>
        <time>2013-04-27T13:59:33Z</time>
      </trkpt>
      <trkpt lat="59.9770592" lon="17.7393036">
        <ele>21.2864</ele>
        <time>2013-04-27T13:59:34Z</time>
      </trkpt>
      <trkpt lat="59.9771188" lon="17.739273">
        <ele>21.767</ele>
        <time>2013-04-27T13:59:35Z</time>
      </trkpt>
      <trkpt lat="59.9771765" lon="17.7392341">
        <ele>21.767</ele>
        <time>2013-04-27T13:59:36Z</time>
      </trkpt>
      <trkpt lat="59.9772326" lon="17.7392016">
        <ele>22.2476</ele>
        <time>2013-04-27T13:59:37Z</time>
      </trkpt>
      <trkpt lat="59.9772884" lon="17.7391662">
        <ele>22.7283</ele>
        <time>2013-04-27T13:59:38Z</time>
      </trkpt>
      <trkpt lat="59.9773432" lon="17.7391351">
        <ele>23.209</ele>
        <time>2013-04-27T13:59:39Z</time>
      </trkpt>
      <trkpt lat="59.977399" lon="17.7391073">
        <ele>23.209</ele>
        <time>2013-04-27T13:59:40Z</time>
      </trkpt>
      <trkpt lat="59.9774559" lon="17.7390829">
        <ele>23.6896</ele>
        <time>2013-04-27T13:59:41Z</time>
      </trkpt>
      <trkpt lat="59.9775111" lon="17.7390627">
        <ele>24.1703</ele>
        <time>2013-04-27T13:59:42Z</time>
      </trkpt>
      <trkpt lat="59.9775659" lon="17.7390476">
        <ele>24.651</ele>
        <time>2013-04-27T13:59:43Z</time>
      </trkpt>
      <trkpt lat="59.9776186" lon="17.7390425">
        <ele>24.651</ele>
        <time>2013-04-27T13:59:44Z</time>
      </trkpt>
      <trkpt lat="59.977672" lon="17.7390474">
        <ele>25.6123</ele>
        <time>2013-04-27T13:59:45Z</time>
      </trkpt>
      <trkpt lat="59.977723" lon="17.739057">
        <ele>26.0929</ele>
        <time>2013-04-27T13:59:46Z</time>
      </trkpt>
      <trkpt lat="59.9777737" lon="17.7390684">
        <ele>26.5736</ele>
        <time>2013-04-27T13:59:47Z</time>
      </trkpt>
      <trkpt lat="59.9778229" lon="17.7390829">
        <ele>27.0543</ele>
        <time>2013-04-27T13:59:48Z</time>
      </trkpt>
      <trkpt lat="59.9778725" lon="17.7391018">
        <ele>27.5349</ele>
        <time>2013-04-27T13:59:49Z</time>
      </trkpt>
      <trkpt lat="59.977923" lon="17.7391269">
        <ele>28.0155</ele>
        <time>2013-04-27T13:59:50Z</time>
      </trkpt>
      <trkpt lat="59.9779724" lon="17.7391568">
        <ele>28.0155</ele>
        <time>2013-04-27T13:59:51Z</time>
      </trkpt>
      <trkpt lat="59.9780214" lon="17.7391897">
        <ele>28.4962</ele>
        <time>2013-04-27T13:59:52Z</time>
      </trkpt>
      <trkpt lat="59.9780737" lon="17.7392182">
        <ele>28.9769</ele>
        <time>2013-04-27T13:59:53Z</time>
      </trkpt>
      <trkpt lat="59.9781299" lon="17.7392378">
        <ele>29.4575</ele>
        <time>2013-04-27T13:59:54Z</time>
      </trkpt>
      <trkpt lat="59.9781855" lon="17.7392533">
        <ele>29.9381</ele>
        <time>2013-04-27T13:59:55Z</time>
      </trkpt>
      <trkpt lat="59.9782372" lon="17.7392661">
        <ele>29.9381</ele>
        <time>2013-04-27T13:59:56Z</time>
      </trkpt>
      <trkpt lat="59.9782869" lon="17.739279">
        <ele>30.4188</ele>
        <time>2013-04-27T13:59:57Z</time>
      </trkpt>
      <trkpt lat="59.9783355" lon="17.7392946">
        <ele>30.4188</ele>
        <time>2013-04-27T13:59:58Z</time>
      </trkpt>
      <trkpt lat="59.9783813" lon="17.7393104">
        <ele>30.4188</ele>
        <time>2013-04-27T13:59:59Z</time>
      </trkpt>
      <trkpt lat="59.978429" lon="17.7393179">
        <ele>30.4188</ele>
        <time>2013-04-27T14:00:00Z</time>
      </trkpt>
      <trkpt lat="59.9784756" lon="17.7393238">
        <ele>30.4188</ele>
        <time>2013-04-27T14:00:01Z</time>
      </trkpt>
      <trkpt lat="59.9785206" lon="17.7393323">
        <ele>29.9381</ele>
        <time>2013-04-27T14:00:02Z</time>
      </trkpt>
      <trkpt lat="59.9785673" lon="17.7393378">
        <ele>29.9381</ele>
        <time>2013-04-27T14:00:03Z</time>
      </trkpt>
      <trkpt lat="59.9786145" lon="17.7393414">
        <ele>29.9381</ele>
        <time>2013-04-27T14:00:04Z</time>
      </trkpt>
      <trkpt lat="59.978661" lon="17.7393479">
        <ele>29.4575</ele>
        <time>2013-04-27T14:00:05Z</time>
      </trkpt>
      <trkpt lat="59.978707" lon="17.7393551">
        <ele>29.4575</ele>
        <time>2013-04-27T14:00:06Z</time>
      </trkpt>
      <trkpt lat="59.9787537" lon="17.7393593">
        <ele>28.9769</ele>
        <time>2013-04-27T14:00:07Z</time>
      </trkpt>
      <trkpt lat="59.9787993" lon="17.7393635">
        <ele>28.9769</ele>
        <time>2013-04-27T14:00:08Z</time>
      </trkpt>
      <trkpt lat="59.9788424" lon="17.7393667">
        <ele>28.9769</ele>
        <time>2013-04-27T14:00:09Z</time>
      </trkpt>
      <trkpt lat="59.9788774" lon="17.739378">
        <ele>28.9769</ele>
        <time>2013-04-27T14:00:10Z</time>
      </trkpt>
      <trkpt lat="59.9788989" lon="17.7393982">
        <ele>28.9769</ele>
        <time>2013-04-27T14:00:11Z</time>
      </trkpt>
      <trkpt lat="59.9789117" lon="17.7394102">
        <ele>28.9769</ele>
        <time>2013-04-27T14:00:12Z</time>
      </trkpt>
      <trkpt lat="59.9789168" lon="17.7394119">
        <ele>28.4962</ele>
        <time>2013-04-27T14:00:13Z</time>
      </trkpt>
      <trkpt lat="59.9789172" lon="17.7394124">
        <ele>28.4962</ele>
        <time>2013-04-27T14:00:14Z</time>
      </trkpt>
      <trkpt lat="59.9789173" lon="17.7394128">
        <ele>28.4962</ele>
        <time>2013-04-27T14:00:15Z</time>
      </trkpt>
      <trkpt lat="59.9789168" lon="17.7394122">
        <ele>28.4962</ele>
        <time>2013-04-27T14:00:16Z</time>
      </trkpt>
    </trkseg>
  </trk>
</gpx>